<?xml version="1.0" encoding="UTF-8" standalone="no" ?>
<gpx xmlns="http://www.topografix.com/GPX/1/1" xmlns:xsi="http://www.w3.org/2001/XMLSchema-instance" xsi:schemaLocation="http://www.topografix.com/GPX/1/1 http://www.topografix.com/GPX/1/1/gpx.xsd" version="1.1" creator="VisuGPX - https://www.visugpx.com">
  <metadata>
    <name>Circuit des Myrtilles 2023</name>
    <desc><![CDATA[Circuit des Myrtilles 2023
Parcours 75km - 1200m dénivelés ]]></desc>
  </metadata>
  <wpt lat="48.32019" lon="7.34936">
    <ele>230.8</ele>
    <name><![CDATA[Ravitaillement]]></name>
  </wpt>
  <wpt lat="48.42856" lon="7.31629">
    <ele>948</ele>
    <name><![CDATA[Ravitaillement]]></name>
  </wpt>
  <trk>
    <name><![CDATA[Circuit des Myrtilles 2023]]></name>
    <trkseg>
      <trkpt lat="48.45724" lon="7.43334">
        <ele>259.4</ele>
        <time>2023-07-23T12:05:38Z</time>
      </trkpt>
      <trkpt lat="48.45724" lon="7.43334">
        <ele>259.4</ele>
        <time>2023-07-23T12:05:39Z</time>
      </trkpt>
      <trkpt lat="48.45724" lon="7.43334">
        <ele>259.4</ele>
        <time>2023-07-23T12:05:40Z</time>
      </trkpt>
      <trkpt lat="48.45724" lon="7.43334">
        <ele>259.4</ele>
        <time>2023-07-23T12:05:41Z</time>
      </trkpt>
      <trkpt lat="48.45724" lon="7.43334">
        <ele>259.4</ele>
        <time>2023-07-23T12:05:42Z</time>
      </trkpt>
      <trkpt lat="48.45724" lon="7.43334">
        <ele>259.4</ele>
        <time>2023-07-23T12:05:43Z</time>
      </trkpt>
      <trkpt lat="48.45723" lon="7.43333">
        <ele>259.5</ele>
        <time>2023-07-23T12:05:44Z</time>
      </trkpt>
      <trkpt lat="48.45724" lon="7.43332">
        <ele>259.5</ele>
        <time>2023-07-23T12:05:45Z</time>
      </trkpt>
      <trkpt lat="48.45724" lon="7.43332">
        <ele>259.5</ele>
        <time>2023-07-23T12:05:46Z</time>
      </trkpt>
      <trkpt lat="48.45653" lon="7.43672">
        <ele>260.4</ele>
        <time>2023-07-23T07:31:51Z</time>
      </trkpt>
      <trkpt lat="48.45653" lon="7.43672">
        <ele>260.4</ele>
        <time>2023-07-23T07:31:51Z</time>
      </trkpt>
      <trkpt lat="48.45651" lon="7.43682">
        <ele>260</ele>
        <time>2023-07-23T07:31:52Z</time>
      </trkpt>
      <trkpt lat="48.45649" lon="7.4369">
        <ele>259.9</ele>
        <time>2023-07-23T07:31:53Z</time>
      </trkpt>
      <trkpt lat="48.45648" lon="7.43697">
        <ele>259.9</ele>
        <time>2023-07-23T07:31:54Z</time>
      </trkpt>
      <trkpt lat="48.45647" lon="7.43706">
        <ele>259.8</ele>
        <time>2023-07-23T07:31:55Z</time>
      </trkpt>
      <trkpt lat="48.45645" lon="7.43715">
        <ele>259.7</ele>
        <time>2023-07-23T07:31:56Z</time>
      </trkpt>
      <trkpt lat="48.45644" lon="7.43723">
        <ele>259.6</ele>
        <time>2023-07-23T07:31:57Z</time>
      </trkpt>
      <trkpt lat="48.45642" lon="7.43732">
        <ele>259.6</ele>
        <time>2023-07-23T07:31:58Z</time>
      </trkpt>
      <trkpt lat="48.4564" lon="7.4374">
        <ele>259.5</ele>
        <time>2023-07-23T07:31:59Z</time>
      </trkpt>
      <trkpt lat="48.45638" lon="7.43749">
        <ele>259.5</ele>
        <time>2023-07-23T07:32:00Z</time>
      </trkpt>
      <trkpt lat="48.45635" lon="7.43758">
        <ele>259.4</ele>
        <time>2023-07-23T07:32:01Z</time>
      </trkpt>
      <trkpt lat="48.45632" lon="7.43766">
        <ele>259.4</ele>
        <time>2023-07-23T07:32:02Z</time>
      </trkpt>
      <trkpt lat="48.45629" lon="7.43774">
        <ele>259.4</ele>
        <time>2023-07-23T07:32:03Z</time>
      </trkpt>
      <trkpt lat="48.45625" lon="7.43782">
        <ele>259.4</ele>
        <time>2023-07-23T07:32:04Z</time>
      </trkpt>
      <trkpt lat="48.45621" lon="7.43789">
        <ele>259.3</ele>
        <time>2023-07-23T07:32:05Z</time>
      </trkpt>
      <trkpt lat="48.45617" lon="7.43796">
        <ele>259.3</ele>
        <time>2023-07-23T07:32:06Z</time>
      </trkpt>
      <trkpt lat="48.45613" lon="7.43802">
        <ele>259.3</ele>
        <time>2023-07-23T07:32:07Z</time>
      </trkpt>
      <trkpt lat="48.45608" lon="7.43807">
        <ele>259.2</ele>
        <time>2023-07-23T07:32:08Z</time>
      </trkpt>
      <trkpt lat="48.45604" lon="7.43812">
        <ele>259.2</ele>
        <time>2023-07-23T07:32:09Z</time>
      </trkpt>
      <trkpt lat="48.45599" lon="7.43818">
        <ele>259.2</ele>
        <time>2023-07-23T07:32:10Z</time>
      </trkpt>
      <trkpt lat="48.45595" lon="7.43822">
        <ele>259.1</ele>
        <time>2023-07-23T07:32:11Z</time>
      </trkpt>
      <trkpt lat="48.4559" lon="7.43827">
        <ele>259.1</ele>
        <time>2023-07-23T07:32:12Z</time>
      </trkpt>
      <trkpt lat="48.45586" lon="7.43832">
        <ele>259.1</ele>
        <time>2023-07-23T07:32:13Z</time>
      </trkpt>
      <trkpt lat="48.45582" lon="7.43836">
        <ele>259.1</ele>
        <time>2023-07-23T07:32:14Z</time>
      </trkpt>
      <trkpt lat="48.45577" lon="7.43841">
        <ele>259.1</ele>
        <time>2023-07-23T07:32:15Z</time>
      </trkpt>
      <trkpt lat="48.45573" lon="7.43846">
        <ele>259.1</ele>
        <time>2023-07-23T07:32:16Z</time>
      </trkpt>
      <trkpt lat="48.45568" lon="7.4385">
        <ele>259.1</ele>
        <time>2023-07-23T07:32:17Z</time>
      </trkpt>
      <trkpt lat="48.45563" lon="7.43855">
        <ele>259.1</ele>
        <time>2023-07-23T07:32:18Z</time>
      </trkpt>
      <trkpt lat="48.45559" lon="7.4386">
        <ele>259</ele>
        <time>2023-07-23T07:32:19Z</time>
      </trkpt>
      <trkpt lat="48.45554" lon="7.43865">
        <ele>259</ele>
        <time>2023-07-23T07:32:20Z</time>
      </trkpt>
      <trkpt lat="48.4555" lon="7.43871">
        <ele>259</ele>
        <time>2023-07-23T07:32:21Z</time>
      </trkpt>
      <trkpt lat="48.45545" lon="7.43875">
        <ele>259</ele>
        <time>2023-07-23T07:32:22Z</time>
      </trkpt>
      <trkpt lat="48.45541" lon="7.4388">
        <ele>259</ele>
        <time>2023-07-23T07:32:23Z</time>
      </trkpt>
      <trkpt lat="48.45536" lon="7.43885">
        <ele>259</ele>
        <time>2023-07-23T07:32:24Z</time>
      </trkpt>
      <trkpt lat="48.45531" lon="7.4389">
        <ele>259</ele>
        <time>2023-07-23T07:32:25Z</time>
      </trkpt>
      <trkpt lat="48.45527" lon="7.43894">
        <ele>259</ele>
        <time>2023-07-23T07:32:26Z</time>
      </trkpt>
      <trkpt lat="48.45522" lon="7.43899">
        <ele>259</ele>
        <time>2023-07-23T07:32:27Z</time>
      </trkpt>
      <trkpt lat="48.45518" lon="7.43904">
        <ele>259</ele>
        <time>2023-07-23T07:32:28Z</time>
      </trkpt>
      <trkpt lat="48.45513" lon="7.43909">
        <ele>259</ele>
        <time>2023-07-23T07:32:29Z</time>
      </trkpt>
      <trkpt lat="48.45509" lon="7.43914">
        <ele>259</ele>
        <time>2023-07-23T07:32:30Z</time>
      </trkpt>
      <trkpt lat="48.45504" lon="7.43919">
        <ele>258.9</ele>
        <time>2023-07-23T07:32:31Z</time>
      </trkpt>
      <trkpt lat="48.455" lon="7.43923">
        <ele>258.9</ele>
        <time>2023-07-23T07:32:32Z</time>
      </trkpt>
      <trkpt lat="48.45495" lon="7.43928">
        <ele>258.9</ele>
        <time>2023-07-23T07:32:33Z</time>
      </trkpt>
      <trkpt lat="48.45491" lon="7.43933">
        <ele>258.9</ele>
        <time>2023-07-23T07:32:34Z</time>
      </trkpt>
      <trkpt lat="48.45486" lon="7.43938">
        <ele>258.8</ele>
        <time>2023-07-23T07:32:35Z</time>
      </trkpt>
      <trkpt lat="48.45482" lon="7.43943">
        <ele>258.7</ele>
        <time>2023-07-23T07:32:36Z</time>
      </trkpt>
      <trkpt lat="48.45477" lon="7.43948">
        <ele>258.7</ele>
        <time>2023-07-23T07:32:37Z</time>
      </trkpt>
      <trkpt lat="48.45472" lon="7.43953">
        <ele>258.6</ele>
        <time>2023-07-23T07:32:38Z</time>
      </trkpt>
      <trkpt lat="48.45468" lon="7.43957">
        <ele>258.5</ele>
        <time>2023-07-23T07:32:39Z</time>
      </trkpt>
      <trkpt lat="48.45463" lon="7.43962">
        <ele>258.5</ele>
        <time>2023-07-23T07:32:40Z</time>
      </trkpt>
      <trkpt lat="48.45458" lon="7.43968">
        <ele>258.4</ele>
        <time>2023-07-23T07:32:41Z</time>
      </trkpt>
      <trkpt lat="48.45454" lon="7.43973">
        <ele>258.3</ele>
        <time>2023-07-23T07:32:42Z</time>
      </trkpt>
      <trkpt lat="48.45449" lon="7.43978">
        <ele>258.3</ele>
        <time>2023-07-23T07:32:43Z</time>
      </trkpt>
      <trkpt lat="48.45439" lon="7.43988">
        <ele>258.2</ele>
        <time>2023-07-23T07:32:45Z</time>
      </trkpt>
      <trkpt lat="48.45434" lon="7.43994">
        <ele>258.2</ele>
        <time>2023-07-23T07:32:46Z</time>
      </trkpt>
      <trkpt lat="48.45429" lon="7.43999">
        <ele>258.1</ele>
        <time>2023-07-23T07:32:47Z</time>
      </trkpt>
      <trkpt lat="48.45425" lon="7.44004">
        <ele>258.1</ele>
        <time>2023-07-23T07:32:48Z</time>
      </trkpt>
      <trkpt lat="48.4542" lon="7.44009">
        <ele>258</ele>
        <time>2023-07-23T07:32:49Z</time>
      </trkpt>
      <trkpt lat="48.45415" lon="7.44014">
        <ele>258</ele>
        <time>2023-07-23T07:32:50Z</time>
      </trkpt>
      <trkpt lat="48.4541" lon="7.44019">
        <ele>257.9</ele>
        <time>2023-07-23T07:32:51Z</time>
      </trkpt>
      <trkpt lat="48.45406" lon="7.44024">
        <ele>257.9</ele>
        <time>2023-07-23T07:32:52Z</time>
      </trkpt>
      <trkpt lat="48.45401" lon="7.44029">
        <ele>257.9</ele>
        <time>2023-07-23T07:32:53Z</time>
      </trkpt>
      <trkpt lat="48.45396" lon="7.44034">
        <ele>257.8</ele>
        <time>2023-07-23T07:32:54Z</time>
      </trkpt>
      <trkpt lat="48.45391" lon="7.44039">
        <ele>257.8</ele>
        <time>2023-07-23T07:32:55Z</time>
      </trkpt>
      <trkpt lat="48.45387" lon="7.44044">
        <ele>257.7</ele>
        <time>2023-07-23T07:32:56Z</time>
      </trkpt>
      <trkpt lat="48.45382" lon="7.44049">
        <ele>257.6</ele>
        <time>2023-07-23T07:32:57Z</time>
      </trkpt>
      <trkpt lat="48.45377" lon="7.44054">
        <ele>257.6</ele>
        <time>2023-07-23T07:32:58Z</time>
      </trkpt>
      <trkpt lat="48.45372" lon="7.44059">
        <ele>257.5</ele>
        <time>2023-07-23T07:32:59Z</time>
      </trkpt>
      <trkpt lat="48.45367" lon="7.44065">
        <ele>257.5</ele>
        <time>2023-07-23T07:33:00Z</time>
      </trkpt>
      <trkpt lat="48.45363" lon="7.4407">
        <ele>257.5</ele>
        <time>2023-07-23T07:33:01Z</time>
      </trkpt>
      <trkpt lat="48.45358" lon="7.44075">
        <ele>257.5</ele>
        <time>2023-07-23T07:33:02Z</time>
      </trkpt>
      <trkpt lat="48.45353" lon="7.4408">
        <ele>257.5</ele>
        <time>2023-07-23T07:33:03Z</time>
      </trkpt>
      <trkpt lat="48.45348" lon="7.44086">
        <ele>257.5</ele>
        <time>2023-07-23T07:33:04Z</time>
      </trkpt>
      <trkpt lat="48.45343" lon="7.44091">
        <ele>257.5</ele>
        <time>2023-07-23T07:33:05Z</time>
      </trkpt>
      <trkpt lat="48.45338" lon="7.44096">
        <ele>257.4</ele>
        <time>2023-07-23T07:33:06Z</time>
      </trkpt>
      <trkpt lat="48.45334" lon="7.44102">
        <ele>257.4</ele>
        <time>2023-07-23T07:33:07Z</time>
      </trkpt>
      <trkpt lat="48.45329" lon="7.44108">
        <ele>257.5</ele>
        <time>2023-07-23T07:33:08Z</time>
      </trkpt>
      <trkpt lat="48.45325" lon="7.44114">
        <ele>257.5</ele>
        <time>2023-07-23T07:33:09Z</time>
      </trkpt>
      <trkpt lat="48.45321" lon="7.4412">
        <ele>257.6</ele>
        <time>2023-07-23T07:33:10Z</time>
      </trkpt>
      <trkpt lat="48.45317" lon="7.44125">
        <ele>257.7</ele>
        <time>2023-07-23T07:33:11Z</time>
      </trkpt>
      <trkpt lat="48.45313" lon="7.44131">
        <ele>257.8</ele>
        <time>2023-07-23T07:33:12Z</time>
      </trkpt>
      <trkpt lat="48.45309" lon="7.44137">
        <ele>257.9</ele>
        <time>2023-07-23T07:33:13Z</time>
      </trkpt>
      <trkpt lat="48.45305" lon="7.44142">
        <ele>258</ele>
        <time>2023-07-23T07:33:14Z</time>
      </trkpt>
      <trkpt lat="48.45301" lon="7.44147">
        <ele>258.2</ele>
        <time>2023-07-23T07:33:15Z</time>
      </trkpt>
      <trkpt lat="48.45298" lon="7.44152">
        <ele>258.3</ele>
        <time>2023-07-23T07:33:16Z</time>
      </trkpt>
      <trkpt lat="48.45294" lon="7.44157">
        <ele>258.5</ele>
        <time>2023-07-23T07:33:17Z</time>
      </trkpt>
      <trkpt lat="48.4529" lon="7.44162">
        <ele>258.7</ele>
        <time>2023-07-23T07:33:18Z</time>
      </trkpt>
      <trkpt lat="48.45286" lon="7.44168">
        <ele>258.9</ele>
        <time>2023-07-23T07:33:19Z</time>
      </trkpt>
      <trkpt lat="48.45282" lon="7.44173">
        <ele>259</ele>
        <time>2023-07-23T07:33:20Z</time>
      </trkpt>
      <trkpt lat="48.45278" lon="7.44178">
        <ele>259.2</ele>
        <time>2023-07-23T07:33:21Z</time>
      </trkpt>
      <trkpt lat="48.45274" lon="7.44184">
        <ele>259.4</ele>
        <time>2023-07-23T07:33:22Z</time>
      </trkpt>
      <trkpt lat="48.4527" lon="7.44189">
        <ele>259.6</ele>
        <time>2023-07-23T07:33:23Z</time>
      </trkpt>
      <trkpt lat="48.45267" lon="7.44194">
        <ele>259.7</ele>
        <time>2023-07-23T07:33:24Z</time>
      </trkpt>
      <trkpt lat="48.45263" lon="7.442">
        <ele>259.9</ele>
        <time>2023-07-23T07:33:25Z</time>
      </trkpt>
      <trkpt lat="48.45259" lon="7.44205">
        <ele>260.1</ele>
        <time>2023-07-23T07:33:26Z</time>
      </trkpt>
      <trkpt lat="48.45256" lon="7.4421">
        <ele>260.2</ele>
        <time>2023-07-23T07:33:27Z</time>
      </trkpt>
      <trkpt lat="48.45252" lon="7.44214">
        <ele>260.3</ele>
        <time>2023-07-23T07:33:28Z</time>
      </trkpt>
      <trkpt lat="48.45249" lon="7.44219">
        <ele>260.4</ele>
        <time>2023-07-23T07:33:29Z</time>
      </trkpt>
      <trkpt lat="48.45246" lon="7.44224">
        <ele>260.5</ele>
        <time>2023-07-23T07:33:30Z</time>
      </trkpt>
      <trkpt lat="48.45242" lon="7.44229">
        <ele>260.6</ele>
        <time>2023-07-23T07:33:31Z</time>
      </trkpt>
      <trkpt lat="48.45239" lon="7.44234">
        <ele>260.7</ele>
        <time>2023-07-23T07:33:32Z</time>
      </trkpt>
      <trkpt lat="48.45235" lon="7.44239">
        <ele>260.8</ele>
        <time>2023-07-23T07:33:33Z</time>
      </trkpt>
      <trkpt lat="48.45232" lon="7.44243">
        <ele>260.8</ele>
        <time>2023-07-23T07:33:34Z</time>
      </trkpt>
      <trkpt lat="48.45228" lon="7.44248">
        <ele>260.9</ele>
        <time>2023-07-23T07:33:35Z</time>
      </trkpt>
      <trkpt lat="48.45225" lon="7.44253">
        <ele>260.9</ele>
        <time>2023-07-23T07:33:36Z</time>
      </trkpt>
      <trkpt lat="48.45221" lon="7.44258">
        <ele>261</ele>
        <time>2023-07-23T07:33:37Z</time>
      </trkpt>
      <trkpt lat="48.45217" lon="7.44263">
        <ele>261</ele>
        <time>2023-07-23T07:33:38Z</time>
      </trkpt>
      <trkpt lat="48.45214" lon="7.44268">
        <ele>261.1</ele>
        <time>2023-07-23T07:33:39Z</time>
      </trkpt>
      <trkpt lat="48.4521" lon="7.44273">
        <ele>261.1</ele>
        <time>2023-07-23T07:33:40Z</time>
      </trkpt>
      <trkpt lat="48.45206" lon="7.44278">
        <ele>261.1</ele>
        <time>2023-07-23T07:33:41Z</time>
      </trkpt>
      <trkpt lat="48.45202" lon="7.44283">
        <ele>261.1</ele>
        <time>2023-07-23T07:33:42Z</time>
      </trkpt>
      <trkpt lat="48.45199" lon="7.44287">
        <ele>261.2</ele>
        <time>2023-07-23T07:33:43Z</time>
      </trkpt>
      <trkpt lat="48.45195" lon="7.44291">
        <ele>261.2</ele>
        <time>2023-07-23T07:33:44Z</time>
      </trkpt>
      <trkpt lat="48.4519" lon="7.44293">
        <ele>261.2</ele>
        <time>2023-07-23T07:33:45Z</time>
      </trkpt>
      <trkpt lat="48.45186" lon="7.44292">
        <ele>261.2</ele>
        <time>2023-07-23T07:33:46Z</time>
      </trkpt>
      <trkpt lat="48.45182" lon="7.44292">
        <ele>261.3</ele>
        <time>2023-07-23T07:33:47Z</time>
      </trkpt>
      <trkpt lat="48.45179" lon="7.44291">
        <ele>261.3</ele>
        <time>2023-07-23T07:33:48Z</time>
      </trkpt>
      <trkpt lat="48.45177" lon="7.44293">
        <ele>261.3</ele>
        <time>2023-07-23T07:33:49Z</time>
      </trkpt>
      <trkpt lat="48.45174" lon="7.44295">
        <ele>261.3</ele>
        <time>2023-07-23T07:33:50Z</time>
      </trkpt>
      <trkpt lat="48.45172" lon="7.44298">
        <ele>261.3</ele>
        <time>2023-07-23T07:33:51Z</time>
      </trkpt>
      <trkpt lat="48.45171" lon="7.44301">
        <ele>261.2</ele>
        <time>2023-07-23T07:33:52Z</time>
      </trkpt>
      <trkpt lat="48.45169" lon="7.44305">
        <ele>261.2</ele>
        <time>2023-07-23T07:33:53Z</time>
      </trkpt>
      <trkpt lat="48.45167" lon="7.4431">
        <ele>261.2</ele>
        <time>2023-07-23T07:33:54Z</time>
      </trkpt>
      <trkpt lat="48.45167" lon="7.44315">
        <ele>261.2</ele>
        <time>2023-07-23T07:33:55Z</time>
      </trkpt>
      <trkpt lat="48.45166" lon="7.44321">
        <ele>261.2</ele>
        <time>2023-07-23T07:33:56Z</time>
      </trkpt>
      <trkpt lat="48.45165" lon="7.44326">
        <ele>261.1</ele>
        <time>2023-07-23T07:33:57Z</time>
      </trkpt>
      <trkpt lat="48.45163" lon="7.44332">
        <ele>260.7</ele>
        <time>2023-07-23T07:33:58Z</time>
      </trkpt>
      <trkpt lat="48.4516" lon="7.44338">
        <ele>260.5</ele>
        <time>2023-07-23T07:33:59Z</time>
      </trkpt>
      <trkpt lat="48.45157" lon="7.44343">
        <ele>260.4</ele>
        <time>2023-07-23T07:34:00Z</time>
      </trkpt>
      <trkpt lat="48.45154" lon="7.44349">
        <ele>260.2</ele>
        <time>2023-07-23T07:34:01Z</time>
      </trkpt>
      <trkpt lat="48.45151" lon="7.44354">
        <ele>260</ele>
        <time>2023-07-23T07:34:02Z</time>
      </trkpt>
      <trkpt lat="48.45147" lon="7.4436">
        <ele>259.9</ele>
        <time>2023-07-23T07:34:03Z</time>
      </trkpt>
      <trkpt lat="48.45144" lon="7.44365">
        <ele>259.7</ele>
        <time>2023-07-23T07:34:04Z</time>
      </trkpt>
      <trkpt lat="48.4514" lon="7.4437">
        <ele>259.6</ele>
        <time>2023-07-23T07:34:05Z</time>
      </trkpt>
      <trkpt lat="48.45135" lon="7.44375">
        <ele>259.4</ele>
        <time>2023-07-23T07:34:06Z</time>
      </trkpt>
      <trkpt lat="48.45131" lon="7.44379">
        <ele>259.2</ele>
        <time>2023-07-23T07:34:07Z</time>
      </trkpt>
      <trkpt lat="48.45127" lon="7.44384">
        <ele>259.1</ele>
        <time>2023-07-23T07:34:08Z</time>
      </trkpt>
      <trkpt lat="48.45122" lon="7.44389">
        <ele>258.9</ele>
        <time>2023-07-23T07:34:09Z</time>
      </trkpt>
      <trkpt lat="48.45118" lon="7.44394">
        <ele>258.7</ele>
        <time>2023-07-23T07:34:10Z</time>
      </trkpt>
      <trkpt lat="48.45113" lon="7.44399">
        <ele>258.6</ele>
        <time>2023-07-23T07:34:11Z</time>
      </trkpt>
      <trkpt lat="48.45109" lon="7.44404">
        <ele>258.4</ele>
        <time>2023-07-23T07:34:12Z</time>
      </trkpt>
      <trkpt lat="48.45104" lon="7.44408">
        <ele>258.3</ele>
        <time>2023-07-23T07:34:13Z</time>
      </trkpt>
      <trkpt lat="48.45098" lon="7.44413">
        <ele>258.1</ele>
        <time>2023-07-23T07:34:14Z</time>
      </trkpt>
      <trkpt lat="48.45093" lon="7.44416">
        <ele>257.9</ele>
        <time>2023-07-23T07:34:15Z</time>
      </trkpt>
      <trkpt lat="48.45087" lon="7.4442">
        <ele>257.6</ele>
        <time>2023-07-23T07:34:16Z</time>
      </trkpt>
      <trkpt lat="48.45082" lon="7.44423">
        <ele>257.3</ele>
        <time>2023-07-23T07:34:17Z</time>
      </trkpt>
      <trkpt lat="48.45075" lon="7.44425">
        <ele>257.1</ele>
        <time>2023-07-23T07:34:18Z</time>
      </trkpt>
      <trkpt lat="48.45069" lon="7.44426">
        <ele>256.8</ele>
        <time>2023-07-23T07:34:19Z</time>
      </trkpt>
      <trkpt lat="48.45063" lon="7.44427">
        <ele>256.6</ele>
        <time>2023-07-23T07:34:20Z</time>
      </trkpt>
      <trkpt lat="48.45056" lon="7.44428">
        <ele>256.3</ele>
        <time>2023-07-23T07:34:21Z</time>
      </trkpt>
      <trkpt lat="48.4505" lon="7.44428">
        <ele>256.1</ele>
        <time>2023-07-23T07:34:22Z</time>
      </trkpt>
      <trkpt lat="48.45043" lon="7.44428">
        <ele>255.8</ele>
        <time>2023-07-23T07:34:23Z</time>
      </trkpt>
      <trkpt lat="48.45036" lon="7.44428">
        <ele>255.6</ele>
        <time>2023-07-23T07:34:24Z</time>
      </trkpt>
      <trkpt lat="48.4503" lon="7.44428">
        <ele>255.4</ele>
        <time>2023-07-23T07:34:25Z</time>
      </trkpt>
      <trkpt lat="48.45023" lon="7.44427">
        <ele>255.1</ele>
        <time>2023-07-23T07:34:26Z</time>
      </trkpt>
      <trkpt lat="48.45017" lon="7.44427">
        <ele>254.9</ele>
        <time>2023-07-23T07:34:27Z</time>
      </trkpt>
      <trkpt lat="48.4501" lon="7.44427">
        <ele>254.7</ele>
        <time>2023-07-23T07:34:28Z</time>
      </trkpt>
      <trkpt lat="48.45003" lon="7.44427">
        <ele>254.5</ele>
        <time>2023-07-23T07:34:29Z</time>
      </trkpt>
      <trkpt lat="48.44997" lon="7.44427">
        <ele>254.3</ele>
        <time>2023-07-23T07:34:30Z</time>
      </trkpt>
      <trkpt lat="48.4499" lon="7.44428">
        <ele>254.1</ele>
        <time>2023-07-23T07:34:31Z</time>
      </trkpt>
      <trkpt lat="48.44983" lon="7.44427">
        <ele>254</ele>
        <time>2023-07-23T07:34:32Z</time>
      </trkpt>
      <trkpt lat="48.44977" lon="7.44427">
        <ele>253.9</ele>
        <time>2023-07-23T07:34:33Z</time>
      </trkpt>
      <trkpt lat="48.4497" lon="7.44426">
        <ele>253.7</ele>
        <time>2023-07-23T07:34:34Z</time>
      </trkpt>
      <trkpt lat="48.44964" lon="7.44426">
        <ele>253.6</ele>
        <time>2023-07-23T07:34:35Z</time>
      </trkpt>
      <trkpt lat="48.44957" lon="7.44426">
        <ele>253.6</ele>
        <time>2023-07-23T07:34:36Z</time>
      </trkpt>
      <trkpt lat="48.44951" lon="7.44425">
        <ele>253.5</ele>
        <time>2023-07-23T07:34:37Z</time>
      </trkpt>
      <trkpt lat="48.44944" lon="7.44425">
        <ele>253.4</ele>
        <time>2023-07-23T07:34:38Z</time>
      </trkpt>
      <trkpt lat="48.44937" lon="7.44425">
        <ele>253.4</ele>
        <time>2023-07-23T07:34:39Z</time>
      </trkpt>
      <trkpt lat="48.44931" lon="7.44425">
        <ele>253.3</ele>
        <time>2023-07-23T07:34:40Z</time>
      </trkpt>
      <trkpt lat="48.44924" lon="7.44425">
        <ele>253.3</ele>
        <time>2023-07-23T07:34:41Z</time>
      </trkpt>
      <trkpt lat="48.44918" lon="7.44424">
        <ele>253.2</ele>
        <time>2023-07-23T07:34:42Z</time>
      </trkpt>
      <trkpt lat="48.44911" lon="7.44424">
        <ele>253.2</ele>
        <time>2023-07-23T07:34:43Z</time>
      </trkpt>
      <trkpt lat="48.44905" lon="7.44424">
        <ele>253.2</ele>
        <time>2023-07-23T07:34:44Z</time>
      </trkpt>
      <trkpt lat="48.44898" lon="7.44424">
        <ele>253.2</ele>
        <time>2023-07-23T07:34:45Z</time>
      </trkpt>
      <trkpt lat="48.44891" lon="7.44424">
        <ele>253.2</ele>
        <time>2023-07-23T07:34:46Z</time>
      </trkpt>
      <trkpt lat="48.44885" lon="7.44424">
        <ele>253.1</ele>
        <time>2023-07-23T07:34:47Z</time>
      </trkpt>
      <trkpt lat="48.44878" lon="7.44424">
        <ele>253</ele>
        <time>2023-07-23T07:34:48Z</time>
      </trkpt>
      <trkpt lat="48.44872" lon="7.44424">
        <ele>252.9</ele>
        <time>2023-07-23T07:34:49Z</time>
      </trkpt>
      <trkpt lat="48.44865" lon="7.44424">
        <ele>252.8</ele>
        <time>2023-07-23T07:34:50Z</time>
      </trkpt>
      <trkpt lat="48.44859" lon="7.44424">
        <ele>252.7</ele>
        <time>2023-07-23T07:34:51Z</time>
      </trkpt>
      <trkpt lat="48.44852" lon="7.44423">
        <ele>252.6</ele>
        <time>2023-07-23T07:34:52Z</time>
      </trkpt>
      <trkpt lat="48.44846" lon="7.44423">
        <ele>252.6</ele>
        <time>2023-07-23T07:34:53Z</time>
      </trkpt>
      <trkpt lat="48.44839" lon="7.44423">
        <ele>252.5</ele>
        <time>2023-07-23T07:34:54Z</time>
      </trkpt>
      <trkpt lat="48.44832" lon="7.44423">
        <ele>252.4</ele>
        <time>2023-07-23T07:34:55Z</time>
      </trkpt>
      <trkpt lat="48.44826" lon="7.44423">
        <ele>252.4</ele>
        <time>2023-07-23T07:34:56Z</time>
      </trkpt>
      <trkpt lat="48.44819" lon="7.44423">
        <ele>252.3</ele>
        <time>2023-07-23T07:34:57Z</time>
      </trkpt>
      <trkpt lat="48.44812" lon="7.44423">
        <ele>252.2</ele>
        <time>2023-07-23T07:34:58Z</time>
      </trkpt>
      <trkpt lat="48.44806" lon="7.44422">
        <ele>252.1</ele>
        <time>2023-07-23T07:35:00Z</time>
      </trkpt>
      <trkpt lat="48.44792" lon="7.44423">
        <ele>251.9</ele>
        <time>2023-07-23T07:35:01Z</time>
      </trkpt>
      <trkpt lat="48.44786" lon="7.44422">
        <ele>251.8</ele>
        <time>2023-07-23T07:35:02Z</time>
      </trkpt>
      <trkpt lat="48.44779" lon="7.44422">
        <ele>251.6</ele>
        <time>2023-07-23T07:35:03Z</time>
      </trkpt>
      <trkpt lat="48.44772" lon="7.44422">
        <ele>251.5</ele>
        <time>2023-07-23T07:35:04Z</time>
      </trkpt>
      <trkpt lat="48.44765" lon="7.44422">
        <ele>251.3</ele>
        <time>2023-07-23T07:35:05Z</time>
      </trkpt>
      <trkpt lat="48.44758" lon="7.44422">
        <ele>251.1</ele>
        <time>2023-07-23T07:35:06Z</time>
      </trkpt>
      <trkpt lat="48.44751" lon="7.44422">
        <ele>251</ele>
        <time>2023-07-23T07:35:07Z</time>
      </trkpt>
      <trkpt lat="48.44745" lon="7.44422">
        <ele>250.8</ele>
        <time>2023-07-23T07:35:08Z</time>
      </trkpt>
      <trkpt lat="48.44737" lon="7.44421">
        <ele>250.6</ele>
        <time>2023-07-23T07:35:09Z</time>
      </trkpt>
      <trkpt lat="48.4473" lon="7.44421">
        <ele>250.5</ele>
        <time>2023-07-23T07:35:10Z</time>
      </trkpt>
      <trkpt lat="48.44723" lon="7.44421">
        <ele>250.2</ele>
        <time>2023-07-23T07:35:11Z</time>
      </trkpt>
      <trkpt lat="48.44716" lon="7.44421">
        <ele>249.8</ele>
        <time>2023-07-23T07:35:12Z</time>
      </trkpt>
      <trkpt lat="48.44708" lon="7.44421">
        <ele>249.5</ele>
        <time>2023-07-23T07:35:13Z</time>
      </trkpt>
      <trkpt lat="48.44701" lon="7.44421">
        <ele>249.1</ele>
        <time>2023-07-23T07:35:14Z</time>
      </trkpt>
      <trkpt lat="48.44693" lon="7.44421">
        <ele>248.8</ele>
        <time>2023-07-23T07:35:15Z</time>
      </trkpt>
      <trkpt lat="48.44685" lon="7.44421">
        <ele>248.4</ele>
        <time>2023-07-23T07:35:16Z</time>
      </trkpt>
      <trkpt lat="48.44677" lon="7.44422">
        <ele>248</ele>
        <time>2023-07-23T07:35:17Z</time>
      </trkpt>
      <trkpt lat="48.4467" lon="7.44424">
        <ele>247.6</ele>
        <time>2023-07-23T07:35:18Z</time>
      </trkpt>
      <trkpt lat="48.44662" lon="7.44426">
        <ele>247.1</ele>
        <time>2023-07-23T07:35:19Z</time>
      </trkpt>
      <trkpt lat="48.44653" lon="7.44429">
        <ele>246.6</ele>
        <time>2023-07-23T07:35:20Z</time>
      </trkpt>
      <trkpt lat="48.44645" lon="7.44433">
        <ele>246.2</ele>
        <time>2023-07-23T07:35:21Z</time>
      </trkpt>
      <trkpt lat="48.44637" lon="7.44437">
        <ele>245.6</ele>
        <time>2023-07-23T07:35:22Z</time>
      </trkpt>
      <trkpt lat="48.44628" lon="7.44441">
        <ele>245.1</ele>
        <time>2023-07-23T07:35:23Z</time>
      </trkpt>
      <trkpt lat="48.44619" lon="7.44446">
        <ele>244.5</ele>
        <time>2023-07-23T07:35:24Z</time>
      </trkpt>
      <trkpt lat="48.4461" lon="7.4445">
        <ele>243.9</ele>
        <time>2023-07-23T07:35:25Z</time>
      </trkpt>
      <trkpt lat="48.44601" lon="7.44454">
        <ele>243.4</ele>
        <time>2023-07-23T07:35:26Z</time>
      </trkpt>
      <trkpt lat="48.44592" lon="7.44458">
        <ele>242.9</ele>
        <time>2023-07-23T07:35:27Z</time>
      </trkpt>
      <trkpt lat="48.44582" lon="7.44463">
        <ele>242.3</ele>
        <time>2023-07-23T07:35:28Z</time>
      </trkpt>
      <trkpt lat="48.44573" lon="7.44467">
        <ele>241.8</ele>
        <time>2023-07-23T07:35:29Z</time>
      </trkpt>
      <trkpt lat="48.44564" lon="7.44471">
        <ele>241.3</ele>
        <time>2023-07-23T07:35:30Z</time>
      </trkpt>
      <trkpt lat="48.44554" lon="7.44476">
        <ele>240.7</ele>
        <time>2023-07-23T07:35:31Z</time>
      </trkpt>
      <trkpt lat="48.44545" lon="7.4448">
        <ele>240.2</ele>
        <time>2023-07-23T07:35:32Z</time>
      </trkpt>
      <trkpt lat="48.44536" lon="7.44484">
        <ele>239.6</ele>
        <time>2023-07-23T07:35:33Z</time>
      </trkpt>
      <trkpt lat="48.44526" lon="7.44489">
        <ele>239</ele>
        <time>2023-07-23T07:35:34Z</time>
      </trkpt>
      <trkpt lat="48.44517" lon="7.44493">
        <ele>238.5</ele>
        <time>2023-07-23T07:35:35Z</time>
      </trkpt>
      <trkpt lat="48.44507" lon="7.44498">
        <ele>237.9</ele>
        <time>2023-07-23T07:35:36Z</time>
      </trkpt>
      <trkpt lat="48.44498" lon="7.44502">
        <ele>237.4</ele>
        <time>2023-07-23T07:35:37Z</time>
      </trkpt>
      <trkpt lat="48.44488" lon="7.44507">
        <ele>236.9</ele>
        <time>2023-07-23T07:35:38Z</time>
      </trkpt>
      <trkpt lat="48.44479" lon="7.44511">
        <ele>236.4</ele>
        <time>2023-07-23T07:35:39Z</time>
      </trkpt>
      <trkpt lat="48.4447" lon="7.44516">
        <ele>235.9</ele>
        <time>2023-07-23T07:35:40Z</time>
      </trkpt>
      <trkpt lat="48.4446" lon="7.4452">
        <ele>235.4</ele>
        <time>2023-07-23T07:35:41Z</time>
      </trkpt>
      <trkpt lat="48.44451" lon="7.44524">
        <ele>235</ele>
        <time>2023-07-23T07:35:42Z</time>
      </trkpt>
      <trkpt lat="48.44442" lon="7.44529">
        <ele>234.5</ele>
        <time>2023-07-23T07:35:43Z</time>
      </trkpt>
      <trkpt lat="48.44433" lon="7.44533">
        <ele>234.1</ele>
        <time>2023-07-23T07:35:44Z</time>
      </trkpt>
      <trkpt lat="48.44423" lon="7.44538">
        <ele>233.6</ele>
        <time>2023-07-23T07:35:45Z</time>
      </trkpt>
      <trkpt lat="48.44414" lon="7.44542">
        <ele>233.2</ele>
        <time>2023-07-23T07:35:46Z</time>
      </trkpt>
      <trkpt lat="48.44405" lon="7.44546">
        <ele>232.8</ele>
        <time>2023-07-23T07:35:47Z</time>
      </trkpt>
      <trkpt lat="48.44396" lon="7.4455">
        <ele>232.5</ele>
        <time>2023-07-23T07:35:48Z</time>
      </trkpt>
      <trkpt lat="48.44387" lon="7.44554">
        <ele>232.1</ele>
        <time>2023-07-23T07:35:49Z</time>
      </trkpt>
      <trkpt lat="48.44378" lon="7.44558">
        <ele>231.6</ele>
        <time>2023-07-23T07:35:50Z</time>
      </trkpt>
      <trkpt lat="48.44369" lon="7.44562">
        <ele>231.3</ele>
        <time>2023-07-23T07:35:51Z</time>
      </trkpt>
      <trkpt lat="48.44361" lon="7.44566">
        <ele>230.9</ele>
        <time>2023-07-23T07:35:52Z</time>
      </trkpt>
      <trkpt lat="48.44353" lon="7.4457">
        <ele>230.6</ele>
        <time>2023-07-23T07:35:53Z</time>
      </trkpt>
      <trkpt lat="48.44344" lon="7.44572">
        <ele>230.2</ele>
        <time>2023-07-23T07:35:54Z</time>
      </trkpt>
      <trkpt lat="48.44335" lon="7.44574">
        <ele>229.8</ele>
        <time>2023-07-23T07:35:55Z</time>
      </trkpt>
      <trkpt lat="48.44327" lon="7.44574">
        <ele>229.5</ele>
        <time>2023-07-23T07:35:56Z</time>
      </trkpt>
      <trkpt lat="48.44318" lon="7.44574">
        <ele>229.2</ele>
        <time>2023-07-23T07:35:57Z</time>
      </trkpt>
      <trkpt lat="48.44309" lon="7.44573">
        <ele>228.9</ele>
        <time>2023-07-23T07:35:58Z</time>
      </trkpt>
      <trkpt lat="48.44301" lon="7.44568">
        <ele>228.6</ele>
        <time>2023-07-23T07:35:59Z</time>
      </trkpt>
      <trkpt lat="48.44292" lon="7.44564">
        <ele>228.3</ele>
        <time>2023-07-23T07:36:00Z</time>
      </trkpt>
      <trkpt lat="48.44284" lon="7.44558">
        <ele>228.1</ele>
        <time>2023-07-23T07:36:01Z</time>
      </trkpt>
      <trkpt lat="48.44277" lon="7.4455">
        <ele>227.9</ele>
        <time>2023-07-23T07:36:02Z</time>
      </trkpt>
      <trkpt lat="48.4427" lon="7.44541">
        <ele>227.7</ele>
        <time>2023-07-23T07:36:03Z</time>
      </trkpt>
      <trkpt lat="48.44263" lon="7.44532">
        <ele>227.5</ele>
        <time>2023-07-23T07:36:04Z</time>
      </trkpt>
      <trkpt lat="48.44257" lon="7.44522">
        <ele>227.3</ele>
        <time>2023-07-23T07:36:05Z</time>
      </trkpt>
      <trkpt lat="48.44251" lon="7.44512">
        <ele>227.1</ele>
        <time>2023-07-23T07:36:06Z</time>
      </trkpt>
      <trkpt lat="48.44245" lon="7.44501">
        <ele>226.9</ele>
        <time>2023-07-23T07:36:07Z</time>
      </trkpt>
      <trkpt lat="48.4424" lon="7.44491">
        <ele>226.8</ele>
        <time>2023-07-23T07:36:08Z</time>
      </trkpt>
      <trkpt lat="48.44234" lon="7.44481">
        <ele>226.7</ele>
        <time>2023-07-23T07:36:09Z</time>
      </trkpt>
      <trkpt lat="48.44229" lon="7.4447">
        <ele>226.7</ele>
        <time>2023-07-23T07:36:10Z</time>
      </trkpt>
      <trkpt lat="48.44224" lon="7.4446">
        <ele>226.7</ele>
        <time>2023-07-23T07:36:11Z</time>
      </trkpt>
      <trkpt lat="48.44219" lon="7.4445">
        <ele>226.8</ele>
        <time>2023-07-23T07:36:12Z</time>
      </trkpt>
      <trkpt lat="48.44214" lon="7.4444">
        <ele>227</ele>
        <time>2023-07-23T07:36:13Z</time>
      </trkpt>
      <trkpt lat="48.44209" lon="7.44431">
        <ele>227.1</ele>
        <time>2023-07-23T07:36:14Z</time>
      </trkpt>
      <trkpt lat="48.44204" lon="7.44422">
        <ele>227.3</ele>
        <time>2023-07-23T07:36:15Z</time>
      </trkpt>
      <trkpt lat="48.442" lon="7.44413">
        <ele>227.4</ele>
        <time>2023-07-23T07:36:16Z</time>
      </trkpt>
      <trkpt lat="48.44196" lon="7.44405">
        <ele>227.5</ele>
        <time>2023-07-23T07:36:17Z</time>
      </trkpt>
      <trkpt lat="48.44192" lon="7.44397">
        <ele>227.6</ele>
        <time>2023-07-23T07:36:18Z</time>
      </trkpt>
      <trkpt lat="48.44187" lon="7.44391">
        <ele>227.9</ele>
        <time>2023-07-23T07:36:19Z</time>
      </trkpt>
      <trkpt lat="48.44182" lon="7.44386">
        <ele>228.1</ele>
        <time>2023-07-23T07:36:20Z</time>
      </trkpt>
      <trkpt lat="48.44176" lon="7.44382">
        <ele>228.4</ele>
        <time>2023-07-23T07:36:21Z</time>
      </trkpt>
      <trkpt lat="48.4417" lon="7.44379">
        <ele>228.7</ele>
        <time>2023-07-23T07:36:22Z</time>
      </trkpt>
      <trkpt lat="48.44164" lon="7.44377">
        <ele>228.9</ele>
        <time>2023-07-23T07:36:23Z</time>
      </trkpt>
      <trkpt lat="48.44158" lon="7.44377">
        <ele>229.2</ele>
        <time>2023-07-23T07:36:24Z</time>
      </trkpt>
      <trkpt lat="48.44152" lon="7.44378">
        <ele>229.4</ele>
        <time>2023-07-23T07:36:25Z</time>
      </trkpt>
      <trkpt lat="48.44146" lon="7.44379">
        <ele>229.6</ele>
        <time>2023-07-23T07:36:26Z</time>
      </trkpt>
      <trkpt lat="48.4414" lon="7.44383">
        <ele>229.9</ele>
        <time>2023-07-23T07:36:27Z</time>
      </trkpt>
      <trkpt lat="48.44135" lon="7.44386">
        <ele>230.1</ele>
        <time>2023-07-23T07:36:28Z</time>
      </trkpt>
      <trkpt lat="48.4413" lon="7.44389">
        <ele>230.3</ele>
        <time>2023-07-23T07:36:29Z</time>
      </trkpt>
      <trkpt lat="48.44124" lon="7.44392">
        <ele>230.5</ele>
        <time>2023-07-23T07:36:30Z</time>
      </trkpt>
      <trkpt lat="48.44119" lon="7.44395">
        <ele>230.7</ele>
        <time>2023-07-23T07:36:31Z</time>
      </trkpt>
      <trkpt lat="48.44114" lon="7.44398">
        <ele>231</ele>
        <time>2023-07-23T07:36:32Z</time>
      </trkpt>
      <trkpt lat="48.44109" lon="7.44401">
        <ele>231.2</ele>
        <time>2023-07-23T07:36:33Z</time>
      </trkpt>
      <trkpt lat="48.44104" lon="7.44404">
        <ele>231.4</ele>
        <time>2023-07-23T07:36:34Z</time>
      </trkpt>
      <trkpt lat="48.44099" lon="7.44407">
        <ele>231.6</ele>
        <time>2023-07-23T07:36:35Z</time>
      </trkpt>
      <trkpt lat="48.44094" lon="7.4441">
        <ele>231.9</ele>
        <time>2023-07-23T07:36:36Z</time>
      </trkpt>
      <trkpt lat="48.4409" lon="7.44413">
        <ele>232.1</ele>
        <time>2023-07-23T07:36:37Z</time>
      </trkpt>
      <trkpt lat="48.44085" lon="7.44416">
        <ele>232.3</ele>
        <time>2023-07-23T07:36:38Z</time>
      </trkpt>
      <trkpt lat="48.4408" lon="7.44419">
        <ele>232.5</ele>
        <time>2023-07-23T07:36:39Z</time>
      </trkpt>
      <trkpt lat="48.44075" lon="7.44421">
        <ele>232.7</ele>
        <time>2023-07-23T07:36:40Z</time>
      </trkpt>
      <trkpt lat="48.44071" lon="7.44424">
        <ele>232.9</ele>
        <time>2023-07-23T07:36:41Z</time>
      </trkpt>
      <trkpt lat="48.44066" lon="7.44427">
        <ele>233.1</ele>
        <time>2023-07-23T07:36:42Z</time>
      </trkpt>
      <trkpt lat="48.44061" lon="7.4443">
        <ele>233.2</ele>
        <time>2023-07-23T07:36:43Z</time>
      </trkpt>
      <trkpt lat="48.44057" lon="7.44433">
        <ele>233.4</ele>
        <time>2023-07-23T07:36:44Z</time>
      </trkpt>
      <trkpt lat="48.44052" lon="7.44435">
        <ele>233.6</ele>
        <time>2023-07-23T07:36:45Z</time>
      </trkpt>
      <trkpt lat="48.44048" lon="7.44438">
        <ele>233.7</ele>
        <time>2023-07-23T07:36:46Z</time>
      </trkpt>
      <trkpt lat="48.44043" lon="7.4444">
        <ele>233.8</ele>
        <time>2023-07-23T07:36:47Z</time>
      </trkpt>
      <trkpt lat="48.44038" lon="7.44443">
        <ele>233.9</ele>
        <time>2023-07-23T07:36:48Z</time>
      </trkpt>
      <trkpt lat="48.44034" lon="7.44445">
        <ele>234</ele>
        <time>2023-07-23T07:36:49Z</time>
      </trkpt>
      <trkpt lat="48.44029" lon="7.44448">
        <ele>234</ele>
        <time>2023-07-23T07:36:50Z</time>
      </trkpt>
      <trkpt lat="48.44024" lon="7.44451">
        <ele>234</ele>
        <time>2023-07-23T07:36:51Z</time>
      </trkpt>
      <trkpt lat="48.44019" lon="7.44453">
        <ele>234</ele>
        <time>2023-07-23T07:36:53Z</time>
      </trkpt>
      <trkpt lat="48.44015" lon="7.44456">
        <ele>234</ele>
        <time>2023-07-23T07:36:54Z</time>
      </trkpt>
      <trkpt lat="48.4401" lon="7.44459">
        <ele>234</ele>
        <time>2023-07-23T07:36:55Z</time>
      </trkpt>
      <trkpt lat="48.44005" lon="7.44462">
        <ele>233.9</ele>
        <time>2023-07-23T07:36:56Z</time>
      </trkpt>
      <trkpt lat="48.44" lon="7.44465">
        <ele>233.8</ele>
        <time>2023-07-23T07:36:57Z</time>
      </trkpt>
      <trkpt lat="48.43995" lon="7.44468">
        <ele>233.7</ele>
        <time>2023-07-23T07:36:58Z</time>
      </trkpt>
      <trkpt lat="48.43989" lon="7.44471">
        <ele>233.6</ele>
        <time>2023-07-23T07:36:59Z</time>
      </trkpt>
      <trkpt lat="48.43984" lon="7.44474">
        <ele>233.5</ele>
        <time>2023-07-23T07:37:00Z</time>
      </trkpt>
      <trkpt lat="48.43978" lon="7.44477">
        <ele>233.3</ele>
        <time>2023-07-23T07:37:01Z</time>
      </trkpt>
      <trkpt lat="48.43972" lon="7.44481">
        <ele>233.1</ele>
        <time>2023-07-23T07:37:02Z</time>
      </trkpt>
      <trkpt lat="48.43966" lon="7.44484">
        <ele>232.9</ele>
        <time>2023-07-23T07:37:03Z</time>
      </trkpt>
      <trkpt lat="48.43961" lon="7.44487">
        <ele>232.7</ele>
        <time>2023-07-23T07:37:04Z</time>
      </trkpt>
      <trkpt lat="48.43954" lon="7.44491">
        <ele>232.5</ele>
        <time>2023-07-23T07:37:05Z</time>
      </trkpt>
      <trkpt lat="48.43948" lon="7.44496">
        <ele>232.3</ele>
        <time>2023-07-23T07:37:06Z</time>
      </trkpt>
      <trkpt lat="48.4394" lon="7.445">
        <ele>232.1</ele>
        <time>2023-07-23T07:37:07Z</time>
      </trkpt>
      <trkpt lat="48.43933" lon="7.44505">
        <ele>232</ele>
        <time>2023-07-23T07:37:08Z</time>
      </trkpt>
      <trkpt lat="48.43918" lon="7.44514">
        <ele>231.8</ele>
        <time>2023-07-23T07:37:09Z</time>
      </trkpt>
      <trkpt lat="48.4391" lon="7.44518">
        <ele>231.7</ele>
        <time>2023-07-23T07:37:10Z</time>
      </trkpt>
      <trkpt lat="48.43902" lon="7.44523">
        <ele>231.7</ele>
        <time>2023-07-23T07:37:11Z</time>
      </trkpt>
      <trkpt lat="48.43893" lon="7.44528">
        <ele>231.8</ele>
        <time>2023-07-23T07:37:12Z</time>
      </trkpt>
      <trkpt lat="48.43885" lon="7.44532">
        <ele>232</ele>
        <time>2023-07-23T07:37:13Z</time>
      </trkpt>
      <trkpt lat="48.43877" lon="7.44536">
        <ele>232.2</ele>
        <time>2023-07-23T07:37:14Z</time>
      </trkpt>
      <trkpt lat="48.43869" lon="7.4454">
        <ele>232.5</ele>
        <time>2023-07-23T07:37:15Z</time>
      </trkpt>
      <trkpt lat="48.43862" lon="7.44544">
        <ele>232.8</ele>
        <time>2023-07-23T07:37:16Z</time>
      </trkpt>
      <trkpt lat="48.43854" lon="7.44549">
        <ele>233.2</ele>
        <time>2023-07-23T07:37:17Z</time>
      </trkpt>
      <trkpt lat="48.43847" lon="7.44553">
        <ele>233.5</ele>
        <time>2023-07-23T07:37:18Z</time>
      </trkpt>
      <trkpt lat="48.4384" lon="7.44557">
        <ele>234</ele>
        <time>2023-07-23T07:37:19Z</time>
      </trkpt>
      <trkpt lat="48.43834" lon="7.44561">
        <ele>234.4</ele>
        <time>2023-07-23T07:37:20Z</time>
      </trkpt>
      <trkpt lat="48.43827" lon="7.44564">
        <ele>234.8</ele>
        <time>2023-07-23T07:37:21Z</time>
      </trkpt>
      <trkpt lat="48.43822" lon="7.44568">
        <ele>235.2</ele>
        <time>2023-07-23T07:37:22Z</time>
      </trkpt>
      <trkpt lat="48.43816" lon="7.44572">
        <ele>235.6</ele>
        <time>2023-07-23T07:37:23Z</time>
      </trkpt>
      <trkpt lat="48.4381" lon="7.44575">
        <ele>236</ele>
        <time>2023-07-23T07:37:24Z</time>
      </trkpt>
      <trkpt lat="48.43805" lon="7.44578">
        <ele>236.3</ele>
        <time>2023-07-23T07:37:25Z</time>
      </trkpt>
      <trkpt lat="48.43799" lon="7.44581">
        <ele>236.7</ele>
        <time>2023-07-23T07:37:26Z</time>
      </trkpt>
      <trkpt lat="48.43793" lon="7.44584">
        <ele>237.1</ele>
        <time>2023-07-23T07:37:27Z</time>
      </trkpt>
      <trkpt lat="48.43788" lon="7.44587">
        <ele>237.4</ele>
        <time>2023-07-23T07:37:28Z</time>
      </trkpt>
      <trkpt lat="48.43784" lon="7.44589">
        <ele>237.7</ele>
        <time>2023-07-23T07:37:29Z</time>
      </trkpt>
      <trkpt lat="48.43779" lon="7.44592">
        <ele>238</ele>
        <time>2023-07-23T07:37:30Z</time>
      </trkpt>
      <trkpt lat="48.43775" lon="7.44595">
        <ele>238.3</ele>
        <time>2023-07-23T07:37:31Z</time>
      </trkpt>
      <trkpt lat="48.4377" lon="7.44598">
        <ele>238.6</ele>
        <time>2023-07-23T07:37:32Z</time>
      </trkpt>
      <trkpt lat="48.43766" lon="7.44601">
        <ele>238.8</ele>
        <time>2023-07-23T07:37:33Z</time>
      </trkpt>
      <trkpt lat="48.43761" lon="7.44603">
        <ele>239.1</ele>
        <time>2023-07-23T07:37:34Z</time>
      </trkpt>
      <trkpt lat="48.43756" lon="7.44605">
        <ele>239.3</ele>
        <time>2023-07-23T07:37:35Z</time>
      </trkpt>
      <trkpt lat="48.43752" lon="7.44608">
        <ele>239.5</ele>
        <time>2023-07-23T07:37:36Z</time>
      </trkpt>
      <trkpt lat="48.43747" lon="7.44611">
        <ele>239.6</ele>
        <time>2023-07-23T07:37:37Z</time>
      </trkpt>
      <trkpt lat="48.43743" lon="7.44614">
        <ele>239.7</ele>
        <time>2023-07-23T07:37:38Z</time>
      </trkpt>
      <trkpt lat="48.43738" lon="7.44617">
        <ele>239.7</ele>
        <time>2023-07-23T07:37:39Z</time>
      </trkpt>
      <trkpt lat="48.43734" lon="7.44619">
        <ele>239.7</ele>
        <time>2023-07-23T07:37:40Z</time>
      </trkpt>
      <trkpt lat="48.43729" lon="7.44621">
        <ele>239.6</ele>
        <time>2023-07-23T07:37:41Z</time>
      </trkpt>
      <trkpt lat="48.43725" lon="7.44624">
        <ele>239.5</ele>
        <time>2023-07-23T07:37:42Z</time>
      </trkpt>
      <trkpt lat="48.4372" lon="7.44627">
        <ele>239.4</ele>
        <time>2023-07-23T07:37:43Z</time>
      </trkpt>
      <trkpt lat="48.43715" lon="7.44631">
        <ele>239.2</ele>
        <time>2023-07-23T07:37:44Z</time>
      </trkpt>
      <trkpt lat="48.4371" lon="7.44634">
        <ele>239</ele>
        <time>2023-07-23T07:37:45Z</time>
      </trkpt>
      <trkpt lat="48.43705" lon="7.44638">
        <ele>238.8</ele>
        <time>2023-07-23T07:37:46Z</time>
      </trkpt>
      <trkpt lat="48.437" lon="7.44641">
        <ele>238.6</ele>
        <time>2023-07-23T07:37:47Z</time>
      </trkpt>
      <trkpt lat="48.43695" lon="7.44645">
        <ele>238.4</ele>
        <time>2023-07-23T07:37:48Z</time>
      </trkpt>
      <trkpt lat="48.4369" lon="7.44648">
        <ele>238.2</ele>
        <time>2023-07-23T07:37:49Z</time>
      </trkpt>
      <trkpt lat="48.43685" lon="7.44651">
        <ele>238</ele>
        <time>2023-07-23T07:37:50Z</time>
      </trkpt>
      <trkpt lat="48.4368" lon="7.44655">
        <ele>237.7</ele>
        <time>2023-07-23T07:37:51Z</time>
      </trkpt>
      <trkpt lat="48.43675" lon="7.44658">
        <ele>237.5</ele>
        <time>2023-07-23T07:37:52Z</time>
      </trkpt>
      <trkpt lat="48.4367" lon="7.44661">
        <ele>237.3</ele>
        <time>2023-07-23T07:37:53Z</time>
      </trkpt>
      <trkpt lat="48.43665" lon="7.44664">
        <ele>237.1</ele>
        <time>2023-07-23T07:37:54Z</time>
      </trkpt>
      <trkpt lat="48.4366" lon="7.44667">
        <ele>236.8</ele>
        <time>2023-07-23T07:37:55Z</time>
      </trkpt>
      <trkpt lat="48.43655" lon="7.44671">
        <ele>236.6</ele>
        <time>2023-07-23T07:37:56Z</time>
      </trkpt>
      <trkpt lat="48.4365" lon="7.44674">
        <ele>236.3</ele>
        <time>2023-07-23T07:37:57Z</time>
      </trkpt>
      <trkpt lat="48.43645" lon="7.44678">
        <ele>236.1</ele>
        <time>2023-07-23T07:37:58Z</time>
      </trkpt>
      <trkpt lat="48.43639" lon="7.44682">
        <ele>235.8</ele>
        <time>2023-07-23T07:37:59Z</time>
      </trkpt>
      <trkpt lat="48.43634" lon="7.44686">
        <ele>235.4</ele>
        <time>2023-07-23T07:38:00Z</time>
      </trkpt>
      <trkpt lat="48.43628" lon="7.44689">
        <ele>235.1</ele>
        <time>2023-07-23T07:38:01Z</time>
      </trkpt>
      <trkpt lat="48.43622" lon="7.44693">
        <ele>234.7</ele>
        <time>2023-07-23T07:38:02Z</time>
      </trkpt>
      <trkpt lat="48.43616" lon="7.44697">
        <ele>234.4</ele>
        <time>2023-07-23T07:38:03Z</time>
      </trkpt>
      <trkpt lat="48.43611" lon="7.44701">
        <ele>234</ele>
        <time>2023-07-23T07:38:04Z</time>
      </trkpt>
      <trkpt lat="48.43604" lon="7.44705">
        <ele>233.7</ele>
        <time>2023-07-23T07:38:05Z</time>
      </trkpt>
      <trkpt lat="48.43598" lon="7.4471">
        <ele>233.4</ele>
        <time>2023-07-23T07:38:06Z</time>
      </trkpt>
      <trkpt lat="48.43592" lon="7.44714">
        <ele>233.1</ele>
        <time>2023-07-23T07:38:07Z</time>
      </trkpt>
      <trkpt lat="48.43585" lon="7.44719">
        <ele>232.8</ele>
        <time>2023-07-23T07:38:08Z</time>
      </trkpt>
      <trkpt lat="48.43579" lon="7.44723">
        <ele>232.6</ele>
        <time>2023-07-23T07:38:09Z</time>
      </trkpt>
      <trkpt lat="48.43572" lon="7.44727">
        <ele>232.4</ele>
        <time>2023-07-23T07:38:10Z</time>
      </trkpt>
      <trkpt lat="48.43565" lon="7.44732">
        <ele>232.3</ele>
        <time>2023-07-23T07:38:11Z</time>
      </trkpt>
      <trkpt lat="48.43559" lon="7.44736">
        <ele>232.2</ele>
        <time>2023-07-23T07:38:12Z</time>
      </trkpt>
      <trkpt lat="48.43553" lon="7.4474">
        <ele>232.1</ele>
        <time>2023-07-23T07:38:13Z</time>
      </trkpt>
      <trkpt lat="48.43547" lon="7.44743">
        <ele>232</ele>
        <time>2023-07-23T07:38:14Z</time>
      </trkpt>
      <trkpt lat="48.43542" lon="7.44747">
        <ele>231.9</ele>
        <time>2023-07-23T07:38:15Z</time>
      </trkpt>
      <trkpt lat="48.43536" lon="7.4475">
        <ele>231.9</ele>
        <time>2023-07-23T07:38:16Z</time>
      </trkpt>
      <trkpt lat="48.4353" lon="7.44754">
        <ele>231.9</ele>
        <time>2023-07-23T07:38:17Z</time>
      </trkpt>
      <trkpt lat="48.43524" lon="7.44758">
        <ele>231.9</ele>
        <time>2023-07-23T07:38:18Z</time>
      </trkpt>
      <trkpt lat="48.43519" lon="7.44761">
        <ele>231.9</ele>
        <time>2023-07-23T07:38:19Z</time>
      </trkpt>
      <trkpt lat="48.43514" lon="7.44765">
        <ele>232</ele>
        <time>2023-07-23T07:38:20Z</time>
      </trkpt>
      <trkpt lat="48.43509" lon="7.44768">
        <ele>232.1</ele>
        <time>2023-07-23T07:38:21Z</time>
      </trkpt>
      <trkpt lat="48.43504" lon="7.44772">
        <ele>232.1</ele>
        <time>2023-07-23T07:38:22Z</time>
      </trkpt>
      <trkpt lat="48.43499" lon="7.44775">
        <ele>232.2</ele>
        <time>2023-07-23T07:38:23Z</time>
      </trkpt>
      <trkpt lat="48.43494" lon="7.44778">
        <ele>232.3</ele>
        <time>2023-07-23T07:38:24Z</time>
      </trkpt>
      <trkpt lat="48.43489" lon="7.44781">
        <ele>232.4</ele>
        <time>2023-07-23T07:38:25Z</time>
      </trkpt>
      <trkpt lat="48.43484" lon="7.44785">
        <ele>232.6</ele>
        <time>2023-07-23T07:38:26Z</time>
      </trkpt>
      <trkpt lat="48.43479" lon="7.44788">
        <ele>232.7</ele>
        <time>2023-07-23T07:38:27Z</time>
      </trkpt>
      <trkpt lat="48.43475" lon="7.44791">
        <ele>232.9</ele>
        <time>2023-07-23T07:38:28Z</time>
      </trkpt>
      <trkpt lat="48.4347" lon="7.44794">
        <ele>233</ele>
        <time>2023-07-23T07:38:29Z</time>
      </trkpt>
      <trkpt lat="48.43466" lon="7.44796">
        <ele>233.2</ele>
        <time>2023-07-23T07:38:30Z</time>
      </trkpt>
      <trkpt lat="48.43462" lon="7.44799">
        <ele>233.4</ele>
        <time>2023-07-23T07:38:31Z</time>
      </trkpt>
      <trkpt lat="48.43457" lon="7.44802">
        <ele>233.5</ele>
        <time>2023-07-23T07:38:32Z</time>
      </trkpt>
      <trkpt lat="48.43453" lon="7.44806">
        <ele>233.7</ele>
        <time>2023-07-23T07:38:33Z</time>
      </trkpt>
      <trkpt lat="48.43449" lon="7.44809">
        <ele>233.9</ele>
        <time>2023-07-23T07:38:34Z</time>
      </trkpt>
      <trkpt lat="48.43445" lon="7.44811">
        <ele>234.1</ele>
        <time>2023-07-23T07:38:35Z</time>
      </trkpt>
      <trkpt lat="48.43441" lon="7.44814">
        <ele>234.3</ele>
        <time>2023-07-23T07:38:36Z</time>
      </trkpt>
      <trkpt lat="48.43436" lon="7.44816">
        <ele>234.5</ele>
        <time>2023-07-23T07:38:37Z</time>
      </trkpt>
      <trkpt lat="48.43432" lon="7.44819">
        <ele>234.7</ele>
        <time>2023-07-23T07:38:38Z</time>
      </trkpt>
      <trkpt lat="48.43428" lon="7.44822">
        <ele>234.9</ele>
        <time>2023-07-23T07:38:39Z</time>
      </trkpt>
      <trkpt lat="48.43424" lon="7.44825">
        <ele>235.1</ele>
        <time>2023-07-23T07:38:40Z</time>
      </trkpt>
      <trkpt lat="48.4342" lon="7.44827">
        <ele>235.3</ele>
        <time>2023-07-23T07:38:41Z</time>
      </trkpt>
      <trkpt lat="48.43417" lon="7.44829">
        <ele>235.4</ele>
        <time>2023-07-23T07:38:42Z</time>
      </trkpt>
      <trkpt lat="48.43413" lon="7.44832">
        <ele>235.6</ele>
        <time>2023-07-23T07:38:43Z</time>
      </trkpt>
      <trkpt lat="48.4341" lon="7.44834">
        <ele>235.7</ele>
        <time>2023-07-23T07:38:44Z</time>
      </trkpt>
      <trkpt lat="48.43406" lon="7.44837">
        <ele>235.9</ele>
        <time>2023-07-23T07:38:45Z</time>
      </trkpt>
      <trkpt lat="48.43402" lon="7.44839">
        <ele>236</ele>
        <time>2023-07-23T07:38:46Z</time>
      </trkpt>
      <trkpt lat="48.43399" lon="7.44841">
        <ele>236.1</ele>
        <time>2023-07-23T07:38:47Z</time>
      </trkpt>
      <trkpt lat="48.43396" lon="7.44843">
        <ele>236.3</ele>
        <time>2023-07-23T07:38:48Z</time>
      </trkpt>
      <trkpt lat="48.43392" lon="7.44845">
        <ele>236.4</ele>
        <time>2023-07-23T07:38:49Z</time>
      </trkpt>
      <trkpt lat="48.43389" lon="7.44848">
        <ele>236.6</ele>
        <time>2023-07-23T07:38:50Z</time>
      </trkpt>
      <trkpt lat="48.43385" lon="7.4485">
        <ele>236.7</ele>
        <time>2023-07-23T07:38:51Z</time>
      </trkpt>
      <trkpt lat="48.43382" lon="7.44852">
        <ele>236.9</ele>
        <time>2023-07-23T07:38:52Z</time>
      </trkpt>
      <trkpt lat="48.43378" lon="7.44855">
        <ele>237</ele>
        <time>2023-07-23T07:38:53Z</time>
      </trkpt>
      <trkpt lat="48.43374" lon="7.44857">
        <ele>237.1</ele>
        <time>2023-07-23T07:38:54Z</time>
      </trkpt>
      <trkpt lat="48.43371" lon="7.4486">
        <ele>237.3</ele>
        <time>2023-07-23T07:38:55Z</time>
      </trkpt>
      <trkpt lat="48.43367" lon="7.44863">
        <ele>237.4</ele>
        <time>2023-07-23T07:38:56Z</time>
      </trkpt>
      <trkpt lat="48.43363" lon="7.44865">
        <ele>237.5</ele>
        <time>2023-07-23T07:38:57Z</time>
      </trkpt>
      <trkpt lat="48.43359" lon="7.44867">
        <ele>237.7</ele>
        <time>2023-07-23T07:38:58Z</time>
      </trkpt>
      <trkpt lat="48.43356" lon="7.4487">
        <ele>237.8</ele>
        <time>2023-07-23T07:38:59Z</time>
      </trkpt>
      <trkpt lat="48.43352" lon="7.44873">
        <ele>237.9</ele>
        <time>2023-07-23T07:39:00Z</time>
      </trkpt>
      <trkpt lat="48.43349" lon="7.44875">
        <ele>238.1</ele>
        <time>2023-07-23T07:39:01Z</time>
      </trkpt>
      <trkpt lat="48.43345" lon="7.44877">
        <ele>238.2</ele>
        <time>2023-07-23T07:39:02Z</time>
      </trkpt>
      <trkpt lat="48.43342" lon="7.4488">
        <ele>238.3</ele>
        <time>2023-07-23T07:39:03Z</time>
      </trkpt>
      <trkpt lat="48.43338" lon="7.44882">
        <ele>238.4</ele>
        <time>2023-07-23T07:39:05Z</time>
      </trkpt>
      <trkpt lat="48.43335" lon="7.44884">
        <ele>238.5</ele>
        <time>2023-07-23T07:39:06Z</time>
      </trkpt>
      <trkpt lat="48.43331" lon="7.44886">
        <ele>238.6</ele>
        <time>2023-07-23T07:39:07Z</time>
      </trkpt>
      <trkpt lat="48.43328" lon="7.44888">
        <ele>238.7</ele>
        <time>2023-07-23T07:39:08Z</time>
      </trkpt>
      <trkpt lat="48.43324" lon="7.44891">
        <ele>238.9</ele>
        <time>2023-07-23T07:39:09Z</time>
      </trkpt>
      <trkpt lat="48.43321" lon="7.44894">
        <ele>239</ele>
        <time>2023-07-23T07:39:10Z</time>
      </trkpt>
      <trkpt lat="48.43317" lon="7.44896">
        <ele>239.1</ele>
        <time>2023-07-23T07:39:11Z</time>
      </trkpt>
      <trkpt lat="48.43314" lon="7.44899">
        <ele>239.2</ele>
        <time>2023-07-23T07:39:12Z</time>
      </trkpt>
      <trkpt lat="48.43307" lon="7.44903">
        <ele>239.5</ele>
        <time>2023-07-23T07:39:13Z</time>
      </trkpt>
      <trkpt lat="48.43303" lon="7.44905">
        <ele>239.6</ele>
        <time>2023-07-23T07:39:14Z</time>
      </trkpt>
      <trkpt lat="48.433" lon="7.44908">
        <ele>239.8</ele>
        <time>2023-07-23T07:39:15Z</time>
      </trkpt>
      <trkpt lat="48.43296" lon="7.4491">
        <ele>239.9</ele>
        <time>2023-07-23T07:39:16Z</time>
      </trkpt>
      <trkpt lat="48.43293" lon="7.44912">
        <ele>240</ele>
        <time>2023-07-23T07:39:17Z</time>
      </trkpt>
      <trkpt lat="48.43289" lon="7.44914">
        <ele>240.2</ele>
        <time>2023-07-23T07:39:18Z</time>
      </trkpt>
      <trkpt lat="48.43286" lon="7.44916">
        <ele>240.3</ele>
        <time>2023-07-23T07:39:19Z</time>
      </trkpt>
      <trkpt lat="48.43282" lon="7.44919">
        <ele>240.5</ele>
        <time>2023-07-23T07:39:20Z</time>
      </trkpt>
      <trkpt lat="48.43279" lon="7.44921">
        <ele>240.7</ele>
        <time>2023-07-23T07:39:21Z</time>
      </trkpt>
      <trkpt lat="48.43275" lon="7.44923">
        <ele>240.8</ele>
        <time>2023-07-23T07:39:22Z</time>
      </trkpt>
      <trkpt lat="48.43272" lon="7.44925">
        <ele>241</ele>
        <time>2023-07-23T07:39:23Z</time>
      </trkpt>
      <trkpt lat="48.43268" lon="7.44926">
        <ele>241.1</ele>
        <time>2023-07-23T07:39:24Z</time>
      </trkpt>
      <trkpt lat="48.43265" lon="7.44928">
        <ele>241.2</ele>
        <time>2023-07-23T07:39:25Z</time>
      </trkpt>
      <trkpt lat="48.43262" lon="7.4493">
        <ele>241.4</ele>
        <time>2023-07-23T07:39:26Z</time>
      </trkpt>
      <trkpt lat="48.43258" lon="7.44932">
        <ele>241.5</ele>
        <time>2023-07-23T07:39:27Z</time>
      </trkpt>
      <trkpt lat="48.43255" lon="7.44934">
        <ele>241.7</ele>
        <time>2023-07-23T07:39:28Z</time>
      </trkpt>
      <trkpt lat="48.43252" lon="7.44936">
        <ele>241.8</ele>
        <time>2023-07-23T07:39:29Z</time>
      </trkpt>
      <trkpt lat="48.43249" lon="7.44938">
        <ele>241.9</ele>
        <time>2023-07-23T07:39:30Z</time>
      </trkpt>
      <trkpt lat="48.43245" lon="7.4494">
        <ele>242.1</ele>
        <time>2023-07-23T07:39:31Z</time>
      </trkpt>
      <trkpt lat="48.43242" lon="7.44942">
        <ele>242.2</ele>
        <time>2023-07-23T07:39:32Z</time>
      </trkpt>
      <trkpt lat="48.43239" lon="7.44943">
        <ele>242.3</ele>
        <time>2023-07-23T07:39:33Z</time>
      </trkpt>
      <trkpt lat="48.43236" lon="7.44945">
        <ele>242.5</ele>
        <time>2023-07-23T07:39:34Z</time>
      </trkpt>
      <trkpt lat="48.43233" lon="7.44947">
        <ele>242.6</ele>
        <time>2023-07-23T07:39:35Z</time>
      </trkpt>
      <trkpt lat="48.4323" lon="7.44949">
        <ele>242.7</ele>
        <time>2023-07-23T07:39:36Z</time>
      </trkpt>
      <trkpt lat="48.43227" lon="7.4495">
        <ele>242.8</ele>
        <time>2023-07-23T07:39:37Z</time>
      </trkpt>
      <trkpt lat="48.43224" lon="7.44952">
        <ele>242.9</ele>
        <time>2023-07-23T07:39:38Z</time>
      </trkpt>
      <trkpt lat="48.43221" lon="7.44954">
        <ele>243</ele>
        <time>2023-07-23T07:39:39Z</time>
      </trkpt>
      <trkpt lat="48.43218" lon="7.44955">
        <ele>243.1</ele>
        <time>2023-07-23T07:39:40Z</time>
      </trkpt>
      <trkpt lat="48.43215" lon="7.44957">
        <ele>243.2</ele>
        <time>2023-07-23T07:39:41Z</time>
      </trkpt>
      <trkpt lat="48.43212" lon="7.44958">
        <ele>243.3</ele>
        <time>2023-07-23T07:39:42Z</time>
      </trkpt>
      <trkpt lat="48.43208" lon="7.4496">
        <ele>243.5</ele>
        <time>2023-07-23T07:39:43Z</time>
      </trkpt>
      <trkpt lat="48.43205" lon="7.44962">
        <ele>243.6</ele>
        <time>2023-07-23T07:39:44Z</time>
      </trkpt>
      <trkpt lat="48.43202" lon="7.44963">
        <ele>243.7</ele>
        <time>2023-07-23T07:39:45Z</time>
      </trkpt>
      <trkpt lat="48.43199" lon="7.44965">
        <ele>243.8</ele>
        <time>2023-07-23T07:39:46Z</time>
      </trkpt>
      <trkpt lat="48.43197" lon="7.44967">
        <ele>244</ele>
        <time>2023-07-23T07:39:47Z</time>
      </trkpt>
      <trkpt lat="48.43193" lon="7.44968">
        <ele>244.1</ele>
        <time>2023-07-23T07:39:48Z</time>
      </trkpt>
      <trkpt lat="48.43191" lon="7.4497">
        <ele>244.2</ele>
        <time>2023-07-23T07:39:49Z</time>
      </trkpt>
      <trkpt lat="48.43188" lon="7.44972">
        <ele>244.3</ele>
        <time>2023-07-23T07:39:50Z</time>
      </trkpt>
      <trkpt lat="48.43185" lon="7.44973">
        <ele>244.5</ele>
        <time>2023-07-23T07:39:51Z</time>
      </trkpt>
      <trkpt lat="48.43182" lon="7.44975">
        <ele>244.6</ele>
        <time>2023-07-23T07:39:52Z</time>
      </trkpt>
      <trkpt lat="48.4318" lon="7.44976">
        <ele>244.7</ele>
        <time>2023-07-23T07:39:53Z</time>
      </trkpt>
      <trkpt lat="48.43177" lon="7.44978">
        <ele>244.9</ele>
        <time>2023-07-23T07:39:54Z</time>
      </trkpt>
      <trkpt lat="48.43174" lon="7.4498">
        <ele>245</ele>
        <time>2023-07-23T07:39:55Z</time>
      </trkpt>
      <trkpt lat="48.43171" lon="7.44982">
        <ele>245.2</ele>
        <time>2023-07-23T07:39:56Z</time>
      </trkpt>
      <trkpt lat="48.43169" lon="7.44983">
        <ele>245.3</ele>
        <time>2023-07-23T07:39:57Z</time>
      </trkpt>
      <trkpt lat="48.43166" lon="7.44985">
        <ele>245.5</ele>
        <time>2023-07-23T07:39:58Z</time>
      </trkpt>
      <trkpt lat="48.43163" lon="7.44986">
        <ele>245.6</ele>
        <time>2023-07-23T07:39:59Z</time>
      </trkpt>
      <trkpt lat="48.4316" lon="7.44988">
        <ele>245.8</ele>
        <time>2023-07-23T07:40:00Z</time>
      </trkpt>
      <trkpt lat="48.43158" lon="7.44989">
        <ele>245.9</ele>
        <time>2023-07-23T07:40:01Z</time>
      </trkpt>
      <trkpt lat="48.43154" lon="7.44991">
        <ele>246.1</ele>
        <time>2023-07-23T07:40:02Z</time>
      </trkpt>
      <trkpt lat="48.43152" lon="7.44992">
        <ele>246.2</ele>
        <time>2023-07-23T07:40:03Z</time>
      </trkpt>
      <trkpt lat="48.43149" lon="7.44993">
        <ele>246.4</ele>
        <time>2023-07-23T07:40:04Z</time>
      </trkpt>
      <trkpt lat="48.43146" lon="7.44995">
        <ele>246.5</ele>
        <time>2023-07-23T07:40:05Z</time>
      </trkpt>
      <trkpt lat="48.43144" lon="7.44997">
        <ele>246.7</ele>
        <time>2023-07-23T07:40:06Z</time>
      </trkpt>
      <trkpt lat="48.43141" lon="7.44999">
        <ele>246.9</ele>
        <time>2023-07-23T07:40:07Z</time>
      </trkpt>
      <trkpt lat="48.43138" lon="7.45">
        <ele>247</ele>
        <time>2023-07-23T07:40:08Z</time>
      </trkpt>
      <trkpt lat="48.43135" lon="7.45002">
        <ele>247.2</ele>
        <time>2023-07-23T07:40:09Z</time>
      </trkpt>
      <trkpt lat="48.43132" lon="7.45004">
        <ele>247.4</ele>
        <time>2023-07-23T07:40:10Z</time>
      </trkpt>
      <trkpt lat="48.4313" lon="7.45006">
        <ele>247.5</ele>
        <time>2023-07-23T07:40:11Z</time>
      </trkpt>
      <trkpt lat="48.43127" lon="7.45007">
        <ele>247.7</ele>
        <time>2023-07-23T07:40:12Z</time>
      </trkpt>
      <trkpt lat="48.43124" lon="7.45008">
        <ele>247.9</ele>
        <time>2023-07-23T07:40:13Z</time>
      </trkpt>
      <trkpt lat="48.43121" lon="7.4501">
        <ele>248.1</ele>
        <time>2023-07-23T07:40:14Z</time>
      </trkpt>
      <trkpt lat="48.43118" lon="7.45012">
        <ele>248.2</ele>
        <time>2023-07-23T07:40:15Z</time>
      </trkpt>
      <trkpt lat="48.43116" lon="7.45013">
        <ele>248.4</ele>
        <time>2023-07-23T07:40:16Z</time>
      </trkpt>
      <trkpt lat="48.43113" lon="7.45015">
        <ele>248.6</ele>
        <time>2023-07-23T07:40:17Z</time>
      </trkpt>
      <trkpt lat="48.4311" lon="7.45017">
        <ele>248.7</ele>
        <time>2023-07-23T07:40:18Z</time>
      </trkpt>
      <trkpt lat="48.43107" lon="7.45018">
        <ele>248.9</ele>
        <time>2023-07-23T07:40:19Z</time>
      </trkpt>
      <trkpt lat="48.43105" lon="7.45019">
        <ele>249</ele>
        <time>2023-07-23T07:40:20Z</time>
      </trkpt>
      <trkpt lat="48.43102" lon="7.45021">
        <ele>249.2</ele>
        <time>2023-07-23T07:40:21Z</time>
      </trkpt>
      <trkpt lat="48.43099" lon="7.45023">
        <ele>249.4</ele>
        <time>2023-07-23T07:40:22Z</time>
      </trkpt>
      <trkpt lat="48.43097" lon="7.45024">
        <ele>249.5</ele>
        <time>2023-07-23T07:40:23Z</time>
      </trkpt>
      <trkpt lat="48.43094" lon="7.45026">
        <ele>249.7</ele>
        <time>2023-07-23T07:40:24Z</time>
      </trkpt>
      <trkpt lat="48.43091" lon="7.45028">
        <ele>249.9</ele>
        <time>2023-07-23T07:40:25Z</time>
      </trkpt>
      <trkpt lat="48.43089" lon="7.4503">
        <ele>250</ele>
        <time>2023-07-23T07:40:26Z</time>
      </trkpt>
      <trkpt lat="48.43086" lon="7.45031">
        <ele>250.2</ele>
        <time>2023-07-23T07:40:27Z</time>
      </trkpt>
      <trkpt lat="48.43083" lon="7.45033">
        <ele>250.3</ele>
        <time>2023-07-23T07:40:28Z</time>
      </trkpt>
      <trkpt lat="48.43081" lon="7.45035">
        <ele>250.5</ele>
        <time>2023-07-23T07:40:29Z</time>
      </trkpt>
      <trkpt lat="48.43078" lon="7.45038">
        <ele>250.7</ele>
        <time>2023-07-23T07:40:30Z</time>
      </trkpt>
      <trkpt lat="48.43076" lon="7.4504">
        <ele>250.8</ele>
        <time>2023-07-23T07:40:31Z</time>
      </trkpt>
      <trkpt lat="48.43073" lon="7.45042">
        <ele>251</ele>
        <time>2023-07-23T07:40:32Z</time>
      </trkpt>
      <trkpt lat="48.43071" lon="7.45045">
        <ele>251.1</ele>
        <time>2023-07-23T07:40:33Z</time>
      </trkpt>
      <trkpt lat="48.43068" lon="7.45048">
        <ele>251.3</ele>
        <time>2023-07-23T07:40:34Z</time>
      </trkpt>
      <trkpt lat="48.43066" lon="7.45051">
        <ele>251.4</ele>
        <time>2023-07-23T07:40:35Z</time>
      </trkpt>
      <trkpt lat="48.43064" lon="7.45054">
        <ele>251.6</ele>
        <time>2023-07-23T07:40:36Z</time>
      </trkpt>
      <trkpt lat="48.43062" lon="7.45057">
        <ele>251.7</ele>
        <time>2023-07-23T07:40:37Z</time>
      </trkpt>
      <trkpt lat="48.43059" lon="7.4506">
        <ele>251.9</ele>
        <time>2023-07-23T07:40:38Z</time>
      </trkpt>
      <trkpt lat="48.43057" lon="7.45063">
        <ele>252.1</ele>
        <time>2023-07-23T07:40:39Z</time>
      </trkpt>
      <trkpt lat="48.43055" lon="7.45066">
        <ele>252.2</ele>
        <time>2023-07-23T07:40:40Z</time>
      </trkpt>
      <trkpt lat="48.43053" lon="7.4507">
        <ele>252.4</ele>
        <time>2023-07-23T07:40:41Z</time>
      </trkpt>
      <trkpt lat="48.43051" lon="7.45073">
        <ele>252.6</ele>
        <time>2023-07-23T07:40:42Z</time>
      </trkpt>
      <trkpt lat="48.4305" lon="7.45077">
        <ele>252.7</ele>
        <time>2023-07-23T07:40:43Z</time>
      </trkpt>
      <trkpt lat="48.43048" lon="7.45081">
        <ele>252.9</ele>
        <time>2023-07-23T07:40:44Z</time>
      </trkpt>
      <trkpt lat="48.43046" lon="7.45084">
        <ele>253.1</ele>
        <time>2023-07-23T07:40:45Z</time>
      </trkpt>
      <trkpt lat="48.43044" lon="7.45088">
        <ele>253.2</ele>
        <time>2023-07-23T07:40:46Z</time>
      </trkpt>
      <trkpt lat="48.43042" lon="7.45093">
        <ele>253.4</ele>
        <time>2023-07-23T07:40:47Z</time>
      </trkpt>
      <trkpt lat="48.43042" lon="7.45094">
        <ele>253.5</ele>
        <time>2023-07-23T07:40:48Z</time>
      </trkpt>
      <trkpt lat="48.4304" lon="7.451">
        <ele>253.7</ele>
        <time>2023-07-23T07:40:49Z</time>
      </trkpt>
      <trkpt lat="48.43039" lon="7.45101">
        <ele>253.8</ele>
        <time>2023-07-23T07:40:50Z</time>
      </trkpt>
      <trkpt lat="48.43038" lon="7.45105">
        <ele>253.9</ele>
        <time>2023-07-23T07:40:51Z</time>
      </trkpt>
      <trkpt lat="48.43036" lon="7.45111">
        <ele>254.1</ele>
        <time>2023-07-23T07:40:52Z</time>
      </trkpt>
      <trkpt lat="48.43036" lon="7.45112">
        <ele>254.2</ele>
        <time>2023-07-23T07:40:53Z</time>
      </trkpt>
      <trkpt lat="48.43034" lon="7.45118">
        <ele>254.4</ele>
        <time>2023-07-23T07:40:54Z</time>
      </trkpt>
      <trkpt lat="48.43033" lon="7.4512">
        <ele>254.5</ele>
        <time>2023-07-23T07:40:55Z</time>
      </trkpt>
      <trkpt lat="48.43032" lon="7.45125">
        <ele>254.7</ele>
        <time>2023-07-23T07:40:56Z</time>
      </trkpt>
      <trkpt lat="48.43031" lon="7.45126">
        <ele>254.7</ele>
        <time>2023-07-23T07:40:57Z</time>
      </trkpt>
      <trkpt lat="48.43029" lon="7.45131">
        <ele>254.9</ele>
        <time>2023-07-23T07:40:58Z</time>
      </trkpt>
      <trkpt lat="48.43029" lon="7.45133">
        <ele>255</ele>
        <time>2023-07-23T07:40:59Z</time>
      </trkpt>
      <trkpt lat="48.43027" lon="7.45138">
        <ele>255.2</ele>
        <time>2023-07-23T07:41:00Z</time>
      </trkpt>
      <trkpt lat="48.43027" lon="7.45139">
        <ele>255.3</ele>
        <time>2023-07-23T07:41:01Z</time>
      </trkpt>
      <trkpt lat="48.43025" lon="7.45145">
        <ele>255.5</ele>
        <time>2023-07-23T07:41:02Z</time>
      </trkpt>
      <trkpt lat="48.43025" lon="7.45147">
        <ele>255.6</ele>
        <time>2023-07-23T07:41:03Z</time>
      </trkpt>
      <trkpt lat="48.43024" lon="7.4515">
        <ele>255.7</ele>
        <time>2023-07-23T07:41:04Z</time>
      </trkpt>
      <trkpt lat="48.43021" lon="7.45158">
        <ele>256</ele>
        <time>2023-07-23T07:41:06Z</time>
      </trkpt>
      <trkpt lat="48.4302" lon="7.45161">
        <ele>256.2</ele>
        <time>2023-07-23T07:41:08Z</time>
      </trkpt>
      <trkpt lat="48.43019" lon="7.45165">
        <ele>256.3</ele>
        <time>2023-07-23T07:41:09Z</time>
      </trkpt>
      <trkpt lat="48.43018" lon="7.4517">
        <ele>256.6</ele>
        <time>2023-07-23T07:41:10Z</time>
      </trkpt>
      <trkpt lat="48.43017" lon="7.45172">
        <ele>256.6</ele>
        <time>2023-07-23T07:41:11Z</time>
      </trkpt>
      <trkpt lat="48.43015" lon="7.45178">
        <ele>256.9</ele>
        <time>2023-07-23T07:41:12Z</time>
      </trkpt>
      <trkpt lat="48.43014" lon="7.45179">
        <ele>256.9</ele>
        <time>2023-07-23T07:41:13Z</time>
      </trkpt>
      <trkpt lat="48.43013" lon="7.45183">
        <ele>257.1</ele>
        <time>2023-07-23T07:41:14Z</time>
      </trkpt>
      <trkpt lat="48.43012" lon="7.45187">
        <ele>257.3</ele>
        <time>2023-07-23T07:41:15Z</time>
      </trkpt>
      <trkpt lat="48.43011" lon="7.45191">
        <ele>257.4</ele>
        <time>2023-07-23T07:41:16Z</time>
      </trkpt>
      <trkpt lat="48.43009" lon="7.45196">
        <ele>257.7</ele>
        <time>2023-07-23T07:41:17Z</time>
      </trkpt>
      <trkpt lat="48.43008" lon="7.45198">
        <ele>257.7</ele>
        <time>2023-07-23T07:41:18Z</time>
      </trkpt>
      <trkpt lat="48.43007" lon="7.45202">
        <ele>257.9</ele>
        <time>2023-07-23T07:41:19Z</time>
      </trkpt>
      <trkpt lat="48.43006" lon="7.45206">
        <ele>258.1</ele>
        <time>2023-07-23T07:41:20Z</time>
      </trkpt>
      <trkpt lat="48.43005" lon="7.45209">
        <ele>258.2</ele>
        <time>2023-07-23T07:41:21Z</time>
      </trkpt>
      <trkpt lat="48.43003" lon="7.45214">
        <ele>258.4</ele>
        <time>2023-07-23T07:41:22Z</time>
      </trkpt>
      <trkpt lat="48.43003" lon="7.45216">
        <ele>258.5</ele>
        <time>2023-07-23T07:41:23Z</time>
      </trkpt>
      <trkpt lat="48.43002" lon="7.4522">
        <ele>258.7</ele>
        <time>2023-07-23T07:41:24Z</time>
      </trkpt>
      <trkpt lat="48.43" lon="7.45225">
        <ele>258.9</ele>
        <time>2023-07-23T07:41:25Z</time>
      </trkpt>
      <trkpt lat="48.42999" lon="7.45227">
        <ele>259</ele>
        <time>2023-07-23T07:41:26Z</time>
      </trkpt>
      <trkpt lat="48.42998" lon="7.45231">
        <ele>259.1</ele>
        <time>2023-07-23T07:41:27Z</time>
      </trkpt>
      <trkpt lat="48.42996" lon="7.45235">
        <ele>259.3</ele>
        <time>2023-07-23T07:41:28Z</time>
      </trkpt>
      <trkpt lat="48.42995" lon="7.45238">
        <ele>259.5</ele>
        <time>2023-07-23T07:41:29Z</time>
      </trkpt>
      <trkpt lat="48.42994" lon="7.45242">
        <ele>259.7</ele>
        <time>2023-07-23T07:41:30Z</time>
      </trkpt>
      <trkpt lat="48.42991" lon="7.45251">
        <ele>260</ele>
        <time>2023-07-23T07:41:31Z</time>
      </trkpt>
      <trkpt lat="48.42989" lon="7.45256">
        <ele>260.3</ele>
        <time>2023-07-23T07:41:32Z</time>
      </trkpt>
      <trkpt lat="48.42987" lon="7.4526">
        <ele>260.5</ele>
        <time>2023-07-23T07:41:33Z</time>
      </trkpt>
      <trkpt lat="48.42986" lon="7.45264">
        <ele>260.7</ele>
        <time>2023-07-23T07:41:34Z</time>
      </trkpt>
      <trkpt lat="48.42984" lon="7.45269">
        <ele>260.9</ele>
        <time>2023-07-23T07:41:35Z</time>
      </trkpt>
      <trkpt lat="48.42982" lon="7.45273">
        <ele>261.1</ele>
        <time>2023-07-23T07:41:36Z</time>
      </trkpt>
      <trkpt lat="48.4298" lon="7.45277">
        <ele>261.3</ele>
        <time>2023-07-23T07:41:37Z</time>
      </trkpt>
      <trkpt lat="48.42978" lon="7.45281">
        <ele>261.5</ele>
        <time>2023-07-23T07:41:38Z</time>
      </trkpt>
      <trkpt lat="48.42975" lon="7.45285">
        <ele>261.7</ele>
        <time>2023-07-23T07:41:39Z</time>
      </trkpt>
      <trkpt lat="48.42973" lon="7.45289">
        <ele>261.9</ele>
        <time>2023-07-23T07:41:40Z</time>
      </trkpt>
      <trkpt lat="48.4297" lon="7.45292">
        <ele>262.1</ele>
        <time>2023-07-23T07:41:41Z</time>
      </trkpt>
      <trkpt lat="48.42967" lon="7.45294">
        <ele>262.2</ele>
        <time>2023-07-23T07:41:42Z</time>
      </trkpt>
      <trkpt lat="48.42964" lon="7.45296">
        <ele>262.4</ele>
        <time>2023-07-23T07:41:43Z</time>
      </trkpt>
      <trkpt lat="48.42961" lon="7.45298">
        <ele>262.6</ele>
        <time>2023-07-23T07:41:44Z</time>
      </trkpt>
      <trkpt lat="48.42958" lon="7.453">
        <ele>262.8</ele>
        <time>2023-07-23T07:41:45Z</time>
      </trkpt>
      <trkpt lat="48.42954" lon="7.45301">
        <ele>263</ele>
        <time>2023-07-23T07:41:46Z</time>
      </trkpt>
      <trkpt lat="48.42951" lon="7.45302">
        <ele>263.1</ele>
        <time>2023-07-23T07:41:47Z</time>
      </trkpt>
      <trkpt lat="48.42948" lon="7.45302">
        <ele>263.3</ele>
        <time>2023-07-23T07:41:48Z</time>
      </trkpt>
      <trkpt lat="48.42945" lon="7.45303">
        <ele>263.5</ele>
        <time>2023-07-23T07:41:49Z</time>
      </trkpt>
      <trkpt lat="48.42941" lon="7.45302">
        <ele>263.7</ele>
        <time>2023-07-23T07:41:50Z</time>
      </trkpt>
      <trkpt lat="48.42938" lon="7.45301">
        <ele>264</ele>
        <time>2023-07-23T07:41:51Z</time>
      </trkpt>
      <trkpt lat="48.42934" lon="7.45301">
        <ele>264.2</ele>
        <time>2023-07-23T07:41:52Z</time>
      </trkpt>
      <trkpt lat="48.42931" lon="7.453">
        <ele>264.5</ele>
        <time>2023-07-23T07:41:53Z</time>
      </trkpt>
      <trkpt lat="48.42928" lon="7.453">
        <ele>264.7</ele>
        <time>2023-07-23T07:41:54Z</time>
      </trkpt>
      <trkpt lat="48.42925" lon="7.45299">
        <ele>264.9</ele>
        <time>2023-07-23T07:41:55Z</time>
      </trkpt>
      <trkpt lat="48.42922" lon="7.45298">
        <ele>265.2</ele>
        <time>2023-07-23T07:41:56Z</time>
      </trkpt>
      <trkpt lat="48.42919" lon="7.45296">
        <ele>265.4</ele>
        <time>2023-07-23T07:41:57Z</time>
      </trkpt>
      <trkpt lat="48.42916" lon="7.45295">
        <ele>265.6</ele>
        <time>2023-07-23T07:41:58Z</time>
      </trkpt>
      <trkpt lat="48.42913" lon="7.45293">
        <ele>265.9</ele>
        <time>2023-07-23T07:41:59Z</time>
      </trkpt>
      <trkpt lat="48.4291" lon="7.45292">
        <ele>266.1</ele>
        <time>2023-07-23T07:42:00Z</time>
      </trkpt>
      <trkpt lat="48.42908" lon="7.45291">
        <ele>266.3</ele>
        <time>2023-07-23T07:42:01Z</time>
      </trkpt>
      <trkpt lat="48.42905" lon="7.45289">
        <ele>266.6</ele>
        <time>2023-07-23T07:42:02Z</time>
      </trkpt>
      <trkpt lat="48.42902" lon="7.45287">
        <ele>266.8</ele>
        <time>2023-07-23T07:42:03Z</time>
      </trkpt>
      <trkpt lat="48.42899" lon="7.45285">
        <ele>267.1</ele>
        <time>2023-07-23T07:42:04Z</time>
      </trkpt>
      <trkpt lat="48.42896" lon="7.45283">
        <ele>267.3</ele>
        <time>2023-07-23T07:42:05Z</time>
      </trkpt>
      <trkpt lat="48.42894" lon="7.45281">
        <ele>267.5</ele>
        <time>2023-07-23T07:42:06Z</time>
      </trkpt>
      <trkpt lat="48.42891" lon="7.45279">
        <ele>267.8</ele>
        <time>2023-07-23T07:42:07Z</time>
      </trkpt>
      <trkpt lat="48.42888" lon="7.45277">
        <ele>268</ele>
        <time>2023-07-23T07:42:08Z</time>
      </trkpt>
      <trkpt lat="48.42886" lon="7.45275">
        <ele>268.3</ele>
        <time>2023-07-23T07:42:09Z</time>
      </trkpt>
      <trkpt lat="48.42884" lon="7.45274">
        <ele>268.5</ele>
        <time>2023-07-23T07:42:10Z</time>
      </trkpt>
      <trkpt lat="48.42881" lon="7.45272">
        <ele>268.7</ele>
        <time>2023-07-23T07:42:11Z</time>
      </trkpt>
      <trkpt lat="48.42878" lon="7.4527">
        <ele>269</ele>
        <time>2023-07-23T07:42:12Z</time>
      </trkpt>
      <trkpt lat="48.42877" lon="7.45269">
        <ele>269.1</ele>
        <time>2023-07-23T07:42:13Z</time>
      </trkpt>
      <trkpt lat="48.42873" lon="7.45267">
        <ele>269.5</ele>
        <time>2023-07-23T07:42:14Z</time>
      </trkpt>
      <trkpt lat="48.42872" lon="7.45266">
        <ele>269.6</ele>
        <time>2023-07-23T07:42:15Z</time>
      </trkpt>
      <trkpt lat="48.42868" lon="7.45263">
        <ele>270</ele>
        <time>2023-07-23T07:42:16Z</time>
      </trkpt>
      <trkpt lat="48.42867" lon="7.45262">
        <ele>270.1</ele>
        <time>2023-07-23T07:42:17Z</time>
      </trkpt>
      <trkpt lat="48.42865" lon="7.4526">
        <ele>270.4</ele>
        <time>2023-07-23T07:42:18Z</time>
      </trkpt>
      <trkpt lat="48.42862" lon="7.45258">
        <ele>270.6</ele>
        <time>2023-07-23T07:42:19Z</time>
      </trkpt>
      <trkpt lat="48.42859" lon="7.45256">
        <ele>271</ele>
        <time>2023-07-23T07:42:20Z</time>
      </trkpt>
      <trkpt lat="48.42858" lon="7.45255">
        <ele>271.1</ele>
        <time>2023-07-23T07:42:21Z</time>
      </trkpt>
      <trkpt lat="48.42854" lon="7.45252">
        <ele>271.5</ele>
        <time>2023-07-23T07:42:22Z</time>
      </trkpt>
      <trkpt lat="48.42853" lon="7.45251">
        <ele>271.6</ele>
        <time>2023-07-23T07:42:23Z</time>
      </trkpt>
      <trkpt lat="48.42851" lon="7.4525">
        <ele>271.8</ele>
        <time>2023-07-23T07:42:24Z</time>
      </trkpt>
      <trkpt lat="48.42848" lon="7.45248">
        <ele>272.1</ele>
        <time>2023-07-23T07:42:25Z</time>
      </trkpt>
      <trkpt lat="48.42845" lon="7.45246">
        <ele>272.3</ele>
        <time>2023-07-23T07:42:26Z</time>
      </trkpt>
      <trkpt lat="48.42843" lon="7.45244">
        <ele>272.6</ele>
        <time>2023-07-23T07:42:27Z</time>
      </trkpt>
      <trkpt lat="48.4284" lon="7.45241">
        <ele>272.8</ele>
        <time>2023-07-23T07:42:28Z</time>
      </trkpt>
      <trkpt lat="48.42838" lon="7.45239">
        <ele>273.1</ele>
        <time>2023-07-23T07:42:29Z</time>
      </trkpt>
      <trkpt lat="48.42835" lon="7.45237">
        <ele>273.4</ele>
        <time>2023-07-23T07:42:30Z</time>
      </trkpt>
      <trkpt lat="48.42833" lon="7.45235">
        <ele>273.7</ele>
        <time>2023-07-23T07:42:31Z</time>
      </trkpt>
      <trkpt lat="48.42831" lon="7.45233">
        <ele>273.9</ele>
        <time>2023-07-23T07:42:32Z</time>
      </trkpt>
      <trkpt lat="48.42828" lon="7.4523">
        <ele>274.2</ele>
        <time>2023-07-23T07:42:33Z</time>
      </trkpt>
      <trkpt lat="48.42826" lon="7.45228">
        <ele>274.5</ele>
        <time>2023-07-23T07:42:34Z</time>
      </trkpt>
      <trkpt lat="48.42823" lon="7.45226">
        <ele>274.7</ele>
        <time>2023-07-23T07:42:35Z</time>
      </trkpt>
      <trkpt lat="48.42821" lon="7.45224">
        <ele>275</ele>
        <time>2023-07-23T07:42:36Z</time>
      </trkpt>
      <trkpt lat="48.42818" lon="7.45221">
        <ele>275.3</ele>
        <time>2023-07-23T07:42:37Z</time>
      </trkpt>
      <trkpt lat="48.42816" lon="7.45219">
        <ele>275.5</ele>
        <time>2023-07-23T07:42:38Z</time>
      </trkpt>
      <trkpt lat="48.42814" lon="7.45217">
        <ele>275.8</ele>
        <time>2023-07-23T07:42:39Z</time>
      </trkpt>
      <trkpt lat="48.42811" lon="7.45214">
        <ele>276.1</ele>
        <time>2023-07-23T07:42:40Z</time>
      </trkpt>
      <trkpt lat="48.42809" lon="7.45212">
        <ele>276.3</ele>
        <time>2023-07-23T07:42:41Z</time>
      </trkpt>
      <trkpt lat="48.42807" lon="7.45209">
        <ele>276.6</ele>
        <time>2023-07-23T07:42:42Z</time>
      </trkpt>
      <trkpt lat="48.42804" lon="7.45206">
        <ele>277</ele>
        <time>2023-07-23T07:42:43Z</time>
      </trkpt>
      <trkpt lat="48.42802" lon="7.45205">
        <ele>277.1</ele>
        <time>2023-07-23T07:42:44Z</time>
      </trkpt>
      <trkpt lat="48.428" lon="7.45202">
        <ele>277.4</ele>
        <time>2023-07-23T07:42:45Z</time>
      </trkpt>
      <trkpt lat="48.42798" lon="7.452">
        <ele>277.7</ele>
        <time>2023-07-23T07:42:46Z</time>
      </trkpt>
      <trkpt lat="48.42796" lon="7.45198">
        <ele>277.9</ele>
        <time>2023-07-23T07:42:47Z</time>
      </trkpt>
      <trkpt lat="48.42792" lon="7.45195">
        <ele>278.3</ele>
        <time>2023-07-23T07:42:48Z</time>
      </trkpt>
      <trkpt lat="48.42791" lon="7.45194">
        <ele>278.5</ele>
        <time>2023-07-23T07:42:49Z</time>
      </trkpt>
      <trkpt lat="48.42789" lon="7.45191">
        <ele>278.7</ele>
        <time>2023-07-23T07:42:50Z</time>
      </trkpt>
      <trkpt lat="48.42786" lon="7.45189">
        <ele>279</ele>
        <time>2023-07-23T07:42:51Z</time>
      </trkpt>
      <trkpt lat="48.42783" lon="7.45185">
        <ele>279.4</ele>
        <time>2023-07-23T07:42:52Z</time>
      </trkpt>
      <trkpt lat="48.42782" lon="7.45184">
        <ele>279.5</ele>
        <time>2023-07-23T07:42:53Z</time>
      </trkpt>
      <trkpt lat="48.4278" lon="7.45181">
        <ele>279.7</ele>
        <time>2023-07-23T07:42:54Z</time>
      </trkpt>
      <trkpt lat="48.42777" lon="7.45179">
        <ele>280</ele>
        <time>2023-07-23T07:42:55Z</time>
      </trkpt>
      <trkpt lat="48.42774" lon="7.45176">
        <ele>280.3</ele>
        <time>2023-07-23T07:42:56Z</time>
      </trkpt>
      <trkpt lat="48.42773" lon="7.45175">
        <ele>280.4</ele>
        <time>2023-07-23T07:42:57Z</time>
      </trkpt>
      <trkpt lat="48.42771" lon="7.45173">
        <ele>280.7</ele>
        <time>2023-07-23T07:42:58Z</time>
      </trkpt>
      <trkpt lat="48.42769" lon="7.4517">
        <ele>280.9</ele>
        <time>2023-07-23T07:42:59Z</time>
      </trkpt>
      <trkpt lat="48.42767" lon="7.45167">
        <ele>281.1</ele>
        <time>2023-07-23T07:43:00Z</time>
      </trkpt>
      <trkpt lat="48.42764" lon="7.45165">
        <ele>281.4</ele>
        <time>2023-07-23T07:43:01Z</time>
      </trkpt>
      <trkpt lat="48.42762" lon="7.45162">
        <ele>281.6</ele>
        <time>2023-07-23T07:43:02Z</time>
      </trkpt>
      <trkpt lat="48.4276" lon="7.4516">
        <ele>281.8</ele>
        <time>2023-07-23T07:43:03Z</time>
      </trkpt>
      <trkpt lat="48.42756" lon="7.45156">
        <ele>282.1</ele>
        <time>2023-07-23T07:43:04Z</time>
      </trkpt>
      <trkpt lat="48.42755" lon="7.45155">
        <ele>282.2</ele>
        <time>2023-07-23T07:43:05Z</time>
      </trkpt>
      <trkpt lat="48.42752" lon="7.45151">
        <ele>282.5</ele>
        <time>2023-07-23T07:43:06Z</time>
      </trkpt>
      <trkpt lat="48.42751" lon="7.4515">
        <ele>282.7</ele>
        <time>2023-07-23T07:43:07Z</time>
      </trkpt>
      <trkpt lat="48.42748" lon="7.45147">
        <ele>283</ele>
        <time>2023-07-23T07:43:08Z</time>
      </trkpt>
      <trkpt lat="48.42747" lon="7.45146">
        <ele>283</ele>
        <time>2023-07-23T07:43:09Z</time>
      </trkpt>
      <trkpt lat="48.42745" lon="7.45144">
        <ele>283.1</ele>
        <time>2023-07-23T07:43:11Z</time>
      </trkpt>
      <trkpt lat="48.42742" lon="7.45141">
        <ele>283.2</ele>
        <time>2023-07-23T07:43:12Z</time>
      </trkpt>
      <trkpt lat="48.4274" lon="7.45139">
        <ele>283.3</ele>
        <time>2023-07-23T07:43:13Z</time>
      </trkpt>
      <trkpt lat="48.42737" lon="7.45136">
        <ele>283.4</ele>
        <time>2023-07-23T07:43:14Z</time>
      </trkpt>
      <trkpt lat="48.42735" lon="7.45134">
        <ele>283.5</ele>
        <time>2023-07-23T07:43:15Z</time>
      </trkpt>
      <trkpt lat="48.42732" lon="7.45131">
        <ele>283.6</ele>
        <time>2023-07-23T07:43:16Z</time>
      </trkpt>
      <trkpt lat="48.4273" lon="7.4513">
        <ele>283.8</ele>
        <time>2023-07-23T07:43:17Z</time>
      </trkpt>
      <trkpt lat="48.42726" lon="7.45127">
        <ele>283.9</ele>
        <time>2023-07-23T07:43:18Z</time>
      </trkpt>
      <trkpt lat="48.42725" lon="7.45126">
        <ele>284</ele>
        <time>2023-07-23T07:43:19Z</time>
      </trkpt>
      <trkpt lat="48.42722" lon="7.45123">
        <ele>284.1</ele>
        <time>2023-07-23T07:43:20Z</time>
      </trkpt>
      <trkpt lat="48.4272" lon="7.45122">
        <ele>284.2</ele>
        <time>2023-07-23T07:43:21Z</time>
      </trkpt>
      <trkpt lat="48.42717" lon="7.45119">
        <ele>284.3</ele>
        <time>2023-07-23T07:43:22Z</time>
      </trkpt>
      <trkpt lat="48.42715" lon="7.45117">
        <ele>284.4</ele>
        <time>2023-07-23T07:43:23Z</time>
      </trkpt>
      <trkpt lat="48.42712" lon="7.45115">
        <ele>284.4</ele>
        <time>2023-07-23T07:43:24Z</time>
      </trkpt>
      <trkpt lat="48.42709" lon="7.45113">
        <ele>284.5</ele>
        <time>2023-07-23T07:43:25Z</time>
      </trkpt>
      <trkpt lat="48.42706" lon="7.45111">
        <ele>284.6</ele>
        <time>2023-07-23T07:43:26Z</time>
      </trkpt>
      <trkpt lat="48.42703" lon="7.45108">
        <ele>284.6</ele>
        <time>2023-07-23T07:43:27Z</time>
      </trkpt>
      <trkpt lat="48.427" lon="7.45105">
        <ele>284.7</ele>
        <time>2023-07-23T07:43:28Z</time>
      </trkpt>
      <trkpt lat="48.42698" lon="7.45103">
        <ele>284.7</ele>
        <time>2023-07-23T07:43:29Z</time>
      </trkpt>
      <trkpt lat="48.42695" lon="7.451">
        <ele>284.7</ele>
        <time>2023-07-23T07:43:30Z</time>
      </trkpt>
      <trkpt lat="48.42692" lon="7.45098">
        <ele>284.7</ele>
        <time>2023-07-23T07:43:31Z</time>
      </trkpt>
      <trkpt lat="48.42689" lon="7.45096">
        <ele>284.7</ele>
        <time>2023-07-23T07:43:32Z</time>
      </trkpt>
      <trkpt lat="48.42683" lon="7.4509">
        <ele>284.6</ele>
        <time>2023-07-23T07:43:33Z</time>
      </trkpt>
      <trkpt lat="48.4268" lon="7.45087">
        <ele>284.5</ele>
        <time>2023-07-23T07:43:34Z</time>
      </trkpt>
      <trkpt lat="48.42676" lon="7.45084">
        <ele>284.5</ele>
        <time>2023-07-23T07:43:35Z</time>
      </trkpt>
      <trkpt lat="48.42673" lon="7.45081">
        <ele>284.4</ele>
        <time>2023-07-23T07:43:36Z</time>
      </trkpt>
      <trkpt lat="48.42669" lon="7.45078">
        <ele>284.3</ele>
        <time>2023-07-23T07:43:37Z</time>
      </trkpt>
      <trkpt lat="48.42665" lon="7.45074">
        <ele>284.2</ele>
        <time>2023-07-23T07:43:38Z</time>
      </trkpt>
      <trkpt lat="48.42661" lon="7.45071">
        <ele>284.1</ele>
        <time>2023-07-23T07:43:39Z</time>
      </trkpt>
      <trkpt lat="48.42657" lon="7.45067">
        <ele>283.9</ele>
        <time>2023-07-23T07:43:40Z</time>
      </trkpt>
      <trkpt lat="48.42652" lon="7.45063">
        <ele>283.6</ele>
        <time>2023-07-23T07:43:41Z</time>
      </trkpt>
      <trkpt lat="48.42647" lon="7.4506">
        <ele>283.2</ele>
        <time>2023-07-23T07:43:42Z</time>
      </trkpt>
      <trkpt lat="48.42641" lon="7.45056">
        <ele>282.7</ele>
        <time>2023-07-23T07:43:43Z</time>
      </trkpt>
      <trkpt lat="48.42635" lon="7.45052">
        <ele>282.3</ele>
        <time>2023-07-23T07:43:44Z</time>
      </trkpt>
      <trkpt lat="48.42628" lon="7.45049">
        <ele>281.8</ele>
        <time>2023-07-23T07:43:45Z</time>
      </trkpt>
      <trkpt lat="48.42621" lon="7.45045">
        <ele>281.4</ele>
        <time>2023-07-23T07:43:46Z</time>
      </trkpt>
      <trkpt lat="48.42614" lon="7.45043">
        <ele>280.9</ele>
        <time>2023-07-23T07:43:47Z</time>
      </trkpt>
      <trkpt lat="48.42606" lon="7.4504">
        <ele>280.5</ele>
        <time>2023-07-23T07:43:48Z</time>
      </trkpt>
      <trkpt lat="48.42599" lon="7.45037">
        <ele>280</ele>
        <time>2023-07-23T07:43:49Z</time>
      </trkpt>
      <trkpt lat="48.42591" lon="7.45035">
        <ele>279.5</ele>
        <time>2023-07-23T07:43:50Z</time>
      </trkpt>
      <trkpt lat="48.42583" lon="7.45033">
        <ele>278.9</ele>
        <time>2023-07-23T07:43:51Z</time>
      </trkpt>
      <trkpt lat="48.42575" lon="7.45032">
        <ele>278.5</ele>
        <time>2023-07-23T07:43:52Z</time>
      </trkpt>
      <trkpt lat="48.42566" lon="7.45031">
        <ele>278</ele>
        <time>2023-07-23T07:43:53Z</time>
      </trkpt>
      <trkpt lat="48.42557" lon="7.45031">
        <ele>277.4</ele>
        <time>2023-07-23T07:43:54Z</time>
      </trkpt>
      <trkpt lat="48.42548" lon="7.45031">
        <ele>276.9</ele>
        <time>2023-07-23T07:43:55Z</time>
      </trkpt>
      <trkpt lat="48.42539" lon="7.45032">
        <ele>276.7</ele>
        <time>2023-07-23T07:43:56Z</time>
      </trkpt>
      <trkpt lat="48.4253" lon="7.45033">
        <ele>276.4</ele>
        <time>2023-07-23T07:43:57Z</time>
      </trkpt>
      <trkpt lat="48.42521" lon="7.45034">
        <ele>275.9</ele>
        <time>2023-07-23T07:43:58Z</time>
      </trkpt>
      <trkpt lat="48.42511" lon="7.45038">
        <ele>275.4</ele>
        <time>2023-07-23T07:43:59Z</time>
      </trkpt>
      <trkpt lat="48.42502" lon="7.45041">
        <ele>275</ele>
        <time>2023-07-23T07:44:00Z</time>
      </trkpt>
      <trkpt lat="48.42492" lon="7.45045">
        <ele>274.5</ele>
        <time>2023-07-23T07:44:01Z</time>
      </trkpt>
      <trkpt lat="48.42483" lon="7.45048">
        <ele>274</ele>
        <time>2023-07-23T07:44:02Z</time>
      </trkpt>
      <trkpt lat="48.42473" lon="7.4505">
        <ele>273.5</ele>
        <time>2023-07-23T07:44:03Z</time>
      </trkpt>
      <trkpt lat="48.42464" lon="7.45051">
        <ele>273.1</ele>
        <time>2023-07-23T07:44:04Z</time>
      </trkpt>
      <trkpt lat="48.42455" lon="7.45051">
        <ele>272.7</ele>
        <time>2023-07-23T07:44:05Z</time>
      </trkpt>
      <trkpt lat="48.42446" lon="7.45051">
        <ele>272.5</ele>
        <time>2023-07-23T07:44:06Z</time>
      </trkpt>
      <trkpt lat="48.42436" lon="7.45051">
        <ele>272.2</ele>
        <time>2023-07-23T07:44:07Z</time>
      </trkpt>
      <trkpt lat="48.42428" lon="7.4505">
        <ele>271.9</ele>
        <time>2023-07-23T07:44:08Z</time>
      </trkpt>
      <trkpt lat="48.42419" lon="7.45049">
        <ele>271.6</ele>
        <time>2023-07-23T07:44:09Z</time>
      </trkpt>
      <trkpt lat="48.42411" lon="7.45048">
        <ele>271.4</ele>
        <time>2023-07-23T07:44:10Z</time>
      </trkpt>
      <trkpt lat="48.42402" lon="7.45048">
        <ele>271.2</ele>
        <time>2023-07-23T07:44:11Z</time>
      </trkpt>
      <trkpt lat="48.42394" lon="7.45048">
        <ele>271</ele>
        <time>2023-07-23T07:44:12Z</time>
      </trkpt>
      <trkpt lat="48.42387" lon="7.45048">
        <ele>270.8</ele>
        <time>2023-07-23T07:44:13Z</time>
      </trkpt>
      <trkpt lat="48.42379" lon="7.45049">
        <ele>270.6</ele>
        <time>2023-07-23T07:44:14Z</time>
      </trkpt>
      <trkpt lat="48.42371" lon="7.4505">
        <ele>270.4</ele>
        <time>2023-07-23T07:44:15Z</time>
      </trkpt>
      <trkpt lat="48.42364" lon="7.45053">
        <ele>270.2</ele>
        <time>2023-07-23T07:44:16Z</time>
      </trkpt>
      <trkpt lat="48.42356" lon="7.45056">
        <ele>270</ele>
        <time>2023-07-23T07:44:17Z</time>
      </trkpt>
      <trkpt lat="48.42349" lon="7.45058">
        <ele>269.8</ele>
        <time>2023-07-23T07:44:18Z</time>
      </trkpt>
      <trkpt lat="48.42342" lon="7.45062">
        <ele>269.6</ele>
        <time>2023-07-23T07:44:19Z</time>
      </trkpt>
      <trkpt lat="48.42334" lon="7.45068">
        <ele>269.4</ele>
        <time>2023-07-23T07:44:20Z</time>
      </trkpt>
      <trkpt lat="48.42326" lon="7.45071">
        <ele>269.2</ele>
        <time>2023-07-23T07:44:21Z</time>
      </trkpt>
      <trkpt lat="48.42318" lon="7.45071">
        <ele>269.1</ele>
        <time>2023-07-23T07:44:22Z</time>
      </trkpt>
      <trkpt lat="48.4231" lon="7.4507">
        <ele>269</ele>
        <time>2023-07-23T07:44:23Z</time>
      </trkpt>
      <trkpt lat="48.42303" lon="7.45066">
        <ele>269</ele>
        <time>2023-07-23T07:44:24Z</time>
      </trkpt>
      <trkpt lat="48.42296" lon="7.45062">
        <ele>268.9</ele>
        <time>2023-07-23T07:44:25Z</time>
      </trkpt>
      <trkpt lat="48.42289" lon="7.45058">
        <ele>268.8</ele>
        <time>2023-07-23T07:44:26Z</time>
      </trkpt>
      <trkpt lat="48.42283" lon="7.45055">
        <ele>268.6</ele>
        <time>2023-07-23T07:44:27Z</time>
      </trkpt>
      <trkpt lat="48.42276" lon="7.45053">
        <ele>268.2</ele>
        <time>2023-07-23T07:44:28Z</time>
      </trkpt>
      <trkpt lat="48.42268" lon="7.45052">
        <ele>267.6</ele>
        <time>2023-07-23T07:44:29Z</time>
      </trkpt>
      <trkpt lat="48.4226" lon="7.45052">
        <ele>266.9</ele>
        <time>2023-07-23T07:44:30Z</time>
      </trkpt>
      <trkpt lat="48.42252" lon="7.45054">
        <ele>266.1</ele>
        <time>2023-07-23T07:44:31Z</time>
      </trkpt>
      <trkpt lat="48.42243" lon="7.45055">
        <ele>265.4</ele>
        <time>2023-07-23T07:44:32Z</time>
      </trkpt>
      <trkpt lat="48.42234" lon="7.45058">
        <ele>264.7</ele>
        <time>2023-07-23T07:44:33Z</time>
      </trkpt>
      <trkpt lat="48.42225" lon="7.45062">
        <ele>264.1</ele>
        <time>2023-07-23T07:44:34Z</time>
      </trkpt>
      <trkpt lat="48.42215" lon="7.45067">
        <ele>263.7</ele>
        <time>2023-07-23T07:44:35Z</time>
      </trkpt>
      <trkpt lat="48.42211" lon="7.45065">
        <ele>263.3</ele>
        <time>2023-07-23T07:44:36Z</time>
      </trkpt>
      <trkpt lat="48.42205" lon="7.45071">
        <ele>262.6</ele>
        <time>2023-07-23T07:44:37Z</time>
      </trkpt>
      <trkpt lat="48.42197" lon="7.45078">
        <ele>261.7</ele>
        <time>2023-07-23T07:44:38Z</time>
      </trkpt>
      <trkpt lat="48.42187" lon="7.45084">
        <ele>260.7</ele>
        <time>2023-07-23T07:44:39Z</time>
      </trkpt>
      <trkpt lat="48.42177" lon="7.45086">
        <ele>259.8</ele>
        <time>2023-07-23T07:44:40Z</time>
      </trkpt>
      <trkpt lat="48.42166" lon="7.45085">
        <ele>259.2</ele>
        <time>2023-07-23T07:44:41Z</time>
      </trkpt>
      <trkpt lat="48.42156" lon="7.45085">
        <ele>258.5</ele>
        <time>2023-07-23T07:44:42Z</time>
      </trkpt>
      <trkpt lat="48.42146" lon="7.45084">
        <ele>257.8</ele>
        <time>2023-07-23T07:44:43Z</time>
      </trkpt>
      <trkpt lat="48.42136" lon="7.45083">
        <ele>257.2</ele>
        <time>2023-07-23T07:44:44Z</time>
      </trkpt>
      <trkpt lat="48.42126" lon="7.45082">
        <ele>256.6</ele>
        <time>2023-07-23T07:44:45Z</time>
      </trkpt>
      <trkpt lat="48.42116" lon="7.45083">
        <ele>256</ele>
        <time>2023-07-23T07:44:46Z</time>
      </trkpt>
      <trkpt lat="48.42107" lon="7.45085">
        <ele>255.4</ele>
        <time>2023-07-23T07:44:47Z</time>
      </trkpt>
      <trkpt lat="48.42098" lon="7.45087">
        <ele>254.8</ele>
        <time>2023-07-23T07:44:48Z</time>
      </trkpt>
      <trkpt lat="48.42089" lon="7.45088">
        <ele>254.1</ele>
        <time>2023-07-23T07:44:49Z</time>
      </trkpt>
      <trkpt lat="48.42079" lon="7.45089">
        <ele>253.4</ele>
        <time>2023-07-23T07:44:50Z</time>
      </trkpt>
      <trkpt lat="48.4207" lon="7.4509">
        <ele>252.7</ele>
        <time>2023-07-23T07:44:51Z</time>
      </trkpt>
      <trkpt lat="48.4206" lon="7.45091">
        <ele>251.8</ele>
        <time>2023-07-23T07:44:52Z</time>
      </trkpt>
      <trkpt lat="48.4205" lon="7.45092">
        <ele>251</ele>
        <time>2023-07-23T07:44:53Z</time>
      </trkpt>
      <trkpt lat="48.42039" lon="7.45096">
        <ele>250.1</ele>
        <time>2023-07-23T07:44:54Z</time>
      </trkpt>
      <trkpt lat="48.42029" lon="7.45099">
        <ele>249.2</ele>
        <time>2023-07-23T07:44:55Z</time>
      </trkpt>
      <trkpt lat="48.42017" lon="7.45101">
        <ele>248.2</ele>
        <time>2023-07-23T07:44:56Z</time>
      </trkpt>
      <trkpt lat="48.42005" lon="7.45102">
        <ele>247.2</ele>
        <time>2023-07-23T07:44:57Z</time>
      </trkpt>
      <trkpt lat="48.41994" lon="7.45103">
        <ele>246.1</ele>
        <time>2023-07-23T07:44:58Z</time>
      </trkpt>
      <trkpt lat="48.41982" lon="7.45105">
        <ele>245</ele>
        <time>2023-07-23T07:44:59Z</time>
      </trkpt>
      <trkpt lat="48.41971" lon="7.45108">
        <ele>244.1</ele>
        <time>2023-07-23T07:45:00Z</time>
      </trkpt>
      <trkpt lat="48.4196" lon="7.45112">
        <ele>243.2</ele>
        <time>2023-07-23T07:45:01Z</time>
      </trkpt>
      <trkpt lat="48.41948" lon="7.45115">
        <ele>242.4</ele>
        <time>2023-07-23T07:45:02Z</time>
      </trkpt>
      <trkpt lat="48.41937" lon="7.45118">
        <ele>242.1</ele>
        <time>2023-07-23T07:45:03Z</time>
      </trkpt>
      <trkpt lat="48.41925" lon="7.45122">
        <ele>240.9</ele>
        <time>2023-07-23T07:45:04Z</time>
      </trkpt>
      <trkpt lat="48.41913" lon="7.45127">
        <ele>239.6</ele>
        <time>2023-07-23T07:45:05Z</time>
      </trkpt>
      <trkpt lat="48.41901" lon="7.45131">
        <ele>238.3</ele>
        <time>2023-07-23T07:45:06Z</time>
      </trkpt>
      <trkpt lat="48.41889" lon="7.45135">
        <ele>236.9</ele>
        <time>2023-07-23T07:45:07Z</time>
      </trkpt>
      <trkpt lat="48.41876" lon="7.45139">
        <ele>235.5</ele>
        <time>2023-07-23T07:45:08Z</time>
      </trkpt>
      <trkpt lat="48.41864" lon="7.45143">
        <ele>234.1</ele>
        <time>2023-07-23T07:45:09Z</time>
      </trkpt>
      <trkpt lat="48.41852" lon="7.45147">
        <ele>233.2</ele>
        <time>2023-07-23T07:45:10Z</time>
      </trkpt>
      <trkpt lat="48.4184" lon="7.45152">
        <ele>232.5</ele>
        <time>2023-07-23T07:45:11Z</time>
      </trkpt>
      <trkpt lat="48.4183" lon="7.45156">
        <ele>232</ele>
        <time>2023-07-23T07:45:12Z</time>
      </trkpt>
      <trkpt lat="48.4182" lon="7.45161">
        <ele>231.7</ele>
        <time>2023-07-23T07:45:13Z</time>
      </trkpt>
      <trkpt lat="48.41812" lon="7.45165">
        <ele>231.7</ele>
        <time>2023-07-23T07:45:14Z</time>
      </trkpt>
      <trkpt lat="48.41803" lon="7.4517">
        <ele>231.8</ele>
        <time>2023-07-23T07:45:15Z</time>
      </trkpt>
      <trkpt lat="48.41794" lon="7.45174">
        <ele>231.9</ele>
        <time>2023-07-23T07:45:16Z</time>
      </trkpt>
      <trkpt lat="48.41778" lon="7.45183">
        <ele>230.5</ele>
        <time>2023-07-23T07:45:18Z</time>
      </trkpt>
      <trkpt lat="48.4177" lon="7.45189">
        <ele>230.3</ele>
        <time>2023-07-23T07:45:19Z</time>
      </trkpt>
      <trkpt lat="48.41762" lon="7.45194">
        <ele>230.1</ele>
        <time>2023-07-23T07:45:20Z</time>
      </trkpt>
      <trkpt lat="48.41755" lon="7.452">
        <ele>229.9</ele>
        <time>2023-07-23T07:45:21Z</time>
      </trkpt>
      <trkpt lat="48.41747" lon="7.45205">
        <ele>229.8</ele>
        <time>2023-07-23T07:45:22Z</time>
      </trkpt>
      <trkpt lat="48.41731" lon="7.45216">
        <ele>229.5</ele>
        <time>2023-07-23T07:45:24Z</time>
      </trkpt>
      <trkpt lat="48.41723" lon="7.45222">
        <ele>229.4</ele>
        <time>2023-07-23T07:45:25Z</time>
      </trkpt>
      <trkpt lat="48.41715" lon="7.45227">
        <ele>229.3</ele>
        <time>2023-07-23T07:45:26Z</time>
      </trkpt>
      <trkpt lat="48.41707" lon="7.45233">
        <ele>229.2</ele>
        <time>2023-07-23T07:45:27Z</time>
      </trkpt>
      <trkpt lat="48.41698" lon="7.45238">
        <ele>229.1</ele>
        <time>2023-07-23T07:45:28Z</time>
      </trkpt>
      <trkpt lat="48.4169" lon="7.45243">
        <ele>229.1</ele>
        <time>2023-07-23T07:45:29Z</time>
      </trkpt>
      <trkpt lat="48.41682" lon="7.45248">
        <ele>229.2</ele>
        <time>2023-07-23T07:45:30Z</time>
      </trkpt>
      <trkpt lat="48.41673" lon="7.45253">
        <ele>229.3</ele>
        <time>2023-07-23T07:45:31Z</time>
      </trkpt>
      <trkpt lat="48.41665" lon="7.45257">
        <ele>229.4</ele>
        <time>2023-07-23T07:45:32Z</time>
      </trkpt>
      <trkpt lat="48.41657" lon="7.45261">
        <ele>229.4</ele>
        <time>2023-07-23T07:45:33Z</time>
      </trkpt>
      <trkpt lat="48.41649" lon="7.45264">
        <ele>229.5</ele>
        <time>2023-07-23T07:45:34Z</time>
      </trkpt>
      <trkpt lat="48.4164" lon="7.45268">
        <ele>229.6</ele>
        <time>2023-07-23T07:45:35Z</time>
      </trkpt>
      <trkpt lat="48.41632" lon="7.4527">
        <ele>229.6</ele>
        <time>2023-07-23T07:45:36Z</time>
      </trkpt>
      <trkpt lat="48.41624" lon="7.45274">
        <ele>229.6</ele>
        <time>2023-07-23T07:45:37Z</time>
      </trkpt>
      <trkpt lat="48.41616" lon="7.45276">
        <ele>229.7</ele>
        <time>2023-07-23T07:45:38Z</time>
      </trkpt>
      <trkpt lat="48.41607" lon="7.45279">
        <ele>229.7</ele>
        <time>2023-07-23T07:45:39Z</time>
      </trkpt>
      <trkpt lat="48.41599" lon="7.45281">
        <ele>229.7</ele>
        <time>2023-07-23T07:45:40Z</time>
      </trkpt>
      <trkpt lat="48.41591" lon="7.45282">
        <ele>229.7</ele>
        <time>2023-07-23T07:45:41Z</time>
      </trkpt>
      <trkpt lat="48.41582" lon="7.45283">
        <ele>229.7</ele>
        <time>2023-07-23T07:45:42Z</time>
      </trkpt>
      <trkpt lat="48.41574" lon="7.45284">
        <ele>229.7</ele>
        <time>2023-07-23T07:45:43Z</time>
      </trkpt>
      <trkpt lat="48.41565" lon="7.45284">
        <ele>229.7</ele>
        <time>2023-07-23T07:45:44Z</time>
      </trkpt>
      <trkpt lat="48.41556" lon="7.45284">
        <ele>229.7</ele>
        <time>2023-07-23T07:45:45Z</time>
      </trkpt>
      <trkpt lat="48.41548" lon="7.45283">
        <ele>229.7</ele>
        <time>2023-07-23T07:45:46Z</time>
      </trkpt>
      <trkpt lat="48.4154" lon="7.45282">
        <ele>229.6</ele>
        <time>2023-07-23T07:45:47Z</time>
      </trkpt>
      <trkpt lat="48.41532" lon="7.45281">
        <ele>229.6</ele>
        <time>2023-07-23T07:45:48Z</time>
      </trkpt>
      <trkpt lat="48.41524" lon="7.45281">
        <ele>229.5</ele>
        <time>2023-07-23T07:45:49Z</time>
      </trkpt>
      <trkpt lat="48.41516" lon="7.4528">
        <ele>229.4</ele>
        <time>2023-07-23T07:45:50Z</time>
      </trkpt>
      <trkpt lat="48.41508" lon="7.45279">
        <ele>229.3</ele>
        <time>2023-07-23T07:45:51Z</time>
      </trkpt>
      <trkpt lat="48.41501" lon="7.45278">
        <ele>229.1</ele>
        <time>2023-07-23T07:45:52Z</time>
      </trkpt>
      <trkpt lat="48.41493" lon="7.45277">
        <ele>228.9</ele>
        <time>2023-07-23T07:45:53Z</time>
      </trkpt>
      <trkpt lat="48.41485" lon="7.45276">
        <ele>228.7</ele>
        <time>2023-07-23T07:45:54Z</time>
      </trkpt>
      <trkpt lat="48.41477" lon="7.45275">
        <ele>228.5</ele>
        <time>2023-07-23T07:45:55Z</time>
      </trkpt>
      <trkpt lat="48.41469" lon="7.45274">
        <ele>228.3</ele>
        <time>2023-07-23T07:45:56Z</time>
      </trkpt>
      <trkpt lat="48.41461" lon="7.45273">
        <ele>228</ele>
        <time>2023-07-23T07:45:57Z</time>
      </trkpt>
      <trkpt lat="48.41453" lon="7.45273">
        <ele>227.8</ele>
        <time>2023-07-23T07:45:58Z</time>
      </trkpt>
      <trkpt lat="48.41445" lon="7.45272">
        <ele>227.5</ele>
        <time>2023-07-23T07:45:59Z</time>
      </trkpt>
      <trkpt lat="48.41438" lon="7.45272">
        <ele>227.1</ele>
        <time>2023-07-23T07:46:00Z</time>
      </trkpt>
      <trkpt lat="48.4143" lon="7.45272">
        <ele>226.7</ele>
        <time>2023-07-23T07:46:01Z</time>
      </trkpt>
      <trkpt lat="48.41421" lon="7.45272">
        <ele>226.2</ele>
        <time>2023-07-23T07:46:02Z</time>
      </trkpt>
      <trkpt lat="48.41413" lon="7.4527">
        <ele>225.7</ele>
        <time>2023-07-23T07:46:03Z</time>
      </trkpt>
      <trkpt lat="48.41404" lon="7.45268">
        <ele>225.1</ele>
        <time>2023-07-23T07:46:04Z</time>
      </trkpt>
      <trkpt lat="48.41395" lon="7.45267">
        <ele>224.5</ele>
        <time>2023-07-23T07:46:05Z</time>
      </trkpt>
      <trkpt lat="48.41386" lon="7.45265">
        <ele>223.9</ele>
        <time>2023-07-23T07:46:06Z</time>
      </trkpt>
      <trkpt lat="48.41377" lon="7.45263">
        <ele>223.4</ele>
        <time>2023-07-23T07:46:07Z</time>
      </trkpt>
      <trkpt lat="48.41367" lon="7.45261">
        <ele>222.8</ele>
        <time>2023-07-23T07:46:08Z</time>
      </trkpt>
      <trkpt lat="48.41358" lon="7.4526">
        <ele>222.3</ele>
        <time>2023-07-23T07:46:09Z</time>
      </trkpt>
      <trkpt lat="48.41348" lon="7.45259">
        <ele>221.8</ele>
        <time>2023-07-23T07:46:10Z</time>
      </trkpt>
      <trkpt lat="48.41339" lon="7.45259">
        <ele>221.3</ele>
        <time>2023-07-23T07:46:11Z</time>
      </trkpt>
      <trkpt lat="48.4133" lon="7.4526">
        <ele>220.7</ele>
        <time>2023-07-23T07:46:12Z</time>
      </trkpt>
      <trkpt lat="48.4132" lon="7.45259">
        <ele>220.2</ele>
        <time>2023-07-23T07:46:13Z</time>
      </trkpt>
      <trkpt lat="48.41311" lon="7.45258">
        <ele>219.7</ele>
        <time>2023-07-23T07:46:14Z</time>
      </trkpt>
      <trkpt lat="48.41302" lon="7.45256">
        <ele>219.3</ele>
        <time>2023-07-23T07:46:15Z</time>
      </trkpt>
      <trkpt lat="48.41292" lon="7.45254">
        <ele>218.9</ele>
        <time>2023-07-23T07:46:16Z</time>
      </trkpt>
      <trkpt lat="48.41283" lon="7.45252">
        <ele>218.5</ele>
        <time>2023-07-23T07:46:17Z</time>
      </trkpt>
      <trkpt lat="48.41273" lon="7.45251">
        <ele>218.1</ele>
        <time>2023-07-23T07:46:18Z</time>
      </trkpt>
      <trkpt lat="48.41263" lon="7.4525">
        <ele>217.8</ele>
        <time>2023-07-23T07:46:19Z</time>
      </trkpt>
      <trkpt lat="48.41254" lon="7.4525">
        <ele>217.5</ele>
        <time>2023-07-23T07:46:20Z</time>
      </trkpt>
      <trkpt lat="48.41244" lon="7.45251">
        <ele>217.2</ele>
        <time>2023-07-23T07:46:21Z</time>
      </trkpt>
      <trkpt lat="48.41235" lon="7.45251">
        <ele>216.9</ele>
        <time>2023-07-23T07:46:22Z</time>
      </trkpt>
      <trkpt lat="48.41225" lon="7.4525">
        <ele>216.7</ele>
        <time>2023-07-23T07:46:23Z</time>
      </trkpt>
      <trkpt lat="48.41216" lon="7.45249">
        <ele>216.4</ele>
        <time>2023-07-23T07:46:24Z</time>
      </trkpt>
      <trkpt lat="48.41207" lon="7.45249">
        <ele>216.3</ele>
        <time>2023-07-23T07:46:25Z</time>
      </trkpt>
      <trkpt lat="48.41199" lon="7.45249">
        <ele>216.2</ele>
        <time>2023-07-23T07:46:26Z</time>
      </trkpt>
      <trkpt lat="48.41191" lon="7.45249">
        <ele>216.1</ele>
        <time>2023-07-23T07:46:27Z</time>
      </trkpt>
      <trkpt lat="48.41183" lon="7.45249">
        <ele>216</ele>
        <time>2023-07-23T07:46:28Z</time>
      </trkpt>
      <trkpt lat="48.41175" lon="7.45249">
        <ele>215.9</ele>
        <time>2023-07-23T07:46:29Z</time>
      </trkpt>
      <trkpt lat="48.41167" lon="7.45247">
        <ele>215.7</ele>
        <time>2023-07-23T07:46:30Z</time>
      </trkpt>
      <trkpt lat="48.4116" lon="7.45245">
        <ele>215.6</ele>
        <time>2023-07-23T07:46:31Z</time>
      </trkpt>
      <trkpt lat="48.41153" lon="7.45244">
        <ele>215.4</ele>
        <time>2023-07-23T07:46:32Z</time>
      </trkpt>
      <trkpt lat="48.41145" lon="7.45242">
        <ele>215.2</ele>
        <time>2023-07-23T07:46:33Z</time>
      </trkpt>
      <trkpt lat="48.41137" lon="7.45239">
        <ele>215</ele>
        <time>2023-07-23T07:46:34Z</time>
      </trkpt>
      <trkpt lat="48.4113" lon="7.45236">
        <ele>214.8</ele>
        <time>2023-07-23T07:46:35Z</time>
      </trkpt>
      <trkpt lat="48.41122" lon="7.45233">
        <ele>214.5</ele>
        <time>2023-07-23T07:46:36Z</time>
      </trkpt>
      <trkpt lat="48.41115" lon="7.45232">
        <ele>214.4</ele>
        <time>2023-07-23T07:46:37Z</time>
      </trkpt>
      <trkpt lat="48.41108" lon="7.45231">
        <ele>214.2</ele>
        <time>2023-07-23T07:46:38Z</time>
      </trkpt>
      <trkpt lat="48.41101" lon="7.45229">
        <ele>214</ele>
        <time>2023-07-23T07:46:39Z</time>
      </trkpt>
      <trkpt lat="48.41094" lon="7.45226">
        <ele>213.8</ele>
        <time>2023-07-23T07:46:40Z</time>
      </trkpt>
      <trkpt lat="48.41087" lon="7.45223">
        <ele>213.6</ele>
        <time>2023-07-23T07:46:41Z</time>
      </trkpt>
      <trkpt lat="48.41081" lon="7.45219">
        <ele>213.4</ele>
        <time>2023-07-23T07:46:42Z</time>
      </trkpt>
      <trkpt lat="48.41076" lon="7.45215">
        <ele>213.3</ele>
        <time>2023-07-23T07:46:43Z</time>
      </trkpt>
      <trkpt lat="48.41072" lon="7.45212">
        <ele>213.3</ele>
        <time>2023-07-23T07:46:44Z</time>
      </trkpt>
      <trkpt lat="48.4107" lon="7.4521">
        <ele>213.1</ele>
        <time>2023-07-23T07:46:45Z</time>
      </trkpt>
      <trkpt lat="48.41068" lon="7.45211">
        <ele>213</ele>
        <time>2023-07-23T07:46:46Z</time>
      </trkpt>
      <trkpt lat="48.41067" lon="7.45215">
        <ele>212.8</ele>
        <time>2023-07-23T07:46:47Z</time>
      </trkpt>
      <trkpt lat="48.41067" lon="7.45219">
        <ele>212.6</ele>
        <time>2023-07-23T07:46:48Z</time>
      </trkpt>
      <trkpt lat="48.41067" lon="7.45225">
        <ele>212.3</ele>
        <time>2023-07-23T07:46:49Z</time>
      </trkpt>
      <trkpt lat="48.41068" lon="7.45229">
        <ele>212</ele>
        <time>2023-07-23T07:46:50Z</time>
      </trkpt>
      <trkpt lat="48.41069" lon="7.45234">
        <ele>211.7</ele>
        <time>2023-07-23T07:46:51Z</time>
      </trkpt>
      <trkpt lat="48.4107" lon="7.45235">
        <ele>211.6</ele>
        <time>2023-07-23T07:46:52Z</time>
      </trkpt>
      <trkpt lat="48.41071" lon="7.45237">
        <ele>211.5</ele>
        <time>2023-07-23T07:46:53Z</time>
      </trkpt>
      <trkpt lat="48.41071" lon="7.45237">
        <ele>211.4</ele>
        <time>2023-07-23T07:46:54Z</time>
      </trkpt>
      <trkpt lat="48.41071" lon="7.45238">
        <ele>211.4</ele>
        <time>2023-07-23T07:46:55Z</time>
      </trkpt>
      <trkpt lat="48.41072" lon="7.45239">
        <ele>211.3</ele>
        <time>2023-07-23T07:46:56Z</time>
      </trkpt>
      <trkpt lat="48.41072" lon="7.4524">
        <ele>211.3</ele>
        <time>2023-07-23T07:46:57Z</time>
      </trkpt>
      <trkpt lat="48.41072" lon="7.4524">
        <ele>211.2</ele>
        <time>2023-07-23T07:46:58Z</time>
      </trkpt>
      <trkpt lat="48.41073" lon="7.45241">
        <ele>211.2</ele>
        <time>2023-07-23T07:46:59Z</time>
      </trkpt>
      <trkpt lat="48.41073" lon="7.45242">
        <ele>211.1</ele>
        <time>2023-07-23T07:47:00Z</time>
      </trkpt>
      <trkpt lat="48.41073" lon="7.45242">
        <ele>211.1</ele>
        <time>2023-07-23T07:47:01Z</time>
      </trkpt>
      <trkpt lat="48.41073" lon="7.45243">
        <ele>211</ele>
        <time>2023-07-23T07:47:02Z</time>
      </trkpt>
      <trkpt lat="48.41074" lon="7.45244">
        <ele>211</ele>
        <time>2023-07-23T07:47:03Z</time>
      </trkpt>
      <trkpt lat="48.41074" lon="7.45245">
        <ele>210.9</ele>
        <time>2023-07-23T07:47:18Z</time>
      </trkpt>
      <trkpt lat="48.41074" lon="7.45245">
        <ele>210.9</ele>
        <time>2023-07-23T07:47:19Z</time>
      </trkpt>
      <trkpt lat="48.41077" lon="7.4525">
        <ele>210.5</ele>
        <time>2023-07-23T07:47:20Z</time>
      </trkpt>
      <trkpt lat="48.41079" lon="7.45256">
        <ele>210.1</ele>
        <time>2023-07-23T07:47:21Z</time>
      </trkpt>
      <trkpt lat="48.41082" lon="7.45262">
        <ele>209.7</ele>
        <time>2023-07-23T07:47:22Z</time>
      </trkpt>
      <trkpt lat="48.41085" lon="7.45269">
        <ele>209.2</ele>
        <time>2023-07-23T07:47:23Z</time>
      </trkpt>
      <trkpt lat="48.41088" lon="7.45275">
        <ele>208.8</ele>
        <time>2023-07-23T07:47:24Z</time>
      </trkpt>
      <trkpt lat="48.4109" lon="7.45281">
        <ele>208.4</ele>
        <time>2023-07-23T07:47:25Z</time>
      </trkpt>
      <trkpt lat="48.41092" lon="7.45286">
        <ele>208.1</ele>
        <time>2023-07-23T07:47:26Z</time>
      </trkpt>
      <trkpt lat="48.41094" lon="7.45293">
        <ele>207.7</ele>
        <time>2023-07-23T07:47:27Z</time>
      </trkpt>
      <trkpt lat="48.41094" lon="7.453">
        <ele>207.3</ele>
        <time>2023-07-23T07:47:28Z</time>
      </trkpt>
      <trkpt lat="48.41092" lon="7.45308">
        <ele>207</ele>
        <time>2023-07-23T07:47:29Z</time>
      </trkpt>
      <trkpt lat="48.41088" lon="7.45315">
        <ele>206.6</ele>
        <time>2023-07-23T07:47:30Z</time>
      </trkpt>
      <trkpt lat="48.41084" lon="7.45324">
        <ele>206.2</ele>
        <time>2023-07-23T07:47:31Z</time>
      </trkpt>
      <trkpt lat="48.4108" lon="7.45333">
        <ele>205.7</ele>
        <time>2023-07-23T07:47:32Z</time>
      </trkpt>
      <trkpt lat="48.41077" lon="7.45343">
        <ele>205.1</ele>
        <time>2023-07-23T07:47:33Z</time>
      </trkpt>
      <trkpt lat="48.41074" lon="7.45354">
        <ele>204.4</ele>
        <time>2023-07-23T07:47:34Z</time>
      </trkpt>
      <trkpt lat="48.41072" lon="7.45366">
        <ele>203.7</ele>
        <time>2023-07-23T07:47:35Z</time>
      </trkpt>
      <trkpt lat="48.4107" lon="7.45379">
        <ele>203</ele>
        <time>2023-07-23T07:47:36Z</time>
      </trkpt>
      <trkpt lat="48.41069" lon="7.45393">
        <ele>202.2</ele>
        <time>2023-07-23T07:47:37Z</time>
      </trkpt>
      <trkpt lat="48.41068" lon="7.45407">
        <ele>201.5</ele>
        <time>2023-07-23T07:47:38Z</time>
      </trkpt>
      <trkpt lat="48.41067" lon="7.45421">
        <ele>200.7</ele>
        <time>2023-07-23T07:47:39Z</time>
      </trkpt>
      <trkpt lat="48.41066" lon="7.45437">
        <ele>200</ele>
        <time>2023-07-23T07:47:40Z</time>
      </trkpt>
      <trkpt lat="48.41064" lon="7.45452">
        <ele>199.3</ele>
        <time>2023-07-23T07:47:41Z</time>
      </trkpt>
      <trkpt lat="48.41062" lon="7.45467">
        <ele>198.7</ele>
        <time>2023-07-23T07:47:42Z</time>
      </trkpt>
      <trkpt lat="48.41061" lon="7.45482">
        <ele>198.3</ele>
        <time>2023-07-23T07:47:43Z</time>
      </trkpt>
      <trkpt lat="48.4106" lon="7.45494">
        <ele>198</ele>
        <time>2023-07-23T07:47:44Z</time>
      </trkpt>
      <trkpt lat="48.41059" lon="7.45505">
        <ele>197.8</ele>
        <time>2023-07-23T07:47:45Z</time>
      </trkpt>
      <trkpt lat="48.41059" lon="7.45515">
        <ele>197.6</ele>
        <time>2023-07-23T07:47:46Z</time>
      </trkpt>
      <trkpt lat="48.41058" lon="7.45523">
        <ele>197.4</ele>
        <time>2023-07-23T07:47:47Z</time>
      </trkpt>
      <trkpt lat="48.41058" lon="7.45532">
        <ele>197.3</ele>
        <time>2023-07-23T07:47:48Z</time>
      </trkpt>
      <trkpt lat="48.41056" lon="7.4554">
        <ele>197.1</ele>
        <time>2023-07-23T07:47:49Z</time>
      </trkpt>
      <trkpt lat="48.41053" lon="7.45547">
        <ele>197</ele>
        <time>2023-07-23T07:47:50Z</time>
      </trkpt>
      <trkpt lat="48.41047" lon="7.45551">
        <ele>196.9</ele>
        <time>2023-07-23T07:47:51Z</time>
      </trkpt>
      <trkpt lat="48.41041" lon="7.45551">
        <ele>196.8</ele>
        <time>2023-07-23T07:47:52Z</time>
      </trkpt>
      <trkpt lat="48.41035" lon="7.45547">
        <ele>196.8</ele>
        <time>2023-07-23T07:47:53Z</time>
      </trkpt>
      <trkpt lat="48.4103" lon="7.45542">
        <ele>196.8</ele>
        <time>2023-07-23T07:47:54Z</time>
      </trkpt>
      <trkpt lat="48.41024" lon="7.45537">
        <ele>196.9</ele>
        <time>2023-07-23T07:47:55Z</time>
      </trkpt>
      <trkpt lat="48.41019" lon="7.45531">
        <ele>197</ele>
        <time>2023-07-23T07:47:56Z</time>
      </trkpt>
      <trkpt lat="48.41013" lon="7.45525">
        <ele>197.1</ele>
        <time>2023-07-23T07:47:57Z</time>
      </trkpt>
      <trkpt lat="48.41008" lon="7.45519">
        <ele>197.2</ele>
        <time>2023-07-23T07:47:58Z</time>
      </trkpt>
      <trkpt lat="48.41002" lon="7.45514">
        <ele>197.4</ele>
        <time>2023-07-23T07:47:59Z</time>
      </trkpt>
      <trkpt lat="48.40996" lon="7.45509">
        <ele>197.5</ele>
        <time>2023-07-23T07:48:00Z</time>
      </trkpt>
      <trkpt lat="48.40991" lon="7.45504">
        <ele>197.6</ele>
        <time>2023-07-23T07:48:01Z</time>
      </trkpt>
      <trkpt lat="48.40985" lon="7.45498">
        <ele>197.6</ele>
        <time>2023-07-23T07:48:02Z</time>
      </trkpt>
      <trkpt lat="48.4098" lon="7.45493">
        <ele>197.7</ele>
        <time>2023-07-23T07:48:03Z</time>
      </trkpt>
      <trkpt lat="48.40975" lon="7.45488">
        <ele>197.7</ele>
        <time>2023-07-23T07:48:04Z</time>
      </trkpt>
      <trkpt lat="48.4097" lon="7.45483">
        <ele>197.8</ele>
        <time>2023-07-23T07:48:05Z</time>
      </trkpt>
      <trkpt lat="48.40964" lon="7.45478">
        <ele>197.8</ele>
        <time>2023-07-23T07:48:06Z</time>
      </trkpt>
      <trkpt lat="48.40959" lon="7.45474">
        <ele>197.8</ele>
        <time>2023-07-23T07:48:07Z</time>
      </trkpt>
      <trkpt lat="48.40954" lon="7.45469">
        <ele>197.9</ele>
        <time>2023-07-23T07:48:08Z</time>
      </trkpt>
      <trkpt lat="48.40949" lon="7.45464">
        <ele>197.9</ele>
        <time>2023-07-23T07:48:09Z</time>
      </trkpt>
      <trkpt lat="48.40944" lon="7.4546">
        <ele>198</ele>
        <time>2023-07-23T07:48:10Z</time>
      </trkpt>
      <trkpt lat="48.40939" lon="7.45456">
        <ele>198</ele>
        <time>2023-07-23T07:48:11Z</time>
      </trkpt>
      <trkpt lat="48.40935" lon="7.45452">
        <ele>198</ele>
        <time>2023-07-23T07:48:12Z</time>
      </trkpt>
      <trkpt lat="48.4093" lon="7.45447">
        <ele>198.1</ele>
        <time>2023-07-23T07:48:13Z</time>
      </trkpt>
      <trkpt lat="48.40926" lon="7.45443">
        <ele>198.1</ele>
        <time>2023-07-23T07:48:14Z</time>
      </trkpt>
      <trkpt lat="48.40921" lon="7.45439">
        <ele>198.1</ele>
        <time>2023-07-23T07:48:15Z</time>
      </trkpt>
      <trkpt lat="48.40916" lon="7.45434">
        <ele>198.2</ele>
        <time>2023-07-23T07:48:16Z</time>
      </trkpt>
      <trkpt lat="48.40911" lon="7.4543">
        <ele>198.2</ele>
        <time>2023-07-23T07:48:17Z</time>
      </trkpt>
      <trkpt lat="48.40906" lon="7.45425">
        <ele>198.3</ele>
        <time>2023-07-23T07:48:18Z</time>
      </trkpt>
      <trkpt lat="48.40901" lon="7.45421">
        <ele>198.3</ele>
        <time>2023-07-23T07:48:19Z</time>
      </trkpt>
      <trkpt lat="48.40896" lon="7.45415">
        <ele>198.3</ele>
        <time>2023-07-23T07:48:20Z</time>
      </trkpt>
      <trkpt lat="48.40892" lon="7.4541">
        <ele>198.4</ele>
        <time>2023-07-23T07:48:21Z</time>
      </trkpt>
      <trkpt lat="48.40888" lon="7.45405">
        <ele>198.4</ele>
        <time>2023-07-23T07:48:22Z</time>
      </trkpt>
      <trkpt lat="48.40883" lon="7.454">
        <ele>198.4</ele>
        <time>2023-07-23T07:48:23Z</time>
      </trkpt>
      <trkpt lat="48.40879" lon="7.45395">
        <ele>198.5</ele>
        <time>2023-07-23T07:48:24Z</time>
      </trkpt>
      <trkpt lat="48.40875" lon="7.45389">
        <ele>198.5</ele>
        <time>2023-07-23T07:48:25Z</time>
      </trkpt>
      <trkpt lat="48.40871" lon="7.45384">
        <ele>198.5</ele>
        <time>2023-07-23T07:48:26Z</time>
      </trkpt>
      <trkpt lat="48.40867" lon="7.45379">
        <ele>198.6</ele>
        <time>2023-07-23T07:48:27Z</time>
      </trkpt>
      <trkpt lat="48.40862" lon="7.45374">
        <ele>198.6</ele>
        <time>2023-07-23T07:48:28Z</time>
      </trkpt>
      <trkpt lat="48.40858" lon="7.45369">
        <ele>198.7</ele>
        <time>2023-07-23T07:48:29Z</time>
      </trkpt>
      <trkpt lat="48.40854" lon="7.45364">
        <ele>198.8</ele>
        <time>2023-07-23T07:48:30Z</time>
      </trkpt>
      <trkpt lat="48.4085" lon="7.45358">
        <ele>198.8</ele>
        <time>2023-07-23T07:48:31Z</time>
      </trkpt>
      <trkpt lat="48.40846" lon="7.45353">
        <ele>198.9</ele>
        <time>2023-07-23T07:48:32Z</time>
      </trkpt>
      <trkpt lat="48.40842" lon="7.45351">
        <ele>199</ele>
        <time>2023-07-23T07:48:33Z</time>
      </trkpt>
      <trkpt lat="48.40836" lon="7.45353">
        <ele>199</ele>
        <time>2023-07-23T07:48:34Z</time>
      </trkpt>
      <trkpt lat="48.40831" lon="7.45358">
        <ele>199</ele>
        <time>2023-07-23T07:48:35Z</time>
      </trkpt>
      <trkpt lat="48.40827" lon="7.45365">
        <ele>199</ele>
        <time>2023-07-23T07:48:36Z</time>
      </trkpt>
      <trkpt lat="48.40822" lon="7.45371">
        <ele>199.1</ele>
        <time>2023-07-23T07:48:37Z</time>
      </trkpt>
      <trkpt lat="48.40818" lon="7.45376">
        <ele>199.1</ele>
        <time>2023-07-23T07:48:38Z</time>
      </trkpt>
      <trkpt lat="48.40813" lon="7.45382">
        <ele>199.2</ele>
        <time>2023-07-23T07:48:39Z</time>
      </trkpt>
      <trkpt lat="48.40808" lon="7.45387">
        <ele>199.3</ele>
        <time>2023-07-23T07:48:40Z</time>
      </trkpt>
      <trkpt lat="48.40803" lon="7.45392">
        <ele>199.3</ele>
        <time>2023-07-23T07:48:41Z</time>
      </trkpt>
      <trkpt lat="48.40798" lon="7.45397">
        <ele>199.4</ele>
        <time>2023-07-23T07:48:42Z</time>
      </trkpt>
      <trkpt lat="48.40794" lon="7.45401">
        <ele>199.5</ele>
        <time>2023-07-23T07:48:43Z</time>
      </trkpt>
      <trkpt lat="48.4079" lon="7.45404">
        <ele>199.6</ele>
        <time>2023-07-23T07:48:44Z</time>
      </trkpt>
      <trkpt lat="48.40786" lon="7.45408">
        <ele>199.7</ele>
        <time>2023-07-23T07:48:45Z</time>
      </trkpt>
      <trkpt lat="48.40781" lon="7.45411">
        <ele>199.8</ele>
        <time>2023-07-23T07:48:46Z</time>
      </trkpt>
      <trkpt lat="48.40777" lon="7.45413">
        <ele>199.9</ele>
        <time>2023-07-23T07:48:47Z</time>
      </trkpt>
      <trkpt lat="48.40773" lon="7.45417">
        <ele>200</ele>
        <time>2023-07-23T07:48:48Z</time>
      </trkpt>
      <trkpt lat="48.40769" lon="7.4542">
        <ele>200.1</ele>
        <time>2023-07-23T07:48:49Z</time>
      </trkpt>
      <trkpt lat="48.40765" lon="7.45422">
        <ele>200.1</ele>
        <time>2023-07-23T07:48:50Z</time>
      </trkpt>
      <trkpt lat="48.40762" lon="7.45424">
        <ele>200.2</ele>
        <time>2023-07-23T07:48:51Z</time>
      </trkpt>
      <trkpt lat="48.4076" lon="7.45428">
        <ele>200.2</ele>
        <time>2023-07-23T07:48:52Z</time>
      </trkpt>
      <trkpt lat="48.40759" lon="7.45432">
        <ele>200.1</ele>
        <time>2023-07-23T07:48:53Z</time>
      </trkpt>
      <trkpt lat="48.4076" lon="7.45437">
        <ele>200</ele>
        <time>2023-07-23T07:48:54Z</time>
      </trkpt>
      <trkpt lat="48.40762" lon="7.45441">
        <ele>199.9</ele>
        <time>2023-07-23T07:48:55Z</time>
      </trkpt>
      <trkpt lat="48.40763" lon="7.45445">
        <ele>199.8</ele>
        <time>2023-07-23T07:48:56Z</time>
      </trkpt>
      <trkpt lat="48.40765" lon="7.45451">
        <ele>199.7</ele>
        <time>2023-07-23T07:48:57Z</time>
      </trkpt>
      <trkpt lat="48.40766" lon="7.45457">
        <ele>199.5</ele>
        <time>2023-07-23T07:48:58Z</time>
      </trkpt>
      <trkpt lat="48.40767" lon="7.45464">
        <ele>199.4</ele>
        <time>2023-07-23T07:48:59Z</time>
      </trkpt>
      <trkpt lat="48.40768" lon="7.45471">
        <ele>199.2</ele>
        <time>2023-07-23T07:49:00Z</time>
      </trkpt>
      <trkpt lat="48.4077" lon="7.45477">
        <ele>199.1</ele>
        <time>2023-07-23T07:49:01Z</time>
      </trkpt>
      <trkpt lat="48.40773" lon="7.45484">
        <ele>198.9</ele>
        <time>2023-07-23T07:49:02Z</time>
      </trkpt>
      <trkpt lat="48.40774" lon="7.45492">
        <ele>198.8</ele>
        <time>2023-07-23T07:49:03Z</time>
      </trkpt>
      <trkpt lat="48.40777" lon="7.45499">
        <ele>198.7</ele>
        <time>2023-07-23T07:49:04Z</time>
      </trkpt>
      <trkpt lat="48.40778" lon="7.45507">
        <ele>198.5</ele>
        <time>2023-07-23T07:49:05Z</time>
      </trkpt>
      <trkpt lat="48.40779" lon="7.45515">
        <ele>198.4</ele>
        <time>2023-07-23T07:49:06Z</time>
      </trkpt>
      <trkpt lat="48.4078" lon="7.45523">
        <ele>198.3</ele>
        <time>2023-07-23T07:49:07Z</time>
      </trkpt>
      <trkpt lat="48.40781" lon="7.45531">
        <ele>198.1</ele>
        <time>2023-07-23T07:49:08Z</time>
      </trkpt>
      <trkpt lat="48.40783" lon="7.45539">
        <ele>198</ele>
        <time>2023-07-23T07:49:09Z</time>
      </trkpt>
      <trkpt lat="48.40784" lon="7.45548">
        <ele>197.8</ele>
        <time>2023-07-23T07:49:10Z</time>
      </trkpt>
      <trkpt lat="48.40785" lon="7.45556">
        <ele>197.7</ele>
        <time>2023-07-23T07:49:11Z</time>
      </trkpt>
      <trkpt lat="48.40786" lon="7.45565">
        <ele>197.5</ele>
        <time>2023-07-23T07:49:12Z</time>
      </trkpt>
      <trkpt lat="48.40788" lon="7.45574">
        <ele>197.4</ele>
        <time>2023-07-23T07:49:13Z</time>
      </trkpt>
      <trkpt lat="48.40789" lon="7.45583">
        <ele>197.3</ele>
        <time>2023-07-23T07:49:14Z</time>
      </trkpt>
      <trkpt lat="48.40791" lon="7.45592">
        <ele>197.1</ele>
        <time>2023-07-23T07:49:15Z</time>
      </trkpt>
      <trkpt lat="48.40793" lon="7.45601">
        <ele>197</ele>
        <time>2023-07-23T07:49:16Z</time>
      </trkpt>
      <trkpt lat="48.40794" lon="7.45609">
        <ele>196.9</ele>
        <time>2023-07-23T07:49:17Z</time>
      </trkpt>
      <trkpt lat="48.40795" lon="7.45617">
        <ele>196.8</ele>
        <time>2023-07-23T07:49:18Z</time>
      </trkpt>
      <trkpt lat="48.40796" lon="7.45624">
        <ele>196.7</ele>
        <time>2023-07-23T07:49:19Z</time>
      </trkpt>
      <trkpt lat="48.40796" lon="7.45632">
        <ele>196.6</ele>
        <time>2023-07-23T07:49:20Z</time>
      </trkpt>
      <trkpt lat="48.40795" lon="7.45639">
        <ele>196.5</ele>
        <time>2023-07-23T07:49:21Z</time>
      </trkpt>
      <trkpt lat="48.40793" lon="7.45644">
        <ele>196.5</ele>
        <time>2023-07-23T07:49:22Z</time>
      </trkpt>
      <trkpt lat="48.4079" lon="7.45648">
        <ele>196.5</ele>
        <time>2023-07-23T07:49:23Z</time>
      </trkpt>
      <trkpt lat="48.40786" lon="7.45651">
        <ele>196.5</ele>
        <time>2023-07-23T07:49:24Z</time>
      </trkpt>
      <trkpt lat="48.40782" lon="7.45653">
        <ele>196.5</ele>
        <time>2023-07-23T07:49:25Z</time>
      </trkpt>
      <trkpt lat="48.40778" lon="7.45655">
        <ele>196.5</ele>
        <time>2023-07-23T07:49:26Z</time>
      </trkpt>
      <trkpt lat="48.40774" lon="7.45658">
        <ele>196.5</ele>
        <time>2023-07-23T07:49:27Z</time>
      </trkpt>
      <trkpt lat="48.40771" lon="7.45661">
        <ele>196.5</ele>
        <time>2023-07-23T07:49:28Z</time>
      </trkpt>
      <trkpt lat="48.40766" lon="7.45663">
        <ele>196.6</ele>
        <time>2023-07-23T07:49:29Z</time>
      </trkpt>
      <trkpt lat="48.40761" lon="7.45665">
        <ele>196.6</ele>
        <time>2023-07-23T07:49:30Z</time>
      </trkpt>
      <trkpt lat="48.40757" lon="7.45668">
        <ele>196.7</ele>
        <time>2023-07-23T07:49:31Z</time>
      </trkpt>
      <trkpt lat="48.40753" lon="7.45671">
        <ele>196.7</ele>
        <time>2023-07-23T07:49:32Z</time>
      </trkpt>
      <trkpt lat="48.40749" lon="7.45675">
        <ele>196.7</ele>
        <time>2023-07-23T07:49:33Z</time>
      </trkpt>
      <trkpt lat="48.40745" lon="7.45677">
        <ele>196.8</ele>
        <time>2023-07-23T07:49:34Z</time>
      </trkpt>
      <trkpt lat="48.4074" lon="7.45678">
        <ele>196.8</ele>
        <time>2023-07-23T07:49:35Z</time>
      </trkpt>
      <trkpt lat="48.40736" lon="7.4568">
        <ele>196.9</ele>
        <time>2023-07-23T07:49:36Z</time>
      </trkpt>
      <trkpt lat="48.40731" lon="7.45683">
        <ele>196.9</ele>
        <time>2023-07-23T07:49:37Z</time>
      </trkpt>
      <trkpt lat="48.40727" lon="7.45685">
        <ele>197</ele>
        <time>2023-07-23T07:49:38Z</time>
      </trkpt>
      <trkpt lat="48.40723" lon="7.45688">
        <ele>197</ele>
        <time>2023-07-23T07:49:39Z</time>
      </trkpt>
      <trkpt lat="48.40719" lon="7.4569">
        <ele>197</ele>
        <time>2023-07-23T07:49:40Z</time>
      </trkpt>
      <trkpt lat="48.40714" lon="7.45693">
        <ele>197.1</ele>
        <time>2023-07-23T07:49:41Z</time>
      </trkpt>
      <trkpt lat="48.4071" lon="7.45697">
        <ele>197.1</ele>
        <time>2023-07-23T07:49:42Z</time>
      </trkpt>
      <trkpt lat="48.40705" lon="7.457">
        <ele>197.1</ele>
        <time>2023-07-23T07:49:43Z</time>
      </trkpt>
      <trkpt lat="48.407" lon="7.45703">
        <ele>197.2</ele>
        <time>2023-07-23T07:49:44Z</time>
      </trkpt>
      <trkpt lat="48.40696" lon="7.45706">
        <ele>197.2</ele>
        <time>2023-07-23T07:49:45Z</time>
      </trkpt>
      <trkpt lat="48.40691" lon="7.45709">
        <ele>197.2</ele>
        <time>2023-07-23T07:49:46Z</time>
      </trkpt>
      <trkpt lat="48.40687" lon="7.45712">
        <ele>197.2</ele>
        <time>2023-07-23T07:49:47Z</time>
      </trkpt>
      <trkpt lat="48.40683" lon="7.45715">
        <ele>197.3</ele>
        <time>2023-07-23T07:49:48Z</time>
      </trkpt>
      <trkpt lat="48.40679" lon="7.45717">
        <ele>197.3</ele>
        <time>2023-07-23T07:49:49Z</time>
      </trkpt>
      <trkpt lat="48.40674" lon="7.45719">
        <ele>197.3</ele>
        <time>2023-07-23T07:49:50Z</time>
      </trkpt>
      <trkpt lat="48.4067" lon="7.45721">
        <ele>197.3</ele>
        <time>2023-07-23T07:49:51Z</time>
      </trkpt>
      <trkpt lat="48.40665" lon="7.45723">
        <ele>197.3</ele>
        <time>2023-07-23T07:49:52Z</time>
      </trkpt>
      <trkpt lat="48.40661" lon="7.45726">
        <ele>197.3</ele>
        <time>2023-07-23T07:49:53Z</time>
      </trkpt>
      <trkpt lat="48.40656" lon="7.45728">
        <ele>197.3</ele>
        <time>2023-07-23T07:49:54Z</time>
      </trkpt>
      <trkpt lat="48.40651" lon="7.45731">
        <ele>197.3</ele>
        <time>2023-07-23T07:49:55Z</time>
      </trkpt>
      <trkpt lat="48.40647" lon="7.45733">
        <ele>197.3</ele>
        <time>2023-07-23T07:49:56Z</time>
      </trkpt>
      <trkpt lat="48.40642" lon="7.45736">
        <ele>197.4</ele>
        <time>2023-07-23T07:49:57Z</time>
      </trkpt>
      <trkpt lat="48.40638" lon="7.45738">
        <ele>197.4</ele>
        <time>2023-07-23T07:49:58Z</time>
      </trkpt>
      <trkpt lat="48.40633" lon="7.45741">
        <ele>197.4</ele>
        <time>2023-07-23T07:49:59Z</time>
      </trkpt>
      <trkpt lat="48.40629" lon="7.45744">
        <ele>197.5</ele>
        <time>2023-07-23T07:50:00Z</time>
      </trkpt>
      <trkpt lat="48.40624" lon="7.45747">
        <ele>197.5</ele>
        <time>2023-07-23T07:50:01Z</time>
      </trkpt>
      <trkpt lat="48.4062" lon="7.4575">
        <ele>197.6</ele>
        <time>2023-07-23T07:50:02Z</time>
      </trkpt>
      <trkpt lat="48.40615" lon="7.45752">
        <ele>197.6</ele>
        <time>2023-07-23T07:50:03Z</time>
      </trkpt>
      <trkpt lat="48.4061" lon="7.45753">
        <ele>197.7</ele>
        <time>2023-07-23T07:50:04Z</time>
      </trkpt>
      <trkpt lat="48.40606" lon="7.45752">
        <ele>197.8</ele>
        <time>2023-07-23T07:50:05Z</time>
      </trkpt>
      <trkpt lat="48.40602" lon="7.45752">
        <ele>197.8</ele>
        <time>2023-07-23T07:50:06Z</time>
      </trkpt>
      <trkpt lat="48.40598" lon="7.45751">
        <ele>197.9</ele>
        <time>2023-07-23T07:50:07Z</time>
      </trkpt>
      <trkpt lat="48.40594" lon="7.4575">
        <ele>198</ele>
        <time>2023-07-23T07:50:08Z</time>
      </trkpt>
      <trkpt lat="48.4059" lon="7.45748">
        <ele>198.1</ele>
        <time>2023-07-23T07:50:09Z</time>
      </trkpt>
      <trkpt lat="48.40586" lon="7.45748">
        <ele>198.2</ele>
        <time>2023-07-23T07:50:10Z</time>
      </trkpt>
      <trkpt lat="48.40582" lon="7.45747">
        <ele>198.3</ele>
        <time>2023-07-23T07:50:11Z</time>
      </trkpt>
      <trkpt lat="48.40577" lon="7.45747">
        <ele>198.5</ele>
        <time>2023-07-23T07:50:12Z</time>
      </trkpt>
      <trkpt lat="48.40573" lon="7.45746">
        <ele>198.7</ele>
        <time>2023-07-23T07:50:13Z</time>
      </trkpt>
      <trkpt lat="48.40569" lon="7.45745">
        <ele>198.8</ele>
        <time>2023-07-23T07:50:14Z</time>
      </trkpt>
      <trkpt lat="48.40565" lon="7.45744">
        <ele>199</ele>
        <time>2023-07-23T07:50:15Z</time>
      </trkpt>
      <trkpt lat="48.40561" lon="7.45743">
        <ele>199.1</ele>
        <time>2023-07-23T07:50:16Z</time>
      </trkpt>
      <trkpt lat="48.40557" lon="7.45743">
        <ele>199.3</ele>
        <time>2023-07-23T07:50:17Z</time>
      </trkpt>
      <trkpt lat="48.40553" lon="7.45742">
        <ele>199.5</ele>
        <time>2023-07-23T07:50:18Z</time>
      </trkpt>
      <trkpt lat="48.40549" lon="7.45741">
        <ele>199.7</ele>
        <time>2023-07-23T07:50:19Z</time>
      </trkpt>
      <trkpt lat="48.40546" lon="7.4574">
        <ele>199.9</ele>
        <time>2023-07-23T07:50:20Z</time>
      </trkpt>
      <trkpt lat="48.40542" lon="7.45738">
        <ele>200.1</ele>
        <time>2023-07-23T07:50:21Z</time>
      </trkpt>
      <trkpt lat="48.40539" lon="7.45737">
        <ele>200.3</ele>
        <time>2023-07-23T07:50:22Z</time>
      </trkpt>
      <trkpt lat="48.40536" lon="7.45737">
        <ele>200.4</ele>
        <time>2023-07-23T07:50:23Z</time>
      </trkpt>
      <trkpt lat="48.40532" lon="7.45735">
        <ele>200.6</ele>
        <time>2023-07-23T07:50:24Z</time>
      </trkpt>
      <trkpt lat="48.40531" lon="7.45734">
        <ele>200.7</ele>
        <time>2023-07-23T07:50:25Z</time>
      </trkpt>
      <trkpt lat="48.40527" lon="7.45732">
        <ele>201.3</ele>
        <time>2023-07-23T07:50:26Z</time>
      </trkpt>
      <trkpt lat="48.40524" lon="7.45729">
        <ele>201.3</ele>
        <time>2023-07-23T07:50:27Z</time>
      </trkpt>
      <trkpt lat="48.40522" lon="7.45725">
        <ele>201.3</ele>
        <time>2023-07-23T07:50:28Z</time>
      </trkpt>
      <trkpt lat="48.4052" lon="7.4572">
        <ele>201.6</ele>
        <time>2023-07-23T07:50:29Z</time>
      </trkpt>
      <trkpt lat="48.40519" lon="7.45714">
        <ele>201.6</ele>
        <time>2023-07-23T07:50:30Z</time>
      </trkpt>
      <trkpt lat="48.4052" lon="7.45706">
        <ele>201.7</ele>
        <time>2023-07-23T07:50:31Z</time>
      </trkpt>
      <trkpt lat="48.40521" lon="7.45699">
        <ele>201.8</ele>
        <time>2023-07-23T07:50:32Z</time>
      </trkpt>
      <trkpt lat="48.40522" lon="7.45691">
        <ele>201.9</ele>
        <time>2023-07-23T07:50:33Z</time>
      </trkpt>
      <trkpt lat="48.40523" lon="7.45684">
        <ele>201.9</ele>
        <time>2023-07-23T07:50:34Z</time>
      </trkpt>
      <trkpt lat="48.40524" lon="7.45676">
        <ele>202</ele>
        <time>2023-07-23T07:50:35Z</time>
      </trkpt>
      <trkpt lat="48.40525" lon="7.45668">
        <ele>202</ele>
        <time>2023-07-23T07:50:36Z</time>
      </trkpt>
      <trkpt lat="48.40526" lon="7.4566">
        <ele>202.1</ele>
        <time>2023-07-23T07:50:37Z</time>
      </trkpt>
      <trkpt lat="48.40527" lon="7.45653">
        <ele>202.1</ele>
        <time>2023-07-23T07:50:38Z</time>
      </trkpt>
      <trkpt lat="48.40527" lon="7.45644">
        <ele>202.2</ele>
        <time>2023-07-23T07:50:39Z</time>
      </trkpt>
      <trkpt lat="48.40528" lon="7.45635">
        <ele>202.2</ele>
        <time>2023-07-23T07:50:40Z</time>
      </trkpt>
      <trkpt lat="48.40529" lon="7.45627">
        <ele>202.3</ele>
        <time>2023-07-23T07:50:41Z</time>
      </trkpt>
      <trkpt lat="48.4053" lon="7.45619">
        <ele>202.3</ele>
        <time>2023-07-23T07:50:42Z</time>
      </trkpt>
      <trkpt lat="48.40531" lon="7.45612">
        <ele>202.4</ele>
        <time>2023-07-23T07:50:43Z</time>
      </trkpt>
      <trkpt lat="48.40532" lon="7.45604">
        <ele>202.5</ele>
        <time>2023-07-23T07:50:44Z</time>
      </trkpt>
      <trkpt lat="48.40533" lon="7.45597">
        <ele>202.6</ele>
        <time>2023-07-23T07:50:45Z</time>
      </trkpt>
      <trkpt lat="48.40534" lon="7.45589">
        <ele>202.6</ele>
        <time>2023-07-23T07:50:46Z</time>
      </trkpt>
      <trkpt lat="48.40532" lon="7.45582">
        <ele>202.6</ele>
        <time>2023-07-23T07:50:47Z</time>
      </trkpt>
      <trkpt lat="48.40528" lon="7.45577">
        <ele>202.7</ele>
        <time>2023-07-23T07:50:48Z</time>
      </trkpt>
      <trkpt lat="48.40524" lon="7.45576">
        <ele>202.7</ele>
        <time>2023-07-23T07:50:49Z</time>
      </trkpt>
      <trkpt lat="48.40519" lon="7.45577">
        <ele>202.8</ele>
        <time>2023-07-23T07:50:50Z</time>
      </trkpt>
      <trkpt lat="48.40516" lon="7.45581">
        <ele>202.8</ele>
        <time>2023-07-23T07:50:51Z</time>
      </trkpt>
      <trkpt lat="48.40512" lon="7.45585">
        <ele>202.9</ele>
        <time>2023-07-23T07:50:52Z</time>
      </trkpt>
      <trkpt lat="48.40509" lon="7.45588">
        <ele>202.9</ele>
        <time>2023-07-23T07:50:53Z</time>
      </trkpt>
      <trkpt lat="48.40505" lon="7.4559">
        <ele>202.9</ele>
        <time>2023-07-23T07:50:54Z</time>
      </trkpt>
      <trkpt lat="48.405" lon="7.45592">
        <ele>202.9</ele>
        <time>2023-07-23T07:50:55Z</time>
      </trkpt>
      <trkpt lat="48.40495" lon="7.45592">
        <ele>202.9</ele>
        <time>2023-07-23T07:50:56Z</time>
      </trkpt>
      <trkpt lat="48.4049" lon="7.45593">
        <ele>203</ele>
        <time>2023-07-23T07:50:57Z</time>
      </trkpt>
      <trkpt lat="48.40485" lon="7.45594">
        <ele>203</ele>
        <time>2023-07-23T07:50:58Z</time>
      </trkpt>
      <trkpt lat="48.4048" lon="7.45595">
        <ele>203</ele>
        <time>2023-07-23T07:50:59Z</time>
      </trkpt>
      <trkpt lat="48.40475" lon="7.45594">
        <ele>203</ele>
        <time>2023-07-23T07:51:00Z</time>
      </trkpt>
      <trkpt lat="48.4047" lon="7.45594">
        <ele>203</ele>
        <time>2023-07-23T07:51:01Z</time>
      </trkpt>
      <trkpt lat="48.40465" lon="7.45595">
        <ele>203.1</ele>
        <time>2023-07-23T07:51:02Z</time>
      </trkpt>
      <trkpt lat="48.4046" lon="7.45595">
        <ele>203.1</ele>
        <time>2023-07-23T07:51:03Z</time>
      </trkpt>
      <trkpt lat="48.40455" lon="7.45595">
        <ele>203.2</ele>
        <time>2023-07-23T07:51:04Z</time>
      </trkpt>
      <trkpt lat="48.4045" lon="7.45594">
        <ele>203.2</ele>
        <time>2023-07-23T07:51:05Z</time>
      </trkpt>
      <trkpt lat="48.40444" lon="7.45594">
        <ele>203.3</ele>
        <time>2023-07-23T07:51:06Z</time>
      </trkpt>
      <trkpt lat="48.40439" lon="7.45594">
        <ele>203.3</ele>
        <time>2023-07-23T07:51:07Z</time>
      </trkpt>
      <trkpt lat="48.40433" lon="7.45594">
        <ele>203.4</ele>
        <time>2023-07-23T07:51:08Z</time>
      </trkpt>
      <trkpt lat="48.40428" lon="7.45593">
        <ele>203.4</ele>
        <time>2023-07-23T07:51:09Z</time>
      </trkpt>
      <trkpt lat="48.40422" lon="7.45592">
        <ele>203.4</ele>
        <time>2023-07-23T07:51:10Z</time>
      </trkpt>
      <trkpt lat="48.40417" lon="7.45591">
        <ele>203.5</ele>
        <time>2023-07-23T07:51:11Z</time>
      </trkpt>
      <trkpt lat="48.40412" lon="7.45591">
        <ele>203.5</ele>
        <time>2023-07-23T07:51:12Z</time>
      </trkpt>
      <trkpt lat="48.40406" lon="7.4559">
        <ele>203.6</ele>
        <time>2023-07-23T07:51:13Z</time>
      </trkpt>
      <trkpt lat="48.40401" lon="7.45589">
        <ele>203.6</ele>
        <time>2023-07-23T07:51:14Z</time>
      </trkpt>
      <trkpt lat="48.40395" lon="7.45588">
        <ele>203.6</ele>
        <time>2023-07-23T07:51:15Z</time>
      </trkpt>
      <trkpt lat="48.4039" lon="7.45588">
        <ele>203.6</ele>
        <time>2023-07-23T07:51:16Z</time>
      </trkpt>
      <trkpt lat="48.40385" lon="7.45587">
        <ele>203.6</ele>
        <time>2023-07-23T07:51:17Z</time>
      </trkpt>
      <trkpt lat="48.4038" lon="7.45586">
        <ele>203.7</ele>
        <time>2023-07-23T07:51:18Z</time>
      </trkpt>
      <trkpt lat="48.40375" lon="7.45586">
        <ele>203.7</ele>
        <time>2023-07-23T07:51:19Z</time>
      </trkpt>
      <trkpt lat="48.4037" lon="7.45585">
        <ele>203.7</ele>
        <time>2023-07-23T07:51:20Z</time>
      </trkpt>
      <trkpt lat="48.40365" lon="7.45584">
        <ele>203.8</ele>
        <time>2023-07-23T07:51:21Z</time>
      </trkpt>
      <trkpt lat="48.4036" lon="7.45583">
        <ele>203.8</ele>
        <time>2023-07-23T07:51:22Z</time>
      </trkpt>
      <trkpt lat="48.40355" lon="7.45582">
        <ele>203.9</ele>
        <time>2023-07-23T07:51:23Z</time>
      </trkpt>
      <trkpt lat="48.4035" lon="7.45582">
        <ele>203.9</ele>
        <time>2023-07-23T07:51:24Z</time>
      </trkpt>
      <trkpt lat="48.40345" lon="7.45582">
        <ele>204</ele>
        <time>2023-07-23T07:51:25Z</time>
      </trkpt>
      <trkpt lat="48.4034" lon="7.45582">
        <ele>204</ele>
        <time>2023-07-23T07:51:26Z</time>
      </trkpt>
      <trkpt lat="48.40336" lon="7.45581">
        <ele>204.1</ele>
        <time>2023-07-23T07:51:27Z</time>
      </trkpt>
      <trkpt lat="48.40331" lon="7.4558">
        <ele>204.1</ele>
        <time>2023-07-23T07:51:28Z</time>
      </trkpt>
      <trkpt lat="48.40326" lon="7.4558">
        <ele>204.2</ele>
        <time>2023-07-23T07:51:29Z</time>
      </trkpt>
      <trkpt lat="48.40323" lon="7.4558">
        <ele>204.2</ele>
        <time>2023-07-23T07:51:30Z</time>
      </trkpt>
      <trkpt lat="48.40319" lon="7.4558">
        <ele>204.3</ele>
        <time>2023-07-23T07:51:31Z</time>
      </trkpt>
      <trkpt lat="48.40314" lon="7.4558">
        <ele>204.3</ele>
        <time>2023-07-23T07:51:32Z</time>
      </trkpt>
      <trkpt lat="48.4031" lon="7.4558">
        <ele>204.3</ele>
        <time>2023-07-23T07:51:33Z</time>
      </trkpt>
      <trkpt lat="48.40306" lon="7.4558">
        <ele>204.3</ele>
        <time>2023-07-23T07:51:34Z</time>
      </trkpt>
      <trkpt lat="48.40303" lon="7.45579">
        <ele>204.3</ele>
        <time>2023-07-23T07:51:35Z</time>
      </trkpt>
      <trkpt lat="48.40299" lon="7.45579">
        <ele>204.3</ele>
        <time>2023-07-23T07:51:36Z</time>
      </trkpt>
      <trkpt lat="48.40296" lon="7.4558">
        <ele>204.4</ele>
        <time>2023-07-23T07:51:37Z</time>
      </trkpt>
      <trkpt lat="48.40293" lon="7.4558">
        <ele>204.4</ele>
        <time>2023-07-23T07:51:38Z</time>
      </trkpt>
      <trkpt lat="48.4029" lon="7.4558">
        <ele>204.4</ele>
        <time>2023-07-23T07:51:39Z</time>
      </trkpt>
      <trkpt lat="48.40287" lon="7.4558">
        <ele>204.5</ele>
        <time>2023-07-23T07:51:40Z</time>
      </trkpt>
      <trkpt lat="48.40286" lon="7.4558">
        <ele>204.5</ele>
        <time>2023-07-23T07:51:41Z</time>
      </trkpt>
      <trkpt lat="48.40284" lon="7.45581">
        <ele>204.5</ele>
        <time>2023-07-23T07:51:42Z</time>
      </trkpt>
      <trkpt lat="48.40283" lon="7.45581">
        <ele>204.5</ele>
        <time>2023-07-23T07:51:43Z</time>
      </trkpt>
      <trkpt lat="48.40282" lon="7.45581">
        <ele>204.5</ele>
        <time>2023-07-23T07:51:44Z</time>
      </trkpt>
      <trkpt lat="48.40282" lon="7.45581">
        <ele>204.5</ele>
        <time>2023-07-23T07:51:45Z</time>
      </trkpt>
      <trkpt lat="48.40281" lon="7.45581">
        <ele>204.5</ele>
        <time>2023-07-23T07:51:47Z</time>
      </trkpt>
      <trkpt lat="48.4028" lon="7.45581">
        <ele>204.5</ele>
        <time>2023-07-23T07:51:48Z</time>
      </trkpt>
      <trkpt lat="48.40279" lon="7.45581">
        <ele>204.6</ele>
        <time>2023-07-23T07:51:49Z</time>
      </trkpt>
      <trkpt lat="48.40278" lon="7.45581">
        <ele>204.6</ele>
        <time>2023-07-23T07:51:50Z</time>
      </trkpt>
      <trkpt lat="48.40277" lon="7.45581">
        <ele>204.6</ele>
        <time>2023-07-23T07:51:51Z</time>
      </trkpt>
      <trkpt lat="48.40276" lon="7.45581">
        <ele>204.6</ele>
        <time>2023-07-23T07:51:52Z</time>
      </trkpt>
      <trkpt lat="48.40276" lon="7.45581">
        <ele>204.6</ele>
        <time>2023-07-23T07:53:42Z</time>
      </trkpt>
      <trkpt lat="48.40275" lon="7.45581">
        <ele>204.6</ele>
        <time>2023-07-23T07:53:43Z</time>
      </trkpt>
      <trkpt lat="48.40271" lon="7.45582">
        <ele>204.7</ele>
        <time>2023-07-23T07:53:44Z</time>
      </trkpt>
      <trkpt lat="48.4027" lon="7.45582">
        <ele>204.7</ele>
        <time>2023-07-23T07:53:45Z</time>
      </trkpt>
      <trkpt lat="48.40267" lon="7.45582">
        <ele>204.8</ele>
        <time>2023-07-23T07:53:46Z</time>
      </trkpt>
      <trkpt lat="48.40264" lon="7.45582">
        <ele>204.8</ele>
        <time>2023-07-23T07:53:47Z</time>
      </trkpt>
      <trkpt lat="48.4026" lon="7.45583">
        <ele>204.9</ele>
        <time>2023-07-23T07:53:48Z</time>
      </trkpt>
      <trkpt lat="48.40257" lon="7.45583">
        <ele>205</ele>
        <time>2023-07-23T07:53:49Z</time>
      </trkpt>
      <trkpt lat="48.40253" lon="7.45584">
        <ele>205</ele>
        <time>2023-07-23T07:53:50Z</time>
      </trkpt>
      <trkpt lat="48.40249" lon="7.45585">
        <ele>205.1</ele>
        <time>2023-07-23T07:53:51Z</time>
      </trkpt>
      <trkpt lat="48.40245" lon="7.45584">
        <ele>205.2</ele>
        <time>2023-07-23T07:53:52Z</time>
      </trkpt>
      <trkpt lat="48.4024" lon="7.45585">
        <ele>205.3</ele>
        <time>2023-07-23T07:53:53Z</time>
      </trkpt>
      <trkpt lat="48.40236" lon="7.45585">
        <ele>205.4</ele>
        <time>2023-07-23T07:53:54Z</time>
      </trkpt>
      <trkpt lat="48.40232" lon="7.45584">
        <ele>205.4</ele>
        <time>2023-07-23T07:53:55Z</time>
      </trkpt>
      <trkpt lat="48.40227" lon="7.45584">
        <ele>205.5</ele>
        <time>2023-07-23T07:53:56Z</time>
      </trkpt>
      <trkpt lat="48.40223" lon="7.45583">
        <ele>205.6</ele>
        <time>2023-07-23T07:53:57Z</time>
      </trkpt>
      <trkpt lat="48.40218" lon="7.45583">
        <ele>205.6</ele>
        <time>2023-07-23T07:53:58Z</time>
      </trkpt>
      <trkpt lat="48.40214" lon="7.45582">
        <ele>205.7</ele>
        <time>2023-07-23T07:53:59Z</time>
      </trkpt>
      <trkpt lat="48.4021" lon="7.45582">
        <ele>205.8</ele>
        <time>2023-07-23T07:54:00Z</time>
      </trkpt>
      <trkpt lat="48.40206" lon="7.45581">
        <ele>205.8</ele>
        <time>2023-07-23T07:54:01Z</time>
      </trkpt>
      <trkpt lat="48.40202" lon="7.4558">
        <ele>205.9</ele>
        <time>2023-07-23T07:54:02Z</time>
      </trkpt>
      <trkpt lat="48.40198" lon="7.45579">
        <ele>206</ele>
        <time>2023-07-23T07:54:03Z</time>
      </trkpt>
      <trkpt lat="48.40194" lon="7.45578">
        <ele>206.1</ele>
        <time>2023-07-23T07:54:04Z</time>
      </trkpt>
      <trkpt lat="48.40189" lon="7.45576">
        <ele>206.2</ele>
        <time>2023-07-23T07:54:05Z</time>
      </trkpt>
      <trkpt lat="48.40185" lon="7.45575">
        <ele>206.3</ele>
        <time>2023-07-23T07:54:06Z</time>
      </trkpt>
      <trkpt lat="48.4018" lon="7.45574">
        <ele>206.4</ele>
        <time>2023-07-23T07:54:07Z</time>
      </trkpt>
      <trkpt lat="48.40175" lon="7.45573">
        <ele>206.5</ele>
        <time>2023-07-23T07:54:08Z</time>
      </trkpt>
      <trkpt lat="48.4017" lon="7.45572">
        <ele>206.6</ele>
        <time>2023-07-23T07:54:09Z</time>
      </trkpt>
      <trkpt lat="48.40165" lon="7.45571">
        <ele>206.7</ele>
        <time>2023-07-23T07:54:10Z</time>
      </trkpt>
      <trkpt lat="48.4016" lon="7.45569">
        <ele>206.8</ele>
        <time>2023-07-23T07:54:11Z</time>
      </trkpt>
      <trkpt lat="48.40155" lon="7.45568">
        <ele>206.9</ele>
        <time>2023-07-23T07:54:12Z</time>
      </trkpt>
      <trkpt lat="48.4015" lon="7.45568">
        <ele>207</ele>
        <time>2023-07-23T07:54:13Z</time>
      </trkpt>
      <trkpt lat="48.40145" lon="7.45567">
        <ele>207</ele>
        <time>2023-07-23T07:54:14Z</time>
      </trkpt>
      <trkpt lat="48.4014" lon="7.45566">
        <ele>207.1</ele>
        <time>2023-07-23T07:54:15Z</time>
      </trkpt>
      <trkpt lat="48.40135" lon="7.45566">
        <ele>207.1</ele>
        <time>2023-07-23T07:54:16Z</time>
      </trkpt>
      <trkpt lat="48.4013" lon="7.45565">
        <ele>207.1</ele>
        <time>2023-07-23T07:54:17Z</time>
      </trkpt>
      <trkpt lat="48.40126" lon="7.45565">
        <ele>207.1</ele>
        <time>2023-07-23T07:54:18Z</time>
      </trkpt>
      <trkpt lat="48.40121" lon="7.45565">
        <ele>207</ele>
        <time>2023-07-23T07:54:19Z</time>
      </trkpt>
      <trkpt lat="48.40116" lon="7.45564">
        <ele>207</ele>
        <time>2023-07-23T07:54:20Z</time>
      </trkpt>
      <trkpt lat="48.40112" lon="7.45564">
        <ele>206.9</ele>
        <time>2023-07-23T07:54:21Z</time>
      </trkpt>
      <trkpt lat="48.40107" lon="7.45564">
        <ele>206.8</ele>
        <time>2023-07-23T07:54:22Z</time>
      </trkpt>
      <trkpt lat="48.40102" lon="7.45564">
        <ele>206.7</ele>
        <time>2023-07-23T07:54:23Z</time>
      </trkpt>
      <trkpt lat="48.40097" lon="7.45563">
        <ele>206.6</ele>
        <time>2023-07-23T07:54:24Z</time>
      </trkpt>
      <trkpt lat="48.40092" lon="7.45562">
        <ele>206.5</ele>
        <time>2023-07-23T07:54:25Z</time>
      </trkpt>
      <trkpt lat="48.40087" lon="7.4556">
        <ele>206.4</ele>
        <time>2023-07-23T07:54:26Z</time>
      </trkpt>
      <trkpt lat="48.40082" lon="7.45556">
        <ele>206.3</ele>
        <time>2023-07-23T07:54:27Z</time>
      </trkpt>
      <trkpt lat="48.40077" lon="7.45552">
        <ele>206.2</ele>
        <time>2023-07-23T07:54:28Z</time>
      </trkpt>
      <trkpt lat="48.40072" lon="7.45547">
        <ele>206.1</ele>
        <time>2023-07-23T07:54:29Z</time>
      </trkpt>
      <trkpt lat="48.40068" lon="7.4554">
        <ele>206</ele>
        <time>2023-07-23T07:54:30Z</time>
      </trkpt>
      <trkpt lat="48.40064" lon="7.45534">
        <ele>205.9</ele>
        <time>2023-07-23T07:54:31Z</time>
      </trkpt>
      <trkpt lat="48.4006" lon="7.45527">
        <ele>205.9</ele>
        <time>2023-07-23T07:54:32Z</time>
      </trkpt>
      <trkpt lat="48.40057" lon="7.4552">
        <ele>205.9</ele>
        <time>2023-07-23T07:54:33Z</time>
      </trkpt>
      <trkpt lat="48.40054" lon="7.45513">
        <ele>205.9</ele>
        <time>2023-07-23T07:54:34Z</time>
      </trkpt>
      <trkpt lat="48.40051" lon="7.45505">
        <ele>205.9</ele>
        <time>2023-07-23T07:54:35Z</time>
      </trkpt>
      <trkpt lat="48.40047" lon="7.45498">
        <ele>205.9</ele>
        <time>2023-07-23T07:54:36Z</time>
      </trkpt>
      <trkpt lat="48.40044" lon="7.4549">
        <ele>205.9</ele>
        <time>2023-07-23T07:54:37Z</time>
      </trkpt>
      <trkpt lat="48.4004" lon="7.45483">
        <ele>205.9</ele>
        <time>2023-07-23T07:54:38Z</time>
      </trkpt>
      <trkpt lat="48.40037" lon="7.45476">
        <ele>205.9</ele>
        <time>2023-07-23T07:54:39Z</time>
      </trkpt>
      <trkpt lat="48.40034" lon="7.45469">
        <ele>206</ele>
        <time>2023-07-23T07:54:40Z</time>
      </trkpt>
      <trkpt lat="48.4003" lon="7.45462">
        <ele>206</ele>
        <time>2023-07-23T07:54:41Z</time>
      </trkpt>
      <trkpt lat="48.40026" lon="7.45455">
        <ele>206</ele>
        <time>2023-07-23T07:54:42Z</time>
      </trkpt>
      <trkpt lat="48.40022" lon="7.45449">
        <ele>206</ele>
        <time>2023-07-23T07:54:43Z</time>
      </trkpt>
      <trkpt lat="48.40018" lon="7.45443">
        <ele>206</ele>
        <time>2023-07-23T07:54:44Z</time>
      </trkpt>
      <trkpt lat="48.40014" lon="7.45437">
        <ele>206.1</ele>
        <time>2023-07-23T07:54:45Z</time>
      </trkpt>
      <trkpt lat="48.4001" lon="7.45431">
        <ele>206.1</ele>
        <time>2023-07-23T07:54:46Z</time>
      </trkpt>
      <trkpt lat="48.40005" lon="7.45425">
        <ele>206.3</ele>
        <time>2023-07-23T07:54:47Z</time>
      </trkpt>
      <trkpt lat="48.40001" lon="7.45419">
        <ele>206.4</ele>
        <time>2023-07-23T07:54:48Z</time>
      </trkpt>
      <trkpt lat="48.39996" lon="7.45414">
        <ele>206.4</ele>
        <time>2023-07-23T07:54:49Z</time>
      </trkpt>
      <trkpt lat="48.39991" lon="7.45409">
        <ele>206.4</ele>
        <time>2023-07-23T07:54:50Z</time>
      </trkpt>
      <trkpt lat="48.39987" lon="7.45404">
        <ele>206.5</ele>
        <time>2023-07-23T07:54:51Z</time>
      </trkpt>
      <trkpt lat="48.39982" lon="7.45399">
        <ele>206.5</ele>
        <time>2023-07-23T07:54:52Z</time>
      </trkpt>
      <trkpt lat="48.39977" lon="7.45394">
        <ele>206.5</ele>
        <time>2023-07-23T07:54:53Z</time>
      </trkpt>
      <trkpt lat="48.39973" lon="7.4539">
        <ele>206.5</ele>
        <time>2023-07-23T07:54:54Z</time>
      </trkpt>
      <trkpt lat="48.39968" lon="7.45385">
        <ele>206.6</ele>
        <time>2023-07-23T07:54:55Z</time>
      </trkpt>
      <trkpt lat="48.39964" lon="7.4538">
        <ele>206.6</ele>
        <time>2023-07-23T07:54:56Z</time>
      </trkpt>
      <trkpt lat="48.3996" lon="7.45375">
        <ele>206.6</ele>
        <time>2023-07-23T07:54:57Z</time>
      </trkpt>
      <trkpt lat="48.39955" lon="7.4537">
        <ele>206.7</ele>
        <time>2023-07-23T07:54:58Z</time>
      </trkpt>
      <trkpt lat="48.3995" lon="7.45365">
        <ele>206.7</ele>
        <time>2023-07-23T07:54:59Z</time>
      </trkpt>
      <trkpt lat="48.39946" lon="7.45359">
        <ele>206.8</ele>
        <time>2023-07-23T07:55:00Z</time>
      </trkpt>
      <trkpt lat="48.39941" lon="7.45354">
        <ele>206.8</ele>
        <time>2023-07-23T07:55:01Z</time>
      </trkpt>
      <trkpt lat="48.39935" lon="7.45349">
        <ele>206.8</ele>
        <time>2023-07-23T07:55:02Z</time>
      </trkpt>
      <trkpt lat="48.3993" lon="7.45344">
        <ele>206.8</ele>
        <time>2023-07-23T07:55:03Z</time>
      </trkpt>
      <trkpt lat="48.39925" lon="7.45339">
        <ele>206.9</ele>
        <time>2023-07-23T07:55:04Z</time>
      </trkpt>
      <trkpt lat="48.39919" lon="7.45334">
        <ele>206.9</ele>
        <time>2023-07-23T07:55:05Z</time>
      </trkpt>
      <trkpt lat="48.39914" lon="7.45327">
        <ele>206.9</ele>
        <time>2023-07-23T07:55:06Z</time>
      </trkpt>
      <trkpt lat="48.39908" lon="7.45322">
        <ele>206.9</ele>
        <time>2023-07-23T07:55:07Z</time>
      </trkpt>
      <trkpt lat="48.39902" lon="7.45316">
        <ele>207</ele>
        <time>2023-07-23T07:55:08Z</time>
      </trkpt>
      <trkpt lat="48.39897" lon="7.45311">
        <ele>207</ele>
        <time>2023-07-23T07:55:09Z</time>
      </trkpt>
      <trkpt lat="48.39892" lon="7.45306">
        <ele>207</ele>
        <time>2023-07-23T07:55:10Z</time>
      </trkpt>
      <trkpt lat="48.39887" lon="7.45301">
        <ele>207</ele>
        <time>2023-07-23T07:55:11Z</time>
      </trkpt>
      <trkpt lat="48.39882" lon="7.45296">
        <ele>207</ele>
        <time>2023-07-23T07:55:12Z</time>
      </trkpt>
      <trkpt lat="48.39877" lon="7.45291">
        <ele>207</ele>
        <time>2023-07-23T07:55:13Z</time>
      </trkpt>
      <trkpt lat="48.39872" lon="7.45287">
        <ele>207.1</ele>
        <time>2023-07-23T07:55:14Z</time>
      </trkpt>
      <trkpt lat="48.39868" lon="7.45281">
        <ele>207.1</ele>
        <time>2023-07-23T07:55:15Z</time>
      </trkpt>
      <trkpt lat="48.39863" lon="7.45276">
        <ele>207.1</ele>
        <time>2023-07-23T07:55:16Z</time>
      </trkpt>
      <trkpt lat="48.39857" lon="7.45271">
        <ele>207.1</ele>
        <time>2023-07-23T07:55:17Z</time>
      </trkpt>
      <trkpt lat="48.39852" lon="7.45265">
        <ele>207.1</ele>
        <time>2023-07-23T07:55:18Z</time>
      </trkpt>
      <trkpt lat="48.39847" lon="7.4526">
        <ele>207.1</ele>
        <time>2023-07-23T07:55:19Z</time>
      </trkpt>
      <trkpt lat="48.39841" lon="7.45254">
        <ele>207.2</ele>
        <time>2023-07-23T07:55:20Z</time>
      </trkpt>
      <trkpt lat="48.39836" lon="7.45248">
        <ele>207.2</ele>
        <time>2023-07-23T07:55:21Z</time>
      </trkpt>
      <trkpt lat="48.39831" lon="7.45243">
        <ele>207.2</ele>
        <time>2023-07-23T07:55:22Z</time>
      </trkpt>
      <trkpt lat="48.39826" lon="7.45237">
        <ele>207.2</ele>
        <time>2023-07-23T07:55:23Z</time>
      </trkpt>
      <trkpt lat="48.3982" lon="7.45232">
        <ele>207.2</ele>
        <time>2023-07-23T07:55:24Z</time>
      </trkpt>
      <trkpt lat="48.39815" lon="7.45226">
        <ele>207.2</ele>
        <time>2023-07-23T07:55:25Z</time>
      </trkpt>
      <trkpt lat="48.39809" lon="7.4522">
        <ele>207.2</ele>
        <time>2023-07-23T07:55:26Z</time>
      </trkpt>
      <trkpt lat="48.39804" lon="7.45215">
        <ele>207.2</ele>
        <time>2023-07-23T07:55:27Z</time>
      </trkpt>
      <trkpt lat="48.39799" lon="7.45209">
        <ele>207.2</ele>
        <time>2023-07-23T07:55:28Z</time>
      </trkpt>
      <trkpt lat="48.39793" lon="7.45203">
        <ele>207.2</ele>
        <time>2023-07-23T07:55:29Z</time>
      </trkpt>
      <trkpt lat="48.39788" lon="7.45197">
        <ele>207.2</ele>
        <time>2023-07-23T07:55:30Z</time>
      </trkpt>
      <trkpt lat="48.39782" lon="7.45191">
        <ele>207.2</ele>
        <time>2023-07-23T07:55:31Z</time>
      </trkpt>
      <trkpt lat="48.39777" lon="7.45185">
        <ele>207.2</ele>
        <time>2023-07-23T07:55:32Z</time>
      </trkpt>
      <trkpt lat="48.39772" lon="7.45179">
        <ele>207.2</ele>
        <time>2023-07-23T07:55:33Z</time>
      </trkpt>
      <trkpt lat="48.39766" lon="7.45174">
        <ele>207.2</ele>
        <time>2023-07-23T07:55:34Z</time>
      </trkpt>
      <trkpt lat="48.39761" lon="7.45167">
        <ele>207.2</ele>
        <time>2023-07-23T07:55:35Z</time>
      </trkpt>
      <trkpt lat="48.39756" lon="7.45162">
        <ele>207.2</ele>
        <time>2023-07-23T07:55:36Z</time>
      </trkpt>
      <trkpt lat="48.39751" lon="7.45156">
        <ele>207.2</ele>
        <time>2023-07-23T07:55:37Z</time>
      </trkpt>
      <trkpt lat="48.39746" lon="7.4515">
        <ele>207.2</ele>
        <time>2023-07-23T07:55:38Z</time>
      </trkpt>
      <trkpt lat="48.39741" lon="7.45144">
        <ele>207.2</ele>
        <time>2023-07-23T07:55:39Z</time>
      </trkpt>
      <trkpt lat="48.39736" lon="7.45138">
        <ele>207.2</ele>
        <time>2023-07-23T07:55:40Z</time>
      </trkpt>
      <trkpt lat="48.3973" lon="7.45131">
        <ele>207.2</ele>
        <time>2023-07-23T07:55:41Z</time>
      </trkpt>
      <trkpt lat="48.39725" lon="7.45125">
        <ele>207.3</ele>
        <time>2023-07-23T07:55:42Z</time>
      </trkpt>
      <trkpt lat="48.3972" lon="7.45118">
        <ele>207.3</ele>
        <time>2023-07-23T07:55:43Z</time>
      </trkpt>
      <trkpt lat="48.39715" lon="7.45112">
        <ele>207.3</ele>
        <time>2023-07-23T07:55:44Z</time>
      </trkpt>
      <trkpt lat="48.3971" lon="7.45105">
        <ele>207.4</ele>
        <time>2023-07-23T07:55:45Z</time>
      </trkpt>
      <trkpt lat="48.39705" lon="7.45099">
        <ele>207.5</ele>
        <time>2023-07-23T07:55:46Z</time>
      </trkpt>
      <trkpt lat="48.39701" lon="7.45093">
        <ele>207.6</ele>
        <time>2023-07-23T07:55:47Z</time>
      </trkpt>
      <trkpt lat="48.39695" lon="7.45087">
        <ele>207.7</ele>
        <time>2023-07-23T07:55:48Z</time>
      </trkpt>
      <trkpt lat="48.39689" lon="7.45084">
        <ele>207.8</ele>
        <time>2023-07-23T07:55:49Z</time>
      </trkpt>
      <trkpt lat="48.39683" lon="7.45083">
        <ele>207.9</ele>
        <time>2023-07-23T07:55:50Z</time>
      </trkpt>
      <trkpt lat="48.39677" lon="7.45086">
        <ele>208</ele>
        <time>2023-07-23T07:55:51Z</time>
      </trkpt>
      <trkpt lat="48.39672" lon="7.45091">
        <ele>208</ele>
        <time>2023-07-23T07:55:52Z</time>
      </trkpt>
      <trkpt lat="48.39668" lon="7.45099">
        <ele>208</ele>
        <time>2023-07-23T07:55:53Z</time>
      </trkpt>
      <trkpt lat="48.39664" lon="7.45106">
        <ele>207.9</ele>
        <time>2023-07-23T07:55:54Z</time>
      </trkpt>
      <trkpt lat="48.3966" lon="7.45113">
        <ele>207.8</ele>
        <time>2023-07-23T07:55:55Z</time>
      </trkpt>
      <trkpt lat="48.39654" lon="7.45118">
        <ele>207.6</ele>
        <time>2023-07-23T07:55:56Z</time>
      </trkpt>
      <trkpt lat="48.39647" lon="7.45123">
        <ele>207.2</ele>
        <time>2023-07-23T07:55:57Z</time>
      </trkpt>
      <trkpt lat="48.3964" lon="7.45126">
        <ele>206.9</ele>
        <time>2023-07-23T07:55:58Z</time>
      </trkpt>
      <trkpt lat="48.39633" lon="7.4513">
        <ele>206.5</ele>
        <time>2023-07-23T07:55:59Z</time>
      </trkpt>
      <trkpt lat="48.39625" lon="7.45134">
        <ele>206.2</ele>
        <time>2023-07-23T07:56:00Z</time>
      </trkpt>
      <trkpt lat="48.39617" lon="7.45138">
        <ele>205.8</ele>
        <time>2023-07-23T07:56:01Z</time>
      </trkpt>
      <trkpt lat="48.39609" lon="7.45142">
        <ele>205.4</ele>
        <time>2023-07-23T07:56:02Z</time>
      </trkpt>
      <trkpt lat="48.396" lon="7.45147">
        <ele>205.1</ele>
        <time>2023-07-23T07:56:03Z</time>
      </trkpt>
      <trkpt lat="48.39592" lon="7.45151">
        <ele>204.8</ele>
        <time>2023-07-23T07:56:04Z</time>
      </trkpt>
      <trkpt lat="48.39583" lon="7.45155">
        <ele>204.5</ele>
        <time>2023-07-23T07:56:05Z</time>
      </trkpt>
      <trkpt lat="48.39575" lon="7.45159">
        <ele>204.3</ele>
        <time>2023-07-23T07:56:06Z</time>
      </trkpt>
      <trkpt lat="48.39566" lon="7.45163">
        <ele>204.1</ele>
        <time>2023-07-23T07:56:07Z</time>
      </trkpt>
      <trkpt lat="48.39557" lon="7.45167">
        <ele>204</ele>
        <time>2023-07-23T07:56:08Z</time>
      </trkpt>
      <trkpt lat="48.39549" lon="7.4517">
        <ele>203.9</ele>
        <time>2023-07-23T07:56:09Z</time>
      </trkpt>
      <trkpt lat="48.3954" lon="7.45172">
        <ele>203.8</ele>
        <time>2023-07-23T07:56:10Z</time>
      </trkpt>
      <trkpt lat="48.39532" lon="7.45173">
        <ele>203.7</ele>
        <time>2023-07-23T07:56:11Z</time>
      </trkpt>
      <trkpt lat="48.39523" lon="7.45174">
        <ele>203.6</ele>
        <time>2023-07-23T07:56:12Z</time>
      </trkpt>
      <trkpt lat="48.39515" lon="7.45173">
        <ele>203.5</ele>
        <time>2023-07-23T07:56:13Z</time>
      </trkpt>
      <trkpt lat="48.39507" lon="7.4517">
        <ele>203.4</ele>
        <time>2023-07-23T07:56:14Z</time>
      </trkpt>
      <trkpt lat="48.395" lon="7.45164">
        <ele>203.3</ele>
        <time>2023-07-23T07:56:15Z</time>
      </trkpt>
      <trkpt lat="48.39493" lon="7.45156">
        <ele>203.2</ele>
        <time>2023-07-23T07:56:16Z</time>
      </trkpt>
      <trkpt lat="48.39487" lon="7.45147">
        <ele>203.1</ele>
        <time>2023-07-23T07:56:17Z</time>
      </trkpt>
      <trkpt lat="48.39482" lon="7.45138">
        <ele>203</ele>
        <time>2023-07-23T07:56:18Z</time>
      </trkpt>
      <trkpt lat="48.39477" lon="7.45129">
        <ele>203</ele>
        <time>2023-07-23T07:56:19Z</time>
      </trkpt>
      <trkpt lat="48.39471" lon="7.45121">
        <ele>202.9</ele>
        <time>2023-07-23T07:56:20Z</time>
      </trkpt>
      <trkpt lat="48.39465" lon="7.45113">
        <ele>202.9</ele>
        <time>2023-07-23T07:56:21Z</time>
      </trkpt>
      <trkpt lat="48.39458" lon="7.45106">
        <ele>202.9</ele>
        <time>2023-07-23T07:56:22Z</time>
      </trkpt>
      <trkpt lat="48.39451" lon="7.45099">
        <ele>202.8</ele>
        <time>2023-07-23T07:56:23Z</time>
      </trkpt>
      <trkpt lat="48.39444" lon="7.45092">
        <ele>202.9</ele>
        <time>2023-07-23T07:56:24Z</time>
      </trkpt>
      <trkpt lat="48.39437" lon="7.45087">
        <ele>202.9</ele>
        <time>2023-07-23T07:56:25Z</time>
      </trkpt>
      <trkpt lat="48.3943" lon="7.45082">
        <ele>202.9</ele>
        <time>2023-07-23T07:56:26Z</time>
      </trkpt>
      <trkpt lat="48.39423" lon="7.45077">
        <ele>202.9</ele>
        <time>2023-07-23T07:56:27Z</time>
      </trkpt>
      <trkpt lat="48.39416" lon="7.45072">
        <ele>202.9</ele>
        <time>2023-07-23T07:56:28Z</time>
      </trkpt>
      <trkpt lat="48.39408" lon="7.45067">
        <ele>202.9</ele>
        <time>2023-07-23T07:56:29Z</time>
      </trkpt>
      <trkpt lat="48.39401" lon="7.45062">
        <ele>203</ele>
        <time>2023-07-23T07:56:30Z</time>
      </trkpt>
      <trkpt lat="48.39394" lon="7.45057">
        <ele>203</ele>
        <time>2023-07-23T07:56:31Z</time>
      </trkpt>
      <trkpt lat="48.39387" lon="7.45052">
        <ele>202.9</ele>
        <time>2023-07-23T07:56:32Z</time>
      </trkpt>
      <trkpt lat="48.39381" lon="7.45047">
        <ele>202.9</ele>
        <time>2023-07-23T07:56:33Z</time>
      </trkpt>
      <trkpt lat="48.39374" lon="7.45042">
        <ele>202.9</ele>
        <time>2023-07-23T07:56:34Z</time>
      </trkpt>
      <trkpt lat="48.39367" lon="7.45037">
        <ele>202.9</ele>
        <time>2023-07-23T07:56:35Z</time>
      </trkpt>
      <trkpt lat="48.3936" lon="7.45033">
        <ele>202.9</ele>
        <time>2023-07-23T07:56:36Z</time>
      </trkpt>
      <trkpt lat="48.39353" lon="7.45028">
        <ele>202.8</ele>
        <time>2023-07-23T07:56:37Z</time>
      </trkpt>
      <trkpt lat="48.39346" lon="7.45024">
        <ele>202.8</ele>
        <time>2023-07-23T07:56:38Z</time>
      </trkpt>
      <trkpt lat="48.39339" lon="7.45019">
        <ele>202.8</ele>
        <time>2023-07-23T07:56:39Z</time>
      </trkpt>
      <trkpt lat="48.39332" lon="7.45015">
        <ele>202.7</ele>
        <time>2023-07-23T07:56:40Z</time>
      </trkpt>
      <trkpt lat="48.39324" lon="7.45011">
        <ele>202.7</ele>
        <time>2023-07-23T07:56:41Z</time>
      </trkpt>
      <trkpt lat="48.39317" lon="7.45007">
        <ele>202.6</ele>
        <time>2023-07-23T07:56:42Z</time>
      </trkpt>
      <trkpt lat="48.3931" lon="7.45003">
        <ele>202.5</ele>
        <time>2023-07-23T07:56:43Z</time>
      </trkpt>
      <trkpt lat="48.39303" lon="7.44999">
        <ele>202.5</ele>
        <time>2023-07-23T07:56:44Z</time>
      </trkpt>
      <trkpt lat="48.39296" lon="7.44994">
        <ele>202.4</ele>
        <time>2023-07-23T07:56:45Z</time>
      </trkpt>
      <trkpt lat="48.39289" lon="7.4499">
        <ele>202.4</ele>
        <time>2023-07-23T07:56:46Z</time>
      </trkpt>
      <trkpt lat="48.39282" lon="7.44984">
        <ele>202.3</ele>
        <time>2023-07-23T07:56:47Z</time>
      </trkpt>
      <trkpt lat="48.39275" lon="7.44978">
        <ele>202.3</ele>
        <time>2023-07-23T07:56:48Z</time>
      </trkpt>
      <trkpt lat="48.39268" lon="7.44972">
        <ele>202.3</ele>
        <time>2023-07-23T07:56:49Z</time>
      </trkpt>
      <trkpt lat="48.39261" lon="7.44965">
        <ele>202.3</ele>
        <time>2023-07-23T07:56:50Z</time>
      </trkpt>
      <trkpt lat="48.39255" lon="7.44958">
        <ele>202.3</ele>
        <time>2023-07-23T07:56:51Z</time>
      </trkpt>
      <trkpt lat="48.39249" lon="7.4495">
        <ele>202.3</ele>
        <time>2023-07-23T07:56:52Z</time>
      </trkpt>
      <trkpt lat="48.39244" lon="7.44941">
        <ele>202.3</ele>
        <time>2023-07-23T07:56:53Z</time>
      </trkpt>
      <trkpt lat="48.39239" lon="7.44932">
        <ele>202.3</ele>
        <time>2023-07-23T07:56:54Z</time>
      </trkpt>
      <trkpt lat="48.39235" lon="7.44922">
        <ele>202.3</ele>
        <time>2023-07-23T07:56:55Z</time>
      </trkpt>
      <trkpt lat="48.39233" lon="7.4491">
        <ele>202.3</ele>
        <time>2023-07-23T07:56:56Z</time>
      </trkpt>
      <trkpt lat="48.39232" lon="7.44899">
        <ele>202.3</ele>
        <time>2023-07-23T07:56:57Z</time>
      </trkpt>
      <trkpt lat="48.3923" lon="7.44889">
        <ele>202.3</ele>
        <time>2023-07-23T07:56:58Z</time>
      </trkpt>
      <trkpt lat="48.39228" lon="7.44879">
        <ele>202.4</ele>
        <time>2023-07-23T07:56:59Z</time>
      </trkpt>
      <trkpt lat="48.39225" lon="7.44869">
        <ele>202.4</ele>
        <time>2023-07-23T07:57:00Z</time>
      </trkpt>
      <trkpt lat="48.39223" lon="7.4486">
        <ele>202.4</ele>
        <time>2023-07-23T07:57:01Z</time>
      </trkpt>
      <trkpt lat="48.3922" lon="7.44851">
        <ele>202.4</ele>
        <time>2023-07-23T07:57:02Z</time>
      </trkpt>
      <trkpt lat="48.39216" lon="7.44842">
        <ele>202.4</ele>
        <time>2023-07-23T07:57:03Z</time>
      </trkpt>
      <trkpt lat="48.39211" lon="7.44834">
        <ele>202.3</ele>
        <time>2023-07-23T07:57:04Z</time>
      </trkpt>
      <trkpt lat="48.39205" lon="7.44826">
        <ele>202.2</ele>
        <time>2023-07-23T07:57:05Z</time>
      </trkpt>
      <trkpt lat="48.39198" lon="7.44819">
        <ele>202</ele>
        <time>2023-07-23T07:57:06Z</time>
      </trkpt>
      <trkpt lat="48.39192" lon="7.44811">
        <ele>201.9</ele>
        <time>2023-07-23T07:57:07Z</time>
      </trkpt>
      <trkpt lat="48.39186" lon="7.44803">
        <ele>201.8</ele>
        <time>2023-07-23T07:57:08Z</time>
      </trkpt>
      <trkpt lat="48.3918" lon="7.44794">
        <ele>201.8</ele>
        <time>2023-07-23T07:57:09Z</time>
      </trkpt>
      <trkpt lat="48.39175" lon="7.44786">
        <ele>201.7</ele>
        <time>2023-07-23T07:57:10Z</time>
      </trkpt>
      <trkpt lat="48.39169" lon="7.44777">
        <ele>201.7</ele>
        <time>2023-07-23T07:57:11Z</time>
      </trkpt>
      <trkpt lat="48.39164" lon="7.44769">
        <ele>201.7</ele>
        <time>2023-07-23T07:57:12Z</time>
      </trkpt>
      <trkpt lat="48.39159" lon="7.4476">
        <ele>201.7</ele>
        <time>2023-07-23T07:57:13Z</time>
      </trkpt>
      <trkpt lat="48.39154" lon="7.44751">
        <ele>201.7</ele>
        <time>2023-07-23T07:57:14Z</time>
      </trkpt>
      <trkpt lat="48.39149" lon="7.44742">
        <ele>201.6</ele>
        <time>2023-07-23T07:57:15Z</time>
      </trkpt>
      <trkpt lat="48.39144" lon="7.44733">
        <ele>201.6</ele>
        <time>2023-07-23T07:57:16Z</time>
      </trkpt>
      <trkpt lat="48.3914" lon="7.44724">
        <ele>201.6</ele>
        <time>2023-07-23T07:57:17Z</time>
      </trkpt>
      <trkpt lat="48.39136" lon="7.44714">
        <ele>201.6</ele>
        <time>2023-07-23T07:57:18Z</time>
      </trkpt>
      <trkpt lat="48.39132" lon="7.44705">
        <ele>201.6</ele>
        <time>2023-07-23T07:57:19Z</time>
      </trkpt>
      <trkpt lat="48.39129" lon="7.44695">
        <ele>201.6</ele>
        <time>2023-07-23T07:57:20Z</time>
      </trkpt>
      <trkpt lat="48.39125" lon="7.44686">
        <ele>201.7</ele>
        <time>2023-07-23T07:57:21Z</time>
      </trkpt>
      <trkpt lat="48.39122" lon="7.44676">
        <ele>201.7</ele>
        <time>2023-07-23T07:57:22Z</time>
      </trkpt>
      <trkpt lat="48.39118" lon="7.44666">
        <ele>201.7</ele>
        <time>2023-07-23T07:57:23Z</time>
      </trkpt>
      <trkpt lat="48.39115" lon="7.44657">
        <ele>201.7</ele>
        <time>2023-07-23T07:57:24Z</time>
      </trkpt>
      <trkpt lat="48.39111" lon="7.44647">
        <ele>201.7</ele>
        <time>2023-07-23T07:57:25Z</time>
      </trkpt>
      <trkpt lat="48.39108" lon="7.44638">
        <ele>201.7</ele>
        <time>2023-07-23T07:57:26Z</time>
      </trkpt>
      <trkpt lat="48.39107" lon="7.44627">
        <ele>201.8</ele>
        <time>2023-07-23T07:57:27Z</time>
      </trkpt>
      <trkpt lat="48.39107" lon="7.44617">
        <ele>201.9</ele>
        <time>2023-07-23T07:57:28Z</time>
      </trkpt>
      <trkpt lat="48.39104" lon="7.44609">
        <ele>201.9</ele>
        <time>2023-07-23T07:57:29Z</time>
      </trkpt>
      <trkpt lat="48.39098" lon="7.44602">
        <ele>201.9</ele>
        <time>2023-07-23T07:57:30Z</time>
      </trkpt>
      <trkpt lat="48.39091" lon="7.446">
        <ele>201.8</ele>
        <time>2023-07-23T07:57:31Z</time>
      </trkpt>
      <trkpt lat="48.39085" lon="7.44602">
        <ele>201.7</ele>
        <time>2023-07-23T07:57:32Z</time>
      </trkpt>
      <trkpt lat="48.39078" lon="7.44604">
        <ele>201.6</ele>
        <time>2023-07-23T07:57:33Z</time>
      </trkpt>
      <trkpt lat="48.39072" lon="7.44606">
        <ele>201.4</ele>
        <time>2023-07-23T07:57:34Z</time>
      </trkpt>
      <trkpt lat="48.39065" lon="7.44606">
        <ele>201.2</ele>
        <time>2023-07-23T07:57:35Z</time>
      </trkpt>
      <trkpt lat="48.39058" lon="7.44604">
        <ele>201.1</ele>
        <time>2023-07-23T07:57:36Z</time>
      </trkpt>
      <trkpt lat="48.39051" lon="7.44602">
        <ele>201</ele>
        <time>2023-07-23T07:57:37Z</time>
      </trkpt>
      <trkpt lat="48.39044" lon="7.44599">
        <ele>200.9</ele>
        <time>2023-07-23T07:57:38Z</time>
      </trkpt>
      <trkpt lat="48.39037" lon="7.44596">
        <ele>200.8</ele>
        <time>2023-07-23T07:57:39Z</time>
      </trkpt>
      <trkpt lat="48.3903" lon="7.44593">
        <ele>200.7</ele>
        <time>2023-07-23T07:57:40Z</time>
      </trkpt>
      <trkpt lat="48.39024" lon="7.4459">
        <ele>200.7</ele>
        <time>2023-07-23T07:57:41Z</time>
      </trkpt>
      <trkpt lat="48.39017" lon="7.44587">
        <ele>200.6</ele>
        <time>2023-07-23T07:57:42Z</time>
      </trkpt>
      <trkpt lat="48.3901" lon="7.44584">
        <ele>200.6</ele>
        <time>2023-07-23T07:57:43Z</time>
      </trkpt>
      <trkpt lat="48.39003" lon="7.44582">
        <ele>200.6</ele>
        <time>2023-07-23T07:57:44Z</time>
      </trkpt>
      <trkpt lat="48.38996" lon="7.4458">
        <ele>200.6</ele>
        <time>2023-07-23T07:57:45Z</time>
      </trkpt>
      <trkpt lat="48.38989" lon="7.44577">
        <ele>200.5</ele>
        <time>2023-07-23T07:57:46Z</time>
      </trkpt>
      <trkpt lat="48.38982" lon="7.44575">
        <ele>200.5</ele>
        <time>2023-07-23T07:57:47Z</time>
      </trkpt>
      <trkpt lat="48.38976" lon="7.44572">
        <ele>200.5</ele>
        <time>2023-07-23T07:57:48Z</time>
      </trkpt>
      <trkpt lat="48.38969" lon="7.44569">
        <ele>200.5</ele>
        <time>2023-07-23T07:57:49Z</time>
      </trkpt>
      <trkpt lat="48.38962" lon="7.44566">
        <ele>200.4</ele>
        <time>2023-07-23T07:57:50Z</time>
      </trkpt>
      <trkpt lat="48.38955" lon="7.44563">
        <ele>200.4</ele>
        <time>2023-07-23T07:57:51Z</time>
      </trkpt>
      <trkpt lat="48.38948" lon="7.4456">
        <ele>200.4</ele>
        <time>2023-07-23T07:57:52Z</time>
      </trkpt>
      <trkpt lat="48.38941" lon="7.44556">
        <ele>200.4</ele>
        <time>2023-07-23T07:57:53Z</time>
      </trkpt>
      <trkpt lat="48.38934" lon="7.44553">
        <ele>200.4</ele>
        <time>2023-07-23T07:57:54Z</time>
      </trkpt>
      <trkpt lat="48.38927" lon="7.44549">
        <ele>200.4</ele>
        <time>2023-07-23T07:57:55Z</time>
      </trkpt>
      <trkpt lat="48.3892" lon="7.44545">
        <ele>200.3</ele>
        <time>2023-07-23T07:57:56Z</time>
      </trkpt>
      <trkpt lat="48.38914" lon="7.44541">
        <ele>200.3</ele>
        <time>2023-07-23T07:57:57Z</time>
      </trkpt>
      <trkpt lat="48.38907" lon="7.44537">
        <ele>200.3</ele>
        <time>2023-07-23T07:57:58Z</time>
      </trkpt>
      <trkpt lat="48.389" lon="7.44533">
        <ele>200.2</ele>
        <time>2023-07-23T07:57:59Z</time>
      </trkpt>
      <trkpt lat="48.38893" lon="7.44529">
        <ele>200.2</ele>
        <time>2023-07-23T07:58:00Z</time>
      </trkpt>
      <trkpt lat="48.38886" lon="7.44525">
        <ele>200.1</ele>
        <time>2023-07-23T07:58:01Z</time>
      </trkpt>
      <trkpt lat="48.3888" lon="7.44521">
        <ele>200.1</ele>
        <time>2023-07-23T07:58:02Z</time>
      </trkpt>
      <trkpt lat="48.38873" lon="7.44517">
        <ele>200.1</ele>
        <time>2023-07-23T07:58:03Z</time>
      </trkpt>
      <trkpt lat="48.38866" lon="7.44513">
        <ele>200.1</ele>
        <time>2023-07-23T07:58:04Z</time>
      </trkpt>
      <trkpt lat="48.38859" lon="7.44509">
        <ele>200.1</ele>
        <time>2023-07-23T07:58:05Z</time>
      </trkpt>
      <trkpt lat="48.38851" lon="7.44505">
        <ele>200.1</ele>
        <time>2023-07-23T07:58:06Z</time>
      </trkpt>
      <trkpt lat="48.38844" lon="7.44501">
        <ele>200</ele>
        <time>2023-07-23T07:58:07Z</time>
      </trkpt>
      <trkpt lat="48.38838" lon="7.44497">
        <ele>200</ele>
        <time>2023-07-23T07:58:08Z</time>
      </trkpt>
      <trkpt lat="48.38831" lon="7.44493">
        <ele>199.9</ele>
        <time>2023-07-23T07:58:09Z</time>
      </trkpt>
      <trkpt lat="48.38823" lon="7.44488">
        <ele>199.9</ele>
        <time>2023-07-23T07:58:10Z</time>
      </trkpt>
      <trkpt lat="48.38817" lon="7.44484">
        <ele>199.9</ele>
        <time>2023-07-23T07:58:11Z</time>
      </trkpt>
      <trkpt lat="48.3881" lon="7.4448">
        <ele>199.9</ele>
        <time>2023-07-23T07:58:12Z</time>
      </trkpt>
      <trkpt lat="48.38803" lon="7.44476">
        <ele>199.9</ele>
        <time>2023-07-23T07:58:13Z</time>
      </trkpt>
      <trkpt lat="48.38796" lon="7.44472">
        <ele>199.9</ele>
        <time>2023-07-23T07:58:14Z</time>
      </trkpt>
      <trkpt lat="48.38789" lon="7.44467">
        <ele>199.9</ele>
        <time>2023-07-23T07:58:15Z</time>
      </trkpt>
      <trkpt lat="48.38782" lon="7.44462">
        <ele>199.9</ele>
        <time>2023-07-23T07:58:16Z</time>
      </trkpt>
      <trkpt lat="48.38775" lon="7.44457">
        <ele>199.9</ele>
        <time>2023-07-23T07:58:17Z</time>
      </trkpt>
      <trkpt lat="48.38769" lon="7.44451">
        <ele>199.8</ele>
        <time>2023-07-23T07:58:18Z</time>
      </trkpt>
      <trkpt lat="48.38762" lon="7.44446">
        <ele>199.8</ele>
        <time>2023-07-23T07:58:19Z</time>
      </trkpt>
      <trkpt lat="48.38755" lon="7.4444">
        <ele>199.7</ele>
        <time>2023-07-23T07:58:20Z</time>
      </trkpt>
      <trkpt lat="48.38749" lon="7.44434">
        <ele>199.7</ele>
        <time>2023-07-23T07:58:21Z</time>
      </trkpt>
      <trkpt lat="48.38743" lon="7.44428">
        <ele>199.7</ele>
        <time>2023-07-23T07:58:22Z</time>
      </trkpt>
      <trkpt lat="48.38737" lon="7.44422">
        <ele>199.7</ele>
        <time>2023-07-23T07:58:23Z</time>
      </trkpt>
      <trkpt lat="48.3873" lon="7.44416">
        <ele>199.8</ele>
        <time>2023-07-23T07:58:24Z</time>
      </trkpt>
      <trkpt lat="48.38725" lon="7.44409">
        <ele>199.9</ele>
        <time>2023-07-23T07:58:25Z</time>
      </trkpt>
      <trkpt lat="48.38718" lon="7.44404">
        <ele>199.9</ele>
        <time>2023-07-23T07:58:26Z</time>
      </trkpt>
      <trkpt lat="48.38713" lon="7.44399">
        <ele>200</ele>
        <time>2023-07-23T07:58:27Z</time>
      </trkpt>
      <trkpt lat="48.38707" lon="7.44394">
        <ele>200</ele>
        <time>2023-07-23T07:58:28Z</time>
      </trkpt>
      <trkpt lat="48.38702" lon="7.44389">
        <ele>200.1</ele>
        <time>2023-07-23T07:58:29Z</time>
      </trkpt>
      <trkpt lat="48.38697" lon="7.44384">
        <ele>200.1</ele>
        <time>2023-07-23T07:58:30Z</time>
      </trkpt>
      <trkpt lat="48.38692" lon="7.44379">
        <ele>200.2</ele>
        <time>2023-07-23T07:58:31Z</time>
      </trkpt>
      <trkpt lat="48.38687" lon="7.44374">
        <ele>200.3</ele>
        <time>2023-07-23T07:58:32Z</time>
      </trkpt>
      <trkpt lat="48.38682" lon="7.4437">
        <ele>200.3</ele>
        <time>2023-07-23T07:58:33Z</time>
      </trkpt>
      <trkpt lat="48.38677" lon="7.44365">
        <ele>200.4</ele>
        <time>2023-07-23T07:58:34Z</time>
      </trkpt>
      <trkpt lat="48.38673" lon="7.44361">
        <ele>200.5</ele>
        <time>2023-07-23T07:58:35Z</time>
      </trkpt>
      <trkpt lat="48.38668" lon="7.44356">
        <ele>200.5</ele>
        <time>2023-07-23T07:58:36Z</time>
      </trkpt>
      <trkpt lat="48.38663" lon="7.44351">
        <ele>200.6</ele>
        <time>2023-07-23T07:58:37Z</time>
      </trkpt>
      <trkpt lat="48.3866" lon="7.44345">
        <ele>200.7</ele>
        <time>2023-07-23T07:58:38Z</time>
      </trkpt>
      <trkpt lat="48.38656" lon="7.44339">
        <ele>200.8</ele>
        <time>2023-07-23T07:58:39Z</time>
      </trkpt>
      <trkpt lat="48.38651" lon="7.44336">
        <ele>200.9</ele>
        <time>2023-07-23T07:58:40Z</time>
      </trkpt>
      <trkpt lat="48.38646" lon="7.44335">
        <ele>200.9</ele>
        <time>2023-07-23T07:58:41Z</time>
      </trkpt>
      <trkpt lat="48.38639" lon="7.44335">
        <ele>200.9</ele>
        <time>2023-07-23T07:58:42Z</time>
      </trkpt>
      <trkpt lat="48.38633" lon="7.44333">
        <ele>201</ele>
        <time>2023-07-23T07:58:43Z</time>
      </trkpt>
      <trkpt lat="48.38628" lon="7.4433">
        <ele>201.1</ele>
        <time>2023-07-23T07:58:44Z</time>
      </trkpt>
      <trkpt lat="48.38622" lon="7.44327">
        <ele>201.1</ele>
        <time>2023-07-23T07:58:45Z</time>
      </trkpt>
      <trkpt lat="48.38616" lon="7.44324">
        <ele>201.2</ele>
        <time>2023-07-23T07:58:46Z</time>
      </trkpt>
      <trkpt lat="48.3861" lon="7.44321">
        <ele>201.4</ele>
        <time>2023-07-23T07:58:47Z</time>
      </trkpt>
      <trkpt lat="48.38605" lon="7.44318">
        <ele>201.5</ele>
        <time>2023-07-23T07:58:48Z</time>
      </trkpt>
      <trkpt lat="48.38599" lon="7.44316">
        <ele>201.6</ele>
        <time>2023-07-23T07:58:49Z</time>
      </trkpt>
      <trkpt lat="48.38594" lon="7.44313">
        <ele>201.7</ele>
        <time>2023-07-23T07:58:50Z</time>
      </trkpt>
      <trkpt lat="48.38588" lon="7.44312">
        <ele>201.8</ele>
        <time>2023-07-23T07:58:51Z</time>
      </trkpt>
      <trkpt lat="48.38582" lon="7.4431">
        <ele>201.9</ele>
        <time>2023-07-23T07:58:52Z</time>
      </trkpt>
      <trkpt lat="48.38576" lon="7.44309">
        <ele>201.9</ele>
        <time>2023-07-23T07:58:53Z</time>
      </trkpt>
      <trkpt lat="48.3857" lon="7.44308">
        <ele>202</ele>
        <time>2023-07-23T07:58:54Z</time>
      </trkpt>
      <trkpt lat="48.38564" lon="7.44308">
        <ele>202.1</ele>
        <time>2023-07-23T07:58:55Z</time>
      </trkpt>
      <trkpt lat="48.38558" lon="7.44308">
        <ele>202.2</ele>
        <time>2023-07-23T07:58:56Z</time>
      </trkpt>
      <trkpt lat="48.38552" lon="7.44307">
        <ele>202.4</ele>
        <time>2023-07-23T07:58:57Z</time>
      </trkpt>
      <trkpt lat="48.38546" lon="7.44308">
        <ele>202.5</ele>
        <time>2023-07-23T07:58:58Z</time>
      </trkpt>
      <trkpt lat="48.3854" lon="7.44307">
        <ele>202.6</ele>
        <time>2023-07-23T07:58:59Z</time>
      </trkpt>
      <trkpt lat="48.38535" lon="7.44306">
        <ele>202.7</ele>
        <time>2023-07-23T07:59:00Z</time>
      </trkpt>
      <trkpt lat="48.38529" lon="7.44306">
        <ele>202.9</ele>
        <time>2023-07-23T07:59:01Z</time>
      </trkpt>
      <trkpt lat="48.38524" lon="7.44305">
        <ele>203</ele>
        <time>2023-07-23T07:59:02Z</time>
      </trkpt>
      <trkpt lat="48.38518" lon="7.44305">
        <ele>203.2</ele>
        <time>2023-07-23T07:59:03Z</time>
      </trkpt>
      <trkpt lat="48.38512" lon="7.44304">
        <ele>203.4</ele>
        <time>2023-07-23T07:59:04Z</time>
      </trkpt>
      <trkpt lat="48.38507" lon="7.44304">
        <ele>203.6</ele>
        <time>2023-07-23T07:59:05Z</time>
      </trkpt>
      <trkpt lat="48.38502" lon="7.44304">
        <ele>203.8</ele>
        <time>2023-07-23T07:59:06Z</time>
      </trkpt>
      <trkpt lat="48.38497" lon="7.44303">
        <ele>203.9</ele>
        <time>2023-07-23T07:59:07Z</time>
      </trkpt>
      <trkpt lat="48.38492" lon="7.44303">
        <ele>204.1</ele>
        <time>2023-07-23T07:59:08Z</time>
      </trkpt>
      <trkpt lat="48.38487" lon="7.44303">
        <ele>204.3</ele>
        <time>2023-07-23T07:59:09Z</time>
      </trkpt>
      <trkpt lat="48.38482" lon="7.44303">
        <ele>204.5</ele>
        <time>2023-07-23T07:59:10Z</time>
      </trkpt>
      <trkpt lat="48.38478" lon="7.44302">
        <ele>204.6</ele>
        <time>2023-07-23T07:59:11Z</time>
      </trkpt>
      <trkpt lat="48.38473" lon="7.44302">
        <ele>204.8</ele>
        <time>2023-07-23T07:59:12Z</time>
      </trkpt>
      <trkpt lat="48.38469" lon="7.44301">
        <ele>205</ele>
        <time>2023-07-23T07:59:13Z</time>
      </trkpt>
      <trkpt lat="48.38465" lon="7.44301">
        <ele>205.2</ele>
        <time>2023-07-23T07:59:14Z</time>
      </trkpt>
      <trkpt lat="48.3846" lon="7.443">
        <ele>205.4</ele>
        <time>2023-07-23T07:59:15Z</time>
      </trkpt>
      <trkpt lat="48.38456" lon="7.443">
        <ele>205.5</ele>
        <time>2023-07-23T07:59:16Z</time>
      </trkpt>
      <trkpt lat="48.38452" lon="7.44299">
        <ele>205.7</ele>
        <time>2023-07-23T07:59:17Z</time>
      </trkpt>
      <trkpt lat="48.38448" lon="7.44298">
        <ele>205.9</ele>
        <time>2023-07-23T07:59:18Z</time>
      </trkpt>
      <trkpt lat="48.38445" lon="7.44297">
        <ele>206</ele>
        <time>2023-07-23T07:59:19Z</time>
      </trkpt>
      <trkpt lat="48.38441" lon="7.44297">
        <ele>206.2</ele>
        <time>2023-07-23T07:59:20Z</time>
      </trkpt>
      <trkpt lat="48.38437" lon="7.44296">
        <ele>206.4</ele>
        <time>2023-07-23T07:59:21Z</time>
      </trkpt>
      <trkpt lat="48.38434" lon="7.44295">
        <ele>206.5</ele>
        <time>2023-07-23T07:59:22Z</time>
      </trkpt>
      <trkpt lat="48.3843" lon="7.44294">
        <ele>206.7</ele>
        <time>2023-07-23T07:59:23Z</time>
      </trkpt>
      <trkpt lat="48.38428" lon="7.44293">
        <ele>206.8</ele>
        <time>2023-07-23T07:59:24Z</time>
      </trkpt>
      <trkpt lat="48.38424" lon="7.44291">
        <ele>206.9</ele>
        <time>2023-07-23T07:59:25Z</time>
      </trkpt>
      <trkpt lat="48.38421" lon="7.44289">
        <ele>207</ele>
        <time>2023-07-23T07:59:26Z</time>
      </trkpt>
      <trkpt lat="48.38418" lon="7.44286">
        <ele>207.2</ele>
        <time>2023-07-23T07:59:27Z</time>
      </trkpt>
      <trkpt lat="48.38415" lon="7.44283">
        <ele>207.3</ele>
        <time>2023-07-23T07:59:28Z</time>
      </trkpt>
      <trkpt lat="48.38411" lon="7.4428">
        <ele>207.5</ele>
        <time>2023-07-23T07:59:29Z</time>
      </trkpt>
      <trkpt lat="48.38408" lon="7.44276">
        <ele>207.6</ele>
        <time>2023-07-23T07:59:30Z</time>
      </trkpt>
      <trkpt lat="48.38406" lon="7.44271">
        <ele>207.8</ele>
        <time>2023-07-23T07:59:31Z</time>
      </trkpt>
      <trkpt lat="48.38403" lon="7.44266">
        <ele>207.9</ele>
        <time>2023-07-23T07:59:32Z</time>
      </trkpt>
      <trkpt lat="48.384" lon="7.44262">
        <ele>208.1</ele>
        <time>2023-07-23T07:59:33Z</time>
      </trkpt>
      <trkpt lat="48.38397" lon="7.44257">
        <ele>208.2</ele>
        <time>2023-07-23T07:59:34Z</time>
      </trkpt>
      <trkpt lat="48.38395" lon="7.44251">
        <ele>208.4</ele>
        <time>2023-07-23T07:59:35Z</time>
      </trkpt>
      <trkpt lat="48.38392" lon="7.44245">
        <ele>208.5</ele>
        <time>2023-07-23T07:59:36Z</time>
      </trkpt>
      <trkpt lat="48.3839" lon="7.44239">
        <ele>208.7</ele>
        <time>2023-07-23T07:59:37Z</time>
      </trkpt>
      <trkpt lat="48.38388" lon="7.44232">
        <ele>208.8</ele>
        <time>2023-07-23T07:59:38Z</time>
      </trkpt>
      <trkpt lat="48.38386" lon="7.44226">
        <ele>208.9</ele>
        <time>2023-07-23T07:59:39Z</time>
      </trkpt>
      <trkpt lat="48.38383" lon="7.4422">
        <ele>208.9</ele>
        <time>2023-07-23T07:59:40Z</time>
      </trkpt>
      <trkpt lat="48.3838" lon="7.44213">
        <ele>209</ele>
        <time>2023-07-23T07:59:41Z</time>
      </trkpt>
      <trkpt lat="48.38378" lon="7.44207">
        <ele>209.1</ele>
        <time>2023-07-23T07:59:42Z</time>
      </trkpt>
      <trkpt lat="48.38375" lon="7.442">
        <ele>209.2</ele>
        <time>2023-07-23T07:59:43Z</time>
      </trkpt>
      <trkpt lat="48.38373" lon="7.44193">
        <ele>209.4</ele>
        <time>2023-07-23T07:59:44Z</time>
      </trkpt>
      <trkpt lat="48.3837" lon="7.44186">
        <ele>209.5</ele>
        <time>2023-07-23T07:59:45Z</time>
      </trkpt>
      <trkpt lat="48.38367" lon="7.4418">
        <ele>209.6</ele>
        <time>2023-07-23T07:59:46Z</time>
      </trkpt>
      <trkpt lat="48.38364" lon="7.44174">
        <ele>209.7</ele>
        <time>2023-07-23T07:59:47Z</time>
      </trkpt>
      <trkpt lat="48.38361" lon="7.44168">
        <ele>209.8</ele>
        <time>2023-07-23T07:59:48Z</time>
      </trkpt>
      <trkpt lat="48.38358" lon="7.44163">
        <ele>209.9</ele>
        <time>2023-07-23T07:59:49Z</time>
      </trkpt>
      <trkpt lat="48.38355" lon="7.44158">
        <ele>210</ele>
        <time>2023-07-23T07:59:50Z</time>
      </trkpt>
      <trkpt lat="48.38352" lon="7.44153">
        <ele>210.1</ele>
        <time>2023-07-23T07:59:51Z</time>
      </trkpt>
      <trkpt lat="48.38348" lon="7.44148">
        <ele>210.2</ele>
        <time>2023-07-23T07:59:52Z</time>
      </trkpt>
      <trkpt lat="48.38345" lon="7.44143">
        <ele>210.4</ele>
        <time>2023-07-23T07:59:53Z</time>
      </trkpt>
      <trkpt lat="48.38341" lon="7.44139">
        <ele>210.5</ele>
        <time>2023-07-23T07:59:54Z</time>
      </trkpt>
      <trkpt lat="48.38336" lon="7.44136">
        <ele>210.6</ele>
        <time>2023-07-23T07:59:55Z</time>
      </trkpt>
      <trkpt lat="48.38331" lon="7.44134">
        <ele>210.8</ele>
        <time>2023-07-23T07:59:56Z</time>
      </trkpt>
      <trkpt lat="48.38327" lon="7.44132">
        <ele>210.9</ele>
        <time>2023-07-23T07:59:57Z</time>
      </trkpt>
      <trkpt lat="48.38323" lon="7.4413">
        <ele>211</ele>
        <time>2023-07-23T07:59:59Z</time>
      </trkpt>
      <trkpt lat="48.38318" lon="7.44128">
        <ele>211.2</ele>
        <time>2023-07-23T08:00:00Z</time>
      </trkpt>
      <trkpt lat="48.38314" lon="7.44125">
        <ele>211.3</ele>
        <time>2023-07-23T08:00:01Z</time>
      </trkpt>
      <trkpt lat="48.38309" lon="7.44123">
        <ele>211.4</ele>
        <time>2023-07-23T08:00:02Z</time>
      </trkpt>
      <trkpt lat="48.38305" lon="7.44121">
        <ele>211.5</ele>
        <time>2023-07-23T08:00:03Z</time>
      </trkpt>
      <trkpt lat="48.38301" lon="7.44119">
        <ele>211.6</ele>
        <time>2023-07-23T08:00:04Z</time>
      </trkpt>
      <trkpt lat="48.38296" lon="7.44116">
        <ele>211.7</ele>
        <time>2023-07-23T08:00:05Z</time>
      </trkpt>
      <trkpt lat="48.38292" lon="7.44115">
        <ele>211.8</ele>
        <time>2023-07-23T08:00:06Z</time>
      </trkpt>
      <trkpt lat="48.38287" lon="7.44112">
        <ele>212</ele>
        <time>2023-07-23T08:00:07Z</time>
      </trkpt>
      <trkpt lat="48.38282" lon="7.44109">
        <ele>212.1</ele>
        <time>2023-07-23T08:00:08Z</time>
      </trkpt>
      <trkpt lat="48.38278" lon="7.44106">
        <ele>212.2</ele>
        <time>2023-07-23T08:00:09Z</time>
      </trkpt>
      <trkpt lat="48.38273" lon="7.44104">
        <ele>212.3</ele>
        <time>2023-07-23T08:00:10Z</time>
      </trkpt>
      <trkpt lat="48.38269" lon="7.44101">
        <ele>212.4</ele>
        <time>2023-07-23T08:00:11Z</time>
      </trkpt>
      <trkpt lat="48.38264" lon="7.44098">
        <ele>212.4</ele>
        <time>2023-07-23T08:00:12Z</time>
      </trkpt>
      <trkpt lat="48.38259" lon="7.44095">
        <ele>212.5</ele>
        <time>2023-07-23T08:00:13Z</time>
      </trkpt>
      <trkpt lat="48.38255" lon="7.44093">
        <ele>212.6</ele>
        <time>2023-07-23T08:00:14Z</time>
      </trkpt>
      <trkpt lat="48.3825" lon="7.44089">
        <ele>212.7</ele>
        <time>2023-07-23T08:00:15Z</time>
      </trkpt>
      <trkpt lat="48.38245" lon="7.44086">
        <ele>212.8</ele>
        <time>2023-07-23T08:00:16Z</time>
      </trkpt>
      <trkpt lat="48.38241" lon="7.44083">
        <ele>212.8</ele>
        <time>2023-07-23T08:00:17Z</time>
      </trkpt>
      <trkpt lat="48.38236" lon="7.44079">
        <ele>212.9</ele>
        <time>2023-07-23T08:00:18Z</time>
      </trkpt>
      <trkpt lat="48.38227" lon="7.44073">
        <ele>213</ele>
        <time>2023-07-23T08:00:19Z</time>
      </trkpt>
      <trkpt lat="48.38222" lon="7.44069">
        <ele>213</ele>
        <time>2023-07-23T08:00:20Z</time>
      </trkpt>
      <trkpt lat="48.38217" lon="7.44065">
        <ele>213.1</ele>
        <time>2023-07-23T08:00:21Z</time>
      </trkpt>
      <trkpt lat="48.38212" lon="7.44061">
        <ele>213.1</ele>
        <time>2023-07-23T08:00:22Z</time>
      </trkpt>
      <trkpt lat="48.38207" lon="7.44056">
        <ele>213.2</ele>
        <time>2023-07-23T08:00:23Z</time>
      </trkpt>
      <trkpt lat="48.38203" lon="7.44052">
        <ele>213.3</ele>
        <time>2023-07-23T08:00:24Z</time>
      </trkpt>
      <trkpt lat="48.38198" lon="7.44048">
        <ele>213.4</ele>
        <time>2023-07-23T08:00:25Z</time>
      </trkpt>
      <trkpt lat="48.38193" lon="7.44044">
        <ele>213.4</ele>
        <time>2023-07-23T08:00:26Z</time>
      </trkpt>
      <trkpt lat="48.38189" lon="7.4404">
        <ele>213.5</ele>
        <time>2023-07-23T08:00:27Z</time>
      </trkpt>
      <trkpt lat="48.38184" lon="7.44035">
        <ele>213.6</ele>
        <time>2023-07-23T08:00:28Z</time>
      </trkpt>
      <trkpt lat="48.3818" lon="7.44031">
        <ele>213.7</ele>
        <time>2023-07-23T08:00:29Z</time>
      </trkpt>
      <trkpt lat="48.38176" lon="7.44026">
        <ele>213.8</ele>
        <time>2023-07-23T08:00:30Z</time>
      </trkpt>
      <trkpt lat="48.38172" lon="7.44021">
        <ele>213.9</ele>
        <time>2023-07-23T08:00:31Z</time>
      </trkpt>
      <trkpt lat="48.38167" lon="7.44016">
        <ele>214</ele>
        <time>2023-07-23T08:00:32Z</time>
      </trkpt>
      <trkpt lat="48.38163" lon="7.44012">
        <ele>214</ele>
        <time>2023-07-23T08:00:33Z</time>
      </trkpt>
      <trkpt lat="48.38158" lon="7.44008">
        <ele>214.1</ele>
        <time>2023-07-23T08:00:34Z</time>
      </trkpt>
      <trkpt lat="48.38154" lon="7.44004">
        <ele>214.2</ele>
        <time>2023-07-23T08:00:35Z</time>
      </trkpt>
      <trkpt lat="48.38149" lon="7.44001">
        <ele>214.3</ele>
        <time>2023-07-23T08:00:36Z</time>
      </trkpt>
      <trkpt lat="48.38144" lon="7.43998">
        <ele>214.4</ele>
        <time>2023-07-23T08:00:37Z</time>
      </trkpt>
      <trkpt lat="48.38139" lon="7.43995">
        <ele>214.5</ele>
        <time>2023-07-23T08:00:38Z</time>
      </trkpt>
      <trkpt lat="48.38135" lon="7.43993">
        <ele>214.6</ele>
        <time>2023-07-23T08:00:39Z</time>
      </trkpt>
      <trkpt lat="48.38131" lon="7.43991">
        <ele>214.7</ele>
        <time>2023-07-23T08:00:40Z</time>
      </trkpt>
      <trkpt lat="48.38126" lon="7.43989">
        <ele>214.8</ele>
        <time>2023-07-23T08:00:41Z</time>
      </trkpt>
      <trkpt lat="48.38121" lon="7.43987">
        <ele>214.9</ele>
        <time>2023-07-23T08:00:42Z</time>
      </trkpt>
      <trkpt lat="48.38116" lon="7.43985">
        <ele>215.1</ele>
        <time>2023-07-23T08:00:43Z</time>
      </trkpt>
      <trkpt lat="48.38111" lon="7.43984">
        <ele>215.2</ele>
        <time>2023-07-23T08:00:44Z</time>
      </trkpt>
      <trkpt lat="48.38106" lon="7.43983">
        <ele>215.2</ele>
        <time>2023-07-23T08:00:45Z</time>
      </trkpt>
      <trkpt lat="48.38101" lon="7.43982">
        <ele>215.2</ele>
        <time>2023-07-23T08:00:46Z</time>
      </trkpt>
      <trkpt lat="48.38096" lon="7.43982">
        <ele>215.3</ele>
        <time>2023-07-23T08:00:47Z</time>
      </trkpt>
      <trkpt lat="48.38091" lon="7.43981">
        <ele>215.5</ele>
        <time>2023-07-23T08:00:48Z</time>
      </trkpt>
      <trkpt lat="48.38086" lon="7.43981">
        <ele>215.6</ele>
        <time>2023-07-23T08:00:49Z</time>
      </trkpt>
      <trkpt lat="48.38081" lon="7.43981">
        <ele>215.7</ele>
        <time>2023-07-23T08:00:50Z</time>
      </trkpt>
      <trkpt lat="48.38077" lon="7.43981">
        <ele>215.8</ele>
        <time>2023-07-23T08:00:51Z</time>
      </trkpt>
      <trkpt lat="48.38072" lon="7.4398">
        <ele>216</ele>
        <time>2023-07-23T08:00:52Z</time>
      </trkpt>
      <trkpt lat="48.38068" lon="7.4398">
        <ele>216.1</ele>
        <time>2023-07-23T08:00:53Z</time>
      </trkpt>
      <trkpt lat="48.38063" lon="7.4398">
        <ele>216.3</ele>
        <time>2023-07-23T08:00:54Z</time>
      </trkpt>
      <trkpt lat="48.38059" lon="7.43981">
        <ele>216.5</ele>
        <time>2023-07-23T08:00:55Z</time>
      </trkpt>
      <trkpt lat="48.38054" lon="7.4398">
        <ele>216.6</ele>
        <time>2023-07-23T08:00:56Z</time>
      </trkpt>
      <trkpt lat="48.3805" lon="7.4398">
        <ele>216.8</ele>
        <time>2023-07-23T08:00:57Z</time>
      </trkpt>
      <trkpt lat="48.38045" lon="7.4398">
        <ele>217</ele>
        <time>2023-07-23T08:00:58Z</time>
      </trkpt>
      <trkpt lat="48.38041" lon="7.4398">
        <ele>217.2</ele>
        <time>2023-07-23T08:00:59Z</time>
      </trkpt>
      <trkpt lat="48.38037" lon="7.4398">
        <ele>217.4</ele>
        <time>2023-07-23T08:01:00Z</time>
      </trkpt>
      <trkpt lat="48.38033" lon="7.43981">
        <ele>217.6</ele>
        <time>2023-07-23T08:01:01Z</time>
      </trkpt>
      <trkpt lat="48.38028" lon="7.43981">
        <ele>217.8</ele>
        <time>2023-07-23T08:01:02Z</time>
      </trkpt>
      <trkpt lat="48.38023" lon="7.43981">
        <ele>218</ele>
        <time>2023-07-23T08:01:03Z</time>
      </trkpt>
      <trkpt lat="48.38019" lon="7.43982">
        <ele>218.2</ele>
        <time>2023-07-23T08:01:04Z</time>
      </trkpt>
      <trkpt lat="48.38015" lon="7.43982">
        <ele>218.4</ele>
        <time>2023-07-23T08:01:05Z</time>
      </trkpt>
      <trkpt lat="48.3801" lon="7.43982">
        <ele>218.6</ele>
        <time>2023-07-23T08:01:06Z</time>
      </trkpt>
      <trkpt lat="48.38006" lon="7.43983">
        <ele>218.8</ele>
        <time>2023-07-23T08:01:07Z</time>
      </trkpt>
      <trkpt lat="48.38002" lon="7.43983">
        <ele>219</ele>
        <time>2023-07-23T08:01:08Z</time>
      </trkpt>
      <trkpt lat="48.37997" lon="7.43984">
        <ele>219.2</ele>
        <time>2023-07-23T08:01:09Z</time>
      </trkpt>
      <trkpt lat="48.37993" lon="7.43984">
        <ele>219.4</ele>
        <time>2023-07-23T08:01:10Z</time>
      </trkpt>
      <trkpt lat="48.37989" lon="7.43984">
        <ele>219.6</ele>
        <time>2023-07-23T08:01:11Z</time>
      </trkpt>
      <trkpt lat="48.37984" lon="7.43984">
        <ele>219.8</ele>
        <time>2023-07-23T08:01:12Z</time>
      </trkpt>
      <trkpt lat="48.37979" lon="7.43985">
        <ele>220</ele>
        <time>2023-07-23T08:01:13Z</time>
      </trkpt>
      <trkpt lat="48.37975" lon="7.43986">
        <ele>220.2</ele>
        <time>2023-07-23T08:01:14Z</time>
      </trkpt>
      <trkpt lat="48.37971" lon="7.43986">
        <ele>220.4</ele>
        <time>2023-07-23T08:01:15Z</time>
      </trkpt>
      <trkpt lat="48.37967" lon="7.43986">
        <ele>220.6</ele>
        <time>2023-07-23T08:01:16Z</time>
      </trkpt>
      <trkpt lat="48.37963" lon="7.43986">
        <ele>220.8</ele>
        <time>2023-07-23T08:01:17Z</time>
      </trkpt>
      <trkpt lat="48.37958" lon="7.43986">
        <ele>221</ele>
        <time>2023-07-23T08:01:18Z</time>
      </trkpt>
      <trkpt lat="48.37954" lon="7.43987">
        <ele>221.2</ele>
        <time>2023-07-23T08:01:19Z</time>
      </trkpt>
      <trkpt lat="48.3795" lon="7.43987">
        <ele>221.4</ele>
        <time>2023-07-23T08:01:20Z</time>
      </trkpt>
      <trkpt lat="48.37947" lon="7.43987">
        <ele>221.6</ele>
        <time>2023-07-23T08:01:21Z</time>
      </trkpt>
      <trkpt lat="48.37943" lon="7.43987">
        <ele>221.8</ele>
        <time>2023-07-23T08:01:22Z</time>
      </trkpt>
      <trkpt lat="48.37939" lon="7.43987">
        <ele>221.9</ele>
        <time>2023-07-23T08:01:23Z</time>
      </trkpt>
      <trkpt lat="48.37935" lon="7.43987">
        <ele>222.1</ele>
        <time>2023-07-23T08:01:24Z</time>
      </trkpt>
      <trkpt lat="48.37931" lon="7.43987">
        <ele>222.3</ele>
        <time>2023-07-23T08:01:25Z</time>
      </trkpt>
      <trkpt lat="48.37927" lon="7.43987">
        <ele>222.4</ele>
        <time>2023-07-23T08:01:26Z</time>
      </trkpt>
      <trkpt lat="48.37923" lon="7.43987">
        <ele>222.6</ele>
        <time>2023-07-23T08:01:27Z</time>
      </trkpt>
      <trkpt lat="48.3792" lon="7.43987">
        <ele>222.7</ele>
        <time>2023-07-23T08:01:28Z</time>
      </trkpt>
      <trkpt lat="48.37916" lon="7.43987">
        <ele>222.9</ele>
        <time>2023-07-23T08:01:29Z</time>
      </trkpt>
      <trkpt lat="48.37912" lon="7.43986">
        <ele>223.1</ele>
        <time>2023-07-23T08:01:30Z</time>
      </trkpt>
      <trkpt lat="48.37908" lon="7.43986">
        <ele>223.2</ele>
        <time>2023-07-23T08:01:31Z</time>
      </trkpt>
      <trkpt lat="48.37905" lon="7.43985">
        <ele>223.4</ele>
        <time>2023-07-23T08:01:32Z</time>
      </trkpt>
      <trkpt lat="48.37901" lon="7.43985">
        <ele>223.5</ele>
        <time>2023-07-23T08:01:33Z</time>
      </trkpt>
      <trkpt lat="48.37897" lon="7.43984">
        <ele>223.7</ele>
        <time>2023-07-23T08:01:34Z</time>
      </trkpt>
      <trkpt lat="48.37893" lon="7.43984">
        <ele>223.8</ele>
        <time>2023-07-23T08:01:35Z</time>
      </trkpt>
      <trkpt lat="48.3789" lon="7.43983">
        <ele>224</ele>
        <time>2023-07-23T08:01:36Z</time>
      </trkpt>
      <trkpt lat="48.37886" lon="7.43983">
        <ele>224.1</ele>
        <time>2023-07-23T08:01:37Z</time>
      </trkpt>
      <trkpt lat="48.37882" lon="7.43982">
        <ele>224.3</ele>
        <time>2023-07-23T08:01:38Z</time>
      </trkpt>
      <trkpt lat="48.37878" lon="7.43982">
        <ele>224.4</ele>
        <time>2023-07-23T08:01:39Z</time>
      </trkpt>
      <trkpt lat="48.37874" lon="7.43981">
        <ele>224.6</ele>
        <time>2023-07-23T08:01:40Z</time>
      </trkpt>
      <trkpt lat="48.3787" lon="7.4398">
        <ele>224.7</ele>
        <time>2023-07-23T08:01:41Z</time>
      </trkpt>
      <trkpt lat="48.37866" lon="7.4398">
        <ele>224.9</ele>
        <time>2023-07-23T08:01:42Z</time>
      </trkpt>
      <trkpt lat="48.37863" lon="7.43979">
        <ele>225</ele>
        <time>2023-07-23T08:01:43Z</time>
      </trkpt>
      <trkpt lat="48.37859" lon="7.43978">
        <ele>225.2</ele>
        <time>2023-07-23T08:01:44Z</time>
      </trkpt>
      <trkpt lat="48.37855" lon="7.43977">
        <ele>225.3</ele>
        <time>2023-07-23T08:01:45Z</time>
      </trkpt>
      <trkpt lat="48.37851" lon="7.43977">
        <ele>225.5</ele>
        <time>2023-07-23T08:01:46Z</time>
      </trkpt>
      <trkpt lat="48.37847" lon="7.43976">
        <ele>225.6</ele>
        <time>2023-07-23T08:01:47Z</time>
      </trkpt>
      <trkpt lat="48.37844" lon="7.43975">
        <ele>225.8</ele>
        <time>2023-07-23T08:01:48Z</time>
      </trkpt>
      <trkpt lat="48.3784" lon="7.43974">
        <ele>226</ele>
        <time>2023-07-23T08:01:49Z</time>
      </trkpt>
      <trkpt lat="48.37836" lon="7.43974">
        <ele>226.1</ele>
        <time>2023-07-23T08:01:50Z</time>
      </trkpt>
      <trkpt lat="48.37833" lon="7.43973">
        <ele>226.3</ele>
        <time>2023-07-23T08:01:51Z</time>
      </trkpt>
      <trkpt lat="48.3783" lon="7.43972">
        <ele>226.5</ele>
        <time>2023-07-23T08:01:52Z</time>
      </trkpt>
      <trkpt lat="48.37826" lon="7.43971">
        <ele>226.6</ele>
        <time>2023-07-23T08:01:53Z</time>
      </trkpt>
      <trkpt lat="48.37822" lon="7.4397">
        <ele>226.8</ele>
        <time>2023-07-23T08:01:54Z</time>
      </trkpt>
      <trkpt lat="48.37819" lon="7.43969">
        <ele>227</ele>
        <time>2023-07-23T08:01:55Z</time>
      </trkpt>
      <trkpt lat="48.37815" lon="7.43968">
        <ele>227.1</ele>
        <time>2023-07-23T08:01:56Z</time>
      </trkpt>
      <trkpt lat="48.37811" lon="7.43966">
        <ele>227.3</ele>
        <time>2023-07-23T08:01:57Z</time>
      </trkpt>
      <trkpt lat="48.37808" lon="7.43965">
        <ele>227.5</ele>
        <time>2023-07-23T08:01:58Z</time>
      </trkpt>
      <trkpt lat="48.37804" lon="7.43963">
        <ele>227.7</ele>
        <time>2023-07-23T08:01:59Z</time>
      </trkpt>
      <trkpt lat="48.37801" lon="7.43961">
        <ele>227.9</ele>
        <time>2023-07-23T08:02:00Z</time>
      </trkpt>
      <trkpt lat="48.37797" lon="7.43959">
        <ele>228.1</ele>
        <time>2023-07-23T08:02:01Z</time>
      </trkpt>
      <trkpt lat="48.37794" lon="7.43957">
        <ele>228.3</ele>
        <time>2023-07-23T08:02:02Z</time>
      </trkpt>
      <trkpt lat="48.3779" lon="7.43956">
        <ele>228.5</ele>
        <time>2023-07-23T08:02:03Z</time>
      </trkpt>
      <trkpt lat="48.37787" lon="7.43954">
        <ele>228.7</ele>
        <time>2023-07-23T08:02:05Z</time>
      </trkpt>
      <trkpt lat="48.37783" lon="7.43953">
        <ele>228.9</ele>
        <time>2023-07-23T08:02:06Z</time>
      </trkpt>
      <trkpt lat="48.3778" lon="7.43951">
        <ele>229.1</ele>
        <time>2023-07-23T08:02:07Z</time>
      </trkpt>
      <trkpt lat="48.37776" lon="7.43949">
        <ele>229.3</ele>
        <time>2023-07-23T08:02:08Z</time>
      </trkpt>
      <trkpt lat="48.37773" lon="7.43947">
        <ele>229.5</ele>
        <time>2023-07-23T08:02:09Z</time>
      </trkpt>
      <trkpt lat="48.37769" lon="7.43946">
        <ele>229.7</ele>
        <time>2023-07-23T08:02:10Z</time>
      </trkpt>
      <trkpt lat="48.37766" lon="7.43944">
        <ele>229.8</ele>
        <time>2023-07-23T08:02:11Z</time>
      </trkpt>
      <trkpt lat="48.37763" lon="7.43943">
        <ele>230</ele>
        <time>2023-07-23T08:02:12Z</time>
      </trkpt>
      <trkpt lat="48.37759" lon="7.43941">
        <ele>230.2</ele>
        <time>2023-07-23T08:02:13Z</time>
      </trkpt>
      <trkpt lat="48.37756" lon="7.43939">
        <ele>230.4</ele>
        <time>2023-07-23T08:02:14Z</time>
      </trkpt>
      <trkpt lat="48.37752" lon="7.43938">
        <ele>230.6</ele>
        <time>2023-07-23T08:02:15Z</time>
      </trkpt>
      <trkpt lat="48.37749" lon="7.43936">
        <ele>230.7</ele>
        <time>2023-07-23T08:02:16Z</time>
      </trkpt>
      <trkpt lat="48.37745" lon="7.43935">
        <ele>230.9</ele>
        <time>2023-07-23T08:02:17Z</time>
      </trkpt>
      <trkpt lat="48.37742" lon="7.43933">
        <ele>231.1</ele>
        <time>2023-07-23T08:02:18Z</time>
      </trkpt>
      <trkpt lat="48.37739" lon="7.43932">
        <ele>231.3</ele>
        <time>2023-07-23T08:02:19Z</time>
      </trkpt>
      <trkpt lat="48.37735" lon="7.4393">
        <ele>231.4</ele>
        <time>2023-07-23T08:02:20Z</time>
      </trkpt>
      <trkpt lat="48.37732" lon="7.43928">
        <ele>231.6</ele>
        <time>2023-07-23T08:02:21Z</time>
      </trkpt>
      <trkpt lat="48.37725" lon="7.43924">
        <ele>232</ele>
        <time>2023-07-23T08:02:22Z</time>
      </trkpt>
      <trkpt lat="48.37721" lon="7.43923">
        <ele>232.2</ele>
        <time>2023-07-23T08:02:23Z</time>
      </trkpt>
      <trkpt lat="48.37718" lon="7.43921">
        <ele>232.3</ele>
        <time>2023-07-23T08:02:24Z</time>
      </trkpt>
      <trkpt lat="48.37714" lon="7.43919">
        <ele>232.5</ele>
        <time>2023-07-23T08:02:25Z</time>
      </trkpt>
      <trkpt lat="48.37711" lon="7.43917">
        <ele>232.7</ele>
        <time>2023-07-23T08:02:26Z</time>
      </trkpt>
      <trkpt lat="48.37708" lon="7.43916">
        <ele>232.9</ele>
        <time>2023-07-23T08:02:27Z</time>
      </trkpt>
      <trkpt lat="48.37705" lon="7.43914">
        <ele>233.1</ele>
        <time>2023-07-23T08:02:28Z</time>
      </trkpt>
      <trkpt lat="48.37701" lon="7.43913">
        <ele>233.3</ele>
        <time>2023-07-23T08:02:29Z</time>
      </trkpt>
      <trkpt lat="48.37698" lon="7.43911">
        <ele>233.5</ele>
        <time>2023-07-23T08:02:30Z</time>
      </trkpt>
      <trkpt lat="48.37695" lon="7.4391">
        <ele>233.7</ele>
        <time>2023-07-23T08:02:31Z</time>
      </trkpt>
      <trkpt lat="48.37692" lon="7.43908">
        <ele>233.9</ele>
        <time>2023-07-23T08:02:32Z</time>
      </trkpt>
      <trkpt lat="48.37688" lon="7.43907">
        <ele>234.1</ele>
        <time>2023-07-23T08:02:33Z</time>
      </trkpt>
      <trkpt lat="48.37685" lon="7.43905">
        <ele>234.3</ele>
        <time>2023-07-23T08:02:34Z</time>
      </trkpt>
      <trkpt lat="48.37682" lon="7.43903">
        <ele>234.6</ele>
        <time>2023-07-23T08:02:35Z</time>
      </trkpt>
      <trkpt lat="48.37678" lon="7.43901">
        <ele>234.8</ele>
        <time>2023-07-23T08:02:36Z</time>
      </trkpt>
      <trkpt lat="48.37675" lon="7.439">
        <ele>235</ele>
        <time>2023-07-23T08:02:37Z</time>
      </trkpt>
      <trkpt lat="48.37671" lon="7.43898">
        <ele>235.3</ele>
        <time>2023-07-23T08:02:38Z</time>
      </trkpt>
      <trkpt lat="48.37668" lon="7.43897">
        <ele>235.5</ele>
        <time>2023-07-23T08:02:39Z</time>
      </trkpt>
      <trkpt lat="48.37664" lon="7.43895">
        <ele>235.7</ele>
        <time>2023-07-23T08:02:40Z</time>
      </trkpt>
      <trkpt lat="48.37661" lon="7.43894">
        <ele>236</ele>
        <time>2023-07-23T08:02:41Z</time>
      </trkpt>
      <trkpt lat="48.37658" lon="7.43892">
        <ele>236.2</ele>
        <time>2023-07-23T08:02:42Z</time>
      </trkpt>
      <trkpt lat="48.37654" lon="7.4389">
        <ele>236.4</ele>
        <time>2023-07-23T08:02:43Z</time>
      </trkpt>
      <trkpt lat="48.37651" lon="7.43889">
        <ele>236.7</ele>
        <time>2023-07-23T08:02:44Z</time>
      </trkpt>
      <trkpt lat="48.37648" lon="7.43887">
        <ele>236.9</ele>
        <time>2023-07-23T08:02:45Z</time>
      </trkpt>
      <trkpt lat="48.37644" lon="7.43885">
        <ele>237.1</ele>
        <time>2023-07-23T08:02:46Z</time>
      </trkpt>
      <trkpt lat="48.37641" lon="7.43884">
        <ele>237.3</ele>
        <time>2023-07-23T08:02:47Z</time>
      </trkpt>
      <trkpt lat="48.37638" lon="7.43882">
        <ele>237.6</ele>
        <time>2023-07-23T08:02:48Z</time>
      </trkpt>
      <trkpt lat="48.37634" lon="7.4388">
        <ele>237.8</ele>
        <time>2023-07-23T08:02:49Z</time>
      </trkpt>
      <trkpt lat="48.37631" lon="7.43879">
        <ele>238</ele>
        <time>2023-07-23T08:02:50Z</time>
      </trkpt>
      <trkpt lat="48.37628" lon="7.43877">
        <ele>238.3</ele>
        <time>2023-07-23T08:02:51Z</time>
      </trkpt>
      <trkpt lat="48.37624" lon="7.43876">
        <ele>238.5</ele>
        <time>2023-07-23T08:02:52Z</time>
      </trkpt>
      <trkpt lat="48.37621" lon="7.43875">
        <ele>238.7</ele>
        <time>2023-07-23T08:02:53Z</time>
      </trkpt>
      <trkpt lat="48.37617" lon="7.43873">
        <ele>239</ele>
        <time>2023-07-23T08:02:54Z</time>
      </trkpt>
      <trkpt lat="48.37614" lon="7.43871">
        <ele>239.2</ele>
        <time>2023-07-23T08:02:55Z</time>
      </trkpt>
      <trkpt lat="48.3761" lon="7.43869">
        <ele>239.4</ele>
        <time>2023-07-23T08:02:56Z</time>
      </trkpt>
      <trkpt lat="48.37607" lon="7.43867">
        <ele>239.7</ele>
        <time>2023-07-23T08:02:57Z</time>
      </trkpt>
      <trkpt lat="48.37604" lon="7.43866">
        <ele>239.9</ele>
        <time>2023-07-23T08:02:58Z</time>
      </trkpt>
      <trkpt lat="48.37601" lon="7.43864">
        <ele>240.1</ele>
        <time>2023-07-23T08:02:59Z</time>
      </trkpt>
      <trkpt lat="48.37597" lon="7.43862">
        <ele>240.3</ele>
        <time>2023-07-23T08:03:00Z</time>
      </trkpt>
      <trkpt lat="48.37594" lon="7.4386">
        <ele>240.5</ele>
        <time>2023-07-23T08:03:01Z</time>
      </trkpt>
      <trkpt lat="48.37591" lon="7.43859">
        <ele>240.8</ele>
        <time>2023-07-23T08:03:02Z</time>
      </trkpt>
      <trkpt lat="48.37588" lon="7.43857">
        <ele>241</ele>
        <time>2023-07-23T08:03:03Z</time>
      </trkpt>
      <trkpt lat="48.37584" lon="7.43854">
        <ele>241.2</ele>
        <time>2023-07-23T08:03:04Z</time>
      </trkpt>
      <trkpt lat="48.37581" lon="7.43852">
        <ele>241.3</ele>
        <time>2023-07-23T08:03:05Z</time>
      </trkpt>
      <trkpt lat="48.37578" lon="7.4385">
        <ele>241.3</ele>
        <time>2023-07-23T08:03:06Z</time>
      </trkpt>
      <trkpt lat="48.37574" lon="7.43847">
        <ele>241.3</ele>
        <time>2023-07-23T08:03:07Z</time>
      </trkpt>
      <trkpt lat="48.37571" lon="7.43844">
        <ele>241.3</ele>
        <time>2023-07-23T08:03:08Z</time>
      </trkpt>
      <trkpt lat="48.37568" lon="7.43842">
        <ele>241.4</ele>
        <time>2023-07-23T08:03:09Z</time>
      </trkpt>
      <trkpt lat="48.37565" lon="7.43839">
        <ele>241.5</ele>
        <time>2023-07-23T08:03:10Z</time>
      </trkpt>
      <trkpt lat="48.37562" lon="7.43836">
        <ele>241.8</ele>
        <time>2023-07-23T08:03:11Z</time>
      </trkpt>
      <trkpt lat="48.37559" lon="7.43833">
        <ele>242</ele>
        <time>2023-07-23T08:03:12Z</time>
      </trkpt>
      <trkpt lat="48.37557" lon="7.43829">
        <ele>242.2</ele>
        <time>2023-07-23T08:03:13Z</time>
      </trkpt>
      <trkpt lat="48.37554" lon="7.43826">
        <ele>242.4</ele>
        <time>2023-07-23T08:03:14Z</time>
      </trkpt>
      <trkpt lat="48.37551" lon="7.43823">
        <ele>242.6</ele>
        <time>2023-07-23T08:03:15Z</time>
      </trkpt>
      <trkpt lat="48.37549" lon="7.43819">
        <ele>242.8</ele>
        <time>2023-07-23T08:03:16Z</time>
      </trkpt>
      <trkpt lat="48.37546" lon="7.43816">
        <ele>243</ele>
        <time>2023-07-23T08:03:17Z</time>
      </trkpt>
      <trkpt lat="48.37544" lon="7.43812">
        <ele>243.1</ele>
        <time>2023-07-23T08:03:18Z</time>
      </trkpt>
      <trkpt lat="48.37541" lon="7.43808">
        <ele>243.3</ele>
        <time>2023-07-23T08:03:19Z</time>
      </trkpt>
      <trkpt lat="48.37539" lon="7.43805">
        <ele>243.5</ele>
        <time>2023-07-23T08:03:20Z</time>
      </trkpt>
      <trkpt lat="48.37537" lon="7.43801">
        <ele>243.7</ele>
        <time>2023-07-23T08:03:21Z</time>
      </trkpt>
      <trkpt lat="48.37534" lon="7.43797">
        <ele>243.9</ele>
        <time>2023-07-23T08:03:22Z</time>
      </trkpt>
      <trkpt lat="48.37532" lon="7.43793">
        <ele>244.1</ele>
        <time>2023-07-23T08:03:23Z</time>
      </trkpt>
      <trkpt lat="48.3753" lon="7.43788">
        <ele>244.3</ele>
        <time>2023-07-23T08:03:24Z</time>
      </trkpt>
      <trkpt lat="48.37528" lon="7.43784">
        <ele>244.5</ele>
        <time>2023-07-23T08:03:25Z</time>
      </trkpt>
      <trkpt lat="48.37526" lon="7.4378">
        <ele>244.7</ele>
        <time>2023-07-23T08:03:26Z</time>
      </trkpt>
      <trkpt lat="48.37524" lon="7.43776">
        <ele>244.8</ele>
        <time>2023-07-23T08:03:27Z</time>
      </trkpt>
      <trkpt lat="48.37521" lon="7.43772">
        <ele>244.7</ele>
        <time>2023-07-23T08:03:28Z</time>
      </trkpt>
      <trkpt lat="48.37519" lon="7.43768">
        <ele>244.8</ele>
        <time>2023-07-23T08:03:29Z</time>
      </trkpt>
      <trkpt lat="48.37517" lon="7.43764">
        <ele>244.9</ele>
        <time>2023-07-23T08:03:30Z</time>
      </trkpt>
      <trkpt lat="48.37515" lon="7.4376">
        <ele>245.1</ele>
        <time>2023-07-23T08:03:31Z</time>
      </trkpt>
      <trkpt lat="48.37513" lon="7.43756">
        <ele>245.2</ele>
        <time>2023-07-23T08:03:32Z</time>
      </trkpt>
      <trkpt lat="48.37511" lon="7.43752">
        <ele>245.4</ele>
        <time>2023-07-23T08:03:33Z</time>
      </trkpt>
      <trkpt lat="48.37509" lon="7.43747">
        <ele>245.5</ele>
        <time>2023-07-23T08:03:34Z</time>
      </trkpt>
      <trkpt lat="48.37507" lon="7.43743">
        <ele>245.7</ele>
        <time>2023-07-23T08:03:35Z</time>
      </trkpt>
      <trkpt lat="48.37504" lon="7.43739">
        <ele>245.8</ele>
        <time>2023-07-23T08:03:36Z</time>
      </trkpt>
      <trkpt lat="48.37502" lon="7.43734">
        <ele>246</ele>
        <time>2023-07-23T08:03:37Z</time>
      </trkpt>
      <trkpt lat="48.375" lon="7.4373">
        <ele>246.1</ele>
        <time>2023-07-23T08:03:38Z</time>
      </trkpt>
      <trkpt lat="48.37498" lon="7.43726">
        <ele>246.3</ele>
        <time>2023-07-23T08:03:39Z</time>
      </trkpt>
      <trkpt lat="48.37495" lon="7.43722">
        <ele>246.5</ele>
        <time>2023-07-23T08:03:40Z</time>
      </trkpt>
      <trkpt lat="48.37493" lon="7.43718">
        <ele>246.6</ele>
        <time>2023-07-23T08:03:41Z</time>
      </trkpt>
      <trkpt lat="48.37491" lon="7.43713">
        <ele>246.8</ele>
        <time>2023-07-23T08:03:42Z</time>
      </trkpt>
      <trkpt lat="48.37489" lon="7.43709">
        <ele>247</ele>
        <time>2023-07-23T08:03:43Z</time>
      </trkpt>
      <trkpt lat="48.37487" lon="7.43705">
        <ele>247.1</ele>
        <time>2023-07-23T08:03:44Z</time>
      </trkpt>
      <trkpt lat="48.37484" lon="7.437">
        <ele>247.3</ele>
        <time>2023-07-23T08:03:45Z</time>
      </trkpt>
      <trkpt lat="48.37482" lon="7.43696">
        <ele>247.5</ele>
        <time>2023-07-23T08:03:46Z</time>
      </trkpt>
      <trkpt lat="48.3748" lon="7.43691">
        <ele>247.7</ele>
        <time>2023-07-23T08:03:47Z</time>
      </trkpt>
      <trkpt lat="48.37478" lon="7.43687">
        <ele>247.8</ele>
        <time>2023-07-23T08:03:48Z</time>
      </trkpt>
      <trkpt lat="48.37476" lon="7.43683">
        <ele>248</ele>
        <time>2023-07-23T08:03:49Z</time>
      </trkpt>
      <trkpt lat="48.37473" lon="7.43679">
        <ele>248.1</ele>
        <time>2023-07-23T08:03:50Z</time>
      </trkpt>
      <trkpt lat="48.37471" lon="7.43674">
        <ele>248.3</ele>
        <time>2023-07-23T08:03:51Z</time>
      </trkpt>
      <trkpt lat="48.37469" lon="7.4367">
        <ele>248.5</ele>
        <time>2023-07-23T08:03:52Z</time>
      </trkpt>
      <trkpt lat="48.37467" lon="7.43666">
        <ele>248.6</ele>
        <time>2023-07-23T08:03:53Z</time>
      </trkpt>
      <trkpt lat="48.37464" lon="7.43661">
        <ele>248.8</ele>
        <time>2023-07-23T08:03:54Z</time>
      </trkpt>
      <trkpt lat="48.37462" lon="7.43657">
        <ele>249</ele>
        <time>2023-07-23T08:03:55Z</time>
      </trkpt>
      <trkpt lat="48.3746" lon="7.43652">
        <ele>249.1</ele>
        <time>2023-07-23T08:03:56Z</time>
      </trkpt>
      <trkpt lat="48.37457" lon="7.43648">
        <ele>249.3</ele>
        <time>2023-07-23T08:03:57Z</time>
      </trkpt>
      <trkpt lat="48.37455" lon="7.43644">
        <ele>249.5</ele>
        <time>2023-07-23T08:03:58Z</time>
      </trkpt>
      <trkpt lat="48.37453" lon="7.43639">
        <ele>249.6</ele>
        <time>2023-07-23T08:03:59Z</time>
      </trkpt>
      <trkpt lat="48.37451" lon="7.43635">
        <ele>249.8</ele>
        <time>2023-07-23T08:04:00Z</time>
      </trkpt>
      <trkpt lat="48.37449" lon="7.43631">
        <ele>250</ele>
        <time>2023-07-23T08:04:01Z</time>
      </trkpt>
      <trkpt lat="48.37447" lon="7.43627">
        <ele>250.2</ele>
        <time>2023-07-23T08:04:02Z</time>
      </trkpt>
      <trkpt lat="48.37444" lon="7.43622">
        <ele>250.3</ele>
        <time>2023-07-23T08:04:03Z</time>
      </trkpt>
      <trkpt lat="48.37442" lon="7.43618">
        <ele>250.5</ele>
        <time>2023-07-23T08:04:04Z</time>
      </trkpt>
      <trkpt lat="48.3744" lon="7.43614">
        <ele>250.7</ele>
        <time>2023-07-23T08:04:05Z</time>
      </trkpt>
      <trkpt lat="48.37438" lon="7.4361">
        <ele>250.9</ele>
        <time>2023-07-23T08:04:06Z</time>
      </trkpt>
      <trkpt lat="48.37436" lon="7.43605">
        <ele>251.1</ele>
        <time>2023-07-23T08:04:07Z</time>
      </trkpt>
      <trkpt lat="48.37434" lon="7.43601">
        <ele>251.2</ele>
        <time>2023-07-23T08:04:08Z</time>
      </trkpt>
      <trkpt lat="48.37431" lon="7.43597">
        <ele>251.4</ele>
        <time>2023-07-23T08:04:09Z</time>
      </trkpt>
      <trkpt lat="48.37429" lon="7.43593">
        <ele>251.6</ele>
        <time>2023-07-23T08:04:10Z</time>
      </trkpt>
      <trkpt lat="48.37424" lon="7.43584">
        <ele>252</ele>
        <time>2023-07-23T08:04:12Z</time>
      </trkpt>
      <trkpt lat="48.37422" lon="7.4358">
        <ele>252.1</ele>
        <time>2023-07-23T08:04:14Z</time>
      </trkpt>
      <trkpt lat="48.3742" lon="7.43575">
        <ele>252.3</ele>
        <time>2023-07-23T08:04:15Z</time>
      </trkpt>
      <trkpt lat="48.37418" lon="7.43571">
        <ele>252.5</ele>
        <time>2023-07-23T08:04:16Z</time>
      </trkpt>
      <trkpt lat="48.37415" lon="7.43567">
        <ele>252.6</ele>
        <time>2023-07-23T08:04:17Z</time>
      </trkpt>
      <trkpt lat="48.37413" lon="7.43563">
        <ele>252.8</ele>
        <time>2023-07-23T08:04:18Z</time>
      </trkpt>
      <trkpt lat="48.37411" lon="7.43558">
        <ele>253</ele>
        <time>2023-07-23T08:04:19Z</time>
      </trkpt>
      <trkpt lat="48.37409" lon="7.43553">
        <ele>253.2</ele>
        <time>2023-07-23T08:04:20Z</time>
      </trkpt>
      <trkpt lat="48.37407" lon="7.43549">
        <ele>253.3</ele>
        <time>2023-07-23T08:04:21Z</time>
      </trkpt>
      <trkpt lat="48.37405" lon="7.43545">
        <ele>253.5</ele>
        <time>2023-07-23T08:04:22Z</time>
      </trkpt>
      <trkpt lat="48.37402" lon="7.4354">
        <ele>253.6</ele>
        <time>2023-07-23T08:04:23Z</time>
      </trkpt>
      <trkpt lat="48.374" lon="7.43536">
        <ele>253.8</ele>
        <time>2023-07-23T08:04:24Z</time>
      </trkpt>
      <trkpt lat="48.37398" lon="7.43531">
        <ele>254</ele>
        <time>2023-07-23T08:04:25Z</time>
      </trkpt>
      <trkpt lat="48.37396" lon="7.43527">
        <ele>254.2</ele>
        <time>2023-07-23T08:04:26Z</time>
      </trkpt>
      <trkpt lat="48.37391" lon="7.43519">
        <ele>254.5</ele>
        <time>2023-07-23T08:04:27Z</time>
      </trkpt>
      <trkpt lat="48.37389" lon="7.43514">
        <ele>254.7</ele>
        <time>2023-07-23T08:04:28Z</time>
      </trkpt>
      <trkpt lat="48.37387" lon="7.4351">
        <ele>254.8</ele>
        <time>2023-07-23T08:04:29Z</time>
      </trkpt>
      <trkpt lat="48.37385" lon="7.43506">
        <ele>255</ele>
        <time>2023-07-23T08:04:30Z</time>
      </trkpt>
      <trkpt lat="48.37382" lon="7.43502">
        <ele>255.2</ele>
        <time>2023-07-23T08:04:31Z</time>
      </trkpt>
      <trkpt lat="48.3738" lon="7.43497">
        <ele>255.4</ele>
        <time>2023-07-23T08:04:32Z</time>
      </trkpt>
      <trkpt lat="48.37378" lon="7.43493">
        <ele>255.5</ele>
        <time>2023-07-23T08:04:33Z</time>
      </trkpt>
      <trkpt lat="48.37375" lon="7.43488">
        <ele>255.7</ele>
        <time>2023-07-23T08:04:34Z</time>
      </trkpt>
      <trkpt lat="48.37373" lon="7.43484">
        <ele>255.9</ele>
        <time>2023-07-23T08:04:35Z</time>
      </trkpt>
      <trkpt lat="48.37371" lon="7.43479">
        <ele>256.1</ele>
        <time>2023-07-23T08:04:36Z</time>
      </trkpt>
      <trkpt lat="48.37369" lon="7.43475">
        <ele>256.3</ele>
        <time>2023-07-23T08:04:37Z</time>
      </trkpt>
      <trkpt lat="48.37366" lon="7.4347">
        <ele>256.4</ele>
        <time>2023-07-23T08:04:38Z</time>
      </trkpt>
      <trkpt lat="48.37364" lon="7.43466">
        <ele>256.6</ele>
        <time>2023-07-23T08:04:39Z</time>
      </trkpt>
      <trkpt lat="48.37362" lon="7.43462">
        <ele>256.8</ele>
        <time>2023-07-23T08:04:40Z</time>
      </trkpt>
      <trkpt lat="48.37359" lon="7.43457">
        <ele>257</ele>
        <time>2023-07-23T08:04:41Z</time>
      </trkpt>
      <trkpt lat="48.37357" lon="7.43453">
        <ele>257.2</ele>
        <time>2023-07-23T08:04:42Z</time>
      </trkpt>
      <trkpt lat="48.37355" lon="7.43448">
        <ele>257.3</ele>
        <time>2023-07-23T08:04:43Z</time>
      </trkpt>
      <trkpt lat="48.37352" lon="7.43444">
        <ele>257.5</ele>
        <time>2023-07-23T08:04:44Z</time>
      </trkpt>
      <trkpt lat="48.3735" lon="7.43439">
        <ele>257.7</ele>
        <time>2023-07-23T08:04:45Z</time>
      </trkpt>
      <trkpt lat="48.37348" lon="7.43434">
        <ele>257.8</ele>
        <time>2023-07-23T08:04:46Z</time>
      </trkpt>
      <trkpt lat="48.37345" lon="7.4343">
        <ele>258</ele>
        <time>2023-07-23T08:04:47Z</time>
      </trkpt>
      <trkpt lat="48.37343" lon="7.43426">
        <ele>258.1</ele>
        <time>2023-07-23T08:04:48Z</time>
      </trkpt>
      <trkpt lat="48.37341" lon="7.43421">
        <ele>258.3</ele>
        <time>2023-07-23T08:04:49Z</time>
      </trkpt>
      <trkpt lat="48.37338" lon="7.43417">
        <ele>258.5</ele>
        <time>2023-07-23T08:04:50Z</time>
      </trkpt>
      <trkpt lat="48.37336" lon="7.43412">
        <ele>258.6</ele>
        <time>2023-07-23T08:04:51Z</time>
      </trkpt>
      <trkpt lat="48.37334" lon="7.43408">
        <ele>258.8</ele>
        <time>2023-07-23T08:04:52Z</time>
      </trkpt>
      <trkpt lat="48.37332" lon="7.43403">
        <ele>258.9</ele>
        <time>2023-07-23T08:04:53Z</time>
      </trkpt>
      <trkpt lat="48.3733" lon="7.43399">
        <ele>259.1</ele>
        <time>2023-07-23T08:04:54Z</time>
      </trkpt>
      <trkpt lat="48.37327" lon="7.43395">
        <ele>259.3</ele>
        <time>2023-07-23T08:04:55Z</time>
      </trkpt>
      <trkpt lat="48.37325" lon="7.4339">
        <ele>259.4</ele>
        <time>2023-07-23T08:04:56Z</time>
      </trkpt>
      <trkpt lat="48.37323" lon="7.43386">
        <ele>259.6</ele>
        <time>2023-07-23T08:04:57Z</time>
      </trkpt>
      <trkpt lat="48.3732" lon="7.43382">
        <ele>259.7</ele>
        <time>2023-07-23T08:04:58Z</time>
      </trkpt>
      <trkpt lat="48.37318" lon="7.43377">
        <ele>259.9</ele>
        <time>2023-07-23T08:04:59Z</time>
      </trkpt>
      <trkpt lat="48.37315" lon="7.43372">
        <ele>260</ele>
        <time>2023-07-23T08:05:00Z</time>
      </trkpt>
      <trkpt lat="48.37313" lon="7.43367">
        <ele>260.2</ele>
        <time>2023-07-23T08:05:01Z</time>
      </trkpt>
      <trkpt lat="48.37311" lon="7.43363">
        <ele>260.3</ele>
        <time>2023-07-23T08:05:02Z</time>
      </trkpt>
      <trkpt lat="48.37308" lon="7.43358">
        <ele>260.5</ele>
        <time>2023-07-23T08:05:03Z</time>
      </trkpt>
      <trkpt lat="48.37306" lon="7.43353">
        <ele>260.6</ele>
        <time>2023-07-23T08:05:04Z</time>
      </trkpt>
      <trkpt lat="48.37303" lon="7.43349">
        <ele>260.7</ele>
        <time>2023-07-23T08:05:05Z</time>
      </trkpt>
      <trkpt lat="48.37301" lon="7.43344">
        <ele>260.9</ele>
        <time>2023-07-23T08:05:06Z</time>
      </trkpt>
      <trkpt lat="48.37299" lon="7.4334">
        <ele>261</ele>
        <time>2023-07-23T08:05:07Z</time>
      </trkpt>
      <trkpt lat="48.37296" lon="7.43335">
        <ele>261.2</ele>
        <time>2023-07-23T08:05:08Z</time>
      </trkpt>
      <trkpt lat="48.37294" lon="7.4333">
        <ele>261.3</ele>
        <time>2023-07-23T08:05:09Z</time>
      </trkpt>
      <trkpt lat="48.37291" lon="7.43326">
        <ele>261.4</ele>
        <time>2023-07-23T08:05:10Z</time>
      </trkpt>
      <trkpt lat="48.37289" lon="7.43321">
        <ele>261.6</ele>
        <time>2023-07-23T08:05:11Z</time>
      </trkpt>
      <trkpt lat="48.37286" lon="7.43317">
        <ele>261.7</ele>
        <time>2023-07-23T08:05:12Z</time>
      </trkpt>
      <trkpt lat="48.37284" lon="7.43312">
        <ele>261.8</ele>
        <time>2023-07-23T08:05:13Z</time>
      </trkpt>
      <trkpt lat="48.37282" lon="7.43307">
        <ele>262</ele>
        <time>2023-07-23T08:05:14Z</time>
      </trkpt>
      <trkpt lat="48.37279" lon="7.43302">
        <ele>262.2</ele>
        <time>2023-07-23T08:05:15Z</time>
      </trkpt>
      <trkpt lat="48.37277" lon="7.43297">
        <ele>262.3</ele>
        <time>2023-07-23T08:05:16Z</time>
      </trkpt>
      <trkpt lat="48.37274" lon="7.43293">
        <ele>262.5</ele>
        <time>2023-07-23T08:05:17Z</time>
      </trkpt>
      <trkpt lat="48.37272" lon="7.43289">
        <ele>262.6</ele>
        <time>2023-07-23T08:05:18Z</time>
      </trkpt>
      <trkpt lat="48.37269" lon="7.43284">
        <ele>262.8</ele>
        <time>2023-07-23T08:05:19Z</time>
      </trkpt>
      <trkpt lat="48.37267" lon="7.43279">
        <ele>262.9</ele>
        <time>2023-07-23T08:05:20Z</time>
      </trkpt>
      <trkpt lat="48.37265" lon="7.43275">
        <ele>263.1</ele>
        <time>2023-07-23T08:05:21Z</time>
      </trkpt>
      <trkpt lat="48.37262" lon="7.4327">
        <ele>263.2</ele>
        <time>2023-07-23T08:05:22Z</time>
      </trkpt>
      <trkpt lat="48.3726" lon="7.43266">
        <ele>263.4</ele>
        <time>2023-07-23T08:05:23Z</time>
      </trkpt>
      <trkpt lat="48.37258" lon="7.43261">
        <ele>263.5</ele>
        <time>2023-07-23T08:05:24Z</time>
      </trkpt>
      <trkpt lat="48.37255" lon="7.43256">
        <ele>263.6</ele>
        <time>2023-07-23T08:05:25Z</time>
      </trkpt>
      <trkpt lat="48.37253" lon="7.43252">
        <ele>263.8</ele>
        <time>2023-07-23T08:05:26Z</time>
      </trkpt>
      <trkpt lat="48.3725" lon="7.43248">
        <ele>263.9</ele>
        <time>2023-07-23T08:05:27Z</time>
      </trkpt>
      <trkpt lat="48.37248" lon="7.43243">
        <ele>264.1</ele>
        <time>2023-07-23T08:05:28Z</time>
      </trkpt>
      <trkpt lat="48.37246" lon="7.43238">
        <ele>264.2</ele>
        <time>2023-07-23T08:05:29Z</time>
      </trkpt>
      <trkpt lat="48.37243" lon="7.43234">
        <ele>264.4</ele>
        <time>2023-07-23T08:05:30Z</time>
      </trkpt>
      <trkpt lat="48.37241" lon="7.43229">
        <ele>264.5</ele>
        <time>2023-07-23T08:05:31Z</time>
      </trkpt>
      <trkpt lat="48.37238" lon="7.43224">
        <ele>264.7</ele>
        <time>2023-07-23T08:05:32Z</time>
      </trkpt>
      <trkpt lat="48.37236" lon="7.4322">
        <ele>264.8</ele>
        <time>2023-07-23T08:05:33Z</time>
      </trkpt>
      <trkpt lat="48.37233" lon="7.43215">
        <ele>265</ele>
        <time>2023-07-23T08:05:34Z</time>
      </trkpt>
      <trkpt lat="48.37231" lon="7.43211">
        <ele>265.1</ele>
        <time>2023-07-23T08:05:35Z</time>
      </trkpt>
      <trkpt lat="48.37229" lon="7.43206">
        <ele>265.2</ele>
        <time>2023-07-23T08:05:36Z</time>
      </trkpt>
      <trkpt lat="48.37226" lon="7.43201">
        <ele>265.4</ele>
        <time>2023-07-23T08:05:37Z</time>
      </trkpt>
      <trkpt lat="48.37224" lon="7.43197">
        <ele>265.5</ele>
        <time>2023-07-23T08:05:38Z</time>
      </trkpt>
      <trkpt lat="48.37221" lon="7.43192">
        <ele>265.6</ele>
        <time>2023-07-23T08:05:39Z</time>
      </trkpt>
      <trkpt lat="48.37219" lon="7.43188">
        <ele>265.8</ele>
        <time>2023-07-23T08:05:40Z</time>
      </trkpt>
      <trkpt lat="48.37216" lon="7.43183">
        <ele>265.9</ele>
        <time>2023-07-23T08:05:41Z</time>
      </trkpt>
      <trkpt lat="48.37214" lon="7.43178">
        <ele>266</ele>
        <time>2023-07-23T08:05:42Z</time>
      </trkpt>
      <trkpt lat="48.37212" lon="7.43174">
        <ele>266.2</ele>
        <time>2023-07-23T08:05:43Z</time>
      </trkpt>
      <trkpt lat="48.37209" lon="7.43169">
        <ele>266.3</ele>
        <time>2023-07-23T08:05:44Z</time>
      </trkpt>
      <trkpt lat="48.37207" lon="7.43164">
        <ele>266.4</ele>
        <time>2023-07-23T08:05:45Z</time>
      </trkpt>
      <trkpt lat="48.37204" lon="7.4316">
        <ele>266.6</ele>
        <time>2023-07-23T08:05:46Z</time>
      </trkpt>
      <trkpt lat="48.37202" lon="7.43155">
        <ele>266.7</ele>
        <time>2023-07-23T08:05:47Z</time>
      </trkpt>
      <trkpt lat="48.37199" lon="7.4315">
        <ele>266.9</ele>
        <time>2023-07-23T08:05:48Z</time>
      </trkpt>
      <trkpt lat="48.37197" lon="7.43146">
        <ele>267</ele>
        <time>2023-07-23T08:05:49Z</time>
      </trkpt>
      <trkpt lat="48.37194" lon="7.43141">
        <ele>267.1</ele>
        <time>2023-07-23T08:05:50Z</time>
      </trkpt>
      <trkpt lat="48.37192" lon="7.43136">
        <ele>267.3</ele>
        <time>2023-07-23T08:05:51Z</time>
      </trkpt>
      <trkpt lat="48.37189" lon="7.43131">
        <ele>267.4</ele>
        <time>2023-07-23T08:05:52Z</time>
      </trkpt>
      <trkpt lat="48.37187" lon="7.43126">
        <ele>267.5</ele>
        <time>2023-07-23T08:05:53Z</time>
      </trkpt>
      <trkpt lat="48.37184" lon="7.43121">
        <ele>267.7</ele>
        <time>2023-07-23T08:05:54Z</time>
      </trkpt>
      <trkpt lat="48.37181" lon="7.43116">
        <ele>267.8</ele>
        <time>2023-07-23T08:05:55Z</time>
      </trkpt>
      <trkpt lat="48.37179" lon="7.43112">
        <ele>267.9</ele>
        <time>2023-07-23T08:05:56Z</time>
      </trkpt>
      <trkpt lat="48.37176" lon="7.43107">
        <ele>268</ele>
        <time>2023-07-23T08:05:57Z</time>
      </trkpt>
      <trkpt lat="48.37174" lon="7.43102">
        <ele>268.1</ele>
        <time>2023-07-23T08:05:58Z</time>
      </trkpt>
      <trkpt lat="48.37172" lon="7.43097">
        <ele>268.2</ele>
        <time>2023-07-23T08:05:59Z</time>
      </trkpt>
      <trkpt lat="48.37169" lon="7.43092">
        <ele>268.3</ele>
        <time>2023-07-23T08:06:00Z</time>
      </trkpt>
      <trkpt lat="48.37167" lon="7.43087">
        <ele>268.4</ele>
        <time>2023-07-23T08:06:01Z</time>
      </trkpt>
      <trkpt lat="48.37164" lon="7.43082">
        <ele>268.5</ele>
        <time>2023-07-23T08:06:02Z</time>
      </trkpt>
      <trkpt lat="48.37162" lon="7.43077">
        <ele>268.6</ele>
        <time>2023-07-23T08:06:03Z</time>
      </trkpt>
      <trkpt lat="48.37159" lon="7.43072">
        <ele>268.7</ele>
        <time>2023-07-23T08:06:04Z</time>
      </trkpt>
      <trkpt lat="48.37157" lon="7.43067">
        <ele>268.8</ele>
        <time>2023-07-23T08:06:05Z</time>
      </trkpt>
      <trkpt lat="48.37154" lon="7.43062">
        <ele>268.9</ele>
        <time>2023-07-23T08:06:06Z</time>
      </trkpt>
      <trkpt lat="48.37152" lon="7.43057">
        <ele>269</ele>
        <time>2023-07-23T08:06:07Z</time>
      </trkpt>
      <trkpt lat="48.37149" lon="7.43051">
        <ele>269.1</ele>
        <time>2023-07-23T08:06:08Z</time>
      </trkpt>
      <trkpt lat="48.37147" lon="7.43046">
        <ele>269.2</ele>
        <time>2023-07-23T08:06:09Z</time>
      </trkpt>
      <trkpt lat="48.37144" lon="7.43041">
        <ele>269.3</ele>
        <time>2023-07-23T08:06:10Z</time>
      </trkpt>
      <trkpt lat="48.37141" lon="7.43037">
        <ele>269.4</ele>
        <time>2023-07-23T08:06:11Z</time>
      </trkpt>
      <trkpt lat="48.37138" lon="7.43031">
        <ele>269.5</ele>
        <time>2023-07-23T08:06:12Z</time>
      </trkpt>
      <trkpt lat="48.37135" lon="7.43026">
        <ele>269.5</ele>
        <time>2023-07-23T08:06:13Z</time>
      </trkpt>
      <trkpt lat="48.37132" lon="7.4302">
        <ele>269.5</ele>
        <time>2023-07-23T08:06:14Z</time>
      </trkpt>
      <trkpt lat="48.37128" lon="7.43014">
        <ele>269.5</ele>
        <time>2023-07-23T08:06:15Z</time>
      </trkpt>
      <trkpt lat="48.37125" lon="7.43009">
        <ele>269.5</ele>
        <time>2023-07-23T08:06:17Z</time>
      </trkpt>
      <trkpt lat="48.37121" lon="7.43003">
        <ele>269.5</ele>
        <time>2023-07-23T08:06:18Z</time>
      </trkpt>
      <trkpt lat="48.37118" lon="7.42997">
        <ele>269.4</ele>
        <time>2023-07-23T08:06:19Z</time>
      </trkpt>
      <trkpt lat="48.37114" lon="7.42992">
        <ele>269.4</ele>
        <time>2023-07-23T08:06:20Z</time>
      </trkpt>
      <trkpt lat="48.3711" lon="7.42986">
        <ele>269.4</ele>
        <time>2023-07-23T08:06:21Z</time>
      </trkpt>
      <trkpt lat="48.37107" lon="7.4298">
        <ele>269.4</ele>
        <time>2023-07-23T08:06:22Z</time>
      </trkpt>
      <trkpt lat="48.37103" lon="7.42975">
        <ele>269.4</ele>
        <time>2023-07-23T08:06:23Z</time>
      </trkpt>
      <trkpt lat="48.371" lon="7.42969">
        <ele>269.5</ele>
        <time>2023-07-23T08:06:24Z</time>
      </trkpt>
      <trkpt lat="48.37095" lon="7.42963">
        <ele>269.5</ele>
        <time>2023-07-23T08:06:25Z</time>
      </trkpt>
      <trkpt lat="48.37091" lon="7.42958">
        <ele>269.5</ele>
        <time>2023-07-23T08:06:26Z</time>
      </trkpt>
      <trkpt lat="48.37086" lon="7.4295">
        <ele>269.6</ele>
        <time>2023-07-23T08:06:27Z</time>
      </trkpt>
      <trkpt lat="48.37081" lon="7.42943">
        <ele>269.6</ele>
        <time>2023-07-23T08:06:28Z</time>
      </trkpt>
      <trkpt lat="48.37077" lon="7.42935">
        <ele>269.6</ele>
        <time>2023-07-23T08:06:29Z</time>
      </trkpt>
      <trkpt lat="48.37073" lon="7.42927">
        <ele>269.6</ele>
        <time>2023-07-23T08:06:30Z</time>
      </trkpt>
      <trkpt lat="48.37068" lon="7.42919">
        <ele>269.6</ele>
        <time>2023-07-23T08:06:31Z</time>
      </trkpt>
      <trkpt lat="48.37064" lon="7.42911">
        <ele>269.7</ele>
        <time>2023-07-23T08:06:32Z</time>
      </trkpt>
      <trkpt lat="48.37059" lon="7.42903">
        <ele>269.7</ele>
        <time>2023-07-23T08:06:33Z</time>
      </trkpt>
      <trkpt lat="48.37055" lon="7.42896">
        <ele>269.8</ele>
        <time>2023-07-23T08:06:34Z</time>
      </trkpt>
      <trkpt lat="48.37051" lon="7.42889">
        <ele>269.9</ele>
        <time>2023-07-23T08:06:35Z</time>
      </trkpt>
      <trkpt lat="48.37046" lon="7.42881">
        <ele>270</ele>
        <time>2023-07-23T08:06:36Z</time>
      </trkpt>
      <trkpt lat="48.37041" lon="7.42874">
        <ele>270.2</ele>
        <time>2023-07-23T08:06:37Z</time>
      </trkpt>
      <trkpt lat="48.37037" lon="7.42866">
        <ele>270.3</ele>
        <time>2023-07-23T08:06:38Z</time>
      </trkpt>
      <trkpt lat="48.37033" lon="7.42859">
        <ele>270.5</ele>
        <time>2023-07-23T08:06:39Z</time>
      </trkpt>
      <trkpt lat="48.37029" lon="7.42852">
        <ele>270.6</ele>
        <time>2023-07-23T08:06:40Z</time>
      </trkpt>
      <trkpt lat="48.3702" lon="7.42838">
        <ele>270.9</ele>
        <time>2023-07-23T08:06:41Z</time>
      </trkpt>
      <trkpt lat="48.37016" lon="7.42831">
        <ele>271.1</ele>
        <time>2023-07-23T08:06:42Z</time>
      </trkpt>
      <trkpt lat="48.37012" lon="7.42824">
        <ele>271.3</ele>
        <time>2023-07-23T08:06:43Z</time>
      </trkpt>
      <trkpt lat="48.37008" lon="7.42817">
        <ele>271.5</ele>
        <time>2023-07-23T08:06:44Z</time>
      </trkpt>
      <trkpt lat="48.37004" lon="7.42811">
        <ele>271.7</ele>
        <time>2023-07-23T08:06:45Z</time>
      </trkpt>
      <trkpt lat="48.37" lon="7.42804">
        <ele>271.9</ele>
        <time>2023-07-23T08:06:46Z</time>
      </trkpt>
      <trkpt lat="48.36996" lon="7.42799">
        <ele>272.1</ele>
        <time>2023-07-23T08:06:47Z</time>
      </trkpt>
      <trkpt lat="48.36993" lon="7.42793">
        <ele>272.3</ele>
        <time>2023-07-23T08:06:48Z</time>
      </trkpt>
      <trkpt lat="48.36989" lon="7.42787">
        <ele>272.5</ele>
        <time>2023-07-23T08:06:49Z</time>
      </trkpt>
      <trkpt lat="48.36986" lon="7.42782">
        <ele>272.7</ele>
        <time>2023-07-23T08:06:50Z</time>
      </trkpt>
      <trkpt lat="48.36983" lon="7.42776">
        <ele>272.9</ele>
        <time>2023-07-23T08:06:51Z</time>
      </trkpt>
      <trkpt lat="48.36979" lon="7.42771">
        <ele>273.1</ele>
        <time>2023-07-23T08:06:52Z</time>
      </trkpt>
      <trkpt lat="48.36976" lon="7.42766">
        <ele>273.3</ele>
        <time>2023-07-23T08:06:53Z</time>
      </trkpt>
      <trkpt lat="48.36973" lon="7.42761">
        <ele>273.5</ele>
        <time>2023-07-23T08:06:54Z</time>
      </trkpt>
      <trkpt lat="48.3697" lon="7.42755">
        <ele>273.7</ele>
        <time>2023-07-23T08:06:55Z</time>
      </trkpt>
      <trkpt lat="48.36966" lon="7.4275">
        <ele>273.8</ele>
        <time>2023-07-23T08:06:56Z</time>
      </trkpt>
      <trkpt lat="48.36963" lon="7.42745">
        <ele>274</ele>
        <time>2023-07-23T08:06:57Z</time>
      </trkpt>
      <trkpt lat="48.3696" lon="7.4274">
        <ele>274.2</ele>
        <time>2023-07-23T08:06:58Z</time>
      </trkpt>
      <trkpt lat="48.36957" lon="7.42735">
        <ele>274.4</ele>
        <time>2023-07-23T08:06:59Z</time>
      </trkpt>
      <trkpt lat="48.36954" lon="7.4273">
        <ele>274.6</ele>
        <time>2023-07-23T08:07:00Z</time>
      </trkpt>
      <trkpt lat="48.36951" lon="7.42725">
        <ele>274.8</ele>
        <time>2023-07-23T08:07:01Z</time>
      </trkpt>
      <trkpt lat="48.36948" lon="7.4272">
        <ele>275</ele>
        <time>2023-07-23T08:07:02Z</time>
      </trkpt>
      <trkpt lat="48.36945" lon="7.42715">
        <ele>275.2</ele>
        <time>2023-07-23T08:07:03Z</time>
      </trkpt>
      <trkpt lat="48.36942" lon="7.4271">
        <ele>275.4</ele>
        <time>2023-07-23T08:07:04Z</time>
      </trkpt>
      <trkpt lat="48.36938" lon="7.42705">
        <ele>275.5</ele>
        <time>2023-07-23T08:07:05Z</time>
      </trkpt>
      <trkpt lat="48.36935" lon="7.427">
        <ele>275.7</ele>
        <time>2023-07-23T08:07:06Z</time>
      </trkpt>
      <trkpt lat="48.36932" lon="7.42695">
        <ele>275.8</ele>
        <time>2023-07-23T08:07:07Z</time>
      </trkpt>
      <trkpt lat="48.36929" lon="7.42689">
        <ele>276</ele>
        <time>2023-07-23T08:07:08Z</time>
      </trkpt>
      <trkpt lat="48.36926" lon="7.42684">
        <ele>276.1</ele>
        <time>2023-07-23T08:07:09Z</time>
      </trkpt>
      <trkpt lat="48.36923" lon="7.42679">
        <ele>276.2</ele>
        <time>2023-07-23T08:07:10Z</time>
      </trkpt>
      <trkpt lat="48.36919" lon="7.42673">
        <ele>276.3</ele>
        <time>2023-07-23T08:07:11Z</time>
      </trkpt>
      <trkpt lat="48.36916" lon="7.42668">
        <ele>276.4</ele>
        <time>2023-07-23T08:07:12Z</time>
      </trkpt>
      <trkpt lat="48.36913" lon="7.42663">
        <ele>276.5</ele>
        <time>2023-07-23T08:07:13Z</time>
      </trkpt>
      <trkpt lat="48.3691" lon="7.42657">
        <ele>276.5</ele>
        <time>2023-07-23T08:07:14Z</time>
      </trkpt>
      <trkpt lat="48.36906" lon="7.42652">
        <ele>276.6</ele>
        <time>2023-07-23T08:07:15Z</time>
      </trkpt>
      <trkpt lat="48.36903" lon="7.42646">
        <ele>276.6</ele>
        <time>2023-07-23T08:07:16Z</time>
      </trkpt>
      <trkpt lat="48.369" lon="7.42641">
        <ele>276.6</ele>
        <time>2023-07-23T08:07:17Z</time>
      </trkpt>
      <trkpt lat="48.36896" lon="7.42635">
        <ele>276.6</ele>
        <time>2023-07-23T08:07:18Z</time>
      </trkpt>
      <trkpt lat="48.36893" lon="7.42629">
        <ele>276.6</ele>
        <time>2023-07-23T08:07:19Z</time>
      </trkpt>
      <trkpt lat="48.36889" lon="7.42624">
        <ele>276.6</ele>
        <time>2023-07-23T08:07:20Z</time>
      </trkpt>
      <trkpt lat="48.36886" lon="7.42618">
        <ele>276.6</ele>
        <time>2023-07-23T08:07:21Z</time>
      </trkpt>
      <trkpt lat="48.36882" lon="7.42612">
        <ele>276.5</ele>
        <time>2023-07-23T08:07:22Z</time>
      </trkpt>
      <trkpt lat="48.36879" lon="7.42606">
        <ele>276.4</ele>
        <time>2023-07-23T08:07:23Z</time>
      </trkpt>
      <trkpt lat="48.36875" lon="7.426">
        <ele>276.3</ele>
        <time>2023-07-23T08:07:24Z</time>
      </trkpt>
      <trkpt lat="48.36871" lon="7.42594">
        <ele>276.1</ele>
        <time>2023-07-23T08:07:25Z</time>
      </trkpt>
      <trkpt lat="48.36868" lon="7.42585">
        <ele>275.8</ele>
        <time>2023-07-23T08:07:26Z</time>
      </trkpt>
      <trkpt lat="48.36864" lon="7.42577">
        <ele>275.4</ele>
        <time>2023-07-23T08:07:27Z</time>
      </trkpt>
      <trkpt lat="48.3686" lon="7.42568">
        <ele>274.9</ele>
        <time>2023-07-23T08:07:28Z</time>
      </trkpt>
      <trkpt lat="48.36857" lon="7.42558">
        <ele>274.4</ele>
        <time>2023-07-23T08:07:29Z</time>
      </trkpt>
      <trkpt lat="48.36853" lon="7.42547">
        <ele>273.8</ele>
        <time>2023-07-23T08:07:30Z</time>
      </trkpt>
      <trkpt lat="48.36849" lon="7.42536">
        <ele>273.2</ele>
        <time>2023-07-23T08:07:31Z</time>
      </trkpt>
      <trkpt lat="48.36845" lon="7.42525">
        <ele>272.6</ele>
        <time>2023-07-23T08:07:32Z</time>
      </trkpt>
      <trkpt lat="48.36841" lon="7.42513">
        <ele>272</ele>
        <time>2023-07-23T08:07:33Z</time>
      </trkpt>
      <trkpt lat="48.36837" lon="7.42501">
        <ele>271.5</ele>
        <time>2023-07-23T08:07:34Z</time>
      </trkpt>
      <trkpt lat="48.36833" lon="7.42489">
        <ele>270.9</ele>
        <time>2023-07-23T08:07:35Z</time>
      </trkpt>
      <trkpt lat="48.36829" lon="7.42478">
        <ele>270.4</ele>
        <time>2023-07-23T08:07:36Z</time>
      </trkpt>
      <trkpt lat="48.36825" lon="7.42468">
        <ele>270</ele>
        <time>2023-07-23T08:07:37Z</time>
      </trkpt>
      <trkpt lat="48.36821" lon="7.42459">
        <ele>269.6</ele>
        <time>2023-07-23T08:07:38Z</time>
      </trkpt>
      <trkpt lat="48.36816" lon="7.4245">
        <ele>269.2</ele>
        <time>2023-07-23T08:07:39Z</time>
      </trkpt>
      <trkpt lat="48.36813" lon="7.42442">
        <ele>268.9</ele>
        <time>2023-07-23T08:07:40Z</time>
      </trkpt>
      <trkpt lat="48.36811" lon="7.42436">
        <ele>268.7</ele>
        <time>2023-07-23T08:07:41Z</time>
      </trkpt>
      <trkpt lat="48.36809" lon="7.42428">
        <ele>268.5</ele>
        <time>2023-07-23T08:07:42Z</time>
      </trkpt>
      <trkpt lat="48.36806" lon="7.42421">
        <ele>268.2</ele>
        <time>2023-07-23T08:07:43Z</time>
      </trkpt>
      <trkpt lat="48.36802" lon="7.42416">
        <ele>268</ele>
        <time>2023-07-23T08:07:44Z</time>
      </trkpt>
      <trkpt lat="48.36797" lon="7.42415">
        <ele>267.8</ele>
        <time>2023-07-23T08:07:45Z</time>
      </trkpt>
      <trkpt lat="48.36791" lon="7.42417">
        <ele>267.5</ele>
        <time>2023-07-23T08:07:46Z</time>
      </trkpt>
      <trkpt lat="48.36785" lon="7.4242">
        <ele>267.1</ele>
        <time>2023-07-23T08:07:47Z</time>
      </trkpt>
      <trkpt lat="48.36779" lon="7.42422">
        <ele>266.7</ele>
        <time>2023-07-23T08:07:48Z</time>
      </trkpt>
      <trkpt lat="48.36773" lon="7.42424">
        <ele>266.4</ele>
        <time>2023-07-23T08:07:49Z</time>
      </trkpt>
      <trkpt lat="48.36766" lon="7.42426">
        <ele>266</ele>
        <time>2023-07-23T08:07:50Z</time>
      </trkpt>
      <trkpt lat="48.36759" lon="7.42428">
        <ele>265.6</ele>
        <time>2023-07-23T08:07:51Z</time>
      </trkpt>
      <trkpt lat="48.36751" lon="7.42432">
        <ele>265.3</ele>
        <time>2023-07-23T08:07:52Z</time>
      </trkpt>
      <trkpt lat="48.36744" lon="7.42436">
        <ele>264.9</ele>
        <time>2023-07-23T08:07:53Z</time>
      </trkpt>
      <trkpt lat="48.36737" lon="7.42441">
        <ele>264.5</ele>
        <time>2023-07-23T08:07:54Z</time>
      </trkpt>
      <trkpt lat="48.36729" lon="7.42447">
        <ele>264.2</ele>
        <time>2023-07-23T08:07:55Z</time>
      </trkpt>
      <trkpt lat="48.36721" lon="7.42452">
        <ele>263.8</ele>
        <time>2023-07-23T08:07:56Z</time>
      </trkpt>
      <trkpt lat="48.36713" lon="7.42457">
        <ele>263.5</ele>
        <time>2023-07-23T08:07:57Z</time>
      </trkpt>
      <trkpt lat="48.36705" lon="7.42463">
        <ele>263.1</ele>
        <time>2023-07-23T08:07:58Z</time>
      </trkpt>
      <trkpt lat="48.36697" lon="7.42468">
        <ele>262.8</ele>
        <time>2023-07-23T08:07:59Z</time>
      </trkpt>
      <trkpt lat="48.36689" lon="7.42473">
        <ele>262.4</ele>
        <time>2023-07-23T08:08:00Z</time>
      </trkpt>
      <trkpt lat="48.36681" lon="7.42479">
        <ele>262</ele>
        <time>2023-07-23T08:08:01Z</time>
      </trkpt>
      <trkpt lat="48.36673" lon="7.42484">
        <ele>261.7</ele>
        <time>2023-07-23T08:08:02Z</time>
      </trkpt>
      <trkpt lat="48.36665" lon="7.4249">
        <ele>261.3</ele>
        <time>2023-07-23T08:08:03Z</time>
      </trkpt>
      <trkpt lat="48.36657" lon="7.42496">
        <ele>260.9</ele>
        <time>2023-07-23T08:08:04Z</time>
      </trkpt>
      <trkpt lat="48.36649" lon="7.42501">
        <ele>260.6</ele>
        <time>2023-07-23T08:08:05Z</time>
      </trkpt>
      <trkpt lat="48.36641" lon="7.42506">
        <ele>260.3</ele>
        <time>2023-07-23T08:08:06Z</time>
      </trkpt>
      <trkpt lat="48.36633" lon="7.42512">
        <ele>260</ele>
        <time>2023-07-23T08:08:07Z</time>
      </trkpt>
      <trkpt lat="48.36624" lon="7.42518">
        <ele>259.7</ele>
        <time>2023-07-23T08:08:08Z</time>
      </trkpt>
      <trkpt lat="48.36616" lon="7.42524">
        <ele>259.4</ele>
        <time>2023-07-23T08:08:09Z</time>
      </trkpt>
      <trkpt lat="48.36608" lon="7.42529">
        <ele>259.2</ele>
        <time>2023-07-23T08:08:10Z</time>
      </trkpt>
      <trkpt lat="48.366" lon="7.42535">
        <ele>258.9</ele>
        <time>2023-07-23T08:08:11Z</time>
      </trkpt>
      <trkpt lat="48.36592" lon="7.42541">
        <ele>258.7</ele>
        <time>2023-07-23T08:08:12Z</time>
      </trkpt>
      <trkpt lat="48.36583" lon="7.42547">
        <ele>258.5</ele>
        <time>2023-07-23T08:08:13Z</time>
      </trkpt>
      <trkpt lat="48.36575" lon="7.42552">
        <ele>258.3</ele>
        <time>2023-07-23T08:08:14Z</time>
      </trkpt>
      <trkpt lat="48.36566" lon="7.42558">
        <ele>258.1</ele>
        <time>2023-07-23T08:08:15Z</time>
      </trkpt>
      <trkpt lat="48.36558" lon="7.42563">
        <ele>258</ele>
        <time>2023-07-23T08:08:16Z</time>
      </trkpt>
      <trkpt lat="48.3655" lon="7.42569">
        <ele>257.8</ele>
        <time>2023-07-23T08:08:17Z</time>
      </trkpt>
      <trkpt lat="48.36542" lon="7.42574">
        <ele>257.7</ele>
        <time>2023-07-23T08:08:18Z</time>
      </trkpt>
      <trkpt lat="48.36534" lon="7.42579">
        <ele>257.7</ele>
        <time>2023-07-23T08:08:19Z</time>
      </trkpt>
      <trkpt lat="48.36526" lon="7.42585">
        <ele>257.6</ele>
        <time>2023-07-23T08:08:20Z</time>
      </trkpt>
      <trkpt lat="48.36518" lon="7.42589">
        <ele>257.4</ele>
        <time>2023-07-23T08:08:21Z</time>
      </trkpt>
      <trkpt lat="48.3651" lon="7.42593">
        <ele>257.2</ele>
        <time>2023-07-23T08:08:23Z</time>
      </trkpt>
      <trkpt lat="48.36502" lon="7.42597">
        <ele>257</ele>
        <time>2023-07-23T08:08:24Z</time>
      </trkpt>
      <trkpt lat="48.36493" lon="7.42601">
        <ele>256.9</ele>
        <time>2023-07-23T08:08:25Z</time>
      </trkpt>
      <trkpt lat="48.36486" lon="7.42605">
        <ele>256.7</ele>
        <time>2023-07-23T08:08:26Z</time>
      </trkpt>
      <trkpt lat="48.36478" lon="7.42608">
        <ele>256.6</ele>
        <time>2023-07-23T08:08:27Z</time>
      </trkpt>
      <trkpt lat="48.36472" lon="7.42613">
        <ele>256.5</ele>
        <time>2023-07-23T08:08:28Z</time>
      </trkpt>
      <trkpt lat="48.36466" lon="7.42618">
        <ele>256.4</ele>
        <time>2023-07-23T08:08:29Z</time>
      </trkpt>
      <trkpt lat="48.3646" lon="7.42623">
        <ele>256.3</ele>
        <time>2023-07-23T08:08:30Z</time>
      </trkpt>
      <trkpt lat="48.36454" lon="7.42629">
        <ele>256.3</ele>
        <time>2023-07-23T08:08:31Z</time>
      </trkpt>
      <trkpt lat="48.36448" lon="7.42634">
        <ele>256.2</ele>
        <time>2023-07-23T08:08:32Z</time>
      </trkpt>
      <trkpt lat="48.36441" lon="7.4264">
        <ele>256</ele>
        <time>2023-07-23T08:08:33Z</time>
      </trkpt>
      <trkpt lat="48.36435" lon="7.42646">
        <ele>255.9</ele>
        <time>2023-07-23T08:08:34Z</time>
      </trkpt>
      <trkpt lat="48.36428" lon="7.42651">
        <ele>255.8</ele>
        <time>2023-07-23T08:08:35Z</time>
      </trkpt>
      <trkpt lat="48.36422" lon="7.42657">
        <ele>255.7</ele>
        <time>2023-07-23T08:08:36Z</time>
      </trkpt>
      <trkpt lat="48.36416" lon="7.42664">
        <ele>255.6</ele>
        <time>2023-07-23T08:08:37Z</time>
      </trkpt>
      <trkpt lat="48.36411" lon="7.42673">
        <ele>255.4</ele>
        <time>2023-07-23T08:08:38Z</time>
      </trkpt>
      <trkpt lat="48.36406" lon="7.42681">
        <ele>255.3</ele>
        <time>2023-07-23T08:08:39Z</time>
      </trkpt>
      <trkpt lat="48.36403" lon="7.42691">
        <ele>255.1</ele>
        <time>2023-07-23T08:08:40Z</time>
      </trkpt>
      <trkpt lat="48.36399" lon="7.42701">
        <ele>254.9</ele>
        <time>2023-07-23T08:08:41Z</time>
      </trkpt>
      <trkpt lat="48.36396" lon="7.42711">
        <ele>254.7</ele>
        <time>2023-07-23T08:08:42Z</time>
      </trkpt>
      <trkpt lat="48.36393" lon="7.42722">
        <ele>254.5</ele>
        <time>2023-07-23T08:08:43Z</time>
      </trkpt>
      <trkpt lat="48.36391" lon="7.42733">
        <ele>254.3</ele>
        <time>2023-07-23T08:08:44Z</time>
      </trkpt>
      <trkpt lat="48.36389" lon="7.42744">
        <ele>254.2</ele>
        <time>2023-07-23T08:08:45Z</time>
      </trkpt>
      <trkpt lat="48.3639" lon="7.42756">
        <ele>254.1</ele>
        <time>2023-07-23T08:08:46Z</time>
      </trkpt>
      <trkpt lat="48.3639" lon="7.42768">
        <ele>254</ele>
        <time>2023-07-23T08:08:47Z</time>
      </trkpt>
      <trkpt lat="48.3639" lon="7.4278">
        <ele>253.9</ele>
        <time>2023-07-23T08:08:48Z</time>
      </trkpt>
      <trkpt lat="48.36391" lon="7.42791">
        <ele>253.9</ele>
        <time>2023-07-23T08:08:49Z</time>
      </trkpt>
      <trkpt lat="48.36391" lon="7.42802">
        <ele>253.9</ele>
        <time>2023-07-23T08:08:50Z</time>
      </trkpt>
      <trkpt lat="48.36391" lon="7.42813">
        <ele>253.8</ele>
        <time>2023-07-23T08:08:51Z</time>
      </trkpt>
      <trkpt lat="48.36393" lon="7.42834">
        <ele>253.8</ele>
        <time>2023-07-23T08:08:52Z</time>
      </trkpt>
      <trkpt lat="48.36393" lon="7.42845">
        <ele>253.7</ele>
        <time>2023-07-23T08:08:53Z</time>
      </trkpt>
      <trkpt lat="48.36394" lon="7.42856">
        <ele>253.6</ele>
        <time>2023-07-23T08:08:54Z</time>
      </trkpt>
      <trkpt lat="48.36395" lon="7.42866">
        <ele>253.5</ele>
        <time>2023-07-23T08:08:55Z</time>
      </trkpt>
      <trkpt lat="48.36395" lon="7.42878">
        <ele>253.4</ele>
        <time>2023-07-23T08:08:56Z</time>
      </trkpt>
      <trkpt lat="48.36395" lon="7.42889">
        <ele>253.2</ele>
        <time>2023-07-23T08:08:57Z</time>
      </trkpt>
      <trkpt lat="48.36396" lon="7.42899">
        <ele>253.1</ele>
        <time>2023-07-23T08:08:58Z</time>
      </trkpt>
      <trkpt lat="48.36397" lon="7.4291">
        <ele>252.9</ele>
        <time>2023-07-23T08:08:59Z</time>
      </trkpt>
      <trkpt lat="48.36397" lon="7.42921">
        <ele>252.8</ele>
        <time>2023-07-23T08:09:00Z</time>
      </trkpt>
      <trkpt lat="48.36398" lon="7.42931">
        <ele>252.5</ele>
        <time>2023-07-23T08:09:01Z</time>
      </trkpt>
      <trkpt lat="48.36398" lon="7.42942">
        <ele>252.3</ele>
        <time>2023-07-23T08:09:02Z</time>
      </trkpt>
      <trkpt lat="48.36398" lon="7.42953">
        <ele>252.1</ele>
        <time>2023-07-23T08:09:03Z</time>
      </trkpt>
      <trkpt lat="48.36398" lon="7.42965">
        <ele>251.9</ele>
        <time>2023-07-23T08:09:04Z</time>
      </trkpt>
      <trkpt lat="48.36398" lon="7.42976">
        <ele>251.8</ele>
        <time>2023-07-23T08:09:05Z</time>
      </trkpt>
      <trkpt lat="48.36398" lon="7.42988">
        <ele>251.6</ele>
        <time>2023-07-23T08:09:06Z</time>
      </trkpt>
      <trkpt lat="48.36398" lon="7.42999">
        <ele>251.5</ele>
        <time>2023-07-23T08:09:07Z</time>
      </trkpt>
      <trkpt lat="48.36398" lon="7.43011">
        <ele>251.3</ele>
        <time>2023-07-23T08:09:08Z</time>
      </trkpt>
      <trkpt lat="48.36398" lon="7.43022">
        <ele>251.2</ele>
        <time>2023-07-23T08:09:09Z</time>
      </trkpt>
      <trkpt lat="48.36398" lon="7.43033">
        <ele>251.1</ele>
        <time>2023-07-23T08:09:10Z</time>
      </trkpt>
      <trkpt lat="48.36399" lon="7.43044">
        <ele>250.9</ele>
        <time>2023-07-23T08:09:11Z</time>
      </trkpt>
      <trkpt lat="48.36399" lon="7.43054">
        <ele>250.8</ele>
        <time>2023-07-23T08:09:12Z</time>
      </trkpt>
      <trkpt lat="48.364" lon="7.43065">
        <ele>250.7</ele>
        <time>2023-07-23T08:09:13Z</time>
      </trkpt>
      <trkpt lat="48.36399" lon="7.43076">
        <ele>250.6</ele>
        <time>2023-07-23T08:09:14Z</time>
      </trkpt>
      <trkpt lat="48.36399" lon="7.43086">
        <ele>250.5</ele>
        <time>2023-07-23T08:09:15Z</time>
      </trkpt>
      <trkpt lat="48.36398" lon="7.43097">
        <ele>250.4</ele>
        <time>2023-07-23T08:09:16Z</time>
      </trkpt>
      <trkpt lat="48.36398" lon="7.43107">
        <ele>250.2</ele>
        <time>2023-07-23T08:09:17Z</time>
      </trkpt>
      <trkpt lat="48.36397" lon="7.43117">
        <ele>250</ele>
        <time>2023-07-23T08:09:18Z</time>
      </trkpt>
      <trkpt lat="48.36395" lon="7.43126">
        <ele>249.8</ele>
        <time>2023-07-23T08:09:19Z</time>
      </trkpt>
      <trkpt lat="48.36394" lon="7.43137">
        <ele>249.5</ele>
        <time>2023-07-23T08:09:20Z</time>
      </trkpt>
      <trkpt lat="48.36393" lon="7.43148">
        <ele>249.2</ele>
        <time>2023-07-23T08:09:21Z</time>
      </trkpt>
      <trkpt lat="48.36392" lon="7.43159">
        <ele>248.9</ele>
        <time>2023-07-23T08:09:22Z</time>
      </trkpt>
      <trkpt lat="48.36391" lon="7.4317">
        <ele>248.6</ele>
        <time>2023-07-23T08:09:23Z</time>
      </trkpt>
      <trkpt lat="48.3639" lon="7.43181">
        <ele>248.3</ele>
        <time>2023-07-23T08:09:24Z</time>
      </trkpt>
      <trkpt lat="48.36389" lon="7.43192">
        <ele>248.1</ele>
        <time>2023-07-23T08:09:25Z</time>
      </trkpt>
      <trkpt lat="48.36387" lon="7.43203">
        <ele>247.8</ele>
        <time>2023-07-23T08:09:26Z</time>
      </trkpt>
      <trkpt lat="48.36386" lon="7.43215">
        <ele>247.5</ele>
        <time>2023-07-23T08:09:27Z</time>
      </trkpt>
      <trkpt lat="48.36385" lon="7.43227">
        <ele>247.3</ele>
        <time>2023-07-23T08:09:28Z</time>
      </trkpt>
      <trkpt lat="48.36385" lon="7.43239">
        <ele>247.1</ele>
        <time>2023-07-23T08:09:29Z</time>
      </trkpt>
      <trkpt lat="48.36384" lon="7.43251">
        <ele>246.8</ele>
        <time>2023-07-23T08:09:30Z</time>
      </trkpt>
      <trkpt lat="48.36384" lon="7.43263">
        <ele>246.7</ele>
        <time>2023-07-23T08:09:31Z</time>
      </trkpt>
      <trkpt lat="48.36384" lon="7.43275">
        <ele>246.5</ele>
        <time>2023-07-23T08:09:32Z</time>
      </trkpt>
      <trkpt lat="48.36385" lon="7.43286">
        <ele>246.4</ele>
        <time>2023-07-23T08:09:33Z</time>
      </trkpt>
      <trkpt lat="48.36385" lon="7.43298">
        <ele>246.2</ele>
        <time>2023-07-23T08:09:34Z</time>
      </trkpt>
      <trkpt lat="48.36385" lon="7.43307">
        <ele>246.1</ele>
        <time>2023-07-23T08:09:35Z</time>
      </trkpt>
      <trkpt lat="48.36384" lon="7.43314">
        <ele>245.9</ele>
        <time>2023-07-23T08:09:36Z</time>
      </trkpt>
      <trkpt lat="48.3638" lon="7.43318">
        <ele>245.7</ele>
        <time>2023-07-23T08:09:37Z</time>
      </trkpt>
      <trkpt lat="48.36374" lon="7.43319">
        <ele>245.5</ele>
        <time>2023-07-23T08:09:38Z</time>
      </trkpt>
      <trkpt lat="48.36368" lon="7.43316">
        <ele>245.2</ele>
        <time>2023-07-23T08:09:39Z</time>
      </trkpt>
      <trkpt lat="48.36362" lon="7.4331">
        <ele>244.9</ele>
        <time>2023-07-23T08:09:40Z</time>
      </trkpt>
      <trkpt lat="48.36358" lon="7.43303">
        <ele>244.5</ele>
        <time>2023-07-23T08:09:41Z</time>
      </trkpt>
      <trkpt lat="48.36355" lon="7.43293">
        <ele>244</ele>
        <time>2023-07-23T08:09:42Z</time>
      </trkpt>
      <trkpt lat="48.36352" lon="7.43282">
        <ele>243.6</ele>
        <time>2023-07-23T08:09:43Z</time>
      </trkpt>
      <trkpt lat="48.3635" lon="7.43271">
        <ele>243.1</ele>
        <time>2023-07-23T08:09:44Z</time>
      </trkpt>
      <trkpt lat="48.36347" lon="7.4326">
        <ele>242.7</ele>
        <time>2023-07-23T08:09:45Z</time>
      </trkpt>
      <trkpt lat="48.36344" lon="7.43248">
        <ele>242.2</ele>
        <time>2023-07-23T08:09:46Z</time>
      </trkpt>
      <trkpt lat="48.36342" lon="7.43236">
        <ele>241.7</ele>
        <time>2023-07-23T08:09:47Z</time>
      </trkpt>
      <trkpt lat="48.36339" lon="7.43224">
        <ele>241.2</ele>
        <time>2023-07-23T08:09:48Z</time>
      </trkpt>
      <trkpt lat="48.36336" lon="7.43212">
        <ele>240.6</ele>
        <time>2023-07-23T08:09:49Z</time>
      </trkpt>
      <trkpt lat="48.36333" lon="7.43199">
        <ele>240.1</ele>
        <time>2023-07-23T08:09:50Z</time>
      </trkpt>
      <trkpt lat="48.3633" lon="7.43186">
        <ele>239.5</ele>
        <time>2023-07-23T08:09:51Z</time>
      </trkpt>
      <trkpt lat="48.36327" lon="7.43172">
        <ele>238.9</ele>
        <time>2023-07-23T08:09:52Z</time>
      </trkpt>
      <trkpt lat="48.36324" lon="7.43159">
        <ele>238.4</ele>
        <time>2023-07-23T08:09:53Z</time>
      </trkpt>
      <trkpt lat="48.36321" lon="7.43145">
        <ele>237.8</ele>
        <time>2023-07-23T08:09:54Z</time>
      </trkpt>
      <trkpt lat="48.36318" lon="7.43131">
        <ele>237.1</ele>
        <time>2023-07-23T08:09:55Z</time>
      </trkpt>
      <trkpt lat="48.36314" lon="7.43117">
        <ele>236.5</ele>
        <time>2023-07-23T08:09:56Z</time>
      </trkpt>
      <trkpt lat="48.36311" lon="7.43103">
        <ele>235.8</ele>
        <time>2023-07-23T08:09:57Z</time>
      </trkpt>
      <trkpt lat="48.36307" lon="7.43088">
        <ele>235.2</ele>
        <time>2023-07-23T08:09:58Z</time>
      </trkpt>
      <trkpt lat="48.36303" lon="7.43074">
        <ele>234.6</ele>
        <time>2023-07-23T08:09:59Z</time>
      </trkpt>
      <trkpt lat="48.363" lon="7.43059">
        <ele>234.1</ele>
        <time>2023-07-23T08:10:00Z</time>
      </trkpt>
      <trkpt lat="48.36297" lon="7.43045">
        <ele>233.6</ele>
        <time>2023-07-23T08:10:01Z</time>
      </trkpt>
      <trkpt lat="48.36292" lon="7.43033">
        <ele>233.1</ele>
        <time>2023-07-23T08:10:02Z</time>
      </trkpt>
      <trkpt lat="48.36286" lon="7.43025">
        <ele>232.6</ele>
        <time>2023-07-23T08:10:03Z</time>
      </trkpt>
      <trkpt lat="48.36279" lon="7.4302">
        <ele>232.1</ele>
        <time>2023-07-23T08:10:04Z</time>
      </trkpt>
      <trkpt lat="48.3627" lon="7.43017">
        <ele>231.4</ele>
        <time>2023-07-23T08:10:05Z</time>
      </trkpt>
      <trkpt lat="48.36261" lon="7.43017">
        <ele>230.7</ele>
        <time>2023-07-23T08:10:06Z</time>
      </trkpt>
      <trkpt lat="48.36252" lon="7.4302">
        <ele>229.9</ele>
        <time>2023-07-23T08:10:07Z</time>
      </trkpt>
      <trkpt lat="48.36243" lon="7.43023">
        <ele>229.2</ele>
        <time>2023-07-23T08:10:08Z</time>
      </trkpt>
      <trkpt lat="48.36233" lon="7.43026">
        <ele>228.4</ele>
        <time>2023-07-23T08:10:09Z</time>
      </trkpt>
      <trkpt lat="48.36223" lon="7.4303">
        <ele>227.5</ele>
        <time>2023-07-23T08:10:10Z</time>
      </trkpt>
      <trkpt lat="48.36212" lon="7.43034">
        <ele>226.7</ele>
        <time>2023-07-23T08:10:11Z</time>
      </trkpt>
      <trkpt lat="48.36201" lon="7.43036">
        <ele>225.8</ele>
        <time>2023-07-23T08:10:12Z</time>
      </trkpt>
      <trkpt lat="48.3619" lon="7.43038">
        <ele>225</ele>
        <time>2023-07-23T08:10:13Z</time>
      </trkpt>
      <trkpt lat="48.36179" lon="7.43039">
        <ele>224.3</ele>
        <time>2023-07-23T08:10:14Z</time>
      </trkpt>
      <trkpt lat="48.36167" lon="7.43039">
        <ele>223.6</ele>
        <time>2023-07-23T08:10:15Z</time>
      </trkpt>
      <trkpt lat="48.36156" lon="7.43038">
        <ele>222.9</ele>
        <time>2023-07-23T08:10:16Z</time>
      </trkpt>
      <trkpt lat="48.36145" lon="7.43033">
        <ele>222.3</ele>
        <time>2023-07-23T08:10:17Z</time>
      </trkpt>
      <trkpt lat="48.36135" lon="7.43025">
        <ele>221.9</ele>
        <time>2023-07-23T08:10:18Z</time>
      </trkpt>
      <trkpt lat="48.36127" lon="7.43014">
        <ele>221.5</ele>
        <time>2023-07-23T08:10:19Z</time>
      </trkpt>
      <trkpt lat="48.3612" lon="7.43002">
        <ele>221</ele>
        <time>2023-07-23T08:10:20Z</time>
      </trkpt>
      <trkpt lat="48.36115" lon="7.42987">
        <ele>220.7</ele>
        <time>2023-07-23T08:10:21Z</time>
      </trkpt>
      <trkpt lat="48.3611" lon="7.42973">
        <ele>220.3</ele>
        <time>2023-07-23T08:10:22Z</time>
      </trkpt>
      <trkpt lat="48.36107" lon="7.42957">
        <ele>220.1</ele>
        <time>2023-07-23T08:10:23Z</time>
      </trkpt>
      <trkpt lat="48.36102" lon="7.42943">
        <ele>219.9</ele>
        <time>2023-07-23T08:10:24Z</time>
      </trkpt>
      <trkpt lat="48.36095" lon="7.4293">
        <ele>219.7</ele>
        <time>2023-07-23T08:10:25Z</time>
      </trkpt>
      <trkpt lat="48.36087" lon="7.4292">
        <ele>219.5</ele>
        <time>2023-07-23T08:10:26Z</time>
      </trkpt>
      <trkpt lat="48.36077" lon="7.42913">
        <ele>219.5</ele>
        <time>2023-07-23T08:10:27Z</time>
      </trkpt>
      <trkpt lat="48.36067" lon="7.4291">
        <ele>219.5</ele>
        <time>2023-07-23T08:10:29Z</time>
      </trkpt>
      <trkpt lat="48.36058" lon="7.42908">
        <ele>219.6</ele>
        <time>2023-07-23T08:10:30Z</time>
      </trkpt>
      <trkpt lat="48.36048" lon="7.42907">
        <ele>219.6</ele>
        <time>2023-07-23T08:10:31Z</time>
      </trkpt>
      <trkpt lat="48.36039" lon="7.42904">
        <ele>219.7</ele>
        <time>2023-07-23T08:10:32Z</time>
      </trkpt>
      <trkpt lat="48.36031" lon="7.42901">
        <ele>219.9</ele>
        <time>2023-07-23T08:10:33Z</time>
      </trkpt>
      <trkpt lat="48.36022" lon="7.42898">
        <ele>220</ele>
        <time>2023-07-23T08:10:34Z</time>
      </trkpt>
      <trkpt lat="48.36014" lon="7.42893">
        <ele>220.1</ele>
        <time>2023-07-23T08:10:35Z</time>
      </trkpt>
      <trkpt lat="48.36007" lon="7.42887">
        <ele>220.2</ele>
        <time>2023-07-23T08:10:36Z</time>
      </trkpt>
      <trkpt lat="48.36" lon="7.4288">
        <ele>220.3</ele>
        <time>2023-07-23T08:10:37Z</time>
      </trkpt>
      <trkpt lat="48.35994" lon="7.42871">
        <ele>220.3</ele>
        <time>2023-07-23T08:10:38Z</time>
      </trkpt>
      <trkpt lat="48.35988" lon="7.42862">
        <ele>220.3</ele>
        <time>2023-07-23T08:10:39Z</time>
      </trkpt>
      <trkpt lat="48.35983" lon="7.42852">
        <ele>220.4</ele>
        <time>2023-07-23T08:10:40Z</time>
      </trkpt>
      <trkpt lat="48.3598" lon="7.42841">
        <ele>220.4</ele>
        <time>2023-07-23T08:10:41Z</time>
      </trkpt>
      <trkpt lat="48.35976" lon="7.4283">
        <ele>220.4</ele>
        <time>2023-07-23T08:10:42Z</time>
      </trkpt>
      <trkpt lat="48.35974" lon="7.42819">
        <ele>220.4</ele>
        <time>2023-07-23T08:10:43Z</time>
      </trkpt>
      <trkpt lat="48.35972" lon="7.42808">
        <ele>220.5</ele>
        <time>2023-07-23T08:10:44Z</time>
      </trkpt>
      <trkpt lat="48.3597" lon="7.42796">
        <ele>220.5</ele>
        <time>2023-07-23T08:10:45Z</time>
      </trkpt>
      <trkpt lat="48.35968" lon="7.42784">
        <ele>220.5</ele>
        <time>2023-07-23T08:10:46Z</time>
      </trkpt>
      <trkpt lat="48.35967" lon="7.42773">
        <ele>220.5</ele>
        <time>2023-07-23T08:10:47Z</time>
      </trkpt>
      <trkpt lat="48.35965" lon="7.42761">
        <ele>220.6</ele>
        <time>2023-07-23T08:10:48Z</time>
      </trkpt>
      <trkpt lat="48.35963" lon="7.4275">
        <ele>220.6</ele>
        <time>2023-07-23T08:10:49Z</time>
      </trkpt>
      <trkpt lat="48.35961" lon="7.42739">
        <ele>220.7</ele>
        <time>2023-07-23T08:10:50Z</time>
      </trkpt>
      <trkpt lat="48.35957" lon="7.42729">
        <ele>220.8</ele>
        <time>2023-07-23T08:10:51Z</time>
      </trkpt>
      <trkpt lat="48.35954" lon="7.42719">
        <ele>220.9</ele>
        <time>2023-07-23T08:10:52Z</time>
      </trkpt>
      <trkpt lat="48.3595" lon="7.42709">
        <ele>221.1</ele>
        <time>2023-07-23T08:10:53Z</time>
      </trkpt>
      <trkpt lat="48.35947" lon="7.42699">
        <ele>221.2</ele>
        <time>2023-07-23T08:10:54Z</time>
      </trkpt>
      <trkpt lat="48.35943" lon="7.42689">
        <ele>221.4</ele>
        <time>2023-07-23T08:10:55Z</time>
      </trkpt>
      <trkpt lat="48.35939" lon="7.4268">
        <ele>221.5</ele>
        <time>2023-07-23T08:10:56Z</time>
      </trkpt>
      <trkpt lat="48.35935" lon="7.4267">
        <ele>221.6</ele>
        <time>2023-07-23T08:10:57Z</time>
      </trkpt>
      <trkpt lat="48.35931" lon="7.42661">
        <ele>221.7</ele>
        <time>2023-07-23T08:10:58Z</time>
      </trkpt>
      <trkpt lat="48.35927" lon="7.42652">
        <ele>221.9</ele>
        <time>2023-07-23T08:10:59Z</time>
      </trkpt>
      <trkpt lat="48.35922" lon="7.42643">
        <ele>222</ele>
        <time>2023-07-23T08:11:00Z</time>
      </trkpt>
      <trkpt lat="48.35916" lon="7.42635">
        <ele>222.1</ele>
        <time>2023-07-23T08:11:01Z</time>
      </trkpt>
      <trkpt lat="48.35911" lon="7.42628">
        <ele>222.2</ele>
        <time>2023-07-23T08:11:02Z</time>
      </trkpt>
      <trkpt lat="48.35905" lon="7.42622">
        <ele>222.3</ele>
        <time>2023-07-23T08:11:03Z</time>
      </trkpt>
      <trkpt lat="48.35898" lon="7.42617">
        <ele>222.3</ele>
        <time>2023-07-23T08:11:04Z</time>
      </trkpt>
      <trkpt lat="48.35884" lon="7.42609">
        <ele>222.4</ele>
        <time>2023-07-23T08:11:05Z</time>
      </trkpt>
      <trkpt lat="48.35877" lon="7.42605">
        <ele>222.4</ele>
        <time>2023-07-23T08:11:06Z</time>
      </trkpt>
      <trkpt lat="48.3587" lon="7.42601">
        <ele>222.4</ele>
        <time>2023-07-23T08:11:07Z</time>
      </trkpt>
      <trkpt lat="48.35863" lon="7.42598">
        <ele>222.4</ele>
        <time>2023-07-23T08:11:08Z</time>
      </trkpt>
      <trkpt lat="48.35856" lon="7.42594">
        <ele>222.4</ele>
        <time>2023-07-23T08:11:09Z</time>
      </trkpt>
      <trkpt lat="48.35849" lon="7.42591">
        <ele>222.3</ele>
        <time>2023-07-23T08:11:10Z</time>
      </trkpt>
      <trkpt lat="48.35842" lon="7.42587">
        <ele>222.3</ele>
        <time>2023-07-23T08:11:11Z</time>
      </trkpt>
      <trkpt lat="48.35834" lon="7.42583">
        <ele>222.3</ele>
        <time>2023-07-23T08:11:12Z</time>
      </trkpt>
      <trkpt lat="48.35827" lon="7.4258">
        <ele>222.2</ele>
        <time>2023-07-23T08:11:13Z</time>
      </trkpt>
      <trkpt lat="48.3582" lon="7.42576">
        <ele>222.1</ele>
        <time>2023-07-23T08:11:14Z</time>
      </trkpt>
      <trkpt lat="48.35813" lon="7.42573">
        <ele>222.1</ele>
        <time>2023-07-23T08:11:15Z</time>
      </trkpt>
      <trkpt lat="48.35805" lon="7.4257">
        <ele>222</ele>
        <time>2023-07-23T08:11:16Z</time>
      </trkpt>
      <trkpt lat="48.35798" lon="7.42567">
        <ele>221.9</ele>
        <time>2023-07-23T08:11:17Z</time>
      </trkpt>
      <trkpt lat="48.3579" lon="7.42565">
        <ele>221.8</ele>
        <time>2023-07-23T08:11:18Z</time>
      </trkpt>
      <trkpt lat="48.35783" lon="7.42562">
        <ele>221.7</ele>
        <time>2023-07-23T08:11:19Z</time>
      </trkpt>
      <trkpt lat="48.35775" lon="7.4256">
        <ele>221.6</ele>
        <time>2023-07-23T08:11:20Z</time>
      </trkpt>
      <trkpt lat="48.35767" lon="7.42559">
        <ele>221.4</ele>
        <time>2023-07-23T08:11:21Z</time>
      </trkpt>
      <trkpt lat="48.3576" lon="7.42557">
        <ele>221.3</ele>
        <time>2023-07-23T08:11:22Z</time>
      </trkpt>
      <trkpt lat="48.35752" lon="7.42556">
        <ele>221.1</ele>
        <time>2023-07-23T08:11:23Z</time>
      </trkpt>
      <trkpt lat="48.35744" lon="7.42554">
        <ele>221</ele>
        <time>2023-07-23T08:11:24Z</time>
      </trkpt>
      <trkpt lat="48.35736" lon="7.42553">
        <ele>220.9</ele>
        <time>2023-07-23T08:11:25Z</time>
      </trkpt>
      <trkpt lat="48.35728" lon="7.42551">
        <ele>220.8</ele>
        <time>2023-07-23T08:11:26Z</time>
      </trkpt>
      <trkpt lat="48.3572" lon="7.42549">
        <ele>220.7</ele>
        <time>2023-07-23T08:11:27Z</time>
      </trkpt>
      <trkpt lat="48.35712" lon="7.42546">
        <ele>220.7</ele>
        <time>2023-07-23T08:11:28Z</time>
      </trkpt>
      <trkpt lat="48.35704" lon="7.42543">
        <ele>220.6</ele>
        <time>2023-07-23T08:11:29Z</time>
      </trkpt>
      <trkpt lat="48.35696" lon="7.42541">
        <ele>220.6</ele>
        <time>2023-07-23T08:11:30Z</time>
      </trkpt>
      <trkpt lat="48.35689" lon="7.42539">
        <ele>220.6</ele>
        <time>2023-07-23T08:11:31Z</time>
      </trkpt>
      <trkpt lat="48.35681" lon="7.42539">
        <ele>220.5</ele>
        <time>2023-07-23T08:11:32Z</time>
      </trkpt>
      <trkpt lat="48.35673" lon="7.42539">
        <ele>220.5</ele>
        <time>2023-07-23T08:11:33Z</time>
      </trkpt>
      <trkpt lat="48.35665" lon="7.42537">
        <ele>220.5</ele>
        <time>2023-07-23T08:11:34Z</time>
      </trkpt>
      <trkpt lat="48.35658" lon="7.42534">
        <ele>220.4</ele>
        <time>2023-07-23T08:11:35Z</time>
      </trkpt>
      <trkpt lat="48.3565" lon="7.42532">
        <ele>220.4</ele>
        <time>2023-07-23T08:11:36Z</time>
      </trkpt>
      <trkpt lat="48.35642" lon="7.4253">
        <ele>220.4</ele>
        <time>2023-07-23T08:11:37Z</time>
      </trkpt>
      <trkpt lat="48.35635" lon="7.42527">
        <ele>220.5</ele>
        <time>2023-07-23T08:11:38Z</time>
      </trkpt>
      <trkpt lat="48.35627" lon="7.42524">
        <ele>220.6</ele>
        <time>2023-07-23T08:11:39Z</time>
      </trkpt>
      <trkpt lat="48.3562" lon="7.42522">
        <ele>220.6</ele>
        <time>2023-07-23T08:11:40Z</time>
      </trkpt>
      <trkpt lat="48.35613" lon="7.42519">
        <ele>220.7</ele>
        <time>2023-07-23T08:11:41Z</time>
      </trkpt>
      <trkpt lat="48.35606" lon="7.42516">
        <ele>220.7</ele>
        <time>2023-07-23T08:11:42Z</time>
      </trkpt>
      <trkpt lat="48.35599" lon="7.42514">
        <ele>220.7</ele>
        <time>2023-07-23T08:11:43Z</time>
      </trkpt>
      <trkpt lat="48.35592" lon="7.42511">
        <ele>220.7</ele>
        <time>2023-07-23T08:11:44Z</time>
      </trkpt>
      <trkpt lat="48.35586" lon="7.42508">
        <ele>220.7</ele>
        <time>2023-07-23T08:11:45Z</time>
      </trkpt>
      <trkpt lat="48.3558" lon="7.42506">
        <ele>220.7</ele>
        <time>2023-07-23T08:11:46Z</time>
      </trkpt>
      <trkpt lat="48.35573" lon="7.42503">
        <ele>220.8</ele>
        <time>2023-07-23T08:11:47Z</time>
      </trkpt>
      <trkpt lat="48.35567" lon="7.42501">
        <ele>220.9</ele>
        <time>2023-07-23T08:11:48Z</time>
      </trkpt>
      <trkpt lat="48.35561" lon="7.42497">
        <ele>221</ele>
        <time>2023-07-23T08:11:49Z</time>
      </trkpt>
      <trkpt lat="48.35555" lon="7.42492">
        <ele>221.1</ele>
        <time>2023-07-23T08:11:50Z</time>
      </trkpt>
      <trkpt lat="48.35551" lon="7.42485">
        <ele>221.3</ele>
        <time>2023-07-23T08:11:51Z</time>
      </trkpt>
      <trkpt lat="48.35548" lon="7.42477">
        <ele>221.4</ele>
        <time>2023-07-23T08:11:52Z</time>
      </trkpt>
      <trkpt lat="48.35547" lon="7.42467">
        <ele>221.5</ele>
        <time>2023-07-23T08:11:53Z</time>
      </trkpt>
      <trkpt lat="48.35547" lon="7.42459">
        <ele>221.6</ele>
        <time>2023-07-23T08:11:54Z</time>
      </trkpt>
      <trkpt lat="48.35548" lon="7.42451">
        <ele>221.7</ele>
        <time>2023-07-23T08:11:55Z</time>
      </trkpt>
      <trkpt lat="48.3555" lon="7.42443">
        <ele>221.9</ele>
        <time>2023-07-23T08:11:56Z</time>
      </trkpt>
      <trkpt lat="48.35551" lon="7.42436">
        <ele>222</ele>
        <time>2023-07-23T08:11:57Z</time>
      </trkpt>
      <trkpt lat="48.35553" lon="7.42429">
        <ele>222</ele>
        <time>2023-07-23T08:11:58Z</time>
      </trkpt>
      <trkpt lat="48.35555" lon="7.42423">
        <ele>222.1</ele>
        <time>2023-07-23T08:11:59Z</time>
      </trkpt>
      <trkpt lat="48.35557" lon="7.42416">
        <ele>222.2</ele>
        <time>2023-07-23T08:12:00Z</time>
      </trkpt>
      <trkpt lat="48.35559" lon="7.42409">
        <ele>222.3</ele>
        <time>2023-07-23T08:12:01Z</time>
      </trkpt>
      <trkpt lat="48.3556" lon="7.42401">
        <ele>222.4</ele>
        <time>2023-07-23T08:12:02Z</time>
      </trkpt>
      <trkpt lat="48.35562" lon="7.42394">
        <ele>222.5</ele>
        <time>2023-07-23T08:12:03Z</time>
      </trkpt>
      <trkpt lat="48.35564" lon="7.42386">
        <ele>222.6</ele>
        <time>2023-07-23T08:12:04Z</time>
      </trkpt>
      <trkpt lat="48.35566" lon="7.42379">
        <ele>222.7</ele>
        <time>2023-07-23T08:12:05Z</time>
      </trkpt>
      <trkpt lat="48.35569" lon="7.42371">
        <ele>222.8</ele>
        <time>2023-07-23T08:12:06Z</time>
      </trkpt>
      <trkpt lat="48.35571" lon="7.42363">
        <ele>223</ele>
        <time>2023-07-23T08:12:07Z</time>
      </trkpt>
      <trkpt lat="48.35574" lon="7.42355">
        <ele>223.1</ele>
        <time>2023-07-23T08:12:08Z</time>
      </trkpt>
      <trkpt lat="48.35576" lon="7.42348">
        <ele>223.2</ele>
        <time>2023-07-23T08:12:09Z</time>
      </trkpt>
      <trkpt lat="48.35579" lon="7.4234">
        <ele>223.4</ele>
        <time>2023-07-23T08:12:10Z</time>
      </trkpt>
      <trkpt lat="48.35581" lon="7.42333">
        <ele>223.5</ele>
        <time>2023-07-23T08:12:11Z</time>
      </trkpt>
      <trkpt lat="48.35584" lon="7.42325">
        <ele>223.6</ele>
        <time>2023-07-23T08:12:12Z</time>
      </trkpt>
      <trkpt lat="48.35587" lon="7.42318">
        <ele>223.8</ele>
        <time>2023-07-23T08:12:13Z</time>
      </trkpt>
      <trkpt lat="48.35589" lon="7.42311">
        <ele>223.9</ele>
        <time>2023-07-23T08:12:14Z</time>
      </trkpt>
      <trkpt lat="48.35592" lon="7.42303">
        <ele>224</ele>
        <time>2023-07-23T08:12:15Z</time>
      </trkpt>
      <trkpt lat="48.35594" lon="7.42296">
        <ele>224.1</ele>
        <time>2023-07-23T08:12:16Z</time>
      </trkpt>
      <trkpt lat="48.35596" lon="7.42288">
        <ele>224.2</ele>
        <time>2023-07-23T08:12:17Z</time>
      </trkpt>
      <trkpt lat="48.35598" lon="7.4228">
        <ele>224.3</ele>
        <time>2023-07-23T08:12:18Z</time>
      </trkpt>
      <trkpt lat="48.35599" lon="7.42272">
        <ele>224.4</ele>
        <time>2023-07-23T08:12:19Z</time>
      </trkpt>
      <trkpt lat="48.35599" lon="7.42263">
        <ele>224.4</ele>
        <time>2023-07-23T08:12:20Z</time>
      </trkpt>
      <trkpt lat="48.35598" lon="7.42255">
        <ele>224.4</ele>
        <time>2023-07-23T08:12:21Z</time>
      </trkpt>
      <trkpt lat="48.35598" lon="7.42245">
        <ele>224.4</ele>
        <time>2023-07-23T08:12:22Z</time>
      </trkpt>
      <trkpt lat="48.35597" lon="7.42236">
        <ele>224.4</ele>
        <time>2023-07-23T08:12:23Z</time>
      </trkpt>
      <trkpt lat="48.35596" lon="7.42227">
        <ele>224.3</ele>
        <time>2023-07-23T08:12:24Z</time>
      </trkpt>
      <trkpt lat="48.35595" lon="7.42218">
        <ele>224.3</ele>
        <time>2023-07-23T08:12:25Z</time>
      </trkpt>
      <trkpt lat="48.35594" lon="7.42208">
        <ele>224.3</ele>
        <time>2023-07-23T08:12:26Z</time>
      </trkpt>
      <trkpt lat="48.35592" lon="7.42199">
        <ele>224.3</ele>
        <time>2023-07-23T08:12:27Z</time>
      </trkpt>
      <trkpt lat="48.3559" lon="7.42189">
        <ele>224.3</ele>
        <time>2023-07-23T08:12:28Z</time>
      </trkpt>
      <trkpt lat="48.35589" lon="7.4218">
        <ele>224.3</ele>
        <time>2023-07-23T08:12:29Z</time>
      </trkpt>
      <trkpt lat="48.35587" lon="7.42171">
        <ele>224.3</ele>
        <time>2023-07-23T08:12:30Z</time>
      </trkpt>
      <trkpt lat="48.35585" lon="7.42162">
        <ele>224.4</ele>
        <time>2023-07-23T08:12:31Z</time>
      </trkpt>
      <trkpt lat="48.35585" lon="7.42153">
        <ele>224.5</ele>
        <time>2023-07-23T08:12:32Z</time>
      </trkpt>
      <trkpt lat="48.35585" lon="7.42144">
        <ele>224.6</ele>
        <time>2023-07-23T08:12:33Z</time>
      </trkpt>
      <trkpt lat="48.35586" lon="7.42135">
        <ele>224.7</ele>
        <time>2023-07-23T08:12:35Z</time>
      </trkpt>
      <trkpt lat="48.35587" lon="7.42126">
        <ele>224.8</ele>
        <time>2023-07-23T08:12:36Z</time>
      </trkpt>
      <trkpt lat="48.35588" lon="7.42117">
        <ele>224.9</ele>
        <time>2023-07-23T08:12:37Z</time>
      </trkpt>
      <trkpt lat="48.35588" lon="7.42109">
        <ele>225</ele>
        <time>2023-07-23T08:12:38Z</time>
      </trkpt>
      <trkpt lat="48.35589" lon="7.42101">
        <ele>225</ele>
        <time>2023-07-23T08:12:39Z</time>
      </trkpt>
      <trkpt lat="48.3559" lon="7.42093">
        <ele>225.1</ele>
        <time>2023-07-23T08:12:40Z</time>
      </trkpt>
      <trkpt lat="48.35589" lon="7.42085">
        <ele>225.2</ele>
        <time>2023-07-23T08:12:41Z</time>
      </trkpt>
      <trkpt lat="48.35587" lon="7.42078">
        <ele>225.3</ele>
        <time>2023-07-23T08:12:42Z</time>
      </trkpt>
      <trkpt lat="48.35585" lon="7.42071">
        <ele>225.3</ele>
        <time>2023-07-23T08:12:43Z</time>
      </trkpt>
      <trkpt lat="48.35582" lon="7.42065">
        <ele>225.5</ele>
        <time>2023-07-23T08:12:44Z</time>
      </trkpt>
      <trkpt lat="48.35577" lon="7.4206">
        <ele>225.6</ele>
        <time>2023-07-23T08:12:45Z</time>
      </trkpt>
      <trkpt lat="48.35573" lon="7.42055">
        <ele>225.7</ele>
        <time>2023-07-23T08:12:46Z</time>
      </trkpt>
      <trkpt lat="48.3557" lon="7.4205">
        <ele>225.9</ele>
        <time>2023-07-23T08:12:47Z</time>
      </trkpt>
      <trkpt lat="48.35566" lon="7.42046">
        <ele>226</ele>
        <time>2023-07-23T08:12:48Z</time>
      </trkpt>
      <trkpt lat="48.35562" lon="7.42042">
        <ele>226.2</ele>
        <time>2023-07-23T08:12:49Z</time>
      </trkpt>
      <trkpt lat="48.35557" lon="7.42039">
        <ele>226.4</ele>
        <time>2023-07-23T08:12:50Z</time>
      </trkpt>
      <trkpt lat="48.35553" lon="7.42036">
        <ele>226.5</ele>
        <time>2023-07-23T08:12:51Z</time>
      </trkpt>
      <trkpt lat="48.3555" lon="7.42032">
        <ele>226.7</ele>
        <time>2023-07-23T08:12:52Z</time>
      </trkpt>
      <trkpt lat="48.35546" lon="7.42029">
        <ele>226.9</ele>
        <time>2023-07-23T08:12:53Z</time>
      </trkpt>
      <trkpt lat="48.35542" lon="7.42025">
        <ele>227.1</ele>
        <time>2023-07-23T08:12:54Z</time>
      </trkpt>
      <trkpt lat="48.35538" lon="7.42021">
        <ele>227.3</ele>
        <time>2023-07-23T08:12:55Z</time>
      </trkpt>
      <trkpt lat="48.35535" lon="7.42017">
        <ele>227.5</ele>
        <time>2023-07-23T08:12:56Z</time>
      </trkpt>
      <trkpt lat="48.35531" lon="7.42014">
        <ele>227.6</ele>
        <time>2023-07-23T08:12:57Z</time>
      </trkpt>
      <trkpt lat="48.35526" lon="7.4201">
        <ele>227.7</ele>
        <time>2023-07-23T08:12:58Z</time>
      </trkpt>
      <trkpt lat="48.35522" lon="7.42009">
        <ele>227.8</ele>
        <time>2023-07-23T08:12:59Z</time>
      </trkpt>
      <trkpt lat="48.35518" lon="7.42005">
        <ele>227.9</ele>
        <time>2023-07-23T08:13:00Z</time>
      </trkpt>
      <trkpt lat="48.35513" lon="7.42002">
        <ele>228</ele>
        <time>2023-07-23T08:13:01Z</time>
      </trkpt>
      <trkpt lat="48.35509" lon="7.41998">
        <ele>228</ele>
        <time>2023-07-23T08:13:02Z</time>
      </trkpt>
      <trkpt lat="48.35504" lon="7.41996">
        <ele>227.9</ele>
        <time>2023-07-23T08:13:03Z</time>
      </trkpt>
      <trkpt lat="48.35499" lon="7.41994">
        <ele>227.9</ele>
        <time>2023-07-23T08:13:04Z</time>
      </trkpt>
      <trkpt lat="48.35494" lon="7.41991">
        <ele>227.9</ele>
        <time>2023-07-23T08:13:05Z</time>
      </trkpt>
      <trkpt lat="48.35489" lon="7.41988">
        <ele>227.8</ele>
        <time>2023-07-23T08:13:06Z</time>
      </trkpt>
      <trkpt lat="48.35484" lon="7.41985">
        <ele>227.8</ele>
        <time>2023-07-23T08:13:07Z</time>
      </trkpt>
      <trkpt lat="48.35478" lon="7.41983">
        <ele>227.6</ele>
        <time>2023-07-23T08:13:08Z</time>
      </trkpt>
      <trkpt lat="48.35473" lon="7.41982">
        <ele>227.4</ele>
        <time>2023-07-23T08:13:09Z</time>
      </trkpt>
      <trkpt lat="48.35466" lon="7.41982">
        <ele>227.2</ele>
        <time>2023-07-23T08:13:10Z</time>
      </trkpt>
      <trkpt lat="48.3546" lon="7.41981">
        <ele>227</ele>
        <time>2023-07-23T08:13:11Z</time>
      </trkpt>
      <trkpt lat="48.35448" lon="7.41978">
        <ele>226.6</ele>
        <time>2023-07-23T08:13:12Z</time>
      </trkpt>
      <trkpt lat="48.35441" lon="7.41977">
        <ele>226.4</ele>
        <time>2023-07-23T08:13:13Z</time>
      </trkpt>
      <trkpt lat="48.35434" lon="7.41975">
        <ele>226.1</ele>
        <time>2023-07-23T08:13:14Z</time>
      </trkpt>
      <trkpt lat="48.35427" lon="7.41974">
        <ele>225.9</ele>
        <time>2023-07-23T08:13:15Z</time>
      </trkpt>
      <trkpt lat="48.35419" lon="7.41973">
        <ele>225.6</ele>
        <time>2023-07-23T08:13:16Z</time>
      </trkpt>
      <trkpt lat="48.35412" lon="7.41972">
        <ele>225.2</ele>
        <time>2023-07-23T08:13:17Z</time>
      </trkpt>
      <trkpt lat="48.35404" lon="7.41971">
        <ele>224.9</ele>
        <time>2023-07-23T08:13:18Z</time>
      </trkpt>
      <trkpt lat="48.35396" lon="7.41971">
        <ele>224.5</ele>
        <time>2023-07-23T08:13:19Z</time>
      </trkpt>
      <trkpt lat="48.35388" lon="7.4197">
        <ele>224.1</ele>
        <time>2023-07-23T08:13:20Z</time>
      </trkpt>
      <trkpt lat="48.35379" lon="7.4197">
        <ele>223.7</ele>
        <time>2023-07-23T08:13:21Z</time>
      </trkpt>
      <trkpt lat="48.35371" lon="7.4197">
        <ele>223.3</ele>
        <time>2023-07-23T08:13:22Z</time>
      </trkpt>
      <trkpt lat="48.35362" lon="7.41971">
        <ele>222.9</ele>
        <time>2023-07-23T08:13:23Z</time>
      </trkpt>
      <trkpt lat="48.35353" lon="7.41972">
        <ele>222.4</ele>
        <time>2023-07-23T08:13:24Z</time>
      </trkpt>
      <trkpt lat="48.35345" lon="7.41973">
        <ele>222</ele>
        <time>2023-07-23T08:13:25Z</time>
      </trkpt>
      <trkpt lat="48.35336" lon="7.41974">
        <ele>221.7</ele>
        <time>2023-07-23T08:13:26Z</time>
      </trkpt>
      <trkpt lat="48.35327" lon="7.41974">
        <ele>221.3</ele>
        <time>2023-07-23T08:13:27Z</time>
      </trkpt>
      <trkpt lat="48.35319" lon="7.41974">
        <ele>220.9</ele>
        <time>2023-07-23T08:13:28Z</time>
      </trkpt>
      <trkpt lat="48.35311" lon="7.41974">
        <ele>220.6</ele>
        <time>2023-07-23T08:13:29Z</time>
      </trkpt>
      <trkpt lat="48.35302" lon="7.41974">
        <ele>220.2</ele>
        <time>2023-07-23T08:13:30Z</time>
      </trkpt>
      <trkpt lat="48.35293" lon="7.41974">
        <ele>219.9</ele>
        <time>2023-07-23T08:13:31Z</time>
      </trkpt>
      <trkpt lat="48.35285" lon="7.41973">
        <ele>219.6</ele>
        <time>2023-07-23T08:13:32Z</time>
      </trkpt>
      <trkpt lat="48.35276" lon="7.41973">
        <ele>219.3</ele>
        <time>2023-07-23T08:13:33Z</time>
      </trkpt>
      <trkpt lat="48.35268" lon="7.41973">
        <ele>219.1</ele>
        <time>2023-07-23T08:13:34Z</time>
      </trkpt>
      <trkpt lat="48.35259" lon="7.41972">
        <ele>218.8</ele>
        <time>2023-07-23T08:13:35Z</time>
      </trkpt>
      <trkpt lat="48.3525" lon="7.41971">
        <ele>218.5</ele>
        <time>2023-07-23T08:13:36Z</time>
      </trkpt>
      <trkpt lat="48.35242" lon="7.41969">
        <ele>218.3</ele>
        <time>2023-07-23T08:13:37Z</time>
      </trkpt>
      <trkpt lat="48.35233" lon="7.41967">
        <ele>218</ele>
        <time>2023-07-23T08:13:38Z</time>
      </trkpt>
      <trkpt lat="48.35225" lon="7.41965">
        <ele>217.7</ele>
        <time>2023-07-23T08:13:39Z</time>
      </trkpt>
      <trkpt lat="48.35217" lon="7.41961">
        <ele>217.5</ele>
        <time>2023-07-23T08:13:40Z</time>
      </trkpt>
      <trkpt lat="48.35209" lon="7.41958">
        <ele>217.3</ele>
        <time>2023-07-23T08:13:41Z</time>
      </trkpt>
      <trkpt lat="48.35202" lon="7.41954">
        <ele>217.1</ele>
        <time>2023-07-23T08:13:42Z</time>
      </trkpt>
      <trkpt lat="48.35193" lon="7.41951">
        <ele>217</ele>
        <time>2023-07-23T08:13:43Z</time>
      </trkpt>
      <trkpt lat="48.35185" lon="7.41949">
        <ele>217</ele>
        <time>2023-07-23T08:13:44Z</time>
      </trkpt>
      <trkpt lat="48.35176" lon="7.41946">
        <ele>217</ele>
        <time>2023-07-23T08:13:45Z</time>
      </trkpt>
      <trkpt lat="48.35168" lon="7.41945">
        <ele>216.8</ele>
        <time>2023-07-23T08:13:46Z</time>
      </trkpt>
      <trkpt lat="48.3516" lon="7.41944">
        <ele>216.6</ele>
        <time>2023-07-23T08:13:47Z</time>
      </trkpt>
      <trkpt lat="48.35152" lon="7.41944">
        <ele>216.4</ele>
        <time>2023-07-23T08:13:48Z</time>
      </trkpt>
      <trkpt lat="48.35144" lon="7.41942">
        <ele>216.2</ele>
        <time>2023-07-23T08:13:49Z</time>
      </trkpt>
      <trkpt lat="48.35136" lon="7.41941">
        <ele>216.1</ele>
        <time>2023-07-23T08:13:50Z</time>
      </trkpt>
      <trkpt lat="48.35128" lon="7.41939">
        <ele>215.9</ele>
        <time>2023-07-23T08:13:51Z</time>
      </trkpt>
      <trkpt lat="48.3512" lon="7.41938">
        <ele>215.8</ele>
        <time>2023-07-23T08:13:52Z</time>
      </trkpt>
      <trkpt lat="48.35112" lon="7.41937">
        <ele>215.7</ele>
        <time>2023-07-23T08:13:53Z</time>
      </trkpt>
      <trkpt lat="48.35105" lon="7.41937">
        <ele>215.7</ele>
        <time>2023-07-23T08:13:54Z</time>
      </trkpt>
      <trkpt lat="48.35097" lon="7.41937">
        <ele>215.6</ele>
        <time>2023-07-23T08:13:55Z</time>
      </trkpt>
      <trkpt lat="48.3509" lon="7.41937">
        <ele>215.4</ele>
        <time>2023-07-23T08:13:56Z</time>
      </trkpt>
      <trkpt lat="48.35082" lon="7.41937">
        <ele>215.3</ele>
        <time>2023-07-23T08:13:57Z</time>
      </trkpt>
      <trkpt lat="48.35074" lon="7.41939">
        <ele>215.2</ele>
        <time>2023-07-23T08:13:58Z</time>
      </trkpt>
      <trkpt lat="48.35067" lon="7.4194">
        <ele>215.1</ele>
        <time>2023-07-23T08:13:59Z</time>
      </trkpt>
      <trkpt lat="48.35061" lon="7.41941">
        <ele>214.9</ele>
        <time>2023-07-23T08:14:00Z</time>
      </trkpt>
      <trkpt lat="48.35052" lon="7.41942">
        <ele>214.8</ele>
        <time>2023-07-23T08:14:01Z</time>
      </trkpt>
      <trkpt lat="48.35045" lon="7.41945">
        <ele>214.7</ele>
        <time>2023-07-23T08:14:02Z</time>
      </trkpt>
      <trkpt lat="48.35037" lon="7.41949">
        <ele>214.7</ele>
        <time>2023-07-23T08:14:03Z</time>
      </trkpt>
      <trkpt lat="48.35031" lon="7.41954">
        <ele>214.6</ele>
        <time>2023-07-23T08:14:04Z</time>
      </trkpt>
      <trkpt lat="48.35024" lon="7.41958">
        <ele>214.6</ele>
        <time>2023-07-23T08:14:05Z</time>
      </trkpt>
      <trkpt lat="48.35017" lon="7.41963">
        <ele>214.6</ele>
        <time>2023-07-23T08:14:06Z</time>
      </trkpt>
      <trkpt lat="48.3501" lon="7.41967">
        <ele>214.6</ele>
        <time>2023-07-23T08:14:07Z</time>
      </trkpt>
      <trkpt lat="48.35003" lon="7.41972">
        <ele>214.7</ele>
        <time>2023-07-23T08:14:08Z</time>
      </trkpt>
      <trkpt lat="48.34996" lon="7.41975">
        <ele>214.8</ele>
        <time>2023-07-23T08:14:09Z</time>
      </trkpt>
      <trkpt lat="48.34989" lon="7.4198">
        <ele>214.9</ele>
        <time>2023-07-23T08:14:10Z</time>
      </trkpt>
      <trkpt lat="48.34983" lon="7.41986">
        <ele>215.1</ele>
        <time>2023-07-23T08:14:11Z</time>
      </trkpt>
      <trkpt lat="48.34977" lon="7.41992">
        <ele>215.3</ele>
        <time>2023-07-23T08:14:12Z</time>
      </trkpt>
      <trkpt lat="48.34971" lon="7.41997">
        <ele>215.5</ele>
        <time>2023-07-23T08:14:13Z</time>
      </trkpt>
      <trkpt lat="48.34964" lon="7.42001">
        <ele>215.7</ele>
        <time>2023-07-23T08:14:14Z</time>
      </trkpt>
      <trkpt lat="48.34959" lon="7.42004">
        <ele>215.9</ele>
        <time>2023-07-23T08:14:15Z</time>
      </trkpt>
      <trkpt lat="48.34953" lon="7.42006">
        <ele>216.1</ele>
        <time>2023-07-23T08:14:16Z</time>
      </trkpt>
      <trkpt lat="48.34948" lon="7.42008">
        <ele>216.4</ele>
        <time>2023-07-23T08:14:17Z</time>
      </trkpt>
      <trkpt lat="48.34942" lon="7.4201">
        <ele>216.6</ele>
        <time>2023-07-23T08:14:18Z</time>
      </trkpt>
      <trkpt lat="48.34937" lon="7.42011">
        <ele>216.9</ele>
        <time>2023-07-23T08:14:19Z</time>
      </trkpt>
      <trkpt lat="48.34931" lon="7.42012">
        <ele>217.1</ele>
        <time>2023-07-23T08:14:20Z</time>
      </trkpt>
      <trkpt lat="48.34926" lon="7.42013">
        <ele>217.4</ele>
        <time>2023-07-23T08:14:21Z</time>
      </trkpt>
      <trkpt lat="48.34921" lon="7.42014">
        <ele>217.7</ele>
        <time>2023-07-23T08:14:22Z</time>
      </trkpt>
      <trkpt lat="48.34916" lon="7.42015">
        <ele>218</ele>
        <time>2023-07-23T08:14:23Z</time>
      </trkpt>
      <trkpt lat="48.34911" lon="7.42016">
        <ele>218.2</ele>
        <time>2023-07-23T08:14:24Z</time>
      </trkpt>
      <trkpt lat="48.34907" lon="7.42017">
        <ele>218.5</ele>
        <time>2023-07-23T08:14:25Z</time>
      </trkpt>
      <trkpt lat="48.34902" lon="7.42019">
        <ele>218.8</ele>
        <time>2023-07-23T08:14:26Z</time>
      </trkpt>
      <trkpt lat="48.34897" lon="7.4202">
        <ele>219.1</ele>
        <time>2023-07-23T08:14:27Z</time>
      </trkpt>
      <trkpt lat="48.34892" lon="7.42021">
        <ele>219.3</ele>
        <time>2023-07-23T08:14:28Z</time>
      </trkpt>
      <trkpt lat="48.34888" lon="7.42022">
        <ele>219.5</ele>
        <time>2023-07-23T08:14:29Z</time>
      </trkpt>
      <trkpt lat="48.34883" lon="7.42024">
        <ele>219.8</ele>
        <time>2023-07-23T08:14:30Z</time>
      </trkpt>
      <trkpt lat="48.34878" lon="7.42025">
        <ele>220</ele>
        <time>2023-07-23T08:14:31Z</time>
      </trkpt>
      <trkpt lat="48.34874" lon="7.42026">
        <ele>220.2</ele>
        <time>2023-07-23T08:14:32Z</time>
      </trkpt>
      <trkpt lat="48.3487" lon="7.42027">
        <ele>220.5</ele>
        <time>2023-07-23T08:14:33Z</time>
      </trkpt>
      <trkpt lat="48.34866" lon="7.42028">
        <ele>220.8</ele>
        <time>2023-07-23T08:14:34Z</time>
      </trkpt>
      <trkpt lat="48.34861" lon="7.42029">
        <ele>221</ele>
        <time>2023-07-23T08:14:35Z</time>
      </trkpt>
      <trkpt lat="48.34857" lon="7.4203">
        <ele>221.3</ele>
        <time>2023-07-23T08:14:36Z</time>
      </trkpt>
      <trkpt lat="48.34852" lon="7.42031">
        <ele>221.6</ele>
        <time>2023-07-23T08:14:37Z</time>
      </trkpt>
      <trkpt lat="48.34848" lon="7.42032">
        <ele>221.8</ele>
        <time>2023-07-23T08:14:38Z</time>
      </trkpt>
      <trkpt lat="48.34843" lon="7.42033">
        <ele>222.1</ele>
        <time>2023-07-23T08:14:39Z</time>
      </trkpt>
      <trkpt lat="48.34839" lon="7.42034">
        <ele>222.4</ele>
        <time>2023-07-23T08:14:41Z</time>
      </trkpt>
      <trkpt lat="48.34834" lon="7.42035">
        <ele>222.6</ele>
        <time>2023-07-23T08:14:42Z</time>
      </trkpt>
      <trkpt lat="48.34829" lon="7.42036">
        <ele>222.9</ele>
        <time>2023-07-23T08:14:43Z</time>
      </trkpt>
      <trkpt lat="48.34824" lon="7.42037">
        <ele>223.1</ele>
        <time>2023-07-23T08:14:44Z</time>
      </trkpt>
      <trkpt lat="48.3482" lon="7.42038">
        <ele>223.3</ele>
        <time>2023-07-23T08:14:45Z</time>
      </trkpt>
      <trkpt lat="48.34815" lon="7.42039">
        <ele>223.6</ele>
        <time>2023-07-23T08:14:46Z</time>
      </trkpt>
      <trkpt lat="48.3481" lon="7.42041">
        <ele>223.8</ele>
        <time>2023-07-23T08:14:47Z</time>
      </trkpt>
      <trkpt lat="48.34806" lon="7.42042">
        <ele>223.9</ele>
        <time>2023-07-23T08:14:48Z</time>
      </trkpt>
      <trkpt lat="48.34801" lon="7.42043">
        <ele>224.1</ele>
        <time>2023-07-23T08:14:49Z</time>
      </trkpt>
      <trkpt lat="48.34796" lon="7.42045">
        <ele>224.2</ele>
        <time>2023-07-23T08:14:50Z</time>
      </trkpt>
      <trkpt lat="48.34791" lon="7.42047">
        <ele>224.2</ele>
        <time>2023-07-23T08:14:51Z</time>
      </trkpt>
      <trkpt lat="48.34785" lon="7.42049">
        <ele>224.1</ele>
        <time>2023-07-23T08:14:52Z</time>
      </trkpt>
      <trkpt lat="48.34779" lon="7.42052">
        <ele>224</ele>
        <time>2023-07-23T08:14:53Z</time>
      </trkpt>
      <trkpt lat="48.34773" lon="7.42055">
        <ele>223.8</ele>
        <time>2023-07-23T08:14:54Z</time>
      </trkpt>
      <trkpt lat="48.34767" lon="7.42058">
        <ele>223.6</ele>
        <time>2023-07-23T08:14:55Z</time>
      </trkpt>
      <trkpt lat="48.3476" lon="7.42062">
        <ele>223.3</ele>
        <time>2023-07-23T08:14:56Z</time>
      </trkpt>
      <trkpt lat="48.34754" lon="7.42065">
        <ele>223</ele>
        <time>2023-07-23T08:14:57Z</time>
      </trkpt>
      <trkpt lat="48.34746" lon="7.42069">
        <ele>222.7</ele>
        <time>2023-07-23T08:14:58Z</time>
      </trkpt>
      <trkpt lat="48.34739" lon="7.42073">
        <ele>222.3</ele>
        <time>2023-07-23T08:14:59Z</time>
      </trkpt>
      <trkpt lat="48.34732" lon="7.42078">
        <ele>221.9</ele>
        <time>2023-07-23T08:15:00Z</time>
      </trkpt>
      <trkpt lat="48.34725" lon="7.42083">
        <ele>221.5</ele>
        <time>2023-07-23T08:15:01Z</time>
      </trkpt>
      <trkpt lat="48.34717" lon="7.42087">
        <ele>221.1</ele>
        <time>2023-07-23T08:15:02Z</time>
      </trkpt>
      <trkpt lat="48.34709" lon="7.42092">
        <ele>220.7</ele>
        <time>2023-07-23T08:15:03Z</time>
      </trkpt>
      <trkpt lat="48.34701" lon="7.42097">
        <ele>220.3</ele>
        <time>2023-07-23T08:15:04Z</time>
      </trkpt>
      <trkpt lat="48.34693" lon="7.42102">
        <ele>219.9</ele>
        <time>2023-07-23T08:15:05Z</time>
      </trkpt>
      <trkpt lat="48.34685" lon="7.42108">
        <ele>219.5</ele>
        <time>2023-07-23T08:15:06Z</time>
      </trkpt>
      <trkpt lat="48.34677" lon="7.42113">
        <ele>219.1</ele>
        <time>2023-07-23T08:15:07Z</time>
      </trkpt>
      <trkpt lat="48.34669" lon="7.42119">
        <ele>218.7</ele>
        <time>2023-07-23T08:15:08Z</time>
      </trkpt>
      <trkpt lat="48.3466" lon="7.42124">
        <ele>218.3</ele>
        <time>2023-07-23T08:15:09Z</time>
      </trkpt>
      <trkpt lat="48.34652" lon="7.42129">
        <ele>218</ele>
        <time>2023-07-23T08:15:10Z</time>
      </trkpt>
      <trkpt lat="48.34643" lon="7.42133">
        <ele>217.8</ele>
        <time>2023-07-23T08:15:11Z</time>
      </trkpt>
      <trkpt lat="48.34634" lon="7.42136">
        <ele>217.7</ele>
        <time>2023-07-23T08:15:12Z</time>
      </trkpt>
      <trkpt lat="48.34625" lon="7.42138">
        <ele>217.6</ele>
        <time>2023-07-23T08:15:13Z</time>
      </trkpt>
      <trkpt lat="48.34617" lon="7.4214">
        <ele>217.5</ele>
        <time>2023-07-23T08:15:14Z</time>
      </trkpt>
      <trkpt lat="48.346" lon="7.42142">
        <ele>217.6</ele>
        <time>2023-07-23T08:15:15Z</time>
      </trkpt>
      <trkpt lat="48.34592" lon="7.42143">
        <ele>217.7</ele>
        <time>2023-07-23T08:15:16Z</time>
      </trkpt>
      <trkpt lat="48.34584" lon="7.42143">
        <ele>217.8</ele>
        <time>2023-07-23T08:15:17Z</time>
      </trkpt>
      <trkpt lat="48.34576" lon="7.42143">
        <ele>217.9</ele>
        <time>2023-07-23T08:15:18Z</time>
      </trkpt>
      <trkpt lat="48.34569" lon="7.42142">
        <ele>218.1</ele>
        <time>2023-07-23T08:15:19Z</time>
      </trkpt>
      <trkpt lat="48.34561" lon="7.42142">
        <ele>218.3</ele>
        <time>2023-07-23T08:15:20Z</time>
      </trkpt>
      <trkpt lat="48.34554" lon="7.42142">
        <ele>218.5</ele>
        <time>2023-07-23T08:15:21Z</time>
      </trkpt>
      <trkpt lat="48.34547" lon="7.42141">
        <ele>218.8</ele>
        <time>2023-07-23T08:15:22Z</time>
      </trkpt>
      <trkpt lat="48.3454" lon="7.42141">
        <ele>219.1</ele>
        <time>2023-07-23T08:15:23Z</time>
      </trkpt>
      <trkpt lat="48.34533" lon="7.4214">
        <ele>219.4</ele>
        <time>2023-07-23T08:15:24Z</time>
      </trkpt>
      <trkpt lat="48.34527" lon="7.42141">
        <ele>219.7</ele>
        <time>2023-07-23T08:15:25Z</time>
      </trkpt>
      <trkpt lat="48.34521" lon="7.42142">
        <ele>220</ele>
        <time>2023-07-23T08:15:26Z</time>
      </trkpt>
      <trkpt lat="48.34515" lon="7.42142">
        <ele>220.3</ele>
        <time>2023-07-23T08:15:27Z</time>
      </trkpt>
      <trkpt lat="48.3451" lon="7.42143">
        <ele>220.6</ele>
        <time>2023-07-23T08:15:28Z</time>
      </trkpt>
      <trkpt lat="48.34504" lon="7.42145">
        <ele>220.8</ele>
        <time>2023-07-23T08:15:29Z</time>
      </trkpt>
      <trkpt lat="48.34499" lon="7.42146">
        <ele>221.1</ele>
        <time>2023-07-23T08:15:30Z</time>
      </trkpt>
      <trkpt lat="48.34494" lon="7.42148">
        <ele>221.4</ele>
        <time>2023-07-23T08:15:31Z</time>
      </trkpt>
      <trkpt lat="48.34488" lon="7.4215">
        <ele>221.6</ele>
        <time>2023-07-23T08:15:32Z</time>
      </trkpt>
      <trkpt lat="48.34483" lon="7.42152">
        <ele>221.9</ele>
        <time>2023-07-23T08:15:33Z</time>
      </trkpt>
      <trkpt lat="48.34478" lon="7.42155">
        <ele>222.2</ele>
        <time>2023-07-23T08:15:34Z</time>
      </trkpt>
      <trkpt lat="48.34473" lon="7.42158">
        <ele>222.4</ele>
        <time>2023-07-23T08:15:35Z</time>
      </trkpt>
      <trkpt lat="48.34468" lon="7.42161">
        <ele>222.7</ele>
        <time>2023-07-23T08:15:36Z</time>
      </trkpt>
      <trkpt lat="48.34463" lon="7.42164">
        <ele>222.9</ele>
        <time>2023-07-23T08:15:37Z</time>
      </trkpt>
      <trkpt lat="48.34458" lon="7.42167">
        <ele>223.2</ele>
        <time>2023-07-23T08:15:38Z</time>
      </trkpt>
      <trkpt lat="48.34453" lon="7.42171">
        <ele>223.4</ele>
        <time>2023-07-23T08:15:39Z</time>
      </trkpt>
      <trkpt lat="48.34448" lon="7.42174">
        <ele>223.7</ele>
        <time>2023-07-23T08:15:40Z</time>
      </trkpt>
      <trkpt lat="48.34443" lon="7.42178">
        <ele>223.9</ele>
        <time>2023-07-23T08:15:41Z</time>
      </trkpt>
      <trkpt lat="48.34439" lon="7.42182">
        <ele>224.2</ele>
        <time>2023-07-23T08:15:42Z</time>
      </trkpt>
      <trkpt lat="48.34434" lon="7.42185">
        <ele>224.4</ele>
        <time>2023-07-23T08:15:43Z</time>
      </trkpt>
      <trkpt lat="48.3443" lon="7.42189">
        <ele>224.7</ele>
        <time>2023-07-23T08:15:44Z</time>
      </trkpt>
      <trkpt lat="48.34425" lon="7.42193">
        <ele>224.8</ele>
        <time>2023-07-23T08:15:45Z</time>
      </trkpt>
      <trkpt lat="48.3442" lon="7.42197">
        <ele>224.9</ele>
        <time>2023-07-23T08:15:46Z</time>
      </trkpt>
      <trkpt lat="48.34416" lon="7.42201">
        <ele>225</ele>
        <time>2023-07-23T08:15:47Z</time>
      </trkpt>
      <trkpt lat="48.34411" lon="7.42205">
        <ele>225.1</ele>
        <time>2023-07-23T08:15:48Z</time>
      </trkpt>
      <trkpt lat="48.34406" lon="7.42209">
        <ele>225.1</ele>
        <time>2023-07-23T08:15:49Z</time>
      </trkpt>
      <trkpt lat="48.34401" lon="7.42212">
        <ele>225.2</ele>
        <time>2023-07-23T08:15:50Z</time>
      </trkpt>
      <trkpt lat="48.34396" lon="7.42215">
        <ele>225.2</ele>
        <time>2023-07-23T08:15:51Z</time>
      </trkpt>
      <trkpt lat="48.34392" lon="7.42218">
        <ele>225.2</ele>
        <time>2023-07-23T08:15:52Z</time>
      </trkpt>
      <trkpt lat="48.34386" lon="7.42222">
        <ele>225.1</ele>
        <time>2023-07-23T08:15:53Z</time>
      </trkpt>
      <trkpt lat="48.34381" lon="7.42225">
        <ele>225.1</ele>
        <time>2023-07-23T08:15:54Z</time>
      </trkpt>
      <trkpt lat="48.34375" lon="7.42228">
        <ele>225</ele>
        <time>2023-07-23T08:15:55Z</time>
      </trkpt>
      <trkpt lat="48.3437" lon="7.42231">
        <ele>225</ele>
        <time>2023-07-23T08:15:56Z</time>
      </trkpt>
      <trkpt lat="48.34364" lon="7.42234">
        <ele>224.9</ele>
        <time>2023-07-23T08:15:57Z</time>
      </trkpt>
      <trkpt lat="48.34358" lon="7.42237">
        <ele>224.8</ele>
        <time>2023-07-23T08:15:58Z</time>
      </trkpt>
      <trkpt lat="48.34352" lon="7.42242">
        <ele>224.8</ele>
        <time>2023-07-23T08:15:59Z</time>
      </trkpt>
      <trkpt lat="48.34346" lon="7.42245">
        <ele>224.7</ele>
        <time>2023-07-23T08:16:00Z</time>
      </trkpt>
      <trkpt lat="48.3434" lon="7.42248">
        <ele>224.7</ele>
        <time>2023-07-23T08:16:01Z</time>
      </trkpt>
      <trkpt lat="48.34334" lon="7.4225">
        <ele>224.6</ele>
        <time>2023-07-23T08:16:02Z</time>
      </trkpt>
      <trkpt lat="48.34327" lon="7.42252">
        <ele>224.6</ele>
        <time>2023-07-23T08:16:03Z</time>
      </trkpt>
      <trkpt lat="48.34322" lon="7.42255">
        <ele>224.5</ele>
        <time>2023-07-23T08:16:04Z</time>
      </trkpt>
      <trkpt lat="48.34316" lon="7.42258">
        <ele>224.5</ele>
        <time>2023-07-23T08:16:05Z</time>
      </trkpt>
      <trkpt lat="48.34311" lon="7.42261">
        <ele>224.5</ele>
        <time>2023-07-23T08:16:06Z</time>
      </trkpt>
      <trkpt lat="48.34306" lon="7.42263">
        <ele>224.4</ele>
        <time>2023-07-23T08:16:07Z</time>
      </trkpt>
      <trkpt lat="48.34301" lon="7.42263">
        <ele>224.4</ele>
        <time>2023-07-23T08:16:08Z</time>
      </trkpt>
      <trkpt lat="48.34296" lon="7.42261">
        <ele>224.3</ele>
        <time>2023-07-23T08:16:09Z</time>
      </trkpt>
      <trkpt lat="48.34293" lon="7.42255">
        <ele>224.3</ele>
        <time>2023-07-23T08:16:10Z</time>
      </trkpt>
      <trkpt lat="48.34292" lon="7.42248">
        <ele>224.4</ele>
        <time>2023-07-23T08:16:11Z</time>
      </trkpt>
      <trkpt lat="48.34291" lon="7.42242">
        <ele>224.4</ele>
        <time>2023-07-23T08:16:12Z</time>
      </trkpt>
      <trkpt lat="48.34289" lon="7.42236">
        <ele>224.4</ele>
        <time>2023-07-23T08:16:13Z</time>
      </trkpt>
      <trkpt lat="48.34287" lon="7.42231">
        <ele>224.4</ele>
        <time>2023-07-23T08:16:14Z</time>
      </trkpt>
      <trkpt lat="48.34286" lon="7.42227">
        <ele>224.4</ele>
        <time>2023-07-23T08:16:15Z</time>
      </trkpt>
      <trkpt lat="48.34285" lon="7.42223">
        <ele>224.4</ele>
        <time>2023-07-23T08:16:16Z</time>
      </trkpt>
      <trkpt lat="48.34284" lon="7.42218">
        <ele>224.5</ele>
        <time>2023-07-23T08:16:17Z</time>
      </trkpt>
      <trkpt lat="48.34285" lon="7.42214">
        <ele>224.5</ele>
        <time>2023-07-23T08:16:18Z</time>
      </trkpt>
      <trkpt lat="48.34283" lon="7.4221">
        <ele>224.5</ele>
        <time>2023-07-23T08:16:19Z</time>
      </trkpt>
      <trkpt lat="48.34281" lon="7.42206">
        <ele>224.5</ele>
        <time>2023-07-23T08:16:20Z</time>
      </trkpt>
      <trkpt lat="48.34281" lon="7.42205">
        <ele>224.5</ele>
        <time>2023-07-23T08:16:21Z</time>
      </trkpt>
      <trkpt lat="48.34281" lon="7.42202">
        <ele>224.6</ele>
        <time>2023-07-23T08:16:22Z</time>
      </trkpt>
      <trkpt lat="48.34281" lon="7.422">
        <ele>224.6</ele>
        <time>2023-07-23T08:16:23Z</time>
      </trkpt>
      <trkpt lat="48.3428" lon="7.42199">
        <ele>224.6</ele>
        <time>2023-07-23T08:16:24Z</time>
      </trkpt>
      <trkpt lat="48.3428" lon="7.422">
        <ele>224.6</ele>
        <time>2023-07-23T08:16:25Z</time>
      </trkpt>
      <trkpt lat="48.3428" lon="7.422">
        <ele>224.6</ele>
        <time>2023-07-23T08:16:26Z</time>
      </trkpt>
      <trkpt lat="48.3428" lon="7.42199">
        <ele>224.6</ele>
        <time>2023-07-23T08:16:27Z</time>
      </trkpt>
      <trkpt lat="48.3428" lon="7.42199">
        <ele>224.6</ele>
        <time>2023-07-23T08:16:28Z</time>
      </trkpt>
      <trkpt lat="48.3428" lon="7.42199">
        <ele>224.6</ele>
        <time>2023-07-23T08:16:29Z</time>
      </trkpt>
      <trkpt lat="48.3428" lon="7.42197">
        <ele>224.6</ele>
        <time>2023-07-23T08:16:30Z</time>
      </trkpt>
      <trkpt lat="48.34279" lon="7.42195">
        <ele>224.6</ele>
        <time>2023-07-23T08:16:31Z</time>
      </trkpt>
      <trkpt lat="48.34277" lon="7.42191">
        <ele>224.7</ele>
        <time>2023-07-23T08:16:32Z</time>
      </trkpt>
      <trkpt lat="48.34277" lon="7.4219">
        <ele>224.7</ele>
        <time>2023-07-23T08:16:33Z</time>
      </trkpt>
      <trkpt lat="48.34276" lon="7.42186">
        <ele>224.8</ele>
        <time>2023-07-23T08:16:34Z</time>
      </trkpt>
      <trkpt lat="48.34275" lon="7.42184">
        <ele>224.8</ele>
        <time>2023-07-23T08:16:35Z</time>
      </trkpt>
      <trkpt lat="48.34274" lon="7.42179">
        <ele>224.8</ele>
        <time>2023-07-23T08:16:36Z</time>
      </trkpt>
      <trkpt lat="48.34274" lon="7.42178">
        <ele>224.9</ele>
        <time>2023-07-23T08:16:37Z</time>
      </trkpt>
      <trkpt lat="48.34272" lon="7.42174">
        <ele>224.9</ele>
        <time>2023-07-23T08:16:38Z</time>
      </trkpt>
      <trkpt lat="48.34272" lon="7.42173">
        <ele>224.9</ele>
        <time>2023-07-23T08:16:39Z</time>
      </trkpt>
      <trkpt lat="48.34271" lon="7.42169">
        <ele>225</ele>
        <time>2023-07-23T08:16:40Z</time>
      </trkpt>
      <trkpt lat="48.34271" lon="7.42167">
        <ele>225</ele>
        <time>2023-07-23T08:16:41Z</time>
      </trkpt>
      <trkpt lat="48.34272" lon="7.42164">
        <ele>225.1</ele>
        <time>2023-07-23T08:16:42Z</time>
      </trkpt>
      <trkpt lat="48.34273" lon="7.42163">
        <ele>225.1</ele>
        <time>2023-07-23T08:16:43Z</time>
      </trkpt>
      <trkpt lat="48.34273" lon="7.42161">
        <ele>225.1</ele>
        <time>2023-07-23T08:16:44Z</time>
      </trkpt>
      <trkpt lat="48.34274" lon="7.42159">
        <ele>225.2</ele>
        <time>2023-07-23T08:16:45Z</time>
      </trkpt>
      <trkpt lat="48.34274" lon="7.42159">
        <ele>225.2</ele>
        <time>2023-07-23T08:16:47Z</time>
      </trkpt>
      <trkpt lat="48.34274" lon="7.42159">
        <ele>225.2</ele>
        <time>2023-07-23T08:16:48Z</time>
      </trkpt>
      <trkpt lat="48.34274" lon="7.4216">
        <ele>225.2</ele>
        <time>2023-07-23T08:16:49Z</time>
      </trkpt>
      <trkpt lat="48.34274" lon="7.42159">
        <ele>225.2</ele>
        <time>2023-07-23T08:16:50Z</time>
      </trkpt>
      <trkpt lat="48.34274" lon="7.42159">
        <ele>225.2</ele>
        <time>2023-07-23T08:16:51Z</time>
      </trkpt>
      <trkpt lat="48.34272" lon="7.42157">
        <ele>225.3</ele>
        <time>2023-07-23T08:16:52Z</time>
      </trkpt>
      <trkpt lat="48.3427" lon="7.42156">
        <ele>225.3</ele>
        <time>2023-07-23T08:16:53Z</time>
      </trkpt>
      <trkpt lat="48.34269" lon="7.42155">
        <ele>225.3</ele>
        <time>2023-07-23T08:16:54Z</time>
      </trkpt>
      <trkpt lat="48.34267" lon="7.42153">
        <ele>225.4</ele>
        <time>2023-07-23T08:16:55Z</time>
      </trkpt>
      <trkpt lat="48.34266" lon="7.42152">
        <ele>225.4</ele>
        <time>2023-07-23T08:21:27Z</time>
      </trkpt>
      <trkpt lat="48.34264" lon="7.42151">
        <ele>225.5</ele>
        <time>2023-07-23T08:21:28Z</time>
      </trkpt>
      <trkpt lat="48.34262" lon="7.42147">
        <ele>225.6</ele>
        <time>2023-07-23T08:21:29Z</time>
      </trkpt>
      <trkpt lat="48.34262" lon="7.42145">
        <ele>225.6</ele>
        <time>2023-07-23T08:21:30Z</time>
      </trkpt>
      <trkpt lat="48.3426" lon="7.4214">
        <ele>225.7</ele>
        <time>2023-07-23T08:21:31Z</time>
      </trkpt>
      <trkpt lat="48.34259" lon="7.42139">
        <ele>225.8</ele>
        <time>2023-07-23T08:21:32Z</time>
      </trkpt>
      <trkpt lat="48.34256" lon="7.42134">
        <ele>225.9</ele>
        <time>2023-07-23T08:21:33Z</time>
      </trkpt>
      <trkpt lat="48.34255" lon="7.42132">
        <ele>226</ele>
        <time>2023-07-23T08:21:34Z</time>
      </trkpt>
      <trkpt lat="48.34253" lon="7.42128">
        <ele>226.1</ele>
        <time>2023-07-23T08:21:35Z</time>
      </trkpt>
      <trkpt lat="48.34251" lon="7.42123">
        <ele>226.2</ele>
        <time>2023-07-23T08:21:36Z</time>
      </trkpt>
      <trkpt lat="48.34248" lon="7.42118">
        <ele>226.4</ele>
        <time>2023-07-23T08:21:37Z</time>
      </trkpt>
      <trkpt lat="48.34245" lon="7.42112">
        <ele>226.5</ele>
        <time>2023-07-23T08:21:38Z</time>
      </trkpt>
      <trkpt lat="48.34242" lon="7.42107">
        <ele>226.6</ele>
        <time>2023-07-23T08:21:39Z</time>
      </trkpt>
      <trkpt lat="48.3424" lon="7.42102">
        <ele>226.7</ele>
        <time>2023-07-23T08:21:40Z</time>
      </trkpt>
      <trkpt lat="48.34237" lon="7.42098">
        <ele>226.8</ele>
        <time>2023-07-23T08:21:41Z</time>
      </trkpt>
      <trkpt lat="48.34234" lon="7.42093">
        <ele>226.9</ele>
        <time>2023-07-23T08:21:42Z</time>
      </trkpt>
      <trkpt lat="48.34231" lon="7.42089">
        <ele>227</ele>
        <time>2023-07-23T08:21:43Z</time>
      </trkpt>
      <trkpt lat="48.34227" lon="7.42083">
        <ele>227.1</ele>
        <time>2023-07-23T08:21:44Z</time>
      </trkpt>
      <trkpt lat="48.34224" lon="7.42078">
        <ele>227.2</ele>
        <time>2023-07-23T08:21:45Z</time>
      </trkpt>
      <trkpt lat="48.3422" lon="7.42073">
        <ele>227.4</ele>
        <time>2023-07-23T08:21:46Z</time>
      </trkpt>
      <trkpt lat="48.34216" lon="7.42067">
        <ele>227.5</ele>
        <time>2023-07-23T08:21:47Z</time>
      </trkpt>
      <trkpt lat="48.34213" lon="7.42062">
        <ele>227.7</ele>
        <time>2023-07-23T08:21:48Z</time>
      </trkpt>
      <trkpt lat="48.3421" lon="7.42056">
        <ele>227.9</ele>
        <time>2023-07-23T08:21:49Z</time>
      </trkpt>
      <trkpt lat="48.34206" lon="7.42051">
        <ele>228</ele>
        <time>2023-07-23T08:21:50Z</time>
      </trkpt>
      <trkpt lat="48.34204" lon="7.42045">
        <ele>228.2</ele>
        <time>2023-07-23T08:21:51Z</time>
      </trkpt>
      <trkpt lat="48.34202" lon="7.42038">
        <ele>228.4</ele>
        <time>2023-07-23T08:21:52Z</time>
      </trkpt>
      <trkpt lat="48.34201" lon="7.42031">
        <ele>228.5</ele>
        <time>2023-07-23T08:21:53Z</time>
      </trkpt>
      <trkpt lat="48.34199" lon="7.42024">
        <ele>228.7</ele>
        <time>2023-07-23T08:21:54Z</time>
      </trkpt>
      <trkpt lat="48.34197" lon="7.42017">
        <ele>228.9</ele>
        <time>2023-07-23T08:21:55Z</time>
      </trkpt>
      <trkpt lat="48.34195" lon="7.4201">
        <ele>229.1</ele>
        <time>2023-07-23T08:21:56Z</time>
      </trkpt>
      <trkpt lat="48.34193" lon="7.42004">
        <ele>229.3</ele>
        <time>2023-07-23T08:21:57Z</time>
      </trkpt>
      <trkpt lat="48.34191" lon="7.41997">
        <ele>229.5</ele>
        <time>2023-07-23T08:21:58Z</time>
      </trkpt>
      <trkpt lat="48.34189" lon="7.41989">
        <ele>229.7</ele>
        <time>2023-07-23T08:21:59Z</time>
      </trkpt>
      <trkpt lat="48.34188" lon="7.41982">
        <ele>229.9</ele>
        <time>2023-07-23T08:22:00Z</time>
      </trkpt>
      <trkpt lat="48.34186" lon="7.41976">
        <ele>230.1</ele>
        <time>2023-07-23T08:22:01Z</time>
      </trkpt>
      <trkpt lat="48.34184" lon="7.41969">
        <ele>230.3</ele>
        <time>2023-07-23T08:22:02Z</time>
      </trkpt>
      <trkpt lat="48.34182" lon="7.41963">
        <ele>230.4</ele>
        <time>2023-07-23T08:22:03Z</time>
      </trkpt>
      <trkpt lat="48.34181" lon="7.41956">
        <ele>230.6</ele>
        <time>2023-07-23T08:22:04Z</time>
      </trkpt>
      <trkpt lat="48.3418" lon="7.41948">
        <ele>230.8</ele>
        <time>2023-07-23T08:22:05Z</time>
      </trkpt>
      <trkpt lat="48.34178" lon="7.41942">
        <ele>231</ele>
        <time>2023-07-23T08:22:06Z</time>
      </trkpt>
      <trkpt lat="48.34177" lon="7.41935">
        <ele>231.2</ele>
        <time>2023-07-23T08:22:07Z</time>
      </trkpt>
      <trkpt lat="48.34176" lon="7.41928">
        <ele>231.4</ele>
        <time>2023-07-23T08:22:08Z</time>
      </trkpt>
      <trkpt lat="48.34174" lon="7.41921">
        <ele>231.6</ele>
        <time>2023-07-23T08:22:09Z</time>
      </trkpt>
      <trkpt lat="48.34173" lon="7.41915">
        <ele>231.8</ele>
        <time>2023-07-23T08:22:10Z</time>
      </trkpt>
      <trkpt lat="48.34172" lon="7.41909">
        <ele>231.9</ele>
        <time>2023-07-23T08:22:11Z</time>
      </trkpt>
      <trkpt lat="48.34171" lon="7.41903">
        <ele>232.1</ele>
        <time>2023-07-23T08:22:12Z</time>
      </trkpt>
      <trkpt lat="48.3417" lon="7.41897">
        <ele>232.3</ele>
        <time>2023-07-23T08:22:13Z</time>
      </trkpt>
      <trkpt lat="48.34169" lon="7.41892">
        <ele>232.4</ele>
        <time>2023-07-23T08:22:14Z</time>
      </trkpt>
      <trkpt lat="48.34169" lon="7.41887">
        <ele>232.6</ele>
        <time>2023-07-23T08:22:15Z</time>
      </trkpt>
      <trkpt lat="48.34169" lon="7.41882">
        <ele>232.7</ele>
        <time>2023-07-23T08:22:16Z</time>
      </trkpt>
      <trkpt lat="48.34169" lon="7.41878">
        <ele>232.9</ele>
        <time>2023-07-23T08:22:17Z</time>
      </trkpt>
      <trkpt lat="48.34169" lon="7.41873">
        <ele>233</ele>
        <time>2023-07-23T08:22:18Z</time>
      </trkpt>
      <trkpt lat="48.34168" lon="7.41869">
        <ele>233.2</ele>
        <time>2023-07-23T08:22:19Z</time>
      </trkpt>
      <trkpt lat="48.34167" lon="7.41864">
        <ele>233.3</ele>
        <time>2023-07-23T08:22:20Z</time>
      </trkpt>
      <trkpt lat="48.34166" lon="7.41859">
        <ele>233.5</ele>
        <time>2023-07-23T08:22:21Z</time>
      </trkpt>
      <trkpt lat="48.34165" lon="7.41855">
        <ele>233.7</ele>
        <time>2023-07-23T08:22:22Z</time>
      </trkpt>
      <trkpt lat="48.34164" lon="7.41851">
        <ele>233.8</ele>
        <time>2023-07-23T08:22:23Z</time>
      </trkpt>
      <trkpt lat="48.34163" lon="7.41846">
        <ele>233.9</ele>
        <time>2023-07-23T08:22:24Z</time>
      </trkpt>
      <trkpt lat="48.34162" lon="7.41844">
        <ele>233.9</ele>
        <time>2023-07-23T08:22:25Z</time>
      </trkpt>
      <trkpt lat="48.3416" lon="7.4184">
        <ele>234</ele>
        <time>2023-07-23T08:22:26Z</time>
      </trkpt>
      <trkpt lat="48.34159" lon="7.41838">
        <ele>234</ele>
        <time>2023-07-23T08:22:27Z</time>
      </trkpt>
      <trkpt lat="48.34156" lon="7.41834">
        <ele>234.1</ele>
        <time>2023-07-23T08:22:28Z</time>
      </trkpt>
      <trkpt lat="48.34155" lon="7.41833">
        <ele>234.1</ele>
        <time>2023-07-23T08:22:29Z</time>
      </trkpt>
      <trkpt lat="48.34154" lon="7.41832">
        <ele>234.2</ele>
        <time>2023-07-23T08:22:30Z</time>
      </trkpt>
      <trkpt lat="48.34153" lon="7.41831">
        <ele>234.2</ele>
        <time>2023-07-23T08:22:31Z</time>
      </trkpt>
      <trkpt lat="48.34151" lon="7.41832">
        <ele>234.3</ele>
        <time>2023-07-23T08:22:32Z</time>
      </trkpt>
      <trkpt lat="48.34151" lon="7.41832">
        <ele>234.3</ele>
        <time>2023-07-23T08:22:33Z</time>
      </trkpt>
      <trkpt lat="48.3415" lon="7.41833">
        <ele>234.3</ele>
        <time>2023-07-23T08:22:34Z</time>
      </trkpt>
      <trkpt lat="48.3415" lon="7.41833">
        <ele>234.3</ele>
        <time>2023-07-23T08:22:35Z</time>
      </trkpt>
      <trkpt lat="48.34149" lon="7.41834">
        <ele>234.4</ele>
        <time>2023-07-23T08:22:36Z</time>
      </trkpt>
      <trkpt lat="48.34149" lon="7.41834">
        <ele>234.4</ele>
        <time>2023-07-23T08:22:37Z</time>
      </trkpt>
      <trkpt lat="48.34148" lon="7.41835">
        <ele>234.4</ele>
        <time>2023-07-23T08:22:38Z</time>
      </trkpt>
      <trkpt lat="48.34148" lon="7.41835">
        <ele>234.4</ele>
        <time>2023-07-23T08:22:39Z</time>
      </trkpt>
      <trkpt lat="48.34148" lon="7.41836">
        <ele>234.4</ele>
        <time>2023-07-23T08:22:40Z</time>
      </trkpt>
      <trkpt lat="48.34147" lon="7.41836">
        <ele>234.5</ele>
        <time>2023-07-23T08:22:41Z</time>
      </trkpt>
      <trkpt lat="48.34147" lon="7.41836">
        <ele>234.5</ele>
        <time>2023-07-23T08:22:42Z</time>
      </trkpt>
      <trkpt lat="48.34146" lon="7.41837">
        <ele>234.5</ele>
        <time>2023-07-23T08:22:49Z</time>
      </trkpt>
      <trkpt lat="48.34146" lon="7.41837">
        <ele>234.5</ele>
        <time>2023-07-23T08:22:50Z</time>
      </trkpt>
      <trkpt lat="48.34145" lon="7.41838">
        <ele>234.6</ele>
        <time>2023-07-23T08:22:51Z</time>
      </trkpt>
      <trkpt lat="48.34143" lon="7.4184">
        <ele>234.6</ele>
        <time>2023-07-23T08:22:52Z</time>
      </trkpt>
      <trkpt lat="48.34139" lon="7.41841">
        <ele>234.8</ele>
        <time>2023-07-23T08:22:53Z</time>
      </trkpt>
      <trkpt lat="48.34138" lon="7.4184">
        <ele>234.8</ele>
        <time>2023-07-23T08:22:54Z</time>
      </trkpt>
      <trkpt lat="48.34134" lon="7.41842">
        <ele>235</ele>
        <time>2023-07-23T08:22:55Z</time>
      </trkpt>
      <trkpt lat="48.34133" lon="7.41842">
        <ele>235</ele>
        <time>2023-07-23T08:22:56Z</time>
      </trkpt>
      <trkpt lat="48.3413" lon="7.41844">
        <ele>235.1</ele>
        <time>2023-07-23T08:22:57Z</time>
      </trkpt>
      <trkpt lat="48.34126" lon="7.41846">
        <ele>235.3</ele>
        <time>2023-07-23T08:22:58Z</time>
      </trkpt>
      <trkpt lat="48.34124" lon="7.41847">
        <ele>235.4</ele>
        <time>2023-07-23T08:22:59Z</time>
      </trkpt>
      <trkpt lat="48.34121" lon="7.41848">
        <ele>235.5</ele>
        <time>2023-07-23T08:23:00Z</time>
      </trkpt>
      <trkpt lat="48.34118" lon="7.41852">
        <ele>235.6</ele>
        <time>2023-07-23T08:23:01Z</time>
      </trkpt>
      <trkpt lat="48.34117" lon="7.41853">
        <ele>235.7</ele>
        <time>2023-07-23T08:23:02Z</time>
      </trkpt>
      <trkpt lat="48.34114" lon="7.41856">
        <ele>235.8</ele>
        <time>2023-07-23T08:23:03Z</time>
      </trkpt>
      <trkpt lat="48.34113" lon="7.41857">
        <ele>235.9</ele>
        <time>2023-07-23T08:23:04Z</time>
      </trkpt>
      <trkpt lat="48.3411" lon="7.4186">
        <ele>236</ele>
        <time>2023-07-23T08:23:05Z</time>
      </trkpt>
      <trkpt lat="48.34109" lon="7.41861">
        <ele>236.1</ele>
        <time>2023-07-23T08:23:06Z</time>
      </trkpt>
      <trkpt lat="48.34107" lon="7.41863">
        <ele>236.2</ele>
        <time>2023-07-23T08:23:07Z</time>
      </trkpt>
      <trkpt lat="48.34106" lon="7.41868">
        <ele>236.3</ele>
        <time>2023-07-23T08:23:08Z</time>
      </trkpt>
      <trkpt lat="48.34104" lon="7.41872">
        <ele>236.4</ele>
        <time>2023-07-23T08:23:09Z</time>
      </trkpt>
      <trkpt lat="48.34104" lon="7.41874">
        <ele>236.4</ele>
        <time>2023-07-23T08:23:10Z</time>
      </trkpt>
      <trkpt lat="48.34103" lon="7.4188">
        <ele>236.6</ele>
        <time>2023-07-23T08:23:11Z</time>
      </trkpt>
      <trkpt lat="48.34103" lon="7.41882">
        <ele>236.7</ele>
        <time>2023-07-23T08:23:12Z</time>
      </trkpt>
      <trkpt lat="48.34103" lon="7.41887">
        <ele>236.8</ele>
        <time>2023-07-23T08:23:13Z</time>
      </trkpt>
      <trkpt lat="48.34102" lon="7.41892">
        <ele>236.9</ele>
        <time>2023-07-23T08:23:14Z</time>
      </trkpt>
      <trkpt lat="48.34101" lon="7.41897">
        <ele>237</ele>
        <time>2023-07-23T08:23:15Z</time>
      </trkpt>
      <trkpt lat="48.341" lon="7.41902">
        <ele>237.2</ele>
        <time>2023-07-23T08:23:16Z</time>
      </trkpt>
      <trkpt lat="48.34098" lon="7.41905">
        <ele>237.3</ele>
        <time>2023-07-23T08:23:17Z</time>
      </trkpt>
      <trkpt lat="48.34096" lon="7.41909">
        <ele>237.4</ele>
        <time>2023-07-23T08:23:18Z</time>
      </trkpt>
      <trkpt lat="48.34094" lon="7.41913">
        <ele>237.5</ele>
        <time>2023-07-23T08:23:19Z</time>
      </trkpt>
      <trkpt lat="48.34091" lon="7.41916">
        <ele>237.6</ele>
        <time>2023-07-23T08:23:20Z</time>
      </trkpt>
      <trkpt lat="48.34089" lon="7.4192">
        <ele>237.7</ele>
        <time>2023-07-23T08:23:21Z</time>
      </trkpt>
      <trkpt lat="48.34087" lon="7.41923">
        <ele>237.8</ele>
        <time>2023-07-23T08:23:22Z</time>
      </trkpt>
      <trkpt lat="48.34085" lon="7.41927">
        <ele>237.9</ele>
        <time>2023-07-23T08:23:23Z</time>
      </trkpt>
      <trkpt lat="48.34083" lon="7.41931">
        <ele>238</ele>
        <time>2023-07-23T08:23:24Z</time>
      </trkpt>
      <trkpt lat="48.34081" lon="7.41934">
        <ele>238.1</ele>
        <time>2023-07-23T08:23:25Z</time>
      </trkpt>
      <trkpt lat="48.34078" lon="7.41937">
        <ele>238.2</ele>
        <time>2023-07-23T08:23:26Z</time>
      </trkpt>
      <trkpt lat="48.34076" lon="7.41941">
        <ele>238.3</ele>
        <time>2023-07-23T08:23:27Z</time>
      </trkpt>
      <trkpt lat="48.34073" lon="7.41944">
        <ele>238.3</ele>
        <time>2023-07-23T08:23:28Z</time>
      </trkpt>
      <trkpt lat="48.3407" lon="7.41947">
        <ele>238.4</ele>
        <time>2023-07-23T08:23:29Z</time>
      </trkpt>
      <trkpt lat="48.34068" lon="7.41951">
        <ele>238.4</ele>
        <time>2023-07-23T08:23:30Z</time>
      </trkpt>
      <trkpt lat="48.34066" lon="7.41955">
        <ele>238.5</ele>
        <time>2023-07-23T08:23:31Z</time>
      </trkpt>
      <trkpt lat="48.34063" lon="7.41958">
        <ele>238.5</ele>
        <time>2023-07-23T08:23:32Z</time>
      </trkpt>
      <trkpt lat="48.3406" lon="7.41961">
        <ele>238.5</ele>
        <time>2023-07-23T08:23:33Z</time>
      </trkpt>
      <trkpt lat="48.34057" lon="7.41963">
        <ele>238.5</ele>
        <time>2023-07-23T08:23:34Z</time>
      </trkpt>
      <trkpt lat="48.34053" lon="7.41965">
        <ele>238.5</ele>
        <time>2023-07-23T08:23:35Z</time>
      </trkpt>
      <trkpt lat="48.34049" lon="7.41965">
        <ele>238.5</ele>
        <time>2023-07-23T08:23:36Z</time>
      </trkpt>
      <trkpt lat="48.34046" lon="7.41967">
        <ele>238.5</ele>
        <time>2023-07-23T08:23:37Z</time>
      </trkpt>
      <trkpt lat="48.34041" lon="7.41968">
        <ele>238.4</ele>
        <time>2023-07-23T08:23:38Z</time>
      </trkpt>
      <trkpt lat="48.34037" lon="7.41968">
        <ele>238.4</ele>
        <time>2023-07-23T08:23:39Z</time>
      </trkpt>
      <trkpt lat="48.34034" lon="7.41969">
        <ele>238.4</ele>
        <time>2023-07-23T08:23:40Z</time>
      </trkpt>
      <trkpt lat="48.34029" lon="7.4197">
        <ele>238.4</ele>
        <time>2023-07-23T08:23:41Z</time>
      </trkpt>
      <trkpt lat="48.34025" lon="7.41971">
        <ele>238.3</ele>
        <time>2023-07-23T08:23:42Z</time>
      </trkpt>
      <trkpt lat="48.3402" lon="7.41971">
        <ele>238.2</ele>
        <time>2023-07-23T08:23:43Z</time>
      </trkpt>
      <trkpt lat="48.34015" lon="7.41972">
        <ele>238.1</ele>
        <time>2023-07-23T08:23:44Z</time>
      </trkpt>
      <trkpt lat="48.34011" lon="7.41972">
        <ele>238.1</ele>
        <time>2023-07-23T08:23:45Z</time>
      </trkpt>
      <trkpt lat="48.34006" lon="7.41972">
        <ele>238</ele>
        <time>2023-07-23T08:23:46Z</time>
      </trkpt>
      <trkpt lat="48.34001" lon="7.41972">
        <ele>237.9</ele>
        <time>2023-07-23T08:23:47Z</time>
      </trkpt>
      <trkpt lat="48.33995" lon="7.41972">
        <ele>237.8</ele>
        <time>2023-07-23T08:23:48Z</time>
      </trkpt>
      <trkpt lat="48.33989" lon="7.41973">
        <ele>237.7</ele>
        <time>2023-07-23T08:23:49Z</time>
      </trkpt>
      <trkpt lat="48.33984" lon="7.41974">
        <ele>237.6</ele>
        <time>2023-07-23T08:23:50Z</time>
      </trkpt>
      <trkpt lat="48.33978" lon="7.41974">
        <ele>237.5</ele>
        <time>2023-07-23T08:23:51Z</time>
      </trkpt>
      <trkpt lat="48.33973" lon="7.41974">
        <ele>237.4</ele>
        <time>2023-07-23T08:23:52Z</time>
      </trkpt>
      <trkpt lat="48.33967" lon="7.41974">
        <ele>237.3</ele>
        <time>2023-07-23T08:23:53Z</time>
      </trkpt>
      <trkpt lat="48.33961" lon="7.41973">
        <ele>237.2</ele>
        <time>2023-07-23T08:23:54Z</time>
      </trkpt>
      <trkpt lat="48.33956" lon="7.41973">
        <ele>237.1</ele>
        <time>2023-07-23T08:23:55Z</time>
      </trkpt>
      <trkpt lat="48.3395" lon="7.41972">
        <ele>237</ele>
        <time>2023-07-23T08:23:56Z</time>
      </trkpt>
      <trkpt lat="48.33944" lon="7.41971">
        <ele>236.9</ele>
        <time>2023-07-23T08:23:57Z</time>
      </trkpt>
      <trkpt lat="48.33939" lon="7.41968">
        <ele>236.9</ele>
        <time>2023-07-23T08:23:58Z</time>
      </trkpt>
      <trkpt lat="48.33933" lon="7.41966">
        <ele>236.8</ele>
        <time>2023-07-23T08:23:59Z</time>
      </trkpt>
      <trkpt lat="48.33927" lon="7.41964">
        <ele>236.8</ele>
        <time>2023-07-23T08:24:00Z</time>
      </trkpt>
      <trkpt lat="48.33922" lon="7.41963">
        <ele>236.7</ele>
        <time>2023-07-23T08:24:01Z</time>
      </trkpt>
      <trkpt lat="48.33917" lon="7.4196">
        <ele>236.7</ele>
        <time>2023-07-23T08:24:02Z</time>
      </trkpt>
      <trkpt lat="48.33912" lon="7.41958">
        <ele>236.7</ele>
        <time>2023-07-23T08:24:03Z</time>
      </trkpt>
      <trkpt lat="48.33907" lon="7.41956">
        <ele>236.7</ele>
        <time>2023-07-23T08:24:04Z</time>
      </trkpt>
      <trkpt lat="48.33902" lon="7.41954">
        <ele>236.7</ele>
        <time>2023-07-23T08:24:05Z</time>
      </trkpt>
      <trkpt lat="48.33898" lon="7.41951">
        <ele>236.8</ele>
        <time>2023-07-23T08:24:06Z</time>
      </trkpt>
      <trkpt lat="48.33894" lon="7.41948">
        <ele>236.8</ele>
        <time>2023-07-23T08:24:07Z</time>
      </trkpt>
      <trkpt lat="48.33889" lon="7.41946">
        <ele>236.8</ele>
        <time>2023-07-23T08:24:08Z</time>
      </trkpt>
      <trkpt lat="48.33885" lon="7.41944">
        <ele>236.9</ele>
        <time>2023-07-23T08:24:09Z</time>
      </trkpt>
      <trkpt lat="48.3388" lon="7.41943">
        <ele>236.9</ele>
        <time>2023-07-23T08:24:10Z</time>
      </trkpt>
      <trkpt lat="48.33875" lon="7.41941">
        <ele>237</ele>
        <time>2023-07-23T08:24:11Z</time>
      </trkpt>
      <trkpt lat="48.33871" lon="7.4194">
        <ele>237</ele>
        <time>2023-07-23T08:24:12Z</time>
      </trkpt>
      <trkpt lat="48.33866" lon="7.4194">
        <ele>237</ele>
        <time>2023-07-23T08:24:13Z</time>
      </trkpt>
      <trkpt lat="48.33861" lon="7.41939">
        <ele>237</ele>
        <time>2023-07-23T08:24:14Z</time>
      </trkpt>
      <trkpt lat="48.33855" lon="7.4194">
        <ele>237</ele>
        <time>2023-07-23T08:24:15Z</time>
      </trkpt>
      <trkpt lat="48.3385" lon="7.41944">
        <ele>237.1</ele>
        <time>2023-07-23T08:24:16Z</time>
      </trkpt>
      <trkpt lat="48.33845" lon="7.41947">
        <ele>237.1</ele>
        <time>2023-07-23T08:24:17Z</time>
      </trkpt>
      <trkpt lat="48.3384" lon="7.41949">
        <ele>237.1</ele>
        <time>2023-07-23T08:24:18Z</time>
      </trkpt>
      <trkpt lat="48.33835" lon="7.41952">
        <ele>237.2</ele>
        <time>2023-07-23T08:24:19Z</time>
      </trkpt>
      <trkpt lat="48.33831" lon="7.41956">
        <ele>237.3</ele>
        <time>2023-07-23T08:24:20Z</time>
      </trkpt>
      <trkpt lat="48.33827" lon="7.41959">
        <ele>237.3</ele>
        <time>2023-07-23T08:24:21Z</time>
      </trkpt>
      <trkpt lat="48.33823" lon="7.41961">
        <ele>237.4</ele>
        <time>2023-07-23T08:24:22Z</time>
      </trkpt>
      <trkpt lat="48.33819" lon="7.41964">
        <ele>237.4</ele>
        <time>2023-07-23T08:24:23Z</time>
      </trkpt>
      <trkpt lat="48.33814" lon="7.41966">
        <ele>237.5</ele>
        <time>2023-07-23T08:24:24Z</time>
      </trkpt>
      <trkpt lat="48.3381" lon="7.41969">
        <ele>237.5</ele>
        <time>2023-07-23T08:24:25Z</time>
      </trkpt>
      <trkpt lat="48.33805" lon="7.41971">
        <ele>237.6</ele>
        <time>2023-07-23T08:24:26Z</time>
      </trkpt>
      <trkpt lat="48.33801" lon="7.41975">
        <ele>237.6</ele>
        <time>2023-07-23T08:24:27Z</time>
      </trkpt>
      <trkpt lat="48.33796" lon="7.41978">
        <ele>237.7</ele>
        <time>2023-07-23T08:24:28Z</time>
      </trkpt>
      <trkpt lat="48.33791" lon="7.41981">
        <ele>237.7</ele>
        <time>2023-07-23T08:24:29Z</time>
      </trkpt>
      <trkpt lat="48.33786" lon="7.41985">
        <ele>237.8</ele>
        <time>2023-07-23T08:24:30Z</time>
      </trkpt>
      <trkpt lat="48.33782" lon="7.41988">
        <ele>237.9</ele>
        <time>2023-07-23T08:24:31Z</time>
      </trkpt>
      <trkpt lat="48.33778" lon="7.41992">
        <ele>237.9</ele>
        <time>2023-07-23T08:24:32Z</time>
      </trkpt>
      <trkpt lat="48.33774" lon="7.41996">
        <ele>238</ele>
        <time>2023-07-23T08:24:33Z</time>
      </trkpt>
      <trkpt lat="48.3377" lon="7.42001">
        <ele>238</ele>
        <time>2023-07-23T08:24:34Z</time>
      </trkpt>
      <trkpt lat="48.33767" lon="7.42007">
        <ele>238.1</ele>
        <time>2023-07-23T08:24:35Z</time>
      </trkpt>
      <trkpt lat="48.33764" lon="7.42013">
        <ele>238.2</ele>
        <time>2023-07-23T08:24:36Z</time>
      </trkpt>
      <trkpt lat="48.33762" lon="7.4202">
        <ele>238.2</ele>
        <time>2023-07-23T08:24:37Z</time>
      </trkpt>
      <trkpt lat="48.3376" lon="7.42027">
        <ele>238.3</ele>
        <time>2023-07-23T08:24:38Z</time>
      </trkpt>
      <trkpt lat="48.33759" lon="7.42035">
        <ele>238.4</ele>
        <time>2023-07-23T08:24:39Z</time>
      </trkpt>
      <trkpt lat="48.33757" lon="7.42042">
        <ele>238.4</ele>
        <time>2023-07-23T08:24:40Z</time>
      </trkpt>
      <trkpt lat="48.33756" lon="7.4205">
        <ele>238.5</ele>
        <time>2023-07-23T08:24:41Z</time>
      </trkpt>
      <trkpt lat="48.33755" lon="7.42058">
        <ele>238.5</ele>
        <time>2023-07-23T08:24:42Z</time>
      </trkpt>
      <trkpt lat="48.33755" lon="7.42066">
        <ele>238.6</ele>
        <time>2023-07-23T08:24:43Z</time>
      </trkpt>
      <trkpt lat="48.33754" lon="7.42074">
        <ele>238.7</ele>
        <time>2023-07-23T08:24:44Z</time>
      </trkpt>
      <trkpt lat="48.33753" lon="7.42082">
        <ele>238.7</ele>
        <time>2023-07-23T08:24:45Z</time>
      </trkpt>
      <trkpt lat="48.33752" lon="7.4209">
        <ele>238.8</ele>
        <time>2023-07-23T08:24:46Z</time>
      </trkpt>
      <trkpt lat="48.33752" lon="7.42098">
        <ele>238.8</ele>
        <time>2023-07-23T08:24:47Z</time>
      </trkpt>
      <trkpt lat="48.33752" lon="7.42107">
        <ele>238.9</ele>
        <time>2023-07-23T08:24:48Z</time>
      </trkpt>
      <trkpt lat="48.33752" lon="7.42114">
        <ele>239</ele>
        <time>2023-07-23T08:24:49Z</time>
      </trkpt>
      <trkpt lat="48.33753" lon="7.42123">
        <ele>239.1</ele>
        <time>2023-07-23T08:24:50Z</time>
      </trkpt>
      <trkpt lat="48.33753" lon="7.42131">
        <ele>239.1</ele>
        <time>2023-07-23T08:24:51Z</time>
      </trkpt>
      <trkpt lat="48.33753" lon="7.42139">
        <ele>239.2</ele>
        <time>2023-07-23T08:24:52Z</time>
      </trkpt>
      <trkpt lat="48.33753" lon="7.42148">
        <ele>239.2</ele>
        <time>2023-07-23T08:24:53Z</time>
      </trkpt>
      <trkpt lat="48.33753" lon="7.42157">
        <ele>239.1</ele>
        <time>2023-07-23T08:24:54Z</time>
      </trkpt>
      <trkpt lat="48.33753" lon="7.42166">
        <ele>239.1</ele>
        <time>2023-07-23T08:24:55Z</time>
      </trkpt>
      <trkpt lat="48.33753" lon="7.42175">
        <ele>239</ele>
        <time>2023-07-23T08:24:56Z</time>
      </trkpt>
      <trkpt lat="48.33753" lon="7.42185">
        <ele>238.8</ele>
        <time>2023-07-23T08:24:57Z</time>
      </trkpt>
      <trkpt lat="48.33753" lon="7.42195">
        <ele>238.7</ele>
        <time>2023-07-23T08:24:58Z</time>
      </trkpt>
      <trkpt lat="48.33752" lon="7.42205">
        <ele>238.6</ele>
        <time>2023-07-23T08:24:59Z</time>
      </trkpt>
      <trkpt lat="48.33752" lon="7.42215">
        <ele>238.4</ele>
        <time>2023-07-23T08:25:00Z</time>
      </trkpt>
      <trkpt lat="48.33751" lon="7.42226">
        <ele>238.2</ele>
        <time>2023-07-23T08:25:01Z</time>
      </trkpt>
      <trkpt lat="48.33751" lon="7.42237">
        <ele>238</ele>
        <time>2023-07-23T08:25:02Z</time>
      </trkpt>
      <trkpt lat="48.3375" lon="7.42248">
        <ele>237.7</ele>
        <time>2023-07-23T08:25:03Z</time>
      </trkpt>
      <trkpt lat="48.33749" lon="7.42259">
        <ele>237.4</ele>
        <time>2023-07-23T08:25:04Z</time>
      </trkpt>
      <trkpt lat="48.33748" lon="7.42271">
        <ele>237.1</ele>
        <time>2023-07-23T08:25:05Z</time>
      </trkpt>
      <trkpt lat="48.33746" lon="7.42283">
        <ele>236.8</ele>
        <time>2023-07-23T08:25:06Z</time>
      </trkpt>
      <trkpt lat="48.33744" lon="7.42296">
        <ele>236.3</ele>
        <time>2023-07-23T08:25:07Z</time>
      </trkpt>
      <trkpt lat="48.33742" lon="7.42309">
        <ele>235.9</ele>
        <time>2023-07-23T08:25:08Z</time>
      </trkpt>
      <trkpt lat="48.3374" lon="7.42322">
        <ele>235.4</ele>
        <time>2023-07-23T08:25:09Z</time>
      </trkpt>
      <trkpt lat="48.33738" lon="7.42336">
        <ele>234.9</ele>
        <time>2023-07-23T08:25:10Z</time>
      </trkpt>
      <trkpt lat="48.33735" lon="7.4235">
        <ele>234.3</ele>
        <time>2023-07-23T08:25:11Z</time>
      </trkpt>
      <trkpt lat="48.33733" lon="7.42364">
        <ele>233.8</ele>
        <time>2023-07-23T08:25:12Z</time>
      </trkpt>
      <trkpt lat="48.3373" lon="7.42379">
        <ele>233.2</ele>
        <time>2023-07-23T08:25:13Z</time>
      </trkpt>
      <trkpt lat="48.33727" lon="7.42394">
        <ele>232.6</ele>
        <time>2023-07-23T08:25:14Z</time>
      </trkpt>
      <trkpt lat="48.33724" lon="7.4241">
        <ele>232.2</ele>
        <time>2023-07-23T08:25:15Z</time>
      </trkpt>
      <trkpt lat="48.33722" lon="7.42425">
        <ele>231.7</ele>
        <time>2023-07-23T08:25:16Z</time>
      </trkpt>
      <trkpt lat="48.33719" lon="7.42441">
        <ele>231.3</ele>
        <time>2023-07-23T08:25:17Z</time>
      </trkpt>
      <trkpt lat="48.33716" lon="7.42456">
        <ele>230.9</ele>
        <time>2023-07-23T08:25:18Z</time>
      </trkpt>
      <trkpt lat="48.33714" lon="7.42472">
        <ele>230.5</ele>
        <time>2023-07-23T08:25:19Z</time>
      </trkpt>
      <trkpt lat="48.33711" lon="7.42487">
        <ele>230.1</ele>
        <time>2023-07-23T08:25:20Z</time>
      </trkpt>
      <trkpt lat="48.33708" lon="7.42503">
        <ele>229.8</ele>
        <time>2023-07-23T08:25:21Z</time>
      </trkpt>
      <trkpt lat="48.33705" lon="7.42518">
        <ele>229.5</ele>
        <time>2023-07-23T08:25:22Z</time>
      </trkpt>
      <trkpt lat="48.33702" lon="7.42533">
        <ele>229.4</ele>
        <time>2023-07-23T08:25:23Z</time>
      </trkpt>
      <trkpt lat="48.337" lon="7.42548">
        <ele>229.2</ele>
        <time>2023-07-23T08:25:24Z</time>
      </trkpt>
      <trkpt lat="48.33697" lon="7.42562">
        <ele>229.1</ele>
        <time>2023-07-23T08:25:25Z</time>
      </trkpt>
      <trkpt lat="48.33694" lon="7.42576">
        <ele>229</ele>
        <time>2023-07-23T08:25:26Z</time>
      </trkpt>
      <trkpt lat="48.33691" lon="7.4259">
        <ele>229</ele>
        <time>2023-07-23T08:25:27Z</time>
      </trkpt>
      <trkpt lat="48.33688" lon="7.42604">
        <ele>229</ele>
        <time>2023-07-23T08:25:28Z</time>
      </trkpt>
      <trkpt lat="48.33685" lon="7.42617">
        <ele>229</ele>
        <time>2023-07-23T08:25:29Z</time>
      </trkpt>
      <trkpt lat="48.33681" lon="7.42629">
        <ele>229.1</ele>
        <time>2023-07-23T08:25:30Z</time>
      </trkpt>
      <trkpt lat="48.33676" lon="7.42641">
        <ele>229.1</ele>
        <time>2023-07-23T08:25:31Z</time>
      </trkpt>
      <trkpt lat="48.3367" lon="7.42651">
        <ele>229.1</ele>
        <time>2023-07-23T08:25:33Z</time>
      </trkpt>
      <trkpt lat="48.33664" lon="7.4266">
        <ele>229.1</ele>
        <time>2023-07-23T08:25:34Z</time>
      </trkpt>
      <trkpt lat="48.33657" lon="7.42668">
        <ele>229.2</ele>
        <time>2023-07-23T08:25:35Z</time>
      </trkpt>
      <trkpt lat="48.3365" lon="7.42676">
        <ele>229.3</ele>
        <time>2023-07-23T08:25:36Z</time>
      </trkpt>
      <trkpt lat="48.33643" lon="7.42682">
        <ele>229.5</ele>
        <time>2023-07-23T08:25:37Z</time>
      </trkpt>
      <trkpt lat="48.33636" lon="7.42687">
        <ele>229.7</ele>
        <time>2023-07-23T08:25:38Z</time>
      </trkpt>
      <trkpt lat="48.33629" lon="7.42692">
        <ele>229.9</ele>
        <time>2023-07-23T08:25:39Z</time>
      </trkpt>
      <trkpt lat="48.33622" lon="7.42695">
        <ele>230.2</ele>
        <time>2023-07-23T08:25:40Z</time>
      </trkpt>
      <trkpt lat="48.33608" lon="7.42699">
        <ele>230.6</ele>
        <time>2023-07-23T08:25:41Z</time>
      </trkpt>
      <trkpt lat="48.33601" lon="7.427">
        <ele>230.8</ele>
        <time>2023-07-23T08:25:42Z</time>
      </trkpt>
      <trkpt lat="48.33594" lon="7.427">
        <ele>231</ele>
        <time>2023-07-23T08:25:43Z</time>
      </trkpt>
      <trkpt lat="48.33587" lon="7.427">
        <ele>231.2</ele>
        <time>2023-07-23T08:25:44Z</time>
      </trkpt>
      <trkpt lat="48.33581" lon="7.42699">
        <ele>231.3</ele>
        <time>2023-07-23T08:25:45Z</time>
      </trkpt>
      <trkpt lat="48.33575" lon="7.42698">
        <ele>231.5</ele>
        <time>2023-07-23T08:25:46Z</time>
      </trkpt>
      <trkpt lat="48.33569" lon="7.42697">
        <ele>231.6</ele>
        <time>2023-07-23T08:25:47Z</time>
      </trkpt>
      <trkpt lat="48.33563" lon="7.42696">
        <ele>231.7</ele>
        <time>2023-07-23T08:25:48Z</time>
      </trkpt>
      <trkpt lat="48.33557" lon="7.42694">
        <ele>231.8</ele>
        <time>2023-07-23T08:25:49Z</time>
      </trkpt>
      <trkpt lat="48.33551" lon="7.42693">
        <ele>231.9</ele>
        <time>2023-07-23T08:25:50Z</time>
      </trkpt>
      <trkpt lat="48.33545" lon="7.42692">
        <ele>232</ele>
        <time>2023-07-23T08:25:51Z</time>
      </trkpt>
      <trkpt lat="48.33539" lon="7.42691">
        <ele>232</ele>
        <time>2023-07-23T08:25:52Z</time>
      </trkpt>
      <trkpt lat="48.33534" lon="7.4269">
        <ele>232</ele>
        <time>2023-07-23T08:25:53Z</time>
      </trkpt>
      <trkpt lat="48.33528" lon="7.42689">
        <ele>231.9</ele>
        <time>2023-07-23T08:25:54Z</time>
      </trkpt>
      <trkpt lat="48.33523" lon="7.42688">
        <ele>231.9</ele>
        <time>2023-07-23T08:25:55Z</time>
      </trkpt>
      <trkpt lat="48.33517" lon="7.42687">
        <ele>231.9</ele>
        <time>2023-07-23T08:25:56Z</time>
      </trkpt>
      <trkpt lat="48.33511" lon="7.42686">
        <ele>231.9</ele>
        <time>2023-07-23T08:25:57Z</time>
      </trkpt>
      <trkpt lat="48.33505" lon="7.42685">
        <ele>231.8</ele>
        <time>2023-07-23T08:25:58Z</time>
      </trkpt>
      <trkpt lat="48.33499" lon="7.42684">
        <ele>231.8</ele>
        <time>2023-07-23T08:25:59Z</time>
      </trkpt>
      <trkpt lat="48.33493" lon="7.42683">
        <ele>231.8</ele>
        <time>2023-07-23T08:26:00Z</time>
      </trkpt>
      <trkpt lat="48.33487" lon="7.42682">
        <ele>231.8</ele>
        <time>2023-07-23T08:26:01Z</time>
      </trkpt>
      <trkpt lat="48.33481" lon="7.42681">
        <ele>231.7</ele>
        <time>2023-07-23T08:26:02Z</time>
      </trkpt>
      <trkpt lat="48.33474" lon="7.4268">
        <ele>231.6</ele>
        <time>2023-07-23T08:26:03Z</time>
      </trkpt>
      <trkpt lat="48.33468" lon="7.42679">
        <ele>231.6</ele>
        <time>2023-07-23T08:26:04Z</time>
      </trkpt>
      <trkpt lat="48.33461" lon="7.42678">
        <ele>231.5</ele>
        <time>2023-07-23T08:26:05Z</time>
      </trkpt>
      <trkpt lat="48.33455" lon="7.42677">
        <ele>231.4</ele>
        <time>2023-07-23T08:26:06Z</time>
      </trkpt>
      <trkpt lat="48.33448" lon="7.42677">
        <ele>231.4</ele>
        <time>2023-07-23T08:26:07Z</time>
      </trkpt>
      <trkpt lat="48.33441" lon="7.42675">
        <ele>231.3</ele>
        <time>2023-07-23T08:26:08Z</time>
      </trkpt>
      <trkpt lat="48.33435" lon="7.42674">
        <ele>231.3</ele>
        <time>2023-07-23T08:26:09Z</time>
      </trkpt>
      <trkpt lat="48.33428" lon="7.42673">
        <ele>231.2</ele>
        <time>2023-07-23T08:26:10Z</time>
      </trkpt>
      <trkpt lat="48.33421" lon="7.42672">
        <ele>231.1</ele>
        <time>2023-07-23T08:26:11Z</time>
      </trkpt>
      <trkpt lat="48.33414" lon="7.42672">
        <ele>231</ele>
        <time>2023-07-23T08:26:12Z</time>
      </trkpt>
      <trkpt lat="48.33407" lon="7.42671">
        <ele>230.9</ele>
        <time>2023-07-23T08:26:13Z</time>
      </trkpt>
      <trkpt lat="48.33401" lon="7.42671">
        <ele>230.8</ele>
        <time>2023-07-23T08:26:14Z</time>
      </trkpt>
      <trkpt lat="48.33394" lon="7.42671">
        <ele>230.7</ele>
        <time>2023-07-23T08:26:15Z</time>
      </trkpt>
      <trkpt lat="48.33387" lon="7.42671">
        <ele>230.7</ele>
        <time>2023-07-23T08:26:16Z</time>
      </trkpt>
      <trkpt lat="48.3338" lon="7.4267">
        <ele>230.6</ele>
        <time>2023-07-23T08:26:17Z</time>
      </trkpt>
      <trkpt lat="48.33373" lon="7.42671">
        <ele>230.5</ele>
        <time>2023-07-23T08:26:18Z</time>
      </trkpt>
      <trkpt lat="48.33365" lon="7.42671">
        <ele>230.4</ele>
        <time>2023-07-23T08:26:19Z</time>
      </trkpt>
      <trkpt lat="48.33358" lon="7.42671">
        <ele>230.3</ele>
        <time>2023-07-23T08:26:20Z</time>
      </trkpt>
      <trkpt lat="48.33351" lon="7.42671">
        <ele>230.2</ele>
        <time>2023-07-23T08:26:21Z</time>
      </trkpt>
      <trkpt lat="48.33344" lon="7.42671">
        <ele>230.2</ele>
        <time>2023-07-23T08:26:22Z</time>
      </trkpt>
      <trkpt lat="48.33337" lon="7.42671">
        <ele>230.2</ele>
        <time>2023-07-23T08:26:23Z</time>
      </trkpt>
      <trkpt lat="48.3333" lon="7.42671">
        <ele>230.2</ele>
        <time>2023-07-23T08:26:24Z</time>
      </trkpt>
      <trkpt lat="48.33322" lon="7.42671">
        <ele>230.2</ele>
        <time>2023-07-23T08:26:25Z</time>
      </trkpt>
      <trkpt lat="48.33316" lon="7.42671">
        <ele>230.2</ele>
        <time>2023-07-23T08:26:26Z</time>
      </trkpt>
      <trkpt lat="48.33309" lon="7.42671">
        <ele>230.1</ele>
        <time>2023-07-23T08:26:27Z</time>
      </trkpt>
      <trkpt lat="48.33301" lon="7.42671">
        <ele>230.1</ele>
        <time>2023-07-23T08:26:28Z</time>
      </trkpt>
      <trkpt lat="48.33294" lon="7.42671">
        <ele>230.1</ele>
        <time>2023-07-23T08:26:29Z</time>
      </trkpt>
      <trkpt lat="48.33287" lon="7.4267">
        <ele>230.1</ele>
        <time>2023-07-23T08:26:30Z</time>
      </trkpt>
      <trkpt lat="48.3328" lon="7.42669">
        <ele>230.1</ele>
        <time>2023-07-23T08:26:31Z</time>
      </trkpt>
      <trkpt lat="48.33273" lon="7.42667">
        <ele>230.2</ele>
        <time>2023-07-23T08:26:32Z</time>
      </trkpt>
      <trkpt lat="48.33266" lon="7.42665">
        <ele>230.2</ele>
        <time>2023-07-23T08:26:33Z</time>
      </trkpt>
      <trkpt lat="48.33259" lon="7.42663">
        <ele>230.1</ele>
        <time>2023-07-23T08:26:34Z</time>
      </trkpt>
      <trkpt lat="48.33252" lon="7.4266">
        <ele>230</ele>
        <time>2023-07-23T08:26:35Z</time>
      </trkpt>
      <trkpt lat="48.33245" lon="7.42658">
        <ele>230</ele>
        <time>2023-07-23T08:26:36Z</time>
      </trkpt>
      <trkpt lat="48.33238" lon="7.42655">
        <ele>230</ele>
        <time>2023-07-23T08:26:37Z</time>
      </trkpt>
      <trkpt lat="48.33232" lon="7.42653">
        <ele>230.1</ele>
        <time>2023-07-23T08:26:38Z</time>
      </trkpt>
      <trkpt lat="48.33225" lon="7.4265">
        <ele>230.2</ele>
        <time>2023-07-23T08:26:39Z</time>
      </trkpt>
      <trkpt lat="48.33219" lon="7.42647">
        <ele>230.2</ele>
        <time>2023-07-23T08:26:40Z</time>
      </trkpt>
      <trkpt lat="48.33212" lon="7.42644">
        <ele>230.3</ele>
        <time>2023-07-23T08:26:41Z</time>
      </trkpt>
      <trkpt lat="48.33206" lon="7.42641">
        <ele>230.4</ele>
        <time>2023-07-23T08:26:42Z</time>
      </trkpt>
      <trkpt lat="48.332" lon="7.42637">
        <ele>230.5</ele>
        <time>2023-07-23T08:26:43Z</time>
      </trkpt>
      <trkpt lat="48.33194" lon="7.42634">
        <ele>230.5</ele>
        <time>2023-07-23T08:26:44Z</time>
      </trkpt>
      <trkpt lat="48.33189" lon="7.42631">
        <ele>230.6</ele>
        <time>2023-07-23T08:26:45Z</time>
      </trkpt>
      <trkpt lat="48.33183" lon="7.42628">
        <ele>230.7</ele>
        <time>2023-07-23T08:26:46Z</time>
      </trkpt>
      <trkpt lat="48.33177" lon="7.42625">
        <ele>230.8</ele>
        <time>2023-07-23T08:26:47Z</time>
      </trkpt>
      <trkpt lat="48.33171" lon="7.42622">
        <ele>230.9</ele>
        <time>2023-07-23T08:26:48Z</time>
      </trkpt>
      <trkpt lat="48.33165" lon="7.42618">
        <ele>231</ele>
        <time>2023-07-23T08:26:49Z</time>
      </trkpt>
      <trkpt lat="48.3316" lon="7.42615">
        <ele>231.1</ele>
        <time>2023-07-23T08:26:50Z</time>
      </trkpt>
      <trkpt lat="48.33154" lon="7.42612">
        <ele>231.1</ele>
        <time>2023-07-23T08:26:51Z</time>
      </trkpt>
      <trkpt lat="48.33148" lon="7.42609">
        <ele>231.1</ele>
        <time>2023-07-23T08:26:52Z</time>
      </trkpt>
      <trkpt lat="48.33142" lon="7.42605">
        <ele>231.2</ele>
        <time>2023-07-23T08:26:53Z</time>
      </trkpt>
      <trkpt lat="48.33136" lon="7.42602">
        <ele>231.2</ele>
        <time>2023-07-23T08:26:54Z</time>
      </trkpt>
      <trkpt lat="48.3313" lon="7.42599">
        <ele>231.2</ele>
        <time>2023-07-23T08:26:55Z</time>
      </trkpt>
      <trkpt lat="48.33124" lon="7.42596">
        <ele>231.3</ele>
        <time>2023-07-23T08:26:56Z</time>
      </trkpt>
      <trkpt lat="48.33118" lon="7.42592">
        <ele>231.3</ele>
        <time>2023-07-23T08:26:57Z</time>
      </trkpt>
      <trkpt lat="48.33112" lon="7.42589">
        <ele>231.3</ele>
        <time>2023-07-23T08:26:58Z</time>
      </trkpt>
      <trkpt lat="48.33106" lon="7.42585">
        <ele>231.3</ele>
        <time>2023-07-23T08:26:59Z</time>
      </trkpt>
      <trkpt lat="48.331" lon="7.42581">
        <ele>231.2</ele>
        <time>2023-07-23T08:27:00Z</time>
      </trkpt>
      <trkpt lat="48.33094" lon="7.42577">
        <ele>231.1</ele>
        <time>2023-07-23T08:27:01Z</time>
      </trkpt>
      <trkpt lat="48.33088" lon="7.42574">
        <ele>231.1</ele>
        <time>2023-07-23T08:27:02Z</time>
      </trkpt>
      <trkpt lat="48.33081" lon="7.4257">
        <ele>231</ele>
        <time>2023-07-23T08:27:03Z</time>
      </trkpt>
      <trkpt lat="48.33075" lon="7.42565">
        <ele>230.9</ele>
        <time>2023-07-23T08:27:04Z</time>
      </trkpt>
      <trkpt lat="48.33069" lon="7.4256">
        <ele>230.8</ele>
        <time>2023-07-23T08:27:05Z</time>
      </trkpt>
      <trkpt lat="48.33062" lon="7.42555">
        <ele>230.7</ele>
        <time>2023-07-23T08:27:06Z</time>
      </trkpt>
      <trkpt lat="48.33056" lon="7.4255">
        <ele>230.6</ele>
        <time>2023-07-23T08:27:07Z</time>
      </trkpt>
      <trkpt lat="48.3305" lon="7.42545">
        <ele>230.4</ele>
        <time>2023-07-23T08:27:08Z</time>
      </trkpt>
      <trkpt lat="48.33044" lon="7.42539">
        <ele>230.4</ele>
        <time>2023-07-23T08:27:09Z</time>
      </trkpt>
      <trkpt lat="48.33038" lon="7.42532">
        <ele>230.3</ele>
        <time>2023-07-23T08:27:10Z</time>
      </trkpt>
      <trkpt lat="48.33032" lon="7.42526">
        <ele>230.2</ele>
        <time>2023-07-23T08:27:11Z</time>
      </trkpt>
      <trkpt lat="48.33026" lon="7.4252">
        <ele>230</ele>
        <time>2023-07-23T08:27:12Z</time>
      </trkpt>
      <trkpt lat="48.33019" lon="7.42513">
        <ele>229.9</ele>
        <time>2023-07-23T08:27:13Z</time>
      </trkpt>
      <trkpt lat="48.33013" lon="7.42506">
        <ele>229.8</ele>
        <time>2023-07-23T08:27:14Z</time>
      </trkpt>
      <trkpt lat="48.33006" lon="7.42499">
        <ele>229.7</ele>
        <time>2023-07-23T08:27:16Z</time>
      </trkpt>
      <trkpt lat="48.32999" lon="7.42493">
        <ele>229.6</ele>
        <time>2023-07-23T08:27:17Z</time>
      </trkpt>
      <trkpt lat="48.32993" lon="7.42487">
        <ele>229.4</ele>
        <time>2023-07-23T08:27:18Z</time>
      </trkpt>
      <trkpt lat="48.32986" lon="7.42481">
        <ele>229.3</ele>
        <time>2023-07-23T08:27:19Z</time>
      </trkpt>
      <trkpt lat="48.32979" lon="7.42476">
        <ele>229.3</ele>
        <time>2023-07-23T08:27:20Z</time>
      </trkpt>
      <trkpt lat="48.32972" lon="7.42471">
        <ele>229.2</ele>
        <time>2023-07-23T08:27:21Z</time>
      </trkpt>
      <trkpt lat="48.32965" lon="7.42465">
        <ele>229.1</ele>
        <time>2023-07-23T08:27:22Z</time>
      </trkpt>
      <trkpt lat="48.32959" lon="7.42461">
        <ele>229</ele>
        <time>2023-07-23T08:27:23Z</time>
      </trkpt>
      <trkpt lat="48.32952" lon="7.42456">
        <ele>228.9</ele>
        <time>2023-07-23T08:27:24Z</time>
      </trkpt>
      <trkpt lat="48.32945" lon="7.42451">
        <ele>228.8</ele>
        <time>2023-07-23T08:27:25Z</time>
      </trkpt>
      <trkpt lat="48.32938" lon="7.42447">
        <ele>228.7</ele>
        <time>2023-07-23T08:27:26Z</time>
      </trkpt>
      <trkpt lat="48.32931" lon="7.42442">
        <ele>228.6</ele>
        <time>2023-07-23T08:27:27Z</time>
      </trkpt>
      <trkpt lat="48.32924" lon="7.42437">
        <ele>228.5</ele>
        <time>2023-07-23T08:27:28Z</time>
      </trkpt>
      <trkpt lat="48.32917" lon="7.42433">
        <ele>228.4</ele>
        <time>2023-07-23T08:27:29Z</time>
      </trkpt>
      <trkpt lat="48.3291" lon="7.42429">
        <ele>228.3</ele>
        <time>2023-07-23T08:27:30Z</time>
      </trkpt>
      <trkpt lat="48.32903" lon="7.42425">
        <ele>228.1</ele>
        <time>2023-07-23T08:27:31Z</time>
      </trkpt>
      <trkpt lat="48.32896" lon="7.42421">
        <ele>228</ele>
        <time>2023-07-23T08:27:32Z</time>
      </trkpt>
      <trkpt lat="48.32889" lon="7.42419">
        <ele>227.8</ele>
        <time>2023-07-23T08:27:33Z</time>
      </trkpt>
      <trkpt lat="48.32882" lon="7.42415">
        <ele>227.7</ele>
        <time>2023-07-23T08:27:34Z</time>
      </trkpt>
      <trkpt lat="48.32875" lon="7.42412">
        <ele>227.5</ele>
        <time>2023-07-23T08:27:35Z</time>
      </trkpt>
      <trkpt lat="48.32868" lon="7.42409">
        <ele>227.3</ele>
        <time>2023-07-23T08:27:36Z</time>
      </trkpt>
      <trkpt lat="48.3286" lon="7.42407">
        <ele>227.1</ele>
        <time>2023-07-23T08:27:37Z</time>
      </trkpt>
      <trkpt lat="48.32853" lon="7.42404">
        <ele>226.9</ele>
        <time>2023-07-23T08:27:38Z</time>
      </trkpt>
      <trkpt lat="48.32845" lon="7.424">
        <ele>226.7</ele>
        <time>2023-07-23T08:27:39Z</time>
      </trkpt>
      <trkpt lat="48.32838" lon="7.42397">
        <ele>226.5</ele>
        <time>2023-07-23T08:27:40Z</time>
      </trkpt>
      <trkpt lat="48.3283" lon="7.42394">
        <ele>226.3</ele>
        <time>2023-07-23T08:27:41Z</time>
      </trkpt>
      <trkpt lat="48.32822" lon="7.4239">
        <ele>226</ele>
        <time>2023-07-23T08:27:42Z</time>
      </trkpt>
      <trkpt lat="48.32814" lon="7.42386">
        <ele>225.8</ele>
        <time>2023-07-23T08:27:43Z</time>
      </trkpt>
      <trkpt lat="48.32806" lon="7.42382">
        <ele>225.6</ele>
        <time>2023-07-23T08:27:44Z</time>
      </trkpt>
      <trkpt lat="48.32798" lon="7.42377">
        <ele>225.3</ele>
        <time>2023-07-23T08:27:45Z</time>
      </trkpt>
      <trkpt lat="48.3279" lon="7.42373">
        <ele>225.1</ele>
        <time>2023-07-23T08:27:46Z</time>
      </trkpt>
      <trkpt lat="48.32782" lon="7.42369">
        <ele>224.9</ele>
        <time>2023-07-23T08:27:47Z</time>
      </trkpt>
      <trkpt lat="48.32775" lon="7.42363">
        <ele>224.7</ele>
        <time>2023-07-23T08:27:48Z</time>
      </trkpt>
      <trkpt lat="48.32768" lon="7.42357">
        <ele>224.5</ele>
        <time>2023-07-23T08:27:49Z</time>
      </trkpt>
      <trkpt lat="48.3276" lon="7.42352">
        <ele>224.3</ele>
        <time>2023-07-23T08:27:50Z</time>
      </trkpt>
      <trkpt lat="48.32753" lon="7.42347">
        <ele>224</ele>
        <time>2023-07-23T08:27:51Z</time>
      </trkpt>
      <trkpt lat="48.32745" lon="7.42344">
        <ele>223.8</ele>
        <time>2023-07-23T08:27:52Z</time>
      </trkpt>
      <trkpt lat="48.32738" lon="7.42342">
        <ele>223.6</ele>
        <time>2023-07-23T08:27:53Z</time>
      </trkpt>
      <trkpt lat="48.3273" lon="7.42341">
        <ele>223.3</ele>
        <time>2023-07-23T08:27:54Z</time>
      </trkpt>
      <trkpt lat="48.32722" lon="7.42339">
        <ele>223.1</ele>
        <time>2023-07-23T08:27:55Z</time>
      </trkpt>
      <trkpt lat="48.32714" lon="7.42338">
        <ele>222.9</ele>
        <time>2023-07-23T08:27:56Z</time>
      </trkpt>
      <trkpt lat="48.32706" lon="7.42339">
        <ele>222.7</ele>
        <time>2023-07-23T08:27:57Z</time>
      </trkpt>
      <trkpt lat="48.32698" lon="7.42341">
        <ele>222.5</ele>
        <time>2023-07-23T08:27:58Z</time>
      </trkpt>
      <trkpt lat="48.3269" lon="7.42344">
        <ele>222.2</ele>
        <time>2023-07-23T08:27:59Z</time>
      </trkpt>
      <trkpt lat="48.32675" lon="7.42354">
        <ele>221.7</ele>
        <time>2023-07-23T08:28:00Z</time>
      </trkpt>
      <trkpt lat="48.32668" lon="7.42359">
        <ele>221.4</ele>
        <time>2023-07-23T08:28:01Z</time>
      </trkpt>
      <trkpt lat="48.32661" lon="7.42364">
        <ele>221.1</ele>
        <time>2023-07-23T08:28:02Z</time>
      </trkpt>
      <trkpt lat="48.32654" lon="7.42369">
        <ele>220.8</ele>
        <time>2023-07-23T08:28:03Z</time>
      </trkpt>
      <trkpt lat="48.32647" lon="7.42374">
        <ele>220.6</ele>
        <time>2023-07-23T08:28:04Z</time>
      </trkpt>
      <trkpt lat="48.3264" lon="7.4238">
        <ele>220.4</ele>
        <time>2023-07-23T08:28:05Z</time>
      </trkpt>
      <trkpt lat="48.32633" lon="7.42384">
        <ele>220.2</ele>
        <time>2023-07-23T08:28:06Z</time>
      </trkpt>
      <trkpt lat="48.32627" lon="7.42389">
        <ele>220</ele>
        <time>2023-07-23T08:28:07Z</time>
      </trkpt>
      <trkpt lat="48.32621" lon="7.42394">
        <ele>219.7</ele>
        <time>2023-07-23T08:28:08Z</time>
      </trkpt>
      <trkpt lat="48.32615" lon="7.42398">
        <ele>219.4</ele>
        <time>2023-07-23T08:28:09Z</time>
      </trkpt>
      <trkpt lat="48.32608" lon="7.424">
        <ele>219.1</ele>
        <time>2023-07-23T08:28:10Z</time>
      </trkpt>
      <trkpt lat="48.32601" lon="7.42404">
        <ele>218.8</ele>
        <time>2023-07-23T08:28:11Z</time>
      </trkpt>
      <trkpt lat="48.32595" lon="7.4241">
        <ele>218.2</ele>
        <time>2023-07-23T08:28:12Z</time>
      </trkpt>
      <trkpt lat="48.3259" lon="7.42419">
        <ele>217.6</ele>
        <time>2023-07-23T08:28:13Z</time>
      </trkpt>
      <trkpt lat="48.32585" lon="7.42428">
        <ele>216.9</ele>
        <time>2023-07-23T08:28:14Z</time>
      </trkpt>
      <trkpt lat="48.32579" lon="7.42437">
        <ele>216.4</ele>
        <time>2023-07-23T08:28:15Z</time>
      </trkpt>
      <trkpt lat="48.32573" lon="7.42446">
        <ele>215.8</ele>
        <time>2023-07-23T08:28:16Z</time>
      </trkpt>
      <trkpt lat="48.32566" lon="7.42456">
        <ele>215.4</ele>
        <time>2023-07-23T08:28:17Z</time>
      </trkpt>
      <trkpt lat="48.32561" lon="7.42466">
        <ele>215.1</ele>
        <time>2023-07-23T08:28:18Z</time>
      </trkpt>
      <trkpt lat="48.32556" lon="7.42479">
        <ele>214.8</ele>
        <time>2023-07-23T08:28:19Z</time>
      </trkpt>
      <trkpt lat="48.32552" lon="7.42492">
        <ele>214.5</ele>
        <time>2023-07-23T08:28:20Z</time>
      </trkpt>
      <trkpt lat="48.32548" lon="7.42505">
        <ele>214.2</ele>
        <time>2023-07-23T08:28:21Z</time>
      </trkpt>
      <trkpt lat="48.32544" lon="7.42518">
        <ele>214</ele>
        <time>2023-07-23T08:28:22Z</time>
      </trkpt>
      <trkpt lat="48.3254" lon="7.42531">
        <ele>213.5</ele>
        <time>2023-07-23T08:28:23Z</time>
      </trkpt>
      <trkpt lat="48.32536" lon="7.42544">
        <ele>213</ele>
        <time>2023-07-23T08:28:24Z</time>
      </trkpt>
      <trkpt lat="48.32532" lon="7.42557">
        <ele>212.5</ele>
        <time>2023-07-23T08:28:25Z</time>
      </trkpt>
      <trkpt lat="48.32527" lon="7.42569">
        <ele>212.1</ele>
        <time>2023-07-23T08:28:26Z</time>
      </trkpt>
      <trkpt lat="48.32522" lon="7.42582">
        <ele>211.7</ele>
        <time>2023-07-23T08:28:27Z</time>
      </trkpt>
      <trkpt lat="48.32517" lon="7.42594">
        <ele>211.3</ele>
        <time>2023-07-23T08:28:28Z</time>
      </trkpt>
      <trkpt lat="48.3251" lon="7.42605">
        <ele>211</ele>
        <time>2023-07-23T08:28:29Z</time>
      </trkpt>
      <trkpt lat="48.32504" lon="7.42615">
        <ele>210.7</ele>
        <time>2023-07-23T08:28:30Z</time>
      </trkpt>
      <trkpt lat="48.32496" lon="7.42623">
        <ele>210.2</ele>
        <time>2023-07-23T08:28:31Z</time>
      </trkpt>
      <trkpt lat="48.32489" lon="7.42632">
        <ele>209.7</ele>
        <time>2023-07-23T08:28:32Z</time>
      </trkpt>
      <trkpt lat="48.32482" lon="7.42641">
        <ele>209.2</ele>
        <time>2023-07-23T08:28:33Z</time>
      </trkpt>
      <trkpt lat="48.32475" lon="7.4265">
        <ele>208.7</ele>
        <time>2023-07-23T08:28:34Z</time>
      </trkpt>
      <trkpt lat="48.32467" lon="7.42658">
        <ele>208.4</ele>
        <time>2023-07-23T08:28:35Z</time>
      </trkpt>
      <trkpt lat="48.3246" lon="7.42666">
        <ele>208.1</ele>
        <time>2023-07-23T08:28:36Z</time>
      </trkpt>
      <trkpt lat="48.32451" lon="7.42673">
        <ele>207.7</ele>
        <time>2023-07-23T08:28:37Z</time>
      </trkpt>
      <trkpt lat="48.32443" lon="7.42679">
        <ele>207.4</ele>
        <time>2023-07-23T08:28:38Z</time>
      </trkpt>
      <trkpt lat="48.32434" lon="7.42684">
        <ele>207.1</ele>
        <time>2023-07-23T08:28:39Z</time>
      </trkpt>
      <trkpt lat="48.32425" lon="7.42686">
        <ele>206.9</ele>
        <time>2023-07-23T08:28:40Z</time>
      </trkpt>
      <trkpt lat="48.32415" lon="7.42686">
        <ele>206.7</ele>
        <time>2023-07-23T08:28:41Z</time>
      </trkpt>
      <trkpt lat="48.32405" lon="7.42685">
        <ele>206.5</ele>
        <time>2023-07-23T08:28:42Z</time>
      </trkpt>
      <trkpt lat="48.32396" lon="7.42684">
        <ele>206.3</ele>
        <time>2023-07-23T08:28:43Z</time>
      </trkpt>
      <trkpt lat="48.32388" lon="7.42685">
        <ele>206.2</ele>
        <time>2023-07-23T08:28:44Z</time>
      </trkpt>
      <trkpt lat="48.3238" lon="7.42689">
        <ele>206</ele>
        <time>2023-07-23T08:28:45Z</time>
      </trkpt>
      <trkpt lat="48.32375" lon="7.42695">
        <ele>205.8</ele>
        <time>2023-07-23T08:28:46Z</time>
      </trkpt>
      <trkpt lat="48.32372" lon="7.42705">
        <ele>205.6</ele>
        <time>2023-07-23T08:28:47Z</time>
      </trkpt>
      <trkpt lat="48.3237" lon="7.42715">
        <ele>205.5</ele>
        <time>2023-07-23T08:28:48Z</time>
      </trkpt>
      <trkpt lat="48.32367" lon="7.42726">
        <ele>205.4</ele>
        <time>2023-07-23T08:28:49Z</time>
      </trkpt>
      <trkpt lat="48.32364" lon="7.42737">
        <ele>205.3</ele>
        <time>2023-07-23T08:28:50Z</time>
      </trkpt>
      <trkpt lat="48.32362" lon="7.42748">
        <ele>205.2</ele>
        <time>2023-07-23T08:28:51Z</time>
      </trkpt>
      <trkpt lat="48.3236" lon="7.42759">
        <ele>205.1</ele>
        <time>2023-07-23T08:28:52Z</time>
      </trkpt>
      <trkpt lat="48.32358" lon="7.4277">
        <ele>205</ele>
        <time>2023-07-23T08:28:53Z</time>
      </trkpt>
      <trkpt lat="48.32357" lon="7.42781">
        <ele>204.9</ele>
        <time>2023-07-23T08:28:54Z</time>
      </trkpt>
      <trkpt lat="48.32355" lon="7.42792">
        <ele>204.8</ele>
        <time>2023-07-23T08:28:55Z</time>
      </trkpt>
      <trkpt lat="48.32355" lon="7.42801">
        <ele>204.7</ele>
        <time>2023-07-23T08:28:56Z</time>
      </trkpt>
      <trkpt lat="48.32356" lon="7.42809">
        <ele>204.6</ele>
        <time>2023-07-23T08:28:57Z</time>
      </trkpt>
      <trkpt lat="48.32356" lon="7.42816">
        <ele>204.5</ele>
        <time>2023-07-23T08:28:58Z</time>
      </trkpt>
      <trkpt lat="48.32355" lon="7.42821">
        <ele>204.4</ele>
        <time>2023-07-23T08:28:59Z</time>
      </trkpt>
      <trkpt lat="48.32354" lon="7.42826">
        <ele>204.4</ele>
        <time>2023-07-23T08:29:00Z</time>
      </trkpt>
      <trkpt lat="48.32351" lon="7.42833">
        <ele>204.3</ele>
        <time>2023-07-23T08:29:01Z</time>
      </trkpt>
      <trkpt lat="48.32347" lon="7.42836">
        <ele>204.2</ele>
        <time>2023-07-23T08:29:02Z</time>
      </trkpt>
      <trkpt lat="48.32344" lon="7.42846">
        <ele>204.1</ele>
        <time>2023-07-23T08:29:03Z</time>
      </trkpt>
      <trkpt lat="48.32338" lon="7.42848">
        <ele>204.1</ele>
        <time>2023-07-23T08:29:04Z</time>
      </trkpt>
      <trkpt lat="48.32333" lon="7.42848">
        <ele>204.2</ele>
        <time>2023-07-23T08:29:05Z</time>
      </trkpt>
      <trkpt lat="48.32328" lon="7.42849">
        <ele>204.2</ele>
        <time>2023-07-23T08:29:06Z</time>
      </trkpt>
      <trkpt lat="48.32322" lon="7.42849">
        <ele>204.3</ele>
        <time>2023-07-23T08:29:07Z</time>
      </trkpt>
      <trkpt lat="48.32316" lon="7.42849">
        <ele>204.4</ele>
        <time>2023-07-23T08:29:08Z</time>
      </trkpt>
      <trkpt lat="48.32311" lon="7.42849">
        <ele>204.4</ele>
        <time>2023-07-23T08:29:09Z</time>
      </trkpt>
      <trkpt lat="48.32305" lon="7.42849">
        <ele>204.5</ele>
        <time>2023-07-23T08:29:10Z</time>
      </trkpt>
      <trkpt lat="48.323" lon="7.4285">
        <ele>204.5</ele>
        <time>2023-07-23T08:29:11Z</time>
      </trkpt>
      <trkpt lat="48.32295" lon="7.4285">
        <ele>204.5</ele>
        <time>2023-07-23T08:29:12Z</time>
      </trkpt>
      <trkpt lat="48.3229" lon="7.4285">
        <ele>204.6</ele>
        <time>2023-07-23T08:29:13Z</time>
      </trkpt>
      <trkpt lat="48.32285" lon="7.42849">
        <ele>204.6</ele>
        <time>2023-07-23T08:29:14Z</time>
      </trkpt>
      <trkpt lat="48.32279" lon="7.42849">
        <ele>204.7</ele>
        <time>2023-07-23T08:29:15Z</time>
      </trkpt>
      <trkpt lat="48.32274" lon="7.42848">
        <ele>204.7</ele>
        <time>2023-07-23T08:29:16Z</time>
      </trkpt>
      <trkpt lat="48.32268" lon="7.42848">
        <ele>204.7</ele>
        <time>2023-07-23T08:29:17Z</time>
      </trkpt>
      <trkpt lat="48.32261" lon="7.42847">
        <ele>204.7</ele>
        <time>2023-07-23T08:29:18Z</time>
      </trkpt>
      <trkpt lat="48.32255" lon="7.42847">
        <ele>204.7</ele>
        <time>2023-07-23T08:29:19Z</time>
      </trkpt>
      <trkpt lat="48.32249" lon="7.42847">
        <ele>204.7</ele>
        <time>2023-07-23T08:29:20Z</time>
      </trkpt>
      <trkpt lat="48.32242" lon="7.42846">
        <ele>204.7</ele>
        <time>2023-07-23T08:29:22Z</time>
      </trkpt>
      <trkpt lat="48.32236" lon="7.42846">
        <ele>204.7</ele>
        <time>2023-07-23T08:29:23Z</time>
      </trkpt>
      <trkpt lat="48.32229" lon="7.42846">
        <ele>204.6</ele>
        <time>2023-07-23T08:29:24Z</time>
      </trkpt>
      <trkpt lat="48.32223" lon="7.42846">
        <ele>204.6</ele>
        <time>2023-07-23T08:29:25Z</time>
      </trkpt>
      <trkpt lat="48.32216" lon="7.42845">
        <ele>204.5</ele>
        <time>2023-07-23T08:29:26Z</time>
      </trkpt>
      <trkpt lat="48.32209" lon="7.42845">
        <ele>204.5</ele>
        <time>2023-07-23T08:29:27Z</time>
      </trkpt>
      <trkpt lat="48.32202" lon="7.42845">
        <ele>204.4</ele>
        <time>2023-07-23T08:29:28Z</time>
      </trkpt>
      <trkpt lat="48.32195" lon="7.42845">
        <ele>204.4</ele>
        <time>2023-07-23T08:29:29Z</time>
      </trkpt>
      <trkpt lat="48.32188" lon="7.42846">
        <ele>204.2</ele>
        <time>2023-07-23T08:29:30Z</time>
      </trkpt>
      <trkpt lat="48.32181" lon="7.42846">
        <ele>204</ele>
        <time>2023-07-23T08:29:31Z</time>
      </trkpt>
      <trkpt lat="48.32174" lon="7.42846">
        <ele>203.7</ele>
        <time>2023-07-23T08:29:32Z</time>
      </trkpt>
      <trkpt lat="48.32167" lon="7.42846">
        <ele>203.5</ele>
        <time>2023-07-23T08:29:33Z</time>
      </trkpt>
      <trkpt lat="48.32159" lon="7.42844">
        <ele>203.2</ele>
        <time>2023-07-23T08:29:34Z</time>
      </trkpt>
      <trkpt lat="48.32151" lon="7.42844">
        <ele>202.9</ele>
        <time>2023-07-23T08:29:35Z</time>
      </trkpt>
      <trkpt lat="48.32144" lon="7.42843">
        <ele>202.6</ele>
        <time>2023-07-23T08:29:36Z</time>
      </trkpt>
      <trkpt lat="48.32136" lon="7.42843">
        <ele>202.3</ele>
        <time>2023-07-23T08:29:37Z</time>
      </trkpt>
      <trkpt lat="48.32128" lon="7.42842">
        <ele>202.1</ele>
        <time>2023-07-23T08:29:38Z</time>
      </trkpt>
      <trkpt lat="48.32119" lon="7.42841">
        <ele>201.8</ele>
        <time>2023-07-23T08:29:39Z</time>
      </trkpt>
      <trkpt lat="48.32111" lon="7.42841">
        <ele>201.6</ele>
        <time>2023-07-23T08:29:40Z</time>
      </trkpt>
      <trkpt lat="48.32103" lon="7.42841">
        <ele>201.3</ele>
        <time>2023-07-23T08:29:41Z</time>
      </trkpt>
      <trkpt lat="48.32094" lon="7.42841">
        <ele>201.1</ele>
        <time>2023-07-23T08:29:42Z</time>
      </trkpt>
      <trkpt lat="48.32086" lon="7.42841">
        <ele>200.9</ele>
        <time>2023-07-23T08:29:43Z</time>
      </trkpt>
      <trkpt lat="48.32078" lon="7.4284">
        <ele>200.8</ele>
        <time>2023-07-23T08:29:44Z</time>
      </trkpt>
      <trkpt lat="48.3207" lon="7.4284">
        <ele>200.6</ele>
        <time>2023-07-23T08:29:45Z</time>
      </trkpt>
      <trkpt lat="48.32062" lon="7.42839">
        <ele>200.4</ele>
        <time>2023-07-23T08:29:46Z</time>
      </trkpt>
      <trkpt lat="48.32053" lon="7.42838">
        <ele>200.2</ele>
        <time>2023-07-23T08:29:47Z</time>
      </trkpt>
      <trkpt lat="48.32045" lon="7.42836">
        <ele>200</ele>
        <time>2023-07-23T08:29:48Z</time>
      </trkpt>
      <trkpt lat="48.32037" lon="7.42835">
        <ele>199.8</ele>
        <time>2023-07-23T08:29:49Z</time>
      </trkpt>
      <trkpt lat="48.32028" lon="7.42834">
        <ele>199.6</ele>
        <time>2023-07-23T08:29:50Z</time>
      </trkpt>
      <trkpt lat="48.3202" lon="7.42833">
        <ele>199.4</ele>
        <time>2023-07-23T08:29:51Z</time>
      </trkpt>
      <trkpt lat="48.32012" lon="7.42832">
        <ele>199.3</ele>
        <time>2023-07-23T08:29:52Z</time>
      </trkpt>
      <trkpt lat="48.32004" lon="7.42832">
        <ele>199.1</ele>
        <time>2023-07-23T08:29:53Z</time>
      </trkpt>
      <trkpt lat="48.31995" lon="7.42831">
        <ele>199</ele>
        <time>2023-07-23T08:29:54Z</time>
      </trkpt>
      <trkpt lat="48.31987" lon="7.4283">
        <ele>198.9</ele>
        <time>2023-07-23T08:29:55Z</time>
      </trkpt>
      <trkpt lat="48.31979" lon="7.42829">
        <ele>198.8</ele>
        <time>2023-07-23T08:29:56Z</time>
      </trkpt>
      <trkpt lat="48.31971" lon="7.42828">
        <ele>198.7</ele>
        <time>2023-07-23T08:29:57Z</time>
      </trkpt>
      <trkpt lat="48.31963" lon="7.42826">
        <ele>198.6</ele>
        <time>2023-07-23T08:29:58Z</time>
      </trkpt>
      <trkpt lat="48.31955" lon="7.42825">
        <ele>198.5</ele>
        <time>2023-07-23T08:29:59Z</time>
      </trkpt>
      <trkpt lat="48.31948" lon="7.42822">
        <ele>198.4</ele>
        <time>2023-07-23T08:30:00Z</time>
      </trkpt>
      <trkpt lat="48.3194" lon="7.4282">
        <ele>198.3</ele>
        <time>2023-07-23T08:30:01Z</time>
      </trkpt>
      <trkpt lat="48.31933" lon="7.42818">
        <ele>198.2</ele>
        <time>2023-07-23T08:30:02Z</time>
      </trkpt>
      <trkpt lat="48.31926" lon="7.42815">
        <ele>198.1</ele>
        <time>2023-07-23T08:30:03Z</time>
      </trkpt>
      <trkpt lat="48.31919" lon="7.42812">
        <ele>198</ele>
        <time>2023-07-23T08:30:04Z</time>
      </trkpt>
      <trkpt lat="48.31911" lon="7.42809">
        <ele>197.9</ele>
        <time>2023-07-23T08:30:05Z</time>
      </trkpt>
      <trkpt lat="48.31904" lon="7.42807">
        <ele>197.9</ele>
        <time>2023-07-23T08:30:06Z</time>
      </trkpt>
      <trkpt lat="48.31898" lon="7.42803">
        <ele>197.8</ele>
        <time>2023-07-23T08:30:07Z</time>
      </trkpt>
      <trkpt lat="48.31891" lon="7.42799">
        <ele>197.7</ele>
        <time>2023-07-23T08:30:08Z</time>
      </trkpt>
      <trkpt lat="48.31883" lon="7.42796">
        <ele>197.6</ele>
        <time>2023-07-23T08:30:09Z</time>
      </trkpt>
      <trkpt lat="48.31876" lon="7.42793">
        <ele>197.5</ele>
        <time>2023-07-23T08:30:10Z</time>
      </trkpt>
      <trkpt lat="48.31869" lon="7.4279">
        <ele>197.4</ele>
        <time>2023-07-23T08:30:11Z</time>
      </trkpt>
      <trkpt lat="48.31861" lon="7.42786">
        <ele>197.3</ele>
        <time>2023-07-23T08:30:12Z</time>
      </trkpt>
      <trkpt lat="48.31854" lon="7.42783">
        <ele>197.2</ele>
        <time>2023-07-23T08:30:13Z</time>
      </trkpt>
      <trkpt lat="48.31846" lon="7.42779">
        <ele>197.2</ele>
        <time>2023-07-23T08:30:14Z</time>
      </trkpt>
      <trkpt lat="48.3184" lon="7.42773">
        <ele>197.1</ele>
        <time>2023-07-23T08:30:15Z</time>
      </trkpt>
      <trkpt lat="48.31834" lon="7.42765">
        <ele>197</ele>
        <time>2023-07-23T08:30:16Z</time>
      </trkpt>
      <trkpt lat="48.31829" lon="7.42755">
        <ele>196.9</ele>
        <time>2023-07-23T08:30:17Z</time>
      </trkpt>
      <trkpt lat="48.31825" lon="7.42744">
        <ele>196.9</ele>
        <time>2023-07-23T08:30:18Z</time>
      </trkpt>
      <trkpt lat="48.31821" lon="7.42734">
        <ele>196.9</ele>
        <time>2023-07-23T08:30:19Z</time>
      </trkpt>
      <trkpt lat="48.31818" lon="7.42723">
        <ele>196.8</ele>
        <time>2023-07-23T08:30:20Z</time>
      </trkpt>
      <trkpt lat="48.31814" lon="7.42713">
        <ele>196.8</ele>
        <time>2023-07-23T08:30:21Z</time>
      </trkpt>
      <trkpt lat="48.31811" lon="7.42703">
        <ele>196.7</ele>
        <time>2023-07-23T08:30:22Z</time>
      </trkpt>
      <trkpt lat="48.31808" lon="7.42694">
        <ele>196.7</ele>
        <time>2023-07-23T08:30:23Z</time>
      </trkpt>
      <trkpt lat="48.31805" lon="7.42683">
        <ele>196.7</ele>
        <time>2023-07-23T08:30:24Z</time>
      </trkpt>
      <trkpt lat="48.31802" lon="7.42674">
        <ele>196.7</ele>
        <time>2023-07-23T08:30:25Z</time>
      </trkpt>
      <trkpt lat="48.31799" lon="7.42665">
        <ele>196.7</ele>
        <time>2023-07-23T08:30:26Z</time>
      </trkpt>
      <trkpt lat="48.31796" lon="7.42655">
        <ele>196.7</ele>
        <time>2023-07-23T08:30:27Z</time>
      </trkpt>
      <trkpt lat="48.3179" lon="7.42636">
        <ele>196.7</ele>
        <time>2023-07-23T08:30:28Z</time>
      </trkpt>
      <trkpt lat="48.31787" lon="7.42626">
        <ele>196.7</ele>
        <time>2023-07-23T08:30:29Z</time>
      </trkpt>
      <trkpt lat="48.31783" lon="7.42617">
        <ele>196.6</ele>
        <time>2023-07-23T08:30:30Z</time>
      </trkpt>
      <trkpt lat="48.3178" lon="7.42607">
        <ele>196.6</ele>
        <time>2023-07-23T08:30:31Z</time>
      </trkpt>
      <trkpt lat="48.31778" lon="7.42597">
        <ele>196.7</ele>
        <time>2023-07-23T08:30:32Z</time>
      </trkpt>
      <trkpt lat="48.31775" lon="7.42588">
        <ele>196.7</ele>
        <time>2023-07-23T08:30:33Z</time>
      </trkpt>
      <trkpt lat="48.31772" lon="7.42579">
        <ele>196.8</ele>
        <time>2023-07-23T08:30:34Z</time>
      </trkpt>
      <trkpt lat="48.31769" lon="7.4257">
        <ele>196.9</ele>
        <time>2023-07-23T08:30:35Z</time>
      </trkpt>
      <trkpt lat="48.31766" lon="7.42561">
        <ele>197</ele>
        <time>2023-07-23T08:30:36Z</time>
      </trkpt>
      <trkpt lat="48.31762" lon="7.42552">
        <ele>197.1</ele>
        <time>2023-07-23T08:30:37Z</time>
      </trkpt>
      <trkpt lat="48.31759" lon="7.42543">
        <ele>197.2</ele>
        <time>2023-07-23T08:30:38Z</time>
      </trkpt>
      <trkpt lat="48.31756" lon="7.42534">
        <ele>197.3</ele>
        <time>2023-07-23T08:30:39Z</time>
      </trkpt>
      <trkpt lat="48.31752" lon="7.42526">
        <ele>197.4</ele>
        <time>2023-07-23T08:30:40Z</time>
      </trkpt>
      <trkpt lat="48.31748" lon="7.42518">
        <ele>197.4</ele>
        <time>2023-07-23T08:30:41Z</time>
      </trkpt>
      <trkpt lat="48.31742" lon="7.42511">
        <ele>197.4</ele>
        <time>2023-07-23T08:30:42Z</time>
      </trkpt>
      <trkpt lat="48.31736" lon="7.42506">
        <ele>197.4</ele>
        <time>2023-07-23T08:30:43Z</time>
      </trkpt>
      <trkpt lat="48.3173" lon="7.42501">
        <ele>197.5</ele>
        <time>2023-07-23T08:30:44Z</time>
      </trkpt>
      <trkpt lat="48.31723" lon="7.42498">
        <ele>197.5</ele>
        <time>2023-07-23T08:30:45Z</time>
      </trkpt>
      <trkpt lat="48.31716" lon="7.42496">
        <ele>197.4</ele>
        <time>2023-07-23T08:30:46Z</time>
      </trkpt>
      <trkpt lat="48.31709" lon="7.42495">
        <ele>197.4</ele>
        <time>2023-07-23T08:30:47Z</time>
      </trkpt>
      <trkpt lat="48.31702" lon="7.42493">
        <ele>197.4</ele>
        <time>2023-07-23T08:30:48Z</time>
      </trkpt>
      <trkpt lat="48.31695" lon="7.42491">
        <ele>197.5</ele>
        <time>2023-07-23T08:30:49Z</time>
      </trkpt>
      <trkpt lat="48.31688" lon="7.4249">
        <ele>197.5</ele>
        <time>2023-07-23T08:30:50Z</time>
      </trkpt>
      <trkpt lat="48.31681" lon="7.42488">
        <ele>197.5</ele>
        <time>2023-07-23T08:30:51Z</time>
      </trkpt>
      <trkpt lat="48.31674" lon="7.42487">
        <ele>197.6</ele>
        <time>2023-07-23T08:30:52Z</time>
      </trkpt>
      <trkpt lat="48.31666" lon="7.42485">
        <ele>197.6</ele>
        <time>2023-07-23T08:30:53Z</time>
      </trkpt>
      <trkpt lat="48.31659" lon="7.42484">
        <ele>197.6</ele>
        <time>2023-07-23T08:30:54Z</time>
      </trkpt>
      <trkpt lat="48.31653" lon="7.42483">
        <ele>197.7</ele>
        <time>2023-07-23T08:30:55Z</time>
      </trkpt>
      <trkpt lat="48.31647" lon="7.42482">
        <ele>197.7</ele>
        <time>2023-07-23T08:30:56Z</time>
      </trkpt>
      <trkpt lat="48.3164" lon="7.42481">
        <ele>197.7</ele>
        <time>2023-07-23T08:30:57Z</time>
      </trkpt>
      <trkpt lat="48.31634" lon="7.4248">
        <ele>197.8</ele>
        <time>2023-07-23T08:30:58Z</time>
      </trkpt>
      <trkpt lat="48.31627" lon="7.42479">
        <ele>197.8</ele>
        <time>2023-07-23T08:30:59Z</time>
      </trkpt>
      <trkpt lat="48.3162" lon="7.42477">
        <ele>197.9</ele>
        <time>2023-07-23T08:31:00Z</time>
      </trkpt>
      <trkpt lat="48.31614" lon="7.42476">
        <ele>197.9</ele>
        <time>2023-07-23T08:31:01Z</time>
      </trkpt>
      <trkpt lat="48.31607" lon="7.42474">
        <ele>198</ele>
        <time>2023-07-23T08:31:02Z</time>
      </trkpt>
      <trkpt lat="48.316" lon="7.42473">
        <ele>198</ele>
        <time>2023-07-23T08:31:03Z</time>
      </trkpt>
      <trkpt lat="48.31593" lon="7.42471">
        <ele>198.1</ele>
        <time>2023-07-23T08:31:04Z</time>
      </trkpt>
      <trkpt lat="48.31587" lon="7.42469">
        <ele>198.2</ele>
        <time>2023-07-23T08:31:05Z</time>
      </trkpt>
      <trkpt lat="48.3158" lon="7.42466">
        <ele>198.3</ele>
        <time>2023-07-23T08:31:06Z</time>
      </trkpt>
      <trkpt lat="48.31574" lon="7.42464">
        <ele>198.4</ele>
        <time>2023-07-23T08:31:07Z</time>
      </trkpt>
      <trkpt lat="48.31567" lon="7.42461">
        <ele>198.5</ele>
        <time>2023-07-23T08:31:08Z</time>
      </trkpt>
      <trkpt lat="48.31561" lon="7.42458">
        <ele>198.5</ele>
        <time>2023-07-23T08:31:09Z</time>
      </trkpt>
      <trkpt lat="48.31555" lon="7.42455">
        <ele>198.6</ele>
        <time>2023-07-23T08:31:10Z</time>
      </trkpt>
      <trkpt lat="48.31549" lon="7.42451">
        <ele>198.7</ele>
        <time>2023-07-23T08:31:11Z</time>
      </trkpt>
      <trkpt lat="48.31542" lon="7.42448">
        <ele>198.7</ele>
        <time>2023-07-23T08:31:12Z</time>
      </trkpt>
      <trkpt lat="48.31536" lon="7.42445">
        <ele>198.8</ele>
        <time>2023-07-23T08:31:13Z</time>
      </trkpt>
      <trkpt lat="48.3153" lon="7.42441">
        <ele>198.8</ele>
        <time>2023-07-23T08:31:14Z</time>
      </trkpt>
      <trkpt lat="48.31523" lon="7.42438">
        <ele>198.9</ele>
        <time>2023-07-23T08:31:15Z</time>
      </trkpt>
      <trkpt lat="48.31517" lon="7.42433">
        <ele>198.9</ele>
        <time>2023-07-23T08:31:16Z</time>
      </trkpt>
      <trkpt lat="48.31511" lon="7.42429">
        <ele>199</ele>
        <time>2023-07-23T08:31:17Z</time>
      </trkpt>
      <trkpt lat="48.31505" lon="7.42425">
        <ele>199</ele>
        <time>2023-07-23T08:31:18Z</time>
      </trkpt>
      <trkpt lat="48.31499" lon="7.42421">
        <ele>199</ele>
        <time>2023-07-23T08:31:19Z</time>
      </trkpt>
      <trkpt lat="48.31493" lon="7.42417">
        <ele>199</ele>
        <time>2023-07-23T08:31:20Z</time>
      </trkpt>
      <trkpt lat="48.31487" lon="7.42412">
        <ele>199.1</ele>
        <time>2023-07-23T08:31:21Z</time>
      </trkpt>
      <trkpt lat="48.31481" lon="7.42408">
        <ele>199.1</ele>
        <time>2023-07-23T08:31:22Z</time>
      </trkpt>
      <trkpt lat="48.31475" lon="7.42404">
        <ele>199.2</ele>
        <time>2023-07-23T08:31:23Z</time>
      </trkpt>
      <trkpt lat="48.31469" lon="7.42399">
        <ele>199.2</ele>
        <time>2023-07-23T08:31:24Z</time>
      </trkpt>
      <trkpt lat="48.31463" lon="7.42395">
        <ele>199.3</ele>
        <time>2023-07-23T08:31:25Z</time>
      </trkpt>
      <trkpt lat="48.31456" lon="7.42392">
        <ele>199.3</ele>
        <time>2023-07-23T08:31:26Z</time>
      </trkpt>
      <trkpt lat="48.3145" lon="7.42389">
        <ele>199.3</ele>
        <time>2023-07-23T08:31:28Z</time>
      </trkpt>
      <trkpt lat="48.31444" lon="7.42385">
        <ele>199.3</ele>
        <time>2023-07-23T08:31:29Z</time>
      </trkpt>
      <trkpt lat="48.31438" lon="7.42382">
        <ele>199.4</ele>
        <time>2023-07-23T08:31:30Z</time>
      </trkpt>
      <trkpt lat="48.31431" lon="7.42379">
        <ele>199.4</ele>
        <time>2023-07-23T08:31:31Z</time>
      </trkpt>
      <trkpt lat="48.31425" lon="7.42376">
        <ele>199.4</ele>
        <time>2023-07-23T08:31:32Z</time>
      </trkpt>
      <trkpt lat="48.31419" lon="7.42373">
        <ele>199.4</ele>
        <time>2023-07-23T08:31:33Z</time>
      </trkpt>
      <trkpt lat="48.31413" lon="7.4237">
        <ele>199.5</ele>
        <time>2023-07-23T08:31:34Z</time>
      </trkpt>
      <trkpt lat="48.31407" lon="7.42367">
        <ele>199.5</ele>
        <time>2023-07-23T08:31:35Z</time>
      </trkpt>
      <trkpt lat="48.31401" lon="7.42364">
        <ele>199.5</ele>
        <time>2023-07-23T08:31:36Z</time>
      </trkpt>
      <trkpt lat="48.31394" lon="7.4236">
        <ele>199.6</ele>
        <time>2023-07-23T08:31:37Z</time>
      </trkpt>
      <trkpt lat="48.31388" lon="7.42357">
        <ele>199.6</ele>
        <time>2023-07-23T08:31:38Z</time>
      </trkpt>
      <trkpt lat="48.31382" lon="7.42353">
        <ele>199.6</ele>
        <time>2023-07-23T08:31:39Z</time>
      </trkpt>
      <trkpt lat="48.31376" lon="7.4235">
        <ele>199.6</ele>
        <time>2023-07-23T08:31:40Z</time>
      </trkpt>
      <trkpt lat="48.3137" lon="7.42346">
        <ele>199.7</ele>
        <time>2023-07-23T08:31:41Z</time>
      </trkpt>
      <trkpt lat="48.31364" lon="7.42342">
        <ele>199.7</ele>
        <time>2023-07-23T08:31:42Z</time>
      </trkpt>
      <trkpt lat="48.31358" lon="7.42338">
        <ele>199.7</ele>
        <time>2023-07-23T08:31:43Z</time>
      </trkpt>
      <trkpt lat="48.31352" lon="7.42335">
        <ele>199.6</ele>
        <time>2023-07-23T08:31:44Z</time>
      </trkpt>
      <trkpt lat="48.31346" lon="7.42331">
        <ele>199.6</ele>
        <time>2023-07-23T08:31:45Z</time>
      </trkpt>
      <trkpt lat="48.3134" lon="7.42327">
        <ele>199.5</ele>
        <time>2023-07-23T08:31:46Z</time>
      </trkpt>
      <trkpt lat="48.31333" lon="7.42325">
        <ele>199.4</ele>
        <time>2023-07-23T08:31:47Z</time>
      </trkpt>
      <trkpt lat="48.31327" lon="7.42324">
        <ele>199.3</ele>
        <time>2023-07-23T08:31:48Z</time>
      </trkpt>
      <trkpt lat="48.3132" lon="7.42323">
        <ele>199.2</ele>
        <time>2023-07-23T08:31:49Z</time>
      </trkpt>
      <trkpt lat="48.31313" lon="7.42323">
        <ele>199.1</ele>
        <time>2023-07-23T08:31:50Z</time>
      </trkpt>
      <trkpt lat="48.31306" lon="7.42322">
        <ele>199</ele>
        <time>2023-07-23T08:31:51Z</time>
      </trkpt>
      <trkpt lat="48.31299" lon="7.42322">
        <ele>198.9</ele>
        <time>2023-07-23T08:31:52Z</time>
      </trkpt>
      <trkpt lat="48.31293" lon="7.42321">
        <ele>198.8</ele>
        <time>2023-07-23T08:31:53Z</time>
      </trkpt>
      <trkpt lat="48.31286" lon="7.42321">
        <ele>198.7</ele>
        <time>2023-07-23T08:31:54Z</time>
      </trkpt>
      <trkpt lat="48.31279" lon="7.42321">
        <ele>198.7</ele>
        <time>2023-07-23T08:31:55Z</time>
      </trkpt>
      <trkpt lat="48.31273" lon="7.42322">
        <ele>198.6</ele>
        <time>2023-07-23T08:31:56Z</time>
      </trkpt>
      <trkpt lat="48.31267" lon="7.42323">
        <ele>198.5</ele>
        <time>2023-07-23T08:31:57Z</time>
      </trkpt>
      <trkpt lat="48.31261" lon="7.42323">
        <ele>198.4</ele>
        <time>2023-07-23T08:31:58Z</time>
      </trkpt>
      <trkpt lat="48.31255" lon="7.42325">
        <ele>198.4</ele>
        <time>2023-07-23T08:31:59Z</time>
      </trkpt>
      <trkpt lat="48.31248" lon="7.42325">
        <ele>198.3</ele>
        <time>2023-07-23T08:32:00Z</time>
      </trkpt>
      <trkpt lat="48.31242" lon="7.42326">
        <ele>198.3</ele>
        <time>2023-07-23T08:32:01Z</time>
      </trkpt>
      <trkpt lat="48.31236" lon="7.42327">
        <ele>198.2</ele>
        <time>2023-07-23T08:32:02Z</time>
      </trkpt>
      <trkpt lat="48.3123" lon="7.42327">
        <ele>198.2</ele>
        <time>2023-07-23T08:32:03Z</time>
      </trkpt>
      <trkpt lat="48.31224" lon="7.42328">
        <ele>198.1</ele>
        <time>2023-07-23T08:32:04Z</time>
      </trkpt>
      <trkpt lat="48.31218" lon="7.42327">
        <ele>198.1</ele>
        <time>2023-07-23T08:32:05Z</time>
      </trkpt>
      <trkpt lat="48.31213" lon="7.42326">
        <ele>198.1</ele>
        <time>2023-07-23T08:32:06Z</time>
      </trkpt>
      <trkpt lat="48.31207" lon="7.42324">
        <ele>198.1</ele>
        <time>2023-07-23T08:32:07Z</time>
      </trkpt>
      <trkpt lat="48.31201" lon="7.42322">
        <ele>198.1</ele>
        <time>2023-07-23T08:32:08Z</time>
      </trkpt>
      <trkpt lat="48.31195" lon="7.42319">
        <ele>198.1</ele>
        <time>2023-07-23T08:32:09Z</time>
      </trkpt>
      <trkpt lat="48.31189" lon="7.42316">
        <ele>198.1</ele>
        <time>2023-07-23T08:32:10Z</time>
      </trkpt>
      <trkpt lat="48.31183" lon="7.42313">
        <ele>198.1</ele>
        <time>2023-07-23T08:32:11Z</time>
      </trkpt>
      <trkpt lat="48.31177" lon="7.4231">
        <ele>198.1</ele>
        <time>2023-07-23T08:32:12Z</time>
      </trkpt>
      <trkpt lat="48.31171" lon="7.42307">
        <ele>198.1</ele>
        <time>2023-07-23T08:32:13Z</time>
      </trkpt>
      <trkpt lat="48.31166" lon="7.42303">
        <ele>198.1</ele>
        <time>2023-07-23T08:32:14Z</time>
      </trkpt>
      <trkpt lat="48.3116" lon="7.423">
        <ele>198.1</ele>
        <time>2023-07-23T08:32:15Z</time>
      </trkpt>
      <trkpt lat="48.31155" lon="7.42297">
        <ele>198.2</ele>
        <time>2023-07-23T08:32:16Z</time>
      </trkpt>
      <trkpt lat="48.3115" lon="7.42294">
        <ele>198.2</ele>
        <time>2023-07-23T08:32:17Z</time>
      </trkpt>
      <trkpt lat="48.31145" lon="7.42291">
        <ele>198.2</ele>
        <time>2023-07-23T08:32:18Z</time>
      </trkpt>
      <trkpt lat="48.31139" lon="7.42288">
        <ele>198.3</ele>
        <time>2023-07-23T08:32:19Z</time>
      </trkpt>
      <trkpt lat="48.31128" lon="7.42284">
        <ele>198.3</ele>
        <time>2023-07-23T08:32:20Z</time>
      </trkpt>
      <trkpt lat="48.31122" lon="7.42281">
        <ele>198.4</ele>
        <time>2023-07-23T08:32:21Z</time>
      </trkpt>
      <trkpt lat="48.31117" lon="7.42279">
        <ele>198.4</ele>
        <time>2023-07-23T08:32:22Z</time>
      </trkpt>
      <trkpt lat="48.31111" lon="7.42276">
        <ele>198.4</ele>
        <time>2023-07-23T08:32:23Z</time>
      </trkpt>
      <trkpt lat="48.31105" lon="7.42274">
        <ele>198.4</ele>
        <time>2023-07-23T08:32:24Z</time>
      </trkpt>
      <trkpt lat="48.31099" lon="7.42272">
        <ele>198.4</ele>
        <time>2023-07-23T08:32:25Z</time>
      </trkpt>
      <trkpt lat="48.31094" lon="7.42269">
        <ele>198.4</ele>
        <time>2023-07-23T08:32:26Z</time>
      </trkpt>
      <trkpt lat="48.31088" lon="7.42267">
        <ele>198.4</ele>
        <time>2023-07-23T08:32:27Z</time>
      </trkpt>
      <trkpt lat="48.31083" lon="7.42265">
        <ele>198.4</ele>
        <time>2023-07-23T08:32:28Z</time>
      </trkpt>
      <trkpt lat="48.31077" lon="7.42263">
        <ele>198.4</ele>
        <time>2023-07-23T08:32:29Z</time>
      </trkpt>
      <trkpt lat="48.31072" lon="7.4226">
        <ele>198.4</ele>
        <time>2023-07-23T08:32:30Z</time>
      </trkpt>
      <trkpt lat="48.31066" lon="7.42258">
        <ele>198.3</ele>
        <time>2023-07-23T08:32:31Z</time>
      </trkpt>
      <trkpt lat="48.31061" lon="7.42256">
        <ele>198.3</ele>
        <time>2023-07-23T08:32:32Z</time>
      </trkpt>
      <trkpt lat="48.31055" lon="7.42254">
        <ele>198.3</ele>
        <time>2023-07-23T08:32:33Z</time>
      </trkpt>
      <trkpt lat="48.3105" lon="7.42251">
        <ele>198.3</ele>
        <time>2023-07-23T08:32:34Z</time>
      </trkpt>
      <trkpt lat="48.31044" lon="7.42249">
        <ele>198.2</ele>
        <time>2023-07-23T08:32:35Z</time>
      </trkpt>
      <trkpt lat="48.31039" lon="7.42246">
        <ele>198.2</ele>
        <time>2023-07-23T08:32:36Z</time>
      </trkpt>
      <trkpt lat="48.31034" lon="7.42244">
        <ele>198.1</ele>
        <time>2023-07-23T08:32:37Z</time>
      </trkpt>
      <trkpt lat="48.31028" lon="7.42242">
        <ele>198.1</ele>
        <time>2023-07-23T08:32:38Z</time>
      </trkpt>
      <trkpt lat="48.31022" lon="7.42239">
        <ele>198</ele>
        <time>2023-07-23T08:32:39Z</time>
      </trkpt>
      <trkpt lat="48.31017" lon="7.42237">
        <ele>197.9</ele>
        <time>2023-07-23T08:32:40Z</time>
      </trkpt>
      <trkpt lat="48.31011" lon="7.42235">
        <ele>197.9</ele>
        <time>2023-07-23T08:32:41Z</time>
      </trkpt>
      <trkpt lat="48.31006" lon="7.42232">
        <ele>197.8</ele>
        <time>2023-07-23T08:32:42Z</time>
      </trkpt>
      <trkpt lat="48.31" lon="7.42229">
        <ele>197.8</ele>
        <time>2023-07-23T08:32:43Z</time>
      </trkpt>
      <trkpt lat="48.30995" lon="7.42226">
        <ele>197.7</ele>
        <time>2023-07-23T08:32:44Z</time>
      </trkpt>
      <trkpt lat="48.3099" lon="7.42223">
        <ele>197.6</ele>
        <time>2023-07-23T08:32:45Z</time>
      </trkpt>
      <trkpt lat="48.30985" lon="7.42219">
        <ele>197.6</ele>
        <time>2023-07-23T08:32:46Z</time>
      </trkpt>
      <trkpt lat="48.3098" lon="7.42215">
        <ele>197.5</ele>
        <time>2023-07-23T08:32:47Z</time>
      </trkpt>
      <trkpt lat="48.30975" lon="7.42211">
        <ele>197.4</ele>
        <time>2023-07-23T08:32:48Z</time>
      </trkpt>
      <trkpt lat="48.30971" lon="7.42209">
        <ele>197.3</ele>
        <time>2023-07-23T08:32:49Z</time>
      </trkpt>
      <trkpt lat="48.30965" lon="7.42208">
        <ele>197.2</ele>
        <time>2023-07-23T08:32:50Z</time>
      </trkpt>
      <trkpt lat="48.30959" lon="7.42208">
        <ele>197.1</ele>
        <time>2023-07-23T08:32:51Z</time>
      </trkpt>
      <trkpt lat="48.30952" lon="7.42208">
        <ele>197</ele>
        <time>2023-07-23T08:32:52Z</time>
      </trkpt>
      <trkpt lat="48.30945" lon="7.42208">
        <ele>196.9</ele>
        <time>2023-07-23T08:32:53Z</time>
      </trkpt>
      <trkpt lat="48.30938" lon="7.42207">
        <ele>196.7</ele>
        <time>2023-07-23T08:32:54Z</time>
      </trkpt>
      <trkpt lat="48.30932" lon="7.42206">
        <ele>196.6</ele>
        <time>2023-07-23T08:32:55Z</time>
      </trkpt>
      <trkpt lat="48.30926" lon="7.42205">
        <ele>196.5</ele>
        <time>2023-07-23T08:32:56Z</time>
      </trkpt>
      <trkpt lat="48.3092" lon="7.42205">
        <ele>196.4</ele>
        <time>2023-07-23T08:32:57Z</time>
      </trkpt>
      <trkpt lat="48.30913" lon="7.42204">
        <ele>196.3</ele>
        <time>2023-07-23T08:32:58Z</time>
      </trkpt>
      <trkpt lat="48.30907" lon="7.42203">
        <ele>196.2</ele>
        <time>2023-07-23T08:32:59Z</time>
      </trkpt>
      <trkpt lat="48.30901" lon="7.42202">
        <ele>196.1</ele>
        <time>2023-07-23T08:33:00Z</time>
      </trkpt>
      <trkpt lat="48.30895" lon="7.42201">
        <ele>196</ele>
        <time>2023-07-23T08:33:01Z</time>
      </trkpt>
      <trkpt lat="48.30889" lon="7.422">
        <ele>195.9</ele>
        <time>2023-07-23T08:33:02Z</time>
      </trkpt>
      <trkpt lat="48.30883" lon="7.42199">
        <ele>195.8</ele>
        <time>2023-07-23T08:33:03Z</time>
      </trkpt>
      <trkpt lat="48.30877" lon="7.42199">
        <ele>195.7</ele>
        <time>2023-07-23T08:33:04Z</time>
      </trkpt>
      <trkpt lat="48.30871" lon="7.42199">
        <ele>195.7</ele>
        <time>2023-07-23T08:33:05Z</time>
      </trkpt>
      <trkpt lat="48.30865" lon="7.42198">
        <ele>195.6</ele>
        <time>2023-07-23T08:33:06Z</time>
      </trkpt>
      <trkpt lat="48.3086" lon="7.42198">
        <ele>195.6</ele>
        <time>2023-07-23T08:33:07Z</time>
      </trkpt>
      <trkpt lat="48.30854" lon="7.42197">
        <ele>195.5</ele>
        <time>2023-07-23T08:33:08Z</time>
      </trkpt>
      <trkpt lat="48.30848" lon="7.42194">
        <ele>195.5</ele>
        <time>2023-07-23T08:33:09Z</time>
      </trkpt>
      <trkpt lat="48.30843" lon="7.4219">
        <ele>195.6</ele>
        <time>2023-07-23T08:33:10Z</time>
      </trkpt>
      <trkpt lat="48.30838" lon="7.42185">
        <ele>195.7</ele>
        <time>2023-07-23T08:33:11Z</time>
      </trkpt>
      <trkpt lat="48.30834" lon="7.42179">
        <ele>195.8</ele>
        <time>2023-07-23T08:33:12Z</time>
      </trkpt>
      <trkpt lat="48.30829" lon="7.42173">
        <ele>195.9</ele>
        <time>2023-07-23T08:33:13Z</time>
      </trkpt>
      <trkpt lat="48.30825" lon="7.42168">
        <ele>196</ele>
        <time>2023-07-23T08:33:14Z</time>
      </trkpt>
      <trkpt lat="48.30821" lon="7.42162">
        <ele>196</ele>
        <time>2023-07-23T08:33:15Z</time>
      </trkpt>
      <trkpt lat="48.30817" lon="7.42157">
        <ele>196.1</ele>
        <time>2023-07-23T08:33:16Z</time>
      </trkpt>
      <trkpt lat="48.30814" lon="7.4215">
        <ele>196.2</ele>
        <time>2023-07-23T08:33:17Z</time>
      </trkpt>
      <trkpt lat="48.3081" lon="7.42145">
        <ele>196.3</ele>
        <time>2023-07-23T08:33:18Z</time>
      </trkpt>
      <trkpt lat="48.30806" lon="7.42139">
        <ele>196.4</ele>
        <time>2023-07-23T08:33:19Z</time>
      </trkpt>
      <trkpt lat="48.30802" lon="7.42133">
        <ele>196.5</ele>
        <time>2023-07-23T08:33:20Z</time>
      </trkpt>
      <trkpt lat="48.30799" lon="7.42126">
        <ele>196.5</ele>
        <time>2023-07-23T08:33:21Z</time>
      </trkpt>
      <trkpt lat="48.30796" lon="7.42119">
        <ele>196.5</ele>
        <time>2023-07-23T08:33:22Z</time>
      </trkpt>
      <trkpt lat="48.30793" lon="7.42113">
        <ele>196.5</ele>
        <time>2023-07-23T08:33:23Z</time>
      </trkpt>
      <trkpt lat="48.3079" lon="7.42107">
        <ele>196.5</ele>
        <time>2023-07-23T08:33:24Z</time>
      </trkpt>
      <trkpt lat="48.30786" lon="7.42101">
        <ele>196.5</ele>
        <time>2023-07-23T08:33:25Z</time>
      </trkpt>
      <trkpt lat="48.30782" lon="7.42094">
        <ele>196.5</ele>
        <time>2023-07-23T08:33:26Z</time>
      </trkpt>
      <trkpt lat="48.30779" lon="7.42087">
        <ele>196.4</ele>
        <time>2023-07-23T08:33:27Z</time>
      </trkpt>
      <trkpt lat="48.30774" lon="7.4208">
        <ele>196.4</ele>
        <time>2023-07-23T08:33:28Z</time>
      </trkpt>
      <trkpt lat="48.3077" lon="7.42074">
        <ele>196.3</ele>
        <time>2023-07-23T08:33:29Z</time>
      </trkpt>
      <trkpt lat="48.30764" lon="7.42068">
        <ele>196.2</ele>
        <time>2023-07-23T08:33:30Z</time>
      </trkpt>
      <trkpt lat="48.30758" lon="7.42062">
        <ele>196.1</ele>
        <time>2023-07-23T08:33:31Z</time>
      </trkpt>
      <trkpt lat="48.30753" lon="7.42057">
        <ele>195.9</ele>
        <time>2023-07-23T08:33:32Z</time>
      </trkpt>
      <trkpt lat="48.30747" lon="7.42052">
        <ele>195.7</ele>
        <time>2023-07-23T08:33:34Z</time>
      </trkpt>
      <trkpt lat="48.3074" lon="7.42047">
        <ele>195.4</ele>
        <time>2023-07-23T08:33:35Z</time>
      </trkpt>
      <trkpt lat="48.30734" lon="7.42041">
        <ele>195.1</ele>
        <time>2023-07-23T08:33:36Z</time>
      </trkpt>
      <trkpt lat="48.30728" lon="7.42036">
        <ele>194.8</ele>
        <time>2023-07-23T08:33:37Z</time>
      </trkpt>
      <trkpt lat="48.30722" lon="7.42031">
        <ele>194.6</ele>
        <time>2023-07-23T08:33:38Z</time>
      </trkpt>
      <trkpt lat="48.30715" lon="7.42025">
        <ele>194.4</ele>
        <time>2023-07-23T08:33:39Z</time>
      </trkpt>
      <trkpt lat="48.30709" lon="7.42019">
        <ele>194.2</ele>
        <time>2023-07-23T08:33:40Z</time>
      </trkpt>
      <trkpt lat="48.30703" lon="7.42013">
        <ele>194</ele>
        <time>2023-07-23T08:33:41Z</time>
      </trkpt>
      <trkpt lat="48.30697" lon="7.42007">
        <ele>193.9</ele>
        <time>2023-07-23T08:33:42Z</time>
      </trkpt>
      <trkpt lat="48.30691" lon="7.41999">
        <ele>193.7</ele>
        <time>2023-07-23T08:33:43Z</time>
      </trkpt>
      <trkpt lat="48.30685" lon="7.41992">
        <ele>193.5</ele>
        <time>2023-07-23T08:33:44Z</time>
      </trkpt>
      <trkpt lat="48.30679" lon="7.41985">
        <ele>193.4</ele>
        <time>2023-07-23T08:33:45Z</time>
      </trkpt>
      <trkpt lat="48.30673" lon="7.41977">
        <ele>193.3</ele>
        <time>2023-07-23T08:33:46Z</time>
      </trkpt>
      <trkpt lat="48.30667" lon="7.4197">
        <ele>193.2</ele>
        <time>2023-07-23T08:33:47Z</time>
      </trkpt>
      <trkpt lat="48.30661" lon="7.41963">
        <ele>193.1</ele>
        <time>2023-07-23T08:33:48Z</time>
      </trkpt>
      <trkpt lat="48.30655" lon="7.41957">
        <ele>193</ele>
        <time>2023-07-23T08:33:49Z</time>
      </trkpt>
      <trkpt lat="48.30648" lon="7.41951">
        <ele>192.9</ele>
        <time>2023-07-23T08:33:50Z</time>
      </trkpt>
      <trkpt lat="48.30642" lon="7.41945">
        <ele>192.8</ele>
        <time>2023-07-23T08:33:51Z</time>
      </trkpt>
      <trkpt lat="48.30636" lon="7.41939">
        <ele>192.8</ele>
        <time>2023-07-23T08:33:52Z</time>
      </trkpt>
      <trkpt lat="48.30629" lon="7.41933">
        <ele>192.7</ele>
        <time>2023-07-23T08:33:53Z</time>
      </trkpt>
      <trkpt lat="48.30622" lon="7.41927">
        <ele>192.7</ele>
        <time>2023-07-23T08:33:54Z</time>
      </trkpt>
      <trkpt lat="48.30616" lon="7.41922">
        <ele>192.7</ele>
        <time>2023-07-23T08:33:55Z</time>
      </trkpt>
      <trkpt lat="48.30609" lon="7.41919">
        <ele>192.7</ele>
        <time>2023-07-23T08:33:56Z</time>
      </trkpt>
      <trkpt lat="48.30602" lon="7.41915">
        <ele>192.7</ele>
        <time>2023-07-23T08:33:57Z</time>
      </trkpt>
      <trkpt lat="48.30596" lon="7.41912">
        <ele>192.7</ele>
        <time>2023-07-23T08:33:58Z</time>
      </trkpt>
      <trkpt lat="48.30589" lon="7.41908">
        <ele>192.7</ele>
        <time>2023-07-23T08:33:59Z</time>
      </trkpt>
      <trkpt lat="48.30583" lon="7.41905">
        <ele>192.7</ele>
        <time>2023-07-23T08:34:00Z</time>
      </trkpt>
      <trkpt lat="48.30576" lon="7.41902">
        <ele>192.7</ele>
        <time>2023-07-23T08:34:01Z</time>
      </trkpt>
      <trkpt lat="48.30569" lon="7.41899">
        <ele>192.7</ele>
        <time>2023-07-23T08:34:02Z</time>
      </trkpt>
      <trkpt lat="48.30562" lon="7.41895">
        <ele>192.7</ele>
        <time>2023-07-23T08:34:03Z</time>
      </trkpt>
      <trkpt lat="48.30556" lon="7.41891">
        <ele>192.8</ele>
        <time>2023-07-23T08:34:04Z</time>
      </trkpt>
      <trkpt lat="48.30549" lon="7.41887">
        <ele>192.9</ele>
        <time>2023-07-23T08:34:05Z</time>
      </trkpt>
      <trkpt lat="48.30543" lon="7.41883">
        <ele>193</ele>
        <time>2023-07-23T08:34:06Z</time>
      </trkpt>
      <trkpt lat="48.30537" lon="7.41879">
        <ele>193.2</ele>
        <time>2023-07-23T08:34:07Z</time>
      </trkpt>
      <trkpt lat="48.30531" lon="7.41875">
        <ele>193.3</ele>
        <time>2023-07-23T08:34:08Z</time>
      </trkpt>
      <trkpt lat="48.30525" lon="7.41871">
        <ele>193.5</ele>
        <time>2023-07-23T08:34:09Z</time>
      </trkpt>
      <trkpt lat="48.30519" lon="7.41867">
        <ele>193.7</ele>
        <time>2023-07-23T08:34:10Z</time>
      </trkpt>
      <trkpt lat="48.30513" lon="7.41863">
        <ele>193.8</ele>
        <time>2023-07-23T08:34:11Z</time>
      </trkpt>
      <trkpt lat="48.30508" lon="7.41858">
        <ele>194</ele>
        <time>2023-07-23T08:34:12Z</time>
      </trkpt>
      <trkpt lat="48.30503" lon="7.41854">
        <ele>194.2</ele>
        <time>2023-07-23T08:34:13Z</time>
      </trkpt>
      <trkpt lat="48.30498" lon="7.41849">
        <ele>194.3</ele>
        <time>2023-07-23T08:34:14Z</time>
      </trkpt>
      <trkpt lat="48.30492" lon="7.41844">
        <ele>194.5</ele>
        <time>2023-07-23T08:34:15Z</time>
      </trkpt>
      <trkpt lat="48.30487" lon="7.4184">
        <ele>194.6</ele>
        <time>2023-07-23T08:34:16Z</time>
      </trkpt>
      <trkpt lat="48.30481" lon="7.41836">
        <ele>194.8</ele>
        <time>2023-07-23T08:34:17Z</time>
      </trkpt>
      <trkpt lat="48.30476" lon="7.41832">
        <ele>194.9</ele>
        <time>2023-07-23T08:34:18Z</time>
      </trkpt>
      <trkpt lat="48.30471" lon="7.41827">
        <ele>195</ele>
        <time>2023-07-23T08:34:19Z</time>
      </trkpt>
      <trkpt lat="48.30466" lon="7.41823">
        <ele>195.2</ele>
        <time>2023-07-23T08:34:20Z</time>
      </trkpt>
      <trkpt lat="48.30461" lon="7.41818">
        <ele>195.3</ele>
        <time>2023-07-23T08:34:21Z</time>
      </trkpt>
      <trkpt lat="48.30457" lon="7.41814">
        <ele>195.4</ele>
        <time>2023-07-23T08:34:22Z</time>
      </trkpt>
      <trkpt lat="48.30452" lon="7.4181">
        <ele>195.5</ele>
        <time>2023-07-23T08:34:23Z</time>
      </trkpt>
      <trkpt lat="48.30447" lon="7.41805">
        <ele>195.7</ele>
        <time>2023-07-23T08:34:24Z</time>
      </trkpt>
      <trkpt lat="48.30443" lon="7.41801">
        <ele>195.8</ele>
        <time>2023-07-23T08:34:25Z</time>
      </trkpt>
      <trkpt lat="48.30439" lon="7.41798">
        <ele>195.9</ele>
        <time>2023-07-23T08:34:26Z</time>
      </trkpt>
      <trkpt lat="48.30435" lon="7.41794">
        <ele>196</ele>
        <time>2023-07-23T08:34:27Z</time>
      </trkpt>
      <trkpt lat="48.3043" lon="7.4179">
        <ele>196.1</ele>
        <time>2023-07-23T08:34:28Z</time>
      </trkpt>
      <trkpt lat="48.30426" lon="7.41787">
        <ele>196.2</ele>
        <time>2023-07-23T08:34:29Z</time>
      </trkpt>
      <trkpt lat="48.30421" lon="7.41783">
        <ele>196.2</ele>
        <time>2023-07-23T08:34:30Z</time>
      </trkpt>
      <trkpt lat="48.30416" lon="7.4178">
        <ele>196.3</ele>
        <time>2023-07-23T08:34:31Z</time>
      </trkpt>
      <trkpt lat="48.30412" lon="7.41776">
        <ele>196.4</ele>
        <time>2023-07-23T08:34:32Z</time>
      </trkpt>
      <trkpt lat="48.30407" lon="7.41773">
        <ele>196.5</ele>
        <time>2023-07-23T08:34:33Z</time>
      </trkpt>
      <trkpt lat="48.30402" lon="7.4177">
        <ele>196.6</ele>
        <time>2023-07-23T08:34:34Z</time>
      </trkpt>
      <trkpt lat="48.30397" lon="7.41767">
        <ele>196.6</ele>
        <time>2023-07-23T08:34:35Z</time>
      </trkpt>
      <trkpt lat="48.30392" lon="7.41764">
        <ele>196.7</ele>
        <time>2023-07-23T08:34:36Z</time>
      </trkpt>
      <trkpt lat="48.30387" lon="7.41761">
        <ele>196.7</ele>
        <time>2023-07-23T08:34:37Z</time>
      </trkpt>
      <trkpt lat="48.30382" lon="7.41758">
        <ele>196.7</ele>
        <time>2023-07-23T08:34:38Z</time>
      </trkpt>
      <trkpt lat="48.30377" lon="7.41756">
        <ele>196.7</ele>
        <time>2023-07-23T08:34:39Z</time>
      </trkpt>
      <trkpt lat="48.30372" lon="7.41754">
        <ele>196.7</ele>
        <time>2023-07-23T08:34:40Z</time>
      </trkpt>
      <trkpt lat="48.30366" lon="7.41752">
        <ele>196.7</ele>
        <time>2023-07-23T08:34:41Z</time>
      </trkpt>
      <trkpt lat="48.30361" lon="7.4175">
        <ele>196.7</ele>
        <time>2023-07-23T08:34:42Z</time>
      </trkpt>
      <trkpt lat="48.30356" lon="7.41748">
        <ele>196.7</ele>
        <time>2023-07-23T08:34:43Z</time>
      </trkpt>
      <trkpt lat="48.30351" lon="7.41746">
        <ele>196.7</ele>
        <time>2023-07-23T08:34:44Z</time>
      </trkpt>
      <trkpt lat="48.30346" lon="7.41745">
        <ele>196.6</ele>
        <time>2023-07-23T08:34:45Z</time>
      </trkpt>
      <trkpt lat="48.3034" lon="7.41744">
        <ele>196.6</ele>
        <time>2023-07-23T08:34:46Z</time>
      </trkpt>
      <trkpt lat="48.30334" lon="7.41744">
        <ele>196.6</ele>
        <time>2023-07-23T08:34:47Z</time>
      </trkpt>
      <trkpt lat="48.30328" lon="7.41743">
        <ele>196.5</ele>
        <time>2023-07-23T08:34:48Z</time>
      </trkpt>
      <trkpt lat="48.30321" lon="7.41742">
        <ele>196.4</ele>
        <time>2023-07-23T08:34:49Z</time>
      </trkpt>
      <trkpt lat="48.30315" lon="7.41742">
        <ele>196.4</ele>
        <time>2023-07-23T08:34:50Z</time>
      </trkpt>
      <trkpt lat="48.30308" lon="7.41741">
        <ele>196.3</ele>
        <time>2023-07-23T08:34:51Z</time>
      </trkpt>
      <trkpt lat="48.30302" lon="7.41739">
        <ele>196.3</ele>
        <time>2023-07-23T08:34:52Z</time>
      </trkpt>
      <trkpt lat="48.30295" lon="7.41738">
        <ele>196.2</ele>
        <time>2023-07-23T08:34:53Z</time>
      </trkpt>
      <trkpt lat="48.30289" lon="7.41737">
        <ele>196.1</ele>
        <time>2023-07-23T08:34:54Z</time>
      </trkpt>
      <trkpt lat="48.30282" lon="7.41735">
        <ele>196</ele>
        <time>2023-07-23T08:34:55Z</time>
      </trkpt>
      <trkpt lat="48.30276" lon="7.41733">
        <ele>195.9</ele>
        <time>2023-07-23T08:34:56Z</time>
      </trkpt>
      <trkpt lat="48.3027" lon="7.41731">
        <ele>195.8</ele>
        <time>2023-07-23T08:34:57Z</time>
      </trkpt>
      <trkpt lat="48.30263" lon="7.41729">
        <ele>195.7</ele>
        <time>2023-07-23T08:34:58Z</time>
      </trkpt>
      <trkpt lat="48.30257" lon="7.41727">
        <ele>195.6</ele>
        <time>2023-07-23T08:34:59Z</time>
      </trkpt>
      <trkpt lat="48.30251" lon="7.41725">
        <ele>195.5</ele>
        <time>2023-07-23T08:35:00Z</time>
      </trkpt>
      <trkpt lat="48.30245" lon="7.41723">
        <ele>195.4</ele>
        <time>2023-07-23T08:35:01Z</time>
      </trkpt>
      <trkpt lat="48.30232" lon="7.41719">
        <ele>195.2</ele>
        <time>2023-07-23T08:35:02Z</time>
      </trkpt>
      <trkpt lat="48.30225" lon="7.41717">
        <ele>195.2</ele>
        <time>2023-07-23T08:35:03Z</time>
      </trkpt>
      <trkpt lat="48.30219" lon="7.41715">
        <ele>195.1</ele>
        <time>2023-07-23T08:35:04Z</time>
      </trkpt>
      <trkpt lat="48.30212" lon="7.41714">
        <ele>195</ele>
        <time>2023-07-23T08:35:05Z</time>
      </trkpt>
      <trkpt lat="48.30206" lon="7.41712">
        <ele>194.9</ele>
        <time>2023-07-23T08:35:06Z</time>
      </trkpt>
      <trkpt lat="48.30199" lon="7.41711">
        <ele>194.8</ele>
        <time>2023-07-23T08:35:07Z</time>
      </trkpt>
      <trkpt lat="48.30193" lon="7.4171">
        <ele>194.7</ele>
        <time>2023-07-23T08:35:08Z</time>
      </trkpt>
      <trkpt lat="48.30186" lon="7.41708">
        <ele>194.6</ele>
        <time>2023-07-23T08:35:09Z</time>
      </trkpt>
      <trkpt lat="48.30179" lon="7.41707">
        <ele>194.5</ele>
        <time>2023-07-23T08:35:10Z</time>
      </trkpt>
      <trkpt lat="48.30173" lon="7.41706">
        <ele>194.4</ele>
        <time>2023-07-23T08:35:11Z</time>
      </trkpt>
      <trkpt lat="48.30166" lon="7.41706">
        <ele>194.3</ele>
        <time>2023-07-23T08:35:12Z</time>
      </trkpt>
      <trkpt lat="48.30159" lon="7.41705">
        <ele>194.3</ele>
        <time>2023-07-23T08:35:13Z</time>
      </trkpt>
      <trkpt lat="48.30152" lon="7.41705">
        <ele>194.2</ele>
        <time>2023-07-23T08:35:14Z</time>
      </trkpt>
      <trkpt lat="48.30145" lon="7.41705">
        <ele>194.1</ele>
        <time>2023-07-23T08:35:15Z</time>
      </trkpt>
      <trkpt lat="48.30138" lon="7.41705">
        <ele>194</ele>
        <time>2023-07-23T08:35:16Z</time>
      </trkpt>
      <trkpt lat="48.30132" lon="7.41706">
        <ele>193.9</ele>
        <time>2023-07-23T08:35:17Z</time>
      </trkpt>
      <trkpt lat="48.30125" lon="7.41707">
        <ele>193.7</ele>
        <time>2023-07-23T08:35:18Z</time>
      </trkpt>
      <trkpt lat="48.30118" lon="7.41707">
        <ele>193.6</ele>
        <time>2023-07-23T08:35:19Z</time>
      </trkpt>
      <trkpt lat="48.3011" lon="7.41708">
        <ele>193.4</ele>
        <time>2023-07-23T08:35:20Z</time>
      </trkpt>
      <trkpt lat="48.30103" lon="7.41709">
        <ele>193.3</ele>
        <time>2023-07-23T08:35:21Z</time>
      </trkpt>
      <trkpt lat="48.30096" lon="7.41709">
        <ele>193.2</ele>
        <time>2023-07-23T08:35:22Z</time>
      </trkpt>
      <trkpt lat="48.30088" lon="7.41708">
        <ele>193.1</ele>
        <time>2023-07-23T08:35:23Z</time>
      </trkpt>
      <trkpt lat="48.30081" lon="7.41708">
        <ele>193</ele>
        <time>2023-07-23T08:35:24Z</time>
      </trkpt>
      <trkpt lat="48.30074" lon="7.41708">
        <ele>193</ele>
        <time>2023-07-23T08:35:25Z</time>
      </trkpt>
      <trkpt lat="48.30067" lon="7.41707">
        <ele>192.9</ele>
        <time>2023-07-23T08:35:26Z</time>
      </trkpt>
      <trkpt lat="48.30059" lon="7.41706">
        <ele>192.8</ele>
        <time>2023-07-23T08:35:27Z</time>
      </trkpt>
      <trkpt lat="48.30052" lon="7.41705">
        <ele>192.8</ele>
        <time>2023-07-23T08:35:28Z</time>
      </trkpt>
      <trkpt lat="48.30045" lon="7.41703">
        <ele>192.7</ele>
        <time>2023-07-23T08:35:29Z</time>
      </trkpt>
      <trkpt lat="48.30038" lon="7.41702">
        <ele>192.6</ele>
        <time>2023-07-23T08:35:30Z</time>
      </trkpt>
      <trkpt lat="48.3003" lon="7.41701">
        <ele>192.4</ele>
        <time>2023-07-23T08:35:31Z</time>
      </trkpt>
      <trkpt lat="48.30023" lon="7.41699">
        <ele>192.3</ele>
        <time>2023-07-23T08:35:32Z</time>
      </trkpt>
      <trkpt lat="48.30016" lon="7.41697">
        <ele>192.2</ele>
        <time>2023-07-23T08:35:33Z</time>
      </trkpt>
      <trkpt lat="48.30009" lon="7.41696">
        <ele>192.1</ele>
        <time>2023-07-23T08:35:34Z</time>
      </trkpt>
      <trkpt lat="48.30001" lon="7.41694">
        <ele>192</ele>
        <time>2023-07-23T08:35:35Z</time>
      </trkpt>
      <trkpt lat="48.29994" lon="7.41692">
        <ele>192</ele>
        <time>2023-07-23T08:35:36Z</time>
      </trkpt>
      <trkpt lat="48.29987" lon="7.41689">
        <ele>191.9</ele>
        <time>2023-07-23T08:35:37Z</time>
      </trkpt>
      <trkpt lat="48.2998" lon="7.41686">
        <ele>191.9</ele>
        <time>2023-07-23T08:35:39Z</time>
      </trkpt>
      <trkpt lat="48.29973" lon="7.41682">
        <ele>191.8</ele>
        <time>2023-07-23T08:35:40Z</time>
      </trkpt>
      <trkpt lat="48.29966" lon="7.4168">
        <ele>191.7</ele>
        <time>2023-07-23T08:35:41Z</time>
      </trkpt>
      <trkpt lat="48.29959" lon="7.4168">
        <ele>191.6</ele>
        <time>2023-07-23T08:35:42Z</time>
      </trkpt>
      <trkpt lat="48.29952" lon="7.41681">
        <ele>191.5</ele>
        <time>2023-07-23T08:35:43Z</time>
      </trkpt>
      <trkpt lat="48.29945" lon="7.41682">
        <ele>191.4</ele>
        <time>2023-07-23T08:35:44Z</time>
      </trkpt>
      <trkpt lat="48.29937" lon="7.41682">
        <ele>191.3</ele>
        <time>2023-07-23T08:35:45Z</time>
      </trkpt>
      <trkpt lat="48.2993" lon="7.41684">
        <ele>191.2</ele>
        <time>2023-07-23T08:35:46Z</time>
      </trkpt>
      <trkpt lat="48.29923" lon="7.41685">
        <ele>191.1</ele>
        <time>2023-07-23T08:35:47Z</time>
      </trkpt>
      <trkpt lat="48.29916" lon="7.41686">
        <ele>191</ele>
        <time>2023-07-23T08:35:48Z</time>
      </trkpt>
      <trkpt lat="48.29908" lon="7.41687">
        <ele>191</ele>
        <time>2023-07-23T08:35:49Z</time>
      </trkpt>
      <trkpt lat="48.29901" lon="7.41688">
        <ele>190.9</ele>
        <time>2023-07-23T08:35:50Z</time>
      </trkpt>
      <trkpt lat="48.29894" lon="7.41689">
        <ele>190.8</ele>
        <time>2023-07-23T08:35:51Z</time>
      </trkpt>
      <trkpt lat="48.29886" lon="7.4169">
        <ele>190.8</ele>
        <time>2023-07-23T08:35:52Z</time>
      </trkpt>
      <trkpt lat="48.29879" lon="7.4169">
        <ele>190.8</ele>
        <time>2023-07-23T08:35:53Z</time>
      </trkpt>
      <trkpt lat="48.29872" lon="7.4169">
        <ele>190.8</ele>
        <time>2023-07-23T08:35:54Z</time>
      </trkpt>
      <trkpt lat="48.29865" lon="7.4169">
        <ele>190.7</ele>
        <time>2023-07-23T08:35:55Z</time>
      </trkpt>
      <trkpt lat="48.29857" lon="7.4169">
        <ele>190.7</ele>
        <time>2023-07-23T08:35:56Z</time>
      </trkpt>
      <trkpt lat="48.2985" lon="7.41689">
        <ele>190.7</ele>
        <time>2023-07-23T08:35:57Z</time>
      </trkpt>
      <trkpt lat="48.29843" lon="7.41689">
        <ele>190.6</ele>
        <time>2023-07-23T08:35:58Z</time>
      </trkpt>
      <trkpt lat="48.29837" lon="7.41689">
        <ele>190.5</ele>
        <time>2023-07-23T08:35:59Z</time>
      </trkpt>
      <trkpt lat="48.2983" lon="7.41689">
        <ele>190.4</ele>
        <time>2023-07-23T08:36:00Z</time>
      </trkpt>
      <trkpt lat="48.29823" lon="7.41688">
        <ele>190.3</ele>
        <time>2023-07-23T08:36:01Z</time>
      </trkpt>
      <trkpt lat="48.29816" lon="7.41688">
        <ele>190.2</ele>
        <time>2023-07-23T08:36:02Z</time>
      </trkpt>
      <trkpt lat="48.29809" lon="7.41687">
        <ele>189.9</ele>
        <time>2023-07-23T08:36:03Z</time>
      </trkpt>
      <trkpt lat="48.29802" lon="7.41685">
        <ele>189.7</ele>
        <time>2023-07-23T08:36:04Z</time>
      </trkpt>
      <trkpt lat="48.29794" lon="7.41684">
        <ele>189.4</ele>
        <time>2023-07-23T08:36:05Z</time>
      </trkpt>
      <trkpt lat="48.29786" lon="7.41683">
        <ele>189</ele>
        <time>2023-07-23T08:36:06Z</time>
      </trkpt>
      <trkpt lat="48.29778" lon="7.41681">
        <ele>188.7</ele>
        <time>2023-07-23T08:36:07Z</time>
      </trkpt>
      <trkpt lat="48.2977" lon="7.4168">
        <ele>188.4</ele>
        <time>2023-07-23T08:36:08Z</time>
      </trkpt>
      <trkpt lat="48.29761" lon="7.41679">
        <ele>188.1</ele>
        <time>2023-07-23T08:36:09Z</time>
      </trkpt>
      <trkpt lat="48.29753" lon="7.41677">
        <ele>187.8</ele>
        <time>2023-07-23T08:36:10Z</time>
      </trkpt>
      <trkpt lat="48.29744" lon="7.41676">
        <ele>187.6</ele>
        <time>2023-07-23T08:36:11Z</time>
      </trkpt>
      <trkpt lat="48.29735" lon="7.41676">
        <ele>187.4</ele>
        <time>2023-07-23T08:36:12Z</time>
      </trkpt>
      <trkpt lat="48.29727" lon="7.41675">
        <ele>187.3</ele>
        <time>2023-07-23T08:36:13Z</time>
      </trkpt>
      <trkpt lat="48.29718" lon="7.41675">
        <ele>187.2</ele>
        <time>2023-07-23T08:36:14Z</time>
      </trkpt>
      <trkpt lat="48.2971" lon="7.41674">
        <ele>187.2</ele>
        <time>2023-07-23T08:36:15Z</time>
      </trkpt>
      <trkpt lat="48.29702" lon="7.41674">
        <ele>187.2</ele>
        <time>2023-07-23T08:36:16Z</time>
      </trkpt>
      <trkpt lat="48.29694" lon="7.41673">
        <ele>187.2</ele>
        <time>2023-07-23T08:36:17Z</time>
      </trkpt>
      <trkpt lat="48.29686" lon="7.41673">
        <ele>187.3</ele>
        <time>2023-07-23T08:36:18Z</time>
      </trkpt>
      <trkpt lat="48.29678" lon="7.41673">
        <ele>187.3</ele>
        <time>2023-07-23T08:36:19Z</time>
      </trkpt>
      <trkpt lat="48.2967" lon="7.41674">
        <ele>187.3</ele>
        <time>2023-07-23T08:36:20Z</time>
      </trkpt>
      <trkpt lat="48.29663" lon="7.41674">
        <ele>187.3</ele>
        <time>2023-07-23T08:36:21Z</time>
      </trkpt>
      <trkpt lat="48.29656" lon="7.41674">
        <ele>187.3</ele>
        <time>2023-07-23T08:36:22Z</time>
      </trkpt>
      <trkpt lat="48.29649" lon="7.41674">
        <ele>187.3</ele>
        <time>2023-07-23T08:36:23Z</time>
      </trkpt>
      <trkpt lat="48.29642" lon="7.41674">
        <ele>187.3</ele>
        <time>2023-07-23T08:36:24Z</time>
      </trkpt>
      <trkpt lat="48.29635" lon="7.41674">
        <ele>187.3</ele>
        <time>2023-07-23T08:36:25Z</time>
      </trkpt>
      <trkpt lat="48.29629" lon="7.41675">
        <ele>187.3</ele>
        <time>2023-07-23T08:36:26Z</time>
      </trkpt>
      <trkpt lat="48.29623" lon="7.41674">
        <ele>187.3</ele>
        <time>2023-07-23T08:36:27Z</time>
      </trkpt>
      <trkpt lat="48.29616" lon="7.41674">
        <ele>187.3</ele>
        <time>2023-07-23T08:36:28Z</time>
      </trkpt>
      <trkpt lat="48.2961" lon="7.41674">
        <ele>187.3</ele>
        <time>2023-07-23T08:36:29Z</time>
      </trkpt>
      <trkpt lat="48.29603" lon="7.41674">
        <ele>187.3</ele>
        <time>2023-07-23T08:36:30Z</time>
      </trkpt>
      <trkpt lat="48.29596" lon="7.41674">
        <ele>187.3</ele>
        <time>2023-07-23T08:36:31Z</time>
      </trkpt>
      <trkpt lat="48.2959" lon="7.41673">
        <ele>187.3</ele>
        <time>2023-07-23T08:36:32Z</time>
      </trkpt>
      <trkpt lat="48.29582" lon="7.41673">
        <ele>187.2</ele>
        <time>2023-07-23T08:36:33Z</time>
      </trkpt>
      <trkpt lat="48.29575" lon="7.41674">
        <ele>187.2</ele>
        <time>2023-07-23T08:36:34Z</time>
      </trkpt>
      <trkpt lat="48.29568" lon="7.41674">
        <ele>187.1</ele>
        <time>2023-07-23T08:36:35Z</time>
      </trkpt>
      <trkpt lat="48.29562" lon="7.41675">
        <ele>187.1</ele>
        <time>2023-07-23T08:36:36Z</time>
      </trkpt>
      <trkpt lat="48.29555" lon="7.41675">
        <ele>187.1</ele>
        <time>2023-07-23T08:36:37Z</time>
      </trkpt>
      <trkpt lat="48.29549" lon="7.41675">
        <ele>187.1</ele>
        <time>2023-07-23T08:36:38Z</time>
      </trkpt>
      <trkpt lat="48.29542" lon="7.41675">
        <ele>187.1</ele>
        <time>2023-07-23T08:36:39Z</time>
      </trkpt>
      <trkpt lat="48.29535" lon="7.41676">
        <ele>187.1</ele>
        <time>2023-07-23T08:36:40Z</time>
      </trkpt>
      <trkpt lat="48.29527" lon="7.41676">
        <ele>187.1</ele>
        <time>2023-07-23T08:36:41Z</time>
      </trkpt>
      <trkpt lat="48.2952" lon="7.41677">
        <ele>187.1</ele>
        <time>2023-07-23T08:36:42Z</time>
      </trkpt>
      <trkpt lat="48.29514" lon="7.41678">
        <ele>187.1</ele>
        <time>2023-07-23T08:36:43Z</time>
      </trkpt>
      <trkpt lat="48.29507" lon="7.41678">
        <ele>187.1</ele>
        <time>2023-07-23T08:36:44Z</time>
      </trkpt>
      <trkpt lat="48.295" lon="7.41679">
        <ele>187.1</ele>
        <time>2023-07-23T08:36:45Z</time>
      </trkpt>
      <trkpt lat="48.29494" lon="7.41679">
        <ele>187.1</ele>
        <time>2023-07-23T08:36:46Z</time>
      </trkpt>
      <trkpt lat="48.29487" lon="7.4168">
        <ele>187.1</ele>
        <time>2023-07-23T08:36:47Z</time>
      </trkpt>
      <trkpt lat="48.2948" lon="7.41681">
        <ele>187.1</ele>
        <time>2023-07-23T08:36:48Z</time>
      </trkpt>
      <trkpt lat="48.29473" lon="7.41681">
        <ele>187.1</ele>
        <time>2023-07-23T08:36:49Z</time>
      </trkpt>
      <trkpt lat="48.29466" lon="7.41681">
        <ele>187.1</ele>
        <time>2023-07-23T08:36:50Z</time>
      </trkpt>
      <trkpt lat="48.29459" lon="7.41682">
        <ele>187.1</ele>
        <time>2023-07-23T08:36:51Z</time>
      </trkpt>
      <trkpt lat="48.29452" lon="7.41682">
        <ele>187.1</ele>
        <time>2023-07-23T08:36:52Z</time>
      </trkpt>
      <trkpt lat="48.29445" lon="7.41683">
        <ele>187.1</ele>
        <time>2023-07-23T08:36:53Z</time>
      </trkpt>
      <trkpt lat="48.29438" lon="7.41684">
        <ele>187.1</ele>
        <time>2023-07-23T08:36:54Z</time>
      </trkpt>
      <trkpt lat="48.29431" lon="7.41685">
        <ele>187.1</ele>
        <time>2023-07-23T08:36:55Z</time>
      </trkpt>
      <trkpt lat="48.29424" lon="7.41686">
        <ele>187.1</ele>
        <time>2023-07-23T08:36:56Z</time>
      </trkpt>
      <trkpt lat="48.29417" lon="7.41687">
        <ele>187.2</ele>
        <time>2023-07-23T08:36:57Z</time>
      </trkpt>
      <trkpt lat="48.2941" lon="7.41687">
        <ele>187.2</ele>
        <time>2023-07-23T08:36:58Z</time>
      </trkpt>
      <trkpt lat="48.29403" lon="7.41689">
        <ele>187.2</ele>
        <time>2023-07-23T08:36:59Z</time>
      </trkpt>
      <trkpt lat="48.29396" lon="7.41689">
        <ele>187.3</ele>
        <time>2023-07-23T08:37:00Z</time>
      </trkpt>
      <trkpt lat="48.29389" lon="7.41689">
        <ele>187.3</ele>
        <time>2023-07-23T08:37:01Z</time>
      </trkpt>
      <trkpt lat="48.29375" lon="7.41688">
        <ele>187.4</ele>
        <time>2023-07-23T08:37:02Z</time>
      </trkpt>
      <trkpt lat="48.29368" lon="7.41689">
        <ele>187.4</ele>
        <time>2023-07-23T08:37:03Z</time>
      </trkpt>
      <trkpt lat="48.29361" lon="7.41689">
        <ele>187.5</ele>
        <time>2023-07-23T08:37:04Z</time>
      </trkpt>
      <trkpt lat="48.29354" lon="7.4169">
        <ele>187.5</ele>
        <time>2023-07-23T08:37:05Z</time>
      </trkpt>
      <trkpt lat="48.29347" lon="7.41691">
        <ele>187.6</ele>
        <time>2023-07-23T08:37:06Z</time>
      </trkpt>
      <trkpt lat="48.29341" lon="7.41691">
        <ele>187.7</ele>
        <time>2023-07-23T08:37:07Z</time>
      </trkpt>
      <trkpt lat="48.29334" lon="7.41692">
        <ele>187.8</ele>
        <time>2023-07-23T08:37:08Z</time>
      </trkpt>
      <trkpt lat="48.29328" lon="7.41693">
        <ele>187.9</ele>
        <time>2023-07-23T08:37:09Z</time>
      </trkpt>
      <trkpt lat="48.29321" lon="7.41693">
        <ele>187.9</ele>
        <time>2023-07-23T08:37:10Z</time>
      </trkpt>
      <trkpt lat="48.29315" lon="7.41693">
        <ele>187.9</ele>
        <time>2023-07-23T08:37:11Z</time>
      </trkpt>
      <trkpt lat="48.29308" lon="7.41694">
        <ele>187.9</ele>
        <time>2023-07-23T08:37:12Z</time>
      </trkpt>
      <trkpt lat="48.29302" lon="7.41694">
        <ele>187.9</ele>
        <time>2023-07-23T08:37:13Z</time>
      </trkpt>
      <trkpt lat="48.29295" lon="7.41695">
        <ele>187.9</ele>
        <time>2023-07-23T08:37:14Z</time>
      </trkpt>
      <trkpt lat="48.29288" lon="7.41695">
        <ele>187.9</ele>
        <time>2023-07-23T08:37:15Z</time>
      </trkpt>
      <trkpt lat="48.29281" lon="7.41696">
        <ele>187.9</ele>
        <time>2023-07-23T08:37:16Z</time>
      </trkpt>
      <trkpt lat="48.29275" lon="7.41696">
        <ele>187.9</ele>
        <time>2023-07-23T08:37:17Z</time>
      </trkpt>
      <trkpt lat="48.29268" lon="7.41697">
        <ele>187.9</ele>
        <time>2023-07-23T08:37:18Z</time>
      </trkpt>
      <trkpt lat="48.29261" lon="7.41697">
        <ele>187.9</ele>
        <time>2023-07-23T08:37:19Z</time>
      </trkpt>
      <trkpt lat="48.29254" lon="7.41697">
        <ele>187.9</ele>
        <time>2023-07-23T08:37:20Z</time>
      </trkpt>
      <trkpt lat="48.29247" lon="7.41697">
        <ele>187.8</ele>
        <time>2023-07-23T08:37:21Z</time>
      </trkpt>
      <trkpt lat="48.29241" lon="7.41698">
        <ele>187.8</ele>
        <time>2023-07-23T08:37:22Z</time>
      </trkpt>
      <trkpt lat="48.29234" lon="7.41698">
        <ele>187.8</ele>
        <time>2023-07-23T08:37:23Z</time>
      </trkpt>
      <trkpt lat="48.29228" lon="7.41699">
        <ele>187.8</ele>
        <time>2023-07-23T08:37:24Z</time>
      </trkpt>
      <trkpt lat="48.29222" lon="7.417">
        <ele>187.8</ele>
        <time>2023-07-23T08:37:25Z</time>
      </trkpt>
      <trkpt lat="48.29215" lon="7.417">
        <ele>187.8</ele>
        <time>2023-07-23T08:37:26Z</time>
      </trkpt>
      <trkpt lat="48.29209" lon="7.41701">
        <ele>187.8</ele>
        <time>2023-07-23T08:37:27Z</time>
      </trkpt>
      <trkpt lat="48.29202" lon="7.41701">
        <ele>187.8</ele>
        <time>2023-07-23T08:37:28Z</time>
      </trkpt>
      <trkpt lat="48.29196" lon="7.41702">
        <ele>187.8</ele>
        <time>2023-07-23T08:37:29Z</time>
      </trkpt>
      <trkpt lat="48.2919" lon="7.41702">
        <ele>187.8</ele>
        <time>2023-07-23T08:37:30Z</time>
      </trkpt>
      <trkpt lat="48.29184" lon="7.41702">
        <ele>187.8</ele>
        <time>2023-07-23T08:37:31Z</time>
      </trkpt>
      <trkpt lat="48.29178" lon="7.41702">
        <ele>187.8</ele>
        <time>2023-07-23T08:37:32Z</time>
      </trkpt>
      <trkpt lat="48.29171" lon="7.41703">
        <ele>187.8</ele>
        <time>2023-07-23T08:37:33Z</time>
      </trkpt>
      <trkpt lat="48.29165" lon="7.41702">
        <ele>187.8</ele>
        <time>2023-07-23T08:37:34Z</time>
      </trkpt>
      <trkpt lat="48.29158" lon="7.41703">
        <ele>187.8</ele>
        <time>2023-07-23T08:37:35Z</time>
      </trkpt>
      <trkpt lat="48.29152" lon="7.41703">
        <ele>187.8</ele>
        <time>2023-07-23T08:37:36Z</time>
      </trkpt>
      <trkpt lat="48.29145" lon="7.41702">
        <ele>187.8</ele>
        <time>2023-07-23T08:37:37Z</time>
      </trkpt>
      <trkpt lat="48.29138" lon="7.41702">
        <ele>187.8</ele>
        <time>2023-07-23T08:37:38Z</time>
      </trkpt>
      <trkpt lat="48.29132" lon="7.41702">
        <ele>187.8</ele>
        <time>2023-07-23T08:37:39Z</time>
      </trkpt>
      <trkpt lat="48.29125" lon="7.41702">
        <ele>187.8</ele>
        <time>2023-07-23T08:37:40Z</time>
      </trkpt>
      <trkpt lat="48.29118" lon="7.41702">
        <ele>187.9</ele>
        <time>2023-07-23T08:37:41Z</time>
      </trkpt>
      <trkpt lat="48.29112" lon="7.41702">
        <ele>187.9</ele>
        <time>2023-07-23T08:37:42Z</time>
      </trkpt>
      <trkpt lat="48.29105" lon="7.41702">
        <ele>187.9</ele>
        <time>2023-07-23T08:37:43Z</time>
      </trkpt>
      <trkpt lat="48.29098" lon="7.41702">
        <ele>187.9</ele>
        <time>2023-07-23T08:37:45Z</time>
      </trkpt>
      <trkpt lat="48.29092" lon="7.41701">
        <ele>187.9</ele>
        <time>2023-07-23T08:37:46Z</time>
      </trkpt>
      <trkpt lat="48.29085" lon="7.41701">
        <ele>187.9</ele>
        <time>2023-07-23T08:37:47Z</time>
      </trkpt>
      <trkpt lat="48.29078" lon="7.417">
        <ele>187.9</ele>
        <time>2023-07-23T08:37:48Z</time>
      </trkpt>
      <trkpt lat="48.29072" lon="7.417">
        <ele>187.9</ele>
        <time>2023-07-23T08:37:49Z</time>
      </trkpt>
      <trkpt lat="48.29065" lon="7.41699">
        <ele>187.9</ele>
        <time>2023-07-23T08:37:50Z</time>
      </trkpt>
      <trkpt lat="48.29059" lon="7.41699">
        <ele>187.9</ele>
        <time>2023-07-23T08:37:51Z</time>
      </trkpt>
      <trkpt lat="48.29053" lon="7.41698">
        <ele>187.9</ele>
        <time>2023-07-23T08:37:52Z</time>
      </trkpt>
      <trkpt lat="48.29046" lon="7.41698">
        <ele>187.9</ele>
        <time>2023-07-23T08:37:53Z</time>
      </trkpt>
      <trkpt lat="48.2904" lon="7.41697">
        <ele>187.9</ele>
        <time>2023-07-23T08:37:54Z</time>
      </trkpt>
      <trkpt lat="48.29033" lon="7.41697">
        <ele>187.9</ele>
        <time>2023-07-23T08:37:55Z</time>
      </trkpt>
      <trkpt lat="48.29027" lon="7.41696">
        <ele>187.8</ele>
        <time>2023-07-23T08:37:56Z</time>
      </trkpt>
      <trkpt lat="48.2902" lon="7.41695">
        <ele>187.8</ele>
        <time>2023-07-23T08:37:57Z</time>
      </trkpt>
      <trkpt lat="48.29014" lon="7.41694">
        <ele>187.8</ele>
        <time>2023-07-23T08:37:58Z</time>
      </trkpt>
      <trkpt lat="48.29007" lon="7.41694">
        <ele>187.9</ele>
        <time>2023-07-23T08:37:59Z</time>
      </trkpt>
      <trkpt lat="48.29" lon="7.41693">
        <ele>187.9</ele>
        <time>2023-07-23T08:38:00Z</time>
      </trkpt>
      <trkpt lat="48.28994" lon="7.41693">
        <ele>188</ele>
        <time>2023-07-23T08:38:01Z</time>
      </trkpt>
      <trkpt lat="48.28987" lon="7.41693">
        <ele>188</ele>
        <time>2023-07-23T08:38:02Z</time>
      </trkpt>
      <trkpt lat="48.28981" lon="7.41693">
        <ele>188</ele>
        <time>2023-07-23T08:38:03Z</time>
      </trkpt>
      <trkpt lat="48.28975" lon="7.41692">
        <ele>188.1</ele>
        <time>2023-07-23T08:38:04Z</time>
      </trkpt>
      <trkpt lat="48.28968" lon="7.4169">
        <ele>188.1</ele>
        <time>2023-07-23T08:38:05Z</time>
      </trkpt>
      <trkpt lat="48.28962" lon="7.41689">
        <ele>188.2</ele>
        <time>2023-07-23T08:38:06Z</time>
      </trkpt>
      <trkpt lat="48.28956" lon="7.41688">
        <ele>188.2</ele>
        <time>2023-07-23T08:38:07Z</time>
      </trkpt>
      <trkpt lat="48.2895" lon="7.41688">
        <ele>188.2</ele>
        <time>2023-07-23T08:38:08Z</time>
      </trkpt>
      <trkpt lat="48.28945" lon="7.41688">
        <ele>188.3</ele>
        <time>2023-07-23T08:38:09Z</time>
      </trkpt>
      <trkpt lat="48.28939" lon="7.41688">
        <ele>188.3</ele>
        <time>2023-07-23T08:38:10Z</time>
      </trkpt>
      <trkpt lat="48.28933" lon="7.41688">
        <ele>188.2</ele>
        <time>2023-07-23T08:38:11Z</time>
      </trkpt>
      <trkpt lat="48.28927" lon="7.41688">
        <ele>188.2</ele>
        <time>2023-07-23T08:38:12Z</time>
      </trkpt>
      <trkpt lat="48.28921" lon="7.41687">
        <ele>188.3</ele>
        <time>2023-07-23T08:38:13Z</time>
      </trkpt>
      <trkpt lat="48.28914" lon="7.41688">
        <ele>188.3</ele>
        <time>2023-07-23T08:38:14Z</time>
      </trkpt>
      <trkpt lat="48.28908" lon="7.41687">
        <ele>188.3</ele>
        <time>2023-07-23T08:38:15Z</time>
      </trkpt>
      <trkpt lat="48.28902" lon="7.41686">
        <ele>188.3</ele>
        <time>2023-07-23T08:38:16Z</time>
      </trkpt>
      <trkpt lat="48.28897" lon="7.41685">
        <ele>188.3</ele>
        <time>2023-07-23T08:38:17Z</time>
      </trkpt>
      <trkpt lat="48.2889" lon="7.41684">
        <ele>188.3</ele>
        <time>2023-07-23T08:38:18Z</time>
      </trkpt>
      <trkpt lat="48.28884" lon="7.41684">
        <ele>188.3</ele>
        <time>2023-07-23T08:38:19Z</time>
      </trkpt>
      <trkpt lat="48.28878" lon="7.41684">
        <ele>188.3</ele>
        <time>2023-07-23T08:38:20Z</time>
      </trkpt>
      <trkpt lat="48.28872" lon="7.41684">
        <ele>188.3</ele>
        <time>2023-07-23T08:38:21Z</time>
      </trkpt>
      <trkpt lat="48.28867" lon="7.41684">
        <ele>188.3</ele>
        <time>2023-07-23T08:38:22Z</time>
      </trkpt>
      <trkpt lat="48.28861" lon="7.41683">
        <ele>188.4</ele>
        <time>2023-07-23T08:38:23Z</time>
      </trkpt>
      <trkpt lat="48.28855" lon="7.41683">
        <ele>188.4</ele>
        <time>2023-07-23T08:38:24Z</time>
      </trkpt>
      <trkpt lat="48.2885" lon="7.41682">
        <ele>188.5</ele>
        <time>2023-07-23T08:38:25Z</time>
      </trkpt>
      <trkpt lat="48.28844" lon="7.41681">
        <ele>188.5</ele>
        <time>2023-07-23T08:38:26Z</time>
      </trkpt>
      <trkpt lat="48.28838" lon="7.41682">
        <ele>188.5</ele>
        <time>2023-07-23T08:38:27Z</time>
      </trkpt>
      <trkpt lat="48.28832" lon="7.41681">
        <ele>188.6</ele>
        <time>2023-07-23T08:38:28Z</time>
      </trkpt>
      <trkpt lat="48.28827" lon="7.4168">
        <ele>188.6</ele>
        <time>2023-07-23T08:38:29Z</time>
      </trkpt>
      <trkpt lat="48.28822" lon="7.41677">
        <ele>188.5</ele>
        <time>2023-07-23T08:38:30Z</time>
      </trkpt>
      <trkpt lat="48.28817" lon="7.41676">
        <ele>188.5</ele>
        <time>2023-07-23T08:38:31Z</time>
      </trkpt>
      <trkpt lat="48.28813" lon="7.41676">
        <ele>188.4</ele>
        <time>2023-07-23T08:38:32Z</time>
      </trkpt>
      <trkpt lat="48.28808" lon="7.41676">
        <ele>188.4</ele>
        <time>2023-07-23T08:38:33Z</time>
      </trkpt>
      <trkpt lat="48.28803" lon="7.41676">
        <ele>188.3</ele>
        <time>2023-07-23T08:38:34Z</time>
      </trkpt>
      <trkpt lat="48.28797" lon="7.41676">
        <ele>188.2</ele>
        <time>2023-07-23T08:38:35Z</time>
      </trkpt>
      <trkpt lat="48.28791" lon="7.41676">
        <ele>188.2</ele>
        <time>2023-07-23T08:38:36Z</time>
      </trkpt>
      <trkpt lat="48.28785" lon="7.41675">
        <ele>188.1</ele>
        <time>2023-07-23T08:38:37Z</time>
      </trkpt>
      <trkpt lat="48.28778" lon="7.41675">
        <ele>188.1</ele>
        <time>2023-07-23T08:38:38Z</time>
      </trkpt>
      <trkpt lat="48.28772" lon="7.41675">
        <ele>188</ele>
        <time>2023-07-23T08:38:39Z</time>
      </trkpt>
      <trkpt lat="48.28766" lon="7.41675">
        <ele>188</ele>
        <time>2023-07-23T08:38:40Z</time>
      </trkpt>
      <trkpt lat="48.2876" lon="7.41675">
        <ele>188</ele>
        <time>2023-07-23T08:38:41Z</time>
      </trkpt>
      <trkpt lat="48.28754" lon="7.41675">
        <ele>188</ele>
        <time>2023-07-23T08:38:42Z</time>
      </trkpt>
      <trkpt lat="48.28749" lon="7.41674">
        <ele>188.1</ele>
        <time>2023-07-23T08:38:43Z</time>
      </trkpt>
      <trkpt lat="48.28744" lon="7.41673">
        <ele>188.1</ele>
        <time>2023-07-23T08:38:44Z</time>
      </trkpt>
      <trkpt lat="48.2874" lon="7.41672">
        <ele>188.2</ele>
        <time>2023-07-23T08:38:45Z</time>
      </trkpt>
      <trkpt lat="48.28736" lon="7.41672">
        <ele>188.2</ele>
        <time>2023-07-23T08:38:46Z</time>
      </trkpt>
      <trkpt lat="48.28734" lon="7.41672">
        <ele>188.3</ele>
        <time>2023-07-23T08:38:47Z</time>
      </trkpt>
      <trkpt lat="48.28734" lon="7.41672">
        <ele>188.3</ele>
        <time>2023-07-23T08:38:48Z</time>
      </trkpt>
      <trkpt lat="48.28732" lon="7.41671">
        <ele>188.3</ele>
        <time>2023-07-23T08:38:49Z</time>
      </trkpt>
      <trkpt lat="48.28731" lon="7.4167">
        <ele>188.3</ele>
        <time>2023-07-23T08:38:50Z</time>
      </trkpt>
      <trkpt lat="48.2873" lon="7.41669">
        <ele>188.4</ele>
        <time>2023-07-23T08:38:51Z</time>
      </trkpt>
      <trkpt lat="48.28729" lon="7.41668">
        <ele>188.4</ele>
        <time>2023-07-23T08:38:52Z</time>
      </trkpt>
      <trkpt lat="48.28729" lon="7.41663">
        <ele>188.4</ele>
        <time>2023-07-23T08:38:53Z</time>
      </trkpt>
      <trkpt lat="48.28729" lon="7.41662">
        <ele>188.5</ele>
        <time>2023-07-23T08:38:54Z</time>
      </trkpt>
      <trkpt lat="48.2873" lon="7.41657">
        <ele>188.5</ele>
        <time>2023-07-23T08:38:55Z</time>
      </trkpt>
      <trkpt lat="48.28731" lon="7.41655">
        <ele>188.6</ele>
        <time>2023-07-23T08:38:56Z</time>
      </trkpt>
      <trkpt lat="48.28732" lon="7.41651">
        <ele>188.6</ele>
        <time>2023-07-23T08:38:57Z</time>
      </trkpt>
      <trkpt lat="48.28733" lon="7.41647">
        <ele>188.6</ele>
        <time>2023-07-23T08:38:58Z</time>
      </trkpt>
      <trkpt lat="48.28735" lon="7.41643">
        <ele>188.6</ele>
        <time>2023-07-23T08:38:59Z</time>
      </trkpt>
      <trkpt lat="48.28735" lon="7.41638">
        <ele>188.7</ele>
        <time>2023-07-23T08:39:00Z</time>
      </trkpt>
      <trkpt lat="48.28737" lon="7.41635">
        <ele>188.7</ele>
        <time>2023-07-23T08:39:01Z</time>
      </trkpt>
      <trkpt lat="48.28737" lon="7.4163">
        <ele>188.7</ele>
        <time>2023-07-23T08:39:02Z</time>
      </trkpt>
      <trkpt lat="48.28738" lon="7.41626">
        <ele>188.8</ele>
        <time>2023-07-23T08:39:03Z</time>
      </trkpt>
      <trkpt lat="48.28738" lon="7.41621">
        <ele>188.8</ele>
        <time>2023-07-23T08:39:04Z</time>
      </trkpt>
      <trkpt lat="48.2874" lon="7.41614">
        <ele>188.9</ele>
        <time>2023-07-23T08:39:05Z</time>
      </trkpt>
      <trkpt lat="48.28741" lon="7.41606">
        <ele>188.9</ele>
        <time>2023-07-23T08:39:06Z</time>
      </trkpt>
      <trkpt lat="48.28743" lon="7.41599">
        <ele>189</ele>
        <time>2023-07-23T08:39:07Z</time>
      </trkpt>
      <trkpt lat="48.28744" lon="7.41591">
        <ele>189</ele>
        <time>2023-07-23T08:39:08Z</time>
      </trkpt>
      <trkpt lat="48.28745" lon="7.41583">
        <ele>189</ele>
        <time>2023-07-23T08:39:09Z</time>
      </trkpt>
      <trkpt lat="48.28746" lon="7.41575">
        <ele>189</ele>
        <time>2023-07-23T08:39:10Z</time>
      </trkpt>
      <trkpt lat="48.28748" lon="7.41567">
        <ele>189</ele>
        <time>2023-07-23T08:39:11Z</time>
      </trkpt>
      <trkpt lat="48.28749" lon="7.41559">
        <ele>189.1</ele>
        <time>2023-07-23T08:39:12Z</time>
      </trkpt>
      <trkpt lat="48.2875" lon="7.41551">
        <ele>189.1</ele>
        <time>2023-07-23T08:39:13Z</time>
      </trkpt>
      <trkpt lat="48.28753" lon="7.41534">
        <ele>189.1</ele>
        <time>2023-07-23T08:39:14Z</time>
      </trkpt>
      <trkpt lat="48.28754" lon="7.41526">
        <ele>189.2</ele>
        <time>2023-07-23T08:39:15Z</time>
      </trkpt>
      <trkpt lat="48.28756" lon="7.41518">
        <ele>189.2</ele>
        <time>2023-07-23T08:39:16Z</time>
      </trkpt>
      <trkpt lat="48.28757" lon="7.41509">
        <ele>189.2</ele>
        <time>2023-07-23T08:39:17Z</time>
      </trkpt>
      <trkpt lat="48.28758" lon="7.41501">
        <ele>189.3</ele>
        <time>2023-07-23T08:39:18Z</time>
      </trkpt>
      <trkpt lat="48.28759" lon="7.41492">
        <ele>189.3</ele>
        <time>2023-07-23T08:39:19Z</time>
      </trkpt>
      <trkpt lat="48.2876" lon="7.41484">
        <ele>189.4</ele>
        <time>2023-07-23T08:39:20Z</time>
      </trkpt>
      <trkpt lat="48.28761" lon="7.41476">
        <ele>189.4</ele>
        <time>2023-07-23T08:39:21Z</time>
      </trkpt>
      <trkpt lat="48.28763" lon="7.41467">
        <ele>189.4</ele>
        <time>2023-07-23T08:39:22Z</time>
      </trkpt>
      <trkpt lat="48.28764" lon="7.41459">
        <ele>189.5</ele>
        <time>2023-07-23T08:39:23Z</time>
      </trkpt>
      <trkpt lat="48.28765" lon="7.4145">
        <ele>189.5</ele>
        <time>2023-07-23T08:39:24Z</time>
      </trkpt>
      <trkpt lat="48.28766" lon="7.41441">
        <ele>189.5</ele>
        <time>2023-07-23T08:39:25Z</time>
      </trkpt>
      <trkpt lat="48.28767" lon="7.41432">
        <ele>189.5</ele>
        <time>2023-07-23T08:39:26Z</time>
      </trkpt>
      <trkpt lat="48.28769" lon="7.41422">
        <ele>189.6</ele>
        <time>2023-07-23T08:39:27Z</time>
      </trkpt>
      <trkpt lat="48.28771" lon="7.41412">
        <ele>189.6</ele>
        <time>2023-07-23T08:39:28Z</time>
      </trkpt>
      <trkpt lat="48.28772" lon="7.41402">
        <ele>189.6</ele>
        <time>2023-07-23T08:39:29Z</time>
      </trkpt>
      <trkpt lat="48.28774" lon="7.41392">
        <ele>189.6</ele>
        <time>2023-07-23T08:39:30Z</time>
      </trkpt>
      <trkpt lat="48.28776" lon="7.41383">
        <ele>189.7</ele>
        <time>2023-07-23T08:39:31Z</time>
      </trkpt>
      <trkpt lat="48.28777" lon="7.41373">
        <ele>189.7</ele>
        <time>2023-07-23T08:39:32Z</time>
      </trkpt>
      <trkpt lat="48.28778" lon="7.41363">
        <ele>189.7</ele>
        <time>2023-07-23T08:39:33Z</time>
      </trkpt>
      <trkpt lat="48.28779" lon="7.41353">
        <ele>189.8</ele>
        <time>2023-07-23T08:39:34Z</time>
      </trkpt>
      <trkpt lat="48.2878" lon="7.41343">
        <ele>189.8</ele>
        <time>2023-07-23T08:39:35Z</time>
      </trkpt>
      <trkpt lat="48.28782" lon="7.41333">
        <ele>189.8</ele>
        <time>2023-07-23T08:39:36Z</time>
      </trkpt>
      <trkpt lat="48.28784" lon="7.41324">
        <ele>189.9</ele>
        <time>2023-07-23T08:39:37Z</time>
      </trkpt>
      <trkpt lat="48.28785" lon="7.41314">
        <ele>189.9</ele>
        <time>2023-07-23T08:39:38Z</time>
      </trkpt>
      <trkpt lat="48.28787" lon="7.41305">
        <ele>190</ele>
        <time>2023-07-23T08:39:39Z</time>
      </trkpt>
      <trkpt lat="48.28788" lon="7.41295">
        <ele>190</ele>
        <time>2023-07-23T08:39:40Z</time>
      </trkpt>
      <trkpt lat="48.28789" lon="7.41285">
        <ele>190.1</ele>
        <time>2023-07-23T08:39:41Z</time>
      </trkpt>
      <trkpt lat="48.28792" lon="7.41277">
        <ele>190.1</ele>
        <time>2023-07-23T08:39:42Z</time>
      </trkpt>
      <trkpt lat="48.28794" lon="7.41268">
        <ele>190.1</ele>
        <time>2023-07-23T08:39:43Z</time>
      </trkpt>
      <trkpt lat="48.28796" lon="7.41259">
        <ele>190.2</ele>
        <time>2023-07-23T08:39:44Z</time>
      </trkpt>
      <trkpt lat="48.28797" lon="7.41249">
        <ele>190.2</ele>
        <time>2023-07-23T08:39:45Z</time>
      </trkpt>
      <trkpt lat="48.28799" lon="7.4124">
        <ele>190.3</ele>
        <time>2023-07-23T08:39:46Z</time>
      </trkpt>
      <trkpt lat="48.288" lon="7.41231">
        <ele>190.3</ele>
        <time>2023-07-23T08:39:47Z</time>
      </trkpt>
      <trkpt lat="48.28801" lon="7.41222">
        <ele>190.3</ele>
        <time>2023-07-23T08:39:48Z</time>
      </trkpt>
      <trkpt lat="48.28802" lon="7.41213">
        <ele>190.4</ele>
        <time>2023-07-23T08:39:49Z</time>
      </trkpt>
      <trkpt lat="48.28804" lon="7.41204">
        <ele>190.4</ele>
        <time>2023-07-23T08:39:51Z</time>
      </trkpt>
      <trkpt lat="48.28805" lon="7.41195">
        <ele>190.5</ele>
        <time>2023-07-23T08:39:52Z</time>
      </trkpt>
      <trkpt lat="48.28807" lon="7.41186">
        <ele>190.5</ele>
        <time>2023-07-23T08:39:53Z</time>
      </trkpt>
      <trkpt lat="48.28808" lon="7.41176">
        <ele>190.6</ele>
        <time>2023-07-23T08:39:54Z</time>
      </trkpt>
      <trkpt lat="48.2881" lon="7.41167">
        <ele>190.7</ele>
        <time>2023-07-23T08:39:55Z</time>
      </trkpt>
      <trkpt lat="48.28811" lon="7.41157">
        <ele>190.7</ele>
        <time>2023-07-23T08:39:56Z</time>
      </trkpt>
      <trkpt lat="48.28813" lon="7.41148">
        <ele>190.8</ele>
        <time>2023-07-23T08:39:57Z</time>
      </trkpt>
      <trkpt lat="48.28814" lon="7.41138">
        <ele>190.9</ele>
        <time>2023-07-23T08:39:58Z</time>
      </trkpt>
      <trkpt lat="48.28816" lon="7.41128">
        <ele>190.9</ele>
        <time>2023-07-23T08:39:59Z</time>
      </trkpt>
      <trkpt lat="48.28817" lon="7.41118">
        <ele>191</ele>
        <time>2023-07-23T08:40:00Z</time>
      </trkpt>
      <trkpt lat="48.28819" lon="7.41108">
        <ele>191</ele>
        <time>2023-07-23T08:40:01Z</time>
      </trkpt>
      <trkpt lat="48.28821" lon="7.41098">
        <ele>191.1</ele>
        <time>2023-07-23T08:40:02Z</time>
      </trkpt>
      <trkpt lat="48.28823" lon="7.41089">
        <ele>191.1</ele>
        <time>2023-07-23T08:40:03Z</time>
      </trkpt>
      <trkpt lat="48.28824" lon="7.41079">
        <ele>191.2</ele>
        <time>2023-07-23T08:40:04Z</time>
      </trkpt>
      <trkpt lat="48.28825" lon="7.41069">
        <ele>191.2</ele>
        <time>2023-07-23T08:40:05Z</time>
      </trkpt>
      <trkpt lat="48.28827" lon="7.41059">
        <ele>191.3</ele>
        <time>2023-07-23T08:40:06Z</time>
      </trkpt>
      <trkpt lat="48.28828" lon="7.41049">
        <ele>191.3</ele>
        <time>2023-07-23T08:40:07Z</time>
      </trkpt>
      <trkpt lat="48.2883" lon="7.41039">
        <ele>191.4</ele>
        <time>2023-07-23T08:40:08Z</time>
      </trkpt>
      <trkpt lat="48.28832" lon="7.4103">
        <ele>191.4</ele>
        <time>2023-07-23T08:40:09Z</time>
      </trkpt>
      <trkpt lat="48.28833" lon="7.4102">
        <ele>191.5</ele>
        <time>2023-07-23T08:40:10Z</time>
      </trkpt>
      <trkpt lat="48.28835" lon="7.41011">
        <ele>191.5</ele>
        <time>2023-07-23T08:40:11Z</time>
      </trkpt>
      <trkpt lat="48.28836" lon="7.41001">
        <ele>191.6</ele>
        <time>2023-07-23T08:40:12Z</time>
      </trkpt>
      <trkpt lat="48.28838" lon="7.40991">
        <ele>191.7</ele>
        <time>2023-07-23T08:40:13Z</time>
      </trkpt>
      <trkpt lat="48.2884" lon="7.40982">
        <ele>191.7</ele>
        <time>2023-07-23T08:40:14Z</time>
      </trkpt>
      <trkpt lat="48.28841" lon="7.40973">
        <ele>191.7</ele>
        <time>2023-07-23T08:40:15Z</time>
      </trkpt>
      <trkpt lat="48.28843" lon="7.40963">
        <ele>191.8</ele>
        <time>2023-07-23T08:40:16Z</time>
      </trkpt>
      <trkpt lat="48.28844" lon="7.40953">
        <ele>191.8</ele>
        <time>2023-07-23T08:40:17Z</time>
      </trkpt>
      <trkpt lat="48.28846" lon="7.40943">
        <ele>191.9</ele>
        <time>2023-07-23T08:40:18Z</time>
      </trkpt>
      <trkpt lat="48.28848" lon="7.40934">
        <ele>191.9</ele>
        <time>2023-07-23T08:40:19Z</time>
      </trkpt>
      <trkpt lat="48.28849" lon="7.40924">
        <ele>192</ele>
        <time>2023-07-23T08:40:20Z</time>
      </trkpt>
      <trkpt lat="48.28851" lon="7.40914">
        <ele>192</ele>
        <time>2023-07-23T08:40:21Z</time>
      </trkpt>
      <trkpt lat="48.28853" lon="7.40904">
        <ele>192.1</ele>
        <time>2023-07-23T08:40:22Z</time>
      </trkpt>
      <trkpt lat="48.28854" lon="7.40894">
        <ele>192.1</ele>
        <time>2023-07-23T08:40:23Z</time>
      </trkpt>
      <trkpt lat="48.28856" lon="7.40884">
        <ele>192.2</ele>
        <time>2023-07-23T08:40:24Z</time>
      </trkpt>
      <trkpt lat="48.28857" lon="7.40875">
        <ele>192.3</ele>
        <time>2023-07-23T08:40:25Z</time>
      </trkpt>
      <trkpt lat="48.28858" lon="7.40865">
        <ele>192.3</ele>
        <time>2023-07-23T08:40:26Z</time>
      </trkpt>
      <trkpt lat="48.28859" lon="7.40855">
        <ele>192.3</ele>
        <time>2023-07-23T08:40:27Z</time>
      </trkpt>
      <trkpt lat="48.2886" lon="7.40846">
        <ele>192.4</ele>
        <time>2023-07-23T08:40:28Z</time>
      </trkpt>
      <trkpt lat="48.2886" lon="7.40836">
        <ele>192.5</ele>
        <time>2023-07-23T08:40:29Z</time>
      </trkpt>
      <trkpt lat="48.2886" lon="7.40826">
        <ele>192.6</ele>
        <time>2023-07-23T08:40:30Z</time>
      </trkpt>
      <trkpt lat="48.2886" lon="7.40816">
        <ele>192.6</ele>
        <time>2023-07-23T08:40:31Z</time>
      </trkpt>
      <trkpt lat="48.2886" lon="7.40807">
        <ele>192.7</ele>
        <time>2023-07-23T08:40:32Z</time>
      </trkpt>
      <trkpt lat="48.28859" lon="7.40797">
        <ele>192.8</ele>
        <time>2023-07-23T08:40:33Z</time>
      </trkpt>
      <trkpt lat="48.28859" lon="7.40787">
        <ele>192.8</ele>
        <time>2023-07-23T08:40:34Z</time>
      </trkpt>
      <trkpt lat="48.28858" lon="7.40777">
        <ele>192.9</ele>
        <time>2023-07-23T08:40:35Z</time>
      </trkpt>
      <trkpt lat="48.28858" lon="7.40767">
        <ele>193</ele>
        <time>2023-07-23T08:40:36Z</time>
      </trkpt>
      <trkpt lat="48.28858" lon="7.40757">
        <ele>193</ele>
        <time>2023-07-23T08:40:37Z</time>
      </trkpt>
      <trkpt lat="48.28858" lon="7.40747">
        <ele>193.1</ele>
        <time>2023-07-23T08:40:38Z</time>
      </trkpt>
      <trkpt lat="48.28857" lon="7.40738">
        <ele>193.1</ele>
        <time>2023-07-23T08:40:39Z</time>
      </trkpt>
      <trkpt lat="48.28857" lon="7.40728">
        <ele>193.2</ele>
        <time>2023-07-23T08:40:40Z</time>
      </trkpt>
      <trkpt lat="48.28856" lon="7.40718">
        <ele>193.3</ele>
        <time>2023-07-23T08:40:41Z</time>
      </trkpt>
      <trkpt lat="48.28856" lon="7.40708">
        <ele>193.3</ele>
        <time>2023-07-23T08:40:42Z</time>
      </trkpt>
      <trkpt lat="48.28856" lon="7.40698">
        <ele>193.4</ele>
        <time>2023-07-23T08:40:43Z</time>
      </trkpt>
      <trkpt lat="48.28856" lon="7.40688">
        <ele>193.4</ele>
        <time>2023-07-23T08:40:44Z</time>
      </trkpt>
      <trkpt lat="48.28855" lon="7.40679">
        <ele>193.5</ele>
        <time>2023-07-23T08:40:45Z</time>
      </trkpt>
      <trkpt lat="48.28855" lon="7.40669">
        <ele>193.6</ele>
        <time>2023-07-23T08:40:46Z</time>
      </trkpt>
      <trkpt lat="48.28854" lon="7.40659">
        <ele>193.6</ele>
        <time>2023-07-23T08:40:47Z</time>
      </trkpt>
      <trkpt lat="48.28854" lon="7.4065">
        <ele>193.7</ele>
        <time>2023-07-23T08:40:48Z</time>
      </trkpt>
      <trkpt lat="48.28854" lon="7.4064">
        <ele>193.7</ele>
        <time>2023-07-23T08:40:49Z</time>
      </trkpt>
      <trkpt lat="48.28853" lon="7.40631">
        <ele>193.8</ele>
        <time>2023-07-23T08:40:50Z</time>
      </trkpt>
      <trkpt lat="48.28853" lon="7.40621">
        <ele>193.8</ele>
        <time>2023-07-23T08:40:51Z</time>
      </trkpt>
      <trkpt lat="48.28853" lon="7.40612">
        <ele>193.9</ele>
        <time>2023-07-23T08:40:52Z</time>
      </trkpt>
      <trkpt lat="48.28852" lon="7.40602">
        <ele>193.9</ele>
        <time>2023-07-23T08:40:53Z</time>
      </trkpt>
      <trkpt lat="48.28852" lon="7.40592">
        <ele>194</ele>
        <time>2023-07-23T08:40:54Z</time>
      </trkpt>
      <trkpt lat="48.28851" lon="7.40583">
        <ele>194</ele>
        <time>2023-07-23T08:40:55Z</time>
      </trkpt>
      <trkpt lat="48.2885" lon="7.40573">
        <ele>194.1</ele>
        <time>2023-07-23T08:40:56Z</time>
      </trkpt>
      <trkpt lat="48.28848" lon="7.40564">
        <ele>194.1</ele>
        <time>2023-07-23T08:40:57Z</time>
      </trkpt>
      <trkpt lat="48.28846" lon="7.40555">
        <ele>194.1</ele>
        <time>2023-07-23T08:40:58Z</time>
      </trkpt>
      <trkpt lat="48.28845" lon="7.40546">
        <ele>194.2</ele>
        <time>2023-07-23T08:40:59Z</time>
      </trkpt>
      <trkpt lat="48.28843" lon="7.40537">
        <ele>194.2</ele>
        <time>2023-07-23T08:41:00Z</time>
      </trkpt>
      <trkpt lat="48.28841" lon="7.40528">
        <ele>194.2</ele>
        <time>2023-07-23T08:41:01Z</time>
      </trkpt>
      <trkpt lat="48.28839" lon="7.40519">
        <ele>194.3</ele>
        <time>2023-07-23T08:41:02Z</time>
      </trkpt>
      <trkpt lat="48.28837" lon="7.4051">
        <ele>194.3</ele>
        <time>2023-07-23T08:41:03Z</time>
      </trkpt>
      <trkpt lat="48.28835" lon="7.40501">
        <ele>194.3</ele>
        <time>2023-07-23T08:41:04Z</time>
      </trkpt>
      <trkpt lat="48.28833" lon="7.40493">
        <ele>194.3</ele>
        <time>2023-07-23T08:41:05Z</time>
      </trkpt>
      <trkpt lat="48.28832" lon="7.40484">
        <ele>194.3</ele>
        <time>2023-07-23T08:41:06Z</time>
      </trkpt>
      <trkpt lat="48.2883" lon="7.40476">
        <ele>194.3</ele>
        <time>2023-07-23T08:41:07Z</time>
      </trkpt>
      <trkpt lat="48.28828" lon="7.40467">
        <ele>194.3</ele>
        <time>2023-07-23T08:41:08Z</time>
      </trkpt>
      <trkpt lat="48.28826" lon="7.40459">
        <ele>194.3</ele>
        <time>2023-07-23T08:41:09Z</time>
      </trkpt>
      <trkpt lat="48.28824" lon="7.40451">
        <ele>194.4</ele>
        <time>2023-07-23T08:41:10Z</time>
      </trkpt>
      <trkpt lat="48.28821" lon="7.40435">
        <ele>194.4</ele>
        <time>2023-07-23T08:41:11Z</time>
      </trkpt>
      <trkpt lat="48.28819" lon="7.40428">
        <ele>194.5</ele>
        <time>2023-07-23T08:41:12Z</time>
      </trkpt>
      <trkpt lat="48.28818" lon="7.4042">
        <ele>194.5</ele>
        <time>2023-07-23T08:41:13Z</time>
      </trkpt>
      <trkpt lat="48.28816" lon="7.40412">
        <ele>194.6</ele>
        <time>2023-07-23T08:41:14Z</time>
      </trkpt>
      <trkpt lat="48.28814" lon="7.40404">
        <ele>194.6</ele>
        <time>2023-07-23T08:41:15Z</time>
      </trkpt>
      <trkpt lat="48.28813" lon="7.40396">
        <ele>194.7</ele>
        <time>2023-07-23T08:41:16Z</time>
      </trkpt>
      <trkpt lat="48.28811" lon="7.40389">
        <ele>194.7</ele>
        <time>2023-07-23T08:41:17Z</time>
      </trkpt>
      <trkpt lat="48.28809" lon="7.40381">
        <ele>194.7</ele>
        <time>2023-07-23T08:41:18Z</time>
      </trkpt>
      <trkpt lat="48.28807" lon="7.40373">
        <ele>194.7</ele>
        <time>2023-07-23T08:41:19Z</time>
      </trkpt>
      <trkpt lat="48.28806" lon="7.40365">
        <ele>194.8</ele>
        <time>2023-07-23T08:41:20Z</time>
      </trkpt>
      <trkpt lat="48.28805" lon="7.40356">
        <ele>194.8</ele>
        <time>2023-07-23T08:41:21Z</time>
      </trkpt>
      <trkpt lat="48.28804" lon="7.40348">
        <ele>194.8</ele>
        <time>2023-07-23T08:41:22Z</time>
      </trkpt>
      <trkpt lat="48.28802" lon="7.40342">
        <ele>194.8</ele>
        <time>2023-07-23T08:41:23Z</time>
      </trkpt>
      <trkpt lat="48.288" lon="7.40335">
        <ele>194.8</ele>
        <time>2023-07-23T08:41:24Z</time>
      </trkpt>
      <trkpt lat="48.28798" lon="7.40327">
        <ele>194.9</ele>
        <time>2023-07-23T08:41:25Z</time>
      </trkpt>
      <trkpt lat="48.28797" lon="7.4032">
        <ele>194.9</ele>
        <time>2023-07-23T08:41:26Z</time>
      </trkpt>
      <trkpt lat="48.28795" lon="7.40312">
        <ele>194.9</ele>
        <time>2023-07-23T08:41:27Z</time>
      </trkpt>
      <trkpt lat="48.28793" lon="7.40305">
        <ele>195</ele>
        <time>2023-07-23T08:41:28Z</time>
      </trkpt>
      <trkpt lat="48.28791" lon="7.40297">
        <ele>195</ele>
        <time>2023-07-23T08:41:29Z</time>
      </trkpt>
      <trkpt lat="48.28789" lon="7.4029">
        <ele>195</ele>
        <time>2023-07-23T08:41:30Z</time>
      </trkpt>
      <trkpt lat="48.28787" lon="7.40283">
        <ele>195.1</ele>
        <time>2023-07-23T08:41:31Z</time>
      </trkpt>
      <trkpt lat="48.28785" lon="7.40275">
        <ele>195</ele>
        <time>2023-07-23T08:41:32Z</time>
      </trkpt>
      <trkpt lat="48.28784" lon="7.40266">
        <ele>195</ele>
        <time>2023-07-23T08:41:33Z</time>
      </trkpt>
      <trkpt lat="48.28783" lon="7.40257">
        <ele>194.9</ele>
        <time>2023-07-23T08:41:34Z</time>
      </trkpt>
      <trkpt lat="48.28783" lon="7.40248">
        <ele>194.9</ele>
        <time>2023-07-23T08:41:35Z</time>
      </trkpt>
      <trkpt lat="48.28783" lon="7.40239">
        <ele>194.8</ele>
        <time>2023-07-23T08:41:36Z</time>
      </trkpt>
      <trkpt lat="48.28782" lon="7.4023">
        <ele>194.8</ele>
        <time>2023-07-23T08:41:37Z</time>
      </trkpt>
      <trkpt lat="48.28783" lon="7.40222">
        <ele>194.8</ele>
        <time>2023-07-23T08:41:38Z</time>
      </trkpt>
      <trkpt lat="48.28783" lon="7.40213">
        <ele>194.8</ele>
        <time>2023-07-23T08:41:39Z</time>
      </trkpt>
      <trkpt lat="48.28784" lon="7.40205">
        <ele>194.8</ele>
        <time>2023-07-23T08:41:40Z</time>
      </trkpt>
      <trkpt lat="48.28784" lon="7.40196">
        <ele>194.8</ele>
        <time>2023-07-23T08:41:41Z</time>
      </trkpt>
      <trkpt lat="48.28785" lon="7.40187">
        <ele>194.8</ele>
        <time>2023-07-23T08:41:42Z</time>
      </trkpt>
      <trkpt lat="48.28785" lon="7.40178">
        <ele>194.8</ele>
        <time>2023-07-23T08:41:43Z</time>
      </trkpt>
      <trkpt lat="48.28787" lon="7.40169">
        <ele>194.8</ele>
        <time>2023-07-23T08:41:44Z</time>
      </trkpt>
      <trkpt lat="48.28787" lon="7.4016">
        <ele>194.8</ele>
        <time>2023-07-23T08:41:45Z</time>
      </trkpt>
      <trkpt lat="48.28788" lon="7.40151">
        <ele>194.8</ele>
        <time>2023-07-23T08:41:46Z</time>
      </trkpt>
      <trkpt lat="48.28788" lon="7.40142">
        <ele>194.8</ele>
        <time>2023-07-23T08:41:47Z</time>
      </trkpt>
      <trkpt lat="48.28789" lon="7.40133">
        <ele>194.8</ele>
        <time>2023-07-23T08:41:48Z</time>
      </trkpt>
      <trkpt lat="48.2879" lon="7.40124">
        <ele>194.8</ele>
        <time>2023-07-23T08:41:49Z</time>
      </trkpt>
      <trkpt lat="48.28791" lon="7.40115">
        <ele>194.9</ele>
        <time>2023-07-23T08:41:50Z</time>
      </trkpt>
      <trkpt lat="48.28791" lon="7.40105">
        <ele>194.9</ele>
        <time>2023-07-23T08:41:51Z</time>
      </trkpt>
      <trkpt lat="48.28792" lon="7.40096">
        <ele>195</ele>
        <time>2023-07-23T08:41:52Z</time>
      </trkpt>
      <trkpt lat="48.28793" lon="7.40087">
        <ele>195</ele>
        <time>2023-07-23T08:41:53Z</time>
      </trkpt>
      <trkpt lat="48.28794" lon="7.40077">
        <ele>195.1</ele>
        <time>2023-07-23T08:41:54Z</time>
      </trkpt>
      <trkpt lat="48.28795" lon="7.40068">
        <ele>195.1</ele>
        <time>2023-07-23T08:41:55Z</time>
      </trkpt>
      <trkpt lat="48.28796" lon="7.40059">
        <ele>195.1</ele>
        <time>2023-07-23T08:41:57Z</time>
      </trkpt>
      <trkpt lat="48.28796" lon="7.4005">
        <ele>195.2</ele>
        <time>2023-07-23T08:41:58Z</time>
      </trkpt>
      <trkpt lat="48.28797" lon="7.40041">
        <ele>195.2</ele>
        <time>2023-07-23T08:41:59Z</time>
      </trkpt>
      <trkpt lat="48.28798" lon="7.40032">
        <ele>195.3</ele>
        <time>2023-07-23T08:42:00Z</time>
      </trkpt>
      <trkpt lat="48.28799" lon="7.40023">
        <ele>195.3</ele>
        <time>2023-07-23T08:42:01Z</time>
      </trkpt>
      <trkpt lat="48.288" lon="7.40013">
        <ele>195.4</ele>
        <time>2023-07-23T08:42:02Z</time>
      </trkpt>
      <trkpt lat="48.28801" lon="7.40004">
        <ele>195.5</ele>
        <time>2023-07-23T08:42:03Z</time>
      </trkpt>
      <trkpt lat="48.28802" lon="7.39995">
        <ele>195.6</ele>
        <time>2023-07-23T08:42:04Z</time>
      </trkpt>
      <trkpt lat="48.28803" lon="7.39986">
        <ele>195.6</ele>
        <time>2023-07-23T08:42:05Z</time>
      </trkpt>
      <trkpt lat="48.28804" lon="7.39976">
        <ele>195.7</ele>
        <time>2023-07-23T08:42:06Z</time>
      </trkpt>
      <trkpt lat="48.28805" lon="7.39967">
        <ele>195.7</ele>
        <time>2023-07-23T08:42:07Z</time>
      </trkpt>
      <trkpt lat="48.28806" lon="7.39959">
        <ele>195.8</ele>
        <time>2023-07-23T08:42:08Z</time>
      </trkpt>
      <trkpt lat="48.28806" lon="7.39949">
        <ele>195.8</ele>
        <time>2023-07-23T08:42:09Z</time>
      </trkpt>
      <trkpt lat="48.28807" lon="7.3994">
        <ele>195.8</ele>
        <time>2023-07-23T08:42:10Z</time>
      </trkpt>
      <trkpt lat="48.28808" lon="7.39931">
        <ele>195.8</ele>
        <time>2023-07-23T08:42:11Z</time>
      </trkpt>
      <trkpt lat="48.28809" lon="7.39922">
        <ele>195.9</ele>
        <time>2023-07-23T08:42:12Z</time>
      </trkpt>
      <trkpt lat="48.2881" lon="7.39913">
        <ele>195.9</ele>
        <time>2023-07-23T08:42:13Z</time>
      </trkpt>
      <trkpt lat="48.2881" lon="7.39904">
        <ele>196</ele>
        <time>2023-07-23T08:42:14Z</time>
      </trkpt>
      <trkpt lat="48.28811" lon="7.39895">
        <ele>196</ele>
        <time>2023-07-23T08:42:15Z</time>
      </trkpt>
      <trkpt lat="48.28812" lon="7.39887">
        <ele>196.1</ele>
        <time>2023-07-23T08:42:16Z</time>
      </trkpt>
      <trkpt lat="48.28812" lon="7.39878">
        <ele>196.2</ele>
        <time>2023-07-23T08:42:17Z</time>
      </trkpt>
      <trkpt lat="48.28813" lon="7.39869">
        <ele>196.2</ele>
        <time>2023-07-23T08:42:18Z</time>
      </trkpt>
      <trkpt lat="48.28814" lon="7.3986">
        <ele>196.3</ele>
        <time>2023-07-23T08:42:19Z</time>
      </trkpt>
      <trkpt lat="48.28815" lon="7.39852">
        <ele>196.3</ele>
        <time>2023-07-23T08:42:20Z</time>
      </trkpt>
      <trkpt lat="48.28815" lon="7.39843">
        <ele>196.4</ele>
        <time>2023-07-23T08:42:21Z</time>
      </trkpt>
      <trkpt lat="48.28816" lon="7.39834">
        <ele>196.5</ele>
        <time>2023-07-23T08:42:22Z</time>
      </trkpt>
      <trkpt lat="48.28817" lon="7.39825">
        <ele>196.6</ele>
        <time>2023-07-23T08:42:23Z</time>
      </trkpt>
      <trkpt lat="48.28818" lon="7.39817">
        <ele>196.7</ele>
        <time>2023-07-23T08:42:24Z</time>
      </trkpt>
      <trkpt lat="48.28818" lon="7.39808">
        <ele>196.7</ele>
        <time>2023-07-23T08:42:25Z</time>
      </trkpt>
      <trkpt lat="48.28819" lon="7.39799">
        <ele>196.8</ele>
        <time>2023-07-23T08:42:26Z</time>
      </trkpt>
      <trkpt lat="48.2882" lon="7.3979">
        <ele>196.9</ele>
        <time>2023-07-23T08:42:27Z</time>
      </trkpt>
      <trkpt lat="48.28821" lon="7.39782">
        <ele>197</ele>
        <time>2023-07-23T08:42:28Z</time>
      </trkpt>
      <trkpt lat="48.28821" lon="7.39773">
        <ele>197</ele>
        <time>2023-07-23T08:42:29Z</time>
      </trkpt>
      <trkpt lat="48.28822" lon="7.39764">
        <ele>197.1</ele>
        <time>2023-07-23T08:42:30Z</time>
      </trkpt>
      <trkpt lat="48.28823" lon="7.39755">
        <ele>197.2</ele>
        <time>2023-07-23T08:42:31Z</time>
      </trkpt>
      <trkpt lat="48.28824" lon="7.39746">
        <ele>197.3</ele>
        <time>2023-07-23T08:42:32Z</time>
      </trkpt>
      <trkpt lat="48.28825" lon="7.39738">
        <ele>197.4</ele>
        <time>2023-07-23T08:42:33Z</time>
      </trkpt>
      <trkpt lat="48.28825" lon="7.39729">
        <ele>197.4</ele>
        <time>2023-07-23T08:42:34Z</time>
      </trkpt>
      <trkpt lat="48.28826" lon="7.3972">
        <ele>197.5</ele>
        <time>2023-07-23T08:42:35Z</time>
      </trkpt>
      <trkpt lat="48.28827" lon="7.39712">
        <ele>197.6</ele>
        <time>2023-07-23T08:42:36Z</time>
      </trkpt>
      <trkpt lat="48.28827" lon="7.39703">
        <ele>197.7</ele>
        <time>2023-07-23T08:42:37Z</time>
      </trkpt>
      <trkpt lat="48.28828" lon="7.39695">
        <ele>197.7</ele>
        <time>2023-07-23T08:42:38Z</time>
      </trkpt>
      <trkpt lat="48.28829" lon="7.39686">
        <ele>197.8</ele>
        <time>2023-07-23T08:42:39Z</time>
      </trkpt>
      <trkpt lat="48.28829" lon="7.39678">
        <ele>197.8</ele>
        <time>2023-07-23T08:42:40Z</time>
      </trkpt>
      <trkpt lat="48.2883" lon="7.39669">
        <ele>197.8</ele>
        <time>2023-07-23T08:42:41Z</time>
      </trkpt>
      <trkpt lat="48.28831" lon="7.3966">
        <ele>197.8</ele>
        <time>2023-07-23T08:42:42Z</time>
      </trkpt>
      <trkpt lat="48.28831" lon="7.39651">
        <ele>197.8</ele>
        <time>2023-07-23T08:42:43Z</time>
      </trkpt>
      <trkpt lat="48.28832" lon="7.39642">
        <ele>197.8</ele>
        <time>2023-07-23T08:42:44Z</time>
      </trkpt>
      <trkpt lat="48.28833" lon="7.39633">
        <ele>197.9</ele>
        <time>2023-07-23T08:42:45Z</time>
      </trkpt>
      <trkpt lat="48.28834" lon="7.39624">
        <ele>197.9</ele>
        <time>2023-07-23T08:42:46Z</time>
      </trkpt>
      <trkpt lat="48.28835" lon="7.39615">
        <ele>197.9</ele>
        <time>2023-07-23T08:42:47Z</time>
      </trkpt>
      <trkpt lat="48.28835" lon="7.39605">
        <ele>197.9</ele>
        <time>2023-07-23T08:42:48Z</time>
      </trkpt>
      <trkpt lat="48.28836" lon="7.39597">
        <ele>198</ele>
        <time>2023-07-23T08:42:49Z</time>
      </trkpt>
      <trkpt lat="48.28837" lon="7.39588">
        <ele>198</ele>
        <time>2023-07-23T08:42:50Z</time>
      </trkpt>
      <trkpt lat="48.28837" lon="7.39579">
        <ele>198.1</ele>
        <time>2023-07-23T08:42:51Z</time>
      </trkpt>
      <trkpt lat="48.28837" lon="7.3957">
        <ele>198.2</ele>
        <time>2023-07-23T08:42:52Z</time>
      </trkpt>
      <trkpt lat="48.28837" lon="7.39561">
        <ele>198.3</ele>
        <time>2023-07-23T08:42:53Z</time>
      </trkpt>
      <trkpt lat="48.28836" lon="7.39552">
        <ele>198.3</ele>
        <time>2023-07-23T08:42:54Z</time>
      </trkpt>
      <trkpt lat="48.28835" lon="7.39543">
        <ele>198.4</ele>
        <time>2023-07-23T08:42:55Z</time>
      </trkpt>
      <trkpt lat="48.28834" lon="7.39534">
        <ele>198.5</ele>
        <time>2023-07-23T08:42:56Z</time>
      </trkpt>
      <trkpt lat="48.28833" lon="7.39525">
        <ele>198.5</ele>
        <time>2023-07-23T08:42:57Z</time>
      </trkpt>
      <trkpt lat="48.28831" lon="7.39516">
        <ele>198.6</ele>
        <time>2023-07-23T08:42:58Z</time>
      </trkpt>
      <trkpt lat="48.28829" lon="7.39507">
        <ele>198.6</ele>
        <time>2023-07-23T08:42:59Z</time>
      </trkpt>
      <trkpt lat="48.28827" lon="7.39498">
        <ele>198.7</ele>
        <time>2023-07-23T08:43:00Z</time>
      </trkpt>
      <trkpt lat="48.28826" lon="7.39489">
        <ele>198.7</ele>
        <time>2023-07-23T08:43:01Z</time>
      </trkpt>
      <trkpt lat="48.28824" lon="7.3948">
        <ele>198.8</ele>
        <time>2023-07-23T08:43:02Z</time>
      </trkpt>
      <trkpt lat="48.28822" lon="7.39471">
        <ele>198.9</ele>
        <time>2023-07-23T08:43:03Z</time>
      </trkpt>
      <trkpt lat="48.2882" lon="7.39462">
        <ele>198.9</ele>
        <time>2023-07-23T08:43:04Z</time>
      </trkpt>
      <trkpt lat="48.28818" lon="7.39453">
        <ele>199</ele>
        <time>2023-07-23T08:43:05Z</time>
      </trkpt>
      <trkpt lat="48.28817" lon="7.39444">
        <ele>199.1</ele>
        <time>2023-07-23T08:43:06Z</time>
      </trkpt>
      <trkpt lat="48.28815" lon="7.39435">
        <ele>199.1</ele>
        <time>2023-07-23T08:43:07Z</time>
      </trkpt>
      <trkpt lat="48.28813" lon="7.39426">
        <ele>199.2</ele>
        <time>2023-07-23T08:43:08Z</time>
      </trkpt>
      <trkpt lat="48.28812" lon="7.39418">
        <ele>199.3</ele>
        <time>2023-07-23T08:43:09Z</time>
      </trkpt>
      <trkpt lat="48.2881" lon="7.39408">
        <ele>199.4</ele>
        <time>2023-07-23T08:43:10Z</time>
      </trkpt>
      <trkpt lat="48.28809" lon="7.394">
        <ele>199.4</ele>
        <time>2023-07-23T08:43:11Z</time>
      </trkpt>
      <trkpt lat="48.28808" lon="7.39391">
        <ele>199.5</ele>
        <time>2023-07-23T08:43:12Z</time>
      </trkpt>
      <trkpt lat="48.28807" lon="7.39382">
        <ele>199.6</ele>
        <time>2023-07-23T08:43:13Z</time>
      </trkpt>
      <trkpt lat="48.28806" lon="7.39373">
        <ele>199.6</ele>
        <time>2023-07-23T08:43:14Z</time>
      </trkpt>
      <trkpt lat="48.28805" lon="7.39363">
        <ele>199.8</ele>
        <time>2023-07-23T08:43:15Z</time>
      </trkpt>
      <trkpt lat="48.28804" lon="7.39354">
        <ele>199.9</ele>
        <time>2023-07-23T08:43:16Z</time>
      </trkpt>
      <trkpt lat="48.28803" lon="7.39345">
        <ele>200.1</ele>
        <time>2023-07-23T08:43:17Z</time>
      </trkpt>
      <trkpt lat="48.28802" lon="7.39336">
        <ele>200.3</ele>
        <time>2023-07-23T08:43:18Z</time>
      </trkpt>
      <trkpt lat="48.28801" lon="7.39327">
        <ele>200.5</ele>
        <time>2023-07-23T08:43:19Z</time>
      </trkpt>
      <trkpt lat="48.28801" lon="7.39319">
        <ele>200.7</ele>
        <time>2023-07-23T08:43:20Z</time>
      </trkpt>
      <trkpt lat="48.288" lon="7.3931">
        <ele>200.9</ele>
        <time>2023-07-23T08:43:21Z</time>
      </trkpt>
      <trkpt lat="48.28801" lon="7.39301">
        <ele>201</ele>
        <time>2023-07-23T08:43:22Z</time>
      </trkpt>
      <trkpt lat="48.288" lon="7.39292">
        <ele>201.1</ele>
        <time>2023-07-23T08:43:23Z</time>
      </trkpt>
      <trkpt lat="48.28801" lon="7.39284">
        <ele>201.2</ele>
        <time>2023-07-23T08:43:24Z</time>
      </trkpt>
      <trkpt lat="48.28802" lon="7.39275">
        <ele>201.4</ele>
        <time>2023-07-23T08:43:25Z</time>
      </trkpt>
      <trkpt lat="48.28803" lon="7.39266">
        <ele>201.4</ele>
        <time>2023-07-23T08:43:26Z</time>
      </trkpt>
      <trkpt lat="48.28805" lon="7.39257">
        <ele>201.5</ele>
        <time>2023-07-23T08:43:27Z</time>
      </trkpt>
      <trkpt lat="48.28807" lon="7.39249">
        <ele>201.6</ele>
        <time>2023-07-23T08:43:28Z</time>
      </trkpt>
      <trkpt lat="48.28809" lon="7.39241">
        <ele>201.6</ele>
        <time>2023-07-23T08:43:29Z</time>
      </trkpt>
      <trkpt lat="48.28813" lon="7.39233">
        <ele>201.7</ele>
        <time>2023-07-23T08:43:30Z</time>
      </trkpt>
      <trkpt lat="48.28816" lon="7.39225">
        <ele>201.7</ele>
        <time>2023-07-23T08:43:31Z</time>
      </trkpt>
      <trkpt lat="48.28819" lon="7.39218">
        <ele>201.7</ele>
        <time>2023-07-23T08:43:32Z</time>
      </trkpt>
      <trkpt lat="48.28823" lon="7.3921">
        <ele>201.7</ele>
        <time>2023-07-23T08:43:33Z</time>
      </trkpt>
      <trkpt lat="48.28827" lon="7.39203">
        <ele>201.7</ele>
        <time>2023-07-23T08:43:34Z</time>
      </trkpt>
      <trkpt lat="48.28837" lon="7.39188">
        <ele>201.5</ele>
        <time>2023-07-23T08:43:35Z</time>
      </trkpt>
      <trkpt lat="48.28842" lon="7.39181">
        <ele>201.4</ele>
        <time>2023-07-23T08:43:36Z</time>
      </trkpt>
      <trkpt lat="48.28846" lon="7.39173">
        <ele>201.3</ele>
        <time>2023-07-23T08:43:37Z</time>
      </trkpt>
      <trkpt lat="48.28851" lon="7.39164">
        <ele>201.1</ele>
        <time>2023-07-23T08:43:38Z</time>
      </trkpt>
      <trkpt lat="48.28856" lon="7.39156">
        <ele>201</ele>
        <time>2023-07-23T08:43:39Z</time>
      </trkpt>
      <trkpt lat="48.28859" lon="7.39148">
        <ele>201</ele>
        <time>2023-07-23T08:43:40Z</time>
      </trkpt>
      <trkpt lat="48.28863" lon="7.39139">
        <ele>200.9</ele>
        <time>2023-07-23T08:43:41Z</time>
      </trkpt>
      <trkpt lat="48.28867" lon="7.3913">
        <ele>200.9</ele>
        <time>2023-07-23T08:43:42Z</time>
      </trkpt>
      <trkpt lat="48.28871" lon="7.39122">
        <ele>200.9</ele>
        <time>2023-07-23T08:43:43Z</time>
      </trkpt>
      <trkpt lat="48.28874" lon="7.39113">
        <ele>200.9</ele>
        <time>2023-07-23T08:43:44Z</time>
      </trkpt>
      <trkpt lat="48.28878" lon="7.39106">
        <ele>200.9</ele>
        <time>2023-07-23T08:43:45Z</time>
      </trkpt>
      <trkpt lat="48.28881" lon="7.39098">
        <ele>200.9</ele>
        <time>2023-07-23T08:43:46Z</time>
      </trkpt>
      <trkpt lat="48.28886" lon="7.39092">
        <ele>200.9</ele>
        <time>2023-07-23T08:43:47Z</time>
      </trkpt>
      <trkpt lat="48.2889" lon="7.39085">
        <ele>200.9</ele>
        <time>2023-07-23T08:43:48Z</time>
      </trkpt>
      <trkpt lat="48.28895" lon="7.39079">
        <ele>200.9</ele>
        <time>2023-07-23T08:43:49Z</time>
      </trkpt>
      <trkpt lat="48.28899" lon="7.39073">
        <ele>200.9</ele>
        <time>2023-07-23T08:43:50Z</time>
      </trkpt>
      <trkpt lat="48.28905" lon="7.39067">
        <ele>200.9</ele>
        <time>2023-07-23T08:43:51Z</time>
      </trkpt>
      <trkpt lat="48.2891" lon="7.39062">
        <ele>201</ele>
        <time>2023-07-23T08:43:52Z</time>
      </trkpt>
      <trkpt lat="48.28915" lon="7.39056">
        <ele>201</ele>
        <time>2023-07-23T08:43:53Z</time>
      </trkpt>
      <trkpt lat="48.2892" lon="7.39049">
        <ele>201.1</ele>
        <time>2023-07-23T08:43:54Z</time>
      </trkpt>
      <trkpt lat="48.28925" lon="7.39044">
        <ele>201.2</ele>
        <time>2023-07-23T08:43:55Z</time>
      </trkpt>
      <trkpt lat="48.2893" lon="7.39038">
        <ele>201.3</ele>
        <time>2023-07-23T08:43:56Z</time>
      </trkpt>
      <trkpt lat="48.28935" lon="7.39031">
        <ele>201.4</ele>
        <time>2023-07-23T08:43:57Z</time>
      </trkpt>
      <trkpt lat="48.2894" lon="7.39025">
        <ele>201.5</ele>
        <time>2023-07-23T08:43:58Z</time>
      </trkpt>
      <trkpt lat="48.28944" lon="7.39018">
        <ele>201.6</ele>
        <time>2023-07-23T08:43:59Z</time>
      </trkpt>
      <trkpt lat="48.28948" lon="7.3901">
        <ele>201.7</ele>
        <time>2023-07-23T08:44:00Z</time>
      </trkpt>
      <trkpt lat="48.28952" lon="7.39002">
        <ele>201.8</ele>
        <time>2023-07-23T08:44:01Z</time>
      </trkpt>
      <trkpt lat="48.28955" lon="7.38994">
        <ele>202</ele>
        <time>2023-07-23T08:44:03Z</time>
      </trkpt>
      <trkpt lat="48.28959" lon="7.38987">
        <ele>202.1</ele>
        <time>2023-07-23T08:44:04Z</time>
      </trkpt>
      <trkpt lat="48.28963" lon="7.38979">
        <ele>202.2</ele>
        <time>2023-07-23T08:44:05Z</time>
      </trkpt>
      <trkpt lat="48.28967" lon="7.38972">
        <ele>202.3</ele>
        <time>2023-07-23T08:44:06Z</time>
      </trkpt>
      <trkpt lat="48.28971" lon="7.38963">
        <ele>202.4</ele>
        <time>2023-07-23T08:44:07Z</time>
      </trkpt>
      <trkpt lat="48.28975" lon="7.38955">
        <ele>202.5</ele>
        <time>2023-07-23T08:44:08Z</time>
      </trkpt>
      <trkpt lat="48.28979" lon="7.38947">
        <ele>202.6</ele>
        <time>2023-07-23T08:44:09Z</time>
      </trkpt>
      <trkpt lat="48.28982" lon="7.38939">
        <ele>202.7</ele>
        <time>2023-07-23T08:44:10Z</time>
      </trkpt>
      <trkpt lat="48.28986" lon="7.38931">
        <ele>202.8</ele>
        <time>2023-07-23T08:44:11Z</time>
      </trkpt>
      <trkpt lat="48.2899" lon="7.38923">
        <ele>202.9</ele>
        <time>2023-07-23T08:44:12Z</time>
      </trkpt>
      <trkpt lat="48.28993" lon="7.38915">
        <ele>203.1</ele>
        <time>2023-07-23T08:44:13Z</time>
      </trkpt>
      <trkpt lat="48.28997" lon="7.38907">
        <ele>203.3</ele>
        <time>2023-07-23T08:44:14Z</time>
      </trkpt>
      <trkpt lat="48.29" lon="7.38899">
        <ele>203.5</ele>
        <time>2023-07-23T08:44:15Z</time>
      </trkpt>
      <trkpt lat="48.29003" lon="7.3889">
        <ele>203.7</ele>
        <time>2023-07-23T08:44:16Z</time>
      </trkpt>
      <trkpt lat="48.29006" lon="7.38882">
        <ele>203.9</ele>
        <time>2023-07-23T08:44:17Z</time>
      </trkpt>
      <trkpt lat="48.29009" lon="7.38874">
        <ele>204.1</ele>
        <time>2023-07-23T08:44:18Z</time>
      </trkpt>
      <trkpt lat="48.29011" lon="7.38866">
        <ele>204.4</ele>
        <time>2023-07-23T08:44:19Z</time>
      </trkpt>
      <trkpt lat="48.29013" lon="7.38859">
        <ele>204.7</ele>
        <time>2023-07-23T08:44:20Z</time>
      </trkpt>
      <trkpt lat="48.29015" lon="7.38851">
        <ele>205.1</ele>
        <time>2023-07-23T08:44:21Z</time>
      </trkpt>
      <trkpt lat="48.29016" lon="7.38844">
        <ele>205.5</ele>
        <time>2023-07-23T08:44:22Z</time>
      </trkpt>
      <trkpt lat="48.29018" lon="7.38838">
        <ele>205.8</ele>
        <time>2023-07-23T08:44:23Z</time>
      </trkpt>
      <trkpt lat="48.29019" lon="7.38832">
        <ele>206.1</ele>
        <time>2023-07-23T08:44:24Z</time>
      </trkpt>
      <trkpt lat="48.29021" lon="7.38828">
        <ele>206.4</ele>
        <time>2023-07-23T08:44:25Z</time>
      </trkpt>
      <trkpt lat="48.29023" lon="7.38825">
        <ele>206.7</ele>
        <time>2023-07-23T08:44:26Z</time>
      </trkpt>
      <trkpt lat="48.29025" lon="7.3882">
        <ele>207</ele>
        <time>2023-07-23T08:44:27Z</time>
      </trkpt>
      <trkpt lat="48.29028" lon="7.38816">
        <ele>207.3</ele>
        <time>2023-07-23T08:44:28Z</time>
      </trkpt>
      <trkpt lat="48.29029" lon="7.38812">
        <ele>207.6</ele>
        <time>2023-07-23T08:44:29Z</time>
      </trkpt>
      <trkpt lat="48.29031" lon="7.38807">
        <ele>207.9</ele>
        <time>2023-07-23T08:44:30Z</time>
      </trkpt>
      <trkpt lat="48.29033" lon="7.38803">
        <ele>208.2</ele>
        <time>2023-07-23T08:44:31Z</time>
      </trkpt>
      <trkpt lat="48.29035" lon="7.38799">
        <ele>208.5</ele>
        <time>2023-07-23T08:44:32Z</time>
      </trkpt>
      <trkpt lat="48.29038" lon="7.38795">
        <ele>208.9</ele>
        <time>2023-07-23T08:44:33Z</time>
      </trkpt>
      <trkpt lat="48.29039" lon="7.38792">
        <ele>209.1</ele>
        <time>2023-07-23T08:44:34Z</time>
      </trkpt>
      <trkpt lat="48.29042" lon="7.38788">
        <ele>209.4</ele>
        <time>2023-07-23T08:44:35Z</time>
      </trkpt>
      <trkpt lat="48.29043" lon="7.38783">
        <ele>209.5</ele>
        <time>2023-07-23T08:44:36Z</time>
      </trkpt>
      <trkpt lat="48.29044" lon="7.38778">
        <ele>209.6</ele>
        <time>2023-07-23T08:44:37Z</time>
      </trkpt>
      <trkpt lat="48.29044" lon="7.38772">
        <ele>209.7</ele>
        <time>2023-07-23T08:44:38Z</time>
      </trkpt>
      <trkpt lat="48.29045" lon="7.38767">
        <ele>209.8</ele>
        <time>2023-07-23T08:44:39Z</time>
      </trkpt>
      <trkpt lat="48.29046" lon="7.3876">
        <ele>210</ele>
        <time>2023-07-23T08:44:40Z</time>
      </trkpt>
      <trkpt lat="48.29048" lon="7.38754">
        <ele>210.2</ele>
        <time>2023-07-23T08:44:41Z</time>
      </trkpt>
      <trkpt lat="48.29049" lon="7.38748">
        <ele>210.3</ele>
        <time>2023-07-23T08:44:42Z</time>
      </trkpt>
      <trkpt lat="48.29049" lon="7.38741">
        <ele>210.5</ele>
        <time>2023-07-23T08:44:43Z</time>
      </trkpt>
      <trkpt lat="48.2905" lon="7.38733">
        <ele>210.7</ele>
        <time>2023-07-23T08:44:44Z</time>
      </trkpt>
      <trkpt lat="48.2905" lon="7.38725">
        <ele>211</ele>
        <time>2023-07-23T08:44:45Z</time>
      </trkpt>
      <trkpt lat="48.29051" lon="7.38717">
        <ele>211.2</ele>
        <time>2023-07-23T08:44:46Z</time>
      </trkpt>
      <trkpt lat="48.29052" lon="7.3871">
        <ele>211.4</ele>
        <time>2023-07-23T08:44:47Z</time>
      </trkpt>
      <trkpt lat="48.29053" lon="7.38702">
        <ele>211.7</ele>
        <time>2023-07-23T08:44:48Z</time>
      </trkpt>
      <trkpt lat="48.29053" lon="7.38694">
        <ele>212</ele>
        <time>2023-07-23T08:44:49Z</time>
      </trkpt>
      <trkpt lat="48.29055" lon="7.38686">
        <ele>212.2</ele>
        <time>2023-07-23T08:44:50Z</time>
      </trkpt>
      <trkpt lat="48.29055" lon="7.38678">
        <ele>212.5</ele>
        <time>2023-07-23T08:44:51Z</time>
      </trkpt>
      <trkpt lat="48.29057" lon="7.38671">
        <ele>212.7</ele>
        <time>2023-07-23T08:44:52Z</time>
      </trkpt>
      <trkpt lat="48.29057" lon="7.38664">
        <ele>213</ele>
        <time>2023-07-23T08:44:53Z</time>
      </trkpt>
      <trkpt lat="48.29057" lon="7.38657">
        <ele>213.3</ele>
        <time>2023-07-23T08:44:54Z</time>
      </trkpt>
      <trkpt lat="48.29058" lon="7.38649">
        <ele>213.5</ele>
        <time>2023-07-23T08:44:55Z</time>
      </trkpt>
      <trkpt lat="48.29058" lon="7.38642">
        <ele>213.8</ele>
        <time>2023-07-23T08:44:56Z</time>
      </trkpt>
      <trkpt lat="48.29058" lon="7.38635">
        <ele>214.1</ele>
        <time>2023-07-23T08:44:57Z</time>
      </trkpt>
      <trkpt lat="48.29058" lon="7.38628">
        <ele>214.4</ele>
        <time>2023-07-23T08:44:58Z</time>
      </trkpt>
      <trkpt lat="48.29057" lon="7.38623">
        <ele>214.6</ele>
        <time>2023-07-23T08:44:59Z</time>
      </trkpt>
      <trkpt lat="48.29055" lon="7.38618">
        <ele>214.8</ele>
        <time>2023-07-23T08:45:00Z</time>
      </trkpt>
      <trkpt lat="48.29055" lon="7.38613">
        <ele>215</ele>
        <time>2023-07-23T08:45:01Z</time>
      </trkpt>
      <trkpt lat="48.29056" lon="7.38608">
        <ele>215.2</ele>
        <time>2023-07-23T08:45:02Z</time>
      </trkpt>
      <trkpt lat="48.29058" lon="7.38602">
        <ele>215.5</ele>
        <time>2023-07-23T08:45:03Z</time>
      </trkpt>
      <trkpt lat="48.2906" lon="7.38597">
        <ele>215.7</ele>
        <time>2023-07-23T08:45:04Z</time>
      </trkpt>
      <trkpt lat="48.29059" lon="7.38589">
        <ele>215.9</ele>
        <time>2023-07-23T08:45:05Z</time>
      </trkpt>
      <trkpt lat="48.29058" lon="7.38583">
        <ele>216.1</ele>
        <time>2023-07-23T08:45:06Z</time>
      </trkpt>
      <trkpt lat="48.29056" lon="7.38575">
        <ele>216.4</ele>
        <time>2023-07-23T08:45:07Z</time>
      </trkpt>
      <trkpt lat="48.29056" lon="7.38569">
        <ele>216.5</ele>
        <time>2023-07-23T08:45:08Z</time>
      </trkpt>
      <trkpt lat="48.29056" lon="7.38562">
        <ele>216.7</ele>
        <time>2023-07-23T08:45:09Z</time>
      </trkpt>
      <trkpt lat="48.29056" lon="7.38555">
        <ele>216.8</ele>
        <time>2023-07-23T08:45:10Z</time>
      </trkpt>
      <trkpt lat="48.29056" lon="7.38547">
        <ele>217</ele>
        <time>2023-07-23T08:45:11Z</time>
      </trkpt>
      <trkpt lat="48.29056" lon="7.38541">
        <ele>217.1</ele>
        <time>2023-07-23T08:45:12Z</time>
      </trkpt>
      <trkpt lat="48.29056" lon="7.38533">
        <ele>217.2</ele>
        <time>2023-07-23T08:45:13Z</time>
      </trkpt>
      <trkpt lat="48.29056" lon="7.38527">
        <ele>217.3</ele>
        <time>2023-07-23T08:45:14Z</time>
      </trkpt>
      <trkpt lat="48.29056" lon="7.38519">
        <ele>217.4</ele>
        <time>2023-07-23T08:45:15Z</time>
      </trkpt>
      <trkpt lat="48.29056" lon="7.38512">
        <ele>217.5</ele>
        <time>2023-07-23T08:45:16Z</time>
      </trkpt>
      <trkpt lat="48.29057" lon="7.38505">
        <ele>217.7</ele>
        <time>2023-07-23T08:45:17Z</time>
      </trkpt>
      <trkpt lat="48.29058" lon="7.38498">
        <ele>217.8</ele>
        <time>2023-07-23T08:45:18Z</time>
      </trkpt>
      <trkpt lat="48.29058" lon="7.3849">
        <ele>217.9</ele>
        <time>2023-07-23T08:45:19Z</time>
      </trkpt>
      <trkpt lat="48.29059" lon="7.38483">
        <ele>218.1</ele>
        <time>2023-07-23T08:45:20Z</time>
      </trkpt>
      <trkpt lat="48.29059" lon="7.38476">
        <ele>218.2</ele>
        <time>2023-07-23T08:45:21Z</time>
      </trkpt>
      <trkpt lat="48.29059" lon="7.38469">
        <ele>218.3</ele>
        <time>2023-07-23T08:45:22Z</time>
      </trkpt>
      <trkpt lat="48.2906" lon="7.38462">
        <ele>218.4</ele>
        <time>2023-07-23T08:45:23Z</time>
      </trkpt>
      <trkpt lat="48.2906" lon="7.38455">
        <ele>218.6</ele>
        <time>2023-07-23T08:45:24Z</time>
      </trkpt>
      <trkpt lat="48.29061" lon="7.38442">
        <ele>218.9</ele>
        <time>2023-07-23T08:45:25Z</time>
      </trkpt>
      <trkpt lat="48.29062" lon="7.38435">
        <ele>219.1</ele>
        <time>2023-07-23T08:45:26Z</time>
      </trkpt>
      <trkpt lat="48.29062" lon="7.38428">
        <ele>219.3</ele>
        <time>2023-07-23T08:45:27Z</time>
      </trkpt>
      <trkpt lat="48.29063" lon="7.38422">
        <ele>219.5</ele>
        <time>2023-07-23T08:45:28Z</time>
      </trkpt>
      <trkpt lat="48.29063" lon="7.38415">
        <ele>219.7</ele>
        <time>2023-07-23T08:45:29Z</time>
      </trkpt>
      <trkpt lat="48.29064" lon="7.38409">
        <ele>220</ele>
        <time>2023-07-23T08:45:30Z</time>
      </trkpt>
      <trkpt lat="48.29065" lon="7.38403">
        <ele>220.2</ele>
        <time>2023-07-23T08:45:31Z</time>
      </trkpt>
      <trkpt lat="48.29066" lon="7.38397">
        <ele>220.4</ele>
        <time>2023-07-23T08:45:32Z</time>
      </trkpt>
      <trkpt lat="48.29067" lon="7.38392">
        <ele>220.7</ele>
        <time>2023-07-23T08:45:33Z</time>
      </trkpt>
      <trkpt lat="48.29067" lon="7.38387">
        <ele>220.9</ele>
        <time>2023-07-23T08:45:34Z</time>
      </trkpt>
      <trkpt lat="48.29068" lon="7.38382">
        <ele>221.1</ele>
        <time>2023-07-23T08:45:35Z</time>
      </trkpt>
      <trkpt lat="48.29069" lon="7.38377">
        <ele>221.4</ele>
        <time>2023-07-23T08:45:36Z</time>
      </trkpt>
      <trkpt lat="48.2907" lon="7.38371">
        <ele>221.7</ele>
        <time>2023-07-23T08:45:37Z</time>
      </trkpt>
      <trkpt lat="48.29071" lon="7.38366">
        <ele>222</ele>
        <time>2023-07-23T08:45:38Z</time>
      </trkpt>
      <trkpt lat="48.29072" lon="7.38361">
        <ele>222.2</ele>
        <time>2023-07-23T08:45:39Z</time>
      </trkpt>
      <trkpt lat="48.29073" lon="7.38356">
        <ele>222.5</ele>
        <time>2023-07-23T08:45:40Z</time>
      </trkpt>
      <trkpt lat="48.29074" lon="7.38351">
        <ele>222.8</ele>
        <time>2023-07-23T08:45:41Z</time>
      </trkpt>
      <trkpt lat="48.29075" lon="7.38345">
        <ele>223</ele>
        <time>2023-07-23T08:45:42Z</time>
      </trkpt>
      <trkpt lat="48.29076" lon="7.3834">
        <ele>223.3</ele>
        <time>2023-07-23T08:45:43Z</time>
      </trkpt>
      <trkpt lat="48.29076" lon="7.38335">
        <ele>223.5</ele>
        <time>2023-07-23T08:45:44Z</time>
      </trkpt>
      <trkpt lat="48.29078" lon="7.3833">
        <ele>223.8</ele>
        <time>2023-07-23T08:45:45Z</time>
      </trkpt>
      <trkpt lat="48.29079" lon="7.38325">
        <ele>224</ele>
        <time>2023-07-23T08:45:46Z</time>
      </trkpt>
      <trkpt lat="48.2908" lon="7.38319">
        <ele>224.3</ele>
        <time>2023-07-23T08:45:47Z</time>
      </trkpt>
      <trkpt lat="48.29081" lon="7.38315">
        <ele>224.5</ele>
        <time>2023-07-23T08:45:48Z</time>
      </trkpt>
      <trkpt lat="48.29083" lon="7.3831">
        <ele>224.8</ele>
        <time>2023-07-23T08:45:49Z</time>
      </trkpt>
      <trkpt lat="48.29083" lon="7.38306">
        <ele>225</ele>
        <time>2023-07-23T08:45:50Z</time>
      </trkpt>
      <trkpt lat="48.29085" lon="7.38301">
        <ele>225.2</ele>
        <time>2023-07-23T08:45:51Z</time>
      </trkpt>
      <trkpt lat="48.29086" lon="7.38296">
        <ele>225.5</ele>
        <time>2023-07-23T08:45:52Z</time>
      </trkpt>
      <trkpt lat="48.29087" lon="7.38291">
        <ele>225.7</ele>
        <time>2023-07-23T08:45:53Z</time>
      </trkpt>
      <trkpt lat="48.29087" lon="7.38286">
        <ele>225.9</ele>
        <time>2023-07-23T08:45:54Z</time>
      </trkpt>
      <trkpt lat="48.29088" lon="7.38281">
        <ele>226.1</ele>
        <time>2023-07-23T08:45:55Z</time>
      </trkpt>
      <trkpt lat="48.2909" lon="7.38276">
        <ele>226.4</ele>
        <time>2023-07-23T08:45:56Z</time>
      </trkpt>
      <trkpt lat="48.29091" lon="7.38271">
        <ele>226.6</ele>
        <time>2023-07-23T08:45:57Z</time>
      </trkpt>
      <trkpt lat="48.29091" lon="7.38267">
        <ele>226.8</ele>
        <time>2023-07-23T08:45:58Z</time>
      </trkpt>
      <trkpt lat="48.29092" lon="7.38262">
        <ele>227</ele>
        <time>2023-07-23T08:45:59Z</time>
      </trkpt>
      <trkpt lat="48.29093" lon="7.38257">
        <ele>227.3</ele>
        <time>2023-07-23T08:46:00Z</time>
      </trkpt>
      <trkpt lat="48.29093" lon="7.38253">
        <ele>227.5</ele>
        <time>2023-07-23T08:46:01Z</time>
      </trkpt>
      <trkpt lat="48.29094" lon="7.38248">
        <ele>227.7</ele>
        <time>2023-07-23T08:46:02Z</time>
      </trkpt>
      <trkpt lat="48.29095" lon="7.38243">
        <ele>228</ele>
        <time>2023-07-23T08:46:03Z</time>
      </trkpt>
      <trkpt lat="48.29096" lon="7.38239">
        <ele>228.2</ele>
        <time>2023-07-23T08:46:04Z</time>
      </trkpt>
      <trkpt lat="48.29096" lon="7.38234">
        <ele>228.4</ele>
        <time>2023-07-23T08:46:05Z</time>
      </trkpt>
      <trkpt lat="48.29097" lon="7.3823">
        <ele>228.7</ele>
        <time>2023-07-23T08:46:06Z</time>
      </trkpt>
      <trkpt lat="48.29098" lon="7.38224">
        <ele>228.9</ele>
        <time>2023-07-23T08:46:07Z</time>
      </trkpt>
      <trkpt lat="48.29099" lon="7.3822">
        <ele>229.2</ele>
        <time>2023-07-23T08:46:09Z</time>
      </trkpt>
      <trkpt lat="48.291" lon="7.38215">
        <ele>229.4</ele>
        <time>2023-07-23T08:46:10Z</time>
      </trkpt>
      <trkpt lat="48.291" lon="7.3821">
        <ele>229.6</ele>
        <time>2023-07-23T08:46:11Z</time>
      </trkpt>
      <trkpt lat="48.29101" lon="7.38205">
        <ele>229.8</ele>
        <time>2023-07-23T08:46:12Z</time>
      </trkpt>
      <trkpt lat="48.29102" lon="7.382">
        <ele>230.1</ele>
        <time>2023-07-23T08:46:13Z</time>
      </trkpt>
      <trkpt lat="48.29103" lon="7.38195">
        <ele>230.3</ele>
        <time>2023-07-23T08:46:14Z</time>
      </trkpt>
      <trkpt lat="48.29104" lon="7.3819">
        <ele>230.5</ele>
        <time>2023-07-23T08:46:15Z</time>
      </trkpt>
      <trkpt lat="48.29105" lon="7.38185">
        <ele>230.7</ele>
        <time>2023-07-23T08:46:16Z</time>
      </trkpt>
      <trkpt lat="48.29106" lon="7.38179">
        <ele>230.9</ele>
        <time>2023-07-23T08:46:17Z</time>
      </trkpt>
      <trkpt lat="48.29107" lon="7.38174">
        <ele>231.1</ele>
        <time>2023-07-23T08:46:18Z</time>
      </trkpt>
      <trkpt lat="48.29108" lon="7.38168">
        <ele>231.3</ele>
        <time>2023-07-23T08:46:19Z</time>
      </trkpt>
      <trkpt lat="48.29108" lon="7.38163">
        <ele>231.3</ele>
        <time>2023-07-23T08:46:20Z</time>
      </trkpt>
      <trkpt lat="48.29109" lon="7.38158">
        <ele>231.4</ele>
        <time>2023-07-23T08:46:21Z</time>
      </trkpt>
      <trkpt lat="48.2911" lon="7.38153">
        <ele>231.4</ele>
        <time>2023-07-23T08:46:22Z</time>
      </trkpt>
      <trkpt lat="48.29111" lon="7.38147">
        <ele>231.4</ele>
        <time>2023-07-23T08:46:23Z</time>
      </trkpt>
      <trkpt lat="48.29112" lon="7.38141">
        <ele>231.4</ele>
        <time>2023-07-23T08:46:24Z</time>
      </trkpt>
      <trkpt lat="48.29113" lon="7.38134">
        <ele>231.4</ele>
        <time>2023-07-23T08:46:25Z</time>
      </trkpt>
      <trkpt lat="48.29114" lon="7.38127">
        <ele>231.3</ele>
        <time>2023-07-23T08:46:26Z</time>
      </trkpt>
      <trkpt lat="48.29114" lon="7.3812">
        <ele>231.2</ele>
        <time>2023-07-23T08:46:27Z</time>
      </trkpt>
      <trkpt lat="48.29115" lon="7.38112">
        <ele>230.9</ele>
        <time>2023-07-23T08:46:28Z</time>
      </trkpt>
      <trkpt lat="48.29116" lon="7.38103">
        <ele>230.7</ele>
        <time>2023-07-23T08:46:29Z</time>
      </trkpt>
      <trkpt lat="48.29117" lon="7.38094">
        <ele>230.4</ele>
        <time>2023-07-23T08:46:30Z</time>
      </trkpt>
      <trkpt lat="48.29118" lon="7.38085">
        <ele>230</ele>
        <time>2023-07-23T08:46:31Z</time>
      </trkpt>
      <trkpt lat="48.29119" lon="7.38075">
        <ele>229.6</ele>
        <time>2023-07-23T08:46:32Z</time>
      </trkpt>
      <trkpt lat="48.29121" lon="7.38064">
        <ele>229.2</ele>
        <time>2023-07-23T08:46:33Z</time>
      </trkpt>
      <trkpt lat="48.29122" lon="7.38053">
        <ele>228.7</ele>
        <time>2023-07-23T08:46:34Z</time>
      </trkpt>
      <trkpt lat="48.29123" lon="7.38041">
        <ele>228.1</ele>
        <time>2023-07-23T08:46:35Z</time>
      </trkpt>
      <trkpt lat="48.29124" lon="7.38029">
        <ele>227.4</ele>
        <time>2023-07-23T08:46:36Z</time>
      </trkpt>
      <trkpt lat="48.29124" lon="7.38016">
        <ele>226.6</ele>
        <time>2023-07-23T08:46:37Z</time>
      </trkpt>
      <trkpt lat="48.29124" lon="7.38003">
        <ele>225.9</ele>
        <time>2023-07-23T08:46:38Z</time>
      </trkpt>
      <trkpt lat="48.29124" lon="7.37989">
        <ele>225.2</ele>
        <time>2023-07-23T08:46:39Z</time>
      </trkpt>
      <trkpt lat="48.29125" lon="7.37977">
        <ele>224.6</ele>
        <time>2023-07-23T08:46:40Z</time>
      </trkpt>
      <trkpt lat="48.29128" lon="7.37965">
        <ele>224</ele>
        <time>2023-07-23T08:46:41Z</time>
      </trkpt>
      <trkpt lat="48.29133" lon="7.37955">
        <ele>223.4</ele>
        <time>2023-07-23T08:46:42Z</time>
      </trkpt>
      <trkpt lat="48.2914" lon="7.37948">
        <ele>222.9</ele>
        <time>2023-07-23T08:46:43Z</time>
      </trkpt>
      <trkpt lat="48.29148" lon="7.37945">
        <ele>222.4</ele>
        <time>2023-07-23T08:46:44Z</time>
      </trkpt>
      <trkpt lat="48.29156" lon="7.37945">
        <ele>222</ele>
        <time>2023-07-23T08:46:45Z</time>
      </trkpt>
      <trkpt lat="48.29164" lon="7.37947">
        <ele>221.6</ele>
        <time>2023-07-23T08:46:46Z</time>
      </trkpt>
      <trkpt lat="48.29172" lon="7.37952">
        <ele>221.2</ele>
        <time>2023-07-23T08:46:47Z</time>
      </trkpt>
      <trkpt lat="48.2918" lon="7.37957">
        <ele>220.9</ele>
        <time>2023-07-23T08:46:48Z</time>
      </trkpt>
      <trkpt lat="48.29188" lon="7.37962">
        <ele>220.7</ele>
        <time>2023-07-23T08:46:49Z</time>
      </trkpt>
      <trkpt lat="48.29196" lon="7.37968">
        <ele>220.5</ele>
        <time>2023-07-23T08:46:50Z</time>
      </trkpt>
      <trkpt lat="48.29204" lon="7.37972">
        <ele>220.3</ele>
        <time>2023-07-23T08:46:51Z</time>
      </trkpt>
      <trkpt lat="48.29211" lon="7.37976">
        <ele>220.2</ele>
        <time>2023-07-23T08:46:52Z</time>
      </trkpt>
      <trkpt lat="48.29217" lon="7.37977">
        <ele>220.2</ele>
        <time>2023-07-23T08:46:53Z</time>
      </trkpt>
      <trkpt lat="48.29222" lon="7.37974">
        <ele>220.1</ele>
        <time>2023-07-23T08:46:54Z</time>
      </trkpt>
      <trkpt lat="48.29227" lon="7.37967">
        <ele>220.1</ele>
        <time>2023-07-23T08:46:55Z</time>
      </trkpt>
      <trkpt lat="48.2923" lon="7.37958">
        <ele>219.8</ele>
        <time>2023-07-23T08:46:56Z</time>
      </trkpt>
      <trkpt lat="48.2923" lon="7.3795">
        <ele>219.5</ele>
        <time>2023-07-23T08:46:57Z</time>
      </trkpt>
      <trkpt lat="48.29228" lon="7.37941">
        <ele>219.3</ele>
        <time>2023-07-23T08:46:58Z</time>
      </trkpt>
      <trkpt lat="48.29226" lon="7.37933">
        <ele>219</ele>
        <time>2023-07-23T08:46:59Z</time>
      </trkpt>
      <trkpt lat="48.29222" lon="7.37925">
        <ele>218.8</ele>
        <time>2023-07-23T08:47:00Z</time>
      </trkpt>
      <trkpt lat="48.29219" lon="7.37916">
        <ele>218.5</ele>
        <time>2023-07-23T08:47:01Z</time>
      </trkpt>
      <trkpt lat="48.29214" lon="7.37907">
        <ele>218.2</ele>
        <time>2023-07-23T08:47:02Z</time>
      </trkpt>
      <trkpt lat="48.29209" lon="7.37896">
        <ele>217.8</ele>
        <time>2023-07-23T08:47:03Z</time>
      </trkpt>
      <trkpt lat="48.29206" lon="7.37885">
        <ele>217.4</ele>
        <time>2023-07-23T08:47:04Z</time>
      </trkpt>
      <trkpt lat="48.29204" lon="7.37872">
        <ele>216.9</ele>
        <time>2023-07-23T08:47:05Z</time>
      </trkpt>
      <trkpt lat="48.29204" lon="7.37858">
        <ele>216.5</ele>
        <time>2023-07-23T08:47:06Z</time>
      </trkpt>
      <trkpt lat="48.29206" lon="7.37844">
        <ele>216.1</ele>
        <time>2023-07-23T08:47:07Z</time>
      </trkpt>
      <trkpt lat="48.29209" lon="7.3783">
        <ele>215.7</ele>
        <time>2023-07-23T08:47:08Z</time>
      </trkpt>
      <trkpt lat="48.29214" lon="7.37816">
        <ele>215.3</ele>
        <time>2023-07-23T08:47:09Z</time>
      </trkpt>
      <trkpt lat="48.29221" lon="7.37805">
        <ele>215</ele>
        <time>2023-07-23T08:47:10Z</time>
      </trkpt>
      <trkpt lat="48.29229" lon="7.37794">
        <ele>214.8</ele>
        <time>2023-07-23T08:47:11Z</time>
      </trkpt>
      <trkpt lat="48.29237" lon="7.37785">
        <ele>214.7</ele>
        <time>2023-07-23T08:47:12Z</time>
      </trkpt>
      <trkpt lat="48.29246" lon="7.37775">
        <ele>214.6</ele>
        <time>2023-07-23T08:47:13Z</time>
      </trkpt>
      <trkpt lat="48.29253" lon="7.37764">
        <ele>214.5</ele>
        <time>2023-07-23T08:47:14Z</time>
      </trkpt>
      <trkpt lat="48.29257" lon="7.3775">
        <ele>214.5</ele>
        <time>2023-07-23T08:47:15Z</time>
      </trkpt>
      <trkpt lat="48.29258" lon="7.37736">
        <ele>214.4</ele>
        <time>2023-07-23T08:47:16Z</time>
      </trkpt>
      <trkpt lat="48.2926" lon="7.37722">
        <ele>214.4</ele>
        <time>2023-07-23T08:47:17Z</time>
      </trkpt>
      <trkpt lat="48.29261" lon="7.37708">
        <ele>214.4</ele>
        <time>2023-07-23T08:47:18Z</time>
      </trkpt>
      <trkpt lat="48.29262" lon="7.37696">
        <ele>214.4</ele>
        <time>2023-07-23T08:47:19Z</time>
      </trkpt>
      <trkpt lat="48.29263" lon="7.37683">
        <ele>214.5</ele>
        <time>2023-07-23T08:47:20Z</time>
      </trkpt>
      <trkpt lat="48.29264" lon="7.37671">
        <ele>214.6</ele>
        <time>2023-07-23T08:47:21Z</time>
      </trkpt>
      <trkpt lat="48.29264" lon="7.37659">
        <ele>214.8</ele>
        <time>2023-07-23T08:47:22Z</time>
      </trkpt>
      <trkpt lat="48.29266" lon="7.37648">
        <ele>214.9</ele>
        <time>2023-07-23T08:47:23Z</time>
      </trkpt>
      <trkpt lat="48.29267" lon="7.37637">
        <ele>215.1</ele>
        <time>2023-07-23T08:47:24Z</time>
      </trkpt>
      <trkpt lat="48.29268" lon="7.37626">
        <ele>215.3</ele>
        <time>2023-07-23T08:47:25Z</time>
      </trkpt>
      <trkpt lat="48.29269" lon="7.37615">
        <ele>215.5</ele>
        <time>2023-07-23T08:47:26Z</time>
      </trkpt>
      <trkpt lat="48.2927" lon="7.37605">
        <ele>215.7</ele>
        <time>2023-07-23T08:47:27Z</time>
      </trkpt>
      <trkpt lat="48.2927" lon="7.37593">
        <ele>216</ele>
        <time>2023-07-23T08:47:28Z</time>
      </trkpt>
      <trkpt lat="48.29271" lon="7.37582">
        <ele>216.3</ele>
        <time>2023-07-23T08:47:29Z</time>
      </trkpt>
      <trkpt lat="48.29272" lon="7.37559">
        <ele>217.1</ele>
        <time>2023-07-23T08:47:30Z</time>
      </trkpt>
      <trkpt lat="48.29273" lon="7.37549">
        <ele>217.4</ele>
        <time>2023-07-23T08:47:31Z</time>
      </trkpt>
      <trkpt lat="48.29274" lon="7.37539">
        <ele>217.8</ele>
        <time>2023-07-23T08:47:32Z</time>
      </trkpt>
      <trkpt lat="48.29275" lon="7.37531">
        <ele>218</ele>
        <time>2023-07-23T08:47:33Z</time>
      </trkpt>
      <trkpt lat="48.29275" lon="7.37524">
        <ele>218.3</ele>
        <time>2023-07-23T08:47:34Z</time>
      </trkpt>
      <trkpt lat="48.29276" lon="7.37517">
        <ele>218.5</ele>
        <time>2023-07-23T08:47:35Z</time>
      </trkpt>
      <trkpt lat="48.29276" lon="7.37511">
        <ele>218.8</ele>
        <time>2023-07-23T08:47:36Z</time>
      </trkpt>
      <trkpt lat="48.29277" lon="7.37504">
        <ele>219</ele>
        <time>2023-07-23T08:47:37Z</time>
      </trkpt>
      <trkpt lat="48.29277" lon="7.37498">
        <ele>219.3</ele>
        <time>2023-07-23T08:47:38Z</time>
      </trkpt>
      <trkpt lat="48.29277" lon="7.37491">
        <ele>219.6</ele>
        <time>2023-07-23T08:47:39Z</time>
      </trkpt>
      <trkpt lat="48.29278" lon="7.37484">
        <ele>219.9</ele>
        <time>2023-07-23T08:47:40Z</time>
      </trkpt>
      <trkpt lat="48.29278" lon="7.37476">
        <ele>220.2</ele>
        <time>2023-07-23T08:47:41Z</time>
      </trkpt>
      <trkpt lat="48.29279" lon="7.37468">
        <ele>220.5</ele>
        <time>2023-07-23T08:47:42Z</time>
      </trkpt>
      <trkpt lat="48.2928" lon="7.3746">
        <ele>220.9</ele>
        <time>2023-07-23T08:47:43Z</time>
      </trkpt>
      <trkpt lat="48.2928" lon="7.3745">
        <ele>221.2</ele>
        <time>2023-07-23T08:47:44Z</time>
      </trkpt>
      <trkpt lat="48.29281" lon="7.37442">
        <ele>221.5</ele>
        <time>2023-07-23T08:47:45Z</time>
      </trkpt>
      <trkpt lat="48.29282" lon="7.37433">
        <ele>221.9</ele>
        <time>2023-07-23T08:47:46Z</time>
      </trkpt>
      <trkpt lat="48.29283" lon="7.37426">
        <ele>222.1</ele>
        <time>2023-07-23T08:47:47Z</time>
      </trkpt>
      <trkpt lat="48.29284" lon="7.37418">
        <ele>222.4</ele>
        <time>2023-07-23T08:47:48Z</time>
      </trkpt>
      <trkpt lat="48.29284" lon="7.37411">
        <ele>222.7</ele>
        <time>2023-07-23T08:47:49Z</time>
      </trkpt>
      <trkpt lat="48.29285" lon="7.37403">
        <ele>222.9</ele>
        <time>2023-07-23T08:47:50Z</time>
      </trkpt>
      <trkpt lat="48.29286" lon="7.37396">
        <ele>223.2</ele>
        <time>2023-07-23T08:47:51Z</time>
      </trkpt>
      <trkpt lat="48.29286" lon="7.37388">
        <ele>223.4</ele>
        <time>2023-07-23T08:47:52Z</time>
      </trkpt>
      <trkpt lat="48.29286" lon="7.3738">
        <ele>223.7</ele>
        <time>2023-07-23T08:47:53Z</time>
      </trkpt>
      <trkpt lat="48.29287" lon="7.37372">
        <ele>224</ele>
        <time>2023-07-23T08:47:54Z</time>
      </trkpt>
      <trkpt lat="48.29288" lon="7.37365">
        <ele>224.3</ele>
        <time>2023-07-23T08:47:55Z</time>
      </trkpt>
      <trkpt lat="48.29288" lon="7.37358">
        <ele>224.5</ele>
        <time>2023-07-23T08:47:56Z</time>
      </trkpt>
      <trkpt lat="48.29289" lon="7.3735">
        <ele>224.9</ele>
        <time>2023-07-23T08:47:57Z</time>
      </trkpt>
      <trkpt lat="48.29289" lon="7.37343">
        <ele>225.1</ele>
        <time>2023-07-23T08:47:58Z</time>
      </trkpt>
      <trkpt lat="48.29291" lon="7.37336">
        <ele>225.5</ele>
        <time>2023-07-23T08:47:59Z</time>
      </trkpt>
      <trkpt lat="48.29291" lon="7.37329">
        <ele>225.8</ele>
        <time>2023-07-23T08:48:00Z</time>
      </trkpt>
      <trkpt lat="48.29292" lon="7.37323">
        <ele>226</ele>
        <time>2023-07-23T08:48:01Z</time>
      </trkpt>
      <trkpt lat="48.29292" lon="7.37316">
        <ele>226.3</ele>
        <time>2023-07-23T08:48:02Z</time>
      </trkpt>
      <trkpt lat="48.29293" lon="7.37309">
        <ele>226.7</ele>
        <time>2023-07-23T08:48:03Z</time>
      </trkpt>
      <trkpt lat="48.29294" lon="7.37303">
        <ele>227</ele>
        <time>2023-07-23T08:48:04Z</time>
      </trkpt>
      <trkpt lat="48.29295" lon="7.37296">
        <ele>227.3</ele>
        <time>2023-07-23T08:48:05Z</time>
      </trkpt>
      <trkpt lat="48.29296" lon="7.3729">
        <ele>227.7</ele>
        <time>2023-07-23T08:48:06Z</time>
      </trkpt>
      <trkpt lat="48.29297" lon="7.37284">
        <ele>228</ele>
        <time>2023-07-23T08:48:07Z</time>
      </trkpt>
      <trkpt lat="48.29298" lon="7.37278">
        <ele>228.3</ele>
        <time>2023-07-23T08:48:08Z</time>
      </trkpt>
      <trkpt lat="48.29299" lon="7.37273">
        <ele>228.6</ele>
        <time>2023-07-23T08:48:09Z</time>
      </trkpt>
      <trkpt lat="48.29301" lon="7.37267">
        <ele>229</ele>
        <time>2023-07-23T08:48:10Z</time>
      </trkpt>
      <trkpt lat="48.29303" lon="7.37262">
        <ele>229.3</ele>
        <time>2023-07-23T08:48:11Z</time>
      </trkpt>
      <trkpt lat="48.29304" lon="7.37258">
        <ele>229.6</ele>
        <time>2023-07-23T08:48:12Z</time>
      </trkpt>
      <trkpt lat="48.29306" lon="7.37254">
        <ele>229.9</ele>
        <time>2023-07-23T08:48:13Z</time>
      </trkpt>
      <trkpt lat="48.29307" lon="7.3725">
        <ele>230.2</ele>
        <time>2023-07-23T08:48:15Z</time>
      </trkpt>
      <trkpt lat="48.29308" lon="7.37246">
        <ele>230.4</ele>
        <time>2023-07-23T08:48:16Z</time>
      </trkpt>
      <trkpt lat="48.29309" lon="7.37241">
        <ele>230.8</ele>
        <time>2023-07-23T08:48:17Z</time>
      </trkpt>
      <trkpt lat="48.2931" lon="7.3724">
        <ele>230.9</ele>
        <time>2023-07-23T08:48:18Z</time>
      </trkpt>
      <trkpt lat="48.29312" lon="7.37236">
        <ele>231.2</ele>
        <time>2023-07-23T08:48:19Z</time>
      </trkpt>
      <trkpt lat="48.29313" lon="7.37232">
        <ele>231.5</ele>
        <time>2023-07-23T08:48:20Z</time>
      </trkpt>
      <trkpt lat="48.29314" lon="7.3723">
        <ele>231.7</ele>
        <time>2023-07-23T08:48:21Z</time>
      </trkpt>
      <trkpt lat="48.29316" lon="7.37225">
        <ele>232.1</ele>
        <time>2023-07-23T08:48:22Z</time>
      </trkpt>
      <trkpt lat="48.29317" lon="7.37223">
        <ele>232.2</ele>
        <time>2023-07-23T08:48:23Z</time>
      </trkpt>
      <trkpt lat="48.29319" lon="7.3722">
        <ele>232.5</ele>
        <time>2023-07-23T08:48:24Z</time>
      </trkpt>
      <trkpt lat="48.29321" lon="7.37216">
        <ele>232.9</ele>
        <time>2023-07-23T08:48:25Z</time>
      </trkpt>
      <trkpt lat="48.29322" lon="7.37214">
        <ele>233.1</ele>
        <time>2023-07-23T08:48:26Z</time>
      </trkpt>
      <trkpt lat="48.29324" lon="7.37211">
        <ele>233.4</ele>
        <time>2023-07-23T08:48:27Z</time>
      </trkpt>
      <trkpt lat="48.29326" lon="7.37207">
        <ele>233.7</ele>
        <time>2023-07-23T08:48:28Z</time>
      </trkpt>
      <trkpt lat="48.29328" lon="7.37204">
        <ele>234.1</ele>
        <time>2023-07-23T08:48:29Z</time>
      </trkpt>
      <trkpt lat="48.2933" lon="7.37199">
        <ele>234.5</ele>
        <time>2023-07-23T08:48:30Z</time>
      </trkpt>
      <trkpt lat="48.29331" lon="7.37198">
        <ele>234.7</ele>
        <time>2023-07-23T08:48:31Z</time>
      </trkpt>
      <trkpt lat="48.29333" lon="7.37194">
        <ele>235.1</ele>
        <time>2023-07-23T08:48:32Z</time>
      </trkpt>
      <trkpt lat="48.29334" lon="7.37193">
        <ele>235.2</ele>
        <time>2023-07-23T08:48:33Z</time>
      </trkpt>
      <trkpt lat="48.29337" lon="7.3719">
        <ele>235.6</ele>
        <time>2023-07-23T08:48:34Z</time>
      </trkpt>
      <trkpt lat="48.29337" lon="7.37189">
        <ele>235.7</ele>
        <time>2023-07-23T08:48:35Z</time>
      </trkpt>
      <trkpt lat="48.2934" lon="7.37184">
        <ele>236.1</ele>
        <time>2023-07-23T08:48:36Z</time>
      </trkpt>
      <trkpt lat="48.2934" lon="7.37183">
        <ele>236.1</ele>
        <time>2023-07-23T08:48:37Z</time>
      </trkpt>
      <trkpt lat="48.29341" lon="7.3718">
        <ele>236.1</ele>
        <time>2023-07-23T08:48:38Z</time>
      </trkpt>
      <trkpt lat="48.29343" lon="7.37174">
        <ele>236.2</ele>
        <time>2023-07-23T08:48:39Z</time>
      </trkpt>
      <trkpt lat="48.29344" lon="7.37173">
        <ele>236.3</ele>
        <time>2023-07-23T08:48:40Z</time>
      </trkpt>
      <trkpt lat="48.29346" lon="7.37168">
        <ele>236.6</ele>
        <time>2023-07-23T08:48:41Z</time>
      </trkpt>
      <trkpt lat="48.29347" lon="7.37164">
        <ele>236.9</ele>
        <time>2023-07-23T08:48:42Z</time>
      </trkpt>
      <trkpt lat="48.29348" lon="7.37162">
        <ele>237</ele>
        <time>2023-07-23T08:48:43Z</time>
      </trkpt>
      <trkpt lat="48.2935" lon="7.37158">
        <ele>237.3</ele>
        <time>2023-07-23T08:48:44Z</time>
      </trkpt>
      <trkpt lat="48.29351" lon="7.37153">
        <ele>237.6</ele>
        <time>2023-07-23T08:48:45Z</time>
      </trkpt>
      <trkpt lat="48.29351" lon="7.37151">
        <ele>237.7</ele>
        <time>2023-07-23T08:48:46Z</time>
      </trkpt>
      <trkpt lat="48.29353" lon="7.37147">
        <ele>238</ele>
        <time>2023-07-23T08:48:47Z</time>
      </trkpt>
      <trkpt lat="48.29355" lon="7.37142">
        <ele>238.3</ele>
        <time>2023-07-23T08:48:48Z</time>
      </trkpt>
      <trkpt lat="48.29356" lon="7.3714">
        <ele>238.4</ele>
        <time>2023-07-23T08:48:49Z</time>
      </trkpt>
      <trkpt lat="48.29359" lon="7.37135">
        <ele>238.8</ele>
        <time>2023-07-23T08:48:50Z</time>
      </trkpt>
      <trkpt lat="48.29359" lon="7.37133">
        <ele>238.9</ele>
        <time>2023-07-23T08:48:51Z</time>
      </trkpt>
      <trkpt lat="48.29361" lon="7.37128">
        <ele>239.2</ele>
        <time>2023-07-23T08:48:52Z</time>
      </trkpt>
      <trkpt lat="48.29362" lon="7.37127">
        <ele>239.3</ele>
        <time>2023-07-23T08:48:53Z</time>
      </trkpt>
      <trkpt lat="48.29364" lon="7.37122">
        <ele>239.6</ele>
        <time>2023-07-23T08:48:54Z</time>
      </trkpt>
      <trkpt lat="48.29365" lon="7.3712">
        <ele>239.7</ele>
        <time>2023-07-23T08:48:55Z</time>
      </trkpt>
      <trkpt lat="48.29367" lon="7.37116">
        <ele>239.9</ele>
        <time>2023-07-23T08:48:56Z</time>
      </trkpt>
      <trkpt lat="48.29368" lon="7.37114">
        <ele>240</ele>
        <time>2023-07-23T08:48:57Z</time>
      </trkpt>
      <trkpt lat="48.29371" lon="7.37112">
        <ele>240.2</ele>
        <time>2023-07-23T08:48:58Z</time>
      </trkpt>
      <trkpt lat="48.29373" lon="7.37109">
        <ele>240.4</ele>
        <time>2023-07-23T08:48:59Z</time>
      </trkpt>
      <trkpt lat="48.29375" lon="7.37106">
        <ele>240.6</ele>
        <time>2023-07-23T08:49:00Z</time>
      </trkpt>
      <trkpt lat="48.29378" lon="7.37103">
        <ele>240.8</ele>
        <time>2023-07-23T08:49:01Z</time>
      </trkpt>
      <trkpt lat="48.2938" lon="7.37101">
        <ele>240.9</ele>
        <time>2023-07-23T08:49:02Z</time>
      </trkpt>
      <trkpt lat="48.29383" lon="7.371">
        <ele>241.1</ele>
        <time>2023-07-23T08:49:03Z</time>
      </trkpt>
      <trkpt lat="48.29386" lon="7.37097">
        <ele>241.3</ele>
        <time>2023-07-23T08:49:04Z</time>
      </trkpt>
      <trkpt lat="48.29389" lon="7.37095">
        <ele>241.4</ele>
        <time>2023-07-23T08:49:05Z</time>
      </trkpt>
      <trkpt lat="48.29392" lon="7.37093">
        <ele>241.5</ele>
        <time>2023-07-23T08:49:06Z</time>
      </trkpt>
      <trkpt lat="48.29395" lon="7.37091">
        <ele>241.6</ele>
        <time>2023-07-23T08:49:07Z</time>
      </trkpt>
      <trkpt lat="48.29398" lon="7.3709">
        <ele>241.7</ele>
        <time>2023-07-23T08:49:08Z</time>
      </trkpt>
      <trkpt lat="48.294" lon="7.37088">
        <ele>241.8</ele>
        <time>2023-07-23T08:49:09Z</time>
      </trkpt>
      <trkpt lat="48.29403" lon="7.37086">
        <ele>241.9</ele>
        <time>2023-07-23T08:49:10Z</time>
      </trkpt>
      <trkpt lat="48.29407" lon="7.37085">
        <ele>242</ele>
        <time>2023-07-23T08:49:11Z</time>
      </trkpt>
      <trkpt lat="48.2941" lon="7.37084">
        <ele>242.1</ele>
        <time>2023-07-23T08:49:12Z</time>
      </trkpt>
      <trkpt lat="48.29413" lon="7.37083">
        <ele>242.3</ele>
        <time>2023-07-23T08:49:13Z</time>
      </trkpt>
      <trkpt lat="48.29416" lon="7.37082">
        <ele>242.4</ele>
        <time>2023-07-23T08:49:14Z</time>
      </trkpt>
      <trkpt lat="48.29419" lon="7.37081">
        <ele>242.6</ele>
        <time>2023-07-23T08:49:15Z</time>
      </trkpt>
      <trkpt lat="48.29422" lon="7.37081">
        <ele>242.8</ele>
        <time>2023-07-23T08:49:16Z</time>
      </trkpt>
      <trkpt lat="48.29425" lon="7.3708">
        <ele>243</ele>
        <time>2023-07-23T08:49:17Z</time>
      </trkpt>
      <trkpt lat="48.29428" lon="7.3708">
        <ele>243.2</ele>
        <time>2023-07-23T08:49:18Z</time>
      </trkpt>
      <trkpt lat="48.29432" lon="7.37079">
        <ele>243.4</ele>
        <time>2023-07-23T08:49:19Z</time>
      </trkpt>
      <trkpt lat="48.29435" lon="7.3708">
        <ele>243.6</ele>
        <time>2023-07-23T08:49:20Z</time>
      </trkpt>
      <trkpt lat="48.29438" lon="7.37081">
        <ele>243.7</ele>
        <time>2023-07-23T08:49:21Z</time>
      </trkpt>
      <trkpt lat="48.29441" lon="7.37083">
        <ele>243.9</ele>
        <time>2023-07-23T08:49:22Z</time>
      </trkpt>
      <trkpt lat="48.29445" lon="7.37084">
        <ele>244</ele>
        <time>2023-07-23T08:49:23Z</time>
      </trkpt>
      <trkpt lat="48.29447" lon="7.37086">
        <ele>244</ele>
        <time>2023-07-23T08:49:24Z</time>
      </trkpt>
      <trkpt lat="48.29456" lon="7.37091">
        <ele>244.1</ele>
        <time>2023-07-23T08:49:25Z</time>
      </trkpt>
      <trkpt lat="48.2946" lon="7.37094">
        <ele>244.1</ele>
        <time>2023-07-23T08:49:26Z</time>
      </trkpt>
      <trkpt lat="48.29464" lon="7.37097">
        <ele>244</ele>
        <time>2023-07-23T08:49:27Z</time>
      </trkpt>
      <trkpt lat="48.29468" lon="7.371">
        <ele>243.9</ele>
        <time>2023-07-23T08:49:28Z</time>
      </trkpt>
      <trkpt lat="48.29473" lon="7.37103">
        <ele>243.7</ele>
        <time>2023-07-23T08:49:29Z</time>
      </trkpt>
      <trkpt lat="48.29478" lon="7.37107">
        <ele>243.6</ele>
        <time>2023-07-23T08:49:30Z</time>
      </trkpt>
      <trkpt lat="48.29483" lon="7.37111">
        <ele>243.4</ele>
        <time>2023-07-23T08:49:31Z</time>
      </trkpt>
      <trkpt lat="48.29488" lon="7.37115">
        <ele>243.3</ele>
        <time>2023-07-23T08:49:32Z</time>
      </trkpt>
      <trkpt lat="48.29493" lon="7.37119">
        <ele>243.1</ele>
        <time>2023-07-23T08:49:33Z</time>
      </trkpt>
      <trkpt lat="48.29498" lon="7.37122">
        <ele>243</ele>
        <time>2023-07-23T08:49:34Z</time>
      </trkpt>
      <trkpt lat="48.29503" lon="7.37126">
        <ele>242.8</ele>
        <time>2023-07-23T08:49:35Z</time>
      </trkpt>
      <trkpt lat="48.29508" lon="7.3713">
        <ele>242.7</ele>
        <time>2023-07-23T08:49:36Z</time>
      </trkpt>
      <trkpt lat="48.29514" lon="7.37134">
        <ele>242.5</ele>
        <time>2023-07-23T08:49:37Z</time>
      </trkpt>
      <trkpt lat="48.2952" lon="7.37138">
        <ele>242.4</ele>
        <time>2023-07-23T08:49:38Z</time>
      </trkpt>
      <trkpt lat="48.29525" lon="7.37141">
        <ele>242.2</ele>
        <time>2023-07-23T08:49:39Z</time>
      </trkpt>
      <trkpt lat="48.29532" lon="7.37142">
        <ele>242.1</ele>
        <time>2023-07-23T08:49:40Z</time>
      </trkpt>
      <trkpt lat="48.29537" lon="7.37141">
        <ele>242</ele>
        <time>2023-07-23T08:49:41Z</time>
      </trkpt>
      <trkpt lat="48.29543" lon="7.37138">
        <ele>241.9</ele>
        <time>2023-07-23T08:49:42Z</time>
      </trkpt>
      <trkpt lat="48.29549" lon="7.37134">
        <ele>241.7</ele>
        <time>2023-07-23T08:49:43Z</time>
      </trkpt>
      <trkpt lat="48.29555" lon="7.3713">
        <ele>241.6</ele>
        <time>2023-07-23T08:49:44Z</time>
      </trkpt>
      <trkpt lat="48.29559" lon="7.37124">
        <ele>241.4</ele>
        <time>2023-07-23T08:49:45Z</time>
      </trkpt>
      <trkpt lat="48.29564" lon="7.37117">
        <ele>241.3</ele>
        <time>2023-07-23T08:49:46Z</time>
      </trkpt>
      <trkpt lat="48.29568" lon="7.3711">
        <ele>241.2</ele>
        <time>2023-07-23T08:49:47Z</time>
      </trkpt>
      <trkpt lat="48.29571" lon="7.37102">
        <ele>241.1</ele>
        <time>2023-07-23T08:49:48Z</time>
      </trkpt>
      <trkpt lat="48.29574" lon="7.37094">
        <ele>241</ele>
        <time>2023-07-23T08:49:49Z</time>
      </trkpt>
      <trkpt lat="48.29578" lon="7.37086">
        <ele>240.9</ele>
        <time>2023-07-23T08:49:50Z</time>
      </trkpt>
      <trkpt lat="48.29582" lon="7.37078">
        <ele>240.9</ele>
        <time>2023-07-23T08:49:51Z</time>
      </trkpt>
      <trkpt lat="48.29585" lon="7.3707">
        <ele>240.9</ele>
        <time>2023-07-23T08:49:52Z</time>
      </trkpt>
      <trkpt lat="48.29589" lon="7.37062">
        <ele>240.8</ele>
        <time>2023-07-23T08:49:53Z</time>
      </trkpt>
      <trkpt lat="48.29594" lon="7.37054">
        <ele>240.8</ele>
        <time>2023-07-23T08:49:54Z</time>
      </trkpt>
      <trkpt lat="48.29599" lon="7.37047">
        <ele>240.9</ele>
        <time>2023-07-23T08:49:55Z</time>
      </trkpt>
      <trkpt lat="48.29604" lon="7.37039">
        <ele>240.9</ele>
        <time>2023-07-23T08:49:56Z</time>
      </trkpt>
      <trkpt lat="48.29608" lon="7.37031">
        <ele>240.9</ele>
        <time>2023-07-23T08:49:57Z</time>
      </trkpt>
      <trkpt lat="48.29611" lon="7.37022">
        <ele>241</ele>
        <time>2023-07-23T08:49:58Z</time>
      </trkpt>
      <trkpt lat="48.29614" lon="7.37013">
        <ele>241.1</ele>
        <time>2023-07-23T08:49:59Z</time>
      </trkpt>
      <trkpt lat="48.29615" lon="7.37003">
        <ele>241.2</ele>
        <time>2023-07-23T08:50:00Z</time>
      </trkpt>
      <trkpt lat="48.29616" lon="7.36994">
        <ele>241.3</ele>
        <time>2023-07-23T08:50:01Z</time>
      </trkpt>
      <trkpt lat="48.29616" lon="7.36985">
        <ele>241.4</ele>
        <time>2023-07-23T08:50:02Z</time>
      </trkpt>
      <trkpt lat="48.29616" lon="7.36976">
        <ele>241.5</ele>
        <time>2023-07-23T08:50:03Z</time>
      </trkpt>
      <trkpt lat="48.29617" lon="7.36967">
        <ele>241.7</ele>
        <time>2023-07-23T08:50:04Z</time>
      </trkpt>
      <trkpt lat="48.29617" lon="7.3696">
        <ele>241.8</ele>
        <time>2023-07-23T08:50:05Z</time>
      </trkpt>
      <trkpt lat="48.29616" lon="7.36952">
        <ele>242</ele>
        <time>2023-07-23T08:50:06Z</time>
      </trkpt>
      <trkpt lat="48.29617" lon="7.36945">
        <ele>242.1</ele>
        <time>2023-07-23T08:50:07Z</time>
      </trkpt>
      <trkpt lat="48.29618" lon="7.36939">
        <ele>242.2</ele>
        <time>2023-07-23T08:50:08Z</time>
      </trkpt>
      <trkpt lat="48.2962" lon="7.36932">
        <ele>242.4</ele>
        <time>2023-07-23T08:50:09Z</time>
      </trkpt>
      <trkpt lat="48.29622" lon="7.36925">
        <ele>242.5</ele>
        <time>2023-07-23T08:50:10Z</time>
      </trkpt>
      <trkpt lat="48.29624" lon="7.36918">
        <ele>242.3</ele>
        <time>2023-07-23T08:50:11Z</time>
      </trkpt>
      <trkpt lat="48.29626" lon="7.3691">
        <ele>242.1</ele>
        <time>2023-07-23T08:50:12Z</time>
      </trkpt>
      <trkpt lat="48.29629" lon="7.36903">
        <ele>241.9</ele>
        <time>2023-07-23T08:50:13Z</time>
      </trkpt>
      <trkpt lat="48.29634" lon="7.36895">
        <ele>241.6</ele>
        <time>2023-07-23T08:50:14Z</time>
      </trkpt>
      <trkpt lat="48.29639" lon="7.36886">
        <ele>241.4</ele>
        <time>2023-07-23T08:50:15Z</time>
      </trkpt>
      <trkpt lat="48.29644" lon="7.36877">
        <ele>241.2</ele>
        <time>2023-07-23T08:50:16Z</time>
      </trkpt>
      <trkpt lat="48.29648" lon="7.36868">
        <ele>241</ele>
        <time>2023-07-23T08:50:17Z</time>
      </trkpt>
      <trkpt lat="48.29653" lon="7.36858">
        <ele>240.9</ele>
        <time>2023-07-23T08:50:18Z</time>
      </trkpt>
      <trkpt lat="48.29658" lon="7.36849">
        <ele>240.8</ele>
        <time>2023-07-23T08:50:19Z</time>
      </trkpt>
      <trkpt lat="48.29663" lon="7.36839">
        <ele>240.7</ele>
        <time>2023-07-23T08:50:21Z</time>
      </trkpt>
      <trkpt lat="48.29668" lon="7.36829">
        <ele>240.7</ele>
        <time>2023-07-23T08:50:22Z</time>
      </trkpt>
      <trkpt lat="48.29672" lon="7.36818">
        <ele>240.7</ele>
        <time>2023-07-23T08:50:23Z</time>
      </trkpt>
      <trkpt lat="48.29676" lon="7.36808">
        <ele>240.7</ele>
        <time>2023-07-23T08:50:24Z</time>
      </trkpt>
      <trkpt lat="48.2968" lon="7.36797">
        <ele>240.7</ele>
        <time>2023-07-23T08:50:25Z</time>
      </trkpt>
      <trkpt lat="48.29685" lon="7.36787">
        <ele>240.8</ele>
        <time>2023-07-23T08:50:26Z</time>
      </trkpt>
      <trkpt lat="48.29689" lon="7.36777">
        <ele>240.9</ele>
        <time>2023-07-23T08:50:27Z</time>
      </trkpt>
      <trkpt lat="48.29693" lon="7.36767">
        <ele>241.1</ele>
        <time>2023-07-23T08:50:28Z</time>
      </trkpt>
      <trkpt lat="48.29698" lon="7.36757">
        <ele>241.3</ele>
        <time>2023-07-23T08:50:29Z</time>
      </trkpt>
      <trkpt lat="48.29702" lon="7.36748">
        <ele>241.5</ele>
        <time>2023-07-23T08:50:30Z</time>
      </trkpt>
      <trkpt lat="48.29706" lon="7.36739">
        <ele>241.6</ele>
        <time>2023-07-23T08:50:31Z</time>
      </trkpt>
      <trkpt lat="48.2971" lon="7.36731">
        <ele>241.7</ele>
        <time>2023-07-23T08:50:32Z</time>
      </trkpt>
      <trkpt lat="48.29714" lon="7.36723">
        <ele>241.7</ele>
        <time>2023-07-23T08:50:33Z</time>
      </trkpt>
      <trkpt lat="48.29718" lon="7.36714">
        <ele>241.7</ele>
        <time>2023-07-23T08:50:34Z</time>
      </trkpt>
      <trkpt lat="48.29721" lon="7.36706">
        <ele>241.5</ele>
        <time>2023-07-23T08:50:35Z</time>
      </trkpt>
      <trkpt lat="48.29725" lon="7.36697">
        <ele>241.4</ele>
        <time>2023-07-23T08:50:36Z</time>
      </trkpt>
      <trkpt lat="48.29729" lon="7.36687">
        <ele>241.2</ele>
        <time>2023-07-23T08:50:37Z</time>
      </trkpt>
      <trkpt lat="48.29733" lon="7.36677">
        <ele>240.8</ele>
        <time>2023-07-23T08:50:38Z</time>
      </trkpt>
      <trkpt lat="48.29737" lon="7.36667">
        <ele>240.5</ele>
        <time>2023-07-23T08:50:39Z</time>
      </trkpt>
      <trkpt lat="48.29741" lon="7.36657">
        <ele>240.1</ele>
        <time>2023-07-23T08:50:40Z</time>
      </trkpt>
      <trkpt lat="48.29745" lon="7.36647">
        <ele>239.7</ele>
        <time>2023-07-23T08:50:41Z</time>
      </trkpt>
      <trkpt lat="48.2975" lon="7.36636">
        <ele>239.2</ele>
        <time>2023-07-23T08:50:42Z</time>
      </trkpt>
      <trkpt lat="48.29754" lon="7.36625">
        <ele>238.6</ele>
        <time>2023-07-23T08:50:43Z</time>
      </trkpt>
      <trkpt lat="48.29759" lon="7.36613">
        <ele>238</ele>
        <time>2023-07-23T08:50:44Z</time>
      </trkpt>
      <trkpt lat="48.29764" lon="7.36602">
        <ele>237.2</ele>
        <time>2023-07-23T08:50:45Z</time>
      </trkpt>
      <trkpt lat="48.29769" lon="7.36589">
        <ele>236.3</ele>
        <time>2023-07-23T08:50:46Z</time>
      </trkpt>
      <trkpt lat="48.29774" lon="7.36577">
        <ele>235.3</ele>
        <time>2023-07-23T08:50:47Z</time>
      </trkpt>
      <trkpt lat="48.2978" lon="7.36564">
        <ele>234.3</ele>
        <time>2023-07-23T08:50:48Z</time>
      </trkpt>
      <trkpt lat="48.29786" lon="7.3655">
        <ele>233.2</ele>
        <time>2023-07-23T08:50:49Z</time>
      </trkpt>
      <trkpt lat="48.29792" lon="7.36536">
        <ele>232.1</ele>
        <time>2023-07-23T08:50:50Z</time>
      </trkpt>
      <trkpt lat="48.29798" lon="7.36521">
        <ele>231.1</ele>
        <time>2023-07-23T08:50:51Z</time>
      </trkpt>
      <trkpt lat="48.29805" lon="7.36505">
        <ele>230</ele>
        <time>2023-07-23T08:50:52Z</time>
      </trkpt>
      <trkpt lat="48.29811" lon="7.36489">
        <ele>229</ele>
        <time>2023-07-23T08:50:53Z</time>
      </trkpt>
      <trkpt lat="48.29817" lon="7.36473">
        <ele>228.1</ele>
        <time>2023-07-23T08:50:54Z</time>
      </trkpt>
      <trkpt lat="48.29824" lon="7.36457">
        <ele>227.3</ele>
        <time>2023-07-23T08:50:55Z</time>
      </trkpt>
      <trkpt lat="48.2983" lon="7.36441">
        <ele>226.6</ele>
        <time>2023-07-23T08:50:56Z</time>
      </trkpt>
      <trkpt lat="48.29837" lon="7.36425">
        <ele>226.1</ele>
        <time>2023-07-23T08:50:57Z</time>
      </trkpt>
      <trkpt lat="48.29844" lon="7.36409">
        <ele>225.7</ele>
        <time>2023-07-23T08:50:58Z</time>
      </trkpt>
      <trkpt lat="48.29851" lon="7.36395">
        <ele>225.4</ele>
        <time>2023-07-23T08:50:59Z</time>
      </trkpt>
      <trkpt lat="48.29859" lon="7.36381">
        <ele>225.1</ele>
        <time>2023-07-23T08:51:00Z</time>
      </trkpt>
      <trkpt lat="48.29867" lon="7.36368">
        <ele>225</ele>
        <time>2023-07-23T08:51:01Z</time>
      </trkpt>
      <trkpt lat="48.29875" lon="7.36356">
        <ele>224.9</ele>
        <time>2023-07-23T08:51:02Z</time>
      </trkpt>
      <trkpt lat="48.29883" lon="7.36344">
        <ele>224.9</ele>
        <time>2023-07-23T08:51:03Z</time>
      </trkpt>
      <trkpt lat="48.2989" lon="7.36332">
        <ele>225</ele>
        <time>2023-07-23T08:51:04Z</time>
      </trkpt>
      <trkpt lat="48.29897" lon="7.36321">
        <ele>225.2</ele>
        <time>2023-07-23T08:51:05Z</time>
      </trkpt>
      <trkpt lat="48.29904" lon="7.3631">
        <ele>225.4</ele>
        <time>2023-07-23T08:51:06Z</time>
      </trkpt>
      <trkpt lat="48.29911" lon="7.36301">
        <ele>225.7</ele>
        <time>2023-07-23T08:51:07Z</time>
      </trkpt>
      <trkpt lat="48.29918" lon="7.36292">
        <ele>226</ele>
        <time>2023-07-23T08:51:08Z</time>
      </trkpt>
      <trkpt lat="48.29925" lon="7.36283">
        <ele>226.4</ele>
        <time>2023-07-23T08:51:09Z</time>
      </trkpt>
      <trkpt lat="48.29931" lon="7.36275">
        <ele>226.9</ele>
        <time>2023-07-23T08:51:10Z</time>
      </trkpt>
      <trkpt lat="48.29938" lon="7.36267">
        <ele>227.3</ele>
        <time>2023-07-23T08:51:11Z</time>
      </trkpt>
      <trkpt lat="48.29944" lon="7.36261">
        <ele>227.7</ele>
        <time>2023-07-23T08:51:12Z</time>
      </trkpt>
      <trkpt lat="48.2995" lon="7.36254">
        <ele>228.1</ele>
        <time>2023-07-23T08:51:13Z</time>
      </trkpt>
      <trkpt lat="48.29956" lon="7.36249">
        <ele>228.5</ele>
        <time>2023-07-23T08:51:14Z</time>
      </trkpt>
      <trkpt lat="48.29961" lon="7.36245">
        <ele>228.8</ele>
        <time>2023-07-23T08:51:15Z</time>
      </trkpt>
      <trkpt lat="48.29967" lon="7.36241">
        <ele>229.1</ele>
        <time>2023-07-23T08:51:16Z</time>
      </trkpt>
      <trkpt lat="48.29972" lon="7.36237">
        <ele>229.4</ele>
        <time>2023-07-23T08:51:17Z</time>
      </trkpt>
      <trkpt lat="48.29977" lon="7.36233">
        <ele>229.8</ele>
        <time>2023-07-23T08:51:18Z</time>
      </trkpt>
      <trkpt lat="48.29982" lon="7.36229">
        <ele>230.1</ele>
        <time>2023-07-23T08:51:19Z</time>
      </trkpt>
      <trkpt lat="48.29987" lon="7.36225">
        <ele>230.4</ele>
        <time>2023-07-23T08:51:20Z</time>
      </trkpt>
      <trkpt lat="48.29992" lon="7.36221">
        <ele>230.7</ele>
        <time>2023-07-23T08:51:21Z</time>
      </trkpt>
      <trkpt lat="48.29996" lon="7.36218">
        <ele>231</ele>
        <time>2023-07-23T08:51:22Z</time>
      </trkpt>
      <trkpt lat="48.30001" lon="7.36214">
        <ele>231.3</ele>
        <time>2023-07-23T08:51:23Z</time>
      </trkpt>
      <trkpt lat="48.30005" lon="7.3621">
        <ele>231.5</ele>
        <time>2023-07-23T08:51:24Z</time>
      </trkpt>
      <trkpt lat="48.30009" lon="7.36206">
        <ele>231.8</ele>
        <time>2023-07-23T08:51:25Z</time>
      </trkpt>
      <trkpt lat="48.30014" lon="7.36203">
        <ele>232.1</ele>
        <time>2023-07-23T08:51:26Z</time>
      </trkpt>
      <trkpt lat="48.30018" lon="7.36199">
        <ele>232.4</ele>
        <time>2023-07-23T08:51:27Z</time>
      </trkpt>
      <trkpt lat="48.30022" lon="7.36195">
        <ele>232.6</ele>
        <time>2023-07-23T08:51:28Z</time>
      </trkpt>
      <trkpt lat="48.30026" lon="7.36192">
        <ele>232.9</ele>
        <time>2023-07-23T08:51:29Z</time>
      </trkpt>
      <trkpt lat="48.3003" lon="7.36188">
        <ele>233.2</ele>
        <time>2023-07-23T08:51:30Z</time>
      </trkpt>
      <trkpt lat="48.30034" lon="7.36185">
        <ele>233.4</ele>
        <time>2023-07-23T08:51:31Z</time>
      </trkpt>
      <trkpt lat="48.30038" lon="7.36181">
        <ele>233.7</ele>
        <time>2023-07-23T08:51:32Z</time>
      </trkpt>
      <trkpt lat="48.30046" lon="7.36174">
        <ele>234.1</ele>
        <time>2023-07-23T08:51:33Z</time>
      </trkpt>
      <trkpt lat="48.3005" lon="7.3617">
        <ele>234.4</ele>
        <time>2023-07-23T08:51:34Z</time>
      </trkpt>
      <trkpt lat="48.30054" lon="7.36167">
        <ele>234.6</ele>
        <time>2023-07-23T08:51:35Z</time>
      </trkpt>
      <trkpt lat="48.30058" lon="7.36163">
        <ele>234.8</ele>
        <time>2023-07-23T08:51:36Z</time>
      </trkpt>
      <trkpt lat="48.30062" lon="7.3616">
        <ele>235.1</ele>
        <time>2023-07-23T08:51:37Z</time>
      </trkpt>
      <trkpt lat="48.30065" lon="7.36156">
        <ele>235.3</ele>
        <time>2023-07-23T08:51:38Z</time>
      </trkpt>
      <trkpt lat="48.30069" lon="7.36153">
        <ele>235.6</ele>
        <time>2023-07-23T08:51:39Z</time>
      </trkpt>
      <trkpt lat="48.30072" lon="7.3615">
        <ele>235.8</ele>
        <time>2023-07-23T08:51:40Z</time>
      </trkpt>
      <trkpt lat="48.30076" lon="7.36147">
        <ele>236.1</ele>
        <time>2023-07-23T08:51:41Z</time>
      </trkpt>
      <trkpt lat="48.3008" lon="7.36144">
        <ele>236.4</ele>
        <time>2023-07-23T08:51:42Z</time>
      </trkpt>
      <trkpt lat="48.30083" lon="7.36141">
        <ele>236.6</ele>
        <time>2023-07-23T08:51:43Z</time>
      </trkpt>
      <trkpt lat="48.30087" lon="7.36138">
        <ele>236.9</ele>
        <time>2023-07-23T08:51:44Z</time>
      </trkpt>
      <trkpt lat="48.3009" lon="7.36135">
        <ele>237.2</ele>
        <time>2023-07-23T08:51:45Z</time>
      </trkpt>
      <trkpt lat="48.30094" lon="7.36132">
        <ele>237.5</ele>
        <time>2023-07-23T08:51:46Z</time>
      </trkpt>
      <trkpt lat="48.30097" lon="7.36129">
        <ele>237.8</ele>
        <time>2023-07-23T08:51:47Z</time>
      </trkpt>
      <trkpt lat="48.30101" lon="7.36126">
        <ele>238.1</ele>
        <time>2023-07-23T08:51:48Z</time>
      </trkpt>
      <trkpt lat="48.30104" lon="7.36123">
        <ele>238.4</ele>
        <time>2023-07-23T08:51:49Z</time>
      </trkpt>
      <trkpt lat="48.30106" lon="7.36118">
        <ele>238.7</ele>
        <time>2023-07-23T08:51:50Z</time>
      </trkpt>
      <trkpt lat="48.30109" lon="7.36114">
        <ele>239</ele>
        <time>2023-07-23T08:51:51Z</time>
      </trkpt>
      <trkpt lat="48.30111" lon="7.36112">
        <ele>239.3</ele>
        <time>2023-07-23T08:51:52Z</time>
      </trkpt>
      <trkpt lat="48.30114" lon="7.3611">
        <ele>239.6</ele>
        <time>2023-07-23T08:51:53Z</time>
      </trkpt>
      <trkpt lat="48.30117" lon="7.3611">
        <ele>239.8</ele>
        <time>2023-07-23T08:51:54Z</time>
      </trkpt>
      <trkpt lat="48.30121" lon="7.3611">
        <ele>240.1</ele>
        <time>2023-07-23T08:51:55Z</time>
      </trkpt>
      <trkpt lat="48.30124" lon="7.36108">
        <ele>240.3</ele>
        <time>2023-07-23T08:51:56Z</time>
      </trkpt>
      <trkpt lat="48.30127" lon="7.36104">
        <ele>240.5</ele>
        <time>2023-07-23T08:51:57Z</time>
      </trkpt>
      <trkpt lat="48.3013" lon="7.36101">
        <ele>240.6</ele>
        <time>2023-07-23T08:51:58Z</time>
      </trkpt>
      <trkpt lat="48.30133" lon="7.36098">
        <ele>240.8</ele>
        <time>2023-07-23T08:51:59Z</time>
      </trkpt>
      <trkpt lat="48.30136" lon="7.36095">
        <ele>240.9</ele>
        <time>2023-07-23T08:52:00Z</time>
      </trkpt>
      <trkpt lat="48.30139" lon="7.36092">
        <ele>241.1</ele>
        <time>2023-07-23T08:52:01Z</time>
      </trkpt>
      <trkpt lat="48.30142" lon="7.36089">
        <ele>241.2</ele>
        <time>2023-07-23T08:52:02Z</time>
      </trkpt>
      <trkpt lat="48.30144" lon="7.36087">
        <ele>241.4</ele>
        <time>2023-07-23T08:52:03Z</time>
      </trkpt>
      <trkpt lat="48.30148" lon="7.36084">
        <ele>241.6</ele>
        <time>2023-07-23T08:52:04Z</time>
      </trkpt>
      <trkpt lat="48.30151" lon="7.36082">
        <ele>241.7</ele>
        <time>2023-07-23T08:52:05Z</time>
      </trkpt>
      <trkpt lat="48.30154" lon="7.36079">
        <ele>241.9</ele>
        <time>2023-07-23T08:52:06Z</time>
      </trkpt>
      <trkpt lat="48.30158" lon="7.36077">
        <ele>242</ele>
        <time>2023-07-23T08:52:07Z</time>
      </trkpt>
      <trkpt lat="48.30161" lon="7.36073">
        <ele>242.2</ele>
        <time>2023-07-23T08:52:08Z</time>
      </trkpt>
      <trkpt lat="48.30164" lon="7.36071">
        <ele>242.3</ele>
        <time>2023-07-23T08:52:09Z</time>
      </trkpt>
      <trkpt lat="48.30167" lon="7.36067">
        <ele>242.5</ele>
        <time>2023-07-23T08:52:10Z</time>
      </trkpt>
      <trkpt lat="48.30171" lon="7.36064">
        <ele>242.6</ele>
        <time>2023-07-23T08:52:11Z</time>
      </trkpt>
      <trkpt lat="48.30175" lon="7.36062">
        <ele>242.8</ele>
        <time>2023-07-23T08:52:12Z</time>
      </trkpt>
      <trkpt lat="48.30179" lon="7.3606">
        <ele>243</ele>
        <time>2023-07-23T08:52:13Z</time>
      </trkpt>
      <trkpt lat="48.30183" lon="7.36059">
        <ele>243.2</ele>
        <time>2023-07-23T08:52:14Z</time>
      </trkpt>
      <trkpt lat="48.30187" lon="7.36059">
        <ele>243.4</ele>
        <time>2023-07-23T08:52:15Z</time>
      </trkpt>
      <trkpt lat="48.30192" lon="7.36059">
        <ele>243.6</ele>
        <time>2023-07-23T08:52:16Z</time>
      </trkpt>
      <trkpt lat="48.30196" lon="7.3606">
        <ele>243.8</ele>
        <time>2023-07-23T08:52:17Z</time>
      </trkpt>
      <trkpt lat="48.302" lon="7.3606">
        <ele>244</ele>
        <time>2023-07-23T08:52:18Z</time>
      </trkpt>
      <trkpt lat="48.30204" lon="7.36061">
        <ele>244.2</ele>
        <time>2023-07-23T08:52:19Z</time>
      </trkpt>
      <trkpt lat="48.30208" lon="7.36061">
        <ele>244.4</ele>
        <time>2023-07-23T08:52:20Z</time>
      </trkpt>
      <trkpt lat="48.30212" lon="7.36061">
        <ele>244.6</ele>
        <time>2023-07-23T08:52:21Z</time>
      </trkpt>
      <trkpt lat="48.30215" lon="7.36061">
        <ele>244.8</ele>
        <time>2023-07-23T08:52:22Z</time>
      </trkpt>
      <trkpt lat="48.30219" lon="7.36062">
        <ele>245</ele>
        <time>2023-07-23T08:52:23Z</time>
      </trkpt>
      <trkpt lat="48.30223" lon="7.36062">
        <ele>245.1</ele>
        <time>2023-07-23T08:52:24Z</time>
      </trkpt>
      <trkpt lat="48.30227" lon="7.36062">
        <ele>245.3</ele>
        <time>2023-07-23T08:52:25Z</time>
      </trkpt>
      <trkpt lat="48.30231" lon="7.36062">
        <ele>245.4</ele>
        <time>2023-07-23T08:52:27Z</time>
      </trkpt>
      <trkpt lat="48.30235" lon="7.36062">
        <ele>245.6</ele>
        <time>2023-07-23T08:52:28Z</time>
      </trkpt>
      <trkpt lat="48.30239" lon="7.36063">
        <ele>245.7</ele>
        <time>2023-07-23T08:52:29Z</time>
      </trkpt>
      <trkpt lat="48.30243" lon="7.36063">
        <ele>245.9</ele>
        <time>2023-07-23T08:52:30Z</time>
      </trkpt>
      <trkpt lat="48.30247" lon="7.36063">
        <ele>246</ele>
        <time>2023-07-23T08:52:31Z</time>
      </trkpt>
      <trkpt lat="48.30251" lon="7.36063">
        <ele>246.2</ele>
        <time>2023-07-23T08:52:32Z</time>
      </trkpt>
      <trkpt lat="48.30255" lon="7.36064">
        <ele>246.3</ele>
        <time>2023-07-23T08:52:33Z</time>
      </trkpt>
      <trkpt lat="48.30258" lon="7.36064">
        <ele>246.4</ele>
        <time>2023-07-23T08:52:34Z</time>
      </trkpt>
      <trkpt lat="48.30263" lon="7.36065">
        <ele>246.5</ele>
        <time>2023-07-23T08:52:35Z</time>
      </trkpt>
      <trkpt lat="48.30266" lon="7.36065">
        <ele>246.5</ele>
        <time>2023-07-23T08:52:36Z</time>
      </trkpt>
      <trkpt lat="48.3027" lon="7.36065">
        <ele>246.5</ele>
        <time>2023-07-23T08:52:37Z</time>
      </trkpt>
      <trkpt lat="48.30274" lon="7.36066">
        <ele>246.5</ele>
        <time>2023-07-23T08:52:38Z</time>
      </trkpt>
      <trkpt lat="48.30278" lon="7.36068">
        <ele>246.4</ele>
        <time>2023-07-23T08:52:39Z</time>
      </trkpt>
      <trkpt lat="48.30282" lon="7.3607">
        <ele>246.3</ele>
        <time>2023-07-23T08:52:40Z</time>
      </trkpt>
      <trkpt lat="48.30286" lon="7.36071">
        <ele>246.2</ele>
        <time>2023-07-23T08:52:41Z</time>
      </trkpt>
      <trkpt lat="48.30291" lon="7.36074">
        <ele>246.1</ele>
        <time>2023-07-23T08:52:42Z</time>
      </trkpt>
      <trkpt lat="48.30296" lon="7.36076">
        <ele>245.9</ele>
        <time>2023-07-23T08:52:43Z</time>
      </trkpt>
      <trkpt lat="48.303" lon="7.36079">
        <ele>245.6</ele>
        <time>2023-07-23T08:52:44Z</time>
      </trkpt>
      <trkpt lat="48.30306" lon="7.36083">
        <ele>245.2</ele>
        <time>2023-07-23T08:52:45Z</time>
      </trkpt>
      <trkpt lat="48.30311" lon="7.36087">
        <ele>244.9</ele>
        <time>2023-07-23T08:52:46Z</time>
      </trkpt>
      <trkpt lat="48.30317" lon="7.3609">
        <ele>244.4</ele>
        <time>2023-07-23T08:52:47Z</time>
      </trkpt>
      <trkpt lat="48.30324" lon="7.36093">
        <ele>244</ele>
        <time>2023-07-23T08:52:48Z</time>
      </trkpt>
      <trkpt lat="48.3033" lon="7.36095">
        <ele>243.5</ele>
        <time>2023-07-23T08:52:49Z</time>
      </trkpt>
      <trkpt lat="48.30337" lon="7.36097">
        <ele>243</ele>
        <time>2023-07-23T08:52:50Z</time>
      </trkpt>
      <trkpt lat="48.30345" lon="7.36101">
        <ele>242.4</ele>
        <time>2023-07-23T08:52:51Z</time>
      </trkpt>
      <trkpt lat="48.30353" lon="7.36105">
        <ele>241.8</ele>
        <time>2023-07-23T08:52:52Z</time>
      </trkpt>
      <trkpt lat="48.30361" lon="7.3611">
        <ele>241.3</ele>
        <time>2023-07-23T08:52:53Z</time>
      </trkpt>
      <trkpt lat="48.30368" lon="7.36115">
        <ele>240.8</ele>
        <time>2023-07-23T08:52:54Z</time>
      </trkpt>
      <trkpt lat="48.30376" lon="7.3612">
        <ele>240.3</ele>
        <time>2023-07-23T08:52:55Z</time>
      </trkpt>
      <trkpt lat="48.30384" lon="7.36125">
        <ele>239.8</ele>
        <time>2023-07-23T08:52:56Z</time>
      </trkpt>
      <trkpt lat="48.30393" lon="7.36129">
        <ele>239.3</ele>
        <time>2023-07-23T08:52:57Z</time>
      </trkpt>
      <trkpt lat="48.30402" lon="7.36131">
        <ele>238.8</ele>
        <time>2023-07-23T08:52:58Z</time>
      </trkpt>
      <trkpt lat="48.30412" lon="7.36133">
        <ele>238.4</ele>
        <time>2023-07-23T08:52:59Z</time>
      </trkpt>
      <trkpt lat="48.30421" lon="7.36134">
        <ele>238</ele>
        <time>2023-07-23T08:53:00Z</time>
      </trkpt>
      <trkpt lat="48.30431" lon="7.36136">
        <ele>237.7</ele>
        <time>2023-07-23T08:53:01Z</time>
      </trkpt>
      <trkpt lat="48.3044" lon="7.36138">
        <ele>237.4</ele>
        <time>2023-07-23T08:53:02Z</time>
      </trkpt>
      <trkpt lat="48.30449" lon="7.36141">
        <ele>237.2</ele>
        <time>2023-07-23T08:53:03Z</time>
      </trkpt>
      <trkpt lat="48.30459" lon="7.36145">
        <ele>237.1</ele>
        <time>2023-07-23T08:53:04Z</time>
      </trkpt>
      <trkpt lat="48.30467" lon="7.36149">
        <ele>237</ele>
        <time>2023-07-23T08:53:05Z</time>
      </trkpt>
      <trkpt lat="48.30476" lon="7.36153">
        <ele>236.9</ele>
        <time>2023-07-23T08:53:06Z</time>
      </trkpt>
      <trkpt lat="48.30484" lon="7.36156">
        <ele>237</ele>
        <time>2023-07-23T08:53:07Z</time>
      </trkpt>
      <trkpt lat="48.30493" lon="7.36158">
        <ele>237</ele>
        <time>2023-07-23T08:53:08Z</time>
      </trkpt>
      <trkpt lat="48.30501" lon="7.36159">
        <ele>237</ele>
        <time>2023-07-23T08:53:09Z</time>
      </trkpt>
      <trkpt lat="48.30509" lon="7.3616">
        <ele>237.1</ele>
        <time>2023-07-23T08:53:10Z</time>
      </trkpt>
      <trkpt lat="48.30517" lon="7.36159">
        <ele>237.1</ele>
        <time>2023-07-23T08:53:11Z</time>
      </trkpt>
      <trkpt lat="48.30525" lon="7.36159">
        <ele>237.2</ele>
        <time>2023-07-23T08:53:12Z</time>
      </trkpt>
      <trkpt lat="48.30533" lon="7.36159">
        <ele>237.3</ele>
        <time>2023-07-23T08:53:13Z</time>
      </trkpt>
      <trkpt lat="48.30541" lon="7.36159">
        <ele>237.3</ele>
        <time>2023-07-23T08:53:14Z</time>
      </trkpt>
      <trkpt lat="48.30548" lon="7.36159">
        <ele>237.4</ele>
        <time>2023-07-23T08:53:15Z</time>
      </trkpt>
      <trkpt lat="48.30555" lon="7.36158">
        <ele>237.5</ele>
        <time>2023-07-23T08:53:16Z</time>
      </trkpt>
      <trkpt lat="48.30563" lon="7.36158">
        <ele>237.7</ele>
        <time>2023-07-23T08:53:17Z</time>
      </trkpt>
      <trkpt lat="48.3057" lon="7.36159">
        <ele>237.8</ele>
        <time>2023-07-23T08:53:18Z</time>
      </trkpt>
      <trkpt lat="48.30576" lon="7.36159">
        <ele>237.9</ele>
        <time>2023-07-23T08:53:19Z</time>
      </trkpt>
      <trkpt lat="48.30583" lon="7.3616">
        <ele>238</ele>
        <time>2023-07-23T08:53:20Z</time>
      </trkpt>
      <trkpt lat="48.3059" lon="7.36161">
        <ele>238.1</ele>
        <time>2023-07-23T08:53:21Z</time>
      </trkpt>
      <trkpt lat="48.30597" lon="7.36161">
        <ele>238.2</ele>
        <time>2023-07-23T08:53:22Z</time>
      </trkpt>
      <trkpt lat="48.30604" lon="7.36162">
        <ele>238.3</ele>
        <time>2023-07-23T08:53:23Z</time>
      </trkpt>
      <trkpt lat="48.30611" lon="7.36163">
        <ele>238.4</ele>
        <time>2023-07-23T08:53:24Z</time>
      </trkpt>
      <trkpt lat="48.30618" lon="7.36163">
        <ele>238.5</ele>
        <time>2023-07-23T08:53:25Z</time>
      </trkpt>
      <trkpt lat="48.30625" lon="7.36163">
        <ele>238.6</ele>
        <time>2023-07-23T08:53:26Z</time>
      </trkpt>
      <trkpt lat="48.30632" lon="7.36162">
        <ele>238.7</ele>
        <time>2023-07-23T08:53:27Z</time>
      </trkpt>
      <trkpt lat="48.30639" lon="7.36161">
        <ele>238.8</ele>
        <time>2023-07-23T08:53:28Z</time>
      </trkpt>
      <trkpt lat="48.30646" lon="7.3616">
        <ele>238.8</ele>
        <time>2023-07-23T08:53:29Z</time>
      </trkpt>
      <trkpt lat="48.30653" lon="7.36158">
        <ele>238.9</ele>
        <time>2023-07-23T08:53:30Z</time>
      </trkpt>
      <trkpt lat="48.3066" lon="7.36156">
        <ele>239</ele>
        <time>2023-07-23T08:53:31Z</time>
      </trkpt>
      <trkpt lat="48.30667" lon="7.36154">
        <ele>239.1</ele>
        <time>2023-07-23T08:53:32Z</time>
      </trkpt>
      <trkpt lat="48.30675" lon="7.36152">
        <ele>239.1</ele>
        <time>2023-07-23T08:53:33Z</time>
      </trkpt>
      <trkpt lat="48.30689" lon="7.36145">
        <ele>239.1</ele>
        <time>2023-07-23T08:53:34Z</time>
      </trkpt>
      <trkpt lat="48.30696" lon="7.36142">
        <ele>239.2</ele>
        <time>2023-07-23T08:53:35Z</time>
      </trkpt>
      <trkpt lat="48.30702" lon="7.36137">
        <ele>239.2</ele>
        <time>2023-07-23T08:53:36Z</time>
      </trkpt>
      <trkpt lat="48.30709" lon="7.36131">
        <ele>239.2</ele>
        <time>2023-07-23T08:53:37Z</time>
      </trkpt>
      <trkpt lat="48.30715" lon="7.36125">
        <ele>239.1</ele>
        <time>2023-07-23T08:53:38Z</time>
      </trkpt>
      <trkpt lat="48.30721" lon="7.36119">
        <ele>239</ele>
        <time>2023-07-23T08:53:39Z</time>
      </trkpt>
      <trkpt lat="48.30728" lon="7.36115">
        <ele>238.7</ele>
        <time>2023-07-23T08:53:40Z</time>
      </trkpt>
      <trkpt lat="48.30736" lon="7.36111">
        <ele>238.4</ele>
        <time>2023-07-23T08:53:41Z</time>
      </trkpt>
      <trkpt lat="48.30744" lon="7.36108">
        <ele>238.1</ele>
        <time>2023-07-23T08:53:42Z</time>
      </trkpt>
      <trkpt lat="48.30752" lon="7.36107">
        <ele>237.8</ele>
        <time>2023-07-23T08:53:43Z</time>
      </trkpt>
      <trkpt lat="48.30761" lon="7.36107">
        <ele>237.5</ele>
        <time>2023-07-23T08:53:44Z</time>
      </trkpt>
      <trkpt lat="48.30769" lon="7.36107">
        <ele>237.3</ele>
        <time>2023-07-23T08:53:45Z</time>
      </trkpt>
      <trkpt lat="48.30778" lon="7.36108">
        <ele>237.1</ele>
        <time>2023-07-23T08:53:46Z</time>
      </trkpt>
      <trkpt lat="48.30787" lon="7.36108">
        <ele>237</ele>
        <time>2023-07-23T08:53:47Z</time>
      </trkpt>
      <trkpt lat="48.30795" lon="7.36108">
        <ele>236.9</ele>
        <time>2023-07-23T08:53:48Z</time>
      </trkpt>
      <trkpt lat="48.30803" lon="7.36108">
        <ele>236.8</ele>
        <time>2023-07-23T08:53:49Z</time>
      </trkpt>
      <trkpt lat="48.30811" lon="7.36108">
        <ele>236.8</ele>
        <time>2023-07-23T08:53:50Z</time>
      </trkpt>
      <trkpt lat="48.3082" lon="7.36107">
        <ele>236.8</ele>
        <time>2023-07-23T08:53:51Z</time>
      </trkpt>
      <trkpt lat="48.30828" lon="7.36106">
        <ele>236.8</ele>
        <time>2023-07-23T08:53:52Z</time>
      </trkpt>
      <trkpt lat="48.30836" lon="7.36106">
        <ele>236.8</ele>
        <time>2023-07-23T08:53:53Z</time>
      </trkpt>
      <trkpt lat="48.30844" lon="7.36105">
        <ele>236.8</ele>
        <time>2023-07-23T08:53:54Z</time>
      </trkpt>
      <trkpt lat="48.30852" lon="7.36105">
        <ele>236.9</ele>
        <time>2023-07-23T08:53:55Z</time>
      </trkpt>
      <trkpt lat="48.30859" lon="7.36104">
        <ele>237</ele>
        <time>2023-07-23T08:53:56Z</time>
      </trkpt>
      <trkpt lat="48.30866" lon="7.36103">
        <ele>237.2</ele>
        <time>2023-07-23T08:53:57Z</time>
      </trkpt>
      <trkpt lat="48.30874" lon="7.36103">
        <ele>237.3</ele>
        <time>2023-07-23T08:53:58Z</time>
      </trkpt>
      <trkpt lat="48.30881" lon="7.36102">
        <ele>237.4</ele>
        <time>2023-07-23T08:53:59Z</time>
      </trkpt>
      <trkpt lat="48.30888" lon="7.36102">
        <ele>237.4</ele>
        <time>2023-07-23T08:54:00Z</time>
      </trkpt>
      <trkpt lat="48.30895" lon="7.36101">
        <ele>237.4</ele>
        <time>2023-07-23T08:54:01Z</time>
      </trkpt>
      <trkpt lat="48.30902" lon="7.361">
        <ele>237.4</ele>
        <time>2023-07-23T08:54:02Z</time>
      </trkpt>
      <trkpt lat="48.30909" lon="7.36099">
        <ele>237.3</ele>
        <time>2023-07-23T08:54:03Z</time>
      </trkpt>
      <trkpt lat="48.30917" lon="7.36098">
        <ele>237.1</ele>
        <time>2023-07-23T08:54:04Z</time>
      </trkpt>
      <trkpt lat="48.30925" lon="7.36097">
        <ele>236.9</ele>
        <time>2023-07-23T08:54:05Z</time>
      </trkpt>
      <trkpt lat="48.30932" lon="7.36095">
        <ele>236.7</ele>
        <time>2023-07-23T08:54:06Z</time>
      </trkpt>
      <trkpt lat="48.3094" lon="7.36094">
        <ele>236.5</ele>
        <time>2023-07-23T08:54:07Z</time>
      </trkpt>
      <trkpt lat="48.30948" lon="7.36094">
        <ele>236.3</ele>
        <time>2023-07-23T08:54:08Z</time>
      </trkpt>
      <trkpt lat="48.30957" lon="7.36093">
        <ele>236</ele>
        <time>2023-07-23T08:54:09Z</time>
      </trkpt>
      <trkpt lat="48.30965" lon="7.36092">
        <ele>235.8</ele>
        <time>2023-07-23T08:54:10Z</time>
      </trkpt>
      <trkpt lat="48.30974" lon="7.3609">
        <ele>235.6</ele>
        <time>2023-07-23T08:54:11Z</time>
      </trkpt>
      <trkpt lat="48.30983" lon="7.36089">
        <ele>235.4</ele>
        <time>2023-07-23T08:54:12Z</time>
      </trkpt>
      <trkpt lat="48.30992" lon="7.36087">
        <ele>235.3</ele>
        <time>2023-07-23T08:54:13Z</time>
      </trkpt>
      <trkpt lat="48.31001" lon="7.36085">
        <ele>235.2</ele>
        <time>2023-07-23T08:54:14Z</time>
      </trkpt>
      <trkpt lat="48.3101" lon="7.36084">
        <ele>235.1</ele>
        <time>2023-07-23T08:54:15Z</time>
      </trkpt>
      <trkpt lat="48.31018" lon="7.36083">
        <ele>235.1</ele>
        <time>2023-07-23T08:54:16Z</time>
      </trkpt>
      <trkpt lat="48.31027" lon="7.36083">
        <ele>235</ele>
        <time>2023-07-23T08:54:17Z</time>
      </trkpt>
      <trkpt lat="48.31036" lon="7.36082">
        <ele>235.1</ele>
        <time>2023-07-23T08:54:18Z</time>
      </trkpt>
      <trkpt lat="48.31044" lon="7.3608">
        <ele>235.2</ele>
        <time>2023-07-23T08:54:19Z</time>
      </trkpt>
      <trkpt lat="48.31052" lon="7.36078">
        <ele>235.4</ele>
        <time>2023-07-23T08:54:20Z</time>
      </trkpt>
      <trkpt lat="48.3106" lon="7.36075">
        <ele>235.5</ele>
        <time>2023-07-23T08:54:21Z</time>
      </trkpt>
      <trkpt lat="48.31067" lon="7.3607">
        <ele>235.6</ele>
        <time>2023-07-23T08:54:22Z</time>
      </trkpt>
      <trkpt lat="48.31074" lon="7.36065">
        <ele>235.7</ele>
        <time>2023-07-23T08:54:23Z</time>
      </trkpt>
      <trkpt lat="48.31081" lon="7.3606">
        <ele>235.8</ele>
        <time>2023-07-23T08:54:24Z</time>
      </trkpt>
      <trkpt lat="48.31088" lon="7.36055">
        <ele>235.8</ele>
        <time>2023-07-23T08:54:25Z</time>
      </trkpt>
      <trkpt lat="48.31094" lon="7.3605">
        <ele>235.9</ele>
        <time>2023-07-23T08:54:26Z</time>
      </trkpt>
      <trkpt lat="48.31101" lon="7.36044">
        <ele>235.9</ele>
        <time>2023-07-23T08:54:27Z</time>
      </trkpt>
      <trkpt lat="48.31108" lon="7.36039">
        <ele>235.9</ele>
        <time>2023-07-23T08:54:28Z</time>
      </trkpt>
      <trkpt lat="48.31115" lon="7.36034">
        <ele>236</ele>
        <time>2023-07-23T08:54:29Z</time>
      </trkpt>
      <trkpt lat="48.31122" lon="7.36029">
        <ele>236.1</ele>
        <time>2023-07-23T08:54:30Z</time>
      </trkpt>
      <trkpt lat="48.31129" lon="7.36023">
        <ele>236.1</ele>
        <time>2023-07-23T08:54:31Z</time>
      </trkpt>
      <trkpt lat="48.31136" lon="7.36018">
        <ele>236.2</ele>
        <time>2023-07-23T08:54:33Z</time>
      </trkpt>
      <trkpt lat="48.31142" lon="7.36014">
        <ele>236.2</ele>
        <time>2023-07-23T08:54:34Z</time>
      </trkpt>
      <trkpt lat="48.31149" lon="7.36009">
        <ele>236.2</ele>
        <time>2023-07-23T08:54:35Z</time>
      </trkpt>
      <trkpt lat="48.31156" lon="7.36004">
        <ele>236.2</ele>
        <time>2023-07-23T08:54:36Z</time>
      </trkpt>
      <trkpt lat="48.31162" lon="7.35998">
        <ele>236.2</ele>
        <time>2023-07-23T08:54:37Z</time>
      </trkpt>
      <trkpt lat="48.31169" lon="7.35993">
        <ele>236.2</ele>
        <time>2023-07-23T08:54:38Z</time>
      </trkpt>
      <trkpt lat="48.31176" lon="7.35989">
        <ele>236.2</ele>
        <time>2023-07-23T08:54:39Z</time>
      </trkpt>
      <trkpt lat="48.31183" lon="7.35984">
        <ele>236.1</ele>
        <time>2023-07-23T08:54:40Z</time>
      </trkpt>
      <trkpt lat="48.3119" lon="7.35978">
        <ele>236</ele>
        <time>2023-07-23T08:54:41Z</time>
      </trkpt>
      <trkpt lat="48.31197" lon="7.35973">
        <ele>235.9</ele>
        <time>2023-07-23T08:54:42Z</time>
      </trkpt>
      <trkpt lat="48.31204" lon="7.35968">
        <ele>235.8</ele>
        <time>2023-07-23T08:54:43Z</time>
      </trkpt>
      <trkpt lat="48.31211" lon="7.35963">
        <ele>235.7</ele>
        <time>2023-07-23T08:54:44Z</time>
      </trkpt>
      <trkpt lat="48.31218" lon="7.35958">
        <ele>235.6</ele>
        <time>2023-07-23T08:54:45Z</time>
      </trkpt>
      <trkpt lat="48.31225" lon="7.35953">
        <ele>235.6</ele>
        <time>2023-07-23T08:54:46Z</time>
      </trkpt>
      <trkpt lat="48.31233" lon="7.35948">
        <ele>235.5</ele>
        <time>2023-07-23T08:54:47Z</time>
      </trkpt>
      <trkpt lat="48.3124" lon="7.35943">
        <ele>235.4</ele>
        <time>2023-07-23T08:54:48Z</time>
      </trkpt>
      <trkpt lat="48.31247" lon="7.35938">
        <ele>235.4</ele>
        <time>2023-07-23T08:54:49Z</time>
      </trkpt>
      <trkpt lat="48.31255" lon="7.35933">
        <ele>235.3</ele>
        <time>2023-07-23T08:54:50Z</time>
      </trkpt>
      <trkpt lat="48.31262" lon="7.35927">
        <ele>235.3</ele>
        <time>2023-07-23T08:54:51Z</time>
      </trkpt>
      <trkpt lat="48.31269" lon="7.35922">
        <ele>235.2</ele>
        <time>2023-07-23T08:54:52Z</time>
      </trkpt>
      <trkpt lat="48.31277" lon="7.35916">
        <ele>235.2</ele>
        <time>2023-07-23T08:54:53Z</time>
      </trkpt>
      <trkpt lat="48.31284" lon="7.35911">
        <ele>235.2</ele>
        <time>2023-07-23T08:54:54Z</time>
      </trkpt>
      <trkpt lat="48.3129" lon="7.35906">
        <ele>235.2</ele>
        <time>2023-07-23T08:54:55Z</time>
      </trkpt>
      <trkpt lat="48.31297" lon="7.35901">
        <ele>235.2</ele>
        <time>2023-07-23T08:54:56Z</time>
      </trkpt>
      <trkpt lat="48.31304" lon="7.35896">
        <ele>235.2</ele>
        <time>2023-07-23T08:54:57Z</time>
      </trkpt>
      <trkpt lat="48.31311" lon="7.35891">
        <ele>235.1</ele>
        <time>2023-07-23T08:54:58Z</time>
      </trkpt>
      <trkpt lat="48.31319" lon="7.35885">
        <ele>235.1</ele>
        <time>2023-07-23T08:54:59Z</time>
      </trkpt>
      <trkpt lat="48.31326" lon="7.3588">
        <ele>235</ele>
        <time>2023-07-23T08:55:00Z</time>
      </trkpt>
      <trkpt lat="48.31333" lon="7.35874">
        <ele>234.9</ele>
        <time>2023-07-23T08:55:01Z</time>
      </trkpt>
      <trkpt lat="48.31341" lon="7.35868">
        <ele>234.9</ele>
        <time>2023-07-23T08:55:02Z</time>
      </trkpt>
      <trkpt lat="48.31348" lon="7.35863">
        <ele>234.9</ele>
        <time>2023-07-23T08:55:03Z</time>
      </trkpt>
      <trkpt lat="48.31356" lon="7.35858">
        <ele>234.9</ele>
        <time>2023-07-23T08:55:04Z</time>
      </trkpt>
      <trkpt lat="48.31363" lon="7.35853">
        <ele>234.9</ele>
        <time>2023-07-23T08:55:05Z</time>
      </trkpt>
      <trkpt lat="48.3137" lon="7.35848">
        <ele>234.9</ele>
        <time>2023-07-23T08:55:06Z</time>
      </trkpt>
      <trkpt lat="48.31377" lon="7.35843">
        <ele>234.9</ele>
        <time>2023-07-23T08:55:07Z</time>
      </trkpt>
      <trkpt lat="48.31383" lon="7.35838">
        <ele>234.9</ele>
        <time>2023-07-23T08:55:08Z</time>
      </trkpt>
      <trkpt lat="48.3139" lon="7.35833">
        <ele>234.9</ele>
        <time>2023-07-23T08:55:09Z</time>
      </trkpt>
      <trkpt lat="48.31397" lon="7.35828">
        <ele>234.9</ele>
        <time>2023-07-23T08:55:10Z</time>
      </trkpt>
      <trkpt lat="48.31403" lon="7.35823">
        <ele>234.9</ele>
        <time>2023-07-23T08:55:11Z</time>
      </trkpt>
      <trkpt lat="48.3141" lon="7.35818">
        <ele>234.8</ele>
        <time>2023-07-23T08:55:12Z</time>
      </trkpt>
      <trkpt lat="48.31417" lon="7.35813">
        <ele>234.7</ele>
        <time>2023-07-23T08:55:13Z</time>
      </trkpt>
      <trkpt lat="48.31423" lon="7.35808">
        <ele>234.7</ele>
        <time>2023-07-23T08:55:14Z</time>
      </trkpt>
      <trkpt lat="48.3143" lon="7.35803">
        <ele>234.6</ele>
        <time>2023-07-23T08:55:15Z</time>
      </trkpt>
      <trkpt lat="48.31437" lon="7.35799">
        <ele>234.5</ele>
        <time>2023-07-23T08:55:16Z</time>
      </trkpt>
      <trkpt lat="48.31443" lon="7.35794">
        <ele>234.5</ele>
        <time>2023-07-23T08:55:17Z</time>
      </trkpt>
      <trkpt lat="48.3145" lon="7.35789">
        <ele>234.5</ele>
        <time>2023-07-23T08:55:18Z</time>
      </trkpt>
      <trkpt lat="48.31456" lon="7.35784">
        <ele>234.5</ele>
        <time>2023-07-23T08:55:19Z</time>
      </trkpt>
      <trkpt lat="48.31463" lon="7.35779">
        <ele>234.5</ele>
        <time>2023-07-23T08:55:20Z</time>
      </trkpt>
      <trkpt lat="48.31469" lon="7.35775">
        <ele>234.5</ele>
        <time>2023-07-23T08:55:21Z</time>
      </trkpt>
      <trkpt lat="48.31476" lon="7.3577">
        <ele>234.6</ele>
        <time>2023-07-23T08:55:22Z</time>
      </trkpt>
      <trkpt lat="48.31482" lon="7.35766">
        <ele>234.7</ele>
        <time>2023-07-23T08:55:23Z</time>
      </trkpt>
      <trkpt lat="48.31488" lon="7.35761">
        <ele>234.7</ele>
        <time>2023-07-23T08:55:24Z</time>
      </trkpt>
      <trkpt lat="48.31494" lon="7.35756">
        <ele>234.8</ele>
        <time>2023-07-23T08:55:25Z</time>
      </trkpt>
      <trkpt lat="48.315" lon="7.35752">
        <ele>234.9</ele>
        <time>2023-07-23T08:55:26Z</time>
      </trkpt>
      <trkpt lat="48.31506" lon="7.35746">
        <ele>235</ele>
        <time>2023-07-23T08:55:27Z</time>
      </trkpt>
      <trkpt lat="48.31512" lon="7.35741">
        <ele>235.1</ele>
        <time>2023-07-23T08:55:28Z</time>
      </trkpt>
      <trkpt lat="48.31518" lon="7.35736">
        <ele>235.2</ele>
        <time>2023-07-23T08:55:29Z</time>
      </trkpt>
      <trkpt lat="48.31523" lon="7.3573">
        <ele>235.3</ele>
        <time>2023-07-23T08:55:30Z</time>
      </trkpt>
      <trkpt lat="48.31529" lon="7.35724">
        <ele>235.4</ele>
        <time>2023-07-23T08:55:31Z</time>
      </trkpt>
      <trkpt lat="48.31534" lon="7.35718">
        <ele>235.4</ele>
        <time>2023-07-23T08:55:32Z</time>
      </trkpt>
      <trkpt lat="48.31539" lon="7.35712">
        <ele>235.5</ele>
        <time>2023-07-23T08:55:33Z</time>
      </trkpt>
      <trkpt lat="48.31544" lon="7.35705">
        <ele>235.5</ele>
        <time>2023-07-23T08:55:34Z</time>
      </trkpt>
      <trkpt lat="48.31549" lon="7.35699">
        <ele>235.6</ele>
        <time>2023-07-23T08:55:35Z</time>
      </trkpt>
      <trkpt lat="48.31553" lon="7.35691">
        <ele>235.6</ele>
        <time>2023-07-23T08:55:36Z</time>
      </trkpt>
      <trkpt lat="48.31558" lon="7.35684">
        <ele>235.5</ele>
        <time>2023-07-23T08:55:37Z</time>
      </trkpt>
      <trkpt lat="48.31563" lon="7.35677">
        <ele>235.5</ele>
        <time>2023-07-23T08:55:38Z</time>
      </trkpt>
      <trkpt lat="48.31568" lon="7.35669">
        <ele>235.5</ele>
        <time>2023-07-23T08:55:39Z</time>
      </trkpt>
      <trkpt lat="48.31573" lon="7.35661">
        <ele>235.3</ele>
        <time>2023-07-23T08:55:40Z</time>
      </trkpt>
      <trkpt lat="48.31583" lon="7.35645">
        <ele>235.1</ele>
        <time>2023-07-23T08:55:41Z</time>
      </trkpt>
      <trkpt lat="48.31588" lon="7.35637">
        <ele>234.9</ele>
        <time>2023-07-23T08:55:42Z</time>
      </trkpt>
      <trkpt lat="48.31593" lon="7.35629">
        <ele>234.8</ele>
        <time>2023-07-23T08:55:43Z</time>
      </trkpt>
      <trkpt lat="48.31599" lon="7.3562">
        <ele>234.6</ele>
        <time>2023-07-23T08:55:44Z</time>
      </trkpt>
      <trkpt lat="48.31604" lon="7.35611">
        <ele>234.5</ele>
        <time>2023-07-23T08:55:45Z</time>
      </trkpt>
      <trkpt lat="48.31609" lon="7.35602">
        <ele>234.3</ele>
        <time>2023-07-23T08:55:46Z</time>
      </trkpt>
      <trkpt lat="48.31615" lon="7.35593">
        <ele>234.1</ele>
        <time>2023-07-23T08:55:47Z</time>
      </trkpt>
      <trkpt lat="48.3162" lon="7.35584">
        <ele>233.9</ele>
        <time>2023-07-23T08:55:48Z</time>
      </trkpt>
      <trkpt lat="48.31626" lon="7.35576">
        <ele>233.8</ele>
        <time>2023-07-23T08:55:49Z</time>
      </trkpt>
      <trkpt lat="48.31631" lon="7.35567">
        <ele>233.6</ele>
        <time>2023-07-23T08:55:50Z</time>
      </trkpt>
      <trkpt lat="48.31637" lon="7.35558">
        <ele>233.4</ele>
        <time>2023-07-23T08:55:51Z</time>
      </trkpt>
      <trkpt lat="48.31643" lon="7.35549">
        <ele>233.3</ele>
        <time>2023-07-23T08:55:52Z</time>
      </trkpt>
      <trkpt lat="48.31648" lon="7.35539">
        <ele>233.2</ele>
        <time>2023-07-23T08:55:53Z</time>
      </trkpt>
      <trkpt lat="48.31653" lon="7.3553">
        <ele>233</ele>
        <time>2023-07-23T08:55:54Z</time>
      </trkpt>
      <trkpt lat="48.31659" lon="7.35521">
        <ele>232.9</ele>
        <time>2023-07-23T08:55:55Z</time>
      </trkpt>
      <trkpt lat="48.31665" lon="7.35512">
        <ele>232.8</ele>
        <time>2023-07-23T08:55:56Z</time>
      </trkpt>
      <trkpt lat="48.3167" lon="7.35503">
        <ele>232.8</ele>
        <time>2023-07-23T08:55:57Z</time>
      </trkpt>
      <trkpt lat="48.31676" lon="7.35494">
        <ele>232.7</ele>
        <time>2023-07-23T08:55:58Z</time>
      </trkpt>
      <trkpt lat="48.31681" lon="7.35486">
        <ele>232.6</ele>
        <time>2023-07-23T08:55:59Z</time>
      </trkpt>
      <trkpt lat="48.31687" lon="7.35477">
        <ele>232.5</ele>
        <time>2023-07-23T08:56:00Z</time>
      </trkpt>
      <trkpt lat="48.31692" lon="7.35468">
        <ele>232.4</ele>
        <time>2023-07-23T08:56:01Z</time>
      </trkpt>
      <trkpt lat="48.31697" lon="7.3546">
        <ele>232.4</ele>
        <time>2023-07-23T08:56:02Z</time>
      </trkpt>
      <trkpt lat="48.31702" lon="7.35451">
        <ele>232.4</ele>
        <time>2023-07-23T08:56:03Z</time>
      </trkpt>
      <trkpt lat="48.31707" lon="7.35443">
        <ele>232.4</ele>
        <time>2023-07-23T08:56:04Z</time>
      </trkpt>
      <trkpt lat="48.31712" lon="7.35434">
        <ele>232.4</ele>
        <time>2023-07-23T08:56:05Z</time>
      </trkpt>
      <trkpt lat="48.31717" lon="7.35426">
        <ele>232.3</ele>
        <time>2023-07-23T08:56:06Z</time>
      </trkpt>
      <trkpt lat="48.31723" lon="7.35417">
        <ele>232.3</ele>
        <time>2023-07-23T08:56:07Z</time>
      </trkpt>
      <trkpt lat="48.31728" lon="7.35409">
        <ele>232.2</ele>
        <time>2023-07-23T08:56:08Z</time>
      </trkpt>
      <trkpt lat="48.31734" lon="7.354">
        <ele>232.2</ele>
        <time>2023-07-23T08:56:09Z</time>
      </trkpt>
      <trkpt lat="48.31739" lon="7.35391">
        <ele>232.2</ele>
        <time>2023-07-23T08:56:10Z</time>
      </trkpt>
      <trkpt lat="48.31744" lon="7.35382">
        <ele>232.2</ele>
        <time>2023-07-23T08:56:11Z</time>
      </trkpt>
      <trkpt lat="48.31749" lon="7.35373">
        <ele>232.3</ele>
        <time>2023-07-23T08:56:12Z</time>
      </trkpt>
      <trkpt lat="48.31755" lon="7.35364">
        <ele>232.3</ele>
        <time>2023-07-23T08:56:13Z</time>
      </trkpt>
      <trkpt lat="48.3176" lon="7.35355">
        <ele>232.2</ele>
        <time>2023-07-23T08:56:14Z</time>
      </trkpt>
      <trkpt lat="48.31765" lon="7.35346">
        <ele>232.2</ele>
        <time>2023-07-23T08:56:15Z</time>
      </trkpt>
      <trkpt lat="48.31771" lon="7.35337">
        <ele>232.2</ele>
        <time>2023-07-23T08:56:16Z</time>
      </trkpt>
      <trkpt lat="48.31776" lon="7.35329">
        <ele>232.2</ele>
        <time>2023-07-23T08:56:17Z</time>
      </trkpt>
      <trkpt lat="48.31781" lon="7.35321">
        <ele>232.1</ele>
        <time>2023-07-23T08:56:18Z</time>
      </trkpt>
      <trkpt lat="48.31787" lon="7.35313">
        <ele>232.1</ele>
        <time>2023-07-23T08:56:19Z</time>
      </trkpt>
      <trkpt lat="48.31792" lon="7.35305">
        <ele>232.1</ele>
        <time>2023-07-23T08:56:20Z</time>
      </trkpt>
      <trkpt lat="48.31798" lon="7.35296">
        <ele>232</ele>
        <time>2023-07-23T08:56:21Z</time>
      </trkpt>
      <trkpt lat="48.31803" lon="7.35288">
        <ele>232</ele>
        <time>2023-07-23T08:56:22Z</time>
      </trkpt>
      <trkpt lat="48.31808" lon="7.35279">
        <ele>232</ele>
        <time>2023-07-23T08:56:23Z</time>
      </trkpt>
      <trkpt lat="48.31813" lon="7.3527">
        <ele>231.9</ele>
        <time>2023-07-23T08:56:24Z</time>
      </trkpt>
      <trkpt lat="48.31818" lon="7.35261">
        <ele>231.9</ele>
        <time>2023-07-23T08:56:25Z</time>
      </trkpt>
      <trkpt lat="48.31823" lon="7.35252">
        <ele>231.8</ele>
        <time>2023-07-23T08:56:26Z</time>
      </trkpt>
      <trkpt lat="48.31829" lon="7.35244">
        <ele>231.8</ele>
        <time>2023-07-23T08:56:27Z</time>
      </trkpt>
      <trkpt lat="48.31835" lon="7.35235">
        <ele>231.8</ele>
        <time>2023-07-23T08:56:28Z</time>
      </trkpt>
      <trkpt lat="48.3184" lon="7.35227">
        <ele>231.8</ele>
        <time>2023-07-23T08:56:29Z</time>
      </trkpt>
      <trkpt lat="48.31846" lon="7.35219">
        <ele>231.7</ele>
        <time>2023-07-23T08:56:30Z</time>
      </trkpt>
      <trkpt lat="48.31851" lon="7.3521">
        <ele>231.7</ele>
        <time>2023-07-23T08:56:31Z</time>
      </trkpt>
      <trkpt lat="48.31856" lon="7.35201">
        <ele>231.6</ele>
        <time>2023-07-23T08:56:32Z</time>
      </trkpt>
      <trkpt lat="48.31861" lon="7.35192">
        <ele>231.5</ele>
        <time>2023-07-23T08:56:33Z</time>
      </trkpt>
      <trkpt lat="48.31867" lon="7.35184">
        <ele>231.4</ele>
        <time>2023-07-23T08:56:34Z</time>
      </trkpt>
      <trkpt lat="48.31872" lon="7.35175">
        <ele>231.4</ele>
        <time>2023-07-23T08:56:35Z</time>
      </trkpt>
      <trkpt lat="48.31877" lon="7.35166">
        <ele>231.3</ele>
        <time>2023-07-23T08:56:36Z</time>
      </trkpt>
      <trkpt lat="48.31882" lon="7.35158">
        <ele>231.3</ele>
        <time>2023-07-23T08:56:37Z</time>
      </trkpt>
      <trkpt lat="48.31887" lon="7.35149">
        <ele>231.3</ele>
        <time>2023-07-23T08:56:39Z</time>
      </trkpt>
      <trkpt lat="48.31892" lon="7.35141">
        <ele>231.3</ele>
        <time>2023-07-23T08:56:40Z</time>
      </trkpt>
      <trkpt lat="48.31897" lon="7.35132">
        <ele>231.3</ele>
        <time>2023-07-23T08:56:41Z</time>
      </trkpt>
      <trkpt lat="48.31902" lon="7.35125">
        <ele>231.4</ele>
        <time>2023-07-23T08:56:42Z</time>
      </trkpt>
      <trkpt lat="48.31907" lon="7.35118">
        <ele>231.4</ele>
        <time>2023-07-23T08:56:43Z</time>
      </trkpt>
      <trkpt lat="48.31911" lon="7.3511">
        <ele>231.5</ele>
        <time>2023-07-23T08:56:44Z</time>
      </trkpt>
      <trkpt lat="48.31915" lon="7.35102">
        <ele>231.5</ele>
        <time>2023-07-23T08:56:45Z</time>
      </trkpt>
      <trkpt lat="48.31919" lon="7.35094">
        <ele>231.6</ele>
        <time>2023-07-23T08:56:46Z</time>
      </trkpt>
      <trkpt lat="48.31923" lon="7.35085">
        <ele>231.7</ele>
        <time>2023-07-23T08:56:47Z</time>
      </trkpt>
      <trkpt lat="48.31928" lon="7.35077">
        <ele>231.7</ele>
        <time>2023-07-23T08:56:48Z</time>
      </trkpt>
      <trkpt lat="48.31933" lon="7.35069">
        <ele>231.8</ele>
        <time>2023-07-23T08:56:49Z</time>
      </trkpt>
      <trkpt lat="48.31939" lon="7.35061">
        <ele>231.9</ele>
        <time>2023-07-23T08:56:50Z</time>
      </trkpt>
      <trkpt lat="48.31945" lon="7.35053">
        <ele>232</ele>
        <time>2023-07-23T08:56:51Z</time>
      </trkpt>
      <trkpt lat="48.31951" lon="7.35045">
        <ele>232</ele>
        <time>2023-07-23T08:56:52Z</time>
      </trkpt>
      <trkpt lat="48.31957" lon="7.35037">
        <ele>232.1</ele>
        <time>2023-07-23T08:56:53Z</time>
      </trkpt>
      <trkpt lat="48.31963" lon="7.35029">
        <ele>232.2</ele>
        <time>2023-07-23T08:56:54Z</time>
      </trkpt>
      <trkpt lat="48.31968" lon="7.35021">
        <ele>232.2</ele>
        <time>2023-07-23T08:56:55Z</time>
      </trkpt>
      <trkpt lat="48.31973" lon="7.35013">
        <ele>232.3</ele>
        <time>2023-07-23T08:56:56Z</time>
      </trkpt>
      <trkpt lat="48.31978" lon="7.35004">
        <ele>232.4</ele>
        <time>2023-07-23T08:56:57Z</time>
      </trkpt>
      <trkpt lat="48.31983" lon="7.34995">
        <ele>232.4</ele>
        <time>2023-07-23T08:56:58Z</time>
      </trkpt>
      <trkpt lat="48.31988" lon="7.34987">
        <ele>232.4</ele>
        <time>2023-07-23T08:56:59Z</time>
      </trkpt>
      <trkpt lat="48.31993" lon="7.34979">
        <ele>232.5</ele>
        <time>2023-07-23T08:57:00Z</time>
      </trkpt>
      <trkpt lat="48.31998" lon="7.3497">
        <ele>232.5</ele>
        <time>2023-07-23T08:57:01Z</time>
      </trkpt>
      <trkpt lat="48.32003" lon="7.34963">
        <ele>232.5</ele>
        <time>2023-07-23T08:57:02Z</time>
      </trkpt>
      <trkpt lat="48.32008" lon="7.34955">
        <ele>232.6</ele>
        <time>2023-07-23T08:57:03Z</time>
      </trkpt>
      <trkpt lat="48.32012" lon="7.34948">
        <ele>232.6</ele>
        <time>2023-07-23T08:57:04Z</time>
      </trkpt>
      <trkpt lat="48.32015" lon="7.34942">
        <ele>232.7</ele>
        <time>2023-07-23T08:57:05Z</time>
      </trkpt>
      <trkpt lat="48.32017" lon="7.34938">
        <ele>232.7</ele>
        <time>2023-07-23T08:57:06Z</time>
      </trkpt>
      <trkpt lat="48.32019" lon="7.34938">
        <ele>232.8</ele>
        <time>2023-07-23T09:20:00Z</time>
      </trkpt>
      <trkpt lat="48.32022" lon="7.34941">
        <ele>232.7</ele>
        <time>2023-07-23T09:20:01Z</time>
      </trkpt>
      <trkpt lat="48.32025" lon="7.34945">
        <ele>232.7</ele>
        <time>2023-07-23T09:20:02Z</time>
      </trkpt>
      <trkpt lat="48.32029" lon="7.34949">
        <ele>232.7</ele>
        <time>2023-07-23T09:20:03Z</time>
      </trkpt>
      <trkpt lat="48.32033" lon="7.34953">
        <ele>232.7</ele>
        <time>2023-07-23T09:20:04Z</time>
      </trkpt>
      <trkpt lat="48.32036" lon="7.34959">
        <ele>232.7</ele>
        <time>2023-07-23T09:20:05Z</time>
      </trkpt>
      <trkpt lat="48.3204" lon="7.34966">
        <ele>232.8</ele>
        <time>2023-07-23T09:20:06Z</time>
      </trkpt>
      <trkpt lat="48.32043" lon="7.34972">
        <ele>232.7</ele>
        <time>2023-07-23T09:20:07Z</time>
      </trkpt>
      <trkpt lat="48.32047" lon="7.34978">
        <ele>232.7</ele>
        <time>2023-07-23T09:20:08Z</time>
      </trkpt>
      <trkpt lat="48.32051" lon="7.34985">
        <ele>232.7</ele>
        <time>2023-07-23T09:20:09Z</time>
      </trkpt>
      <trkpt lat="48.32055" lon="7.34992">
        <ele>232.6</ele>
        <time>2023-07-23T09:20:10Z</time>
      </trkpt>
      <trkpt lat="48.32059" lon="7.34998">
        <ele>232.6</ele>
        <time>2023-07-23T09:20:11Z</time>
      </trkpt>
      <trkpt lat="48.32064" lon="7.35005">
        <ele>232.6</ele>
        <time>2023-07-23T09:20:12Z</time>
      </trkpt>
      <trkpt lat="48.32068" lon="7.35011">
        <ele>232.5</ele>
        <time>2023-07-23T09:20:13Z</time>
      </trkpt>
      <trkpt lat="48.32072" lon="7.35018">
        <ele>232.5</ele>
        <time>2023-07-23T09:20:14Z</time>
      </trkpt>
      <trkpt lat="48.32076" lon="7.35024">
        <ele>232.5</ele>
        <time>2023-07-23T09:20:15Z</time>
      </trkpt>
      <trkpt lat="48.3208" lon="7.35031">
        <ele>232.5</ele>
        <time>2023-07-23T09:20:16Z</time>
      </trkpt>
      <trkpt lat="48.32084" lon="7.35037">
        <ele>232.5</ele>
        <time>2023-07-23T09:20:17Z</time>
      </trkpt>
      <trkpt lat="48.32088" lon="7.35044">
        <ele>232.6</ele>
        <time>2023-07-23T09:20:18Z</time>
      </trkpt>
      <trkpt lat="48.32092" lon="7.3505">
        <ele>232.6</ele>
        <time>2023-07-23T09:20:19Z</time>
      </trkpt>
      <trkpt lat="48.32096" lon="7.35056">
        <ele>232.5</ele>
        <time>2023-07-23T09:20:20Z</time>
      </trkpt>
      <trkpt lat="48.32101" lon="7.35061">
        <ele>232.5</ele>
        <time>2023-07-23T09:20:21Z</time>
      </trkpt>
      <trkpt lat="48.32106" lon="7.35065">
        <ele>232.5</ele>
        <time>2023-07-23T09:20:22Z</time>
      </trkpt>
      <trkpt lat="48.32111" lon="7.35069">
        <ele>232.6</ele>
        <time>2023-07-23T09:20:23Z</time>
      </trkpt>
      <trkpt lat="48.32116" lon="7.35072">
        <ele>232.6</ele>
        <time>2023-07-23T09:20:24Z</time>
      </trkpt>
      <trkpt lat="48.32121" lon="7.35075">
        <ele>232.7</ele>
        <time>2023-07-23T09:20:25Z</time>
      </trkpt>
      <trkpt lat="48.32126" lon="7.35077">
        <ele>232.7</ele>
        <time>2023-07-23T09:20:26Z</time>
      </trkpt>
      <trkpt lat="48.32132" lon="7.3508">
        <ele>232.8</ele>
        <time>2023-07-23T09:20:27Z</time>
      </trkpt>
      <trkpt lat="48.32137" lon="7.35083">
        <ele>232.9</ele>
        <time>2023-07-23T09:20:28Z</time>
      </trkpt>
      <trkpt lat="48.32142" lon="7.35085">
        <ele>233</ele>
        <time>2023-07-23T09:20:29Z</time>
      </trkpt>
      <trkpt lat="48.32147" lon="7.35088">
        <ele>233.2</ele>
        <time>2023-07-23T09:20:30Z</time>
      </trkpt>
      <trkpt lat="48.32152" lon="7.35091">
        <ele>233.3</ele>
        <time>2023-07-23T09:20:31Z</time>
      </trkpt>
      <trkpt lat="48.32157" lon="7.35094">
        <ele>233.4</ele>
        <time>2023-07-23T09:20:32Z</time>
      </trkpt>
      <trkpt lat="48.32161" lon="7.35096">
        <ele>233.5</ele>
        <time>2023-07-23T09:20:33Z</time>
      </trkpt>
      <trkpt lat="48.32166" lon="7.351">
        <ele>233.6</ele>
        <time>2023-07-23T09:20:34Z</time>
      </trkpt>
      <trkpt lat="48.3217" lon="7.35104">
        <ele>233.8</ele>
        <time>2023-07-23T09:20:35Z</time>
      </trkpt>
      <trkpt lat="48.32174" lon="7.35109">
        <ele>233.9</ele>
        <time>2023-07-23T09:20:36Z</time>
      </trkpt>
      <trkpt lat="48.32178" lon="7.35113">
        <ele>234</ele>
        <time>2023-07-23T09:20:37Z</time>
      </trkpt>
      <trkpt lat="48.32182" lon="7.35117">
        <ele>234.1</ele>
        <time>2023-07-23T09:20:38Z</time>
      </trkpt>
      <trkpt lat="48.32186" lon="7.35121">
        <ele>234.3</ele>
        <time>2023-07-23T09:20:39Z</time>
      </trkpt>
      <trkpt lat="48.3219" lon="7.35125">
        <ele>234.4</ele>
        <time>2023-07-23T09:20:40Z</time>
      </trkpt>
      <trkpt lat="48.32194" lon="7.35128">
        <ele>234.5</ele>
        <time>2023-07-23T09:20:41Z</time>
      </trkpt>
      <trkpt lat="48.32199" lon="7.35133">
        <ele>234.6</ele>
        <time>2023-07-23T09:20:42Z</time>
      </trkpt>
      <trkpt lat="48.32203" lon="7.35137">
        <ele>234.8</ele>
        <time>2023-07-23T09:20:43Z</time>
      </trkpt>
      <trkpt lat="48.32207" lon="7.35141">
        <ele>234.9</ele>
        <time>2023-07-23T09:20:44Z</time>
      </trkpt>
      <trkpt lat="48.32211" lon="7.35145">
        <ele>235</ele>
        <time>2023-07-23T09:20:45Z</time>
      </trkpt>
      <trkpt lat="48.32216" lon="7.35149">
        <ele>235.1</ele>
        <time>2023-07-23T09:20:46Z</time>
      </trkpt>
      <trkpt lat="48.3222" lon="7.35153">
        <ele>235.3</ele>
        <time>2023-07-23T09:20:47Z</time>
      </trkpt>
      <trkpt lat="48.32225" lon="7.35157">
        <ele>235.4</ele>
        <time>2023-07-23T09:20:48Z</time>
      </trkpt>
      <trkpt lat="48.32229" lon="7.3516">
        <ele>235.5</ele>
        <time>2023-07-23T09:20:49Z</time>
      </trkpt>
      <trkpt lat="48.32233" lon="7.35165">
        <ele>235.6</ele>
        <time>2023-07-23T09:20:50Z</time>
      </trkpt>
      <trkpt lat="48.32237" lon="7.3517">
        <ele>235.7</ele>
        <time>2023-07-23T09:20:51Z</time>
      </trkpt>
      <trkpt lat="48.32242" lon="7.35175">
        <ele>235.9</ele>
        <time>2023-07-23T09:20:52Z</time>
      </trkpt>
      <trkpt lat="48.32246" lon="7.35179">
        <ele>236</ele>
        <time>2023-07-23T09:20:53Z</time>
      </trkpt>
      <trkpt lat="48.3225" lon="7.35182">
        <ele>236.2</ele>
        <time>2023-07-23T09:20:54Z</time>
      </trkpt>
      <trkpt lat="48.32254" lon="7.35186">
        <ele>236.3</ele>
        <time>2023-07-23T09:20:55Z</time>
      </trkpt>
      <trkpt lat="48.32258" lon="7.3519">
        <ele>236.4</ele>
        <time>2023-07-23T09:20:56Z</time>
      </trkpt>
      <trkpt lat="48.32263" lon="7.35193">
        <ele>236.5</ele>
        <time>2023-07-23T09:20:57Z</time>
      </trkpt>
      <trkpt lat="48.32267" lon="7.35197">
        <ele>236.5</ele>
        <time>2023-07-23T09:20:58Z</time>
      </trkpt>
      <trkpt lat="48.32271" lon="7.35201">
        <ele>236.6</ele>
        <time>2023-07-23T09:20:59Z</time>
      </trkpt>
      <trkpt lat="48.32275" lon="7.35205">
        <ele>236.7</ele>
        <time>2023-07-23T09:21:00Z</time>
      </trkpt>
      <trkpt lat="48.32279" lon="7.35209">
        <ele>236.8</ele>
        <time>2023-07-23T09:21:01Z</time>
      </trkpt>
      <trkpt lat="48.32284" lon="7.35214">
        <ele>236.9</ele>
        <time>2023-07-23T09:21:02Z</time>
      </trkpt>
      <trkpt lat="48.32288" lon="7.35218">
        <ele>237.1</ele>
        <time>2023-07-23T09:21:03Z</time>
      </trkpt>
      <trkpt lat="48.32292" lon="7.35222">
        <ele>237.2</ele>
        <time>2023-07-23T09:21:04Z</time>
      </trkpt>
      <trkpt lat="48.32297" lon="7.35226">
        <ele>237.3</ele>
        <time>2023-07-23T09:21:05Z</time>
      </trkpt>
      <trkpt lat="48.32301" lon="7.3523">
        <ele>237.5</ele>
        <time>2023-07-23T09:21:06Z</time>
      </trkpt>
      <trkpt lat="48.32306" lon="7.35235">
        <ele>237.6</ele>
        <time>2023-07-23T09:21:07Z</time>
      </trkpt>
      <trkpt lat="48.3231" lon="7.35239">
        <ele>237.7</ele>
        <time>2023-07-23T09:21:08Z</time>
      </trkpt>
      <trkpt lat="48.32315" lon="7.35244">
        <ele>237.8</ele>
        <time>2023-07-23T09:21:09Z</time>
      </trkpt>
      <trkpt lat="48.32319" lon="7.35248">
        <ele>238</ele>
        <time>2023-07-23T09:21:10Z</time>
      </trkpt>
      <trkpt lat="48.32324" lon="7.35253">
        <ele>238.1</ele>
        <time>2023-07-23T09:21:11Z</time>
      </trkpt>
      <trkpt lat="48.32328" lon="7.35258">
        <ele>238.2</ele>
        <time>2023-07-23T09:21:12Z</time>
      </trkpt>
      <trkpt lat="48.32332" lon="7.35263">
        <ele>238.4</ele>
        <time>2023-07-23T09:21:13Z</time>
      </trkpt>
      <trkpt lat="48.32336" lon="7.35269">
        <ele>238.5</ele>
        <time>2023-07-23T09:21:14Z</time>
      </trkpt>
      <trkpt lat="48.3234" lon="7.35274">
        <ele>238.6</ele>
        <time>2023-07-23T09:21:15Z</time>
      </trkpt>
      <trkpt lat="48.32343" lon="7.3528">
        <ele>238.7</ele>
        <time>2023-07-23T09:21:16Z</time>
      </trkpt>
      <trkpt lat="48.32347" lon="7.35286">
        <ele>238.8</ele>
        <time>2023-07-23T09:21:17Z</time>
      </trkpt>
      <trkpt lat="48.32351" lon="7.35292">
        <ele>238.9</ele>
        <time>2023-07-23T09:21:18Z</time>
      </trkpt>
      <trkpt lat="48.32354" lon="7.35299">
        <ele>239</ele>
        <time>2023-07-23T09:21:19Z</time>
      </trkpt>
      <trkpt lat="48.32358" lon="7.35305">
        <ele>239.1</ele>
        <time>2023-07-23T09:21:20Z</time>
      </trkpt>
      <trkpt lat="48.32361" lon="7.35312">
        <ele>239.2</ele>
        <time>2023-07-23T09:21:21Z</time>
      </trkpt>
      <trkpt lat="48.32364" lon="7.35319">
        <ele>239.3</ele>
        <time>2023-07-23T09:21:22Z</time>
      </trkpt>
      <trkpt lat="48.32367" lon="7.35326">
        <ele>239.4</ele>
        <time>2023-07-23T09:21:23Z</time>
      </trkpt>
      <trkpt lat="48.3237" lon="7.35333">
        <ele>239.5</ele>
        <time>2023-07-23T09:21:24Z</time>
      </trkpt>
      <trkpt lat="48.32373" lon="7.3534">
        <ele>239.6</ele>
        <time>2023-07-23T09:21:25Z</time>
      </trkpt>
      <trkpt lat="48.32376" lon="7.35346">
        <ele>239.7</ele>
        <time>2023-07-23T09:21:26Z</time>
      </trkpt>
      <trkpt lat="48.32379" lon="7.35353">
        <ele>239.8</ele>
        <time>2023-07-23T09:21:27Z</time>
      </trkpt>
      <trkpt lat="48.32383" lon="7.3536">
        <ele>239.9</ele>
        <time>2023-07-23T09:21:28Z</time>
      </trkpt>
      <trkpt lat="48.32386" lon="7.35367">
        <ele>240</ele>
        <time>2023-07-23T09:21:29Z</time>
      </trkpt>
      <trkpt lat="48.32388" lon="7.35375">
        <ele>240.1</ele>
        <time>2023-07-23T09:21:30Z</time>
      </trkpt>
      <trkpt lat="48.32391" lon="7.35382">
        <ele>240.1</ele>
        <time>2023-07-23T09:21:31Z</time>
      </trkpt>
      <trkpt lat="48.32394" lon="7.35388">
        <ele>240.2</ele>
        <time>2023-07-23T09:21:32Z</time>
      </trkpt>
      <trkpt lat="48.32398" lon="7.35394">
        <ele>240.3</ele>
        <time>2023-07-23T09:21:33Z</time>
      </trkpt>
      <trkpt lat="48.32402" lon="7.35401">
        <ele>240.4</ele>
        <time>2023-07-23T09:21:34Z</time>
      </trkpt>
      <trkpt lat="48.32404" lon="7.35407">
        <ele>240.5</ele>
        <time>2023-07-23T09:21:35Z</time>
      </trkpt>
      <trkpt lat="48.32407" lon="7.35414">
        <ele>240.5</ele>
        <time>2023-07-23T09:21:36Z</time>
      </trkpt>
      <trkpt lat="48.3241" lon="7.35421">
        <ele>240.6</ele>
        <time>2023-07-23T09:21:37Z</time>
      </trkpt>
      <trkpt lat="48.32413" lon="7.35427">
        <ele>240.7</ele>
        <time>2023-07-23T09:21:38Z</time>
      </trkpt>
      <trkpt lat="48.32416" lon="7.35434">
        <ele>240.8</ele>
        <time>2023-07-23T09:21:39Z</time>
      </trkpt>
      <trkpt lat="48.32419" lon="7.3544">
        <ele>240.9</ele>
        <time>2023-07-23T09:21:40Z</time>
      </trkpt>
      <trkpt lat="48.32422" lon="7.35447">
        <ele>240.9</ele>
        <time>2023-07-23T09:21:41Z</time>
      </trkpt>
      <trkpt lat="48.32425" lon="7.35453">
        <ele>241</ele>
        <time>2023-07-23T09:21:42Z</time>
      </trkpt>
      <trkpt lat="48.32429" lon="7.3546">
        <ele>241.1</ele>
        <time>2023-07-23T09:21:43Z</time>
      </trkpt>
      <trkpt lat="48.32431" lon="7.35466">
        <ele>241.2</ele>
        <time>2023-07-23T09:21:44Z</time>
      </trkpt>
      <trkpt lat="48.32434" lon="7.35472">
        <ele>241.3</ele>
        <time>2023-07-23T09:21:45Z</time>
      </trkpt>
      <trkpt lat="48.32438" lon="7.35478">
        <ele>241.4</ele>
        <time>2023-07-23T09:21:46Z</time>
      </trkpt>
      <trkpt lat="48.3244" lon="7.35485">
        <ele>241.5</ele>
        <time>2023-07-23T09:21:47Z</time>
      </trkpt>
      <trkpt lat="48.32443" lon="7.35492">
        <ele>241.6</ele>
        <time>2023-07-23T09:21:48Z</time>
      </trkpt>
      <trkpt lat="48.32446" lon="7.35499">
        <ele>241.7</ele>
        <time>2023-07-23T09:21:49Z</time>
      </trkpt>
      <trkpt lat="48.32449" lon="7.35505">
        <ele>241.7</ele>
        <time>2023-07-23T09:21:50Z</time>
      </trkpt>
      <trkpt lat="48.32452" lon="7.35511">
        <ele>241.8</ele>
        <time>2023-07-23T09:21:51Z</time>
      </trkpt>
      <trkpt lat="48.32455" lon="7.35518">
        <ele>241.9</ele>
        <time>2023-07-23T09:21:52Z</time>
      </trkpt>
      <trkpt lat="48.32458" lon="7.35525">
        <ele>242</ele>
        <time>2023-07-23T09:21:53Z</time>
      </trkpt>
      <trkpt lat="48.32461" lon="7.35532">
        <ele>242.1</ele>
        <time>2023-07-23T09:21:54Z</time>
      </trkpt>
      <trkpt lat="48.32464" lon="7.35539">
        <ele>242.1</ele>
        <time>2023-07-23T09:21:55Z</time>
      </trkpt>
      <trkpt lat="48.32467" lon="7.35545">
        <ele>242.2</ele>
        <time>2023-07-23T09:21:56Z</time>
      </trkpt>
      <trkpt lat="48.3247" lon="7.35552">
        <ele>242.3</ele>
        <time>2023-07-23T09:21:57Z</time>
      </trkpt>
      <trkpt lat="48.32473" lon="7.35558">
        <ele>242.4</ele>
        <time>2023-07-23T09:21:58Z</time>
      </trkpt>
      <trkpt lat="48.32476" lon="7.35565">
        <ele>242.4</ele>
        <time>2023-07-23T09:21:59Z</time>
      </trkpt>
      <trkpt lat="48.32478" lon="7.35572">
        <ele>242.5</ele>
        <time>2023-07-23T09:22:00Z</time>
      </trkpt>
      <trkpt lat="48.32481" lon="7.3558">
        <ele>242.6</ele>
        <time>2023-07-23T09:22:01Z</time>
      </trkpt>
      <trkpt lat="48.32483" lon="7.35587">
        <ele>242.6</ele>
        <time>2023-07-23T09:22:02Z</time>
      </trkpt>
      <trkpt lat="48.32486" lon="7.35594">
        <ele>242.7</ele>
        <time>2023-07-23T09:22:03Z</time>
      </trkpt>
      <trkpt lat="48.32489" lon="7.35601">
        <ele>242.7</ele>
        <time>2023-07-23T09:22:04Z</time>
      </trkpt>
      <trkpt lat="48.32492" lon="7.35608">
        <ele>242.8</ele>
        <time>2023-07-23T09:22:05Z</time>
      </trkpt>
      <trkpt lat="48.32494" lon="7.35615">
        <ele>242.9</ele>
        <time>2023-07-23T09:22:06Z</time>
      </trkpt>
      <trkpt lat="48.32497" lon="7.35622">
        <ele>243</ele>
        <time>2023-07-23T09:22:07Z</time>
      </trkpt>
      <trkpt lat="48.325" lon="7.35629">
        <ele>243.1</ele>
        <time>2023-07-23T09:22:08Z</time>
      </trkpt>
      <trkpt lat="48.32502" lon="7.35637">
        <ele>243.2</ele>
        <time>2023-07-23T09:22:09Z</time>
      </trkpt>
      <trkpt lat="48.32504" lon="7.35644">
        <ele>243.3</ele>
        <time>2023-07-23T09:22:10Z</time>
      </trkpt>
      <trkpt lat="48.32507" lon="7.35652">
        <ele>243.4</ele>
        <time>2023-07-23T09:22:11Z</time>
      </trkpt>
      <trkpt lat="48.32509" lon="7.35659">
        <ele>243.5</ele>
        <time>2023-07-23T09:22:12Z</time>
      </trkpt>
      <trkpt lat="48.32511" lon="7.35666">
        <ele>243.5</ele>
        <time>2023-07-23T09:22:13Z</time>
      </trkpt>
      <trkpt lat="48.32514" lon="7.35674">
        <ele>243.7</ele>
        <time>2023-07-23T09:22:14Z</time>
      </trkpt>
      <trkpt lat="48.32516" lon="7.35681">
        <ele>243.8</ele>
        <time>2023-07-23T09:22:15Z</time>
      </trkpt>
      <trkpt lat="48.32519" lon="7.35688">
        <ele>243.9</ele>
        <time>2023-07-23T09:22:16Z</time>
      </trkpt>
      <trkpt lat="48.32521" lon="7.35695">
        <ele>244</ele>
        <time>2023-07-23T09:22:17Z</time>
      </trkpt>
      <trkpt lat="48.32523" lon="7.35702">
        <ele>244.1</ele>
        <time>2023-07-23T09:22:18Z</time>
      </trkpt>
      <trkpt lat="48.32525" lon="7.3571">
        <ele>244.2</ele>
        <time>2023-07-23T09:22:19Z</time>
      </trkpt>
      <trkpt lat="48.32527" lon="7.35717">
        <ele>244.3</ele>
        <time>2023-07-23T09:22:20Z</time>
      </trkpt>
      <trkpt lat="48.32529" lon="7.35724">
        <ele>244.4</ele>
        <time>2023-07-23T09:22:21Z</time>
      </trkpt>
      <trkpt lat="48.32532" lon="7.35732">
        <ele>244.5</ele>
        <time>2023-07-23T09:22:22Z</time>
      </trkpt>
      <trkpt lat="48.32533" lon="7.35739">
        <ele>244.6</ele>
        <time>2023-07-23T09:22:23Z</time>
      </trkpt>
      <trkpt lat="48.32535" lon="7.35746">
        <ele>244.7</ele>
        <time>2023-07-23T09:22:24Z</time>
      </trkpt>
      <trkpt lat="48.32537" lon="7.35753">
        <ele>244.8</ele>
        <time>2023-07-23T09:22:25Z</time>
      </trkpt>
      <trkpt lat="48.3254" lon="7.3576">
        <ele>244.9</ele>
        <time>2023-07-23T09:22:26Z</time>
      </trkpt>
      <trkpt lat="48.32541" lon="7.35767">
        <ele>245</ele>
        <time>2023-07-23T09:22:27Z</time>
      </trkpt>
      <trkpt lat="48.32543" lon="7.35775">
        <ele>245.1</ele>
        <time>2023-07-23T09:22:28Z</time>
      </trkpt>
      <trkpt lat="48.32546" lon="7.35783">
        <ele>245.2</ele>
        <time>2023-07-23T09:22:29Z</time>
      </trkpt>
      <trkpt lat="48.32547" lon="7.3579">
        <ele>245.2</ele>
        <time>2023-07-23T09:22:30Z</time>
      </trkpt>
      <trkpt lat="48.3255" lon="7.35798">
        <ele>245.3</ele>
        <time>2023-07-23T09:22:31Z</time>
      </trkpt>
      <trkpt lat="48.32552" lon="7.35805">
        <ele>245.4</ele>
        <time>2023-07-23T09:22:32Z</time>
      </trkpt>
      <trkpt lat="48.32554" lon="7.35812">
        <ele>245.5</ele>
        <time>2023-07-23T09:22:33Z</time>
      </trkpt>
      <trkpt lat="48.32556" lon="7.3582">
        <ele>245.6</ele>
        <time>2023-07-23T09:22:34Z</time>
      </trkpt>
      <trkpt lat="48.32558" lon="7.35828">
        <ele>245.7</ele>
        <time>2023-07-23T09:22:35Z</time>
      </trkpt>
      <trkpt lat="48.32561" lon="7.35835">
        <ele>245.8</ele>
        <time>2023-07-23T09:22:36Z</time>
      </trkpt>
      <trkpt lat="48.32563" lon="7.35843">
        <ele>245.8</ele>
        <time>2023-07-23T09:22:37Z</time>
      </trkpt>
      <trkpt lat="48.32565" lon="7.3585">
        <ele>245.9</ele>
        <time>2023-07-23T09:22:38Z</time>
      </trkpt>
      <trkpt lat="48.32567" lon="7.35858">
        <ele>246</ele>
        <time>2023-07-23T09:22:39Z</time>
      </trkpt>
      <trkpt lat="48.32569" lon="7.35866">
        <ele>246.1</ele>
        <time>2023-07-23T09:22:40Z</time>
      </trkpt>
      <trkpt lat="48.32571" lon="7.35874">
        <ele>246.2</ele>
        <time>2023-07-23T09:22:41Z</time>
      </trkpt>
      <trkpt lat="48.32573" lon="7.35881">
        <ele>246.2</ele>
        <time>2023-07-23T09:22:42Z</time>
      </trkpt>
      <trkpt lat="48.32576" lon="7.35889">
        <ele>246.3</ele>
        <time>2023-07-23T09:22:43Z</time>
      </trkpt>
      <trkpt lat="48.32578" lon="7.35897">
        <ele>246.4</ele>
        <time>2023-07-23T09:22:44Z</time>
      </trkpt>
      <trkpt lat="48.32581" lon="7.35905">
        <ele>246.5</ele>
        <time>2023-07-23T09:22:45Z</time>
      </trkpt>
      <trkpt lat="48.32583" lon="7.35913">
        <ele>246.6</ele>
        <time>2023-07-23T09:22:46Z</time>
      </trkpt>
      <trkpt lat="48.32585" lon="7.35921">
        <ele>246.6</ele>
        <time>2023-07-23T09:22:47Z</time>
      </trkpt>
      <trkpt lat="48.32587" lon="7.35929">
        <ele>246.7</ele>
        <time>2023-07-23T09:22:48Z</time>
      </trkpt>
      <trkpt lat="48.3259" lon="7.35937">
        <ele>246.8</ele>
        <time>2023-07-23T09:22:49Z</time>
      </trkpt>
      <trkpt lat="48.32592" lon="7.35945">
        <ele>246.9</ele>
        <time>2023-07-23T09:22:50Z</time>
      </trkpt>
      <trkpt lat="48.32594" lon="7.35954">
        <ele>246.9</ele>
        <time>2023-07-23T09:22:51Z</time>
      </trkpt>
      <trkpt lat="48.32597" lon="7.35962">
        <ele>247</ele>
        <time>2023-07-23T09:22:52Z</time>
      </trkpt>
      <trkpt lat="48.32599" lon="7.3597">
        <ele>247.1</ele>
        <time>2023-07-23T09:22:53Z</time>
      </trkpt>
      <trkpt lat="48.32601" lon="7.35979">
        <ele>247.1</ele>
        <time>2023-07-23T09:22:54Z</time>
      </trkpt>
      <trkpt lat="48.32603" lon="7.35987">
        <ele>247.2</ele>
        <time>2023-07-23T09:22:55Z</time>
      </trkpt>
      <trkpt lat="48.32606" lon="7.35995">
        <ele>247.3</ele>
        <time>2023-07-23T09:22:56Z</time>
      </trkpt>
      <trkpt lat="48.32608" lon="7.36003">
        <ele>247.3</ele>
        <time>2023-07-23T09:22:57Z</time>
      </trkpt>
      <trkpt lat="48.3261" lon="7.36012">
        <ele>247.4</ele>
        <time>2023-07-23T09:22:58Z</time>
      </trkpt>
      <trkpt lat="48.32612" lon="7.3602">
        <ele>247.4</ele>
        <time>2023-07-23T09:22:59Z</time>
      </trkpt>
      <trkpt lat="48.32615" lon="7.36029">
        <ele>247.5</ele>
        <time>2023-07-23T09:23:00Z</time>
      </trkpt>
      <trkpt lat="48.32617" lon="7.36038">
        <ele>247.5</ele>
        <time>2023-07-23T09:23:01Z</time>
      </trkpt>
      <trkpt lat="48.3262" lon="7.36046">
        <ele>247.6</ele>
        <time>2023-07-23T09:23:02Z</time>
      </trkpt>
      <trkpt lat="48.32622" lon="7.36055">
        <ele>247.6</ele>
        <time>2023-07-23T09:23:03Z</time>
      </trkpt>
      <trkpt lat="48.32624" lon="7.36064">
        <ele>247.6</ele>
        <time>2023-07-23T09:23:04Z</time>
      </trkpt>
      <trkpt lat="48.32627" lon="7.36072">
        <ele>247.6</ele>
        <time>2023-07-23T09:23:05Z</time>
      </trkpt>
      <trkpt lat="48.32629" lon="7.36081">
        <ele>247.7</ele>
        <time>2023-07-23T09:23:06Z</time>
      </trkpt>
      <trkpt lat="48.32631" lon="7.36089">
        <ele>247.7</ele>
        <time>2023-07-23T09:23:07Z</time>
      </trkpt>
      <trkpt lat="48.32632" lon="7.36097">
        <ele>247.7</ele>
        <time>2023-07-23T09:23:08Z</time>
      </trkpt>
      <trkpt lat="48.32633" lon="7.36105">
        <ele>247.7</ele>
        <time>2023-07-23T09:23:09Z</time>
      </trkpt>
      <trkpt lat="48.32635" lon="7.36114">
        <ele>247.8</ele>
        <time>2023-07-23T09:23:10Z</time>
      </trkpt>
      <trkpt lat="48.32637" lon="7.36122">
        <ele>247.8</ele>
        <time>2023-07-23T09:23:11Z</time>
      </trkpt>
      <trkpt lat="48.32639" lon="7.36131">
        <ele>247.9</ele>
        <time>2023-07-23T09:23:12Z</time>
      </trkpt>
      <trkpt lat="48.32642" lon="7.36138">
        <ele>248</ele>
        <time>2023-07-23T09:23:13Z</time>
      </trkpt>
      <trkpt lat="48.32645" lon="7.36146">
        <ele>248.1</ele>
        <time>2023-07-23T09:23:14Z</time>
      </trkpt>
      <trkpt lat="48.32648" lon="7.36153">
        <ele>248.2</ele>
        <time>2023-07-23T09:23:15Z</time>
      </trkpt>
      <trkpt lat="48.32651" lon="7.3616">
        <ele>248.3</ele>
        <time>2023-07-23T09:23:16Z</time>
      </trkpt>
      <trkpt lat="48.32654" lon="7.36167">
        <ele>248.4</ele>
        <time>2023-07-23T09:23:17Z</time>
      </trkpt>
      <trkpt lat="48.32657" lon="7.36174">
        <ele>248.6</ele>
        <time>2023-07-23T09:23:18Z</time>
      </trkpt>
      <trkpt lat="48.3266" lon="7.3618">
        <ele>248.8</ele>
        <time>2023-07-23T09:23:19Z</time>
      </trkpt>
      <trkpt lat="48.32663" lon="7.36186">
        <ele>249</ele>
        <time>2023-07-23T09:23:20Z</time>
      </trkpt>
      <trkpt lat="48.32666" lon="7.36193">
        <ele>249.2</ele>
        <time>2023-07-23T09:23:21Z</time>
      </trkpt>
      <trkpt lat="48.32669" lon="7.36199">
        <ele>249.4</ele>
        <time>2023-07-23T09:23:22Z</time>
      </trkpt>
      <trkpt lat="48.32672" lon="7.36205">
        <ele>249.7</ele>
        <time>2023-07-23T09:23:23Z</time>
      </trkpt>
      <trkpt lat="48.32674" lon="7.36211">
        <ele>249.9</ele>
        <time>2023-07-23T09:23:24Z</time>
      </trkpt>
      <trkpt lat="48.32677" lon="7.36217">
        <ele>250.1</ele>
        <time>2023-07-23T09:23:25Z</time>
      </trkpt>
      <trkpt lat="48.32681" lon="7.36223">
        <ele>250.4</ele>
        <time>2023-07-23T09:23:26Z</time>
      </trkpt>
      <trkpt lat="48.32683" lon="7.36228">
        <ele>250.6</ele>
        <time>2023-07-23T09:23:27Z</time>
      </trkpt>
      <trkpt lat="48.32686" lon="7.36234">
        <ele>250.8</ele>
        <time>2023-07-23T09:23:28Z</time>
      </trkpt>
      <trkpt lat="48.32688" lon="7.3624">
        <ele>251</ele>
        <time>2023-07-23T09:23:29Z</time>
      </trkpt>
      <trkpt lat="48.3269" lon="7.36246">
        <ele>251.2</ele>
        <time>2023-07-23T09:23:30Z</time>
      </trkpt>
      <trkpt lat="48.32692" lon="7.36252">
        <ele>251.4</ele>
        <time>2023-07-23T09:23:31Z</time>
      </trkpt>
      <trkpt lat="48.32695" lon="7.36258">
        <ele>251.6</ele>
        <time>2023-07-23T09:23:32Z</time>
      </trkpt>
      <trkpt lat="48.32697" lon="7.36264">
        <ele>251.8</ele>
        <time>2023-07-23T09:23:33Z</time>
      </trkpt>
      <trkpt lat="48.32698" lon="7.36271">
        <ele>252</ele>
        <time>2023-07-23T09:23:34Z</time>
      </trkpt>
      <trkpt lat="48.32699" lon="7.36277">
        <ele>252.2</ele>
        <time>2023-07-23T09:23:35Z</time>
      </trkpt>
      <trkpt lat="48.32701" lon="7.36284">
        <ele>252.4</ele>
        <time>2023-07-23T09:23:36Z</time>
      </trkpt>
      <trkpt lat="48.32702" lon="7.3629">
        <ele>252.6</ele>
        <time>2023-07-23T09:23:37Z</time>
      </trkpt>
      <trkpt lat="48.32703" lon="7.36296">
        <ele>252.8</ele>
        <time>2023-07-23T09:23:38Z</time>
      </trkpt>
      <trkpt lat="48.32704" lon="7.36303">
        <ele>253</ele>
        <time>2023-07-23T09:23:39Z</time>
      </trkpt>
      <trkpt lat="48.32705" lon="7.3631">
        <ele>253.3</ele>
        <time>2023-07-23T09:23:40Z</time>
      </trkpt>
      <trkpt lat="48.32706" lon="7.36316">
        <ele>253.5</ele>
        <time>2023-07-23T09:23:41Z</time>
      </trkpt>
      <trkpt lat="48.32707" lon="7.36323">
        <ele>253.7</ele>
        <time>2023-07-23T09:23:42Z</time>
      </trkpt>
      <trkpt lat="48.32708" lon="7.36329">
        <ele>253.9</ele>
        <time>2023-07-23T09:23:43Z</time>
      </trkpt>
      <trkpt lat="48.32709" lon="7.36336">
        <ele>254.1</ele>
        <time>2023-07-23T09:23:44Z</time>
      </trkpt>
      <trkpt lat="48.32709" lon="7.36342">
        <ele>254.3</ele>
        <time>2023-07-23T09:23:45Z</time>
      </trkpt>
      <trkpt lat="48.3271" lon="7.36349">
        <ele>254.5</ele>
        <time>2023-07-23T09:23:46Z</time>
      </trkpt>
      <trkpt lat="48.32711" lon="7.36355">
        <ele>254.7</ele>
        <time>2023-07-23T09:23:47Z</time>
      </trkpt>
      <trkpt lat="48.32712" lon="7.36362">
        <ele>254.9</ele>
        <time>2023-07-23T09:23:48Z</time>
      </trkpt>
      <trkpt lat="48.32712" lon="7.36368">
        <ele>255.1</ele>
        <time>2023-07-23T09:23:49Z</time>
      </trkpt>
      <trkpt lat="48.32713" lon="7.36375">
        <ele>255.3</ele>
        <time>2023-07-23T09:23:50Z</time>
      </trkpt>
      <trkpt lat="48.32714" lon="7.36381">
        <ele>255.5</ele>
        <time>2023-07-23T09:23:51Z</time>
      </trkpt>
      <trkpt lat="48.32715" lon="7.36387">
        <ele>255.7</ele>
        <time>2023-07-23T09:23:52Z</time>
      </trkpt>
      <trkpt lat="48.32716" lon="7.36393">
        <ele>255.9</ele>
        <time>2023-07-23T09:23:53Z</time>
      </trkpt>
      <trkpt lat="48.32716" lon="7.36399">
        <ele>256.1</ele>
        <time>2023-07-23T09:23:54Z</time>
      </trkpt>
      <trkpt lat="48.32717" lon="7.36404">
        <ele>256.3</ele>
        <time>2023-07-23T09:23:55Z</time>
      </trkpt>
      <trkpt lat="48.32718" lon="7.3641">
        <ele>256.5</ele>
        <time>2023-07-23T09:23:56Z</time>
      </trkpt>
      <trkpt lat="48.32719" lon="7.36415">
        <ele>256.6</ele>
        <time>2023-07-23T09:23:57Z</time>
      </trkpt>
      <trkpt lat="48.32719" lon="7.36421">
        <ele>256.8</ele>
        <time>2023-07-23T09:23:58Z</time>
      </trkpt>
      <trkpt lat="48.3272" lon="7.36426">
        <ele>257</ele>
        <time>2023-07-23T09:23:59Z</time>
      </trkpt>
      <trkpt lat="48.32721" lon="7.36432">
        <ele>257.2</ele>
        <time>2023-07-23T09:24:00Z</time>
      </trkpt>
      <trkpt lat="48.32721" lon="7.36437">
        <ele>257.3</ele>
        <time>2023-07-23T09:24:01Z</time>
      </trkpt>
      <trkpt lat="48.32722" lon="7.36442">
        <ele>257.5</ele>
        <time>2023-07-23T09:24:02Z</time>
      </trkpt>
      <trkpt lat="48.32723" lon="7.36448">
        <ele>257.7</ele>
        <time>2023-07-23T09:24:03Z</time>
      </trkpt>
      <trkpt lat="48.32724" lon="7.36453">
        <ele>257.8</ele>
        <time>2023-07-23T09:24:04Z</time>
      </trkpt>
      <trkpt lat="48.32725" lon="7.36459">
        <ele>258</ele>
        <time>2023-07-23T09:24:05Z</time>
      </trkpt>
      <trkpt lat="48.32725" lon="7.36464">
        <ele>258.2</ele>
        <time>2023-07-23T09:24:06Z</time>
      </trkpt>
      <trkpt lat="48.32726" lon="7.3647">
        <ele>258.3</ele>
        <time>2023-07-23T09:24:07Z</time>
      </trkpt>
      <trkpt lat="48.32727" lon="7.36476">
        <ele>258.5</ele>
        <time>2023-07-23T09:24:08Z</time>
      </trkpt>
      <trkpt lat="48.32727" lon="7.36482">
        <ele>258.7</ele>
        <time>2023-07-23T09:24:09Z</time>
      </trkpt>
      <trkpt lat="48.32728" lon="7.36487">
        <ele>258.8</ele>
        <time>2023-07-23T09:24:10Z</time>
      </trkpt>
      <trkpt lat="48.32729" lon="7.36493">
        <ele>259</ele>
        <time>2023-07-23T09:24:11Z</time>
      </trkpt>
      <trkpt lat="48.3273" lon="7.36498">
        <ele>259.2</ele>
        <time>2023-07-23T09:24:12Z</time>
      </trkpt>
      <trkpt lat="48.32731" lon="7.36504">
        <ele>259.3</ele>
        <time>2023-07-23T09:24:13Z</time>
      </trkpt>
      <trkpt lat="48.32731" lon="7.36509">
        <ele>259.5</ele>
        <time>2023-07-23T09:24:14Z</time>
      </trkpt>
      <trkpt lat="48.32732" lon="7.36514">
        <ele>259.6</ele>
        <time>2023-07-23T09:24:15Z</time>
      </trkpt>
      <trkpt lat="48.32733" lon="7.3652">
        <ele>259.8</ele>
        <time>2023-07-23T09:24:16Z</time>
      </trkpt>
      <trkpt lat="48.32734" lon="7.36526">
        <ele>259.9</ele>
        <time>2023-07-23T09:24:17Z</time>
      </trkpt>
      <trkpt lat="48.32734" lon="7.36531">
        <ele>260.1</ele>
        <time>2023-07-23T09:24:18Z</time>
      </trkpt>
      <trkpt lat="48.32735" lon="7.36537">
        <ele>260.2</ele>
        <time>2023-07-23T09:24:19Z</time>
      </trkpt>
      <trkpt lat="48.32736" lon="7.36543">
        <ele>260.4</ele>
        <time>2023-07-23T09:24:20Z</time>
      </trkpt>
      <trkpt lat="48.32737" lon="7.36549">
        <ele>260.5</ele>
        <time>2023-07-23T09:24:21Z</time>
      </trkpt>
      <trkpt lat="48.32738" lon="7.36555">
        <ele>260.7</ele>
        <time>2023-07-23T09:24:22Z</time>
      </trkpt>
      <trkpt lat="48.32739" lon="7.3656">
        <ele>260.8</ele>
        <time>2023-07-23T09:24:23Z</time>
      </trkpt>
      <trkpt lat="48.3274" lon="7.36566">
        <ele>260.9</ele>
        <time>2023-07-23T09:24:24Z</time>
      </trkpt>
      <trkpt lat="48.32741" lon="7.36571">
        <ele>261.1</ele>
        <time>2023-07-23T09:24:25Z</time>
      </trkpt>
      <trkpt lat="48.32742" lon="7.36577">
        <ele>261.2</ele>
        <time>2023-07-23T09:24:26Z</time>
      </trkpt>
      <trkpt lat="48.32743" lon="7.36583">
        <ele>261.3</ele>
        <time>2023-07-23T09:24:27Z</time>
      </trkpt>
      <trkpt lat="48.32744" lon="7.36589">
        <ele>261.4</ele>
        <time>2023-07-23T09:24:28Z</time>
      </trkpt>
      <trkpt lat="48.32745" lon="7.36595">
        <ele>261.6</ele>
        <time>2023-07-23T09:24:29Z</time>
      </trkpt>
      <trkpt lat="48.32746" lon="7.36602">
        <ele>261.7</ele>
        <time>2023-07-23T09:24:30Z</time>
      </trkpt>
      <trkpt lat="48.32747" lon="7.36608">
        <ele>261.8</ele>
        <time>2023-07-23T09:24:31Z</time>
      </trkpt>
      <trkpt lat="48.32748" lon="7.36614">
        <ele>261.9</ele>
        <time>2023-07-23T09:24:32Z</time>
      </trkpt>
      <trkpt lat="48.32749" lon="7.36621">
        <ele>262</ele>
        <time>2023-07-23T09:24:33Z</time>
      </trkpt>
      <trkpt lat="48.32751" lon="7.36628">
        <ele>262</ele>
        <time>2023-07-23T09:24:34Z</time>
      </trkpt>
      <trkpt lat="48.32752" lon="7.36634">
        <ele>262.1</ele>
        <time>2023-07-23T09:24:35Z</time>
      </trkpt>
      <trkpt lat="48.32754" lon="7.3664">
        <ele>262.2</ele>
        <time>2023-07-23T09:24:36Z</time>
      </trkpt>
      <trkpt lat="48.32755" lon="7.36647">
        <ele>262.3</ele>
        <time>2023-07-23T09:24:37Z</time>
      </trkpt>
      <trkpt lat="48.32756" lon="7.36654">
        <ele>262.4</ele>
        <time>2023-07-23T09:24:38Z</time>
      </trkpt>
      <trkpt lat="48.32758" lon="7.3666">
        <ele>262.5</ele>
        <time>2023-07-23T09:24:39Z</time>
      </trkpt>
      <trkpt lat="48.32759" lon="7.36667">
        <ele>262.6</ele>
        <time>2023-07-23T09:24:40Z</time>
      </trkpt>
      <trkpt lat="48.3276" lon="7.36673">
        <ele>262.7</ele>
        <time>2023-07-23T09:24:41Z</time>
      </trkpt>
      <trkpt lat="48.32762" lon="7.3668">
        <ele>262.7</ele>
        <time>2023-07-23T09:24:42Z</time>
      </trkpt>
      <trkpt lat="48.32763" lon="7.36687">
        <ele>262.8</ele>
        <time>2023-07-23T09:24:43Z</time>
      </trkpt>
      <trkpt lat="48.32764" lon="7.36694">
        <ele>262.9</ele>
        <time>2023-07-23T09:24:44Z</time>
      </trkpt>
      <trkpt lat="48.32766" lon="7.367">
        <ele>262.9</ele>
        <time>2023-07-23T09:24:45Z</time>
      </trkpt>
      <trkpt lat="48.32767" lon="7.36707">
        <ele>263</ele>
        <time>2023-07-23T09:24:46Z</time>
      </trkpt>
      <trkpt lat="48.32769" lon="7.36714">
        <ele>263</ele>
        <time>2023-07-23T09:24:47Z</time>
      </trkpt>
      <trkpt lat="48.3277" lon="7.36721">
        <ele>263.1</ele>
        <time>2023-07-23T09:24:48Z</time>
      </trkpt>
      <trkpt lat="48.32772" lon="7.36728">
        <ele>263.2</ele>
        <time>2023-07-23T09:24:49Z</time>
      </trkpt>
      <trkpt lat="48.32773" lon="7.36734">
        <ele>263.2</ele>
        <time>2023-07-23T09:24:50Z</time>
      </trkpt>
      <trkpt lat="48.32774" lon="7.36741">
        <ele>263.3</ele>
        <time>2023-07-23T09:24:51Z</time>
      </trkpt>
      <trkpt lat="48.32776" lon="7.36748">
        <ele>263.4</ele>
        <time>2023-07-23T09:24:52Z</time>
      </trkpt>
      <trkpt lat="48.32777" lon="7.36754">
        <ele>263.4</ele>
        <time>2023-07-23T09:24:53Z</time>
      </trkpt>
      <trkpt lat="48.32778" lon="7.36761">
        <ele>263.5</ele>
        <time>2023-07-23T09:24:54Z</time>
      </trkpt>
      <trkpt lat="48.3278" lon="7.36768">
        <ele>263.6</ele>
        <time>2023-07-23T09:24:55Z</time>
      </trkpt>
      <trkpt lat="48.32781" lon="7.36775">
        <ele>263.6</ele>
        <time>2023-07-23T09:24:56Z</time>
      </trkpt>
      <trkpt lat="48.32782" lon="7.36782">
        <ele>263.7</ele>
        <time>2023-07-23T09:24:57Z</time>
      </trkpt>
      <trkpt lat="48.32783" lon="7.36789">
        <ele>263.8</ele>
        <time>2023-07-23T09:24:58Z</time>
      </trkpt>
      <trkpt lat="48.32784" lon="7.36796">
        <ele>263.9</ele>
        <time>2023-07-23T09:24:59Z</time>
      </trkpt>
      <trkpt lat="48.32785" lon="7.36803">
        <ele>264</ele>
        <time>2023-07-23T09:25:00Z</time>
      </trkpt>
      <trkpt lat="48.32786" lon="7.36809">
        <ele>264.1</ele>
        <time>2023-07-23T09:25:01Z</time>
      </trkpt>
      <trkpt lat="48.32787" lon="7.36816">
        <ele>264.2</ele>
        <time>2023-07-23T09:25:02Z</time>
      </trkpt>
      <trkpt lat="48.32787" lon="7.36823">
        <ele>264.3</ele>
        <time>2023-07-23T09:25:03Z</time>
      </trkpt>
      <trkpt lat="48.32788" lon="7.36829">
        <ele>264.4</ele>
        <time>2023-07-23T09:25:04Z</time>
      </trkpt>
      <trkpt lat="48.32788" lon="7.36835">
        <ele>264.5</ele>
        <time>2023-07-23T09:25:05Z</time>
      </trkpt>
      <trkpt lat="48.32788" lon="7.36841">
        <ele>264.6</ele>
        <time>2023-07-23T09:25:06Z</time>
      </trkpt>
      <trkpt lat="48.32789" lon="7.36847">
        <ele>264.8</ele>
        <time>2023-07-23T09:25:07Z</time>
      </trkpt>
      <trkpt lat="48.32789" lon="7.36853">
        <ele>264.9</ele>
        <time>2023-07-23T09:25:08Z</time>
      </trkpt>
      <trkpt lat="48.32789" lon="7.36859">
        <ele>265</ele>
        <time>2023-07-23T09:25:09Z</time>
      </trkpt>
      <trkpt lat="48.32789" lon="7.36865">
        <ele>265.1</ele>
        <time>2023-07-23T09:25:10Z</time>
      </trkpt>
      <trkpt lat="48.3279" lon="7.3687">
        <ele>265.3</ele>
        <time>2023-07-23T09:25:11Z</time>
      </trkpt>
      <trkpt lat="48.3279" lon="7.36876">
        <ele>265.4</ele>
        <time>2023-07-23T09:25:12Z</time>
      </trkpt>
      <trkpt lat="48.32791" lon="7.36882">
        <ele>265.5</ele>
        <time>2023-07-23T09:25:13Z</time>
      </trkpt>
      <trkpt lat="48.32791" lon="7.36887">
        <ele>265.6</ele>
        <time>2023-07-23T09:25:14Z</time>
      </trkpt>
      <trkpt lat="48.32791" lon="7.36893">
        <ele>265.7</ele>
        <time>2023-07-23T09:25:15Z</time>
      </trkpt>
      <trkpt lat="48.32792" lon="7.36898">
        <ele>265.9</ele>
        <time>2023-07-23T09:25:16Z</time>
      </trkpt>
      <trkpt lat="48.32793" lon="7.36904">
        <ele>266</ele>
        <time>2023-07-23T09:25:17Z</time>
      </trkpt>
      <trkpt lat="48.32794" lon="7.36909">
        <ele>266.2</ele>
        <time>2023-07-23T09:25:18Z</time>
      </trkpt>
      <trkpt lat="48.32795" lon="7.36914">
        <ele>266.3</ele>
        <time>2023-07-23T09:25:19Z</time>
      </trkpt>
      <trkpt lat="48.32796" lon="7.36919">
        <ele>266.4</ele>
        <time>2023-07-23T09:25:20Z</time>
      </trkpt>
      <trkpt lat="48.32797" lon="7.36924">
        <ele>266.6</ele>
        <time>2023-07-23T09:25:21Z</time>
      </trkpt>
      <trkpt lat="48.32799" lon="7.3693">
        <ele>266.7</ele>
        <time>2023-07-23T09:25:22Z</time>
      </trkpt>
      <trkpt lat="48.328" lon="7.36936">
        <ele>266.8</ele>
        <time>2023-07-23T09:25:23Z</time>
      </trkpt>
      <trkpt lat="48.32802" lon="7.36941">
        <ele>267</ele>
        <time>2023-07-23T09:25:24Z</time>
      </trkpt>
      <trkpt lat="48.32803" lon="7.36946">
        <ele>267.1</ele>
        <time>2023-07-23T09:25:25Z</time>
      </trkpt>
      <trkpt lat="48.32806" lon="7.36951">
        <ele>267.2</ele>
        <time>2023-07-23T09:25:26Z</time>
      </trkpt>
      <trkpt lat="48.32808" lon="7.36956">
        <ele>267.3</ele>
        <time>2023-07-23T09:25:27Z</time>
      </trkpt>
      <trkpt lat="48.3281" lon="7.36961">
        <ele>267.4</ele>
        <time>2023-07-23T09:25:28Z</time>
      </trkpt>
      <trkpt lat="48.32812" lon="7.36966">
        <ele>267.5</ele>
        <time>2023-07-23T09:25:29Z</time>
      </trkpt>
      <trkpt lat="48.32815" lon="7.36971">
        <ele>267.6</ele>
        <time>2023-07-23T09:25:30Z</time>
      </trkpt>
      <trkpt lat="48.32817" lon="7.36976">
        <ele>267.7</ele>
        <time>2023-07-23T09:25:31Z</time>
      </trkpt>
      <trkpt lat="48.3282" lon="7.36981">
        <ele>267.7</ele>
        <time>2023-07-23T09:25:32Z</time>
      </trkpt>
      <trkpt lat="48.32823" lon="7.36987">
        <ele>267.8</ele>
        <time>2023-07-23T09:25:33Z</time>
      </trkpt>
      <trkpt lat="48.32826" lon="7.36992">
        <ele>267.9</ele>
        <time>2023-07-23T09:25:34Z</time>
      </trkpt>
      <trkpt lat="48.32828" lon="7.36998">
        <ele>268</ele>
        <time>2023-07-23T09:25:35Z</time>
      </trkpt>
      <trkpt lat="48.32831" lon="7.37003">
        <ele>268.1</ele>
        <time>2023-07-23T09:25:36Z</time>
      </trkpt>
      <trkpt lat="48.32835" lon="7.37008">
        <ele>268.2</ele>
        <time>2023-07-23T09:25:37Z</time>
      </trkpt>
      <trkpt lat="48.32838" lon="7.37014">
        <ele>268.2</ele>
        <time>2023-07-23T09:25:38Z</time>
      </trkpt>
      <trkpt lat="48.32841" lon="7.37019">
        <ele>268.2</ele>
        <time>2023-07-23T09:25:39Z</time>
      </trkpt>
      <trkpt lat="48.32844" lon="7.37025">
        <ele>268.3</ele>
        <time>2023-07-23T09:25:40Z</time>
      </trkpt>
      <trkpt lat="48.32847" lon="7.3703">
        <ele>268.3</ele>
        <time>2023-07-23T09:25:41Z</time>
      </trkpt>
      <trkpt lat="48.3285" lon="7.37035">
        <ele>268.4</ele>
        <time>2023-07-23T09:25:42Z</time>
      </trkpt>
      <trkpt lat="48.32854" lon="7.37041">
        <ele>268.4</ele>
        <time>2023-07-23T09:25:43Z</time>
      </trkpt>
      <trkpt lat="48.32857" lon="7.37046">
        <ele>268.5</ele>
        <time>2023-07-23T09:25:44Z</time>
      </trkpt>
      <trkpt lat="48.32861" lon="7.37051">
        <ele>268.6</ele>
        <time>2023-07-23T09:25:45Z</time>
      </trkpt>
      <trkpt lat="48.32864" lon="7.37057">
        <ele>268.6</ele>
        <time>2023-07-23T09:25:46Z</time>
      </trkpt>
      <trkpt lat="48.32868" lon="7.37063">
        <ele>268.7</ele>
        <time>2023-07-23T09:25:47Z</time>
      </trkpt>
      <trkpt lat="48.32871" lon="7.37068">
        <ele>268.8</ele>
        <time>2023-07-23T09:25:48Z</time>
      </trkpt>
      <trkpt lat="48.32875" lon="7.37073">
        <ele>268.9</ele>
        <time>2023-07-23T09:25:49Z</time>
      </trkpt>
      <trkpt lat="48.32879" lon="7.37078">
        <ele>268.9</ele>
        <time>2023-07-23T09:25:50Z</time>
      </trkpt>
      <trkpt lat="48.32883" lon="7.37083">
        <ele>269</ele>
        <time>2023-07-23T09:25:51Z</time>
      </trkpt>
      <trkpt lat="48.32887" lon="7.37088">
        <ele>269.1</ele>
        <time>2023-07-23T09:25:52Z</time>
      </trkpt>
      <trkpt lat="48.32891" lon="7.37093">
        <ele>269.1</ele>
        <time>2023-07-23T09:25:53Z</time>
      </trkpt>
      <trkpt lat="48.32895" lon="7.37098">
        <ele>269.2</ele>
        <time>2023-07-23T09:25:54Z</time>
      </trkpt>
      <trkpt lat="48.32899" lon="7.37103">
        <ele>269.2</ele>
        <time>2023-07-23T09:25:55Z</time>
      </trkpt>
      <trkpt lat="48.32902" lon="7.37108">
        <ele>269.3</ele>
        <time>2023-07-23T09:25:56Z</time>
      </trkpt>
      <trkpt lat="48.32906" lon="7.37113">
        <ele>269.4</ele>
        <time>2023-07-23T09:25:57Z</time>
      </trkpt>
      <trkpt lat="48.32911" lon="7.37118">
        <ele>269.4</ele>
        <time>2023-07-23T09:25:58Z</time>
      </trkpt>
      <trkpt lat="48.32914" lon="7.37124">
        <ele>269.5</ele>
        <time>2023-07-23T09:25:59Z</time>
      </trkpt>
      <trkpt lat="48.32918" lon="7.37129">
        <ele>269.5</ele>
        <time>2023-07-23T09:26:00Z</time>
      </trkpt>
      <trkpt lat="48.32922" lon="7.37134">
        <ele>269.6</ele>
        <time>2023-07-23T09:26:01Z</time>
      </trkpt>
      <trkpt lat="48.32926" lon="7.37139">
        <ele>269.7</ele>
        <time>2023-07-23T09:26:02Z</time>
      </trkpt>
      <trkpt lat="48.3293" lon="7.37145">
        <ele>269.7</ele>
        <time>2023-07-23T09:26:03Z</time>
      </trkpt>
      <trkpt lat="48.32934" lon="7.3715">
        <ele>269.8</ele>
        <time>2023-07-23T09:26:04Z</time>
      </trkpt>
      <trkpt lat="48.32938" lon="7.37155">
        <ele>269.9</ele>
        <time>2023-07-23T09:26:05Z</time>
      </trkpt>
      <trkpt lat="48.32942" lon="7.3716">
        <ele>270.1</ele>
        <time>2023-07-23T09:26:06Z</time>
      </trkpt>
      <trkpt lat="48.32945" lon="7.37167">
        <ele>270.2</ele>
        <time>2023-07-23T09:26:07Z</time>
      </trkpt>
      <trkpt lat="48.32948" lon="7.37172">
        <ele>270.4</ele>
        <time>2023-07-23T09:26:08Z</time>
      </trkpt>
      <trkpt lat="48.32951" lon="7.37178">
        <ele>270.5</ele>
        <time>2023-07-23T09:26:09Z</time>
      </trkpt>
      <trkpt lat="48.32955" lon="7.37184">
        <ele>270.7</ele>
        <time>2023-07-23T09:26:10Z</time>
      </trkpt>
      <trkpt lat="48.32958" lon="7.37189">
        <ele>270.9</ele>
        <time>2023-07-23T09:26:11Z</time>
      </trkpt>
      <trkpt lat="48.32961" lon="7.37195">
        <ele>271.1</ele>
        <time>2023-07-23T09:26:12Z</time>
      </trkpt>
      <trkpt lat="48.32963" lon="7.372">
        <ele>271.3</ele>
        <time>2023-07-23T09:26:13Z</time>
      </trkpt>
      <trkpt lat="48.32966" lon="7.37205">
        <ele>271.4</ele>
        <time>2023-07-23T09:26:14Z</time>
      </trkpt>
      <trkpt lat="48.32968" lon="7.37211">
        <ele>271.6</ele>
        <time>2023-07-23T09:26:15Z</time>
      </trkpt>
      <trkpt lat="48.32971" lon="7.37215">
        <ele>271.8</ele>
        <time>2023-07-23T09:26:16Z</time>
      </trkpt>
      <trkpt lat="48.32973" lon="7.3722">
        <ele>272</ele>
        <time>2023-07-23T09:26:17Z</time>
      </trkpt>
      <trkpt lat="48.32976" lon="7.37225">
        <ele>272.2</ele>
        <time>2023-07-23T09:26:18Z</time>
      </trkpt>
      <trkpt lat="48.32979" lon="7.3723">
        <ele>272.3</ele>
        <time>2023-07-23T09:26:19Z</time>
      </trkpt>
      <trkpt lat="48.32981" lon="7.37235">
        <ele>272.5</ele>
        <time>2023-07-23T09:26:20Z</time>
      </trkpt>
      <trkpt lat="48.32983" lon="7.3724">
        <ele>272.6</ele>
        <time>2023-07-23T09:26:21Z</time>
      </trkpt>
      <trkpt lat="48.32986" lon="7.37246">
        <ele>272.8</ele>
        <time>2023-07-23T09:26:22Z</time>
      </trkpt>
      <trkpt lat="48.32988" lon="7.3725">
        <ele>273</ele>
        <time>2023-07-23T09:26:23Z</time>
      </trkpt>
      <trkpt lat="48.32991" lon="7.37256">
        <ele>273.2</ele>
        <time>2023-07-23T09:26:24Z</time>
      </trkpt>
      <trkpt lat="48.32994" lon="7.3726">
        <ele>273.3</ele>
        <time>2023-07-23T09:26:25Z</time>
      </trkpt>
      <trkpt lat="48.32996" lon="7.37266">
        <ele>273.5</ele>
        <time>2023-07-23T09:26:26Z</time>
      </trkpt>
      <trkpt lat="48.32998" lon="7.37271">
        <ele>273.6</ele>
        <time>2023-07-23T09:26:27Z</time>
      </trkpt>
      <trkpt lat="48.33" lon="7.37276">
        <ele>273.7</ele>
        <time>2023-07-23T09:26:28Z</time>
      </trkpt>
      <trkpt lat="48.33002" lon="7.37282">
        <ele>273.9</ele>
        <time>2023-07-23T09:26:29Z</time>
      </trkpt>
      <trkpt lat="48.33004" lon="7.37288">
        <ele>274</ele>
        <time>2023-07-23T09:26:30Z</time>
      </trkpt>
      <trkpt lat="48.33006" lon="7.37295">
        <ele>274.2</ele>
        <time>2023-07-23T09:26:31Z</time>
      </trkpt>
      <trkpt lat="48.33007" lon="7.37301">
        <ele>274.3</ele>
        <time>2023-07-23T09:26:32Z</time>
      </trkpt>
      <trkpt lat="48.33009" lon="7.37307">
        <ele>274.5</ele>
        <time>2023-07-23T09:26:33Z</time>
      </trkpt>
      <trkpt lat="48.3301" lon="7.37314">
        <ele>274.6</ele>
        <time>2023-07-23T09:26:34Z</time>
      </trkpt>
      <trkpt lat="48.33011" lon="7.3732">
        <ele>274.8</ele>
        <time>2023-07-23T09:26:35Z</time>
      </trkpt>
      <trkpt lat="48.33013" lon="7.37326">
        <ele>274.9</ele>
        <time>2023-07-23T09:26:36Z</time>
      </trkpt>
      <trkpt lat="48.33015" lon="7.37332">
        <ele>275.1</ele>
        <time>2023-07-23T09:26:37Z</time>
      </trkpt>
      <trkpt lat="48.33017" lon="7.37338">
        <ele>275.2</ele>
        <time>2023-07-23T09:26:38Z</time>
      </trkpt>
      <trkpt lat="48.33019" lon="7.37344">
        <ele>275.4</ele>
        <time>2023-07-23T09:26:39Z</time>
      </trkpt>
      <trkpt lat="48.33021" lon="7.37349">
        <ele>275.5</ele>
        <time>2023-07-23T09:26:40Z</time>
      </trkpt>
      <trkpt lat="48.33024" lon="7.37354">
        <ele>275.7</ele>
        <time>2023-07-23T09:26:41Z</time>
      </trkpt>
      <trkpt lat="48.33027" lon="7.37359">
        <ele>275.9</ele>
        <time>2023-07-23T09:26:42Z</time>
      </trkpt>
      <trkpt lat="48.3303" lon="7.37363">
        <ele>276</ele>
        <time>2023-07-23T09:26:43Z</time>
      </trkpt>
      <trkpt lat="48.33034" lon="7.37367">
        <ele>276.2</ele>
        <time>2023-07-23T09:26:44Z</time>
      </trkpt>
      <trkpt lat="48.33038" lon="7.37371">
        <ele>276.3</ele>
        <time>2023-07-23T09:26:45Z</time>
      </trkpt>
      <trkpt lat="48.33041" lon="7.37375">
        <ele>276.5</ele>
        <time>2023-07-23T09:26:46Z</time>
      </trkpt>
      <trkpt lat="48.33044" lon="7.37379">
        <ele>276.6</ele>
        <time>2023-07-23T09:26:47Z</time>
      </trkpt>
      <trkpt lat="48.33048" lon="7.37382">
        <ele>276.7</ele>
        <time>2023-07-23T09:26:48Z</time>
      </trkpt>
      <trkpt lat="48.33052" lon="7.37386">
        <ele>276.9</ele>
        <time>2023-07-23T09:26:49Z</time>
      </trkpt>
      <trkpt lat="48.33056" lon="7.3739">
        <ele>277</ele>
        <time>2023-07-23T09:26:50Z</time>
      </trkpt>
      <trkpt lat="48.3306" lon="7.37393">
        <ele>277.2</ele>
        <time>2023-07-23T09:26:51Z</time>
      </trkpt>
      <trkpt lat="48.33064" lon="7.37396">
        <ele>277.3</ele>
        <time>2023-07-23T09:26:52Z</time>
      </trkpt>
      <trkpt lat="48.33068" lon="7.37398">
        <ele>277.5</ele>
        <time>2023-07-23T09:26:53Z</time>
      </trkpt>
      <trkpt lat="48.33071" lon="7.37402">
        <ele>277.6</ele>
        <time>2023-07-23T09:26:54Z</time>
      </trkpt>
      <trkpt lat="48.33075" lon="7.37405">
        <ele>277.7</ele>
        <time>2023-07-23T09:26:55Z</time>
      </trkpt>
      <trkpt lat="48.33079" lon="7.37408">
        <ele>277.9</ele>
        <time>2023-07-23T09:26:56Z</time>
      </trkpt>
      <trkpt lat="48.33083" lon="7.3741">
        <ele>277.9</ele>
        <time>2023-07-23T09:26:57Z</time>
      </trkpt>
      <trkpt lat="48.33087" lon="7.37412">
        <ele>278</ele>
        <time>2023-07-23T09:26:58Z</time>
      </trkpt>
      <trkpt lat="48.33091" lon="7.37414">
        <ele>278.1</ele>
        <time>2023-07-23T09:26:59Z</time>
      </trkpt>
      <trkpt lat="48.33095" lon="7.37417">
        <ele>278.2</ele>
        <time>2023-07-23T09:27:00Z</time>
      </trkpt>
      <trkpt lat="48.33099" lon="7.37419">
        <ele>278.4</ele>
        <time>2023-07-23T09:27:01Z</time>
      </trkpt>
      <trkpt lat="48.33103" lon="7.37422">
        <ele>278.5</ele>
        <time>2023-07-23T09:27:02Z</time>
      </trkpt>
      <trkpt lat="48.33107" lon="7.37424">
        <ele>278.6</ele>
        <time>2023-07-23T09:27:03Z</time>
      </trkpt>
      <trkpt lat="48.33112" lon="7.37426">
        <ele>278.7</ele>
        <time>2023-07-23T09:27:04Z</time>
      </trkpt>
      <trkpt lat="48.33116" lon="7.37428">
        <ele>278.9</ele>
        <time>2023-07-23T09:27:05Z</time>
      </trkpt>
      <trkpt lat="48.3312" lon="7.37431">
        <ele>279</ele>
        <time>2023-07-23T09:27:06Z</time>
      </trkpt>
      <trkpt lat="48.33124" lon="7.37433">
        <ele>279.2</ele>
        <time>2023-07-23T09:27:07Z</time>
      </trkpt>
      <trkpt lat="48.33128" lon="7.37435">
        <ele>279.3</ele>
        <time>2023-07-23T09:27:08Z</time>
      </trkpt>
      <trkpt lat="48.33132" lon="7.37438">
        <ele>279.4</ele>
        <time>2023-07-23T09:27:09Z</time>
      </trkpt>
      <trkpt lat="48.33136" lon="7.3744">
        <ele>279.5</ele>
        <time>2023-07-23T09:27:10Z</time>
      </trkpt>
      <trkpt lat="48.3314" lon="7.37442">
        <ele>279.6</ele>
        <time>2023-07-23T09:27:11Z</time>
      </trkpt>
      <trkpt lat="48.33144" lon="7.37445">
        <ele>279.8</ele>
        <time>2023-07-23T09:27:12Z</time>
      </trkpt>
      <trkpt lat="48.33147" lon="7.37447">
        <ele>279.8</ele>
        <time>2023-07-23T09:27:13Z</time>
      </trkpt>
      <trkpt lat="48.33151" lon="7.3745">
        <ele>280</ele>
        <time>2023-07-23T09:27:14Z</time>
      </trkpt>
      <trkpt lat="48.33155" lon="7.37453">
        <ele>280.1</ele>
        <time>2023-07-23T09:27:15Z</time>
      </trkpt>
      <trkpt lat="48.33159" lon="7.37456">
        <ele>280.2</ele>
        <time>2023-07-23T09:27:16Z</time>
      </trkpt>
      <trkpt lat="48.33162" lon="7.37459">
        <ele>280.4</ele>
        <time>2023-07-23T09:27:17Z</time>
      </trkpt>
      <trkpt lat="48.33166" lon="7.37462">
        <ele>280.5</ele>
        <time>2023-07-23T09:27:18Z</time>
      </trkpt>
      <trkpt lat="48.3317" lon="7.37466">
        <ele>280.7</ele>
        <time>2023-07-23T09:27:19Z</time>
      </trkpt>
      <trkpt lat="48.33173" lon="7.37469">
        <ele>280.8</ele>
        <time>2023-07-23T09:27:20Z</time>
      </trkpt>
      <trkpt lat="48.33177" lon="7.37473">
        <ele>281</ele>
        <time>2023-07-23T09:27:21Z</time>
      </trkpt>
      <trkpt lat="48.3318" lon="7.37477">
        <ele>281.1</ele>
        <time>2023-07-23T09:27:22Z</time>
      </trkpt>
      <trkpt lat="48.33183" lon="7.37482">
        <ele>281.2</ele>
        <time>2023-07-23T09:27:23Z</time>
      </trkpt>
      <trkpt lat="48.33186" lon="7.37486">
        <ele>281.4</ele>
        <time>2023-07-23T09:27:24Z</time>
      </trkpt>
      <trkpt lat="48.33189" lon="7.3749">
        <ele>281.5</ele>
        <time>2023-07-23T09:27:25Z</time>
      </trkpt>
      <trkpt lat="48.33192" lon="7.37495">
        <ele>281.7</ele>
        <time>2023-07-23T09:27:26Z</time>
      </trkpt>
      <trkpt lat="48.33194" lon="7.375">
        <ele>281.8</ele>
        <time>2023-07-23T09:27:27Z</time>
      </trkpt>
      <trkpt lat="48.33197" lon="7.37504">
        <ele>281.9</ele>
        <time>2023-07-23T09:27:28Z</time>
      </trkpt>
      <trkpt lat="48.332" lon="7.37508">
        <ele>282</ele>
        <time>2023-07-23T09:27:29Z</time>
      </trkpt>
      <trkpt lat="48.33202" lon="7.37513">
        <ele>282.1</ele>
        <time>2023-07-23T09:27:30Z</time>
      </trkpt>
      <trkpt lat="48.33205" lon="7.37519">
        <ele>282.2</ele>
        <time>2023-07-23T09:27:31Z</time>
      </trkpt>
      <trkpt lat="48.33208" lon="7.37524">
        <ele>282.3</ele>
        <time>2023-07-23T09:27:32Z</time>
      </trkpt>
      <trkpt lat="48.33211" lon="7.37529">
        <ele>282.4</ele>
        <time>2023-07-23T09:27:33Z</time>
      </trkpt>
      <trkpt lat="48.33214" lon="7.37534">
        <ele>282.5</ele>
        <time>2023-07-23T09:27:34Z</time>
      </trkpt>
      <trkpt lat="48.33216" lon="7.37539">
        <ele>282.6</ele>
        <time>2023-07-23T09:27:35Z</time>
      </trkpt>
      <trkpt lat="48.33219" lon="7.37544">
        <ele>282.6</ele>
        <time>2023-07-23T09:27:36Z</time>
      </trkpt>
      <trkpt lat="48.33221" lon="7.37549">
        <ele>282.7</ele>
        <time>2023-07-23T09:27:37Z</time>
      </trkpt>
      <trkpt lat="48.33224" lon="7.37555">
        <ele>282.8</ele>
        <time>2023-07-23T09:27:38Z</time>
      </trkpt>
      <trkpt lat="48.33226" lon="7.3756">
        <ele>282.9</ele>
        <time>2023-07-23T09:27:39Z</time>
      </trkpt>
      <trkpt lat="48.33229" lon="7.37566">
        <ele>283</ele>
        <time>2023-07-23T09:27:40Z</time>
      </trkpt>
      <trkpt lat="48.33231" lon="7.37571">
        <ele>283.1</ele>
        <time>2023-07-23T09:27:41Z</time>
      </trkpt>
      <trkpt lat="48.33233" lon="7.37576">
        <ele>283.2</ele>
        <time>2023-07-23T09:27:42Z</time>
      </trkpt>
      <trkpt lat="48.33236" lon="7.37582">
        <ele>283.3</ele>
        <time>2023-07-23T09:27:43Z</time>
      </trkpt>
      <trkpt lat="48.33238" lon="7.37587">
        <ele>283.4</ele>
        <time>2023-07-23T09:27:44Z</time>
      </trkpt>
      <trkpt lat="48.3324" lon="7.37592">
        <ele>283.5</ele>
        <time>2023-07-23T09:27:45Z</time>
      </trkpt>
      <trkpt lat="48.33243" lon="7.37597">
        <ele>283.7</ele>
        <time>2023-07-23T09:27:46Z</time>
      </trkpt>
      <trkpt lat="48.33245" lon="7.37603">
        <ele>283.8</ele>
        <time>2023-07-23T09:27:47Z</time>
      </trkpt>
      <trkpt lat="48.33248" lon="7.37607">
        <ele>283.9</ele>
        <time>2023-07-23T09:27:48Z</time>
      </trkpt>
      <trkpt lat="48.33251" lon="7.37611">
        <ele>284</ele>
        <time>2023-07-23T09:27:49Z</time>
      </trkpt>
      <trkpt lat="48.33254" lon="7.37615">
        <ele>284</ele>
        <time>2023-07-23T09:27:50Z</time>
      </trkpt>
      <trkpt lat="48.33258" lon="7.37619">
        <ele>284.1</ele>
        <time>2023-07-23T09:27:51Z</time>
      </trkpt>
      <trkpt lat="48.33262" lon="7.37621">
        <ele>284.2</ele>
        <time>2023-07-23T09:27:52Z</time>
      </trkpt>
      <trkpt lat="48.33266" lon="7.37624">
        <ele>284.3</ele>
        <time>2023-07-23T09:27:53Z</time>
      </trkpt>
      <trkpt lat="48.3327" lon="7.37627">
        <ele>284.4</ele>
        <time>2023-07-23T09:27:54Z</time>
      </trkpt>
      <trkpt lat="48.33275" lon="7.37628">
        <ele>284.5</ele>
        <time>2023-07-23T09:27:55Z</time>
      </trkpt>
      <trkpt lat="48.33279" lon="7.37629">
        <ele>284.6</ele>
        <time>2023-07-23T09:27:56Z</time>
      </trkpt>
      <trkpt lat="48.33284" lon="7.3763">
        <ele>284.7</ele>
        <time>2023-07-23T09:27:57Z</time>
      </trkpt>
      <trkpt lat="48.33289" lon="7.37631">
        <ele>284.7</ele>
        <time>2023-07-23T09:27:58Z</time>
      </trkpt>
      <trkpt lat="48.33294" lon="7.37631">
        <ele>284.8</ele>
        <time>2023-07-23T09:27:59Z</time>
      </trkpt>
      <trkpt lat="48.33299" lon="7.3763">
        <ele>284.9</ele>
        <time>2023-07-23T09:28:00Z</time>
      </trkpt>
      <trkpt lat="48.33303" lon="7.3763">
        <ele>284.9</ele>
        <time>2023-07-23T09:28:01Z</time>
      </trkpt>
      <trkpt lat="48.33308" lon="7.37629">
        <ele>285</ele>
        <time>2023-07-23T09:28:02Z</time>
      </trkpt>
      <trkpt lat="48.33313" lon="7.37628">
        <ele>285.1</ele>
        <time>2023-07-23T09:28:03Z</time>
      </trkpt>
      <trkpt lat="48.33318" lon="7.37626">
        <ele>285.2</ele>
        <time>2023-07-23T09:28:04Z</time>
      </trkpt>
      <trkpt lat="48.33323" lon="7.37625">
        <ele>285.3</ele>
        <time>2023-07-23T09:28:05Z</time>
      </trkpt>
      <trkpt lat="48.33327" lon="7.37624">
        <ele>285.4</ele>
        <time>2023-07-23T09:28:06Z</time>
      </trkpt>
      <trkpt lat="48.33332" lon="7.37624">
        <ele>285.5</ele>
        <time>2023-07-23T09:28:07Z</time>
      </trkpt>
      <trkpt lat="48.33337" lon="7.37624">
        <ele>285.6</ele>
        <time>2023-07-23T09:28:08Z</time>
      </trkpt>
      <trkpt lat="48.33341" lon="7.37624">
        <ele>285.7</ele>
        <time>2023-07-23T09:28:09Z</time>
      </trkpt>
      <trkpt lat="48.33346" lon="7.37624">
        <ele>285.8</ele>
        <time>2023-07-23T09:28:10Z</time>
      </trkpt>
      <trkpt lat="48.33351" lon="7.37625">
        <ele>285.9</ele>
        <time>2023-07-23T09:28:11Z</time>
      </trkpt>
      <trkpt lat="48.33356" lon="7.37626">
        <ele>286</ele>
        <time>2023-07-23T09:28:12Z</time>
      </trkpt>
      <trkpt lat="48.3336" lon="7.37628">
        <ele>286.1</ele>
        <time>2023-07-23T09:28:13Z</time>
      </trkpt>
      <trkpt lat="48.33365" lon="7.3763">
        <ele>286.1</ele>
        <time>2023-07-23T09:28:14Z</time>
      </trkpt>
      <trkpt lat="48.33369" lon="7.37632">
        <ele>286.2</ele>
        <time>2023-07-23T09:28:15Z</time>
      </trkpt>
      <trkpt lat="48.33373" lon="7.37634">
        <ele>286.3</ele>
        <time>2023-07-23T09:28:16Z</time>
      </trkpt>
      <trkpt lat="48.33378" lon="7.37637">
        <ele>286.4</ele>
        <time>2023-07-23T09:28:17Z</time>
      </trkpt>
      <trkpt lat="48.33383" lon="7.37639">
        <ele>286.5</ele>
        <time>2023-07-23T09:28:18Z</time>
      </trkpt>
      <trkpt lat="48.33387" lon="7.37642">
        <ele>286.6</ele>
        <time>2023-07-23T09:28:19Z</time>
      </trkpt>
      <trkpt lat="48.33392" lon="7.37644">
        <ele>286.8</ele>
        <time>2023-07-23T09:28:20Z</time>
      </trkpt>
      <trkpt lat="48.33397" lon="7.37647">
        <ele>286.9</ele>
        <time>2023-07-23T09:28:21Z</time>
      </trkpt>
      <trkpt lat="48.33401" lon="7.37649">
        <ele>287</ele>
        <time>2023-07-23T09:28:22Z</time>
      </trkpt>
      <trkpt lat="48.33405" lon="7.37651">
        <ele>287.1</ele>
        <time>2023-07-23T09:28:23Z</time>
      </trkpt>
      <trkpt lat="48.3341" lon="7.37653">
        <ele>287.2</ele>
        <time>2023-07-23T09:28:24Z</time>
      </trkpt>
      <trkpt lat="48.33415" lon="7.37655">
        <ele>287.3</ele>
        <time>2023-07-23T09:28:25Z</time>
      </trkpt>
      <trkpt lat="48.33419" lon="7.37656">
        <ele>287.4</ele>
        <time>2023-07-23T09:28:26Z</time>
      </trkpt>
      <trkpt lat="48.33424" lon="7.37659">
        <ele>287.4</ele>
        <time>2023-07-23T09:28:27Z</time>
      </trkpt>
      <trkpt lat="48.33428" lon="7.37661">
        <ele>287.5</ele>
        <time>2023-07-23T09:28:28Z</time>
      </trkpt>
      <trkpt lat="48.33433" lon="7.37661">
        <ele>287.7</ele>
        <time>2023-07-23T09:28:29Z</time>
      </trkpt>
      <trkpt lat="48.33438" lon="7.37662">
        <ele>287.8</ele>
        <time>2023-07-23T09:28:30Z</time>
      </trkpt>
      <trkpt lat="48.33443" lon="7.37664">
        <ele>287.9</ele>
        <time>2023-07-23T09:28:31Z</time>
      </trkpt>
      <trkpt lat="48.33448" lon="7.37665">
        <ele>288</ele>
        <time>2023-07-23T09:28:32Z</time>
      </trkpt>
      <trkpt lat="48.33453" lon="7.37666">
        <ele>288.1</ele>
        <time>2023-07-23T09:28:33Z</time>
      </trkpt>
      <trkpt lat="48.33457" lon="7.37666">
        <ele>288.3</ele>
        <time>2023-07-23T09:28:34Z</time>
      </trkpt>
      <trkpt lat="48.33462" lon="7.37668">
        <ele>288.4</ele>
        <time>2023-07-23T09:28:35Z</time>
      </trkpt>
      <trkpt lat="48.33467" lon="7.37669">
        <ele>288.5</ele>
        <time>2023-07-23T09:28:36Z</time>
      </trkpt>
      <trkpt lat="48.33471" lon="7.3767">
        <ele>288.7</ele>
        <time>2023-07-23T09:28:37Z</time>
      </trkpt>
      <trkpt lat="48.33476" lon="7.37671">
        <ele>288.8</ele>
        <time>2023-07-23T09:28:38Z</time>
      </trkpt>
      <trkpt lat="48.3348" lon="7.37672">
        <ele>288.9</ele>
        <time>2023-07-23T09:28:39Z</time>
      </trkpt>
      <trkpt lat="48.33485" lon="7.37673">
        <ele>289</ele>
        <time>2023-07-23T09:28:40Z</time>
      </trkpt>
      <trkpt lat="48.3349" lon="7.37674">
        <ele>289.2</ele>
        <time>2023-07-23T09:28:41Z</time>
      </trkpt>
      <trkpt lat="48.33494" lon="7.37675">
        <ele>289.3</ele>
        <time>2023-07-23T09:28:42Z</time>
      </trkpt>
      <trkpt lat="48.33499" lon="7.37676">
        <ele>289.4</ele>
        <time>2023-07-23T09:28:43Z</time>
      </trkpt>
      <trkpt lat="48.33504" lon="7.37676">
        <ele>289.6</ele>
        <time>2023-07-23T09:28:44Z</time>
      </trkpt>
      <trkpt lat="48.33508" lon="7.37677">
        <ele>289.7</ele>
        <time>2023-07-23T09:28:45Z</time>
      </trkpt>
      <trkpt lat="48.33512" lon="7.37677">
        <ele>289.9</ele>
        <time>2023-07-23T09:28:46Z</time>
      </trkpt>
      <trkpt lat="48.33517" lon="7.37679">
        <ele>290</ele>
        <time>2023-07-23T09:28:47Z</time>
      </trkpt>
      <trkpt lat="48.33522" lon="7.3768">
        <ele>290.1</ele>
        <time>2023-07-23T09:28:48Z</time>
      </trkpt>
      <trkpt lat="48.33526" lon="7.3768">
        <ele>290.3</ele>
        <time>2023-07-23T09:28:49Z</time>
      </trkpt>
      <trkpt lat="48.33531" lon="7.37681">
        <ele>290.4</ele>
        <time>2023-07-23T09:28:50Z</time>
      </trkpt>
      <trkpt lat="48.33536" lon="7.37682">
        <ele>290.6</ele>
        <time>2023-07-23T09:28:51Z</time>
      </trkpt>
      <trkpt lat="48.3354" lon="7.37683">
        <ele>290.7</ele>
        <time>2023-07-23T09:28:52Z</time>
      </trkpt>
      <trkpt lat="48.33545" lon="7.37684">
        <ele>290.9</ele>
        <time>2023-07-23T09:28:53Z</time>
      </trkpt>
      <trkpt lat="48.33549" lon="7.37685">
        <ele>291</ele>
        <time>2023-07-23T09:28:54Z</time>
      </trkpt>
      <trkpt lat="48.33553" lon="7.37686">
        <ele>291.2</ele>
        <time>2023-07-23T09:28:55Z</time>
      </trkpt>
      <trkpt lat="48.33558" lon="7.37688">
        <ele>291.4</ele>
        <time>2023-07-23T09:28:56Z</time>
      </trkpt>
      <trkpt lat="48.33562" lon="7.37689">
        <ele>291.5</ele>
        <time>2023-07-23T09:28:57Z</time>
      </trkpt>
      <trkpt lat="48.33567" lon="7.37691">
        <ele>291.7</ele>
        <time>2023-07-23T09:28:58Z</time>
      </trkpt>
      <trkpt lat="48.33571" lon="7.37693">
        <ele>291.8</ele>
        <time>2023-07-23T09:28:59Z</time>
      </trkpt>
      <trkpt lat="48.33575" lon="7.37695">
        <ele>292</ele>
        <time>2023-07-23T09:29:00Z</time>
      </trkpt>
      <trkpt lat="48.33579" lon="7.37697">
        <ele>292.1</ele>
        <time>2023-07-23T09:29:01Z</time>
      </trkpt>
      <trkpt lat="48.33583" lon="7.377">
        <ele>292.3</ele>
        <time>2023-07-23T09:29:02Z</time>
      </trkpt>
      <trkpt lat="48.33587" lon="7.37702">
        <ele>292.4</ele>
        <time>2023-07-23T09:29:03Z</time>
      </trkpt>
      <trkpt lat="48.33591" lon="7.37706">
        <ele>292.5</ele>
        <time>2023-07-23T09:29:04Z</time>
      </trkpt>
      <trkpt lat="48.33594" lon="7.37709">
        <ele>292.7</ele>
        <time>2023-07-23T09:29:05Z</time>
      </trkpt>
      <trkpt lat="48.33598" lon="7.37713">
        <ele>292.8</ele>
        <time>2023-07-23T09:29:06Z</time>
      </trkpt>
      <trkpt lat="48.33602" lon="7.37716">
        <ele>292.9</ele>
        <time>2023-07-23T09:29:07Z</time>
      </trkpt>
      <trkpt lat="48.33605" lon="7.37721">
        <ele>293</ele>
        <time>2023-07-23T09:29:08Z</time>
      </trkpt>
      <trkpt lat="48.33609" lon="7.37726">
        <ele>293.2</ele>
        <time>2023-07-23T09:29:09Z</time>
      </trkpt>
      <trkpt lat="48.33612" lon="7.3773">
        <ele>293.3</ele>
        <time>2023-07-23T09:29:10Z</time>
      </trkpt>
      <trkpt lat="48.33615" lon="7.37734">
        <ele>293.5</ele>
        <time>2023-07-23T09:29:11Z</time>
      </trkpt>
      <trkpt lat="48.33618" lon="7.37738">
        <ele>293.6</ele>
        <time>2023-07-23T09:29:12Z</time>
      </trkpt>
      <trkpt lat="48.33621" lon="7.37743">
        <ele>293.8</ele>
        <time>2023-07-23T09:29:13Z</time>
      </trkpt>
      <trkpt lat="48.33623" lon="7.37749">
        <ele>293.9</ele>
        <time>2023-07-23T09:29:14Z</time>
      </trkpt>
      <trkpt lat="48.33626" lon="7.37754">
        <ele>294.1</ele>
        <time>2023-07-23T09:29:15Z</time>
      </trkpt>
      <trkpt lat="48.33629" lon="7.37758">
        <ele>294.2</ele>
        <time>2023-07-23T09:29:16Z</time>
      </trkpt>
      <trkpt lat="48.33631" lon="7.37763">
        <ele>294.3</ele>
        <time>2023-07-23T09:29:17Z</time>
      </trkpt>
      <trkpt lat="48.33634" lon="7.37768">
        <ele>294.5</ele>
        <time>2023-07-23T09:29:18Z</time>
      </trkpt>
      <trkpt lat="48.33636" lon="7.37772">
        <ele>294.6</ele>
        <time>2023-07-23T09:29:19Z</time>
      </trkpt>
      <trkpt lat="48.33639" lon="7.37777">
        <ele>294.7</ele>
        <time>2023-07-23T09:29:20Z</time>
      </trkpt>
      <trkpt lat="48.33641" lon="7.37781">
        <ele>294.9</ele>
        <time>2023-07-23T09:29:21Z</time>
      </trkpt>
      <trkpt lat="48.33644" lon="7.37786">
        <ele>295</ele>
        <time>2023-07-23T09:29:22Z</time>
      </trkpt>
      <trkpt lat="48.33646" lon="7.37791">
        <ele>295.1</ele>
        <time>2023-07-23T09:29:23Z</time>
      </trkpt>
      <trkpt lat="48.33648" lon="7.37796">
        <ele>295.3</ele>
        <time>2023-07-23T09:29:24Z</time>
      </trkpt>
      <trkpt lat="48.33651" lon="7.37801">
        <ele>295.4</ele>
        <time>2023-07-23T09:29:25Z</time>
      </trkpt>
      <trkpt lat="48.33654" lon="7.37805">
        <ele>295.5</ele>
        <time>2023-07-23T09:29:26Z</time>
      </trkpt>
      <trkpt lat="48.33657" lon="7.3781">
        <ele>295.7</ele>
        <time>2023-07-23T09:29:27Z</time>
      </trkpt>
      <trkpt lat="48.3366" lon="7.37815">
        <ele>295.8</ele>
        <time>2023-07-23T09:29:28Z</time>
      </trkpt>
      <trkpt lat="48.33663" lon="7.3782">
        <ele>296</ele>
        <time>2023-07-23T09:29:29Z</time>
      </trkpt>
      <trkpt lat="48.33666" lon="7.37824">
        <ele>296.1</ele>
        <time>2023-07-23T09:29:30Z</time>
      </trkpt>
      <trkpt lat="48.33669" lon="7.37828">
        <ele>296.2</ele>
        <time>2023-07-23T09:29:31Z</time>
      </trkpt>
      <trkpt lat="48.33672" lon="7.37833">
        <ele>296.4</ele>
        <time>2023-07-23T09:29:32Z</time>
      </trkpt>
      <trkpt lat="48.33675" lon="7.37838">
        <ele>296.5</ele>
        <time>2023-07-23T09:29:33Z</time>
      </trkpt>
      <trkpt lat="48.33678" lon="7.37843">
        <ele>296.6</ele>
        <time>2023-07-23T09:29:34Z</time>
      </trkpt>
      <trkpt lat="48.33681" lon="7.37847">
        <ele>296.7</ele>
        <time>2023-07-23T09:29:35Z</time>
      </trkpt>
      <trkpt lat="48.33684" lon="7.37852">
        <ele>296.8</ele>
        <time>2023-07-23T09:29:36Z</time>
      </trkpt>
      <trkpt lat="48.33687" lon="7.37857">
        <ele>296.9</ele>
        <time>2023-07-23T09:29:37Z</time>
      </trkpt>
      <trkpt lat="48.3369" lon="7.37861">
        <ele>297</ele>
        <time>2023-07-23T09:29:38Z</time>
      </trkpt>
      <trkpt lat="48.33693" lon="7.37866">
        <ele>297.1</ele>
        <time>2023-07-23T09:29:39Z</time>
      </trkpt>
      <trkpt lat="48.33696" lon="7.3787">
        <ele>297.3</ele>
        <time>2023-07-23T09:29:40Z</time>
      </trkpt>
      <trkpt lat="48.33699" lon="7.37876">
        <ele>297.4</ele>
        <time>2023-07-23T09:29:41Z</time>
      </trkpt>
      <trkpt lat="48.33702" lon="7.3788">
        <ele>297.5</ele>
        <time>2023-07-23T09:29:42Z</time>
      </trkpt>
      <trkpt lat="48.33705" lon="7.37885">
        <ele>297.7</ele>
        <time>2023-07-23T09:29:43Z</time>
      </trkpt>
      <trkpt lat="48.33708" lon="7.37889">
        <ele>297.8</ele>
        <time>2023-07-23T09:29:44Z</time>
      </trkpt>
      <trkpt lat="48.33711" lon="7.37894">
        <ele>297.9</ele>
        <time>2023-07-23T09:29:45Z</time>
      </trkpt>
      <trkpt lat="48.33714" lon="7.37898">
        <ele>298.1</ele>
        <time>2023-07-23T09:29:46Z</time>
      </trkpt>
      <trkpt lat="48.33718" lon="7.37902">
        <ele>298.2</ele>
        <time>2023-07-23T09:29:47Z</time>
      </trkpt>
      <trkpt lat="48.33721" lon="7.37906">
        <ele>298.3</ele>
        <time>2023-07-23T09:29:48Z</time>
      </trkpt>
      <trkpt lat="48.33724" lon="7.3791">
        <ele>298.5</ele>
        <time>2023-07-23T09:29:49Z</time>
      </trkpt>
      <trkpt lat="48.33727" lon="7.37914">
        <ele>298.6</ele>
        <time>2023-07-23T09:29:50Z</time>
      </trkpt>
      <trkpt lat="48.33731" lon="7.37918">
        <ele>298.8</ele>
        <time>2023-07-23T09:29:51Z</time>
      </trkpt>
      <trkpt lat="48.33734" lon="7.37921">
        <ele>298.9</ele>
        <time>2023-07-23T09:29:52Z</time>
      </trkpt>
      <trkpt lat="48.33737" lon="7.37925">
        <ele>299.1</ele>
        <time>2023-07-23T09:29:53Z</time>
      </trkpt>
      <trkpt lat="48.33741" lon="7.37928">
        <ele>299.2</ele>
        <time>2023-07-23T09:29:54Z</time>
      </trkpt>
      <trkpt lat="48.33744" lon="7.37931">
        <ele>299.3</ele>
        <time>2023-07-23T09:29:55Z</time>
      </trkpt>
      <trkpt lat="48.33748" lon="7.37934">
        <ele>299.5</ele>
        <time>2023-07-23T09:29:56Z</time>
      </trkpt>
      <trkpt lat="48.33752" lon="7.37937">
        <ele>299.7</ele>
        <time>2023-07-23T09:29:57Z</time>
      </trkpt>
      <trkpt lat="48.33755" lon="7.37939">
        <ele>299.8</ele>
        <time>2023-07-23T09:29:58Z</time>
      </trkpt>
      <trkpt lat="48.33759" lon="7.37941">
        <ele>300</ele>
        <time>2023-07-23T09:29:59Z</time>
      </trkpt>
      <trkpt lat="48.33763" lon="7.37942">
        <ele>300.2</ele>
        <time>2023-07-23T09:30:00Z</time>
      </trkpt>
      <trkpt lat="48.33767" lon="7.37943">
        <ele>300.3</ele>
        <time>2023-07-23T09:30:01Z</time>
      </trkpt>
      <trkpt lat="48.33771" lon="7.37943">
        <ele>300.4</ele>
        <time>2023-07-23T09:30:02Z</time>
      </trkpt>
      <trkpt lat="48.33775" lon="7.37942">
        <ele>300.6</ele>
        <time>2023-07-23T09:30:03Z</time>
      </trkpt>
      <trkpt lat="48.3378" lon="7.37942">
        <ele>300.8</ele>
        <time>2023-07-23T09:30:04Z</time>
      </trkpt>
      <trkpt lat="48.33784" lon="7.37941">
        <ele>300.9</ele>
        <time>2023-07-23T09:30:05Z</time>
      </trkpt>
      <trkpt lat="48.33788" lon="7.3794">
        <ele>301.1</ele>
        <time>2023-07-23T09:30:06Z</time>
      </trkpt>
      <trkpt lat="48.33792" lon="7.37939">
        <ele>301.3</ele>
        <time>2023-07-23T09:30:07Z</time>
      </trkpt>
      <trkpt lat="48.33796" lon="7.37938">
        <ele>301.4</ele>
        <time>2023-07-23T09:30:08Z</time>
      </trkpt>
      <trkpt lat="48.338" lon="7.37937">
        <ele>301.6</ele>
        <time>2023-07-23T09:30:09Z</time>
      </trkpt>
      <trkpt lat="48.33805" lon="7.37936">
        <ele>301.7</ele>
        <time>2023-07-23T09:30:10Z</time>
      </trkpt>
      <trkpt lat="48.33808" lon="7.37935">
        <ele>301.9</ele>
        <time>2023-07-23T09:30:11Z</time>
      </trkpt>
      <trkpt lat="48.33812" lon="7.37934">
        <ele>302</ele>
        <time>2023-07-23T09:30:12Z</time>
      </trkpt>
      <trkpt lat="48.33816" lon="7.37933">
        <ele>302.2</ele>
        <time>2023-07-23T09:30:13Z</time>
      </trkpt>
      <trkpt lat="48.3382" lon="7.37931">
        <ele>302.3</ele>
        <time>2023-07-23T09:30:14Z</time>
      </trkpt>
      <trkpt lat="48.33824" lon="7.37931">
        <ele>302.5</ele>
        <time>2023-07-23T09:30:15Z</time>
      </trkpt>
      <trkpt lat="48.33828" lon="7.37929">
        <ele>302.6</ele>
        <time>2023-07-23T09:30:16Z</time>
      </trkpt>
      <trkpt lat="48.33831" lon="7.37929">
        <ele>302.8</ele>
        <time>2023-07-23T09:30:17Z</time>
      </trkpt>
      <trkpt lat="48.33835" lon="7.37928">
        <ele>302.9</ele>
        <time>2023-07-23T09:30:18Z</time>
      </trkpt>
      <trkpt lat="48.33839" lon="7.37927">
        <ele>303</ele>
        <time>2023-07-23T09:30:19Z</time>
      </trkpt>
      <trkpt lat="48.33843" lon="7.37926">
        <ele>303.2</ele>
        <time>2023-07-23T09:30:20Z</time>
      </trkpt>
      <trkpt lat="48.33847" lon="7.37925">
        <ele>303.3</ele>
        <time>2023-07-23T09:30:21Z</time>
      </trkpt>
      <trkpt lat="48.33851" lon="7.37924">
        <ele>303.5</ele>
        <time>2023-07-23T09:30:22Z</time>
      </trkpt>
      <trkpt lat="48.33855" lon="7.37923">
        <ele>303.6</ele>
        <time>2023-07-23T09:30:23Z</time>
      </trkpt>
      <trkpt lat="48.33859" lon="7.37922">
        <ele>303.7</ele>
        <time>2023-07-23T09:30:24Z</time>
      </trkpt>
      <trkpt lat="48.33863" lon="7.37921">
        <ele>303.9</ele>
        <time>2023-07-23T09:30:25Z</time>
      </trkpt>
      <trkpt lat="48.33867" lon="7.37919">
        <ele>304</ele>
        <time>2023-07-23T09:30:26Z</time>
      </trkpt>
      <trkpt lat="48.33871" lon="7.37918">
        <ele>304.2</ele>
        <time>2023-07-23T09:30:27Z</time>
      </trkpt>
      <trkpt lat="48.33875" lon="7.37917">
        <ele>304.3</ele>
        <time>2023-07-23T09:30:28Z</time>
      </trkpt>
      <trkpt lat="48.33879" lon="7.37915">
        <ele>304.5</ele>
        <time>2023-07-23T09:30:29Z</time>
      </trkpt>
      <trkpt lat="48.33883" lon="7.37914">
        <ele>304.6</ele>
        <time>2023-07-23T09:30:30Z</time>
      </trkpt>
      <trkpt lat="48.33887" lon="7.37913">
        <ele>304.7</ele>
        <time>2023-07-23T09:30:31Z</time>
      </trkpt>
      <trkpt lat="48.33891" lon="7.37912">
        <ele>304.9</ele>
        <time>2023-07-23T09:30:32Z</time>
      </trkpt>
      <trkpt lat="48.33895" lon="7.37911">
        <ele>305</ele>
        <time>2023-07-23T09:30:33Z</time>
      </trkpt>
      <trkpt lat="48.33899" lon="7.3791">
        <ele>305.1</ele>
        <time>2023-07-23T09:30:34Z</time>
      </trkpt>
      <trkpt lat="48.33903" lon="7.37909">
        <ele>305.3</ele>
        <time>2023-07-23T09:30:35Z</time>
      </trkpt>
      <trkpt lat="48.33907" lon="7.37908">
        <ele>305.4</ele>
        <time>2023-07-23T09:30:36Z</time>
      </trkpt>
      <trkpt lat="48.33911" lon="7.37908">
        <ele>305.6</ele>
        <time>2023-07-23T09:30:37Z</time>
      </trkpt>
      <trkpt lat="48.33915" lon="7.37907">
        <ele>305.7</ele>
        <time>2023-07-23T09:30:38Z</time>
      </trkpt>
      <trkpt lat="48.33919" lon="7.37907">
        <ele>305.9</ele>
        <time>2023-07-23T09:30:39Z</time>
      </trkpt>
      <trkpt lat="48.33923" lon="7.37908">
        <ele>306.1</ele>
        <time>2023-07-23T09:30:40Z</time>
      </trkpt>
      <trkpt lat="48.33926" lon="7.37908">
        <ele>306.2</ele>
        <time>2023-07-23T09:30:41Z</time>
      </trkpt>
      <trkpt lat="48.3393" lon="7.37907">
        <ele>306.4</ele>
        <time>2023-07-23T09:30:42Z</time>
      </trkpt>
      <trkpt lat="48.33934" lon="7.37908">
        <ele>306.5</ele>
        <time>2023-07-23T09:30:43Z</time>
      </trkpt>
      <trkpt lat="48.33938" lon="7.37909">
        <ele>306.7</ele>
        <time>2023-07-23T09:30:44Z</time>
      </trkpt>
      <trkpt lat="48.33941" lon="7.37909">
        <ele>306.9</ele>
        <time>2023-07-23T09:30:45Z</time>
      </trkpt>
      <trkpt lat="48.33945" lon="7.37909">
        <ele>307.1</ele>
        <time>2023-07-23T09:30:46Z</time>
      </trkpt>
      <trkpt lat="48.33949" lon="7.3791">
        <ele>307.3</ele>
        <time>2023-07-23T09:30:47Z</time>
      </trkpt>
      <trkpt lat="48.33952" lon="7.37909">
        <ele>307.5</ele>
        <time>2023-07-23T09:30:48Z</time>
      </trkpt>
      <trkpt lat="48.33956" lon="7.37911">
        <ele>307.6</ele>
        <time>2023-07-23T09:30:49Z</time>
      </trkpt>
      <trkpt lat="48.33959" lon="7.37911">
        <ele>307.8</ele>
        <time>2023-07-23T09:30:50Z</time>
      </trkpt>
      <trkpt lat="48.33963" lon="7.37912">
        <ele>308</ele>
        <time>2023-07-23T09:30:51Z</time>
      </trkpt>
      <trkpt lat="48.33967" lon="7.37913">
        <ele>308.2</ele>
        <time>2023-07-23T09:30:52Z</time>
      </trkpt>
      <trkpt lat="48.3397" lon="7.37913">
        <ele>308.3</ele>
        <time>2023-07-23T09:30:53Z</time>
      </trkpt>
      <trkpt lat="48.33974" lon="7.37914">
        <ele>308.5</ele>
        <time>2023-07-23T09:30:54Z</time>
      </trkpt>
      <trkpt lat="48.33977" lon="7.37916">
        <ele>308.7</ele>
        <time>2023-07-23T09:30:55Z</time>
      </trkpt>
      <trkpt lat="48.33981" lon="7.37917">
        <ele>308.9</ele>
        <time>2023-07-23T09:30:56Z</time>
      </trkpt>
      <trkpt lat="48.33984" lon="7.37919">
        <ele>309</ele>
        <time>2023-07-23T09:30:57Z</time>
      </trkpt>
      <trkpt lat="48.33987" lon="7.37921">
        <ele>309.2</ele>
        <time>2023-07-23T09:30:58Z</time>
      </trkpt>
      <trkpt lat="48.33991" lon="7.37922">
        <ele>309.4</ele>
        <time>2023-07-23T09:30:59Z</time>
      </trkpt>
      <trkpt lat="48.33994" lon="7.37924">
        <ele>309.5</ele>
        <time>2023-07-23T09:31:00Z</time>
      </trkpt>
      <trkpt lat="48.33997" lon="7.37926">
        <ele>309.7</ele>
        <time>2023-07-23T09:31:01Z</time>
      </trkpt>
      <trkpt lat="48.33999" lon="7.37927">
        <ele>309.8</ele>
        <time>2023-07-23T09:31:02Z</time>
      </trkpt>
      <trkpt lat="48.34003" lon="7.37928">
        <ele>310</ele>
        <time>2023-07-23T09:31:03Z</time>
      </trkpt>
      <trkpt lat="48.34005" lon="7.37931">
        <ele>310.2</ele>
        <time>2023-07-23T09:31:04Z</time>
      </trkpt>
      <trkpt lat="48.34009" lon="7.37933">
        <ele>310.4</ele>
        <time>2023-07-23T09:31:05Z</time>
      </trkpt>
      <trkpt lat="48.34012" lon="7.37935">
        <ele>310.6</ele>
        <time>2023-07-23T09:31:06Z</time>
      </trkpt>
      <trkpt lat="48.34016" lon="7.37938">
        <ele>310.8</ele>
        <time>2023-07-23T09:31:07Z</time>
      </trkpt>
      <trkpt lat="48.3402" lon="7.3794">
        <ele>310.9</ele>
        <time>2023-07-23T09:31:08Z</time>
      </trkpt>
      <trkpt lat="48.34023" lon="7.37943">
        <ele>311.1</ele>
        <time>2023-07-23T09:31:09Z</time>
      </trkpt>
      <trkpt lat="48.34027" lon="7.37945">
        <ele>311.2</ele>
        <time>2023-07-23T09:31:10Z</time>
      </trkpt>
      <trkpt lat="48.3403" lon="7.37947">
        <ele>311.4</ele>
        <time>2023-07-23T09:31:11Z</time>
      </trkpt>
      <trkpt lat="48.34034" lon="7.37949">
        <ele>311.5</ele>
        <time>2023-07-23T09:31:12Z</time>
      </trkpt>
      <trkpt lat="48.34037" lon="7.37951">
        <ele>311.6</ele>
        <time>2023-07-23T09:31:13Z</time>
      </trkpt>
      <trkpt lat="48.3404" lon="7.37953">
        <ele>311.7</ele>
        <time>2023-07-23T09:31:14Z</time>
      </trkpt>
      <trkpt lat="48.34044" lon="7.37956">
        <ele>311.8</ele>
        <time>2023-07-23T09:31:15Z</time>
      </trkpt>
      <trkpt lat="48.34048" lon="7.37957">
        <ele>311.9</ele>
        <time>2023-07-23T09:31:16Z</time>
      </trkpt>
      <trkpt lat="48.34051" lon="7.37959">
        <ele>311.9</ele>
        <time>2023-07-23T09:31:17Z</time>
      </trkpt>
      <trkpt lat="48.34055" lon="7.37961">
        <ele>312</ele>
        <time>2023-07-23T09:31:18Z</time>
      </trkpt>
      <trkpt lat="48.34059" lon="7.37964">
        <ele>312.1</ele>
        <time>2023-07-23T09:31:19Z</time>
      </trkpt>
      <trkpt lat="48.34062" lon="7.37966">
        <ele>312.2</ele>
        <time>2023-07-23T09:31:20Z</time>
      </trkpt>
      <trkpt lat="48.34065" lon="7.37967">
        <ele>312.3</ele>
        <time>2023-07-23T09:31:21Z</time>
      </trkpt>
      <trkpt lat="48.34068" lon="7.37969">
        <ele>312.4</ele>
        <time>2023-07-23T09:31:22Z</time>
      </trkpt>
      <trkpt lat="48.34072" lon="7.37971">
        <ele>312.5</ele>
        <time>2023-07-23T09:31:23Z</time>
      </trkpt>
      <trkpt lat="48.34075" lon="7.37973">
        <ele>312.7</ele>
        <time>2023-07-23T09:31:24Z</time>
      </trkpt>
      <trkpt lat="48.34079" lon="7.37976">
        <ele>312.8</ele>
        <time>2023-07-23T09:31:25Z</time>
      </trkpt>
      <trkpt lat="48.34083" lon="7.37979">
        <ele>312.9</ele>
        <time>2023-07-23T09:31:26Z</time>
      </trkpt>
      <trkpt lat="48.34086" lon="7.37982">
        <ele>313.1</ele>
        <time>2023-07-23T09:31:27Z</time>
      </trkpt>
      <trkpt lat="48.3409" lon="7.37985">
        <ele>313.2</ele>
        <time>2023-07-23T09:31:28Z</time>
      </trkpt>
      <trkpt lat="48.34094" lon="7.37988">
        <ele>313.4</ele>
        <time>2023-07-23T09:31:29Z</time>
      </trkpt>
      <trkpt lat="48.34097" lon="7.37991">
        <ele>313.5</ele>
        <time>2023-07-23T09:31:30Z</time>
      </trkpt>
      <trkpt lat="48.34101" lon="7.37994">
        <ele>313.7</ele>
        <time>2023-07-23T09:31:31Z</time>
      </trkpt>
      <trkpt lat="48.34104" lon="7.37998">
        <ele>313.9</ele>
        <time>2023-07-23T09:31:32Z</time>
      </trkpt>
      <trkpt lat="48.34107" lon="7.38002">
        <ele>314.1</ele>
        <time>2023-07-23T09:31:33Z</time>
      </trkpt>
      <trkpt lat="48.3411" lon="7.38006">
        <ele>314.2</ele>
        <time>2023-07-23T09:31:34Z</time>
      </trkpt>
      <trkpt lat="48.34113" lon="7.38009">
        <ele>314.4</ele>
        <time>2023-07-23T09:31:35Z</time>
      </trkpt>
      <trkpt lat="48.34116" lon="7.38013">
        <ele>314.5</ele>
        <time>2023-07-23T09:31:36Z</time>
      </trkpt>
      <trkpt lat="48.34119" lon="7.38017">
        <ele>314.7</ele>
        <time>2023-07-23T09:31:37Z</time>
      </trkpt>
      <trkpt lat="48.3412" lon="7.38021">
        <ele>314.8</ele>
        <time>2023-07-23T09:31:38Z</time>
      </trkpt>
      <trkpt lat="48.34123" lon="7.38025">
        <ele>314.9</ele>
        <time>2023-07-23T09:31:39Z</time>
      </trkpt>
      <trkpt lat="48.34126" lon="7.38029">
        <ele>315.1</ele>
        <time>2023-07-23T09:31:40Z</time>
      </trkpt>
      <trkpt lat="48.34128" lon="7.38034">
        <ele>315.3</ele>
        <time>2023-07-23T09:31:41Z</time>
      </trkpt>
      <trkpt lat="48.3413" lon="7.38038">
        <ele>315.4</ele>
        <time>2023-07-23T09:31:42Z</time>
      </trkpt>
      <trkpt lat="48.34133" lon="7.38042">
        <ele>315.6</ele>
        <time>2023-07-23T09:31:43Z</time>
      </trkpt>
      <trkpt lat="48.34136" lon="7.38045">
        <ele>315.8</ele>
        <time>2023-07-23T09:31:44Z</time>
      </trkpt>
      <trkpt lat="48.34138" lon="7.38049">
        <ele>315.9</ele>
        <time>2023-07-23T09:31:45Z</time>
      </trkpt>
      <trkpt lat="48.34141" lon="7.38052">
        <ele>316.1</ele>
        <time>2023-07-23T09:31:46Z</time>
      </trkpt>
      <trkpt lat="48.34144" lon="7.38055">
        <ele>316.3</ele>
        <time>2023-07-23T09:31:47Z</time>
      </trkpt>
      <trkpt lat="48.34147" lon="7.38058">
        <ele>316.4</ele>
        <time>2023-07-23T09:31:48Z</time>
      </trkpt>
      <trkpt lat="48.3415" lon="7.3806">
        <ele>316.6</ele>
        <time>2023-07-23T09:31:49Z</time>
      </trkpt>
      <trkpt lat="48.34153" lon="7.38063">
        <ele>316.7</ele>
        <time>2023-07-23T09:31:50Z</time>
      </trkpt>
      <trkpt lat="48.34156" lon="7.38065">
        <ele>316.9</ele>
        <time>2023-07-23T09:31:51Z</time>
      </trkpt>
      <trkpt lat="48.3416" lon="7.38067">
        <ele>317.1</ele>
        <time>2023-07-23T09:31:52Z</time>
      </trkpt>
      <trkpt lat="48.34163" lon="7.38069">
        <ele>317.2</ele>
        <time>2023-07-23T09:31:53Z</time>
      </trkpt>
      <trkpt lat="48.34166" lon="7.38071">
        <ele>317.4</ele>
        <time>2023-07-23T09:31:54Z</time>
      </trkpt>
      <trkpt lat="48.34169" lon="7.38073">
        <ele>317.5</ele>
        <time>2023-07-23T09:31:55Z</time>
      </trkpt>
      <trkpt lat="48.34173" lon="7.38074">
        <ele>317.7</ele>
        <time>2023-07-23T09:31:56Z</time>
      </trkpt>
      <trkpt lat="48.34176" lon="7.38076">
        <ele>317.8</ele>
        <time>2023-07-23T09:31:57Z</time>
      </trkpt>
      <trkpt lat="48.3418" lon="7.38077">
        <ele>318</ele>
        <time>2023-07-23T09:31:58Z</time>
      </trkpt>
      <trkpt lat="48.34184" lon="7.38079">
        <ele>318.1</ele>
        <time>2023-07-23T09:31:59Z</time>
      </trkpt>
      <trkpt lat="48.34187" lon="7.3808">
        <ele>318.3</ele>
        <time>2023-07-23T09:32:00Z</time>
      </trkpt>
      <trkpt lat="48.3419" lon="7.38081">
        <ele>318.4</ele>
        <time>2023-07-23T09:32:01Z</time>
      </trkpt>
      <trkpt lat="48.34194" lon="7.38083">
        <ele>318.6</ele>
        <time>2023-07-23T09:32:02Z</time>
      </trkpt>
      <trkpt lat="48.34198" lon="7.38084">
        <ele>318.8</ele>
        <time>2023-07-23T09:32:03Z</time>
      </trkpt>
      <trkpt lat="48.34202" lon="7.38086">
        <ele>319</ele>
        <time>2023-07-23T09:32:04Z</time>
      </trkpt>
      <trkpt lat="48.34205" lon="7.38087">
        <ele>319.1</ele>
        <time>2023-07-23T09:32:05Z</time>
      </trkpt>
      <trkpt lat="48.34209" lon="7.38087">
        <ele>319.3</ele>
        <time>2023-07-23T09:32:06Z</time>
      </trkpt>
      <trkpt lat="48.34212" lon="7.38089">
        <ele>319.5</ele>
        <time>2023-07-23T09:32:07Z</time>
      </trkpt>
      <trkpt lat="48.34216" lon="7.3809">
        <ele>319.7</ele>
        <time>2023-07-23T09:32:08Z</time>
      </trkpt>
      <trkpt lat="48.34219" lon="7.38091">
        <ele>319.9</ele>
        <time>2023-07-23T09:32:09Z</time>
      </trkpt>
      <trkpt lat="48.34223" lon="7.38092">
        <ele>320</ele>
        <time>2023-07-23T09:32:10Z</time>
      </trkpt>
      <trkpt lat="48.34226" lon="7.38094">
        <ele>320.2</ele>
        <time>2023-07-23T09:32:11Z</time>
      </trkpt>
      <trkpt lat="48.3423" lon="7.38095">
        <ele>320.4</ele>
        <time>2023-07-23T09:32:12Z</time>
      </trkpt>
      <trkpt lat="48.34233" lon="7.38096">
        <ele>320.6</ele>
        <time>2023-07-23T09:32:13Z</time>
      </trkpt>
      <trkpt lat="48.34237" lon="7.38097">
        <ele>320.8</ele>
        <time>2023-07-23T09:32:14Z</time>
      </trkpt>
      <trkpt lat="48.3424" lon="7.38098">
        <ele>321</ele>
        <time>2023-07-23T09:32:15Z</time>
      </trkpt>
      <trkpt lat="48.34244" lon="7.38099">
        <ele>321.2</ele>
        <time>2023-07-23T09:32:16Z</time>
      </trkpt>
      <trkpt lat="48.34247" lon="7.38101">
        <ele>321.4</ele>
        <time>2023-07-23T09:32:17Z</time>
      </trkpt>
      <trkpt lat="48.34251" lon="7.38102">
        <ele>321.5</ele>
        <time>2023-07-23T09:32:18Z</time>
      </trkpt>
      <trkpt lat="48.34254" lon="7.38103">
        <ele>321.7</ele>
        <time>2023-07-23T09:32:19Z</time>
      </trkpt>
      <trkpt lat="48.34257" lon="7.38104">
        <ele>321.8</ele>
        <time>2023-07-23T09:32:20Z</time>
      </trkpt>
      <trkpt lat="48.34261" lon="7.38107">
        <ele>322</ele>
        <time>2023-07-23T09:32:21Z</time>
      </trkpt>
      <trkpt lat="48.34264" lon="7.38108">
        <ele>322.1</ele>
        <time>2023-07-23T09:32:22Z</time>
      </trkpt>
      <trkpt lat="48.34268" lon="7.3811">
        <ele>322.2</ele>
        <time>2023-07-23T09:32:23Z</time>
      </trkpt>
      <trkpt lat="48.34271" lon="7.38112">
        <ele>322.4</ele>
        <time>2023-07-23T09:32:24Z</time>
      </trkpt>
      <trkpt lat="48.34275" lon="7.38114">
        <ele>322.5</ele>
        <time>2023-07-23T09:32:25Z</time>
      </trkpt>
      <trkpt lat="48.34278" lon="7.38115">
        <ele>322.6</ele>
        <time>2023-07-23T09:32:26Z</time>
      </trkpt>
      <trkpt lat="48.34281" lon="7.38117">
        <ele>322.7</ele>
        <time>2023-07-23T09:32:27Z</time>
      </trkpt>
      <trkpt lat="48.34284" lon="7.38119">
        <ele>322.9</ele>
        <time>2023-07-23T09:32:28Z</time>
      </trkpt>
      <trkpt lat="48.34287" lon="7.38121">
        <ele>323</ele>
        <time>2023-07-23T09:32:29Z</time>
      </trkpt>
      <trkpt lat="48.34291" lon="7.38123">
        <ele>323.1</ele>
        <time>2023-07-23T09:32:30Z</time>
      </trkpt>
      <trkpt lat="48.34294" lon="7.38125">
        <ele>323.2</ele>
        <time>2023-07-23T09:32:31Z</time>
      </trkpt>
      <trkpt lat="48.34297" lon="7.38128">
        <ele>323.3</ele>
        <time>2023-07-23T09:32:32Z</time>
      </trkpt>
      <trkpt lat="48.343" lon="7.3813">
        <ele>323.4</ele>
        <time>2023-07-23T09:32:33Z</time>
      </trkpt>
      <trkpt lat="48.34304" lon="7.38132">
        <ele>323.6</ele>
        <time>2023-07-23T09:32:34Z</time>
      </trkpt>
      <trkpt lat="48.34307" lon="7.38135">
        <ele>323.7</ele>
        <time>2023-07-23T09:32:35Z</time>
      </trkpt>
      <trkpt lat="48.34311" lon="7.38137">
        <ele>323.9</ele>
        <time>2023-07-23T09:32:36Z</time>
      </trkpt>
      <trkpt lat="48.34314" lon="7.3814">
        <ele>324</ele>
        <time>2023-07-23T09:32:37Z</time>
      </trkpt>
      <trkpt lat="48.34317" lon="7.38142">
        <ele>324.1</ele>
        <time>2023-07-23T09:32:38Z</time>
      </trkpt>
      <trkpt lat="48.3432" lon="7.38144">
        <ele>324.2</ele>
        <time>2023-07-23T09:32:39Z</time>
      </trkpt>
      <trkpt lat="48.34323" lon="7.38146">
        <ele>324.4</ele>
        <time>2023-07-23T09:32:40Z</time>
      </trkpt>
      <trkpt lat="48.34327" lon="7.38148">
        <ele>324.5</ele>
        <time>2023-07-23T09:32:41Z</time>
      </trkpt>
      <trkpt lat="48.3433" lon="7.38151">
        <ele>324.6</ele>
        <time>2023-07-23T09:32:42Z</time>
      </trkpt>
      <trkpt lat="48.34333" lon="7.38153">
        <ele>324.7</ele>
        <time>2023-07-23T09:32:43Z</time>
      </trkpt>
      <trkpt lat="48.34336" lon="7.38155">
        <ele>324.8</ele>
        <time>2023-07-23T09:32:44Z</time>
      </trkpt>
      <trkpt lat="48.3434" lon="7.38157">
        <ele>325</ele>
        <time>2023-07-23T09:32:45Z</time>
      </trkpt>
      <trkpt lat="48.34343" lon="7.3816">
        <ele>325.1</ele>
        <time>2023-07-23T09:32:46Z</time>
      </trkpt>
      <trkpt lat="48.34347" lon="7.38162">
        <ele>325.3</ele>
        <time>2023-07-23T09:32:47Z</time>
      </trkpt>
      <trkpt lat="48.3435" lon="7.38165">
        <ele>325.4</ele>
        <time>2023-07-23T09:32:48Z</time>
      </trkpt>
      <trkpt lat="48.34353" lon="7.38167">
        <ele>325.6</ele>
        <time>2023-07-23T09:32:49Z</time>
      </trkpt>
      <trkpt lat="48.34357" lon="7.3817">
        <ele>325.8</ele>
        <time>2023-07-23T09:32:50Z</time>
      </trkpt>
      <trkpt lat="48.3436" lon="7.38172">
        <ele>325.9</ele>
        <time>2023-07-23T09:32:51Z</time>
      </trkpt>
      <trkpt lat="48.34363" lon="7.38175">
        <ele>326.1</ele>
        <time>2023-07-23T09:32:52Z</time>
      </trkpt>
      <trkpt lat="48.34367" lon="7.38177">
        <ele>326.3</ele>
        <time>2023-07-23T09:32:53Z</time>
      </trkpt>
      <trkpt lat="48.3437" lon="7.38179">
        <ele>326.5</ele>
        <time>2023-07-23T09:32:54Z</time>
      </trkpt>
      <trkpt lat="48.34373" lon="7.38181">
        <ele>326.7</ele>
        <time>2023-07-23T09:32:55Z</time>
      </trkpt>
      <trkpt lat="48.34376" lon="7.38184">
        <ele>326.9</ele>
        <time>2023-07-23T09:32:56Z</time>
      </trkpt>
      <trkpt lat="48.3438" lon="7.38186">
        <ele>327.1</ele>
        <time>2023-07-23T09:32:57Z</time>
      </trkpt>
      <trkpt lat="48.34383" lon="7.38189">
        <ele>327.3</ele>
        <time>2023-07-23T09:32:58Z</time>
      </trkpt>
      <trkpt lat="48.34386" lon="7.38192">
        <ele>327.5</ele>
        <time>2023-07-23T09:32:59Z</time>
      </trkpt>
      <trkpt lat="48.3439" lon="7.38195">
        <ele>327.7</ele>
        <time>2023-07-23T09:33:00Z</time>
      </trkpt>
      <trkpt lat="48.34393" lon="7.38197">
        <ele>327.9</ele>
        <time>2023-07-23T09:33:01Z</time>
      </trkpt>
      <trkpt lat="48.34396" lon="7.38199">
        <ele>328.1</ele>
        <time>2023-07-23T09:33:02Z</time>
      </trkpt>
      <trkpt lat="48.34399" lon="7.38202">
        <ele>328.4</ele>
        <time>2023-07-23T09:33:03Z</time>
      </trkpt>
      <trkpt lat="48.34402" lon="7.38205">
        <ele>328.6</ele>
        <time>2023-07-23T09:33:04Z</time>
      </trkpt>
      <trkpt lat="48.34405" lon="7.38207">
        <ele>328.8</ele>
        <time>2023-07-23T09:33:05Z</time>
      </trkpt>
      <trkpt lat="48.34408" lon="7.3821">
        <ele>329</ele>
        <time>2023-07-23T09:33:06Z</time>
      </trkpt>
      <trkpt lat="48.3441" lon="7.38212">
        <ele>329.3</ele>
        <time>2023-07-23T09:33:07Z</time>
      </trkpt>
      <trkpt lat="48.34413" lon="7.38215">
        <ele>329.5</ele>
        <time>2023-07-23T09:33:08Z</time>
      </trkpt>
      <trkpt lat="48.34416" lon="7.38217">
        <ele>329.7</ele>
        <time>2023-07-23T09:33:09Z</time>
      </trkpt>
      <trkpt lat="48.34418" lon="7.3822">
        <ele>329.9</ele>
        <time>2023-07-23T09:33:10Z</time>
      </trkpt>
      <trkpt lat="48.3442" lon="7.38223">
        <ele>330.1</ele>
        <time>2023-07-23T09:33:11Z</time>
      </trkpt>
      <trkpt lat="48.34423" lon="7.38226">
        <ele>330.3</ele>
        <time>2023-07-23T09:33:12Z</time>
      </trkpt>
      <trkpt lat="48.34425" lon="7.38229">
        <ele>330.5</ele>
        <time>2023-07-23T09:33:13Z</time>
      </trkpt>
      <trkpt lat="48.34427" lon="7.38232">
        <ele>330.6</ele>
        <time>2023-07-23T09:33:14Z</time>
      </trkpt>
      <trkpt lat="48.3443" lon="7.38235">
        <ele>330.7</ele>
        <time>2023-07-23T09:33:15Z</time>
      </trkpt>
      <trkpt lat="48.34432" lon="7.38238">
        <ele>330.9</ele>
        <time>2023-07-23T09:33:16Z</time>
      </trkpt>
      <trkpt lat="48.34434" lon="7.38241">
        <ele>331</ele>
        <time>2023-07-23T09:33:17Z</time>
      </trkpt>
      <trkpt lat="48.34436" lon="7.38244">
        <ele>331.1</ele>
        <time>2023-07-23T09:33:18Z</time>
      </trkpt>
      <trkpt lat="48.34438" lon="7.38246">
        <ele>331.2</ele>
        <time>2023-07-23T09:33:19Z</time>
      </trkpt>
      <trkpt lat="48.3444" lon="7.3825">
        <ele>331.3</ele>
        <time>2023-07-23T09:33:20Z</time>
      </trkpt>
      <trkpt lat="48.34442" lon="7.38252">
        <ele>331.4</ele>
        <time>2023-07-23T09:33:21Z</time>
      </trkpt>
      <trkpt lat="48.34444" lon="7.38255">
        <ele>331.5</ele>
        <time>2023-07-23T09:33:22Z</time>
      </trkpt>
      <trkpt lat="48.34447" lon="7.38258">
        <ele>331.6</ele>
        <time>2023-07-23T09:33:23Z</time>
      </trkpt>
      <trkpt lat="48.34448" lon="7.38261">
        <ele>331.7</ele>
        <time>2023-07-23T09:33:24Z</time>
      </trkpt>
      <trkpt lat="48.3445" lon="7.38265">
        <ele>332.1</ele>
        <time>2023-07-23T09:33:25Z</time>
      </trkpt>
      <trkpt lat="48.34452" lon="7.38268">
        <ele>332.3</ele>
        <time>2023-07-23T09:33:26Z</time>
      </trkpt>
      <trkpt lat="48.34454" lon="7.38272">
        <ele>332.5</ele>
        <time>2023-07-23T09:33:27Z</time>
      </trkpt>
      <trkpt lat="48.34455" lon="7.38276">
        <ele>332.7</ele>
        <time>2023-07-23T09:33:28Z</time>
      </trkpt>
      <trkpt lat="48.34457" lon="7.38281">
        <ele>332.9</ele>
        <time>2023-07-23T09:33:29Z</time>
      </trkpt>
      <trkpt lat="48.34459" lon="7.38285">
        <ele>333.1</ele>
        <time>2023-07-23T09:33:30Z</time>
      </trkpt>
      <trkpt lat="48.3446" lon="7.38289">
        <ele>333.3</ele>
        <time>2023-07-23T09:33:31Z</time>
      </trkpt>
      <trkpt lat="48.34462" lon="7.38293">
        <ele>333.5</ele>
        <time>2023-07-23T09:33:32Z</time>
      </trkpt>
      <trkpt lat="48.34463" lon="7.38298">
        <ele>333.7</ele>
        <time>2023-07-23T09:33:33Z</time>
      </trkpt>
      <trkpt lat="48.34464" lon="7.38302">
        <ele>333.9</ele>
        <time>2023-07-23T09:33:34Z</time>
      </trkpt>
      <trkpt lat="48.34466" lon="7.38307">
        <ele>334.1</ele>
        <time>2023-07-23T09:33:35Z</time>
      </trkpt>
      <trkpt lat="48.34467" lon="7.38311">
        <ele>334.3</ele>
        <time>2023-07-23T09:33:36Z</time>
      </trkpt>
      <trkpt lat="48.34468" lon="7.38315">
        <ele>334.5</ele>
        <time>2023-07-23T09:33:37Z</time>
      </trkpt>
      <trkpt lat="48.3447" lon="7.38319">
        <ele>334.7</ele>
        <time>2023-07-23T09:33:38Z</time>
      </trkpt>
      <trkpt lat="48.34471" lon="7.38324">
        <ele>334.9</ele>
        <time>2023-07-23T09:33:39Z</time>
      </trkpt>
      <trkpt lat="48.34473" lon="7.38328">
        <ele>335.1</ele>
        <time>2023-07-23T09:33:40Z</time>
      </trkpt>
      <trkpt lat="48.34474" lon="7.38333">
        <ele>335.3</ele>
        <time>2023-07-23T09:33:41Z</time>
      </trkpt>
      <trkpt lat="48.34475" lon="7.38338">
        <ele>335.5</ele>
        <time>2023-07-23T09:33:42Z</time>
      </trkpt>
      <trkpt lat="48.34477" lon="7.38342">
        <ele>335.7</ele>
        <time>2023-07-23T09:33:43Z</time>
      </trkpt>
      <trkpt lat="48.34479" lon="7.38346">
        <ele>335.9</ele>
        <time>2023-07-23T09:33:44Z</time>
      </trkpt>
      <trkpt lat="48.3448" lon="7.38351">
        <ele>336.1</ele>
        <time>2023-07-23T09:33:45Z</time>
      </trkpt>
      <trkpt lat="48.34481" lon="7.38355">
        <ele>336.3</ele>
        <time>2023-07-23T09:33:46Z</time>
      </trkpt>
      <trkpt lat="48.34483" lon="7.38359">
        <ele>336.5</ele>
        <time>2023-07-23T09:33:47Z</time>
      </trkpt>
      <trkpt lat="48.34484" lon="7.38364">
        <ele>336.7</ele>
        <time>2023-07-23T09:33:48Z</time>
      </trkpt>
      <trkpt lat="48.34486" lon="7.38368">
        <ele>336.9</ele>
        <time>2023-07-23T09:33:49Z</time>
      </trkpt>
      <trkpt lat="48.34487" lon="7.38372">
        <ele>337.1</ele>
        <time>2023-07-23T09:33:50Z</time>
      </trkpt>
      <trkpt lat="48.34489" lon="7.38377">
        <ele>337.3</ele>
        <time>2023-07-23T09:33:51Z</time>
      </trkpt>
      <trkpt lat="48.3449" lon="7.38381">
        <ele>337.4</ele>
        <time>2023-07-23T09:33:52Z</time>
      </trkpt>
      <trkpt lat="48.34492" lon="7.38385">
        <ele>337.6</ele>
        <time>2023-07-23T09:33:53Z</time>
      </trkpt>
      <trkpt lat="48.34493" lon="7.38389">
        <ele>337.8</ele>
        <time>2023-07-23T09:33:54Z</time>
      </trkpt>
      <trkpt lat="48.34494" lon="7.38393">
        <ele>338</ele>
        <time>2023-07-23T09:33:55Z</time>
      </trkpt>
      <trkpt lat="48.34496" lon="7.38398">
        <ele>338.2</ele>
        <time>2023-07-23T09:33:56Z</time>
      </trkpt>
      <trkpt lat="48.34497" lon="7.38402">
        <ele>338.4</ele>
        <time>2023-07-23T09:33:57Z</time>
      </trkpt>
      <trkpt lat="48.34498" lon="7.38406">
        <ele>338.6</ele>
        <time>2023-07-23T09:33:58Z</time>
      </trkpt>
      <trkpt lat="48.345" lon="7.38411">
        <ele>338.7</ele>
        <time>2023-07-23T09:33:59Z</time>
      </trkpt>
      <trkpt lat="48.34501" lon="7.38415">
        <ele>338.9</ele>
        <time>2023-07-23T09:34:00Z</time>
      </trkpt>
      <trkpt lat="48.34502" lon="7.38419">
        <ele>339.1</ele>
        <time>2023-07-23T09:34:01Z</time>
      </trkpt>
      <trkpt lat="48.34504" lon="7.38423">
        <ele>339.3</ele>
        <time>2023-07-23T09:34:02Z</time>
      </trkpt>
      <trkpt lat="48.34505" lon="7.38428">
        <ele>339.5</ele>
        <time>2023-07-23T09:34:03Z</time>
      </trkpt>
      <trkpt lat="48.34507" lon="7.38432">
        <ele>339.7</ele>
        <time>2023-07-23T09:34:04Z</time>
      </trkpt>
      <trkpt lat="48.34509" lon="7.38436">
        <ele>339.9</ele>
        <time>2023-07-23T09:34:05Z</time>
      </trkpt>
      <trkpt lat="48.3451" lon="7.38441">
        <ele>340.1</ele>
        <time>2023-07-23T09:34:06Z</time>
      </trkpt>
      <trkpt lat="48.34511" lon="7.38446">
        <ele>340.3</ele>
        <time>2023-07-23T09:34:07Z</time>
      </trkpt>
      <trkpt lat="48.34513" lon="7.38451">
        <ele>340.5</ele>
        <time>2023-07-23T09:34:08Z</time>
      </trkpt>
      <trkpt lat="48.34514" lon="7.38455">
        <ele>340.7</ele>
        <time>2023-07-23T09:34:09Z</time>
      </trkpt>
      <trkpt lat="48.34515" lon="7.3846">
        <ele>340.9</ele>
        <time>2023-07-23T09:34:10Z</time>
      </trkpt>
      <trkpt lat="48.34517" lon="7.38465">
        <ele>341.1</ele>
        <time>2023-07-23T09:34:11Z</time>
      </trkpt>
      <trkpt lat="48.34518" lon="7.38469">
        <ele>341.3</ele>
        <time>2023-07-23T09:34:12Z</time>
      </trkpt>
      <trkpt lat="48.34519" lon="7.38474">
        <ele>341.5</ele>
        <time>2023-07-23T09:34:13Z</time>
      </trkpt>
      <trkpt lat="48.34521" lon="7.38479">
        <ele>341.7</ele>
        <time>2023-07-23T09:34:14Z</time>
      </trkpt>
      <trkpt lat="48.34522" lon="7.38483">
        <ele>341.9</ele>
        <time>2023-07-23T09:34:15Z</time>
      </trkpt>
      <trkpt lat="48.34523" lon="7.38488">
        <ele>342.1</ele>
        <time>2023-07-23T09:34:16Z</time>
      </trkpt>
      <trkpt lat="48.34524" lon="7.38493">
        <ele>342.3</ele>
        <time>2023-07-23T09:34:17Z</time>
      </trkpt>
      <trkpt lat="48.34525" lon="7.38498">
        <ele>342.4</ele>
        <time>2023-07-23T09:34:18Z</time>
      </trkpt>
      <trkpt lat="48.34526" lon="7.38503">
        <ele>342.6</ele>
        <time>2023-07-23T09:34:19Z</time>
      </trkpt>
      <trkpt lat="48.34527" lon="7.38508">
        <ele>342.8</ele>
        <time>2023-07-23T09:34:20Z</time>
      </trkpt>
      <trkpt lat="48.34528" lon="7.38512">
        <ele>342.9</ele>
        <time>2023-07-23T09:34:21Z</time>
      </trkpt>
      <trkpt lat="48.34529" lon="7.38517">
        <ele>343.1</ele>
        <time>2023-07-23T09:34:22Z</time>
      </trkpt>
      <trkpt lat="48.3453" lon="7.38522">
        <ele>343.3</ele>
        <time>2023-07-23T09:34:23Z</time>
      </trkpt>
      <trkpt lat="48.34531" lon="7.38527">
        <ele>343.4</ele>
        <time>2023-07-23T09:34:24Z</time>
      </trkpt>
      <trkpt lat="48.34532" lon="7.38532">
        <ele>343.6</ele>
        <time>2023-07-23T09:34:25Z</time>
      </trkpt>
      <trkpt lat="48.34533" lon="7.38537">
        <ele>343.8</ele>
        <time>2023-07-23T09:34:26Z</time>
      </trkpt>
      <trkpt lat="48.34534" lon="7.38542">
        <ele>343.9</ele>
        <time>2023-07-23T09:34:27Z</time>
      </trkpt>
      <trkpt lat="48.34535" lon="7.38547">
        <ele>344.1</ele>
        <time>2023-07-23T09:34:28Z</time>
      </trkpt>
      <trkpt lat="48.34535" lon="7.38552">
        <ele>344.3</ele>
        <time>2023-07-23T09:34:29Z</time>
      </trkpt>
      <trkpt lat="48.34536" lon="7.38557">
        <ele>344.4</ele>
        <time>2023-07-23T09:34:30Z</time>
      </trkpt>
      <trkpt lat="48.34537" lon="7.38562">
        <ele>344.6</ele>
        <time>2023-07-23T09:34:31Z</time>
      </trkpt>
      <trkpt lat="48.34538" lon="7.38567">
        <ele>344.8</ele>
        <time>2023-07-23T09:34:32Z</time>
      </trkpt>
      <trkpt lat="48.34538" lon="7.38572">
        <ele>344.9</ele>
        <time>2023-07-23T09:34:33Z</time>
      </trkpt>
      <trkpt lat="48.34539" lon="7.38577">
        <ele>345.1</ele>
        <time>2023-07-23T09:34:34Z</time>
      </trkpt>
      <trkpt lat="48.3454" lon="7.38583">
        <ele>345.3</ele>
        <time>2023-07-23T09:34:35Z</time>
      </trkpt>
      <trkpt lat="48.34541" lon="7.38588">
        <ele>345.4</ele>
        <time>2023-07-23T09:34:36Z</time>
      </trkpt>
      <trkpt lat="48.34541" lon="7.38593">
        <ele>345.6</ele>
        <time>2023-07-23T09:34:37Z</time>
      </trkpt>
      <trkpt lat="48.34542" lon="7.38598">
        <ele>345.7</ele>
        <time>2023-07-23T09:34:38Z</time>
      </trkpt>
      <trkpt lat="48.34543" lon="7.38603">
        <ele>345.9</ele>
        <time>2023-07-23T09:34:39Z</time>
      </trkpt>
      <trkpt lat="48.34543" lon="7.38608">
        <ele>346.1</ele>
        <time>2023-07-23T09:34:40Z</time>
      </trkpt>
      <trkpt lat="48.34544" lon="7.38613">
        <ele>346.2</ele>
        <time>2023-07-23T09:34:41Z</time>
      </trkpt>
      <trkpt lat="48.34545" lon="7.38618">
        <ele>346.4</ele>
        <time>2023-07-23T09:34:42Z</time>
      </trkpt>
      <trkpt lat="48.34545" lon="7.38624">
        <ele>346.5</ele>
        <time>2023-07-23T09:34:43Z</time>
      </trkpt>
      <trkpt lat="48.34546" lon="7.38629">
        <ele>346.7</ele>
        <time>2023-07-23T09:34:44Z</time>
      </trkpt>
      <trkpt lat="48.34547" lon="7.38634">
        <ele>346.8</ele>
        <time>2023-07-23T09:34:45Z</time>
      </trkpt>
      <trkpt lat="48.34547" lon="7.38639">
        <ele>347</ele>
        <time>2023-07-23T09:34:46Z</time>
      </trkpt>
      <trkpt lat="48.34548" lon="7.38644">
        <ele>347.1</ele>
        <time>2023-07-23T09:34:47Z</time>
      </trkpt>
      <trkpt lat="48.34548" lon="7.3865">
        <ele>347.3</ele>
        <time>2023-07-23T09:34:48Z</time>
      </trkpt>
      <trkpt lat="48.34549" lon="7.38655">
        <ele>347.4</ele>
        <time>2023-07-23T09:34:49Z</time>
      </trkpt>
      <trkpt lat="48.3455" lon="7.3866">
        <ele>347.5</ele>
        <time>2023-07-23T09:34:50Z</time>
      </trkpt>
      <trkpt lat="48.34551" lon="7.38665">
        <ele>347.7</ele>
        <time>2023-07-23T09:34:51Z</time>
      </trkpt>
      <trkpt lat="48.34551" lon="7.3867">
        <ele>347.8</ele>
        <time>2023-07-23T09:34:52Z</time>
      </trkpt>
      <trkpt lat="48.34552" lon="7.38675">
        <ele>348</ele>
        <time>2023-07-23T09:34:53Z</time>
      </trkpt>
      <trkpt lat="48.34552" lon="7.38681">
        <ele>348.1</ele>
        <time>2023-07-23T09:34:54Z</time>
      </trkpt>
      <trkpt lat="48.34553" lon="7.38686">
        <ele>348.2</ele>
        <time>2023-07-23T09:34:55Z</time>
      </trkpt>
      <trkpt lat="48.34554" lon="7.38691">
        <ele>348.4</ele>
        <time>2023-07-23T09:34:56Z</time>
      </trkpt>
      <trkpt lat="48.34555" lon="7.38696">
        <ele>348.5</ele>
        <time>2023-07-23T09:34:57Z</time>
      </trkpt>
      <trkpt lat="48.34556" lon="7.38701">
        <ele>348.7</ele>
        <time>2023-07-23T09:34:58Z</time>
      </trkpt>
      <trkpt lat="48.34557" lon="7.38707">
        <ele>348.9</ele>
        <time>2023-07-23T09:34:59Z</time>
      </trkpt>
      <trkpt lat="48.34558" lon="7.38713">
        <ele>349</ele>
        <time>2023-07-23T09:35:00Z</time>
      </trkpt>
      <trkpt lat="48.34558" lon="7.38718">
        <ele>349.2</ele>
        <time>2023-07-23T09:35:01Z</time>
      </trkpt>
      <trkpt lat="48.34559" lon="7.38723">
        <ele>349.3</ele>
        <time>2023-07-23T09:35:02Z</time>
      </trkpt>
      <trkpt lat="48.3456" lon="7.38729">
        <ele>349.5</ele>
        <time>2023-07-23T09:35:03Z</time>
      </trkpt>
      <trkpt lat="48.34561" lon="7.38734">
        <ele>349.7</ele>
        <time>2023-07-23T09:35:04Z</time>
      </trkpt>
      <trkpt lat="48.34562" lon="7.38739">
        <ele>349.8</ele>
        <time>2023-07-23T09:35:05Z</time>
      </trkpt>
      <trkpt lat="48.34563" lon="7.38745">
        <ele>350</ele>
        <time>2023-07-23T09:35:06Z</time>
      </trkpt>
      <trkpt lat="48.34564" lon="7.3875">
        <ele>350.1</ele>
        <time>2023-07-23T09:35:07Z</time>
      </trkpt>
      <trkpt lat="48.34564" lon="7.38756">
        <ele>350.3</ele>
        <time>2023-07-23T09:35:08Z</time>
      </trkpt>
      <trkpt lat="48.34566" lon="7.38761">
        <ele>350.4</ele>
        <time>2023-07-23T09:35:09Z</time>
      </trkpt>
      <trkpt lat="48.34567" lon="7.38766">
        <ele>350.6</ele>
        <time>2023-07-23T09:35:10Z</time>
      </trkpt>
      <trkpt lat="48.34568" lon="7.38772">
        <ele>350.8</ele>
        <time>2023-07-23T09:35:11Z</time>
      </trkpt>
      <trkpt lat="48.34569" lon="7.38777">
        <ele>350.9</ele>
        <time>2023-07-23T09:35:12Z</time>
      </trkpt>
      <trkpt lat="48.3457" lon="7.38782">
        <ele>351.1</ele>
        <time>2023-07-23T09:35:13Z</time>
      </trkpt>
      <trkpt lat="48.34571" lon="7.38787">
        <ele>351.2</ele>
        <time>2023-07-23T09:35:14Z</time>
      </trkpt>
      <trkpt lat="48.34572" lon="7.38792">
        <ele>351.4</ele>
        <time>2023-07-23T09:35:15Z</time>
      </trkpt>
      <trkpt lat="48.34573" lon="7.38797">
        <ele>351.6</ele>
        <time>2023-07-23T09:35:16Z</time>
      </trkpt>
      <trkpt lat="48.34575" lon="7.38802">
        <ele>351.8</ele>
        <time>2023-07-23T09:35:17Z</time>
      </trkpt>
      <trkpt lat="48.34576" lon="7.38807">
        <ele>351.9</ele>
        <time>2023-07-23T09:35:18Z</time>
      </trkpt>
      <trkpt lat="48.34578" lon="7.38812">
        <ele>352.1</ele>
        <time>2023-07-23T09:35:19Z</time>
      </trkpt>
      <trkpt lat="48.34579" lon="7.38817">
        <ele>352.3</ele>
        <time>2023-07-23T09:35:20Z</time>
      </trkpt>
      <trkpt lat="48.3458" lon="7.38822">
        <ele>352.5</ele>
        <time>2023-07-23T09:35:21Z</time>
      </trkpt>
      <trkpt lat="48.34582" lon="7.38827">
        <ele>352.7</ele>
        <time>2023-07-23T09:35:22Z</time>
      </trkpt>
      <trkpt lat="48.34583" lon="7.38832">
        <ele>352.9</ele>
        <time>2023-07-23T09:35:23Z</time>
      </trkpt>
      <trkpt lat="48.34584" lon="7.38836">
        <ele>353.1</ele>
        <time>2023-07-23T09:35:24Z</time>
      </trkpt>
      <trkpt lat="48.34585" lon="7.38841">
        <ele>353.3</ele>
        <time>2023-07-23T09:35:25Z</time>
      </trkpt>
      <trkpt lat="48.34587" lon="7.38846">
        <ele>353.5</ele>
        <time>2023-07-23T09:35:26Z</time>
      </trkpt>
      <trkpt lat="48.34588" lon="7.3885">
        <ele>353.7</ele>
        <time>2023-07-23T09:35:27Z</time>
      </trkpt>
      <trkpt lat="48.34589" lon="7.38855">
        <ele>353.9</ele>
        <time>2023-07-23T09:35:28Z</time>
      </trkpt>
      <trkpt lat="48.3459" lon="7.3886">
        <ele>354.1</ele>
        <time>2023-07-23T09:35:29Z</time>
      </trkpt>
      <trkpt lat="48.34592" lon="7.38865">
        <ele>354.3</ele>
        <time>2023-07-23T09:35:30Z</time>
      </trkpt>
      <trkpt lat="48.34593" lon="7.3887">
        <ele>354.5</ele>
        <time>2023-07-23T09:35:31Z</time>
      </trkpt>
      <trkpt lat="48.34594" lon="7.38875">
        <ele>354.7</ele>
        <time>2023-07-23T09:35:32Z</time>
      </trkpt>
      <trkpt lat="48.34596" lon="7.3888">
        <ele>354.9</ele>
        <time>2023-07-23T09:35:33Z</time>
      </trkpt>
      <trkpt lat="48.34597" lon="7.38886">
        <ele>355</ele>
        <time>2023-07-23T09:35:34Z</time>
      </trkpt>
      <trkpt lat="48.34599" lon="7.38891">
        <ele>355.2</ele>
        <time>2023-07-23T09:35:35Z</time>
      </trkpt>
      <trkpt lat="48.346" lon="7.38896">
        <ele>355.3</ele>
        <time>2023-07-23T09:35:36Z</time>
      </trkpt>
      <trkpt lat="48.34601" lon="7.38901">
        <ele>355.5</ele>
        <time>2023-07-23T09:35:37Z</time>
      </trkpt>
      <trkpt lat="48.34603" lon="7.38906">
        <ele>355.6</ele>
        <time>2023-07-23T09:35:38Z</time>
      </trkpt>
      <trkpt lat="48.34604" lon="7.38911">
        <ele>355.8</ele>
        <time>2023-07-23T09:35:39Z</time>
      </trkpt>
      <trkpt lat="48.34605" lon="7.38916">
        <ele>355.9</ele>
        <time>2023-07-23T09:35:40Z</time>
      </trkpt>
      <trkpt lat="48.34607" lon="7.38921">
        <ele>356.1</ele>
        <time>2023-07-23T09:35:41Z</time>
      </trkpt>
      <trkpt lat="48.34608" lon="7.38926">
        <ele>356.2</ele>
        <time>2023-07-23T09:35:42Z</time>
      </trkpt>
      <trkpt lat="48.3461" lon="7.38931">
        <ele>356.4</ele>
        <time>2023-07-23T09:35:43Z</time>
      </trkpt>
      <trkpt lat="48.34612" lon="7.38936">
        <ele>356.5</ele>
        <time>2023-07-23T09:35:44Z</time>
      </trkpt>
      <trkpt lat="48.34613" lon="7.38941">
        <ele>356.6</ele>
        <time>2023-07-23T09:35:45Z</time>
      </trkpt>
      <trkpt lat="48.34615" lon="7.38946">
        <ele>356.8</ele>
        <time>2023-07-23T09:35:46Z</time>
      </trkpt>
      <trkpt lat="48.34617" lon="7.38951">
        <ele>356.9</ele>
        <time>2023-07-23T09:35:47Z</time>
      </trkpt>
      <trkpt lat="48.34619" lon="7.38956">
        <ele>357</ele>
        <time>2023-07-23T09:35:48Z</time>
      </trkpt>
      <trkpt lat="48.34621" lon="7.38961">
        <ele>357.1</ele>
        <time>2023-07-23T09:35:49Z</time>
      </trkpt>
      <trkpt lat="48.34623" lon="7.38965">
        <ele>357.2</ele>
        <time>2023-07-23T09:35:50Z</time>
      </trkpt>
      <trkpt lat="48.34625" lon="7.3897">
        <ele>357.3</ele>
        <time>2023-07-23T09:35:51Z</time>
      </trkpt>
      <trkpt lat="48.34628" lon="7.38975">
        <ele>357.3</ele>
        <time>2023-07-23T09:35:52Z</time>
      </trkpt>
      <trkpt lat="48.3463" lon="7.3898">
        <ele>357.4</ele>
        <time>2023-07-23T09:35:53Z</time>
      </trkpt>
      <trkpt lat="48.34633" lon="7.38984">
        <ele>357.5</ele>
        <time>2023-07-23T09:35:54Z</time>
      </trkpt>
      <trkpt lat="48.34636" lon="7.38987">
        <ele>357.6</ele>
        <time>2023-07-23T09:35:55Z</time>
      </trkpt>
      <trkpt lat="48.34639" lon="7.3899">
        <ele>357.7</ele>
        <time>2023-07-23T09:35:56Z</time>
      </trkpt>
      <trkpt lat="48.34643" lon="7.38993">
        <ele>357.8</ele>
        <time>2023-07-23T09:35:57Z</time>
      </trkpt>
      <trkpt lat="48.34646" lon="7.38996">
        <ele>357.9</ele>
        <time>2023-07-23T09:35:58Z</time>
      </trkpt>
      <trkpt lat="48.34649" lon="7.38999">
        <ele>358</ele>
        <time>2023-07-23T09:35:59Z</time>
      </trkpt>
      <trkpt lat="48.34652" lon="7.39001">
        <ele>358.1</ele>
        <time>2023-07-23T09:36:00Z</time>
      </trkpt>
      <trkpt lat="48.34655" lon="7.39004">
        <ele>358.2</ele>
        <time>2023-07-23T09:36:01Z</time>
      </trkpt>
      <trkpt lat="48.34657" lon="7.39007">
        <ele>358.3</ele>
        <time>2023-07-23T09:36:02Z</time>
      </trkpt>
      <trkpt lat="48.3466" lon="7.39009">
        <ele>358.4</ele>
        <time>2023-07-23T09:36:03Z</time>
      </trkpt>
      <trkpt lat="48.34663" lon="7.39012">
        <ele>358.6</ele>
        <time>2023-07-23T09:36:04Z</time>
      </trkpt>
      <trkpt lat="48.34666" lon="7.39014">
        <ele>358.7</ele>
        <time>2023-07-23T09:36:05Z</time>
      </trkpt>
      <trkpt lat="48.34668" lon="7.39017">
        <ele>358.8</ele>
        <time>2023-07-23T09:36:06Z</time>
      </trkpt>
      <trkpt lat="48.34671" lon="7.3902">
        <ele>358.9</ele>
        <time>2023-07-23T09:36:07Z</time>
      </trkpt>
      <trkpt lat="48.34674" lon="7.39022">
        <ele>359.1</ele>
        <time>2023-07-23T09:36:08Z</time>
      </trkpt>
      <trkpt lat="48.34677" lon="7.39024">
        <ele>359.2</ele>
        <time>2023-07-23T09:36:09Z</time>
      </trkpt>
      <trkpt lat="48.34679" lon="7.39027">
        <ele>359.4</ele>
        <time>2023-07-23T09:36:10Z</time>
      </trkpt>
      <trkpt lat="48.34682" lon="7.39029">
        <ele>359.5</ele>
        <time>2023-07-23T09:36:11Z</time>
      </trkpt>
      <trkpt lat="48.34684" lon="7.39032">
        <ele>359.6</ele>
        <time>2023-07-23T09:36:12Z</time>
      </trkpt>
      <trkpt lat="48.34687" lon="7.39034">
        <ele>359.8</ele>
        <time>2023-07-23T09:36:13Z</time>
      </trkpt>
      <trkpt lat="48.3469" lon="7.39037">
        <ele>360</ele>
        <time>2023-07-23T09:36:14Z</time>
      </trkpt>
      <trkpt lat="48.34692" lon="7.39039">
        <ele>360.1</ele>
        <time>2023-07-23T09:36:15Z</time>
      </trkpt>
      <trkpt lat="48.34695" lon="7.39042">
        <ele>360.3</ele>
        <time>2023-07-23T09:36:16Z</time>
      </trkpt>
      <trkpt lat="48.34698" lon="7.39044">
        <ele>360.4</ele>
        <time>2023-07-23T09:36:17Z</time>
      </trkpt>
      <trkpt lat="48.34701" lon="7.39047">
        <ele>360.6</ele>
        <time>2023-07-23T09:36:18Z</time>
      </trkpt>
      <trkpt lat="48.34703" lon="7.39049">
        <ele>360.7</ele>
        <time>2023-07-23T09:36:19Z</time>
      </trkpt>
      <trkpt lat="48.34706" lon="7.39052">
        <ele>360.9</ele>
        <time>2023-07-23T09:36:20Z</time>
      </trkpt>
      <trkpt lat="48.34708" lon="7.39055">
        <ele>361</ele>
        <time>2023-07-23T09:36:21Z</time>
      </trkpt>
      <trkpt lat="48.34711" lon="7.39057">
        <ele>361.2</ele>
        <time>2023-07-23T09:36:22Z</time>
      </trkpt>
      <trkpt lat="48.34714" lon="7.39059">
        <ele>361.3</ele>
        <time>2023-07-23T09:36:23Z</time>
      </trkpt>
      <trkpt lat="48.34716" lon="7.39062">
        <ele>361.5</ele>
        <time>2023-07-23T09:36:24Z</time>
      </trkpt>
      <trkpt lat="48.34719" lon="7.39064">
        <ele>361.7</ele>
        <time>2023-07-23T09:36:25Z</time>
      </trkpt>
      <trkpt lat="48.34721" lon="7.39066">
        <ele>361.8</ele>
        <time>2023-07-23T09:36:26Z</time>
      </trkpt>
      <trkpt lat="48.34724" lon="7.39069">
        <ele>362</ele>
        <time>2023-07-23T09:36:27Z</time>
      </trkpt>
      <trkpt lat="48.34726" lon="7.39071">
        <ele>362.2</ele>
        <time>2023-07-23T09:36:28Z</time>
      </trkpt>
      <trkpt lat="48.34729" lon="7.39073">
        <ele>362.3</ele>
        <time>2023-07-23T09:36:29Z</time>
      </trkpt>
      <trkpt lat="48.34731" lon="7.39076">
        <ele>362.5</ele>
        <time>2023-07-23T09:36:30Z</time>
      </trkpt>
      <trkpt lat="48.34734" lon="7.39078">
        <ele>362.7</ele>
        <time>2023-07-23T09:36:31Z</time>
      </trkpt>
      <trkpt lat="48.34737" lon="7.39081">
        <ele>362.9</ele>
        <time>2023-07-23T09:36:32Z</time>
      </trkpt>
      <trkpt lat="48.34738" lon="7.39082">
        <ele>363</ele>
        <time>2023-07-23T09:36:33Z</time>
      </trkpt>
      <trkpt lat="48.34741" lon="7.39084">
        <ele>363.2</ele>
        <time>2023-07-23T09:36:34Z</time>
      </trkpt>
      <trkpt lat="48.34744" lon="7.39087">
        <ele>363.4</ele>
        <time>2023-07-23T09:36:35Z</time>
      </trkpt>
      <trkpt lat="48.34745" lon="7.39088">
        <ele>363.5</ele>
        <time>2023-07-23T09:36:36Z</time>
      </trkpt>
      <trkpt lat="48.34748" lon="7.39091">
        <ele>363.7</ele>
        <time>2023-07-23T09:36:37Z</time>
      </trkpt>
      <trkpt lat="48.34751" lon="7.39094">
        <ele>364</ele>
        <time>2023-07-23T09:36:38Z</time>
      </trkpt>
      <trkpt lat="48.34752" lon="7.39095">
        <ele>364</ele>
        <time>2023-07-23T09:36:39Z</time>
      </trkpt>
      <trkpt lat="48.34755" lon="7.39098">
        <ele>364.3</ele>
        <time>2023-07-23T09:36:40Z</time>
      </trkpt>
      <trkpt lat="48.34756" lon="7.39099">
        <ele>364.4</ele>
        <time>2023-07-23T09:36:41Z</time>
      </trkpt>
      <trkpt lat="48.34759" lon="7.39101">
        <ele>364.6</ele>
        <time>2023-07-23T09:36:42Z</time>
      </trkpt>
      <trkpt lat="48.34762" lon="7.39104">
        <ele>364.8</ele>
        <time>2023-07-23T09:36:43Z</time>
      </trkpt>
      <trkpt lat="48.34764" lon="7.39106">
        <ele>365</ele>
        <time>2023-07-23T09:36:44Z</time>
      </trkpt>
      <trkpt lat="48.34766" lon="7.39108">
        <ele>365.2</ele>
        <time>2023-07-23T09:36:45Z</time>
      </trkpt>
      <trkpt lat="48.34769" lon="7.39111">
        <ele>365.4</ele>
        <time>2023-07-23T09:36:46Z</time>
      </trkpt>
      <trkpt lat="48.34771" lon="7.39113">
        <ele>365.6</ele>
        <time>2023-07-23T09:36:47Z</time>
      </trkpt>
      <trkpt lat="48.34773" lon="7.39115">
        <ele>365.8</ele>
        <time>2023-07-23T09:36:48Z</time>
      </trkpt>
      <trkpt lat="48.34776" lon="7.39117">
        <ele>366</ele>
        <time>2023-07-23T09:36:49Z</time>
      </trkpt>
      <trkpt lat="48.34778" lon="7.3912">
        <ele>366.1</ele>
        <time>2023-07-23T09:36:50Z</time>
      </trkpt>
      <trkpt lat="48.3478" lon="7.39122">
        <ele>366.3</ele>
        <time>2023-07-23T09:36:51Z</time>
      </trkpt>
      <trkpt lat="48.34783" lon="7.39126">
        <ele>366.6</ele>
        <time>2023-07-23T09:36:52Z</time>
      </trkpt>
      <trkpt lat="48.34784" lon="7.39128">
        <ele>366.7</ele>
        <time>2023-07-23T09:36:53Z</time>
      </trkpt>
      <trkpt lat="48.34787" lon="7.39131">
        <ele>367</ele>
        <time>2023-07-23T09:36:54Z</time>
      </trkpt>
      <trkpt lat="48.34788" lon="7.39132">
        <ele>367.1</ele>
        <time>2023-07-23T09:36:55Z</time>
      </trkpt>
      <trkpt lat="48.34792" lon="7.39136">
        <ele>367.4</ele>
        <time>2023-07-23T09:36:56Z</time>
      </trkpt>
      <trkpt lat="48.34792" lon="7.39138">
        <ele>367.5</ele>
        <time>2023-07-23T09:36:57Z</time>
      </trkpt>
      <trkpt lat="48.34794" lon="7.39141">
        <ele>367.7</ele>
        <time>2023-07-23T09:36:58Z</time>
      </trkpt>
      <trkpt lat="48.34796" lon="7.39144">
        <ele>367.9</ele>
        <time>2023-07-23T09:36:59Z</time>
      </trkpt>
      <trkpt lat="48.34799" lon="7.39149">
        <ele>368.2</ele>
        <time>2023-07-23T09:37:00Z</time>
      </trkpt>
      <trkpt lat="48.348" lon="7.3915">
        <ele>368.3</ele>
        <time>2023-07-23T09:37:01Z</time>
      </trkpt>
      <trkpt lat="48.34801" lon="7.39153">
        <ele>368.5</ele>
        <time>2023-07-23T09:37:02Z</time>
      </trkpt>
      <trkpt lat="48.34803" lon="7.39157">
        <ele>368.7</ele>
        <time>2023-07-23T09:37:03Z</time>
      </trkpt>
      <trkpt lat="48.34806" lon="7.39162">
        <ele>369</ele>
        <time>2023-07-23T09:37:04Z</time>
      </trkpt>
      <trkpt lat="48.34806" lon="7.39163">
        <ele>369.2</ele>
        <time>2023-07-23T09:37:05Z</time>
      </trkpt>
      <trkpt lat="48.34809" lon="7.39167">
        <ele>369.5</ele>
        <time>2023-07-23T09:37:06Z</time>
      </trkpt>
      <trkpt lat="48.3481" lon="7.39169">
        <ele>369.6</ele>
        <time>2023-07-23T09:37:07Z</time>
      </trkpt>
      <trkpt lat="48.34812" lon="7.39174">
        <ele>369.9</ele>
        <time>2023-07-23T09:37:08Z</time>
      </trkpt>
      <trkpt lat="48.34813" lon="7.39176">
        <ele>370</ele>
        <time>2023-07-23T09:37:09Z</time>
      </trkpt>
      <trkpt lat="48.34815" lon="7.3918">
        <ele>370.4</ele>
        <time>2023-07-23T09:37:10Z</time>
      </trkpt>
      <trkpt lat="48.34816" lon="7.39181">
        <ele>370.5</ele>
        <time>2023-07-23T09:37:11Z</time>
      </trkpt>
      <trkpt lat="48.34819" lon="7.39185">
        <ele>370.8</ele>
        <time>2023-07-23T09:37:12Z</time>
      </trkpt>
      <trkpt lat="48.34821" lon="7.39186">
        <ele>370.9</ele>
        <time>2023-07-23T09:37:13Z</time>
      </trkpt>
      <trkpt lat="48.34824" lon="7.39189">
        <ele>371.2</ele>
        <time>2023-07-23T09:37:14Z</time>
      </trkpt>
      <trkpt lat="48.34825" lon="7.3919">
        <ele>371.3</ele>
        <time>2023-07-23T09:37:15Z</time>
      </trkpt>
      <trkpt lat="48.34828" lon="7.39191">
        <ele>371.5</ele>
        <time>2023-07-23T09:37:16Z</time>
      </trkpt>
      <trkpt lat="48.3483" lon="7.39192">
        <ele>371.7</ele>
        <time>2023-07-23T09:37:17Z</time>
      </trkpt>
      <trkpt lat="48.34833" lon="7.39193">
        <ele>372</ele>
        <time>2023-07-23T09:37:18Z</time>
      </trkpt>
      <trkpt lat="48.34836" lon="7.39194">
        <ele>372.2</ele>
        <time>2023-07-23T09:37:19Z</time>
      </trkpt>
      <trkpt lat="48.34839" lon="7.39194">
        <ele>372.4</ele>
        <time>2023-07-23T09:37:20Z</time>
      </trkpt>
      <trkpt lat="48.34842" lon="7.39195">
        <ele>372.6</ele>
        <time>2023-07-23T09:37:21Z</time>
      </trkpt>
      <trkpt lat="48.34844" lon="7.39195">
        <ele>372.7</ele>
        <time>2023-07-23T09:37:22Z</time>
      </trkpt>
      <trkpt lat="48.34848" lon="7.39195">
        <ele>373</ele>
        <time>2023-07-23T09:37:23Z</time>
      </trkpt>
      <trkpt lat="48.34849" lon="7.39195">
        <ele>373</ele>
        <time>2023-07-23T09:37:24Z</time>
      </trkpt>
      <trkpt lat="48.34852" lon="7.39196">
        <ele>373.2</ele>
        <time>2023-07-23T09:37:25Z</time>
      </trkpt>
      <trkpt lat="48.34854" lon="7.39196">
        <ele>373.4</ele>
        <time>2023-07-23T09:37:26Z</time>
      </trkpt>
      <trkpt lat="48.34857" lon="7.39196">
        <ele>373.6</ele>
        <time>2023-07-23T09:37:27Z</time>
      </trkpt>
      <trkpt lat="48.34861" lon="7.39197">
        <ele>373.9</ele>
        <time>2023-07-23T09:37:28Z</time>
      </trkpt>
      <trkpt lat="48.34863" lon="7.39197">
        <ele>374</ele>
        <time>2023-07-23T09:37:29Z</time>
      </trkpt>
      <trkpt lat="48.34865" lon="7.39197">
        <ele>374.2</ele>
        <time>2023-07-23T09:37:30Z</time>
      </trkpt>
      <trkpt lat="48.34869" lon="7.39197">
        <ele>374.4</ele>
        <time>2023-07-23T09:37:31Z</time>
      </trkpt>
      <trkpt lat="48.3487" lon="7.39197">
        <ele>374.5</ele>
        <time>2023-07-23T09:37:32Z</time>
      </trkpt>
      <trkpt lat="48.34873" lon="7.39198">
        <ele>374.7</ele>
        <time>2023-07-23T09:37:33Z</time>
      </trkpt>
      <trkpt lat="48.34876" lon="7.39198">
        <ele>374.8</ele>
        <time>2023-07-23T09:37:34Z</time>
      </trkpt>
      <trkpt lat="48.34879" lon="7.39199">
        <ele>375</ele>
        <time>2023-07-23T09:37:35Z</time>
      </trkpt>
      <trkpt lat="48.34882" lon="7.39199">
        <ele>375.3</ele>
        <time>2023-07-23T09:37:36Z</time>
      </trkpt>
      <trkpt lat="48.34884" lon="7.39199">
        <ele>375.4</ele>
        <time>2023-07-23T09:37:37Z</time>
      </trkpt>
      <trkpt lat="48.34888" lon="7.39199">
        <ele>375.6</ele>
        <time>2023-07-23T09:37:38Z</time>
      </trkpt>
      <trkpt lat="48.34889" lon="7.392">
        <ele>375.7</ele>
        <time>2023-07-23T09:37:39Z</time>
      </trkpt>
      <trkpt lat="48.34893" lon="7.392">
        <ele>376</ele>
        <time>2023-07-23T09:37:40Z</time>
      </trkpt>
      <trkpt lat="48.34894" lon="7.392">
        <ele>376</ele>
        <time>2023-07-23T09:37:41Z</time>
      </trkpt>
      <trkpt lat="48.34898" lon="7.39201">
        <ele>376.3</ele>
        <time>2023-07-23T09:37:42Z</time>
      </trkpt>
      <trkpt lat="48.34899" lon="7.39201">
        <ele>376.4</ele>
        <time>2023-07-23T09:37:43Z</time>
      </trkpt>
      <trkpt lat="48.34902" lon="7.39202">
        <ele>376.7</ele>
        <time>2023-07-23T09:37:44Z</time>
      </trkpt>
      <trkpt lat="48.34904" lon="7.39202">
        <ele>376.8</ele>
        <time>2023-07-23T09:37:45Z</time>
      </trkpt>
      <trkpt lat="48.34907" lon="7.39203">
        <ele>377</ele>
        <time>2023-07-23T09:37:46Z</time>
      </trkpt>
      <trkpt lat="48.34909" lon="7.39204">
        <ele>377.1</ele>
        <time>2023-07-23T09:37:47Z</time>
      </trkpt>
      <trkpt lat="48.34913" lon="7.39205">
        <ele>377.4</ele>
        <time>2023-07-23T09:37:48Z</time>
      </trkpt>
      <trkpt lat="48.34914" lon="7.39206">
        <ele>377.5</ele>
        <time>2023-07-23T09:37:49Z</time>
      </trkpt>
      <trkpt lat="48.34918" lon="7.39206">
        <ele>377.8</ele>
        <time>2023-07-23T09:37:50Z</time>
      </trkpt>
      <trkpt lat="48.34919" lon="7.39207">
        <ele>377.9</ele>
        <time>2023-07-23T09:37:51Z</time>
      </trkpt>
      <trkpt lat="48.34923" lon="7.39207">
        <ele>378.2</ele>
        <time>2023-07-23T09:37:52Z</time>
      </trkpt>
      <trkpt lat="48.34924" lon="7.39208">
        <ele>378.3</ele>
        <time>2023-07-23T09:37:53Z</time>
      </trkpt>
      <trkpt lat="48.34928" lon="7.39209">
        <ele>378.6</ele>
        <time>2023-07-23T09:37:54Z</time>
      </trkpt>
      <trkpt lat="48.34929" lon="7.39209">
        <ele>378.7</ele>
        <time>2023-07-23T09:37:55Z</time>
      </trkpt>
      <trkpt lat="48.34933" lon="7.39209">
        <ele>379</ele>
        <time>2023-07-23T09:37:56Z</time>
      </trkpt>
      <trkpt lat="48.34934" lon="7.3921">
        <ele>379.1</ele>
        <time>2023-07-23T09:37:57Z</time>
      </trkpt>
      <trkpt lat="48.34938" lon="7.3921">
        <ele>379.4</ele>
        <time>2023-07-23T09:37:58Z</time>
      </trkpt>
      <trkpt lat="48.34939" lon="7.3921">
        <ele>379.5</ele>
        <time>2023-07-23T09:37:59Z</time>
      </trkpt>
      <trkpt lat="48.34943" lon="7.3921">
        <ele>379.8</ele>
        <time>2023-07-23T09:38:00Z</time>
      </trkpt>
      <trkpt lat="48.34945" lon="7.3921">
        <ele>379.9</ele>
        <time>2023-07-23T09:38:01Z</time>
      </trkpt>
      <trkpt lat="48.34949" lon="7.39208">
        <ele>380.2</ele>
        <time>2023-07-23T09:38:02Z</time>
      </trkpt>
      <trkpt lat="48.3495" lon="7.39208">
        <ele>380.3</ele>
        <time>2023-07-23T09:38:03Z</time>
      </trkpt>
      <trkpt lat="48.34954" lon="7.39206">
        <ele>380.6</ele>
        <time>2023-07-23T09:38:04Z</time>
      </trkpt>
      <trkpt lat="48.34955" lon="7.39206">
        <ele>380.7</ele>
        <time>2023-07-23T09:38:05Z</time>
      </trkpt>
      <trkpt lat="48.34958" lon="7.39205">
        <ele>380.9</ele>
        <time>2023-07-23T09:38:06Z</time>
      </trkpt>
      <trkpt lat="48.34961" lon="7.39203">
        <ele>381.1</ele>
        <time>2023-07-23T09:38:07Z</time>
      </trkpt>
      <trkpt lat="48.34963" lon="7.39202">
        <ele>381.3</ele>
        <time>2023-07-23T09:38:08Z</time>
      </trkpt>
      <trkpt lat="48.34967" lon="7.392">
        <ele>381.5</ele>
        <time>2023-07-23T09:38:09Z</time>
      </trkpt>
      <trkpt lat="48.34968" lon="7.39199">
        <ele>381.6</ele>
        <time>2023-07-23T09:38:10Z</time>
      </trkpt>
      <trkpt lat="48.34972" lon="7.39197">
        <ele>381.9</ele>
        <time>2023-07-23T09:38:11Z</time>
      </trkpt>
      <trkpt lat="48.34973" lon="7.39196">
        <ele>382</ele>
        <time>2023-07-23T09:38:12Z</time>
      </trkpt>
      <trkpt lat="48.34977" lon="7.39193">
        <ele>382.2</ele>
        <time>2023-07-23T09:38:13Z</time>
      </trkpt>
      <trkpt lat="48.34978" lon="7.39192">
        <ele>382.3</ele>
        <time>2023-07-23T09:38:14Z</time>
      </trkpt>
      <trkpt lat="48.34981" lon="7.3919">
        <ele>382.6</ele>
        <time>2023-07-23T09:38:15Z</time>
      </trkpt>
      <trkpt lat="48.34982" lon="7.39189">
        <ele>382.6</ele>
        <time>2023-07-23T09:38:16Z</time>
      </trkpt>
      <trkpt lat="48.34985" lon="7.39186">
        <ele>382.9</ele>
        <time>2023-07-23T09:38:17Z</time>
      </trkpt>
      <trkpt lat="48.34987" lon="7.39185">
        <ele>383</ele>
        <time>2023-07-23T09:38:18Z</time>
      </trkpt>
      <trkpt lat="48.3499" lon="7.39182">
        <ele>383.2</ele>
        <time>2023-07-23T09:38:19Z</time>
      </trkpt>
      <trkpt lat="48.34991" lon="7.39182">
        <ele>383.3</ele>
        <time>2023-07-23T09:38:20Z</time>
      </trkpt>
      <trkpt lat="48.34994" lon="7.39179">
        <ele>383.5</ele>
        <time>2023-07-23T09:38:21Z</time>
      </trkpt>
      <trkpt lat="48.34996" lon="7.39179">
        <ele>383.6</ele>
        <time>2023-07-23T09:38:22Z</time>
      </trkpt>
      <trkpt lat="48.34999" lon="7.39177">
        <ele>383.9</ele>
        <time>2023-07-23T09:38:23Z</time>
      </trkpt>
      <trkpt lat="48.35001" lon="7.39176">
        <ele>384</ele>
        <time>2023-07-23T09:38:24Z</time>
      </trkpt>
      <trkpt lat="48.35004" lon="7.39175">
        <ele>384.2</ele>
        <time>2023-07-23T09:38:25Z</time>
      </trkpt>
      <trkpt lat="48.35006" lon="7.39175">
        <ele>384.3</ele>
        <time>2023-07-23T09:38:26Z</time>
      </trkpt>
      <trkpt lat="48.35008" lon="7.39174">
        <ele>384.5</ele>
        <time>2023-07-23T09:38:27Z</time>
      </trkpt>
      <trkpt lat="48.35012" lon="7.39174">
        <ele>384.8</ele>
        <time>2023-07-23T09:38:28Z</time>
      </trkpt>
      <trkpt lat="48.35013" lon="7.39175">
        <ele>384.9</ele>
        <time>2023-07-23T09:38:29Z</time>
      </trkpt>
      <trkpt lat="48.35017" lon="7.39175">
        <ele>385.2</ele>
        <time>2023-07-23T09:38:30Z</time>
      </trkpt>
      <trkpt lat="48.35018" lon="7.39175">
        <ele>385.3</ele>
        <time>2023-07-23T09:38:31Z</time>
      </trkpt>
      <trkpt lat="48.35021" lon="7.39176">
        <ele>385.5</ele>
        <time>2023-07-23T09:38:32Z</time>
      </trkpt>
      <trkpt lat="48.35024" lon="7.39177">
        <ele>385.7</ele>
        <time>2023-07-23T09:38:33Z</time>
      </trkpt>
      <trkpt lat="48.35027" lon="7.39178">
        <ele>386</ele>
        <time>2023-07-23T09:38:34Z</time>
      </trkpt>
      <trkpt lat="48.35028" lon="7.39178">
        <ele>386.1</ele>
        <time>2023-07-23T09:38:35Z</time>
      </trkpt>
      <trkpt lat="48.35031" lon="7.39179">
        <ele>386.3</ele>
        <time>2023-07-23T09:38:36Z</time>
      </trkpt>
      <trkpt lat="48.35034" lon="7.39181">
        <ele>386.6</ele>
        <time>2023-07-23T09:38:37Z</time>
      </trkpt>
      <trkpt lat="48.35037" lon="7.39182">
        <ele>386.8</ele>
        <time>2023-07-23T09:38:38Z</time>
      </trkpt>
      <trkpt lat="48.35039" lon="7.39183">
        <ele>387</ele>
        <time>2023-07-23T09:38:39Z</time>
      </trkpt>
      <trkpt lat="48.35043" lon="7.39185">
        <ele>387.2</ele>
        <time>2023-07-23T09:38:40Z</time>
      </trkpt>
      <trkpt lat="48.35044" lon="7.39185">
        <ele>387.3</ele>
        <time>2023-07-23T09:38:41Z</time>
      </trkpt>
      <trkpt lat="48.35047" lon="7.39187">
        <ele>387.5</ele>
        <time>2023-07-23T09:38:42Z</time>
      </trkpt>
      <trkpt lat="48.35049" lon="7.39189">
        <ele>387.7</ele>
        <time>2023-07-23T09:38:43Z</time>
      </trkpt>
      <trkpt lat="48.35053" lon="7.39191">
        <ele>388</ele>
        <time>2023-07-23T09:38:44Z</time>
      </trkpt>
      <trkpt lat="48.35054" lon="7.39191">
        <ele>388</ele>
        <time>2023-07-23T09:38:45Z</time>
      </trkpt>
      <trkpt lat="48.35057" lon="7.39192">
        <ele>388.2</ele>
        <time>2023-07-23T09:38:46Z</time>
      </trkpt>
      <trkpt lat="48.35059" lon="7.39194">
        <ele>388.3</ele>
        <time>2023-07-23T09:38:47Z</time>
      </trkpt>
      <trkpt lat="48.35062" lon="7.39196">
        <ele>388.5</ele>
        <time>2023-07-23T09:38:48Z</time>
      </trkpt>
      <trkpt lat="48.35065" lon="7.39198">
        <ele>388.7</ele>
        <time>2023-07-23T09:38:49Z</time>
      </trkpt>
      <trkpt lat="48.35067" lon="7.39198">
        <ele>388.7</ele>
        <time>2023-07-23T09:38:50Z</time>
      </trkpt>
      <trkpt lat="48.35069" lon="7.39199">
        <ele>388.9</ele>
        <time>2023-07-23T09:38:51Z</time>
      </trkpt>
      <trkpt lat="48.35072" lon="7.39201">
        <ele>389</ele>
        <time>2023-07-23T09:38:52Z</time>
      </trkpt>
      <trkpt lat="48.35075" lon="7.39202">
        <ele>389.1</ele>
        <time>2023-07-23T09:38:53Z</time>
      </trkpt>
      <trkpt lat="48.35078" lon="7.39204">
        <ele>389.3</ele>
        <time>2023-07-23T09:38:54Z</time>
      </trkpt>
      <trkpt lat="48.35081" lon="7.39205">
        <ele>389.4</ele>
        <time>2023-07-23T09:38:55Z</time>
      </trkpt>
      <trkpt lat="48.35084" lon="7.39207">
        <ele>389.5</ele>
        <time>2023-07-23T09:38:56Z</time>
      </trkpt>
      <trkpt lat="48.35087" lon="7.39209">
        <ele>389.7</ele>
        <time>2023-07-23T09:38:57Z</time>
      </trkpt>
      <trkpt lat="48.35089" lon="7.39211">
        <ele>389.8</ele>
        <time>2023-07-23T09:38:58Z</time>
      </trkpt>
      <trkpt lat="48.35092" lon="7.39212">
        <ele>389.9</ele>
        <time>2023-07-23T09:38:59Z</time>
      </trkpt>
      <trkpt lat="48.35095" lon="7.39214">
        <ele>390.1</ele>
        <time>2023-07-23T09:39:00Z</time>
      </trkpt>
      <trkpt lat="48.35098" lon="7.39216">
        <ele>390.2</ele>
        <time>2023-07-23T09:39:01Z</time>
      </trkpt>
      <trkpt lat="48.35101" lon="7.39218">
        <ele>390.3</ele>
        <time>2023-07-23T09:39:02Z</time>
      </trkpt>
      <trkpt lat="48.35104" lon="7.39219">
        <ele>390.5</ele>
        <time>2023-07-23T09:39:03Z</time>
      </trkpt>
      <trkpt lat="48.35107" lon="7.39221">
        <ele>390.6</ele>
        <time>2023-07-23T09:39:04Z</time>
      </trkpt>
      <trkpt lat="48.3511" lon="7.39223">
        <ele>390.7</ele>
        <time>2023-07-23T09:39:05Z</time>
      </trkpt>
      <trkpt lat="48.35113" lon="7.39225">
        <ele>390.8</ele>
        <time>2023-07-23T09:39:06Z</time>
      </trkpt>
      <trkpt lat="48.35116" lon="7.39227">
        <ele>390.9</ele>
        <time>2023-07-23T09:39:07Z</time>
      </trkpt>
      <trkpt lat="48.35119" lon="7.39229">
        <ele>391</ele>
        <time>2023-07-23T09:39:08Z</time>
      </trkpt>
      <trkpt lat="48.35122" lon="7.39231">
        <ele>391.1</ele>
        <time>2023-07-23T09:39:09Z</time>
      </trkpt>
      <trkpt lat="48.35125" lon="7.39233">
        <ele>391.2</ele>
        <time>2023-07-23T09:39:10Z</time>
      </trkpt>
      <trkpt lat="48.35128" lon="7.39234">
        <ele>391.3</ele>
        <time>2023-07-23T09:39:11Z</time>
      </trkpt>
      <trkpt lat="48.35131" lon="7.39236">
        <ele>391.3</ele>
        <time>2023-07-23T09:39:12Z</time>
      </trkpt>
      <trkpt lat="48.35134" lon="7.39237">
        <ele>391.4</ele>
        <time>2023-07-23T09:39:13Z</time>
      </trkpt>
      <trkpt lat="48.35138" lon="7.39239">
        <ele>391.4</ele>
        <time>2023-07-23T09:39:14Z</time>
      </trkpt>
      <trkpt lat="48.35141" lon="7.3924">
        <ele>391.4</ele>
        <time>2023-07-23T09:39:15Z</time>
      </trkpt>
      <trkpt lat="48.35145" lon="7.39241">
        <ele>391.4</ele>
        <time>2023-07-23T09:39:16Z</time>
      </trkpt>
      <trkpt lat="48.3515" lon="7.39241">
        <ele>391.4</ele>
        <time>2023-07-23T09:39:17Z</time>
      </trkpt>
      <trkpt lat="48.35154" lon="7.3924">
        <ele>391.3</ele>
        <time>2023-07-23T09:39:18Z</time>
      </trkpt>
      <trkpt lat="48.35159" lon="7.39239">
        <ele>391.2</ele>
        <time>2023-07-23T09:39:19Z</time>
      </trkpt>
      <trkpt lat="48.35164" lon="7.39236">
        <ele>391.1</ele>
        <time>2023-07-23T09:39:20Z</time>
      </trkpt>
      <trkpt lat="48.35168" lon="7.39231">
        <ele>390.9</ele>
        <time>2023-07-23T09:39:21Z</time>
      </trkpt>
      <trkpt lat="48.35173" lon="7.39225">
        <ele>390.7</ele>
        <time>2023-07-23T09:39:22Z</time>
      </trkpt>
      <trkpt lat="48.35176" lon="7.39217">
        <ele>390.3</ele>
        <time>2023-07-23T09:39:23Z</time>
      </trkpt>
      <trkpt lat="48.3518" lon="7.39209">
        <ele>389.9</ele>
        <time>2023-07-23T09:39:24Z</time>
      </trkpt>
      <trkpt lat="48.35183" lon="7.39199">
        <ele>389.4</ele>
        <time>2023-07-23T09:39:25Z</time>
      </trkpt>
      <trkpt lat="48.35187" lon="7.39188">
        <ele>388.9</ele>
        <time>2023-07-23T09:39:26Z</time>
      </trkpt>
      <trkpt lat="48.35191" lon="7.39178">
        <ele>388.4</ele>
        <time>2023-07-23T09:39:27Z</time>
      </trkpt>
      <trkpt lat="48.35196" lon="7.39167">
        <ele>387.8</ele>
        <time>2023-07-23T09:39:28Z</time>
      </trkpt>
      <trkpt lat="48.35201" lon="7.39157">
        <ele>387.2</ele>
        <time>2023-07-23T09:39:29Z</time>
      </trkpt>
      <trkpt lat="48.35207" lon="7.39146">
        <ele>386.6</ele>
        <time>2023-07-23T09:39:30Z</time>
      </trkpt>
      <trkpt lat="48.35214" lon="7.39136">
        <ele>386</ele>
        <time>2023-07-23T09:39:31Z</time>
      </trkpt>
      <trkpt lat="48.35222" lon="7.39126">
        <ele>385.3</ele>
        <time>2023-07-23T09:39:32Z</time>
      </trkpt>
      <trkpt lat="48.3523" lon="7.39117">
        <ele>384.5</ele>
        <time>2023-07-23T09:39:33Z</time>
      </trkpt>
      <trkpt lat="48.35238" lon="7.39108">
        <ele>383.8</ele>
        <time>2023-07-23T09:39:34Z</time>
      </trkpt>
      <trkpt lat="48.35246" lon="7.39098">
        <ele>383</ele>
        <time>2023-07-23T09:39:35Z</time>
      </trkpt>
      <trkpt lat="48.35253" lon="7.39087">
        <ele>382.2</ele>
        <time>2023-07-23T09:39:36Z</time>
      </trkpt>
      <trkpt lat="48.35259" lon="7.39074">
        <ele>381.5</ele>
        <time>2023-07-23T09:39:37Z</time>
      </trkpt>
      <trkpt lat="48.35265" lon="7.3906">
        <ele>380.8</ele>
        <time>2023-07-23T09:39:38Z</time>
      </trkpt>
      <trkpt lat="48.35269" lon="7.39046">
        <ele>380</ele>
        <time>2023-07-23T09:39:39Z</time>
      </trkpt>
      <trkpt lat="48.35273" lon="7.3903">
        <ele>379.2</ele>
        <time>2023-07-23T09:39:40Z</time>
      </trkpt>
      <trkpt lat="48.35277" lon="7.39016">
        <ele>378.4</ele>
        <time>2023-07-23T09:39:41Z</time>
      </trkpt>
      <trkpt lat="48.35281" lon="7.38999">
        <ele>377.5</ele>
        <time>2023-07-23T09:39:42Z</time>
      </trkpt>
      <trkpt lat="48.35285" lon="7.38983">
        <ele>376.7</ele>
        <time>2023-07-23T09:39:43Z</time>
      </trkpt>
      <trkpt lat="48.3529" lon="7.38968">
        <ele>375.8</ele>
        <time>2023-07-23T09:39:44Z</time>
      </trkpt>
      <trkpt lat="48.35297" lon="7.38952">
        <ele>374.9</ele>
        <time>2023-07-23T09:39:45Z</time>
      </trkpt>
      <trkpt lat="48.35304" lon="7.38937">
        <ele>373.9</ele>
        <time>2023-07-23T09:39:46Z</time>
      </trkpt>
      <trkpt lat="48.35312" lon="7.38922">
        <ele>373</ele>
        <time>2023-07-23T09:39:47Z</time>
      </trkpt>
      <trkpt lat="48.3532" lon="7.38907">
        <ele>372.2</ele>
        <time>2023-07-23T09:39:48Z</time>
      </trkpt>
      <trkpt lat="48.35329" lon="7.38893">
        <ele>371.3</ele>
        <time>2023-07-23T09:39:49Z</time>
      </trkpt>
      <trkpt lat="48.35337" lon="7.38879">
        <ele>370.5</ele>
        <time>2023-07-23T09:39:50Z</time>
      </trkpt>
      <trkpt lat="48.35346" lon="7.38866">
        <ele>369.7</ele>
        <time>2023-07-23T09:39:51Z</time>
      </trkpt>
      <trkpt lat="48.35354" lon="7.38853">
        <ele>368.9</ele>
        <time>2023-07-23T09:39:52Z</time>
      </trkpt>
      <trkpt lat="48.35362" lon="7.38842">
        <ele>368.3</ele>
        <time>2023-07-23T09:39:53Z</time>
      </trkpt>
      <trkpt lat="48.35369" lon="7.38832">
        <ele>367.6</ele>
        <time>2023-07-23T09:39:54Z</time>
      </trkpt>
      <trkpt lat="48.35376" lon="7.38823">
        <ele>366.9</ele>
        <time>2023-07-23T09:39:55Z</time>
      </trkpt>
      <trkpt lat="48.35383" lon="7.38813">
        <ele>366.3</ele>
        <time>2023-07-23T09:39:56Z</time>
      </trkpt>
      <trkpt lat="48.35391" lon="7.38805">
        <ele>365.6</ele>
        <time>2023-07-23T09:39:57Z</time>
      </trkpt>
      <trkpt lat="48.354" lon="7.38799">
        <ele>364.9</ele>
        <time>2023-07-23T09:39:58Z</time>
      </trkpt>
      <trkpt lat="48.3541" lon="7.38797">
        <ele>364.3</ele>
        <time>2023-07-23T09:39:59Z</time>
      </trkpt>
      <trkpt lat="48.3542" lon="7.388">
        <ele>363.6</ele>
        <time>2023-07-23T09:40:00Z</time>
      </trkpt>
      <trkpt lat="48.35429" lon="7.38808">
        <ele>363</ele>
        <time>2023-07-23T09:40:01Z</time>
      </trkpt>
      <trkpt lat="48.35436" lon="7.38821">
        <ele>362.3</ele>
        <time>2023-07-23T09:40:02Z</time>
      </trkpt>
      <trkpt lat="48.3544" lon="7.38836">
        <ele>361.6</ele>
        <time>2023-07-23T09:40:03Z</time>
      </trkpt>
      <trkpt lat="48.3544" lon="7.38852">
        <ele>360.9</ele>
        <time>2023-07-23T09:40:04Z</time>
      </trkpt>
      <trkpt lat="48.35439" lon="7.38869">
        <ele>360.1</ele>
        <time>2023-07-23T09:40:05Z</time>
      </trkpt>
      <trkpt lat="48.35437" lon="7.38886">
        <ele>359.3</ele>
        <time>2023-07-23T09:40:06Z</time>
      </trkpt>
      <trkpt lat="48.35436" lon="7.38903">
        <ele>358.4</ele>
        <time>2023-07-23T09:40:07Z</time>
      </trkpt>
      <trkpt lat="48.35436" lon="7.3892">
        <ele>357.6</ele>
        <time>2023-07-23T09:40:08Z</time>
      </trkpt>
      <trkpt lat="48.35438" lon="7.38938">
        <ele>356.7</ele>
        <time>2023-07-23T09:40:09Z</time>
      </trkpt>
      <trkpt lat="48.35441" lon="7.38956">
        <ele>355.8</ele>
        <time>2023-07-23T09:40:10Z</time>
      </trkpt>
      <trkpt lat="48.35443" lon="7.38975">
        <ele>354.9</ele>
        <time>2023-07-23T09:40:11Z</time>
      </trkpt>
      <trkpt lat="48.35446" lon="7.38993">
        <ele>354</ele>
        <time>2023-07-23T09:40:12Z</time>
      </trkpt>
      <trkpt lat="48.3545" lon="7.39012">
        <ele>353.2</ele>
        <time>2023-07-23T09:40:13Z</time>
      </trkpt>
      <trkpt lat="48.35454" lon="7.39031">
        <ele>352.3</ele>
        <time>2023-07-23T09:40:14Z</time>
      </trkpt>
      <trkpt lat="48.35458" lon="7.3905">
        <ele>351.4</ele>
        <time>2023-07-23T09:40:15Z</time>
      </trkpt>
      <trkpt lat="48.35462" lon="7.39069">
        <ele>350.5</ele>
        <time>2023-07-23T09:40:16Z</time>
      </trkpt>
      <trkpt lat="48.35466" lon="7.39088">
        <ele>349.6</ele>
        <time>2023-07-23T09:40:17Z</time>
      </trkpt>
      <trkpt lat="48.3547" lon="7.39108">
        <ele>348.7</ele>
        <time>2023-07-23T09:40:18Z</time>
      </trkpt>
      <trkpt lat="48.35475" lon="7.39128">
        <ele>347.7</ele>
        <time>2023-07-23T09:40:19Z</time>
      </trkpt>
      <trkpt lat="48.35479" lon="7.39149">
        <ele>346.8</ele>
        <time>2023-07-23T09:40:20Z</time>
      </trkpt>
      <trkpt lat="48.35483" lon="7.39169">
        <ele>345.8</ele>
        <time>2023-07-23T09:40:21Z</time>
      </trkpt>
      <trkpt lat="48.35489" lon="7.3919">
        <ele>344.9</ele>
        <time>2023-07-23T09:40:22Z</time>
      </trkpt>
      <trkpt lat="48.35496" lon="7.39209">
        <ele>343.9</ele>
        <time>2023-07-23T09:40:23Z</time>
      </trkpt>
      <trkpt lat="48.35502" lon="7.3923">
        <ele>342.9</ele>
        <time>2023-07-23T09:40:24Z</time>
      </trkpt>
      <trkpt lat="48.35509" lon="7.3925">
        <ele>341.9</ele>
        <time>2023-07-23T09:40:25Z</time>
      </trkpt>
      <trkpt lat="48.35516" lon="7.3927">
        <ele>341</ele>
        <time>2023-07-23T09:40:26Z</time>
      </trkpt>
      <trkpt lat="48.35522" lon="7.39288">
        <ele>340.1</ele>
        <time>2023-07-23T09:40:27Z</time>
      </trkpt>
      <trkpt lat="48.35528" lon="7.39305">
        <ele>339.3</ele>
        <time>2023-07-23T09:40:28Z</time>
      </trkpt>
      <trkpt lat="48.35532" lon="7.3932">
        <ele>338.7</ele>
        <time>2023-07-23T09:40:29Z</time>
      </trkpt>
      <trkpt lat="48.35537" lon="7.39331">
        <ele>338.2</ele>
        <time>2023-07-23T09:40:30Z</time>
      </trkpt>
      <trkpt lat="48.35542" lon="7.3934">
        <ele>337.9</ele>
        <time>2023-07-23T09:40:31Z</time>
      </trkpt>
      <trkpt lat="48.35549" lon="7.39346">
        <ele>337.5</ele>
        <time>2023-07-23T09:40:32Z</time>
      </trkpt>
      <trkpt lat="48.35558" lon="7.39347">
        <ele>337.1</ele>
        <time>2023-07-23T09:40:33Z</time>
      </trkpt>
      <trkpt lat="48.35566" lon="7.39345">
        <ele>336.7</ele>
        <time>2023-07-23T09:40:34Z</time>
      </trkpt>
      <trkpt lat="48.35574" lon="7.39339">
        <ele>336.3</ele>
        <time>2023-07-23T09:40:35Z</time>
      </trkpt>
      <trkpt lat="48.35579" lon="7.3933">
        <ele>335.9</ele>
        <time>2023-07-23T09:40:36Z</time>
      </trkpt>
      <trkpt lat="48.35584" lon="7.39319">
        <ele>335.6</ele>
        <time>2023-07-23T09:40:37Z</time>
      </trkpt>
      <trkpt lat="48.35588" lon="7.39307">
        <ele>335.2</ele>
        <time>2023-07-23T09:40:38Z</time>
      </trkpt>
      <trkpt lat="48.35592" lon="7.39295">
        <ele>334.8</ele>
        <time>2023-07-23T09:40:39Z</time>
      </trkpt>
      <trkpt lat="48.35596" lon="7.39282">
        <ele>334.5</ele>
        <time>2023-07-23T09:40:40Z</time>
      </trkpt>
      <trkpt lat="48.35599" lon="7.39269">
        <ele>334.2</ele>
        <time>2023-07-23T09:40:41Z</time>
      </trkpt>
      <trkpt lat="48.35603" lon="7.39256">
        <ele>333.8</ele>
        <time>2023-07-23T09:40:42Z</time>
      </trkpt>
      <trkpt lat="48.35607" lon="7.39243">
        <ele>333.5</ele>
        <time>2023-07-23T09:40:43Z</time>
      </trkpt>
      <trkpt lat="48.35611" lon="7.39231">
        <ele>333.1</ele>
        <time>2023-07-23T09:40:44Z</time>
      </trkpt>
      <trkpt lat="48.35617" lon="7.39222">
        <ele>332.8</ele>
        <time>2023-07-23T09:40:45Z</time>
      </trkpt>
      <trkpt lat="48.35625" lon="7.39218">
        <ele>332.5</ele>
        <time>2023-07-23T09:40:46Z</time>
      </trkpt>
      <trkpt lat="48.35634" lon="7.39219">
        <ele>332</ele>
        <time>2023-07-23T09:40:47Z</time>
      </trkpt>
      <trkpt lat="48.35642" lon="7.39226">
        <ele>331.5</ele>
        <time>2023-07-23T09:40:48Z</time>
      </trkpt>
      <trkpt lat="48.35649" lon="7.39237">
        <ele>330.9</ele>
        <time>2023-07-23T09:40:49Z</time>
      </trkpt>
      <trkpt lat="48.35654" lon="7.39249">
        <ele>330.3</ele>
        <time>2023-07-23T09:40:50Z</time>
      </trkpt>
      <trkpt lat="48.35658" lon="7.39262">
        <ele>329.7</ele>
        <time>2023-07-23T09:40:51Z</time>
      </trkpt>
      <trkpt lat="48.35663" lon="7.39275">
        <ele>329.2</ele>
        <time>2023-07-23T09:40:52Z</time>
      </trkpt>
      <trkpt lat="48.35667" lon="7.39289">
        <ele>328.8</ele>
        <time>2023-07-23T09:40:53Z</time>
      </trkpt>
      <trkpt lat="48.35671" lon="7.39303">
        <ele>328.3</ele>
        <time>2023-07-23T09:40:54Z</time>
      </trkpt>
      <trkpt lat="48.35675" lon="7.39317">
        <ele>327.8</ele>
        <time>2023-07-23T09:40:55Z</time>
      </trkpt>
      <trkpt lat="48.35679" lon="7.39332">
        <ele>327.3</ele>
        <time>2023-07-23T09:40:56Z</time>
      </trkpt>
      <trkpt lat="48.35683" lon="7.39347">
        <ele>326.8</ele>
        <time>2023-07-23T09:40:57Z</time>
      </trkpt>
      <trkpt lat="48.35686" lon="7.39362">
        <ele>326.3</ele>
        <time>2023-07-23T09:40:58Z</time>
      </trkpt>
      <trkpt lat="48.35689" lon="7.39377">
        <ele>325.8</ele>
        <time>2023-07-23T09:40:59Z</time>
      </trkpt>
      <trkpt lat="48.35693" lon="7.39393">
        <ele>325.2</ele>
        <time>2023-07-23T09:41:00Z</time>
      </trkpt>
      <trkpt lat="48.35695" lon="7.39409">
        <ele>324.7</ele>
        <time>2023-07-23T09:41:01Z</time>
      </trkpt>
      <trkpt lat="48.35696" lon="7.39426">
        <ele>324.2</ele>
        <time>2023-07-23T09:41:02Z</time>
      </trkpt>
      <trkpt lat="48.35696" lon="7.39442">
        <ele>323.6</ele>
        <time>2023-07-23T09:41:03Z</time>
      </trkpt>
      <trkpt lat="48.35696" lon="7.39459">
        <ele>323</ele>
        <time>2023-07-23T09:41:04Z</time>
      </trkpt>
      <trkpt lat="48.35696" lon="7.39476">
        <ele>322.5</ele>
        <time>2023-07-23T09:41:05Z</time>
      </trkpt>
      <trkpt lat="48.35697" lon="7.39493">
        <ele>322</ele>
        <time>2023-07-23T09:41:06Z</time>
      </trkpt>
      <trkpt lat="48.357" lon="7.3951">
        <ele>321.4</ele>
        <time>2023-07-23T09:41:07Z</time>
      </trkpt>
      <trkpt lat="48.35704" lon="7.39527">
        <ele>320.9</ele>
        <time>2023-07-23T09:41:08Z</time>
      </trkpt>
      <trkpt lat="48.35707" lon="7.39544">
        <ele>320.3</ele>
        <time>2023-07-23T09:41:09Z</time>
      </trkpt>
      <trkpt lat="48.35711" lon="7.3956">
        <ele>319.7</ele>
        <time>2023-07-23T09:41:10Z</time>
      </trkpt>
      <trkpt lat="48.35715" lon="7.39577">
        <ele>319.1</ele>
        <time>2023-07-23T09:41:11Z</time>
      </trkpt>
      <trkpt lat="48.3572" lon="7.39595">
        <ele>318.5</ele>
        <time>2023-07-23T09:41:12Z</time>
      </trkpt>
      <trkpt lat="48.35724" lon="7.39612">
        <ele>317.9</ele>
        <time>2023-07-23T09:41:13Z</time>
      </trkpt>
      <trkpt lat="48.35729" lon="7.39628">
        <ele>317.3</ele>
        <time>2023-07-23T09:41:14Z</time>
      </trkpt>
      <trkpt lat="48.35734" lon="7.39646">
        <ele>316.6</ele>
        <time>2023-07-23T09:41:15Z</time>
      </trkpt>
      <trkpt lat="48.35738" lon="7.39664">
        <ele>316</ele>
        <time>2023-07-23T09:41:16Z</time>
      </trkpt>
      <trkpt lat="48.35743" lon="7.39681">
        <ele>315.3</ele>
        <time>2023-07-23T09:41:17Z</time>
      </trkpt>
      <trkpt lat="48.35748" lon="7.39699">
        <ele>314.6</ele>
        <time>2023-07-23T09:41:18Z</time>
      </trkpt>
      <trkpt lat="48.35753" lon="7.39717">
        <ele>313.9</ele>
        <time>2023-07-23T09:41:19Z</time>
      </trkpt>
      <trkpt lat="48.35758" lon="7.39736">
        <ele>313.1</ele>
        <time>2023-07-23T09:41:20Z</time>
      </trkpt>
      <trkpt lat="48.35763" lon="7.39754">
        <ele>312.3</ele>
        <time>2023-07-23T09:41:21Z</time>
      </trkpt>
      <trkpt lat="48.35769" lon="7.39773">
        <ele>311.5</ele>
        <time>2023-07-23T09:41:22Z</time>
      </trkpt>
      <trkpt lat="48.35774" lon="7.39792">
        <ele>310.8</ele>
        <time>2023-07-23T09:41:23Z</time>
      </trkpt>
      <trkpt lat="48.3578" lon="7.39811">
        <ele>310</ele>
        <time>2023-07-23T09:41:24Z</time>
      </trkpt>
      <trkpt lat="48.35786" lon="7.39831">
        <ele>309.2</ele>
        <time>2023-07-23T09:41:25Z</time>
      </trkpt>
      <trkpt lat="48.35791" lon="7.3985">
        <ele>308.4</ele>
        <time>2023-07-23T09:41:26Z</time>
      </trkpt>
      <trkpt lat="48.35797" lon="7.39868">
        <ele>307.6</ele>
        <time>2023-07-23T09:41:27Z</time>
      </trkpt>
      <trkpt lat="48.35802" lon="7.39885">
        <ele>306.9</ele>
        <time>2023-07-23T09:41:28Z</time>
      </trkpt>
      <trkpt lat="48.35809" lon="7.39902">
        <ele>306.2</ele>
        <time>2023-07-23T09:41:29Z</time>
      </trkpt>
      <trkpt lat="48.35817" lon="7.39916">
        <ele>305.6</ele>
        <time>2023-07-23T09:41:30Z</time>
      </trkpt>
      <trkpt lat="48.35825" lon="7.39929">
        <ele>305.1</ele>
        <time>2023-07-23T09:41:31Z</time>
      </trkpt>
      <trkpt lat="48.35835" lon="7.39937">
        <ele>304.6</ele>
        <time>2023-07-23T09:41:32Z</time>
      </trkpt>
      <trkpt lat="48.35846" lon="7.39943">
        <ele>304</ele>
        <time>2023-07-23T09:41:33Z</time>
      </trkpt>
      <trkpt lat="48.35857" lon="7.39946">
        <ele>303.5</ele>
        <time>2023-07-23T09:41:34Z</time>
      </trkpt>
      <trkpt lat="48.35869" lon="7.39949">
        <ele>302.9</ele>
        <time>2023-07-23T09:41:35Z</time>
      </trkpt>
      <trkpt lat="48.35881" lon="7.39953">
        <ele>302.4</ele>
        <time>2023-07-23T09:41:36Z</time>
      </trkpt>
      <trkpt lat="48.35893" lon="7.3996">
        <ele>301.8</ele>
        <time>2023-07-23T09:41:37Z</time>
      </trkpt>
      <trkpt lat="48.35903" lon="7.3997">
        <ele>301.4</ele>
        <time>2023-07-23T09:41:38Z</time>
      </trkpt>
      <trkpt lat="48.35913" lon="7.39984">
        <ele>301.3</ele>
        <time>2023-07-23T09:41:39Z</time>
      </trkpt>
      <trkpt lat="48.3592" lon="7.39999">
        <ele>300.4</ele>
        <time>2023-07-23T09:41:40Z</time>
      </trkpt>
      <trkpt lat="48.35926" lon="7.40018">
        <ele>299.6</ele>
        <time>2023-07-23T09:41:41Z</time>
      </trkpt>
      <trkpt lat="48.3593" lon="7.40037">
        <ele>298.8</ele>
        <time>2023-07-23T09:41:42Z</time>
      </trkpt>
      <trkpt lat="48.35935" lon="7.40055">
        <ele>297.9</ele>
        <time>2023-07-23T09:41:43Z</time>
      </trkpt>
      <trkpt lat="48.35941" lon="7.40073">
        <ele>297.1</ele>
        <time>2023-07-23T09:41:44Z</time>
      </trkpt>
      <trkpt lat="48.35945" lon="7.40092">
        <ele>296.3</ele>
        <time>2023-07-23T09:41:45Z</time>
      </trkpt>
      <trkpt lat="48.35951" lon="7.40111">
        <ele>295.4</ele>
        <time>2023-07-23T09:41:46Z</time>
      </trkpt>
      <trkpt lat="48.35956" lon="7.4013">
        <ele>294.6</ele>
        <time>2023-07-23T09:41:47Z</time>
      </trkpt>
      <trkpt lat="48.35962" lon="7.4015">
        <ele>293.8</ele>
        <time>2023-07-23T09:41:48Z</time>
      </trkpt>
      <trkpt lat="48.35967" lon="7.4017">
        <ele>293.1</ele>
        <time>2023-07-23T09:41:49Z</time>
      </trkpt>
      <trkpt lat="48.35972" lon="7.4019">
        <ele>292.3</ele>
        <time>2023-07-23T09:41:50Z</time>
      </trkpt>
      <trkpt lat="48.35977" lon="7.4021">
        <ele>291.6</ele>
        <time>2023-07-23T09:41:51Z</time>
      </trkpt>
      <trkpt lat="48.35981" lon="7.40231">
        <ele>290.8</ele>
        <time>2023-07-23T09:41:52Z</time>
      </trkpt>
      <trkpt lat="48.35986" lon="7.40252">
        <ele>290.1</ele>
        <time>2023-07-23T09:41:53Z</time>
      </trkpt>
      <trkpt lat="48.3599" lon="7.40273">
        <ele>289.3</ele>
        <time>2023-07-23T09:41:54Z</time>
      </trkpt>
      <trkpt lat="48.35994" lon="7.40295">
        <ele>288.6</ele>
        <time>2023-07-23T09:41:55Z</time>
      </trkpt>
      <trkpt lat="48.35999" lon="7.40316">
        <ele>287.7</ele>
        <time>2023-07-23T09:41:56Z</time>
      </trkpt>
      <trkpt lat="48.36004" lon="7.40338">
        <ele>286.6</ele>
        <time>2023-07-23T09:41:57Z</time>
      </trkpt>
      <trkpt lat="48.36009" lon="7.4036">
        <ele>285.6</ele>
        <time>2023-07-23T09:41:58Z</time>
      </trkpt>
      <trkpt lat="48.36013" lon="7.40382">
        <ele>284.8</ele>
        <time>2023-07-23T09:41:59Z</time>
      </trkpt>
      <trkpt lat="48.36018" lon="7.40404">
        <ele>283.9</ele>
        <time>2023-07-23T09:42:00Z</time>
      </trkpt>
      <trkpt lat="48.36023" lon="7.40427">
        <ele>283</ele>
        <time>2023-07-23T09:42:01Z</time>
      </trkpt>
      <trkpt lat="48.36028" lon="7.40449">
        <ele>282.1</ele>
        <time>2023-07-23T09:42:02Z</time>
      </trkpt>
      <trkpt lat="48.36034" lon="7.40471">
        <ele>281.2</ele>
        <time>2023-07-23T09:42:03Z</time>
      </trkpt>
      <trkpt lat="48.3604" lon="7.40494">
        <ele>280.4</ele>
        <time>2023-07-23T09:42:04Z</time>
      </trkpt>
      <trkpt lat="48.36045" lon="7.40517">
        <ele>279.6</ele>
        <time>2023-07-23T09:42:05Z</time>
      </trkpt>
      <trkpt lat="48.3605" lon="7.40539">
        <ele>278.8</ele>
        <time>2023-07-23T09:42:06Z</time>
      </trkpt>
      <trkpt lat="48.36056" lon="7.40562">
        <ele>277.9</ele>
        <time>2023-07-23T09:42:07Z</time>
      </trkpt>
      <trkpt lat="48.36062" lon="7.40584">
        <ele>277</ele>
        <time>2023-07-23T09:42:08Z</time>
      </trkpt>
      <trkpt lat="48.36069" lon="7.40606">
        <ele>276.1</ele>
        <time>2023-07-23T09:42:09Z</time>
      </trkpt>
      <trkpt lat="48.36076" lon="7.40627">
        <ele>275.2</ele>
        <time>2023-07-23T09:42:10Z</time>
      </trkpt>
      <trkpt lat="48.36084" lon="7.40648">
        <ele>274.3</ele>
        <time>2023-07-23T09:42:11Z</time>
      </trkpt>
      <trkpt lat="48.36092" lon="7.40668">
        <ele>273.5</ele>
        <time>2023-07-23T09:42:12Z</time>
      </trkpt>
      <trkpt lat="48.36101" lon="7.40688">
        <ele>272.6</ele>
        <time>2023-07-23T09:42:13Z</time>
      </trkpt>
      <trkpt lat="48.3611" lon="7.40707">
        <ele>271.7</ele>
        <time>2023-07-23T09:42:14Z</time>
      </trkpt>
      <trkpt lat="48.3612" lon="7.40726">
        <ele>270.9</ele>
        <time>2023-07-23T09:42:15Z</time>
      </trkpt>
      <trkpt lat="48.36129" lon="7.40745">
        <ele>269.9</ele>
        <time>2023-07-23T09:42:16Z</time>
      </trkpt>
      <trkpt lat="48.36138" lon="7.40764">
        <ele>268.9</ele>
        <time>2023-07-23T09:42:17Z</time>
      </trkpt>
      <trkpt lat="48.36148" lon="7.40782">
        <ele>267.9</ele>
        <time>2023-07-23T09:42:18Z</time>
      </trkpt>
      <trkpt lat="48.36158" lon="7.408">
        <ele>266.9</ele>
        <time>2023-07-23T09:42:19Z</time>
      </trkpt>
      <trkpt lat="48.36168" lon="7.40817">
        <ele>266</ele>
        <time>2023-07-23T09:42:20Z</time>
      </trkpt>
      <trkpt lat="48.36177" lon="7.40833">
        <ele>265</ele>
        <time>2023-07-23T09:42:21Z</time>
      </trkpt>
      <trkpt lat="48.36186" lon="7.40847">
        <ele>264.1</ele>
        <time>2023-07-23T09:42:22Z</time>
      </trkpt>
      <trkpt lat="48.36196" lon="7.4086">
        <ele>263.2</ele>
        <time>2023-07-23T09:42:23Z</time>
      </trkpt>
      <trkpt lat="48.36207" lon="7.40871">
        <ele>262.2</ele>
        <time>2023-07-23T09:42:24Z</time>
      </trkpt>
      <trkpt lat="48.36218" lon="7.4088">
        <ele>261.2</ele>
        <time>2023-07-23T09:42:25Z</time>
      </trkpt>
      <trkpt lat="48.3623" lon="7.40888">
        <ele>260.3</ele>
        <time>2023-07-23T09:42:26Z</time>
      </trkpt>
      <trkpt lat="48.36242" lon="7.40894">
        <ele>259.5</ele>
        <time>2023-07-23T09:42:27Z</time>
      </trkpt>
      <trkpt lat="48.36255" lon="7.40898">
        <ele>258.8</ele>
        <time>2023-07-23T09:42:28Z</time>
      </trkpt>
      <trkpt lat="48.36268" lon="7.40903">
        <ele>258.3</ele>
        <time>2023-07-23T09:42:29Z</time>
      </trkpt>
      <trkpt lat="48.3628" lon="7.4091">
        <ele>258.4</ele>
        <time>2023-07-23T09:42:30Z</time>
      </trkpt>
      <trkpt lat="48.36291" lon="7.40921">
        <ele>258</ele>
        <time>2023-07-23T09:42:31Z</time>
      </trkpt>
      <trkpt lat="48.36302" lon="7.40933">
        <ele>257.7</ele>
        <time>2023-07-23T09:42:32Z</time>
      </trkpt>
      <trkpt lat="48.36311" lon="7.40947">
        <ele>257.5</ele>
        <time>2023-07-23T09:42:33Z</time>
      </trkpt>
      <trkpt lat="48.36318" lon="7.40962">
        <ele>257.6</ele>
        <time>2023-07-23T09:42:34Z</time>
      </trkpt>
      <trkpt lat="48.36323" lon="7.4098">
        <ele>257.6</ele>
        <time>2023-07-23T09:42:35Z</time>
      </trkpt>
      <trkpt lat="48.36326" lon="7.40997">
        <ele>257.7</ele>
        <time>2023-07-23T09:42:36Z</time>
      </trkpt>
      <trkpt lat="48.36331" lon="7.41013">
        <ele>257.7</ele>
        <time>2023-07-23T09:42:37Z</time>
      </trkpt>
      <trkpt lat="48.36336" lon="7.41028">
        <ele>257.8</ele>
        <time>2023-07-23T09:42:38Z</time>
      </trkpt>
      <trkpt lat="48.36343" lon="7.41041">
        <ele>257.9</ele>
        <time>2023-07-23T09:42:39Z</time>
      </trkpt>
      <trkpt lat="48.3635" lon="7.41053">
        <ele>258</ele>
        <time>2023-07-23T09:42:40Z</time>
      </trkpt>
      <trkpt lat="48.36356" lon="7.41065">
        <ele>258.1</ele>
        <time>2023-07-23T09:42:41Z</time>
      </trkpt>
      <trkpt lat="48.36363" lon="7.41077">
        <ele>258.2</ele>
        <time>2023-07-23T09:42:42Z</time>
      </trkpt>
      <trkpt lat="48.36369" lon="7.41089">
        <ele>258.2</ele>
        <time>2023-07-23T09:42:43Z</time>
      </trkpt>
      <trkpt lat="48.36376" lon="7.41101">
        <ele>258.2</ele>
        <time>2023-07-23T09:42:44Z</time>
      </trkpt>
      <trkpt lat="48.36382" lon="7.41112">
        <ele>258.3</ele>
        <time>2023-07-23T09:42:45Z</time>
      </trkpt>
      <trkpt lat="48.36388" lon="7.41123">
        <ele>258.3</ele>
        <time>2023-07-23T09:42:46Z</time>
      </trkpt>
      <trkpt lat="48.36394" lon="7.41135">
        <ele>258.4</ele>
        <time>2023-07-23T09:42:47Z</time>
      </trkpt>
      <trkpt lat="48.364" lon="7.41147">
        <ele>258.4</ele>
        <time>2023-07-23T09:42:48Z</time>
      </trkpt>
      <trkpt lat="48.36405" lon="7.41159">
        <ele>258.4</ele>
        <time>2023-07-23T09:42:49Z</time>
      </trkpt>
      <trkpt lat="48.36411" lon="7.41171">
        <ele>258.4</ele>
        <time>2023-07-23T09:42:50Z</time>
      </trkpt>
      <trkpt lat="48.36417" lon="7.41183">
        <ele>258.3</ele>
        <time>2023-07-23T09:42:51Z</time>
      </trkpt>
      <trkpt lat="48.36422" lon="7.41195">
        <ele>258.3</ele>
        <time>2023-07-23T09:42:52Z</time>
      </trkpt>
      <trkpt lat="48.36427" lon="7.41208">
        <ele>258.2</ele>
        <time>2023-07-23T09:42:53Z</time>
      </trkpt>
      <trkpt lat="48.36433" lon="7.4122">
        <ele>258.1</ele>
        <time>2023-07-23T09:42:54Z</time>
      </trkpt>
      <trkpt lat="48.36438" lon="7.41233">
        <ele>258</ele>
        <time>2023-07-23T09:42:55Z</time>
      </trkpt>
      <trkpt lat="48.36444" lon="7.41245">
        <ele>257.9</ele>
        <time>2023-07-23T09:42:56Z</time>
      </trkpt>
      <trkpt lat="48.3645" lon="7.41258">
        <ele>257.8</ele>
        <time>2023-07-23T09:42:57Z</time>
      </trkpt>
      <trkpt lat="48.36456" lon="7.4127">
        <ele>257.8</ele>
        <time>2023-07-23T09:42:58Z</time>
      </trkpt>
      <trkpt lat="48.36463" lon="7.41281">
        <ele>257.7</ele>
        <time>2023-07-23T09:42:59Z</time>
      </trkpt>
      <trkpt lat="48.3647" lon="7.41292">
        <ele>257.7</ele>
        <time>2023-07-23T09:43:00Z</time>
      </trkpt>
      <trkpt lat="48.36478" lon="7.41302">
        <ele>257.6</ele>
        <time>2023-07-23T09:43:01Z</time>
      </trkpt>
      <trkpt lat="48.36487" lon="7.4131">
        <ele>257.6</ele>
        <time>2023-07-23T09:43:02Z</time>
      </trkpt>
      <trkpt lat="48.36495" lon="7.41318">
        <ele>257.6</ele>
        <time>2023-07-23T09:43:03Z</time>
      </trkpt>
      <trkpt lat="48.36505" lon="7.41324">
        <ele>257.5</ele>
        <time>2023-07-23T09:43:04Z</time>
      </trkpt>
      <trkpt lat="48.36514" lon="7.4133">
        <ele>257.5</ele>
        <time>2023-07-23T09:43:05Z</time>
      </trkpt>
      <trkpt lat="48.36524" lon="7.41336">
        <ele>257.4</ele>
        <time>2023-07-23T09:43:06Z</time>
      </trkpt>
      <trkpt lat="48.36533" lon="7.41342">
        <ele>257.4</ele>
        <time>2023-07-23T09:43:07Z</time>
      </trkpt>
      <trkpt lat="48.36543" lon="7.41348">
        <ele>257.3</ele>
        <time>2023-07-23T09:43:08Z</time>
      </trkpt>
      <trkpt lat="48.36552" lon="7.41355">
        <ele>257.4</ele>
        <time>2023-07-23T09:43:09Z</time>
      </trkpt>
      <trkpt lat="48.36561" lon="7.41362">
        <ele>257.4</ele>
        <time>2023-07-23T09:43:10Z</time>
      </trkpt>
      <trkpt lat="48.36569" lon="7.4137">
        <ele>257.4</ele>
        <time>2023-07-23T09:43:11Z</time>
      </trkpt>
      <trkpt lat="48.36577" lon="7.41379">
        <ele>257.5</ele>
        <time>2023-07-23T09:43:12Z</time>
      </trkpt>
      <trkpt lat="48.36585" lon="7.41388">
        <ele>257.5</ele>
        <time>2023-07-23T09:43:13Z</time>
      </trkpt>
      <trkpt lat="48.36592" lon="7.41397">
        <ele>257.5</ele>
        <time>2023-07-23T09:43:14Z</time>
      </trkpt>
      <trkpt lat="48.36599" lon="7.41407">
        <ele>257.6</ele>
        <time>2023-07-23T09:43:15Z</time>
      </trkpt>
      <trkpt lat="48.36605" lon="7.41418">
        <ele>257.6</ele>
        <time>2023-07-23T09:43:16Z</time>
      </trkpt>
      <trkpt lat="48.3661" lon="7.4143">
        <ele>257.6</ele>
        <time>2023-07-23T09:43:17Z</time>
      </trkpt>
      <trkpt lat="48.36614" lon="7.41443">
        <ele>257.6</ele>
        <time>2023-07-23T09:43:18Z</time>
      </trkpt>
      <trkpt lat="48.36618" lon="7.41457">
        <ele>257.5</ele>
        <time>2023-07-23T09:43:19Z</time>
      </trkpt>
      <trkpt lat="48.3662" lon="7.41471">
        <ele>257.3</ele>
        <time>2023-07-23T09:43:20Z</time>
      </trkpt>
      <trkpt lat="48.36623" lon="7.41485">
        <ele>257.2</ele>
        <time>2023-07-23T09:43:21Z</time>
      </trkpt>
      <trkpt lat="48.36625" lon="7.41499">
        <ele>257.1</ele>
        <time>2023-07-23T09:43:22Z</time>
      </trkpt>
      <trkpt lat="48.36626" lon="7.41513">
        <ele>256.9</ele>
        <time>2023-07-23T09:43:23Z</time>
      </trkpt>
      <trkpt lat="48.36626" lon="7.41527">
        <ele>256.7</ele>
        <time>2023-07-23T09:43:24Z</time>
      </trkpt>
      <trkpt lat="48.36627" lon="7.41542">
        <ele>256.6</ele>
        <time>2023-07-23T09:43:25Z</time>
      </trkpt>
      <trkpt lat="48.36627" lon="7.41556">
        <ele>256.5</ele>
        <time>2023-07-23T09:43:26Z</time>
      </trkpt>
      <trkpt lat="48.36627" lon="7.41571">
        <ele>256.4</ele>
        <time>2023-07-23T09:43:27Z</time>
      </trkpt>
      <trkpt lat="48.36628" lon="7.41585">
        <ele>256.2</ele>
        <time>2023-07-23T09:43:28Z</time>
      </trkpt>
      <trkpt lat="48.36628" lon="7.41599">
        <ele>256</ele>
        <time>2023-07-23T09:43:29Z</time>
      </trkpt>
      <trkpt lat="48.36629" lon="7.41613">
        <ele>255.7</ele>
        <time>2023-07-23T09:43:30Z</time>
      </trkpt>
      <trkpt lat="48.3663" lon="7.41627">
        <ele>255.4</ele>
        <time>2023-07-23T09:43:31Z</time>
      </trkpt>
      <trkpt lat="48.3663" lon="7.41641">
        <ele>255.2</ele>
        <time>2023-07-23T09:43:32Z</time>
      </trkpt>
      <trkpt lat="48.3663" lon="7.41654">
        <ele>254.9</ele>
        <time>2023-07-23T09:43:33Z</time>
      </trkpt>
      <trkpt lat="48.36629" lon="7.41668">
        <ele>254.7</ele>
        <time>2023-07-23T09:43:34Z</time>
      </trkpt>
      <trkpt lat="48.36627" lon="7.41682">
        <ele>254.5</ele>
        <time>2023-07-23T09:43:35Z</time>
      </trkpt>
      <trkpt lat="48.36625" lon="7.41696">
        <ele>254.2</ele>
        <time>2023-07-23T09:43:36Z</time>
      </trkpt>
      <trkpt lat="48.36623" lon="7.41711">
        <ele>254</ele>
        <time>2023-07-23T09:43:37Z</time>
      </trkpt>
      <trkpt lat="48.36622" lon="7.41725">
        <ele>253.8</ele>
        <time>2023-07-23T09:43:38Z</time>
      </trkpt>
      <trkpt lat="48.36621" lon="7.4174">
        <ele>253.6</ele>
        <time>2023-07-23T09:43:39Z</time>
      </trkpt>
      <trkpt lat="48.36621" lon="7.41755">
        <ele>253.3</ele>
        <time>2023-07-23T09:43:40Z</time>
      </trkpt>
      <trkpt lat="48.36622" lon="7.41771">
        <ele>253.1</ele>
        <time>2023-07-23T09:43:41Z</time>
      </trkpt>
      <trkpt lat="48.36623" lon="7.41787">
        <ele>252.7</ele>
        <time>2023-07-23T09:43:42Z</time>
      </trkpt>
      <trkpt lat="48.36624" lon="7.41803">
        <ele>252.5</ele>
        <time>2023-07-23T09:43:43Z</time>
      </trkpt>
      <trkpt lat="48.36626" lon="7.41818">
        <ele>252.2</ele>
        <time>2023-07-23T09:43:44Z</time>
      </trkpt>
      <trkpt lat="48.36629" lon="7.41834">
        <ele>252</ele>
        <time>2023-07-23T09:43:45Z</time>
      </trkpt>
      <trkpt lat="48.36631" lon="7.4185">
        <ele>251.8</ele>
        <time>2023-07-23T09:43:46Z</time>
      </trkpt>
      <trkpt lat="48.36635" lon="7.41865">
        <ele>251.7</ele>
        <time>2023-07-23T09:43:47Z</time>
      </trkpt>
      <trkpt lat="48.36639" lon="7.4188">
        <ele>251.6</ele>
        <time>2023-07-23T09:43:48Z</time>
      </trkpt>
      <trkpt lat="48.36643" lon="7.41895">
        <ele>251.6</ele>
        <time>2023-07-23T09:43:49Z</time>
      </trkpt>
      <trkpt lat="48.36648" lon="7.41909">
        <ele>251.6</ele>
        <time>2023-07-23T09:43:50Z</time>
      </trkpt>
      <trkpt lat="48.36653" lon="7.41923">
        <ele>251.8</ele>
        <time>2023-07-23T09:43:51Z</time>
      </trkpt>
      <trkpt lat="48.36658" lon="7.41937">
        <ele>251.8</ele>
        <time>2023-07-23T09:43:52Z</time>
      </trkpt>
      <trkpt lat="48.36663" lon="7.4195">
        <ele>251.9</ele>
        <time>2023-07-23T09:43:53Z</time>
      </trkpt>
      <trkpt lat="48.36668" lon="7.41963">
        <ele>252.1</ele>
        <time>2023-07-23T09:43:54Z</time>
      </trkpt>
      <trkpt lat="48.36673" lon="7.41975">
        <ele>252.3</ele>
        <time>2023-07-23T09:43:55Z</time>
      </trkpt>
      <trkpt lat="48.36679" lon="7.41986">
        <ele>252.6</ele>
        <time>2023-07-23T09:43:56Z</time>
      </trkpt>
      <trkpt lat="48.36684" lon="7.41997">
        <ele>252.9</ele>
        <time>2023-07-23T09:43:57Z</time>
      </trkpt>
      <trkpt lat="48.36688" lon="7.42008">
        <ele>253.2</ele>
        <time>2023-07-23T09:43:58Z</time>
      </trkpt>
      <trkpt lat="48.36693" lon="7.42017">
        <ele>253.7</ele>
        <time>2023-07-23T09:43:59Z</time>
      </trkpt>
      <trkpt lat="48.36697" lon="7.42026">
        <ele>254.1</ele>
        <time>2023-07-23T09:44:00Z</time>
      </trkpt>
      <trkpt lat="48.36702" lon="7.42035">
        <ele>254.6</ele>
        <time>2023-07-23T09:44:01Z</time>
      </trkpt>
      <trkpt lat="48.36706" lon="7.42043">
        <ele>255.1</ele>
        <time>2023-07-23T09:44:02Z</time>
      </trkpt>
      <trkpt lat="48.3671" lon="7.42051">
        <ele>255.6</ele>
        <time>2023-07-23T09:44:03Z</time>
      </trkpt>
      <trkpt lat="48.36713" lon="7.42058">
        <ele>256</ele>
        <time>2023-07-23T09:44:04Z</time>
      </trkpt>
      <trkpt lat="48.36717" lon="7.42066">
        <ele>256.4</ele>
        <time>2023-07-23T09:44:05Z</time>
      </trkpt>
      <trkpt lat="48.3672" lon="7.42073">
        <ele>256.9</ele>
        <time>2023-07-23T09:44:06Z</time>
      </trkpt>
      <trkpt lat="48.36723" lon="7.42079">
        <ele>257.2</ele>
        <time>2023-07-23T09:44:07Z</time>
      </trkpt>
      <trkpt lat="48.36727" lon="7.42085">
        <ele>257.6</ele>
        <time>2023-07-23T09:44:08Z</time>
      </trkpt>
      <trkpt lat="48.36729" lon="7.42091">
        <ele>257.9</ele>
        <time>2023-07-23T09:44:09Z</time>
      </trkpt>
      <trkpt lat="48.36731" lon="7.42096">
        <ele>258.2</ele>
        <time>2023-07-23T09:44:10Z</time>
      </trkpt>
      <trkpt lat="48.36733" lon="7.42102">
        <ele>258.5</ele>
        <time>2023-07-23T09:44:11Z</time>
      </trkpt>
      <trkpt lat="48.36735" lon="7.42107">
        <ele>258.8</ele>
        <time>2023-07-23T09:44:12Z</time>
      </trkpt>
      <trkpt lat="48.36737" lon="7.42111">
        <ele>259</ele>
        <time>2023-07-23T09:44:13Z</time>
      </trkpt>
      <trkpt lat="48.36739" lon="7.42116">
        <ele>259.3</ele>
        <time>2023-07-23T09:44:14Z</time>
      </trkpt>
      <trkpt lat="48.36741" lon="7.4212">
        <ele>259.5</ele>
        <time>2023-07-23T09:44:15Z</time>
      </trkpt>
      <trkpt lat="48.36742" lon="7.42124">
        <ele>259.8</ele>
        <time>2023-07-23T09:44:16Z</time>
      </trkpt>
      <trkpt lat="48.36744" lon="7.42128">
        <ele>260</ele>
        <time>2023-07-23T09:44:17Z</time>
      </trkpt>
      <trkpt lat="48.36745" lon="7.42133">
        <ele>260.2</ele>
        <time>2023-07-23T09:44:18Z</time>
      </trkpt>
      <trkpt lat="48.36747" lon="7.42138">
        <ele>260.5</ele>
        <time>2023-07-23T09:44:19Z</time>
      </trkpt>
      <trkpt lat="48.36749" lon="7.42143">
        <ele>260.7</ele>
        <time>2023-07-23T09:44:20Z</time>
      </trkpt>
      <trkpt lat="48.3675" lon="7.42147">
        <ele>261</ele>
        <time>2023-07-23T09:44:21Z</time>
      </trkpt>
      <trkpt lat="48.36752" lon="7.42151">
        <ele>261.2</ele>
        <time>2023-07-23T09:44:22Z</time>
      </trkpt>
      <trkpt lat="48.36754" lon="7.42156">
        <ele>261.4</ele>
        <time>2023-07-23T09:44:23Z</time>
      </trkpt>
      <trkpt lat="48.36755" lon="7.4216">
        <ele>261.6</ele>
        <time>2023-07-23T09:44:24Z</time>
      </trkpt>
      <trkpt lat="48.36757" lon="7.42164">
        <ele>261.8</ele>
        <time>2023-07-23T09:44:25Z</time>
      </trkpt>
      <trkpt lat="48.36758" lon="7.42168">
        <ele>262</ele>
        <time>2023-07-23T09:44:26Z</time>
      </trkpt>
      <trkpt lat="48.36759" lon="7.42172">
        <ele>262.1</ele>
        <time>2023-07-23T09:44:27Z</time>
      </trkpt>
      <trkpt lat="48.3676" lon="7.42177">
        <ele>262.3</ele>
        <time>2023-07-23T09:44:28Z</time>
      </trkpt>
      <trkpt lat="48.36762" lon="7.42181">
        <ele>262.5</ele>
        <time>2023-07-23T09:44:29Z</time>
      </trkpt>
      <trkpt lat="48.36763" lon="7.42186">
        <ele>262.7</ele>
        <time>2023-07-23T09:44:30Z</time>
      </trkpt>
      <trkpt lat="48.36765" lon="7.4219">
        <ele>262.9</ele>
        <time>2023-07-23T09:44:31Z</time>
      </trkpt>
      <trkpt lat="48.36766" lon="7.42195">
        <ele>263.1</ele>
        <time>2023-07-23T09:44:32Z</time>
      </trkpt>
      <trkpt lat="48.36767" lon="7.422">
        <ele>263.3</ele>
        <time>2023-07-23T09:44:33Z</time>
      </trkpt>
      <trkpt lat="48.36768" lon="7.42205">
        <ele>263.4</ele>
        <time>2023-07-23T09:44:34Z</time>
      </trkpt>
      <trkpt lat="48.36769" lon="7.42209">
        <ele>263.6</ele>
        <time>2023-07-23T09:44:35Z</time>
      </trkpt>
      <trkpt lat="48.3677" lon="7.42214">
        <ele>263.7</ele>
        <time>2023-07-23T09:44:36Z</time>
      </trkpt>
      <trkpt lat="48.3677" lon="7.4222">
        <ele>263.9</ele>
        <time>2023-07-23T09:44:37Z</time>
      </trkpt>
      <trkpt lat="48.36771" lon="7.42225">
        <ele>264.1</ele>
        <time>2023-07-23T09:44:38Z</time>
      </trkpt>
      <trkpt lat="48.36772" lon="7.4223">
        <ele>264.2</ele>
        <time>2023-07-23T09:44:39Z</time>
      </trkpt>
      <trkpt lat="48.36773" lon="7.42236">
        <ele>264.4</ele>
        <time>2023-07-23T09:44:40Z</time>
      </trkpt>
      <trkpt lat="48.36774" lon="7.42241">
        <ele>264.5</ele>
        <time>2023-07-23T09:44:41Z</time>
      </trkpt>
      <trkpt lat="48.36774" lon="7.42246">
        <ele>264.7</ele>
        <time>2023-07-23T09:44:42Z</time>
      </trkpt>
      <trkpt lat="48.36775" lon="7.42251">
        <ele>264.8</ele>
        <time>2023-07-23T09:44:43Z</time>
      </trkpt>
      <trkpt lat="48.36776" lon="7.42257">
        <ele>265</ele>
        <time>2023-07-23T09:44:44Z</time>
      </trkpt>
      <trkpt lat="48.36776" lon="7.42262">
        <ele>265.1</ele>
        <time>2023-07-23T09:44:45Z</time>
      </trkpt>
      <trkpt lat="48.36777" lon="7.42268">
        <ele>265.2</ele>
        <time>2023-07-23T09:44:46Z</time>
      </trkpt>
      <trkpt lat="48.36778" lon="7.42273">
        <ele>265.4</ele>
        <time>2023-07-23T09:44:47Z</time>
      </trkpt>
      <trkpt lat="48.36778" lon="7.42278">
        <ele>265.5</ele>
        <time>2023-07-23T09:44:48Z</time>
      </trkpt>
      <trkpt lat="48.36779" lon="7.42283">
        <ele>265.7</ele>
        <time>2023-07-23T09:44:49Z</time>
      </trkpt>
      <trkpt lat="48.3678" lon="7.42288">
        <ele>265.8</ele>
        <time>2023-07-23T09:44:50Z</time>
      </trkpt>
      <trkpt lat="48.3678" lon="7.42294">
        <ele>265.9</ele>
        <time>2023-07-23T09:44:51Z</time>
      </trkpt>
      <trkpt lat="48.36781" lon="7.423">
        <ele>266</ele>
        <time>2023-07-23T09:44:52Z</time>
      </trkpt>
      <trkpt lat="48.36781" lon="7.42305">
        <ele>266.1</ele>
        <time>2023-07-23T09:44:53Z</time>
      </trkpt>
      <trkpt lat="48.36782" lon="7.42311">
        <ele>266.2</ele>
        <time>2023-07-23T09:44:54Z</time>
      </trkpt>
      <trkpt lat="48.36783" lon="7.42317">
        <ele>266.3</ele>
        <time>2023-07-23T09:44:55Z</time>
      </trkpt>
      <trkpt lat="48.36783" lon="7.42323">
        <ele>266.4</ele>
        <time>2023-07-23T09:44:56Z</time>
      </trkpt>
      <trkpt lat="48.36784" lon="7.42329">
        <ele>266.5</ele>
        <time>2023-07-23T09:44:57Z</time>
      </trkpt>
      <trkpt lat="48.36785" lon="7.42334">
        <ele>266.6</ele>
        <time>2023-07-23T09:44:58Z</time>
      </trkpt>
      <trkpt lat="48.36786" lon="7.4234">
        <ele>266.7</ele>
        <time>2023-07-23T09:44:59Z</time>
      </trkpt>
      <trkpt lat="48.36786" lon="7.42345">
        <ele>266.8</ele>
        <time>2023-07-23T09:45:00Z</time>
      </trkpt>
      <trkpt lat="48.36787" lon="7.42351">
        <ele>266.9</ele>
        <time>2023-07-23T09:45:01Z</time>
      </trkpt>
      <trkpt lat="48.36788" lon="7.42357">
        <ele>266.9</ele>
        <time>2023-07-23T09:45:02Z</time>
      </trkpt>
      <trkpt lat="48.36789" lon="7.42362">
        <ele>267</ele>
        <time>2023-07-23T09:45:03Z</time>
      </trkpt>
      <trkpt lat="48.3679" lon="7.42368">
        <ele>267.1</ele>
        <time>2023-07-23T09:45:04Z</time>
      </trkpt>
      <trkpt lat="48.36791" lon="7.42374">
        <ele>267.2</ele>
        <time>2023-07-23T09:45:05Z</time>
      </trkpt>
      <trkpt lat="48.36792" lon="7.42379">
        <ele>267.3</ele>
        <time>2023-07-23T09:45:06Z</time>
      </trkpt>
      <trkpt lat="48.36793" lon="7.42385">
        <ele>267.4</ele>
        <time>2023-07-23T09:45:07Z</time>
      </trkpt>
      <trkpt lat="48.36794" lon="7.4239">
        <ele>267.5</ele>
        <time>2023-07-23T09:45:08Z</time>
      </trkpt>
      <trkpt lat="48.36795" lon="7.42396">
        <ele>267.6</ele>
        <time>2023-07-23T09:45:09Z</time>
      </trkpt>
      <trkpt lat="48.36797" lon="7.42402">
        <ele>267.7</ele>
        <time>2023-07-23T09:45:10Z</time>
      </trkpt>
      <trkpt lat="48.36798" lon="7.42407">
        <ele>267.8</ele>
        <time>2023-07-23T09:45:11Z</time>
      </trkpt>
      <trkpt lat="48.36799" lon="7.42412">
        <ele>267.9</ele>
        <time>2023-07-23T09:45:12Z</time>
      </trkpt>
      <trkpt lat="48.36801" lon="7.42418">
        <ele>268.1</ele>
        <time>2023-07-23T09:45:13Z</time>
      </trkpt>
      <trkpt lat="48.36802" lon="7.42423">
        <ele>268.2</ele>
        <time>2023-07-23T09:45:14Z</time>
      </trkpt>
      <trkpt lat="48.36804" lon="7.42428">
        <ele>268.4</ele>
        <time>2023-07-23T09:45:15Z</time>
      </trkpt>
      <trkpt lat="48.36805" lon="7.42433">
        <ele>268.5</ele>
        <time>2023-07-23T09:45:16Z</time>
      </trkpt>
      <trkpt lat="48.36807" lon="7.42439">
        <ele>268.7</ele>
        <time>2023-07-23T09:45:17Z</time>
      </trkpt>
      <trkpt lat="48.36809" lon="7.42443">
        <ele>268.9</ele>
        <time>2023-07-23T09:45:18Z</time>
      </trkpt>
      <trkpt lat="48.36811" lon="7.42447">
        <ele>269</ele>
        <time>2023-07-23T09:45:19Z</time>
      </trkpt>
      <trkpt lat="48.36812" lon="7.42452">
        <ele>269.2</ele>
        <time>2023-07-23T09:45:20Z</time>
      </trkpt>
      <trkpt lat="48.36814" lon="7.42456">
        <ele>269.3</ele>
        <time>2023-07-23T09:45:21Z</time>
      </trkpt>
      <trkpt lat="48.36816" lon="7.42461">
        <ele>269.5</ele>
        <time>2023-07-23T09:45:22Z</time>
      </trkpt>
      <trkpt lat="48.36817" lon="7.42465">
        <ele>269.7</ele>
        <time>2023-07-23T09:45:23Z</time>
      </trkpt>
      <trkpt lat="48.36819" lon="7.4247">
        <ele>269.9</ele>
        <time>2023-07-23T09:45:24Z</time>
      </trkpt>
      <trkpt lat="48.36821" lon="7.42474">
        <ele>270</ele>
        <time>2023-07-23T09:45:25Z</time>
      </trkpt>
      <trkpt lat="48.36822" lon="7.42479">
        <ele>270.2</ele>
        <time>2023-07-23T09:45:26Z</time>
      </trkpt>
      <trkpt lat="48.36824" lon="7.42483">
        <ele>270.4</ele>
        <time>2023-07-23T09:45:27Z</time>
      </trkpt>
      <trkpt lat="48.36825" lon="7.42487">
        <ele>270.6</ele>
        <time>2023-07-23T09:45:28Z</time>
      </trkpt>
      <trkpt lat="48.36827" lon="7.42491">
        <ele>270.8</ele>
        <time>2023-07-23T09:45:29Z</time>
      </trkpt>
      <trkpt lat="48.36828" lon="7.42495">
        <ele>271</ele>
        <time>2023-07-23T09:45:30Z</time>
      </trkpt>
      <trkpt lat="48.3683" lon="7.425">
        <ele>271.2</ele>
        <time>2023-07-23T09:45:31Z</time>
      </trkpt>
      <trkpt lat="48.36831" lon="7.42504">
        <ele>271.4</ele>
        <time>2023-07-23T09:45:32Z</time>
      </trkpt>
      <trkpt lat="48.36833" lon="7.42509">
        <ele>271.6</ele>
        <time>2023-07-23T09:45:33Z</time>
      </trkpt>
      <trkpt lat="48.36835" lon="7.42513">
        <ele>271.8</ele>
        <time>2023-07-23T09:45:34Z</time>
      </trkpt>
      <trkpt lat="48.36836" lon="7.42518">
        <ele>272.1</ele>
        <time>2023-07-23T09:45:35Z</time>
      </trkpt>
      <trkpt lat="48.36838" lon="7.42522">
        <ele>272.3</ele>
        <time>2023-07-23T09:45:36Z</time>
      </trkpt>
      <trkpt lat="48.3684" lon="7.42526">
        <ele>272.5</ele>
        <time>2023-07-23T09:45:37Z</time>
      </trkpt>
      <trkpt lat="48.36841" lon="7.42531">
        <ele>272.7</ele>
        <time>2023-07-23T09:45:38Z</time>
      </trkpt>
      <trkpt lat="48.36843" lon="7.42535">
        <ele>272.9</ele>
        <time>2023-07-23T09:45:39Z</time>
      </trkpt>
      <trkpt lat="48.36844" lon="7.4254">
        <ele>273.2</ele>
        <time>2023-07-23T09:45:40Z</time>
      </trkpt>
      <trkpt lat="48.36846" lon="7.42544">
        <ele>273.4</ele>
        <time>2023-07-23T09:45:41Z</time>
      </trkpt>
      <trkpt lat="48.36848" lon="7.42548">
        <ele>273.6</ele>
        <time>2023-07-23T09:45:42Z</time>
      </trkpt>
      <trkpt lat="48.36849" lon="7.42552">
        <ele>273.9</ele>
        <time>2023-07-23T09:45:43Z</time>
      </trkpt>
      <trkpt lat="48.36851" lon="7.42556">
        <ele>274.1</ele>
        <time>2023-07-23T09:45:44Z</time>
      </trkpt>
      <trkpt lat="48.36853" lon="7.42561">
        <ele>274.3</ele>
        <time>2023-07-23T09:45:45Z</time>
      </trkpt>
      <trkpt lat="48.36854" lon="7.42565">
        <ele>274.6</ele>
        <time>2023-07-23T09:45:46Z</time>
      </trkpt>
      <trkpt lat="48.36856" lon="7.42569">
        <ele>274.8</ele>
        <time>2023-07-23T09:45:47Z</time>
      </trkpt>
      <trkpt lat="48.36858" lon="7.42573">
        <ele>275</ele>
        <time>2023-07-23T09:45:48Z</time>
      </trkpt>
      <trkpt lat="48.3686" lon="7.42577">
        <ele>275.2</ele>
        <time>2023-07-23T09:45:49Z</time>
      </trkpt>
      <trkpt lat="48.36861" lon="7.42582">
        <ele>275.4</ele>
        <time>2023-07-23T09:45:50Z</time>
      </trkpt>
      <trkpt lat="48.36863" lon="7.42586">
        <ele>275.6</ele>
        <time>2023-07-23T09:45:51Z</time>
      </trkpt>
      <trkpt lat="48.36865" lon="7.4259">
        <ele>275.8</ele>
        <time>2023-07-23T09:45:52Z</time>
      </trkpt>
      <trkpt lat="48.36867" lon="7.42594">
        <ele>276</ele>
        <time>2023-07-23T09:45:53Z</time>
      </trkpt>
      <trkpt lat="48.36869" lon="7.42598">
        <ele>276.2</ele>
        <time>2023-07-23T09:45:54Z</time>
      </trkpt>
      <trkpt lat="48.36871" lon="7.42603">
        <ele>276.3</ele>
        <time>2023-07-23T09:45:55Z</time>
      </trkpt>
      <trkpt lat="48.36874" lon="7.42607">
        <ele>276.4</ele>
        <time>2023-07-23T09:45:56Z</time>
      </trkpt>
      <trkpt lat="48.36876" lon="7.42611">
        <ele>276.5</ele>
        <time>2023-07-23T09:45:57Z</time>
      </trkpt>
      <trkpt lat="48.36879" lon="7.42615">
        <ele>276.5</ele>
        <time>2023-07-23T09:45:58Z</time>
      </trkpt>
      <trkpt lat="48.36881" lon="7.4262">
        <ele>276.6</ele>
        <time>2023-07-23T09:45:59Z</time>
      </trkpt>
      <trkpt lat="48.36884" lon="7.42624">
        <ele>276.6</ele>
        <time>2023-07-23T09:46:00Z</time>
      </trkpt>
      <trkpt lat="48.36887" lon="7.42629">
        <ele>276.6</ele>
        <time>2023-07-23T09:46:01Z</time>
      </trkpt>
      <trkpt lat="48.3689" lon="7.42634">
        <ele>276.6</ele>
        <time>2023-07-23T09:46:02Z</time>
      </trkpt>
      <trkpt lat="48.36893" lon="7.42639">
        <ele>276.6</ele>
        <time>2023-07-23T09:46:03Z</time>
      </trkpt>
      <trkpt lat="48.36897" lon="7.42645">
        <ele>276.6</ele>
        <time>2023-07-23T09:46:04Z</time>
      </trkpt>
      <trkpt lat="48.369" lon="7.4265">
        <ele>276.6</ele>
        <time>2023-07-23T09:46:05Z</time>
      </trkpt>
      <trkpt lat="48.36903" lon="7.42655">
        <ele>276.6</ele>
        <time>2023-07-23T09:46:06Z</time>
      </trkpt>
      <trkpt lat="48.36907" lon="7.42661">
        <ele>276.5</ele>
        <time>2023-07-23T09:46:07Z</time>
      </trkpt>
      <trkpt lat="48.3691" lon="7.42667">
        <ele>276.5</ele>
        <time>2023-07-23T09:46:08Z</time>
      </trkpt>
      <trkpt lat="48.36913" lon="7.42673">
        <ele>276.4</ele>
        <time>2023-07-23T09:46:09Z</time>
      </trkpt>
      <trkpt lat="48.36917" lon="7.42678">
        <ele>276.3</ele>
        <time>2023-07-23T09:46:10Z</time>
      </trkpt>
      <trkpt lat="48.36921" lon="7.42685">
        <ele>276.2</ele>
        <time>2023-07-23T09:46:11Z</time>
      </trkpt>
      <trkpt lat="48.36925" lon="7.42691">
        <ele>276</ele>
        <time>2023-07-23T09:46:12Z</time>
      </trkpt>
      <trkpt lat="48.36929" lon="7.42698">
        <ele>275.9</ele>
        <time>2023-07-23T09:46:13Z</time>
      </trkpt>
      <trkpt lat="48.36933" lon="7.42705">
        <ele>275.6</ele>
        <time>2023-07-23T09:46:14Z</time>
      </trkpt>
      <trkpt lat="48.36938" lon="7.42713">
        <ele>275.4</ele>
        <time>2023-07-23T09:46:15Z</time>
      </trkpt>
      <trkpt lat="48.36943" lon="7.42721">
        <ele>275.1</ele>
        <time>2023-07-23T09:46:16Z</time>
      </trkpt>
      <trkpt lat="48.36948" lon="7.42729">
        <ele>274.8</ele>
        <time>2023-07-23T09:46:17Z</time>
      </trkpt>
      <trkpt lat="48.36953" lon="7.42738">
        <ele>274.4</ele>
        <time>2023-07-23T09:46:18Z</time>
      </trkpt>
      <trkpt lat="48.36959" lon="7.42747">
        <ele>274.1</ele>
        <time>2023-07-23T09:46:19Z</time>
      </trkpt>
      <trkpt lat="48.36964" lon="7.42756">
        <ele>273.8</ele>
        <time>2023-07-23T09:46:20Z</time>
      </trkpt>
      <trkpt lat="48.3697" lon="7.42766">
        <ele>273.4</ele>
        <time>2023-07-23T09:46:21Z</time>
      </trkpt>
      <trkpt lat="48.36976" lon="7.42776">
        <ele>273.1</ele>
        <time>2023-07-23T09:46:22Z</time>
      </trkpt>
      <trkpt lat="48.36983" lon="7.42786">
        <ele>272.7</ele>
        <time>2023-07-23T09:46:23Z</time>
      </trkpt>
      <trkpt lat="48.36989" lon="7.42796">
        <ele>272.3</ele>
        <time>2023-07-23T09:46:24Z</time>
      </trkpt>
      <trkpt lat="48.36995" lon="7.42806">
        <ele>272</ele>
        <time>2023-07-23T09:46:25Z</time>
      </trkpt>
      <trkpt lat="48.37001" lon="7.42817">
        <ele>271.6</ele>
        <time>2023-07-23T09:46:26Z</time>
      </trkpt>
      <trkpt lat="48.37008" lon="7.42827">
        <ele>271.3</ele>
        <time>2023-07-23T09:46:27Z</time>
      </trkpt>
      <trkpt lat="48.37015" lon="7.42837">
        <ele>271</ele>
        <time>2023-07-23T09:46:28Z</time>
      </trkpt>
      <trkpt lat="48.37021" lon="7.42848">
        <ele>270.8</ele>
        <time>2023-07-23T09:46:29Z</time>
      </trkpt>
      <trkpt lat="48.37028" lon="7.42859">
        <ele>270.5</ele>
        <time>2023-07-23T09:46:30Z</time>
      </trkpt>
      <trkpt lat="48.37035" lon="7.4287">
        <ele>270.3</ele>
        <time>2023-07-23T09:46:31Z</time>
      </trkpt>
      <trkpt lat="48.37042" lon="7.42881">
        <ele>270.1</ele>
        <time>2023-07-23T09:46:32Z</time>
      </trkpt>
      <trkpt lat="48.37049" lon="7.42892">
        <ele>269.9</ele>
        <time>2023-07-23T09:46:33Z</time>
      </trkpt>
      <trkpt lat="48.37056" lon="7.42903">
        <ele>269.7</ele>
        <time>2023-07-23T09:46:34Z</time>
      </trkpt>
      <trkpt lat="48.37062" lon="7.42915">
        <ele>269.7</ele>
        <time>2023-07-23T09:46:35Z</time>
      </trkpt>
      <trkpt lat="48.37069" lon="7.42926">
        <ele>269.6</ele>
        <time>2023-07-23T09:46:36Z</time>
      </trkpt>
      <trkpt lat="48.37075" lon="7.42937">
        <ele>269.6</ele>
        <time>2023-07-23T09:46:37Z</time>
      </trkpt>
      <trkpt lat="48.37082" lon="7.42947">
        <ele>269.6</ele>
        <time>2023-07-23T09:46:38Z</time>
      </trkpt>
      <trkpt lat="48.37089" lon="7.42958">
        <ele>269.5</ele>
        <time>2023-07-23T09:46:39Z</time>
      </trkpt>
      <trkpt lat="48.37095" lon="7.42969">
        <ele>269.5</ele>
        <time>2023-07-23T09:46:40Z</time>
      </trkpt>
      <trkpt lat="48.37101" lon="7.4298">
        <ele>269.4</ele>
        <time>2023-07-23T09:46:41Z</time>
      </trkpt>
      <trkpt lat="48.37108" lon="7.4299">
        <ele>269.4</ele>
        <time>2023-07-23T09:46:42Z</time>
      </trkpt>
      <trkpt lat="48.37114" lon="7.43">
        <ele>269.4</ele>
        <time>2023-07-23T09:46:43Z</time>
      </trkpt>
      <trkpt lat="48.3712" lon="7.43009">
        <ele>269.5</ele>
        <time>2023-07-23T09:46:44Z</time>
      </trkpt>
      <trkpt lat="48.37126" lon="7.43017">
        <ele>269.5</ele>
        <time>2023-07-23T09:46:45Z</time>
      </trkpt>
      <trkpt lat="48.37131" lon="7.43025">
        <ele>269.5</ele>
        <time>2023-07-23T09:46:46Z</time>
      </trkpt>
      <trkpt lat="48.37135" lon="7.43034">
        <ele>269.5</ele>
        <time>2023-07-23T09:46:47Z</time>
      </trkpt>
      <trkpt lat="48.37142" lon="7.43039">
        <ele>269.5</ele>
        <time>2023-07-23T09:46:48Z</time>
      </trkpt>
      <trkpt lat="48.37149" lon="7.43041">
        <ele>269.7</ele>
        <time>2023-07-23T09:46:49Z</time>
      </trkpt>
      <trkpt lat="48.37156" lon="7.4304">
        <ele>269.9</ele>
        <time>2023-07-23T09:46:50Z</time>
      </trkpt>
      <trkpt lat="48.37163" lon="7.43038">
        <ele>270.1</ele>
        <time>2023-07-23T09:46:51Z</time>
      </trkpt>
      <trkpt lat="48.3717" lon="7.43036">
        <ele>270.2</ele>
        <time>2023-07-23T09:46:52Z</time>
      </trkpt>
      <trkpt lat="48.37177" lon="7.43036">
        <ele>270.4</ele>
        <time>2023-07-23T09:46:53Z</time>
      </trkpt>
      <trkpt lat="48.37184" lon="7.43035">
        <ele>270.6</ele>
        <time>2023-07-23T09:46:54Z</time>
      </trkpt>
      <trkpt lat="48.37191" lon="7.43034">
        <ele>270.8</ele>
        <time>2023-07-23T09:46:55Z</time>
      </trkpt>
      <trkpt lat="48.37198" lon="7.43033">
        <ele>271</ele>
        <time>2023-07-23T09:46:56Z</time>
      </trkpt>
      <trkpt lat="48.37206" lon="7.43032">
        <ele>271.1</ele>
        <time>2023-07-23T09:46:57Z</time>
      </trkpt>
      <trkpt lat="48.37213" lon="7.43031">
        <ele>271.3</ele>
        <time>2023-07-23T09:46:58Z</time>
      </trkpt>
      <trkpt lat="48.3722" lon="7.4303">
        <ele>271.5</ele>
        <time>2023-07-23T09:46:59Z</time>
      </trkpt>
      <trkpt lat="48.37228" lon="7.43029">
        <ele>271.6</ele>
        <time>2023-07-23T09:47:00Z</time>
      </trkpt>
      <trkpt lat="48.37235" lon="7.43028">
        <ele>271.6</ele>
        <time>2023-07-23T09:47:01Z</time>
      </trkpt>
      <trkpt lat="48.37242" lon="7.43028">
        <ele>271.7</ele>
        <time>2023-07-23T09:47:02Z</time>
      </trkpt>
      <trkpt lat="48.3725" lon="7.43027">
        <ele>271.6</ele>
        <time>2023-07-23T09:47:03Z</time>
      </trkpt>
      <trkpt lat="48.37257" lon="7.43026">
        <ele>271.5</ele>
        <time>2023-07-23T09:47:04Z</time>
      </trkpt>
      <trkpt lat="48.37264" lon="7.43026">
        <ele>271.4</ele>
        <time>2023-07-23T09:47:05Z</time>
      </trkpt>
      <trkpt lat="48.37272" lon="7.43025">
        <ele>271.1</ele>
        <time>2023-07-23T09:47:06Z</time>
      </trkpt>
      <trkpt lat="48.37279" lon="7.43025">
        <ele>270.9</ele>
        <time>2023-07-23T09:47:07Z</time>
      </trkpt>
      <trkpt lat="48.37288" lon="7.43024">
        <ele>270.5</ele>
        <time>2023-07-23T09:47:08Z</time>
      </trkpt>
      <trkpt lat="48.37296" lon="7.43024">
        <ele>270.1</ele>
        <time>2023-07-23T09:47:09Z</time>
      </trkpt>
      <trkpt lat="48.37304" lon="7.43024">
        <ele>270</ele>
        <time>2023-07-23T09:47:10Z</time>
      </trkpt>
      <trkpt lat="48.37313" lon="7.43023">
        <ele>269.4</ele>
        <time>2023-07-23T09:47:11Z</time>
      </trkpt>
      <trkpt lat="48.37323" lon="7.43023">
        <ele>268.8</ele>
        <time>2023-07-23T09:47:12Z</time>
      </trkpt>
      <trkpt lat="48.37332" lon="7.43022">
        <ele>268.2</ele>
        <time>2023-07-23T09:47:13Z</time>
      </trkpt>
      <trkpt lat="48.37342" lon="7.43021">
        <ele>267.6</ele>
        <time>2023-07-23T09:47:14Z</time>
      </trkpt>
      <trkpt lat="48.37352" lon="7.4302">
        <ele>267</ele>
        <time>2023-07-23T09:47:15Z</time>
      </trkpt>
      <trkpt lat="48.37362" lon="7.43018">
        <ele>266.4</ele>
        <time>2023-07-23T09:47:16Z</time>
      </trkpt>
      <trkpt lat="48.37372" lon="7.43015">
        <ele>265.9</ele>
        <time>2023-07-23T09:47:17Z</time>
      </trkpt>
      <trkpt lat="48.37383" lon="7.43012">
        <ele>265.2</ele>
        <time>2023-07-23T09:47:18Z</time>
      </trkpt>
      <trkpt lat="48.37394" lon="7.43008">
        <ele>264.6</ele>
        <time>2023-07-23T09:47:19Z</time>
      </trkpt>
      <trkpt lat="48.37405" lon="7.43004">
        <ele>263.9</ele>
        <time>2023-07-23T09:47:20Z</time>
      </trkpt>
      <trkpt lat="48.37416" lon="7.43">
        <ele>263.3</ele>
        <time>2023-07-23T09:47:21Z</time>
      </trkpt>
      <trkpt lat="48.37427" lon="7.42997">
        <ele>262.7</ele>
        <time>2023-07-23T09:47:22Z</time>
      </trkpt>
      <trkpt lat="48.37438" lon="7.42993">
        <ele>262.1</ele>
        <time>2023-07-23T09:47:23Z</time>
      </trkpt>
      <trkpt lat="48.3745" lon="7.42989">
        <ele>261.5</ele>
        <time>2023-07-23T09:47:24Z</time>
      </trkpt>
      <trkpt lat="48.37462" lon="7.42986">
        <ele>260.8</ele>
        <time>2023-07-23T09:47:25Z</time>
      </trkpt>
      <trkpt lat="48.37474" lon="7.42983">
        <ele>260.1</ele>
        <time>2023-07-23T09:47:26Z</time>
      </trkpt>
      <trkpt lat="48.37486" lon="7.42981">
        <ele>259.4</ele>
        <time>2023-07-23T09:47:27Z</time>
      </trkpt>
      <trkpt lat="48.37499" lon="7.4298">
        <ele>258.7</ele>
        <time>2023-07-23T09:47:28Z</time>
      </trkpt>
      <trkpt lat="48.37511" lon="7.42978">
        <ele>258.1</ele>
        <time>2023-07-23T09:47:29Z</time>
      </trkpt>
      <trkpt lat="48.37524" lon="7.42976">
        <ele>257.4</ele>
        <time>2023-07-23T09:47:30Z</time>
      </trkpt>
      <trkpt lat="48.37536" lon="7.42972">
        <ele>256.7</ele>
        <time>2023-07-23T09:47:31Z</time>
      </trkpt>
      <trkpt lat="48.37548" lon="7.42967">
        <ele>256.1</ele>
        <time>2023-07-23T09:47:32Z</time>
      </trkpt>
      <trkpt lat="48.3756" lon="7.4296">
        <ele>255.6</ele>
        <time>2023-07-23T09:47:33Z</time>
      </trkpt>
      <trkpt lat="48.37572" lon="7.42953">
        <ele>255.1</ele>
        <time>2023-07-23T09:47:34Z</time>
      </trkpt>
      <trkpt lat="48.37584" lon="7.42946">
        <ele>254.6</ele>
        <time>2023-07-23T09:47:35Z</time>
      </trkpt>
      <trkpt lat="48.37597" lon="7.4294">
        <ele>254.1</ele>
        <time>2023-07-23T09:47:36Z</time>
      </trkpt>
      <trkpt lat="48.37609" lon="7.42933">
        <ele>253.7</ele>
        <time>2023-07-23T09:47:37Z</time>
      </trkpt>
      <trkpt lat="48.37622" lon="7.4293">
        <ele>253.3</ele>
        <time>2023-07-23T09:47:38Z</time>
      </trkpt>
      <trkpt lat="48.37634" lon="7.42928">
        <ele>253</ele>
        <time>2023-07-23T09:47:39Z</time>
      </trkpt>
      <trkpt lat="48.37646" lon="7.42926">
        <ele>252.9</ele>
        <time>2023-07-23T09:47:40Z</time>
      </trkpt>
      <trkpt lat="48.37658" lon="7.42923">
        <ele>252.8</ele>
        <time>2023-07-23T09:47:41Z</time>
      </trkpt>
      <trkpt lat="48.37669" lon="7.4292">
        <ele>252.8</ele>
        <time>2023-07-23T09:47:42Z</time>
      </trkpt>
      <trkpt lat="48.3768" lon="7.42916">
        <ele>252.8</ele>
        <time>2023-07-23T09:47:43Z</time>
      </trkpt>
      <trkpt lat="48.37691" lon="7.42911">
        <ele>252.8</ele>
        <time>2023-07-23T09:47:44Z</time>
      </trkpt>
      <trkpt lat="48.37701" lon="7.42905">
        <ele>252.8</ele>
        <time>2023-07-23T09:47:45Z</time>
      </trkpt>
      <trkpt lat="48.37711" lon="7.42899">
        <ele>252.8</ele>
        <time>2023-07-23T09:47:46Z</time>
      </trkpt>
      <trkpt lat="48.3772" lon="7.42892">
        <ele>252.8</ele>
        <time>2023-07-23T09:47:47Z</time>
      </trkpt>
      <trkpt lat="48.37729" lon="7.42885">
        <ele>252.9</ele>
        <time>2023-07-23T09:47:48Z</time>
      </trkpt>
      <trkpt lat="48.37738" lon="7.42878">
        <ele>252.9</ele>
        <time>2023-07-23T09:47:49Z</time>
      </trkpt>
      <trkpt lat="48.37746" lon="7.4287">
        <ele>253</ele>
        <time>2023-07-23T09:47:50Z</time>
      </trkpt>
      <trkpt lat="48.37755" lon="7.42864">
        <ele>253.1</ele>
        <time>2023-07-23T09:47:51Z</time>
      </trkpt>
      <trkpt lat="48.37764" lon="7.42859">
        <ele>253.2</ele>
        <time>2023-07-23T09:47:52Z</time>
      </trkpt>
      <trkpt lat="48.37774" lon="7.42858">
        <ele>253.2</ele>
        <time>2023-07-23T09:47:53Z</time>
      </trkpt>
      <trkpt lat="48.37783" lon="7.4286">
        <ele>253.3</ele>
        <time>2023-07-23T09:47:54Z</time>
      </trkpt>
      <trkpt lat="48.37791" lon="7.42865">
        <ele>253.3</ele>
        <time>2023-07-23T09:47:55Z</time>
      </trkpt>
      <trkpt lat="48.378" lon="7.42871">
        <ele>253.4</ele>
        <time>2023-07-23T09:47:56Z</time>
      </trkpt>
      <trkpt lat="48.37808" lon="7.42877">
        <ele>253.5</ele>
        <time>2023-07-23T09:47:57Z</time>
      </trkpt>
      <trkpt lat="48.37816" lon="7.42883">
        <ele>253.6</ele>
        <time>2023-07-23T09:47:58Z</time>
      </trkpt>
      <trkpt lat="48.37824" lon="7.42889">
        <ele>253.7</ele>
        <time>2023-07-23T09:47:59Z</time>
      </trkpt>
      <trkpt lat="48.37832" lon="7.42894">
        <ele>253.8</ele>
        <time>2023-07-23T09:48:00Z</time>
      </trkpt>
      <trkpt lat="48.3784" lon="7.429">
        <ele>254</ele>
        <time>2023-07-23T09:48:01Z</time>
      </trkpt>
      <trkpt lat="48.37848" lon="7.42906">
        <ele>254.1</ele>
        <time>2023-07-23T09:48:02Z</time>
      </trkpt>
      <trkpt lat="48.37856" lon="7.42911">
        <ele>254.3</ele>
        <time>2023-07-23T09:48:03Z</time>
      </trkpt>
      <trkpt lat="48.37863" lon="7.42916">
        <ele>254.4</ele>
        <time>2023-07-23T09:48:04Z</time>
      </trkpt>
      <trkpt lat="48.37871" lon="7.42921">
        <ele>254.6</ele>
        <time>2023-07-23T09:48:05Z</time>
      </trkpt>
      <trkpt lat="48.37879" lon="7.42925">
        <ele>254.8</ele>
        <time>2023-07-23T09:48:06Z</time>
      </trkpt>
      <trkpt lat="48.37886" lon="7.42929">
        <ele>255</ele>
        <time>2023-07-23T09:48:07Z</time>
      </trkpt>
      <trkpt lat="48.37894" lon="7.42932">
        <ele>255.2</ele>
        <time>2023-07-23T09:48:08Z</time>
      </trkpt>
      <trkpt lat="48.37902" lon="7.42935">
        <ele>255.4</ele>
        <time>2023-07-23T09:48:09Z</time>
      </trkpt>
      <trkpt lat="48.37909" lon="7.42938">
        <ele>255.5</ele>
        <time>2023-07-23T09:48:10Z</time>
      </trkpt>
      <trkpt lat="48.37917" lon="7.42941">
        <ele>255.6</ele>
        <time>2023-07-23T09:48:11Z</time>
      </trkpt>
      <trkpt lat="48.37924" lon="7.42944">
        <ele>255.7</ele>
        <time>2023-07-23T09:48:12Z</time>
      </trkpt>
      <trkpt lat="48.37932" lon="7.42947">
        <ele>255.8</ele>
        <time>2023-07-23T09:48:13Z</time>
      </trkpt>
      <trkpt lat="48.37939" lon="7.4295">
        <ele>255.9</ele>
        <time>2023-07-23T09:48:14Z</time>
      </trkpt>
      <trkpt lat="48.37947" lon="7.42953">
        <ele>255.9</ele>
        <time>2023-07-23T09:48:15Z</time>
      </trkpt>
      <trkpt lat="48.37955" lon="7.42956">
        <ele>256</ele>
        <time>2023-07-23T09:48:16Z</time>
      </trkpt>
      <trkpt lat="48.37963" lon="7.42959">
        <ele>256</ele>
        <time>2023-07-23T09:48:17Z</time>
      </trkpt>
      <trkpt lat="48.3797" lon="7.42961">
        <ele>256</ele>
        <time>2023-07-23T09:48:18Z</time>
      </trkpt>
      <trkpt lat="48.37978" lon="7.42963">
        <ele>255.9</ele>
        <time>2023-07-23T09:48:19Z</time>
      </trkpt>
      <trkpt lat="48.37986" lon="7.42965">
        <ele>255.9</ele>
        <time>2023-07-23T09:48:20Z</time>
      </trkpt>
      <trkpt lat="48.37994" lon="7.42967">
        <ele>255.8</ele>
        <time>2023-07-23T09:48:21Z</time>
      </trkpt>
      <trkpt lat="48.38002" lon="7.42969">
        <ele>255.7</ele>
        <time>2023-07-23T09:48:22Z</time>
      </trkpt>
      <trkpt lat="48.3801" lon="7.42971">
        <ele>255.7</ele>
        <time>2023-07-23T09:48:23Z</time>
      </trkpt>
      <trkpt lat="48.38018" lon="7.42973">
        <ele>255.6</ele>
        <time>2023-07-23T09:48:24Z</time>
      </trkpt>
      <trkpt lat="48.38026" lon="7.42974">
        <ele>255.5</ele>
        <time>2023-07-23T09:48:25Z</time>
      </trkpt>
      <trkpt lat="48.38034" lon="7.42976">
        <ele>255.4</ele>
        <time>2023-07-23T09:48:26Z</time>
      </trkpt>
      <trkpt lat="48.38043" lon="7.42977">
        <ele>255.3</ele>
        <time>2023-07-23T09:48:27Z</time>
      </trkpt>
      <trkpt lat="48.38051" lon="7.42977">
        <ele>255.2</ele>
        <time>2023-07-23T09:48:28Z</time>
      </trkpt>
      <trkpt lat="48.3806" lon="7.42977">
        <ele>255</ele>
        <time>2023-07-23T09:48:29Z</time>
      </trkpt>
      <trkpt lat="48.38068" lon="7.42976">
        <ele>254.9</ele>
        <time>2023-07-23T09:48:30Z</time>
      </trkpt>
      <trkpt lat="48.38077" lon="7.42976">
        <ele>254.8</ele>
        <time>2023-07-23T09:48:31Z</time>
      </trkpt>
      <trkpt lat="48.38086" lon="7.42975">
        <ele>254.6</ele>
        <time>2023-07-23T09:48:32Z</time>
      </trkpt>
      <trkpt lat="48.38094" lon="7.42975">
        <ele>254.5</ele>
        <time>2023-07-23T09:48:33Z</time>
      </trkpt>
      <trkpt lat="48.38103" lon="7.42974">
        <ele>254.3</ele>
        <time>2023-07-23T09:48:34Z</time>
      </trkpt>
      <trkpt lat="48.38111" lon="7.42973">
        <ele>254.2</ele>
        <time>2023-07-23T09:48:35Z</time>
      </trkpt>
      <trkpt lat="48.3812" lon="7.42972">
        <ele>254</ele>
        <time>2023-07-23T09:48:36Z</time>
      </trkpt>
      <trkpt lat="48.38129" lon="7.42971">
        <ele>253.9</ele>
        <time>2023-07-23T09:48:37Z</time>
      </trkpt>
      <trkpt lat="48.38138" lon="7.4297">
        <ele>253.7</ele>
        <time>2023-07-23T09:48:38Z</time>
      </trkpt>
      <trkpt lat="48.38146" lon="7.42968">
        <ele>253.6</ele>
        <time>2023-07-23T09:48:39Z</time>
      </trkpt>
      <trkpt lat="48.38155" lon="7.42968">
        <ele>253.4</ele>
        <time>2023-07-23T09:48:40Z</time>
      </trkpt>
      <trkpt lat="48.38163" lon="7.42965">
        <ele>253.2</ele>
        <time>2023-07-23T09:48:41Z</time>
      </trkpt>
      <trkpt lat="48.38169" lon="7.4296">
        <ele>253.1</ele>
        <time>2023-07-23T09:48:42Z</time>
      </trkpt>
      <trkpt lat="48.38173" lon="7.42952">
        <ele>252.9</ele>
        <time>2023-07-23T09:48:43Z</time>
      </trkpt>
      <trkpt lat="48.38175" lon="7.42941">
        <ele>252.7</ele>
        <time>2023-07-23T09:48:44Z</time>
      </trkpt>
      <trkpt lat="48.38175" lon="7.4293">
        <ele>252.4</ele>
        <time>2023-07-23T09:48:45Z</time>
      </trkpt>
      <trkpt lat="48.38174" lon="7.42919">
        <ele>252.2</ele>
        <time>2023-07-23T09:48:46Z</time>
      </trkpt>
      <trkpt lat="48.38174" lon="7.42908">
        <ele>251.9</ele>
        <time>2023-07-23T09:48:47Z</time>
      </trkpt>
      <trkpt lat="48.38174" lon="7.42897">
        <ele>251.6</ele>
        <time>2023-07-23T09:48:48Z</time>
      </trkpt>
      <trkpt lat="48.38174" lon="7.42885">
        <ele>251.3</ele>
        <time>2023-07-23T09:48:49Z</time>
      </trkpt>
      <trkpt lat="48.38175" lon="7.42873">
        <ele>251.1</ele>
        <time>2023-07-23T09:48:50Z</time>
      </trkpt>
      <trkpt lat="48.38175" lon="7.4286">
        <ele>250.9</ele>
        <time>2023-07-23T09:48:51Z</time>
      </trkpt>
      <trkpt lat="48.38175" lon="7.42848">
        <ele>250.6</ele>
        <time>2023-07-23T09:48:52Z</time>
      </trkpt>
      <trkpt lat="48.38176" lon="7.42836">
        <ele>250.4</ele>
        <time>2023-07-23T09:48:53Z</time>
      </trkpt>
      <trkpt lat="48.38176" lon="7.42823">
        <ele>250.1</ele>
        <time>2023-07-23T09:48:54Z</time>
      </trkpt>
      <trkpt lat="48.38177" lon="7.4281">
        <ele>249.9</ele>
        <time>2023-07-23T09:48:55Z</time>
      </trkpt>
      <trkpt lat="48.38178" lon="7.42797">
        <ele>249.7</ele>
        <time>2023-07-23T09:48:56Z</time>
      </trkpt>
      <trkpt lat="48.38178" lon="7.42785">
        <ele>249.6</ele>
        <time>2023-07-23T09:48:57Z</time>
      </trkpt>
      <trkpt lat="48.38178" lon="7.42772">
        <ele>249.4</ele>
        <time>2023-07-23T09:48:58Z</time>
      </trkpt>
      <trkpt lat="48.38178" lon="7.42759">
        <ele>249.2</ele>
        <time>2023-07-23T09:48:59Z</time>
      </trkpt>
      <trkpt lat="48.38179" lon="7.42746">
        <ele>249</ele>
        <time>2023-07-23T09:49:00Z</time>
      </trkpt>
      <trkpt lat="48.38179" lon="7.42733">
        <ele>248.8</ele>
        <time>2023-07-23T09:49:01Z</time>
      </trkpt>
      <trkpt lat="48.38178" lon="7.42721">
        <ele>248.6</ele>
        <time>2023-07-23T09:49:02Z</time>
      </trkpt>
      <trkpt lat="48.38178" lon="7.42708">
        <ele>248.4</ele>
        <time>2023-07-23T09:49:03Z</time>
      </trkpt>
      <trkpt lat="48.38177" lon="7.42695">
        <ele>248.2</ele>
        <time>2023-07-23T09:49:04Z</time>
      </trkpt>
      <trkpt lat="48.38177" lon="7.42683">
        <ele>248.1</ele>
        <time>2023-07-23T09:49:05Z</time>
      </trkpt>
      <trkpt lat="48.38178" lon="7.42671">
        <ele>247.8</ele>
        <time>2023-07-23T09:49:06Z</time>
      </trkpt>
      <trkpt lat="48.3818" lon="7.42658">
        <ele>247.5</ele>
        <time>2023-07-23T09:49:07Z</time>
      </trkpt>
      <trkpt lat="48.38183" lon="7.42646">
        <ele>247</ele>
        <time>2023-07-23T09:49:08Z</time>
      </trkpt>
      <trkpt lat="48.38186" lon="7.42633">
        <ele>246.5</ele>
        <time>2023-07-23T09:49:09Z</time>
      </trkpt>
      <trkpt lat="48.38189" lon="7.4262">
        <ele>246</ele>
        <time>2023-07-23T09:49:10Z</time>
      </trkpt>
      <trkpt lat="48.38191" lon="7.42607">
        <ele>245.5</ele>
        <time>2023-07-23T09:49:11Z</time>
      </trkpt>
      <trkpt lat="48.38193" lon="7.42593">
        <ele>245</ele>
        <time>2023-07-23T09:49:12Z</time>
      </trkpt>
      <trkpt lat="48.38195" lon="7.42579">
        <ele>244.5</ele>
        <time>2023-07-23T09:49:13Z</time>
      </trkpt>
      <trkpt lat="48.38198" lon="7.42564">
        <ele>244</ele>
        <time>2023-07-23T09:49:14Z</time>
      </trkpt>
      <trkpt lat="48.382" lon="7.4255">
        <ele>243.4</ele>
        <time>2023-07-23T09:49:15Z</time>
      </trkpt>
      <trkpt lat="48.38202" lon="7.42535">
        <ele>242.7</ele>
        <time>2023-07-23T09:49:16Z</time>
      </trkpt>
      <trkpt lat="48.38204" lon="7.4252">
        <ele>242.2</ele>
        <time>2023-07-23T09:49:17Z</time>
      </trkpt>
      <trkpt lat="48.38206" lon="7.42505">
        <ele>241.6</ele>
        <time>2023-07-23T09:49:18Z</time>
      </trkpt>
      <trkpt lat="48.38208" lon="7.42489">
        <ele>241</ele>
        <time>2023-07-23T09:49:19Z</time>
      </trkpt>
      <trkpt lat="48.3821" lon="7.42474">
        <ele>240.4</ele>
        <time>2023-07-23T09:49:20Z</time>
      </trkpt>
      <trkpt lat="48.38211" lon="7.42458">
        <ele>239.8</ele>
        <time>2023-07-23T09:49:21Z</time>
      </trkpt>
      <trkpt lat="48.38214" lon="7.42442">
        <ele>239.2</ele>
        <time>2023-07-23T09:49:22Z</time>
      </trkpt>
      <trkpt lat="48.38216" lon="7.42427">
        <ele>238.6</ele>
        <time>2023-07-23T09:49:23Z</time>
      </trkpt>
      <trkpt lat="48.38219" lon="7.42411">
        <ele>237.8</ele>
        <time>2023-07-23T09:49:24Z</time>
      </trkpt>
      <trkpt lat="48.38223" lon="7.42395">
        <ele>237.1</ele>
        <time>2023-07-23T09:49:25Z</time>
      </trkpt>
      <trkpt lat="48.38228" lon="7.4238">
        <ele>236.2</ele>
        <time>2023-07-23T09:49:26Z</time>
      </trkpt>
      <trkpt lat="48.38235" lon="7.42367">
        <ele>235.3</ele>
        <time>2023-07-23T09:49:27Z</time>
      </trkpt>
      <trkpt lat="48.38242" lon="7.42356">
        <ele>234.5</ele>
        <time>2023-07-23T09:49:28Z</time>
      </trkpt>
      <trkpt lat="48.38251" lon="7.42347">
        <ele>233.7</ele>
        <time>2023-07-23T09:49:29Z</time>
      </trkpt>
      <trkpt lat="48.3826" lon="7.42338">
        <ele>233</ele>
        <time>2023-07-23T09:49:30Z</time>
      </trkpt>
      <trkpt lat="48.38268" lon="7.42328">
        <ele>232.5</ele>
        <time>2023-07-23T09:49:31Z</time>
      </trkpt>
      <trkpt lat="48.38273" lon="7.42317">
        <ele>232.1</ele>
        <time>2023-07-23T09:49:32Z</time>
      </trkpt>
      <trkpt lat="48.38276" lon="7.42302">
        <ele>231.7</ele>
        <time>2023-07-23T09:49:33Z</time>
      </trkpt>
      <trkpt lat="48.38278" lon="7.42287">
        <ele>231.4</ele>
        <time>2023-07-23T09:49:34Z</time>
      </trkpt>
      <trkpt lat="48.38279" lon="7.42272">
        <ele>231.1</ele>
        <time>2023-07-23T09:49:35Z</time>
      </trkpt>
      <trkpt lat="48.38281" lon="7.42256">
        <ele>231</ele>
        <time>2023-07-23T09:49:36Z</time>
      </trkpt>
      <trkpt lat="48.38282" lon="7.42241">
        <ele>230.9</ele>
        <time>2023-07-23T09:49:37Z</time>
      </trkpt>
      <trkpt lat="48.38282" lon="7.42225">
        <ele>230.9</ele>
        <time>2023-07-23T09:49:38Z</time>
      </trkpt>
      <trkpt lat="48.38285" lon="7.42211">
        <ele>231.1</ele>
        <time>2023-07-23T09:49:39Z</time>
      </trkpt>
      <trkpt lat="48.38288" lon="7.42197">
        <ele>231.1</ele>
        <time>2023-07-23T09:49:40Z</time>
      </trkpt>
      <trkpt lat="48.38291" lon="7.42183">
        <ele>231</ele>
        <time>2023-07-23T09:49:41Z</time>
      </trkpt>
      <trkpt lat="48.38294" lon="7.4217">
        <ele>231</ele>
        <time>2023-07-23T09:49:42Z</time>
      </trkpt>
      <trkpt lat="48.38298" lon="7.42158">
        <ele>231.1</ele>
        <time>2023-07-23T09:49:43Z</time>
      </trkpt>
      <trkpt lat="48.38302" lon="7.42146">
        <ele>231.3</ele>
        <time>2023-07-23T09:49:44Z</time>
      </trkpt>
      <trkpt lat="48.38305" lon="7.42134">
        <ele>231.5</ele>
        <time>2023-07-23T09:49:45Z</time>
      </trkpt>
      <trkpt lat="48.38308" lon="7.42121">
        <ele>231.7</ele>
        <time>2023-07-23T09:49:46Z</time>
      </trkpt>
      <trkpt lat="48.38311" lon="7.42109">
        <ele>231.9</ele>
        <time>2023-07-23T09:49:47Z</time>
      </trkpt>
      <trkpt lat="48.38314" lon="7.42098">
        <ele>232.1</ele>
        <time>2023-07-23T09:49:48Z</time>
      </trkpt>
      <trkpt lat="48.38317" lon="7.42086">
        <ele>232.3</ele>
        <time>2023-07-23T09:49:49Z</time>
      </trkpt>
      <trkpt lat="48.3832" lon="7.42075">
        <ele>232.6</ele>
        <time>2023-07-23T09:49:50Z</time>
      </trkpt>
      <trkpt lat="48.38323" lon="7.42064">
        <ele>232.7</ele>
        <time>2023-07-23T09:49:51Z</time>
      </trkpt>
      <trkpt lat="48.38325" lon="7.42053">
        <ele>232.9</ele>
        <time>2023-07-23T09:49:52Z</time>
      </trkpt>
      <trkpt lat="48.38328" lon="7.42043">
        <ele>233</ele>
        <time>2023-07-23T09:49:53Z</time>
      </trkpt>
      <trkpt lat="48.3833" lon="7.42032">
        <ele>233.1</ele>
        <time>2023-07-23T09:49:54Z</time>
      </trkpt>
      <trkpt lat="48.38333" lon="7.42021">
        <ele>233.3</ele>
        <time>2023-07-23T09:49:55Z</time>
      </trkpt>
      <trkpt lat="48.38334" lon="7.42011">
        <ele>233.4</ele>
        <time>2023-07-23T09:49:56Z</time>
      </trkpt>
      <trkpt lat="48.38337" lon="7.42001">
        <ele>233.6</ele>
        <time>2023-07-23T09:49:57Z</time>
      </trkpt>
      <trkpt lat="48.3834" lon="7.41991">
        <ele>233.8</ele>
        <time>2023-07-23T09:49:58Z</time>
      </trkpt>
      <trkpt lat="48.38342" lon="7.41982">
        <ele>234</ele>
        <time>2023-07-23T09:49:59Z</time>
      </trkpt>
      <trkpt lat="48.38344" lon="7.41971">
        <ele>234.1</ele>
        <time>2023-07-23T09:50:00Z</time>
      </trkpt>
      <trkpt lat="48.38346" lon="7.41961">
        <ele>234.3</ele>
        <time>2023-07-23T09:50:01Z</time>
      </trkpt>
      <trkpt lat="48.38348" lon="7.41952">
        <ele>234.5</ele>
        <time>2023-07-23T09:50:02Z</time>
      </trkpt>
      <trkpt lat="48.38351" lon="7.41942">
        <ele>234.6</ele>
        <time>2023-07-23T09:50:03Z</time>
      </trkpt>
      <trkpt lat="48.38353" lon="7.41932">
        <ele>234.7</ele>
        <time>2023-07-23T09:50:04Z</time>
      </trkpt>
      <trkpt lat="48.38356" lon="7.41922">
        <ele>234.8</ele>
        <time>2023-07-23T09:50:05Z</time>
      </trkpt>
      <trkpt lat="48.38358" lon="7.41913">
        <ele>234.8</ele>
        <time>2023-07-23T09:50:06Z</time>
      </trkpt>
      <trkpt lat="48.38362" lon="7.41904">
        <ele>234.8</ele>
        <time>2023-07-23T09:50:07Z</time>
      </trkpt>
      <trkpt lat="48.38365" lon="7.41895">
        <ele>234.8</ele>
        <time>2023-07-23T09:50:08Z</time>
      </trkpt>
      <trkpt lat="48.38368" lon="7.41886">
        <ele>234.8</ele>
        <time>2023-07-23T09:50:09Z</time>
      </trkpt>
      <trkpt lat="48.38372" lon="7.41877">
        <ele>234.8</ele>
        <time>2023-07-23T09:50:10Z</time>
      </trkpt>
      <trkpt lat="48.38376" lon="7.41868">
        <ele>234.8</ele>
        <time>2023-07-23T09:50:11Z</time>
      </trkpt>
      <trkpt lat="48.38379" lon="7.41858">
        <ele>234.8</ele>
        <time>2023-07-23T09:50:12Z</time>
      </trkpt>
      <trkpt lat="48.38383" lon="7.4185">
        <ele>234.8</ele>
        <time>2023-07-23T09:50:13Z</time>
      </trkpt>
      <trkpt lat="48.38387" lon="7.41841">
        <ele>234.7</ele>
        <time>2023-07-23T09:50:14Z</time>
      </trkpt>
      <trkpt lat="48.38391" lon="7.41833">
        <ele>234.7</ele>
        <time>2023-07-23T09:50:15Z</time>
      </trkpt>
      <trkpt lat="48.38395" lon="7.41825">
        <ele>234.7</ele>
        <time>2023-07-23T09:50:16Z</time>
      </trkpt>
      <trkpt lat="48.384" lon="7.41818">
        <ele>234.6</ele>
        <time>2023-07-23T09:50:17Z</time>
      </trkpt>
      <trkpt lat="48.38405" lon="7.4181">
        <ele>234.5</ele>
        <time>2023-07-23T09:50:18Z</time>
      </trkpt>
      <trkpt lat="48.38411" lon="7.41804">
        <ele>234.3</ele>
        <time>2023-07-23T09:50:19Z</time>
      </trkpt>
      <trkpt lat="48.38416" lon="7.41798">
        <ele>234.1</ele>
        <time>2023-07-23T09:50:20Z</time>
      </trkpt>
      <trkpt lat="48.38422" lon="7.41791">
        <ele>233.9</ele>
        <time>2023-07-23T09:50:21Z</time>
      </trkpt>
      <trkpt lat="48.38427" lon="7.41785">
        <ele>233.7</ele>
        <time>2023-07-23T09:50:22Z</time>
      </trkpt>
      <trkpt lat="48.38432" lon="7.41778">
        <ele>233.4</ele>
        <time>2023-07-23T09:50:23Z</time>
      </trkpt>
      <trkpt lat="48.38437" lon="7.41771">
        <ele>233.2</ele>
        <time>2023-07-23T09:50:24Z</time>
      </trkpt>
      <trkpt lat="48.38441" lon="7.41763">
        <ele>232.9</ele>
        <time>2023-07-23T09:50:25Z</time>
      </trkpt>
      <trkpt lat="48.38446" lon="7.41755">
        <ele>232.6</ele>
        <time>2023-07-23T09:50:26Z</time>
      </trkpt>
      <trkpt lat="48.3845" lon="7.41746">
        <ele>232.3</ele>
        <time>2023-07-23T09:50:27Z</time>
      </trkpt>
      <trkpt lat="48.38455" lon="7.41738">
        <ele>232</ele>
        <time>2023-07-23T09:50:28Z</time>
      </trkpt>
      <trkpt lat="48.38459" lon="7.41731">
        <ele>231.7</ele>
        <time>2023-07-23T09:50:29Z</time>
      </trkpt>
      <trkpt lat="48.38464" lon="7.41723">
        <ele>231.4</ele>
        <time>2023-07-23T09:50:30Z</time>
      </trkpt>
      <trkpt lat="48.38469" lon="7.41714">
        <ele>231.3</ele>
        <time>2023-07-23T09:50:31Z</time>
      </trkpt>
      <trkpt lat="48.38474" lon="7.41707">
        <ele>231.2</ele>
        <time>2023-07-23T09:50:32Z</time>
      </trkpt>
      <trkpt lat="48.38481" lon="7.41701">
        <ele>231.1</ele>
        <time>2023-07-23T09:50:33Z</time>
      </trkpt>
      <trkpt lat="48.38489" lon="7.41701">
        <ele>230.7</ele>
        <time>2023-07-23T09:50:34Z</time>
      </trkpt>
      <trkpt lat="48.38496" lon="7.41704">
        <ele>230.3</ele>
        <time>2023-07-23T09:50:35Z</time>
      </trkpt>
      <trkpt lat="48.38503" lon="7.41711">
        <ele>229.9</ele>
        <time>2023-07-23T09:50:36Z</time>
      </trkpt>
      <trkpt lat="48.3851" lon="7.41718">
        <ele>229.5</ele>
        <time>2023-07-23T09:50:37Z</time>
      </trkpt>
      <trkpt lat="48.38517" lon="7.41724">
        <ele>229.3</ele>
        <time>2023-07-23T09:50:38Z</time>
      </trkpt>
      <trkpt lat="48.38525" lon="7.41727">
        <ele>229</ele>
        <time>2023-07-23T09:50:39Z</time>
      </trkpt>
      <trkpt lat="48.38532" lon="7.41729">
        <ele>228.8</ele>
        <time>2023-07-23T09:50:40Z</time>
      </trkpt>
      <trkpt lat="48.3854" lon="7.41731">
        <ele>228.7</ele>
        <time>2023-07-23T09:50:41Z</time>
      </trkpt>
      <trkpt lat="48.38548" lon="7.41733">
        <ele>228.6</ele>
        <time>2023-07-23T09:50:42Z</time>
      </trkpt>
      <trkpt lat="48.38556" lon="7.41735">
        <ele>228.4</ele>
        <time>2023-07-23T09:50:43Z</time>
      </trkpt>
      <trkpt lat="48.38563" lon="7.41738">
        <ele>228.3</ele>
        <time>2023-07-23T09:50:44Z</time>
      </trkpt>
      <trkpt lat="48.38569" lon="7.41744">
        <ele>228.2</ele>
        <time>2023-07-23T09:50:45Z</time>
      </trkpt>
      <trkpt lat="48.38576" lon="7.41749">
        <ele>228.1</ele>
        <time>2023-07-23T09:50:46Z</time>
      </trkpt>
      <trkpt lat="48.38582" lon="7.41756">
        <ele>227.9</ele>
        <time>2023-07-23T09:50:47Z</time>
      </trkpt>
      <trkpt lat="48.38588" lon="7.41763">
        <ele>227.8</ele>
        <time>2023-07-23T09:50:48Z</time>
      </trkpt>
      <trkpt lat="48.38594" lon="7.4177">
        <ele>227.6</ele>
        <time>2023-07-23T09:50:49Z</time>
      </trkpt>
      <trkpt lat="48.38599" lon="7.41778">
        <ele>227.5</ele>
        <time>2023-07-23T09:50:50Z</time>
      </trkpt>
      <trkpt lat="48.38601" lon="7.41784">
        <ele>227.5</ele>
        <time>2023-07-23T09:50:51Z</time>
      </trkpt>
      <trkpt lat="48.38604" lon="7.41788">
        <ele>227.4</ele>
        <time>2023-07-23T09:50:52Z</time>
      </trkpt>
      <trkpt lat="48.38606" lon="7.41792">
        <ele>227.3</ele>
        <time>2023-07-23T09:50:53Z</time>
      </trkpt>
      <trkpt lat="48.38609" lon="7.41796">
        <ele>227.3</ele>
        <time>2023-07-23T09:50:54Z</time>
      </trkpt>
      <trkpt lat="48.38613" lon="7.41796">
        <ele>227.3</ele>
        <time>2023-07-23T09:50:55Z</time>
      </trkpt>
      <trkpt lat="48.38616" lon="7.41793">
        <ele>227.4</ele>
        <time>2023-07-23T09:50:56Z</time>
      </trkpt>
      <trkpt lat="48.38618" lon="7.41788">
        <ele>227.6</ele>
        <time>2023-07-23T09:50:57Z</time>
      </trkpt>
      <trkpt lat="48.3862" lon="7.41782">
        <ele>227.7</ele>
        <time>2023-07-23T09:50:58Z</time>
      </trkpt>
      <trkpt lat="48.38622" lon="7.41778">
        <ele>227.8</ele>
        <time>2023-07-23T09:50:59Z</time>
      </trkpt>
      <trkpt lat="48.38624" lon="7.41773">
        <ele>227.9</ele>
        <time>2023-07-23T09:51:00Z</time>
      </trkpt>
      <trkpt lat="48.38626" lon="7.4177">
        <ele>227.9</ele>
        <time>2023-07-23T09:51:01Z</time>
      </trkpt>
      <trkpt lat="48.38628" lon="7.41766">
        <ele>228</ele>
        <time>2023-07-23T09:51:02Z</time>
      </trkpt>
      <trkpt lat="48.38629" lon="7.41762">
        <ele>228.1</ele>
        <time>2023-07-23T09:51:03Z</time>
      </trkpt>
      <trkpt lat="48.38631" lon="7.41758">
        <ele>228.1</ele>
        <time>2023-07-23T09:51:04Z</time>
      </trkpt>
      <trkpt lat="48.38632" lon="7.41754">
        <ele>228.2</ele>
        <time>2023-07-23T09:51:05Z</time>
      </trkpt>
      <trkpt lat="48.38634" lon="7.41753">
        <ele>228.2</ele>
        <time>2023-07-23T09:51:06Z</time>
      </trkpt>
      <trkpt lat="48.38634" lon="7.41752">
        <ele>228.2</ele>
        <time>2023-07-23T09:51:07Z</time>
      </trkpt>
      <trkpt lat="48.38633" lon="7.41752">
        <ele>228.2</ele>
        <time>2023-07-23T09:51:08Z</time>
      </trkpt>
      <trkpt lat="48.38633" lon="7.41752">
        <ele>228.2</ele>
        <time>2023-07-23T09:51:09Z</time>
      </trkpt>
      <trkpt lat="48.38633" lon="7.41751">
        <ele>228.3</ele>
        <time>2023-07-23T09:51:10Z</time>
      </trkpt>
      <trkpt lat="48.38633" lon="7.41751">
        <ele>228.3</ele>
        <time>2023-07-23T09:51:11Z</time>
      </trkpt>
      <trkpt lat="48.38633" lon="7.41751">
        <ele>228.3</ele>
        <time>2023-07-23T09:51:12Z</time>
      </trkpt>
      <trkpt lat="48.38632" lon="7.41751">
        <ele>228.3</ele>
        <time>2023-07-23T09:51:13Z</time>
      </trkpt>
      <trkpt lat="48.38632" lon="7.41751">
        <ele>228.3</ele>
        <time>2023-07-23T09:51:14Z</time>
      </trkpt>
      <trkpt lat="48.38633" lon="7.41749">
        <ele>228.3</ele>
        <time>2023-07-23T09:51:15Z</time>
      </trkpt>
      <trkpt lat="48.38634" lon="7.41746">
        <ele>228.3</ele>
        <time>2023-07-23T09:51:16Z</time>
      </trkpt>
      <trkpt lat="48.38635" lon="7.41744">
        <ele>228.4</ele>
        <time>2023-07-23T09:51:17Z</time>
      </trkpt>
      <trkpt lat="48.38636" lon="7.4174">
        <ele>228.4</ele>
        <time>2023-07-23T09:51:18Z</time>
      </trkpt>
      <trkpt lat="48.38636" lon="7.41739">
        <ele>228.4</ele>
        <time>2023-07-23T09:51:19Z</time>
      </trkpt>
      <trkpt lat="48.38637" lon="7.41735">
        <ele>228.5</ele>
        <time>2023-07-23T09:51:20Z</time>
      </trkpt>
      <trkpt lat="48.38638" lon="7.41733">
        <ele>228.5</ele>
        <time>2023-07-23T09:51:21Z</time>
      </trkpt>
      <trkpt lat="48.38639" lon="7.41729">
        <ele>228.6</ele>
        <time>2023-07-23T09:51:22Z</time>
      </trkpt>
      <trkpt lat="48.38639" lon="7.41727">
        <ele>228.6</ele>
        <time>2023-07-23T09:51:23Z</time>
      </trkpt>
      <trkpt lat="48.38641" lon="7.41721">
        <ele>228.7</ele>
        <time>2023-07-23T09:51:24Z</time>
      </trkpt>
      <trkpt lat="48.38641" lon="7.41719">
        <ele>228.7</ele>
        <time>2023-07-23T09:51:25Z</time>
      </trkpt>
      <trkpt lat="48.38643" lon="7.41715">
        <ele>228.8</ele>
        <time>2023-07-23T09:51:26Z</time>
      </trkpt>
      <trkpt lat="48.38645" lon="7.41712">
        <ele>228.9</ele>
        <time>2023-07-23T09:51:27Z</time>
      </trkpt>
      <trkpt lat="48.38647" lon="7.41708">
        <ele>228.9</ele>
        <time>2023-07-23T09:51:28Z</time>
      </trkpt>
      <trkpt lat="48.38649" lon="7.41703">
        <ele>229</ele>
        <time>2023-07-23T09:51:29Z</time>
      </trkpt>
      <trkpt lat="48.38651" lon="7.417">
        <ele>229.1</ele>
        <time>2023-07-23T09:51:30Z</time>
      </trkpt>
      <trkpt lat="48.38653" lon="7.41696">
        <ele>229.1</ele>
        <time>2023-07-23T09:51:31Z</time>
      </trkpt>
      <trkpt lat="48.38656" lon="7.41693">
        <ele>229.2</ele>
        <time>2023-07-23T09:51:32Z</time>
      </trkpt>
      <trkpt lat="48.38658" lon="7.41689">
        <ele>229.3</ele>
        <time>2023-07-23T09:51:33Z</time>
      </trkpt>
      <trkpt lat="48.38661" lon="7.41686">
        <ele>229.4</ele>
        <time>2023-07-23T09:51:34Z</time>
      </trkpt>
      <trkpt lat="48.38665" lon="7.41685">
        <ele>229.4</ele>
        <time>2023-07-23T09:51:35Z</time>
      </trkpt>
      <trkpt lat="48.3867" lon="7.41685">
        <ele>229.5</ele>
        <time>2023-07-23T09:51:36Z</time>
      </trkpt>
      <trkpt lat="48.38675" lon="7.41686">
        <ele>229.5</ele>
        <time>2023-07-23T09:51:37Z</time>
      </trkpt>
      <trkpt lat="48.3868" lon="7.41687">
        <ele>229.6</ele>
        <time>2023-07-23T09:51:38Z</time>
      </trkpt>
      <trkpt lat="48.38686" lon="7.41688">
        <ele>229.6</ele>
        <time>2023-07-23T09:51:39Z</time>
      </trkpt>
      <trkpt lat="48.38691" lon="7.41689">
        <ele>229.7</ele>
        <time>2023-07-23T09:51:40Z</time>
      </trkpt>
      <trkpt lat="48.38696" lon="7.4169">
        <ele>229.8</ele>
        <time>2023-07-23T09:51:41Z</time>
      </trkpt>
      <trkpt lat="48.38702" lon="7.41691">
        <ele>229.9</ele>
        <time>2023-07-23T09:51:42Z</time>
      </trkpt>
      <trkpt lat="48.38708" lon="7.41692">
        <ele>230</ele>
        <time>2023-07-23T09:51:43Z</time>
      </trkpt>
      <trkpt lat="48.38714" lon="7.41693">
        <ele>230.1</ele>
        <time>2023-07-23T09:51:44Z</time>
      </trkpt>
      <trkpt lat="48.3872" lon="7.41691">
        <ele>230.2</ele>
        <time>2023-07-23T09:51:45Z</time>
      </trkpt>
      <trkpt lat="48.38725" lon="7.41688">
        <ele>230.3</ele>
        <time>2023-07-23T09:51:46Z</time>
      </trkpt>
      <trkpt lat="48.38729" lon="7.41682">
        <ele>230.4</ele>
        <time>2023-07-23T09:51:47Z</time>
      </trkpt>
      <trkpt lat="48.38732" lon="7.41676">
        <ele>230.4</ele>
        <time>2023-07-23T09:51:48Z</time>
      </trkpt>
      <trkpt lat="48.38734" lon="7.41669">
        <ele>230.5</ele>
        <time>2023-07-23T09:51:49Z</time>
      </trkpt>
      <trkpt lat="48.38738" lon="7.41663">
        <ele>230.6</ele>
        <time>2023-07-23T09:51:50Z</time>
      </trkpt>
      <trkpt lat="48.38742" lon="7.41658">
        <ele>230.7</ele>
        <time>2023-07-23T09:51:51Z</time>
      </trkpt>
      <trkpt lat="48.38745" lon="7.41653">
        <ele>230.8</ele>
        <time>2023-07-23T09:51:52Z</time>
      </trkpt>
      <trkpt lat="48.38749" lon="7.41648">
        <ele>230.8</ele>
        <time>2023-07-23T09:51:53Z</time>
      </trkpt>
      <trkpt lat="48.38754" lon="7.41643">
        <ele>230.9</ele>
        <time>2023-07-23T09:51:54Z</time>
      </trkpt>
      <trkpt lat="48.38758" lon="7.4164">
        <ele>231</ele>
        <time>2023-07-23T09:51:55Z</time>
      </trkpt>
      <trkpt lat="48.38762" lon="7.41638">
        <ele>231.1</ele>
        <time>2023-07-23T09:51:56Z</time>
      </trkpt>
      <trkpt lat="48.38766" lon="7.41628">
        <ele>231.2</ele>
        <time>2023-07-23T09:51:57Z</time>
      </trkpt>
      <trkpt lat="48.3877" lon="7.41623">
        <ele>231.3</ele>
        <time>2023-07-23T09:51:58Z</time>
      </trkpt>
      <trkpt lat="48.38774" lon="7.41618">
        <ele>231.4</ele>
        <time>2023-07-23T09:51:59Z</time>
      </trkpt>
      <trkpt lat="48.38778" lon="7.41611">
        <ele>231.5</ele>
        <time>2023-07-23T09:52:00Z</time>
      </trkpt>
      <trkpt lat="48.38781" lon="7.41606">
        <ele>231.5</ele>
        <time>2023-07-23T09:52:01Z</time>
      </trkpt>
      <trkpt lat="48.38786" lon="7.41601">
        <ele>231.6</ele>
        <time>2023-07-23T09:52:02Z</time>
      </trkpt>
      <trkpt lat="48.3879" lon="7.41596">
        <ele>231.7</ele>
        <time>2023-07-23T09:52:03Z</time>
      </trkpt>
      <trkpt lat="48.38794" lon="7.41592">
        <ele>231.7</ele>
        <time>2023-07-23T09:52:04Z</time>
      </trkpt>
      <trkpt lat="48.38797" lon="7.41586">
        <ele>231.8</ele>
        <time>2023-07-23T09:52:05Z</time>
      </trkpt>
      <trkpt lat="48.38801" lon="7.41581">
        <ele>231.9</ele>
        <time>2023-07-23T09:52:06Z</time>
      </trkpt>
      <trkpt lat="48.38805" lon="7.41576">
        <ele>232</ele>
        <time>2023-07-23T09:52:07Z</time>
      </trkpt>
      <trkpt lat="48.38809" lon="7.41571">
        <ele>232.1</ele>
        <time>2023-07-23T09:52:08Z</time>
      </trkpt>
      <trkpt lat="48.38813" lon="7.41568">
        <ele>232.2</ele>
        <time>2023-07-23T09:52:09Z</time>
      </trkpt>
      <trkpt lat="48.38817" lon="7.41563">
        <ele>232.3</ele>
        <time>2023-07-23T09:52:10Z</time>
      </trkpt>
      <trkpt lat="48.38821" lon="7.41559">
        <ele>232.5</ele>
        <time>2023-07-23T09:52:11Z</time>
      </trkpt>
      <trkpt lat="48.38824" lon="7.41555">
        <ele>232.6</ele>
        <time>2023-07-23T09:52:12Z</time>
      </trkpt>
      <trkpt lat="48.38827" lon="7.41551">
        <ele>232.7</ele>
        <time>2023-07-23T09:52:13Z</time>
      </trkpt>
      <trkpt lat="48.3883" lon="7.41547">
        <ele>232.8</ele>
        <time>2023-07-23T09:52:14Z</time>
      </trkpt>
      <trkpt lat="48.38833" lon="7.41543">
        <ele>232.9</ele>
        <time>2023-07-23T09:52:15Z</time>
      </trkpt>
      <trkpt lat="48.38836" lon="7.4154">
        <ele>232.9</ele>
        <time>2023-07-23T09:52:16Z</time>
      </trkpt>
      <trkpt lat="48.3884" lon="7.41539">
        <ele>232.9</ele>
        <time>2023-07-23T09:52:17Z</time>
      </trkpt>
      <trkpt lat="48.38844" lon="7.41542">
        <ele>233</ele>
        <time>2023-07-23T09:52:18Z</time>
      </trkpt>
      <trkpt lat="48.38846" lon="7.41544">
        <ele>233</ele>
        <time>2023-07-23T09:52:19Z</time>
      </trkpt>
      <trkpt lat="48.38849" lon="7.41545">
        <ele>233</ele>
        <time>2023-07-23T09:52:20Z</time>
      </trkpt>
      <trkpt lat="48.38853" lon="7.41546">
        <ele>233.1</ele>
        <time>2023-07-23T09:52:21Z</time>
      </trkpt>
      <trkpt lat="48.38858" lon="7.41544">
        <ele>233.1</ele>
        <time>2023-07-23T09:52:22Z</time>
      </trkpt>
      <trkpt lat="48.38862" lon="7.41542">
        <ele>233.1</ele>
        <time>2023-07-23T09:52:23Z</time>
      </trkpt>
      <trkpt lat="48.38868" lon="7.41541">
        <ele>233.2</ele>
        <time>2023-07-23T09:52:24Z</time>
      </trkpt>
      <trkpt lat="48.38872" lon="7.41538">
        <ele>233.2</ele>
        <time>2023-07-23T09:52:25Z</time>
      </trkpt>
      <trkpt lat="48.38877" lon="7.41533">
        <ele>233.2</ele>
        <time>2023-07-23T09:52:26Z</time>
      </trkpt>
      <trkpt lat="48.38882" lon="7.4153">
        <ele>233.3</ele>
        <time>2023-07-23T09:52:27Z</time>
      </trkpt>
      <trkpt lat="48.38886" lon="7.41525">
        <ele>233.3</ele>
        <time>2023-07-23T09:52:28Z</time>
      </trkpt>
      <trkpt lat="48.38889" lon="7.41522">
        <ele>233.3</ele>
        <time>2023-07-23T09:52:29Z</time>
      </trkpt>
      <trkpt lat="48.38892" lon="7.41517">
        <ele>233.4</ele>
        <time>2023-07-23T09:52:30Z</time>
      </trkpt>
      <trkpt lat="48.38895" lon="7.41512">
        <ele>233.5</ele>
        <time>2023-07-23T09:52:31Z</time>
      </trkpt>
      <trkpt lat="48.38898" lon="7.41508">
        <ele>233.5</ele>
        <time>2023-07-23T09:52:32Z</time>
      </trkpt>
      <trkpt lat="48.38902" lon="7.41505">
        <ele>233.6</ele>
        <time>2023-07-23T09:52:33Z</time>
      </trkpt>
      <trkpt lat="48.38905" lon="7.41501">
        <ele>233.6</ele>
        <time>2023-07-23T09:52:34Z</time>
      </trkpt>
      <trkpt lat="48.38908" lon="7.41496">
        <ele>233.7</ele>
        <time>2023-07-23T09:52:35Z</time>
      </trkpt>
      <trkpt lat="48.38911" lon="7.41488">
        <ele>233.7</ele>
        <time>2023-07-23T09:52:36Z</time>
      </trkpt>
      <trkpt lat="48.38912" lon="7.41482">
        <ele>233.8</ele>
        <time>2023-07-23T09:52:37Z</time>
      </trkpt>
      <trkpt lat="48.38913" lon="7.41476">
        <ele>233.8</ele>
        <time>2023-07-23T09:52:38Z</time>
      </trkpt>
      <trkpt lat="48.38913" lon="7.41469">
        <ele>233.8</ele>
        <time>2023-07-23T09:52:39Z</time>
      </trkpt>
      <trkpt lat="48.38913" lon="7.41462">
        <ele>233.8</ele>
        <time>2023-07-23T09:52:40Z</time>
      </trkpt>
      <trkpt lat="48.38914" lon="7.41452">
        <ele>233.8</ele>
        <time>2023-07-23T09:52:41Z</time>
      </trkpt>
      <trkpt lat="48.38915" lon="7.41445">
        <ele>233.8</ele>
        <time>2023-07-23T09:52:42Z</time>
      </trkpt>
      <trkpt lat="48.38917" lon="7.41437">
        <ele>233.8</ele>
        <time>2023-07-23T09:52:43Z</time>
      </trkpt>
      <trkpt lat="48.38919" lon="7.41431">
        <ele>233.8</ele>
        <time>2023-07-23T09:52:44Z</time>
      </trkpt>
      <trkpt lat="48.38921" lon="7.41425">
        <ele>233.9</ele>
        <time>2023-07-23T09:52:45Z</time>
      </trkpt>
      <trkpt lat="48.38923" lon="7.41419">
        <ele>233.9</ele>
        <time>2023-07-23T09:52:46Z</time>
      </trkpt>
      <trkpt lat="48.38925" lon="7.41413">
        <ele>233.9</ele>
        <time>2023-07-23T09:52:47Z</time>
      </trkpt>
      <trkpt lat="48.38928" lon="7.41407">
        <ele>234</ele>
        <time>2023-07-23T09:52:48Z</time>
      </trkpt>
      <trkpt lat="48.3893" lon="7.41402">
        <ele>234</ele>
        <time>2023-07-23T09:52:49Z</time>
      </trkpt>
      <trkpt lat="48.38934" lon="7.41396">
        <ele>234.1</ele>
        <time>2023-07-23T09:52:50Z</time>
      </trkpt>
      <trkpt lat="48.38936" lon="7.4139">
        <ele>234.1</ele>
        <time>2023-07-23T09:52:51Z</time>
      </trkpt>
      <trkpt lat="48.38939" lon="7.41383">
        <ele>234.2</ele>
        <time>2023-07-23T09:52:52Z</time>
      </trkpt>
      <trkpt lat="48.38941" lon="7.41377">
        <ele>234.2</ele>
        <time>2023-07-23T09:52:53Z</time>
      </trkpt>
      <trkpt lat="48.38944" lon="7.41371">
        <ele>234.3</ele>
        <time>2023-07-23T09:52:54Z</time>
      </trkpt>
      <trkpt lat="48.38948" lon="7.41366">
        <ele>234.4</ele>
        <time>2023-07-23T09:52:55Z</time>
      </trkpt>
      <trkpt lat="48.38951" lon="7.4136">
        <ele>234.5</ele>
        <time>2023-07-23T09:52:56Z</time>
      </trkpt>
      <trkpt lat="48.38955" lon="7.41355">
        <ele>234.6</ele>
        <time>2023-07-23T09:52:57Z</time>
      </trkpt>
      <trkpt lat="48.38959" lon="7.4135">
        <ele>234.7</ele>
        <time>2023-07-23T09:52:58Z</time>
      </trkpt>
      <trkpt lat="48.38962" lon="7.41344">
        <ele>234.9</ele>
        <time>2023-07-23T09:52:59Z</time>
      </trkpt>
      <trkpt lat="48.38966" lon="7.41339">
        <ele>235.1</ele>
        <time>2023-07-23T09:53:00Z</time>
      </trkpt>
      <trkpt lat="48.3897" lon="7.41333">
        <ele>235.2</ele>
        <time>2023-07-23T09:53:01Z</time>
      </trkpt>
      <trkpt lat="48.38973" lon="7.41329">
        <ele>235.4</ele>
        <time>2023-07-23T09:53:02Z</time>
      </trkpt>
      <trkpt lat="48.38976" lon="7.41325">
        <ele>235.5</ele>
        <time>2023-07-23T09:53:03Z</time>
      </trkpt>
      <trkpt lat="48.3898" lon="7.41323">
        <ele>235.7</ele>
        <time>2023-07-23T09:53:04Z</time>
      </trkpt>
      <trkpt lat="48.38984" lon="7.4132">
        <ele>235.8</ele>
        <time>2023-07-23T09:53:05Z</time>
      </trkpt>
      <trkpt lat="48.38987" lon="7.41318">
        <ele>235.9</ele>
        <time>2023-07-23T09:53:06Z</time>
      </trkpt>
      <trkpt lat="48.3899" lon="7.41315">
        <ele>236.1</ele>
        <time>2023-07-23T09:53:07Z</time>
      </trkpt>
      <trkpt lat="48.38994" lon="7.41312">
        <ele>236.2</ele>
        <time>2023-07-23T09:53:08Z</time>
      </trkpt>
      <trkpt lat="48.38997" lon="7.4131">
        <ele>236.3</ele>
        <time>2023-07-23T09:53:09Z</time>
      </trkpt>
      <trkpt lat="48.39001" lon="7.41307">
        <ele>236.5</ele>
        <time>2023-07-23T09:53:10Z</time>
      </trkpt>
      <trkpt lat="48.39005" lon="7.41306">
        <ele>236.7</ele>
        <time>2023-07-23T09:53:11Z</time>
      </trkpt>
      <trkpt lat="48.39009" lon="7.41303">
        <ele>236.8</ele>
        <time>2023-07-23T09:53:12Z</time>
      </trkpt>
      <trkpt lat="48.39012" lon="7.41301">
        <ele>237</ele>
        <time>2023-07-23T09:53:13Z</time>
      </trkpt>
      <trkpt lat="48.39016" lon="7.41298">
        <ele>237.1</ele>
        <time>2023-07-23T09:53:14Z</time>
      </trkpt>
      <trkpt lat="48.39019" lon="7.41296">
        <ele>237.3</ele>
        <time>2023-07-23T09:53:15Z</time>
      </trkpt>
      <trkpt lat="48.39022" lon="7.41292">
        <ele>237.5</ele>
        <time>2023-07-23T09:53:16Z</time>
      </trkpt>
      <trkpt lat="48.39026" lon="7.41291">
        <ele>237.7</ele>
        <time>2023-07-23T09:53:17Z</time>
      </trkpt>
      <trkpt lat="48.39028" lon="7.41287">
        <ele>237.8</ele>
        <time>2023-07-23T09:53:18Z</time>
      </trkpt>
      <trkpt lat="48.3903" lon="7.41283">
        <ele>238</ele>
        <time>2023-07-23T09:53:19Z</time>
      </trkpt>
      <trkpt lat="48.39033" lon="7.4128">
        <ele>238.1</ele>
        <time>2023-07-23T09:53:20Z</time>
      </trkpt>
      <trkpt lat="48.39036" lon="7.41278">
        <ele>238.3</ele>
        <time>2023-07-23T09:53:21Z</time>
      </trkpt>
      <trkpt lat="48.39038" lon="7.41274">
        <ele>238.4</ele>
        <time>2023-07-23T09:53:22Z</time>
      </trkpt>
      <trkpt lat="48.39041" lon="7.41271">
        <ele>238.6</ele>
        <time>2023-07-23T09:53:23Z</time>
      </trkpt>
      <trkpt lat="48.39043" lon="7.41268">
        <ele>238.7</ele>
        <time>2023-07-23T09:53:24Z</time>
      </trkpt>
      <trkpt lat="48.39045" lon="7.41266">
        <ele>238.8</ele>
        <time>2023-07-23T09:53:25Z</time>
      </trkpt>
      <trkpt lat="48.39048" lon="7.41263">
        <ele>239</ele>
        <time>2023-07-23T09:53:26Z</time>
      </trkpt>
      <trkpt lat="48.3905" lon="7.41261">
        <ele>239.1</ele>
        <time>2023-07-23T09:53:27Z</time>
      </trkpt>
      <trkpt lat="48.39052" lon="7.41258">
        <ele>239.2</ele>
        <time>2023-07-23T09:53:28Z</time>
      </trkpt>
      <trkpt lat="48.39054" lon="7.41255">
        <ele>239.4</ele>
        <time>2023-07-23T09:53:29Z</time>
      </trkpt>
      <trkpt lat="48.39057" lon="7.41252">
        <ele>239.5</ele>
        <time>2023-07-23T09:53:30Z</time>
      </trkpt>
      <trkpt lat="48.3906" lon="7.41249">
        <ele>239.7</ele>
        <time>2023-07-23T09:53:31Z</time>
      </trkpt>
      <trkpt lat="48.39062" lon="7.41246">
        <ele>239.9</ele>
        <time>2023-07-23T09:53:32Z</time>
      </trkpt>
      <trkpt lat="48.39065" lon="7.41243">
        <ele>240</ele>
        <time>2023-07-23T09:53:33Z</time>
      </trkpt>
      <trkpt lat="48.39068" lon="7.4124">
        <ele>240.2</ele>
        <time>2023-07-23T09:53:34Z</time>
      </trkpt>
      <trkpt lat="48.3907" lon="7.41236">
        <ele>240.4</ele>
        <time>2023-07-23T09:53:35Z</time>
      </trkpt>
      <trkpt lat="48.39073" lon="7.41234">
        <ele>240.6</ele>
        <time>2023-07-23T09:53:36Z</time>
      </trkpt>
      <trkpt lat="48.39075" lon="7.41231">
        <ele>240.8</ele>
        <time>2023-07-23T09:53:37Z</time>
      </trkpt>
      <trkpt lat="48.39078" lon="7.41229">
        <ele>240.9</ele>
        <time>2023-07-23T09:53:38Z</time>
      </trkpt>
      <trkpt lat="48.39081" lon="7.41227">
        <ele>241.1</ele>
        <time>2023-07-23T09:53:39Z</time>
      </trkpt>
      <trkpt lat="48.39084" lon="7.41224">
        <ele>241.3</ele>
        <time>2023-07-23T09:53:40Z</time>
      </trkpt>
      <trkpt lat="48.39087" lon="7.41222">
        <ele>241.5</ele>
        <time>2023-07-23T09:53:41Z</time>
      </trkpt>
      <trkpt lat="48.39089" lon="7.41219">
        <ele>241.7</ele>
        <time>2023-07-23T09:53:42Z</time>
      </trkpt>
      <trkpt lat="48.39091" lon="7.41215">
        <ele>241.8</ele>
        <time>2023-07-23T09:53:43Z</time>
      </trkpt>
      <trkpt lat="48.39093" lon="7.41213">
        <ele>242</ele>
        <time>2023-07-23T09:53:44Z</time>
      </trkpt>
      <trkpt lat="48.39097" lon="7.41211">
        <ele>242.2</ele>
        <time>2023-07-23T09:53:45Z</time>
      </trkpt>
      <trkpt lat="48.39099" lon="7.41208">
        <ele>242.3</ele>
        <time>2023-07-23T09:53:46Z</time>
      </trkpt>
      <trkpt lat="48.39102" lon="7.41204">
        <ele>242.6</ele>
        <time>2023-07-23T09:53:47Z</time>
      </trkpt>
      <trkpt lat="48.39103" lon="7.41203">
        <ele>242.6</ele>
        <time>2023-07-23T09:53:48Z</time>
      </trkpt>
      <trkpt lat="48.39105" lon="7.41199">
        <ele>242.8</ele>
        <time>2023-07-23T09:53:49Z</time>
      </trkpt>
      <trkpt lat="48.39107" lon="7.41196">
        <ele>242.9</ele>
        <time>2023-07-23T09:53:50Z</time>
      </trkpt>
      <trkpt lat="48.3911" lon="7.41193">
        <ele>243.1</ele>
        <time>2023-07-23T09:53:51Z</time>
      </trkpt>
      <trkpt lat="48.39112" lon="7.41191">
        <ele>243.3</ele>
        <time>2023-07-23T09:53:52Z</time>
      </trkpt>
      <trkpt lat="48.39115" lon="7.41189">
        <ele>243.4</ele>
        <time>2023-07-23T09:53:53Z</time>
      </trkpt>
      <trkpt lat="48.39117" lon="7.41185">
        <ele>243.6</ele>
        <time>2023-07-23T09:53:54Z</time>
      </trkpt>
      <trkpt lat="48.39118" lon="7.41183">
        <ele>243.7</ele>
        <time>2023-07-23T09:53:55Z</time>
      </trkpt>
      <trkpt lat="48.39121" lon="7.41181">
        <ele>243.9</ele>
        <time>2023-07-23T09:53:56Z</time>
      </trkpt>
      <trkpt lat="48.39123" lon="7.41178">
        <ele>244</ele>
        <time>2023-07-23T09:53:57Z</time>
      </trkpt>
      <trkpt lat="48.39126" lon="7.41175">
        <ele>244.2</ele>
        <time>2023-07-23T09:53:58Z</time>
      </trkpt>
      <trkpt lat="48.39129" lon="7.41172">
        <ele>244.4</ele>
        <time>2023-07-23T09:53:59Z</time>
      </trkpt>
      <trkpt lat="48.39131" lon="7.41168">
        <ele>244.5</ele>
        <time>2023-07-23T09:54:00Z</time>
      </trkpt>
      <trkpt lat="48.39134" lon="7.41165">
        <ele>244.7</ele>
        <time>2023-07-23T09:54:01Z</time>
      </trkpt>
      <trkpt lat="48.39136" lon="7.41163">
        <ele>244.9</ele>
        <time>2023-07-23T09:54:02Z</time>
      </trkpt>
      <trkpt lat="48.39139" lon="7.41159">
        <ele>245</ele>
        <time>2023-07-23T09:54:03Z</time>
      </trkpt>
      <trkpt lat="48.39142" lon="7.41156">
        <ele>245.2</ele>
        <time>2023-07-23T09:54:04Z</time>
      </trkpt>
      <trkpt lat="48.39145" lon="7.41153">
        <ele>245.4</ele>
        <time>2023-07-23T09:54:05Z</time>
      </trkpt>
      <trkpt lat="48.39147" lon="7.41152">
        <ele>245.5</ele>
        <time>2023-07-23T09:54:06Z</time>
      </trkpt>
      <trkpt lat="48.3915" lon="7.4115">
        <ele>245.7</ele>
        <time>2023-07-23T09:54:07Z</time>
      </trkpt>
      <trkpt lat="48.39153" lon="7.41147">
        <ele>245.8</ele>
        <time>2023-07-23T09:54:08Z</time>
      </trkpt>
      <trkpt lat="48.39155" lon="7.41145">
        <ele>246</ele>
        <time>2023-07-23T09:54:09Z</time>
      </trkpt>
      <trkpt lat="48.39158" lon="7.41142">
        <ele>246.1</ele>
        <time>2023-07-23T09:54:10Z</time>
      </trkpt>
      <trkpt lat="48.39161" lon="7.41139">
        <ele>246.3</ele>
        <time>2023-07-23T09:54:11Z</time>
      </trkpt>
      <trkpt lat="48.39163" lon="7.41136">
        <ele>246.4</ele>
        <time>2023-07-23T09:54:12Z</time>
      </trkpt>
      <trkpt lat="48.39166" lon="7.41134">
        <ele>246.6</ele>
        <time>2023-07-23T09:54:13Z</time>
      </trkpt>
      <trkpt lat="48.39168" lon="7.41131">
        <ele>246.7</ele>
        <time>2023-07-23T09:54:14Z</time>
      </trkpt>
      <trkpt lat="48.39171" lon="7.41128">
        <ele>246.8</ele>
        <time>2023-07-23T09:54:15Z</time>
      </trkpt>
      <trkpt lat="48.39174" lon="7.41125">
        <ele>247</ele>
        <time>2023-07-23T09:54:16Z</time>
      </trkpt>
      <trkpt lat="48.39176" lon="7.41122">
        <ele>247.1</ele>
        <time>2023-07-23T09:54:17Z</time>
      </trkpt>
      <trkpt lat="48.39179" lon="7.41118">
        <ele>247.3</ele>
        <time>2023-07-23T09:54:18Z</time>
      </trkpt>
      <trkpt lat="48.39181" lon="7.41114">
        <ele>247.4</ele>
        <time>2023-07-23T09:54:19Z</time>
      </trkpt>
      <trkpt lat="48.39182" lon="7.41112">
        <ele>247.5</ele>
        <time>2023-07-23T09:54:20Z</time>
      </trkpt>
      <trkpt lat="48.39185" lon="7.41109">
        <ele>247.6</ele>
        <time>2023-07-23T09:54:21Z</time>
      </trkpt>
      <trkpt lat="48.39188" lon="7.41106">
        <ele>247.8</ele>
        <time>2023-07-23T09:54:22Z</time>
      </trkpt>
      <trkpt lat="48.3919" lon="7.41104">
        <ele>247.9</ele>
        <time>2023-07-23T09:54:23Z</time>
      </trkpt>
      <trkpt lat="48.39193" lon="7.41101">
        <ele>248</ele>
        <time>2023-07-23T09:54:24Z</time>
      </trkpt>
      <trkpt lat="48.39196" lon="7.41098">
        <ele>248.2</ele>
        <time>2023-07-23T09:54:25Z</time>
      </trkpt>
      <trkpt lat="48.39198" lon="7.41095">
        <ele>248.3</ele>
        <time>2023-07-23T09:54:26Z</time>
      </trkpt>
      <trkpt lat="48.392" lon="7.41091">
        <ele>248.4</ele>
        <time>2023-07-23T09:54:27Z</time>
      </trkpt>
      <trkpt lat="48.39202" lon="7.41088">
        <ele>248.5</ele>
        <time>2023-07-23T09:54:28Z</time>
      </trkpt>
      <trkpt lat="48.39204" lon="7.41085">
        <ele>248.6</ele>
        <time>2023-07-23T09:54:29Z</time>
      </trkpt>
      <trkpt lat="48.39206" lon="7.41081">
        <ele>248.7</ele>
        <time>2023-07-23T09:54:30Z</time>
      </trkpt>
      <trkpt lat="48.39209" lon="7.41079">
        <ele>248.9</ele>
        <time>2023-07-23T09:54:31Z</time>
      </trkpt>
      <trkpt lat="48.39211" lon="7.41076">
        <ele>249</ele>
        <time>2023-07-23T09:54:32Z</time>
      </trkpt>
      <trkpt lat="48.39214" lon="7.41073">
        <ele>249.1</ele>
        <time>2023-07-23T09:54:33Z</time>
      </trkpt>
      <trkpt lat="48.39216" lon="7.4107">
        <ele>249.2</ele>
        <time>2023-07-23T09:54:34Z</time>
      </trkpt>
      <trkpt lat="48.39218" lon="7.41067">
        <ele>249.3</ele>
        <time>2023-07-23T09:54:35Z</time>
      </trkpt>
      <trkpt lat="48.39221" lon="7.41064">
        <ele>249.4</ele>
        <time>2023-07-23T09:54:36Z</time>
      </trkpt>
      <trkpt lat="48.39223" lon="7.4106">
        <ele>249.5</ele>
        <time>2023-07-23T09:54:37Z</time>
      </trkpt>
      <trkpt lat="48.39225" lon="7.41056">
        <ele>249.7</ele>
        <time>2023-07-23T09:54:38Z</time>
      </trkpt>
      <trkpt lat="48.39227" lon="7.41052">
        <ele>249.8</ele>
        <time>2023-07-23T09:54:39Z</time>
      </trkpt>
      <trkpt lat="48.39229" lon="7.41047">
        <ele>249.9</ele>
        <time>2023-07-23T09:54:40Z</time>
      </trkpt>
      <trkpt lat="48.3923" lon="7.41042">
        <ele>250</ele>
        <time>2023-07-23T09:54:41Z</time>
      </trkpt>
      <trkpt lat="48.39231" lon="7.41038">
        <ele>250.1</ele>
        <time>2023-07-23T09:54:42Z</time>
      </trkpt>
      <trkpt lat="48.39231" lon="7.41034">
        <ele>250.2</ele>
        <time>2023-07-23T09:54:43Z</time>
      </trkpt>
      <trkpt lat="48.39232" lon="7.41029">
        <ele>250.3</ele>
        <time>2023-07-23T09:54:44Z</time>
      </trkpt>
      <trkpt lat="48.39232" lon="7.41025">
        <ele>250.3</ele>
        <time>2023-07-23T09:54:45Z</time>
      </trkpt>
      <trkpt lat="48.39233" lon="7.4102">
        <ele>250.4</ele>
        <time>2023-07-23T09:54:46Z</time>
      </trkpt>
      <trkpt lat="48.39234" lon="7.41016">
        <ele>250.5</ele>
        <time>2023-07-23T09:54:47Z</time>
      </trkpt>
      <trkpt lat="48.39235" lon="7.41011">
        <ele>250.6</ele>
        <time>2023-07-23T09:54:48Z</time>
      </trkpt>
      <trkpt lat="48.39236" lon="7.41006">
        <ele>250.6</ele>
        <time>2023-07-23T09:54:49Z</time>
      </trkpt>
      <trkpt lat="48.39236" lon="7.41001">
        <ele>250.7</ele>
        <time>2023-07-23T09:54:50Z</time>
      </trkpt>
      <trkpt lat="48.39237" lon="7.40997">
        <ele>250.8</ele>
        <time>2023-07-23T09:54:51Z</time>
      </trkpt>
      <trkpt lat="48.39238" lon="7.40992">
        <ele>250.9</ele>
        <time>2023-07-23T09:54:52Z</time>
      </trkpt>
      <trkpt lat="48.39239" lon="7.40988">
        <ele>251</ele>
        <time>2023-07-23T09:54:53Z</time>
      </trkpt>
      <trkpt lat="48.3924" lon="7.40983">
        <ele>251.2</ele>
        <time>2023-07-23T09:54:54Z</time>
      </trkpt>
      <trkpt lat="48.3924" lon="7.40979">
        <ele>251.3</ele>
        <time>2023-07-23T09:54:55Z</time>
      </trkpt>
      <trkpt lat="48.39241" lon="7.40974">
        <ele>251.4</ele>
        <time>2023-07-23T09:54:56Z</time>
      </trkpt>
      <trkpt lat="48.39242" lon="7.40969">
        <ele>251.5</ele>
        <time>2023-07-23T09:54:57Z</time>
      </trkpt>
      <trkpt lat="48.39243" lon="7.40965">
        <ele>251.6</ele>
        <time>2023-07-23T09:54:58Z</time>
      </trkpt>
      <trkpt lat="48.39244" lon="7.40961">
        <ele>251.7</ele>
        <time>2023-07-23T09:54:59Z</time>
      </trkpt>
      <trkpt lat="48.39245" lon="7.40956">
        <ele>251.8</ele>
        <time>2023-07-23T09:55:00Z</time>
      </trkpt>
      <trkpt lat="48.39245" lon="7.40952">
        <ele>251.9</ele>
        <time>2023-07-23T09:55:01Z</time>
      </trkpt>
      <trkpt lat="48.39246" lon="7.40947">
        <ele>252</ele>
        <time>2023-07-23T09:55:02Z</time>
      </trkpt>
      <trkpt lat="48.39247" lon="7.40942">
        <ele>252.1</ele>
        <time>2023-07-23T09:55:03Z</time>
      </trkpt>
      <trkpt lat="48.39248" lon="7.40938">
        <ele>252.2</ele>
        <time>2023-07-23T09:55:04Z</time>
      </trkpt>
      <trkpt lat="48.39249" lon="7.40934">
        <ele>252.3</ele>
        <time>2023-07-23T09:55:05Z</time>
      </trkpt>
      <trkpt lat="48.3925" lon="7.40929">
        <ele>252.4</ele>
        <time>2023-07-23T09:55:06Z</time>
      </trkpt>
      <trkpt lat="48.39251" lon="7.40925">
        <ele>252.5</ele>
        <time>2023-07-23T09:55:07Z</time>
      </trkpt>
      <trkpt lat="48.39252" lon="7.4092">
        <ele>252.6</ele>
        <time>2023-07-23T09:55:08Z</time>
      </trkpt>
      <trkpt lat="48.39253" lon="7.40914">
        <ele>252.7</ele>
        <time>2023-07-23T09:55:09Z</time>
      </trkpt>
      <trkpt lat="48.39254" lon="7.40909">
        <ele>252.7</ele>
        <time>2023-07-23T09:55:10Z</time>
      </trkpt>
      <trkpt lat="48.39255" lon="7.40904">
        <ele>252.8</ele>
        <time>2023-07-23T09:55:11Z</time>
      </trkpt>
      <trkpt lat="48.39256" lon="7.40899">
        <ele>252.9</ele>
        <time>2023-07-23T09:55:12Z</time>
      </trkpt>
      <trkpt lat="48.39257" lon="7.40893">
        <ele>253</ele>
        <time>2023-07-23T09:55:13Z</time>
      </trkpt>
      <trkpt lat="48.39258" lon="7.40887">
        <ele>253</ele>
        <time>2023-07-23T09:55:14Z</time>
      </trkpt>
      <trkpt lat="48.3926" lon="7.40882">
        <ele>253</ele>
        <time>2023-07-23T09:55:15Z</time>
      </trkpt>
      <trkpt lat="48.39261" lon="7.40876">
        <ele>253.1</ele>
        <time>2023-07-23T09:55:16Z</time>
      </trkpt>
      <trkpt lat="48.39263" lon="7.4087">
        <ele>253.1</ele>
        <time>2023-07-23T09:55:17Z</time>
      </trkpt>
      <trkpt lat="48.39265" lon="7.40865">
        <ele>253.1</ele>
        <time>2023-07-23T09:55:18Z</time>
      </trkpt>
      <trkpt lat="48.39268" lon="7.4086">
        <ele>253.2</ele>
        <time>2023-07-23T09:55:19Z</time>
      </trkpt>
      <trkpt lat="48.39271" lon="7.40856">
        <ele>253.3</ele>
        <time>2023-07-23T09:55:20Z</time>
      </trkpt>
      <trkpt lat="48.39274" lon="7.40852">
        <ele>253.3</ele>
        <time>2023-07-23T09:55:21Z</time>
      </trkpt>
      <trkpt lat="48.39278" lon="7.40848">
        <ele>253.4</ele>
        <time>2023-07-23T09:55:22Z</time>
      </trkpt>
      <trkpt lat="48.39281" lon="7.40844">
        <ele>253.5</ele>
        <time>2023-07-23T09:55:23Z</time>
      </trkpt>
      <trkpt lat="48.39285" lon="7.40841">
        <ele>253.6</ele>
        <time>2023-07-23T09:55:24Z</time>
      </trkpt>
      <trkpt lat="48.39289" lon="7.40838">
        <ele>253.6</ele>
        <time>2023-07-23T09:55:25Z</time>
      </trkpt>
      <trkpt lat="48.39293" lon="7.40835">
        <ele>253.7</ele>
        <time>2023-07-23T09:55:26Z</time>
      </trkpt>
      <trkpt lat="48.39297" lon="7.40833">
        <ele>253.7</ele>
        <time>2023-07-23T09:55:27Z</time>
      </trkpt>
      <trkpt lat="48.39301" lon="7.40831">
        <ele>253.8</ele>
        <time>2023-07-23T09:55:28Z</time>
      </trkpt>
      <trkpt lat="48.39305" lon="7.40829">
        <ele>253.9</ele>
        <time>2023-07-23T09:55:29Z</time>
      </trkpt>
      <trkpt lat="48.39308" lon="7.40828">
        <ele>253.9</ele>
        <time>2023-07-23T09:55:30Z</time>
      </trkpt>
      <trkpt lat="48.39312" lon="7.40826">
        <ele>254</ele>
        <time>2023-07-23T09:55:31Z</time>
      </trkpt>
      <trkpt lat="48.39316" lon="7.40824">
        <ele>254.1</ele>
        <time>2023-07-23T09:55:32Z</time>
      </trkpt>
      <trkpt lat="48.3932" lon="7.40822">
        <ele>254.2</ele>
        <time>2023-07-23T09:55:33Z</time>
      </trkpt>
      <trkpt lat="48.39324" lon="7.40821">
        <ele>254.3</ele>
        <time>2023-07-23T09:55:34Z</time>
      </trkpt>
      <trkpt lat="48.39328" lon="7.40818">
        <ele>254.4</ele>
        <time>2023-07-23T09:55:35Z</time>
      </trkpt>
      <trkpt lat="48.39332" lon="7.40816">
        <ele>254.5</ele>
        <time>2023-07-23T09:55:36Z</time>
      </trkpt>
      <trkpt lat="48.39336" lon="7.40814">
        <ele>254.6</ele>
        <time>2023-07-23T09:55:37Z</time>
      </trkpt>
      <trkpt lat="48.39339" lon="7.40811">
        <ele>254.7</ele>
        <time>2023-07-23T09:55:38Z</time>
      </trkpt>
      <trkpt lat="48.39343" lon="7.40808">
        <ele>254.7</ele>
        <time>2023-07-23T09:55:39Z</time>
      </trkpt>
      <trkpt lat="48.39346" lon="7.40805">
        <ele>254.8</ele>
        <time>2023-07-23T09:55:40Z</time>
      </trkpt>
      <trkpt lat="48.39349" lon="7.40801">
        <ele>254.9</ele>
        <time>2023-07-23T09:55:41Z</time>
      </trkpt>
      <trkpt lat="48.39352" lon="7.40798">
        <ele>255</ele>
        <time>2023-07-23T09:55:42Z</time>
      </trkpt>
      <trkpt lat="48.39356" lon="7.40794">
        <ele>255.1</ele>
        <time>2023-07-23T09:55:43Z</time>
      </trkpt>
      <trkpt lat="48.39359" lon="7.40789">
        <ele>255.2</ele>
        <time>2023-07-23T09:55:44Z</time>
      </trkpt>
      <trkpt lat="48.39361" lon="7.40785">
        <ele>255.2</ele>
        <time>2023-07-23T09:55:45Z</time>
      </trkpt>
      <trkpt lat="48.39363" lon="7.40779">
        <ele>255.2</ele>
        <time>2023-07-23T09:55:46Z</time>
      </trkpt>
      <trkpt lat="48.39366" lon="7.40774">
        <ele>255.3</ele>
        <time>2023-07-23T09:55:47Z</time>
      </trkpt>
      <trkpt lat="48.39368" lon="7.40769">
        <ele>255.3</ele>
        <time>2023-07-23T09:55:48Z</time>
      </trkpt>
      <trkpt lat="48.3937" lon="7.40763">
        <ele>255.4</ele>
        <time>2023-07-23T09:55:49Z</time>
      </trkpt>
      <trkpt lat="48.39372" lon="7.40757">
        <ele>255.4</ele>
        <time>2023-07-23T09:55:50Z</time>
      </trkpt>
      <trkpt lat="48.39374" lon="7.40751">
        <ele>255.4</ele>
        <time>2023-07-23T09:55:51Z</time>
      </trkpt>
      <trkpt lat="48.39376" lon="7.40746">
        <ele>255.5</ele>
        <time>2023-07-23T09:55:52Z</time>
      </trkpt>
      <trkpt lat="48.39378" lon="7.4074">
        <ele>255.5</ele>
        <time>2023-07-23T09:55:53Z</time>
      </trkpt>
      <trkpt lat="48.3938" lon="7.40735">
        <ele>255.5</ele>
        <time>2023-07-23T09:55:54Z</time>
      </trkpt>
      <trkpt lat="48.39383" lon="7.40729">
        <ele>255.5</ele>
        <time>2023-07-23T09:55:55Z</time>
      </trkpt>
      <trkpt lat="48.39385" lon="7.40724">
        <ele>255.6</ele>
        <time>2023-07-23T09:55:56Z</time>
      </trkpt>
      <trkpt lat="48.39388" lon="7.40718">
        <ele>255.7</ele>
        <time>2023-07-23T09:55:57Z</time>
      </trkpt>
      <trkpt lat="48.39391" lon="7.40713">
        <ele>255.8</ele>
        <time>2023-07-23T09:55:58Z</time>
      </trkpt>
      <trkpt lat="48.39394" lon="7.40708">
        <ele>255.9</ele>
        <time>2023-07-23T09:55:59Z</time>
      </trkpt>
      <trkpt lat="48.39396" lon="7.40704">
        <ele>256</ele>
        <time>2023-07-23T09:56:00Z</time>
      </trkpt>
      <trkpt lat="48.39399" lon="7.407">
        <ele>256.1</ele>
        <time>2023-07-23T09:56:01Z</time>
      </trkpt>
      <trkpt lat="48.39402" lon="7.40695">
        <ele>256.2</ele>
        <time>2023-07-23T09:56:02Z</time>
      </trkpt>
      <trkpt lat="48.39405" lon="7.40691">
        <ele>256.3</ele>
        <time>2023-07-23T09:56:03Z</time>
      </trkpt>
      <trkpt lat="48.39407" lon="7.40687">
        <ele>256.4</ele>
        <time>2023-07-23T09:56:04Z</time>
      </trkpt>
      <trkpt lat="48.3941" lon="7.40683">
        <ele>256.5</ele>
        <time>2023-07-23T09:56:05Z</time>
      </trkpt>
      <trkpt lat="48.39412" lon="7.40679">
        <ele>256.6</ele>
        <time>2023-07-23T09:56:06Z</time>
      </trkpt>
      <trkpt lat="48.39415" lon="7.40675">
        <ele>256.7</ele>
        <time>2023-07-23T09:56:07Z</time>
      </trkpt>
      <trkpt lat="48.39417" lon="7.4067">
        <ele>256.8</ele>
        <time>2023-07-23T09:56:08Z</time>
      </trkpt>
      <trkpt lat="48.39419" lon="7.40665">
        <ele>256.9</ele>
        <time>2023-07-23T09:56:09Z</time>
      </trkpt>
      <trkpt lat="48.3942" lon="7.40661">
        <ele>257</ele>
        <time>2023-07-23T09:56:10Z</time>
      </trkpt>
      <trkpt lat="48.39422" lon="7.40656">
        <ele>257.1</ele>
        <time>2023-07-23T09:56:11Z</time>
      </trkpt>
      <trkpt lat="48.39423" lon="7.40652">
        <ele>257.2</ele>
        <time>2023-07-23T09:56:12Z</time>
      </trkpt>
      <trkpt lat="48.39425" lon="7.40646">
        <ele>257.4</ele>
        <time>2023-07-23T09:56:13Z</time>
      </trkpt>
      <trkpt lat="48.39426" lon="7.40641">
        <ele>257.5</ele>
        <time>2023-07-23T09:56:14Z</time>
      </trkpt>
      <trkpt lat="48.39426" lon="7.40636">
        <ele>257.6</ele>
        <time>2023-07-23T09:56:15Z</time>
      </trkpt>
      <trkpt lat="48.39427" lon="7.4063">
        <ele>257.7</ele>
        <time>2023-07-23T09:56:16Z</time>
      </trkpt>
      <trkpt lat="48.39427" lon="7.40625">
        <ele>257.9</ele>
        <time>2023-07-23T09:56:17Z</time>
      </trkpt>
      <trkpt lat="48.39428" lon="7.40619">
        <ele>258</ele>
        <time>2023-07-23T09:56:18Z</time>
      </trkpt>
      <trkpt lat="48.39428" lon="7.40614">
        <ele>258.2</ele>
        <time>2023-07-23T09:56:19Z</time>
      </trkpt>
      <trkpt lat="48.39429" lon="7.40608">
        <ele>258.3</ele>
        <time>2023-07-23T09:56:20Z</time>
      </trkpt>
      <trkpt lat="48.39429" lon="7.40603">
        <ele>258.5</ele>
        <time>2023-07-23T09:56:21Z</time>
      </trkpt>
      <trkpt lat="48.39428" lon="7.40597">
        <ele>258.6</ele>
        <time>2023-07-23T09:56:22Z</time>
      </trkpt>
      <trkpt lat="48.39428" lon="7.40591">
        <ele>258.7</ele>
        <time>2023-07-23T09:56:23Z</time>
      </trkpt>
      <trkpt lat="48.39428" lon="7.40586">
        <ele>258.8</ele>
        <time>2023-07-23T09:56:24Z</time>
      </trkpt>
      <trkpt lat="48.39428" lon="7.4058">
        <ele>258.9</ele>
        <time>2023-07-23T09:56:25Z</time>
      </trkpt>
      <trkpt lat="48.39428" lon="7.40574">
        <ele>259.1</ele>
        <time>2023-07-23T09:56:26Z</time>
      </trkpt>
      <trkpt lat="48.39428" lon="7.40569">
        <ele>259.2</ele>
        <time>2023-07-23T09:56:27Z</time>
      </trkpt>
      <trkpt lat="48.39427" lon="7.40563">
        <ele>259.3</ele>
        <time>2023-07-23T09:56:28Z</time>
      </trkpt>
      <trkpt lat="48.39427" lon="7.40558">
        <ele>259.4</ele>
        <time>2023-07-23T09:56:29Z</time>
      </trkpt>
      <trkpt lat="48.39426" lon="7.40552">
        <ele>259.5</ele>
        <time>2023-07-23T09:56:30Z</time>
      </trkpt>
      <trkpt lat="48.39427" lon="7.40547">
        <ele>259.7</ele>
        <time>2023-07-23T09:56:31Z</time>
      </trkpt>
      <trkpt lat="48.39427" lon="7.40541">
        <ele>259.8</ele>
        <time>2023-07-23T09:56:32Z</time>
      </trkpt>
      <trkpt lat="48.39427" lon="7.40535">
        <ele>259.9</ele>
        <time>2023-07-23T09:56:33Z</time>
      </trkpt>
      <trkpt lat="48.39428" lon="7.40529">
        <ele>260.1</ele>
        <time>2023-07-23T09:56:34Z</time>
      </trkpt>
      <trkpt lat="48.39428" lon="7.40524">
        <ele>260.2</ele>
        <time>2023-07-23T09:56:35Z</time>
      </trkpt>
      <trkpt lat="48.39429" lon="7.40519">
        <ele>260.3</ele>
        <time>2023-07-23T09:56:36Z</time>
      </trkpt>
      <trkpt lat="48.3943" lon="7.40514">
        <ele>260.5</ele>
        <time>2023-07-23T09:56:37Z</time>
      </trkpt>
      <trkpt lat="48.39431" lon="7.40509">
        <ele>260.6</ele>
        <time>2023-07-23T09:56:38Z</time>
      </trkpt>
      <trkpt lat="48.39432" lon="7.40503">
        <ele>260.7</ele>
        <time>2023-07-23T09:56:39Z</time>
      </trkpt>
      <trkpt lat="48.39433" lon="7.40498">
        <ele>260.8</ele>
        <time>2023-07-23T09:56:40Z</time>
      </trkpt>
      <trkpt lat="48.39435" lon="7.40493">
        <ele>261</ele>
        <time>2023-07-23T09:56:41Z</time>
      </trkpt>
      <trkpt lat="48.39436" lon="7.40488">
        <ele>261.1</ele>
        <time>2023-07-23T09:56:42Z</time>
      </trkpt>
      <trkpt lat="48.39438" lon="7.40483">
        <ele>261.3</ele>
        <time>2023-07-23T09:56:43Z</time>
      </trkpt>
      <trkpt lat="48.3944" lon="7.40479">
        <ele>261.4</ele>
        <time>2023-07-23T09:56:44Z</time>
      </trkpt>
      <trkpt lat="48.39442" lon="7.40475">
        <ele>261.6</ele>
        <time>2023-07-23T09:56:45Z</time>
      </trkpt>
      <trkpt lat="48.39444" lon="7.4047">
        <ele>261.7</ele>
        <time>2023-07-23T09:56:46Z</time>
      </trkpt>
      <trkpt lat="48.39446" lon="7.40466">
        <ele>261.9</ele>
        <time>2023-07-23T09:56:47Z</time>
      </trkpt>
      <trkpt lat="48.39448" lon="7.40461">
        <ele>262</ele>
        <time>2023-07-23T09:56:48Z</time>
      </trkpt>
      <trkpt lat="48.3945" lon="7.40457">
        <ele>262.2</ele>
        <time>2023-07-23T09:56:49Z</time>
      </trkpt>
      <trkpt lat="48.39451" lon="7.40453">
        <ele>262.4</ele>
        <time>2023-07-23T09:56:50Z</time>
      </trkpt>
      <trkpt lat="48.39453" lon="7.40448">
        <ele>262.5</ele>
        <time>2023-07-23T09:56:51Z</time>
      </trkpt>
      <trkpt lat="48.39455" lon="7.40444">
        <ele>262.6</ele>
        <time>2023-07-23T09:56:52Z</time>
      </trkpt>
      <trkpt lat="48.39457" lon="7.4044">
        <ele>262.7</ele>
        <time>2023-07-23T09:56:53Z</time>
      </trkpt>
      <trkpt lat="48.39459" lon="7.40436">
        <ele>262.9</ele>
        <time>2023-07-23T09:56:54Z</time>
      </trkpt>
      <trkpt lat="48.39461" lon="7.40432">
        <ele>263</ele>
        <time>2023-07-23T09:56:55Z</time>
      </trkpt>
      <trkpt lat="48.39463" lon="7.40427">
        <ele>263.1</ele>
        <time>2023-07-23T09:56:56Z</time>
      </trkpt>
      <trkpt lat="48.39464" lon="7.40423">
        <ele>263.2</ele>
        <time>2023-07-23T09:56:57Z</time>
      </trkpt>
      <trkpt lat="48.39466" lon="7.40418">
        <ele>263.3</ele>
        <time>2023-07-23T09:56:58Z</time>
      </trkpt>
      <trkpt lat="48.39468" lon="7.40414">
        <ele>263.4</ele>
        <time>2023-07-23T09:56:59Z</time>
      </trkpt>
      <trkpt lat="48.3947" lon="7.40409">
        <ele>263.5</ele>
        <time>2023-07-23T09:57:00Z</time>
      </trkpt>
      <trkpt lat="48.39472" lon="7.40405">
        <ele>263.6</ele>
        <time>2023-07-23T09:57:01Z</time>
      </trkpt>
      <trkpt lat="48.39474" lon="7.404">
        <ele>263.7</ele>
        <time>2023-07-23T09:57:02Z</time>
      </trkpt>
      <trkpt lat="48.39476" lon="7.40396">
        <ele>263.8</ele>
        <time>2023-07-23T09:57:03Z</time>
      </trkpt>
      <trkpt lat="48.39478" lon="7.40391">
        <ele>263.9</ele>
        <time>2023-07-23T09:57:04Z</time>
      </trkpt>
      <trkpt lat="48.3948" lon="7.40387">
        <ele>264</ele>
        <time>2023-07-23T09:57:05Z</time>
      </trkpt>
      <trkpt lat="48.39483" lon="7.40383">
        <ele>264.1</ele>
        <time>2023-07-23T09:57:06Z</time>
      </trkpt>
      <trkpt lat="48.39485" lon="7.40378">
        <ele>264.2</ele>
        <time>2023-07-23T09:57:07Z</time>
      </trkpt>
      <trkpt lat="48.39486" lon="7.40374">
        <ele>264.3</ele>
        <time>2023-07-23T09:57:08Z</time>
      </trkpt>
      <trkpt lat="48.39488" lon="7.40369">
        <ele>264.4</ele>
        <time>2023-07-23T09:57:09Z</time>
      </trkpt>
      <trkpt lat="48.3949" lon="7.40365">
        <ele>264.5</ele>
        <time>2023-07-23T09:57:10Z</time>
      </trkpt>
      <trkpt lat="48.39493" lon="7.40361">
        <ele>264.6</ele>
        <time>2023-07-23T09:57:11Z</time>
      </trkpt>
      <trkpt lat="48.39495" lon="7.40357">
        <ele>264.7</ele>
        <time>2023-07-23T09:57:12Z</time>
      </trkpt>
      <trkpt lat="48.39498" lon="7.40353">
        <ele>264.8</ele>
        <time>2023-07-23T09:57:13Z</time>
      </trkpt>
      <trkpt lat="48.395" lon="7.40348">
        <ele>264.9</ele>
        <time>2023-07-23T09:57:14Z</time>
      </trkpt>
      <trkpt lat="48.39503" lon="7.40344">
        <ele>265</ele>
        <time>2023-07-23T09:57:15Z</time>
      </trkpt>
      <trkpt lat="48.39505" lon="7.40341">
        <ele>265.1</ele>
        <time>2023-07-23T09:57:16Z</time>
      </trkpt>
      <trkpt lat="48.39507" lon="7.40337">
        <ele>265.2</ele>
        <time>2023-07-23T09:57:17Z</time>
      </trkpt>
      <trkpt lat="48.3951" lon="7.40333">
        <ele>265.2</ele>
        <time>2023-07-23T09:57:18Z</time>
      </trkpt>
      <trkpt lat="48.39512" lon="7.40329">
        <ele>265.3</ele>
        <time>2023-07-23T09:57:19Z</time>
      </trkpt>
      <trkpt lat="48.39515" lon="7.40326">
        <ele>265.3</ele>
        <time>2023-07-23T09:57:20Z</time>
      </trkpt>
      <trkpt lat="48.39517" lon="7.40322">
        <ele>265.4</ele>
        <time>2023-07-23T09:57:21Z</time>
      </trkpt>
      <trkpt lat="48.39519" lon="7.40318">
        <ele>265.5</ele>
        <time>2023-07-23T09:57:22Z</time>
      </trkpt>
      <trkpt lat="48.39522" lon="7.40314">
        <ele>265.5</ele>
        <time>2023-07-23T09:57:23Z</time>
      </trkpt>
      <trkpt lat="48.39524" lon="7.4031">
        <ele>265.6</ele>
        <time>2023-07-23T09:57:24Z</time>
      </trkpt>
      <trkpt lat="48.39527" lon="7.40307">
        <ele>265.7</ele>
        <time>2023-07-23T09:57:25Z</time>
      </trkpt>
      <trkpt lat="48.3953" lon="7.40302">
        <ele>265.7</ele>
        <time>2023-07-23T09:57:26Z</time>
      </trkpt>
      <trkpt lat="48.39532" lon="7.40298">
        <ele>265.8</ele>
        <time>2023-07-23T09:57:27Z</time>
      </trkpt>
      <trkpt lat="48.39534" lon="7.40294">
        <ele>265.9</ele>
        <time>2023-07-23T09:57:28Z</time>
      </trkpt>
      <trkpt lat="48.39537" lon="7.4029">
        <ele>266</ele>
        <time>2023-07-23T09:57:29Z</time>
      </trkpt>
      <trkpt lat="48.39539" lon="7.40286">
        <ele>266.1</ele>
        <time>2023-07-23T09:57:30Z</time>
      </trkpt>
      <trkpt lat="48.39541" lon="7.40281">
        <ele>266.2</ele>
        <time>2023-07-23T09:57:31Z</time>
      </trkpt>
      <trkpt lat="48.39543" lon="7.40277">
        <ele>266.2</ele>
        <time>2023-07-23T09:57:32Z</time>
      </trkpt>
      <trkpt lat="48.39545" lon="7.40272">
        <ele>266.3</ele>
        <time>2023-07-23T09:57:33Z</time>
      </trkpt>
      <trkpt lat="48.39547" lon="7.40267">
        <ele>266.4</ele>
        <time>2023-07-23T09:57:34Z</time>
      </trkpt>
      <trkpt lat="48.39549" lon="7.40262">
        <ele>266.5</ele>
        <time>2023-07-23T09:57:35Z</time>
      </trkpt>
      <trkpt lat="48.39551" lon="7.40257">
        <ele>266.6</ele>
        <time>2023-07-23T09:57:36Z</time>
      </trkpt>
      <trkpt lat="48.39553" lon="7.40253">
        <ele>266.7</ele>
        <time>2023-07-23T09:57:37Z</time>
      </trkpt>
      <trkpt lat="48.39554" lon="7.40248">
        <ele>266.7</ele>
        <time>2023-07-23T09:57:38Z</time>
      </trkpt>
      <trkpt lat="48.39556" lon="7.40244">
        <ele>266.8</ele>
        <time>2023-07-23T09:57:39Z</time>
      </trkpt>
      <trkpt lat="48.39557" lon="7.40239">
        <ele>266.9</ele>
        <time>2023-07-23T09:57:40Z</time>
      </trkpt>
      <trkpt lat="48.39559" lon="7.40234">
        <ele>266.9</ele>
        <time>2023-07-23T09:57:41Z</time>
      </trkpt>
      <trkpt lat="48.39561" lon="7.40229">
        <ele>266.9</ele>
        <time>2023-07-23T09:57:42Z</time>
      </trkpt>
      <trkpt lat="48.39562" lon="7.40225">
        <ele>267</ele>
        <time>2023-07-23T09:57:43Z</time>
      </trkpt>
      <trkpt lat="48.39563" lon="7.4022">
        <ele>267</ele>
        <time>2023-07-23T09:57:44Z</time>
      </trkpt>
      <trkpt lat="48.39565" lon="7.40215">
        <ele>267.1</ele>
        <time>2023-07-23T09:57:45Z</time>
      </trkpt>
      <trkpt lat="48.39567" lon="7.4021">
        <ele>267.1</ele>
        <time>2023-07-23T09:57:46Z</time>
      </trkpt>
      <trkpt lat="48.39569" lon="7.40205">
        <ele>267.2</ele>
        <time>2023-07-23T09:57:47Z</time>
      </trkpt>
      <trkpt lat="48.3957" lon="7.40199">
        <ele>267.2</ele>
        <time>2023-07-23T09:57:48Z</time>
      </trkpt>
      <trkpt lat="48.39572" lon="7.40194">
        <ele>267.3</ele>
        <time>2023-07-23T09:57:49Z</time>
      </trkpt>
      <trkpt lat="48.39573" lon="7.40189">
        <ele>267.3</ele>
        <time>2023-07-23T09:57:50Z</time>
      </trkpt>
      <trkpt lat="48.39575" lon="7.40185">
        <ele>267.4</ele>
        <time>2023-07-23T09:57:51Z</time>
      </trkpt>
      <trkpt lat="48.39577" lon="7.4018">
        <ele>267.4</ele>
        <time>2023-07-23T09:57:52Z</time>
      </trkpt>
      <trkpt lat="48.39578" lon="7.40175">
        <ele>267.5</ele>
        <time>2023-07-23T09:57:53Z</time>
      </trkpt>
      <trkpt lat="48.3958" lon="7.4017">
        <ele>267.5</ele>
        <time>2023-07-23T09:57:54Z</time>
      </trkpt>
      <trkpt lat="48.39582" lon="7.40165">
        <ele>267.6</ele>
        <time>2023-07-23T09:57:55Z</time>
      </trkpt>
      <trkpt lat="48.39583" lon="7.4016">
        <ele>267.6</ele>
        <time>2023-07-23T09:57:56Z</time>
      </trkpt>
      <trkpt lat="48.39585" lon="7.40155">
        <ele>267.7</ele>
        <time>2023-07-23T09:57:57Z</time>
      </trkpt>
      <trkpt lat="48.39586" lon="7.4015">
        <ele>267.7</ele>
        <time>2023-07-23T09:57:58Z</time>
      </trkpt>
      <trkpt lat="48.39588" lon="7.40145">
        <ele>267.8</ele>
        <time>2023-07-23T09:57:59Z</time>
      </trkpt>
      <trkpt lat="48.3959" lon="7.4014">
        <ele>267.8</ele>
        <time>2023-07-23T09:58:00Z</time>
      </trkpt>
      <trkpt lat="48.39592" lon="7.40136">
        <ele>267.9</ele>
        <time>2023-07-23T09:58:01Z</time>
      </trkpt>
      <trkpt lat="48.39593" lon="7.40131">
        <ele>267.9</ele>
        <time>2023-07-23T09:58:02Z</time>
      </trkpt>
      <trkpt lat="48.39595" lon="7.40126">
        <ele>268</ele>
        <time>2023-07-23T09:58:03Z</time>
      </trkpt>
      <trkpt lat="48.39597" lon="7.40121">
        <ele>268</ele>
        <time>2023-07-23T09:58:04Z</time>
      </trkpt>
      <trkpt lat="48.39599" lon="7.40116">
        <ele>268.1</ele>
        <time>2023-07-23T09:58:05Z</time>
      </trkpt>
      <trkpt lat="48.39601" lon="7.40111">
        <ele>268.1</ele>
        <time>2023-07-23T09:58:06Z</time>
      </trkpt>
      <trkpt lat="48.39603" lon="7.40106">
        <ele>268.2</ele>
        <time>2023-07-23T09:58:07Z</time>
      </trkpt>
      <trkpt lat="48.39605" lon="7.40101">
        <ele>268.3</ele>
        <time>2023-07-23T09:58:08Z</time>
      </trkpt>
      <trkpt lat="48.39607" lon="7.40096">
        <ele>268.3</ele>
        <time>2023-07-23T09:58:09Z</time>
      </trkpt>
      <trkpt lat="48.39609" lon="7.40092">
        <ele>268.4</ele>
        <time>2023-07-23T09:58:10Z</time>
      </trkpt>
      <trkpt lat="48.39612" lon="7.40087">
        <ele>268.5</ele>
        <time>2023-07-23T09:58:11Z</time>
      </trkpt>
      <trkpt lat="48.39614" lon="7.40082">
        <ele>268.6</ele>
        <time>2023-07-23T09:58:12Z</time>
      </trkpt>
      <trkpt lat="48.39616" lon="7.40078">
        <ele>268.7</ele>
        <time>2023-07-23T09:58:13Z</time>
      </trkpt>
      <trkpt lat="48.39619" lon="7.40073">
        <ele>268.8</ele>
        <time>2023-07-23T09:58:14Z</time>
      </trkpt>
      <trkpt lat="48.39621" lon="7.40068">
        <ele>268.9</ele>
        <time>2023-07-23T09:58:15Z</time>
      </trkpt>
      <trkpt lat="48.39623" lon="7.40064">
        <ele>269</ele>
        <time>2023-07-23T09:58:16Z</time>
      </trkpt>
      <trkpt lat="48.39626" lon="7.4006">
        <ele>269.1</ele>
        <time>2023-07-23T09:58:17Z</time>
      </trkpt>
      <trkpt lat="48.39628" lon="7.40056">
        <ele>269.2</ele>
        <time>2023-07-23T09:58:18Z</time>
      </trkpt>
      <trkpt lat="48.3963" lon="7.40051">
        <ele>269.3</ele>
        <time>2023-07-23T09:58:19Z</time>
      </trkpt>
      <trkpt lat="48.39633" lon="7.40047">
        <ele>269.4</ele>
        <time>2023-07-23T09:58:20Z</time>
      </trkpt>
      <trkpt lat="48.39635" lon="7.40043">
        <ele>269.5</ele>
        <time>2023-07-23T09:58:21Z</time>
      </trkpt>
      <trkpt lat="48.39637" lon="7.40039">
        <ele>269.6</ele>
        <time>2023-07-23T09:58:22Z</time>
      </trkpt>
      <trkpt lat="48.39639" lon="7.40034">
        <ele>269.7</ele>
        <time>2023-07-23T09:58:23Z</time>
      </trkpt>
      <trkpt lat="48.39642" lon="7.40031">
        <ele>269.8</ele>
        <time>2023-07-23T09:58:24Z</time>
      </trkpt>
      <trkpt lat="48.39644" lon="7.40026">
        <ele>269.9</ele>
        <time>2023-07-23T09:58:25Z</time>
      </trkpt>
      <trkpt lat="48.39646" lon="7.40022">
        <ele>269.9</ele>
        <time>2023-07-23T09:58:26Z</time>
      </trkpt>
      <trkpt lat="48.39648" lon="7.40018">
        <ele>270.1</ele>
        <time>2023-07-23T09:58:27Z</time>
      </trkpt>
      <trkpt lat="48.3965" lon="7.40014">
        <ele>270.2</ele>
        <time>2023-07-23T09:58:28Z</time>
      </trkpt>
      <trkpt lat="48.39652" lon="7.4001">
        <ele>270.3</ele>
        <time>2023-07-23T09:58:29Z</time>
      </trkpt>
      <trkpt lat="48.39654" lon="7.40005">
        <ele>270.4</ele>
        <time>2023-07-23T09:58:30Z</time>
      </trkpt>
      <trkpt lat="48.39656" lon="7.40001">
        <ele>270.5</ele>
        <time>2023-07-23T09:58:31Z</time>
      </trkpt>
      <trkpt lat="48.39658" lon="7.39997">
        <ele>270.6</ele>
        <time>2023-07-23T09:58:32Z</time>
      </trkpt>
      <trkpt lat="48.3966" lon="7.39993">
        <ele>270.7</ele>
        <time>2023-07-23T09:58:33Z</time>
      </trkpt>
      <trkpt lat="48.39662" lon="7.39988">
        <ele>270.8</ele>
        <time>2023-07-23T09:58:34Z</time>
      </trkpt>
      <trkpt lat="48.39664" lon="7.39984">
        <ele>270.9</ele>
        <time>2023-07-23T09:58:35Z</time>
      </trkpt>
      <trkpt lat="48.39666" lon="7.39979">
        <ele>271</ele>
        <time>2023-07-23T09:58:36Z</time>
      </trkpt>
      <trkpt lat="48.39668" lon="7.39975">
        <ele>271.1</ele>
        <time>2023-07-23T09:58:37Z</time>
      </trkpt>
      <trkpt lat="48.3967" lon="7.39971">
        <ele>271.2</ele>
        <time>2023-07-23T09:58:38Z</time>
      </trkpt>
      <trkpt lat="48.39671" lon="7.39967">
        <ele>271.3</ele>
        <time>2023-07-23T09:58:39Z</time>
      </trkpt>
      <trkpt lat="48.39673" lon="7.39962">
        <ele>271.4</ele>
        <time>2023-07-23T09:58:40Z</time>
      </trkpt>
      <trkpt lat="48.39675" lon="7.39958">
        <ele>271.6</ele>
        <time>2023-07-23T09:58:41Z</time>
      </trkpt>
      <trkpt lat="48.39677" lon="7.39953">
        <ele>271.7</ele>
        <time>2023-07-23T09:58:42Z</time>
      </trkpt>
      <trkpt lat="48.39678" lon="7.39949">
        <ele>271.8</ele>
        <time>2023-07-23T09:58:43Z</time>
      </trkpt>
      <trkpt lat="48.3968" lon="7.39944">
        <ele>271.9</ele>
        <time>2023-07-23T09:58:44Z</time>
      </trkpt>
      <trkpt lat="48.39682" lon="7.3994">
        <ele>272</ele>
        <time>2023-07-23T09:58:45Z</time>
      </trkpt>
      <trkpt lat="48.39684" lon="7.39935">
        <ele>272.1</ele>
        <time>2023-07-23T09:58:46Z</time>
      </trkpt>
      <trkpt lat="48.39685" lon="7.39931">
        <ele>272.3</ele>
        <time>2023-07-23T09:58:47Z</time>
      </trkpt>
      <trkpt lat="48.39687" lon="7.39926">
        <ele>272.4</ele>
        <time>2023-07-23T09:58:48Z</time>
      </trkpt>
      <trkpt lat="48.39688" lon="7.39922">
        <ele>272.5</ele>
        <time>2023-07-23T09:58:49Z</time>
      </trkpt>
      <trkpt lat="48.3969" lon="7.39918">
        <ele>272.7</ele>
        <time>2023-07-23T09:58:50Z</time>
      </trkpt>
      <trkpt lat="48.39692" lon="7.39914">
        <ele>272.8</ele>
        <time>2023-07-23T09:58:51Z</time>
      </trkpt>
      <trkpt lat="48.39693" lon="7.3991">
        <ele>273</ele>
        <time>2023-07-23T09:58:52Z</time>
      </trkpt>
      <trkpt lat="48.39694" lon="7.39906">
        <ele>273.1</ele>
        <time>2023-07-23T09:58:53Z</time>
      </trkpt>
      <trkpt lat="48.39696" lon="7.39901">
        <ele>273.3</ele>
        <time>2023-07-23T09:58:54Z</time>
      </trkpt>
      <trkpt lat="48.39697" lon="7.39897">
        <ele>273.5</ele>
        <time>2023-07-23T09:58:55Z</time>
      </trkpt>
      <trkpt lat="48.39699" lon="7.39893">
        <ele>273.6</ele>
        <time>2023-07-23T09:58:56Z</time>
      </trkpt>
      <trkpt lat="48.39701" lon="7.39889">
        <ele>273.8</ele>
        <time>2023-07-23T09:58:57Z</time>
      </trkpt>
      <trkpt lat="48.39702" lon="7.39885">
        <ele>273.9</ele>
        <time>2023-07-23T09:58:58Z</time>
      </trkpt>
      <trkpt lat="48.39704" lon="7.39881">
        <ele>274.1</ele>
        <time>2023-07-23T09:58:59Z</time>
      </trkpt>
      <trkpt lat="48.39706" lon="7.39877">
        <ele>274.3</ele>
        <time>2023-07-23T09:59:00Z</time>
      </trkpt>
      <trkpt lat="48.39707" lon="7.39872">
        <ele>274.5</ele>
        <time>2023-07-23T09:59:01Z</time>
      </trkpt>
      <trkpt lat="48.3971" lon="7.39869">
        <ele>274.6</ele>
        <time>2023-07-23T09:59:02Z</time>
      </trkpt>
      <trkpt lat="48.39712" lon="7.39864">
        <ele>274.8</ele>
        <time>2023-07-23T09:59:03Z</time>
      </trkpt>
      <trkpt lat="48.39714" lon="7.39861">
        <ele>275</ele>
        <time>2023-07-23T09:59:04Z</time>
      </trkpt>
      <trkpt lat="48.39716" lon="7.39857">
        <ele>275.2</ele>
        <time>2023-07-23T09:59:05Z</time>
      </trkpt>
      <trkpt lat="48.39718" lon="7.39854">
        <ele>275.3</ele>
        <time>2023-07-23T09:59:06Z</time>
      </trkpt>
      <trkpt lat="48.3972" lon="7.39851">
        <ele>275.5</ele>
        <time>2023-07-23T09:59:07Z</time>
      </trkpt>
      <trkpt lat="48.39722" lon="7.39848">
        <ele>275.6</ele>
        <time>2023-07-23T09:59:08Z</time>
      </trkpt>
      <trkpt lat="48.39726" lon="7.39844">
        <ele>275.9</ele>
        <time>2023-07-23T09:59:09Z</time>
      </trkpt>
      <trkpt lat="48.39727" lon="7.39843">
        <ele>276</ele>
        <time>2023-07-23T09:59:10Z</time>
      </trkpt>
      <trkpt lat="48.39729" lon="7.3984">
        <ele>276.1</ele>
        <time>2023-07-23T09:59:11Z</time>
      </trkpt>
      <trkpt lat="48.39731" lon="7.39837">
        <ele>276.3</ele>
        <time>2023-07-23T09:59:12Z</time>
      </trkpt>
      <trkpt lat="48.39734" lon="7.39834">
        <ele>276.5</ele>
        <time>2023-07-23T09:59:13Z</time>
      </trkpt>
      <trkpt lat="48.39735" lon="7.39833">
        <ele>276.6</ele>
        <time>2023-07-23T09:59:14Z</time>
      </trkpt>
      <trkpt lat="48.39738" lon="7.39829">
        <ele>276.8</ele>
        <time>2023-07-23T09:59:15Z</time>
      </trkpt>
      <trkpt lat="48.39738" lon="7.39828">
        <ele>276.9</ele>
        <time>2023-07-23T09:59:16Z</time>
      </trkpt>
      <trkpt lat="48.39742" lon="7.39825">
        <ele>277.1</ele>
        <time>2023-07-23T09:59:17Z</time>
      </trkpt>
      <trkpt lat="48.39743" lon="7.39824">
        <ele>277.2</ele>
        <time>2023-07-23T09:59:18Z</time>
      </trkpt>
      <trkpt lat="48.39745" lon="7.39822">
        <ele>277.4</ele>
        <time>2023-07-23T09:59:19Z</time>
      </trkpt>
      <trkpt lat="48.39748" lon="7.39819">
        <ele>277.6</ele>
        <time>2023-07-23T09:59:20Z</time>
      </trkpt>
      <trkpt lat="48.39749" lon="7.39818">
        <ele>277.6</ele>
        <time>2023-07-23T09:59:21Z</time>
      </trkpt>
      <trkpt lat="48.39752" lon="7.39814">
        <ele>277.9</ele>
        <time>2023-07-23T09:59:22Z</time>
      </trkpt>
      <trkpt lat="48.39754" lon="7.39813">
        <ele>277.9</ele>
        <time>2023-07-23T09:59:23Z</time>
      </trkpt>
      <trkpt lat="48.39756" lon="7.39809">
        <ele>278.2</ele>
        <time>2023-07-23T09:59:24Z</time>
      </trkpt>
      <trkpt lat="48.39757" lon="7.39808">
        <ele>278.2</ele>
        <time>2023-07-23T09:59:25Z</time>
      </trkpt>
      <trkpt lat="48.39759" lon="7.39805">
        <ele>278.4</ele>
        <time>2023-07-23T09:59:26Z</time>
      </trkpt>
      <trkpt lat="48.39762" lon="7.39801">
        <ele>278.6</ele>
        <time>2023-07-23T09:59:27Z</time>
      </trkpt>
      <trkpt lat="48.39763" lon="7.398">
        <ele>278.7</ele>
        <time>2023-07-23T09:59:28Z</time>
      </trkpt>
      <trkpt lat="48.39766" lon="7.39795">
        <ele>279</ele>
        <time>2023-07-23T09:59:29Z</time>
      </trkpt>
      <trkpt lat="48.39767" lon="7.39794">
        <ele>279</ele>
        <time>2023-07-23T09:59:30Z</time>
      </trkpt>
      <trkpt lat="48.3977" lon="7.3979">
        <ele>279.3</ele>
        <time>2023-07-23T09:59:31Z</time>
      </trkpt>
      <trkpt lat="48.3977" lon="7.39789">
        <ele>279.3</ele>
        <time>2023-07-23T09:59:32Z</time>
      </trkpt>
      <trkpt lat="48.39772" lon="7.39786">
        <ele>279.5</ele>
        <time>2023-07-23T09:59:33Z</time>
      </trkpt>
      <trkpt lat="48.39775" lon="7.39782">
        <ele>279.7</ele>
        <time>2023-07-23T09:59:34Z</time>
      </trkpt>
      <trkpt lat="48.39775" lon="7.3978">
        <ele>279.8</ele>
        <time>2023-07-23T09:59:35Z</time>
      </trkpt>
      <trkpt lat="48.39778" lon="7.39776">
        <ele>280</ele>
        <time>2023-07-23T09:59:36Z</time>
      </trkpt>
      <trkpt lat="48.39779" lon="7.39774">
        <ele>280.1</ele>
        <time>2023-07-23T09:59:37Z</time>
      </trkpt>
      <trkpt lat="48.39781" lon="7.39771">
        <ele>280.2</ele>
        <time>2023-07-23T09:59:38Z</time>
      </trkpt>
      <trkpt lat="48.39782" lon="7.39768">
        <ele>280.4</ele>
        <time>2023-07-23T09:59:39Z</time>
      </trkpt>
      <trkpt lat="48.39785" lon="7.39763">
        <ele>280.6</ele>
        <time>2023-07-23T09:59:40Z</time>
      </trkpt>
      <trkpt lat="48.39786" lon="7.39761">
        <ele>280.7</ele>
        <time>2023-07-23T09:59:41Z</time>
      </trkpt>
      <trkpt lat="48.39789" lon="7.39757">
        <ele>280.9</ele>
        <time>2023-07-23T09:59:42Z</time>
      </trkpt>
      <trkpt lat="48.3979" lon="7.39756">
        <ele>281</ele>
        <time>2023-07-23T09:59:43Z</time>
      </trkpt>
      <trkpt lat="48.39791" lon="7.39752">
        <ele>281.1</ele>
        <time>2023-07-23T09:59:44Z</time>
      </trkpt>
      <trkpt lat="48.39793" lon="7.39749">
        <ele>281.2</ele>
        <time>2023-07-23T09:59:45Z</time>
      </trkpt>
      <trkpt lat="48.39795" lon="7.39746">
        <ele>281.4</ele>
        <time>2023-07-23T09:59:46Z</time>
      </trkpt>
      <trkpt lat="48.39797" lon="7.39742">
        <ele>281.4</ele>
        <time>2023-07-23T09:59:47Z</time>
      </trkpt>
      <trkpt lat="48.39799" lon="7.39739">
        <ele>281.5</ele>
        <time>2023-07-23T09:59:48Z</time>
      </trkpt>
      <trkpt lat="48.39801" lon="7.39736">
        <ele>281.6</ele>
        <time>2023-07-23T09:59:49Z</time>
      </trkpt>
      <trkpt lat="48.39802" lon="7.39732">
        <ele>281.6</ele>
        <time>2023-07-23T09:59:50Z</time>
      </trkpt>
      <trkpt lat="48.39804" lon="7.39728">
        <ele>281.7</ele>
        <time>2023-07-23T09:59:51Z</time>
      </trkpt>
      <trkpt lat="48.39806" lon="7.39725">
        <ele>281.7</ele>
        <time>2023-07-23T09:59:52Z</time>
      </trkpt>
      <trkpt lat="48.39808" lon="7.39721">
        <ele>281.8</ele>
        <time>2023-07-23T09:59:53Z</time>
      </trkpt>
      <trkpt lat="48.3981" lon="7.39718">
        <ele>281.8</ele>
        <time>2023-07-23T09:59:54Z</time>
      </trkpt>
      <trkpt lat="48.39811" lon="7.39715">
        <ele>281.9</ele>
        <time>2023-07-23T09:59:55Z</time>
      </trkpt>
      <trkpt lat="48.39813" lon="7.39712">
        <ele>282.1</ele>
        <time>2023-07-23T09:59:56Z</time>
      </trkpt>
      <trkpt lat="48.39815" lon="7.39708">
        <ele>282.2</ele>
        <time>2023-07-23T09:59:57Z</time>
      </trkpt>
      <trkpt lat="48.39817" lon="7.39705">
        <ele>282.4</ele>
        <time>2023-07-23T09:59:58Z</time>
      </trkpt>
      <trkpt lat="48.39819" lon="7.39702">
        <ele>282.5</ele>
        <time>2023-07-23T09:59:59Z</time>
      </trkpt>
      <trkpt lat="48.39821" lon="7.39699">
        <ele>282.6</ele>
        <time>2023-07-23T10:00:00Z</time>
      </trkpt>
      <trkpt lat="48.39823" lon="7.39695">
        <ele>282.8</ele>
        <time>2023-07-23T10:00:01Z</time>
      </trkpt>
      <trkpt lat="48.39825" lon="7.39692">
        <ele>282.9</ele>
        <time>2023-07-23T10:00:02Z</time>
      </trkpt>
      <trkpt lat="48.39826" lon="7.39689">
        <ele>283</ele>
        <time>2023-07-23T10:00:03Z</time>
      </trkpt>
      <trkpt lat="48.39828" lon="7.39685">
        <ele>283.2</ele>
        <time>2023-07-23T10:00:04Z</time>
      </trkpt>
      <trkpt lat="48.3983" lon="7.39682">
        <ele>283.3</ele>
        <time>2023-07-23T10:00:05Z</time>
      </trkpt>
      <trkpt lat="48.39833" lon="7.39677">
        <ele>283.5</ele>
        <time>2023-07-23T10:00:06Z</time>
      </trkpt>
      <trkpt lat="48.39834" lon="7.39676">
        <ele>283.5</ele>
        <time>2023-07-23T10:00:07Z</time>
      </trkpt>
      <trkpt lat="48.39836" lon="7.39672">
        <ele>283.7</ele>
        <time>2023-07-23T10:00:08Z</time>
      </trkpt>
      <trkpt lat="48.39838" lon="7.39668">
        <ele>283.8</ele>
        <time>2023-07-23T10:00:09Z</time>
      </trkpt>
      <trkpt lat="48.3984" lon="7.39665">
        <ele>284</ele>
        <time>2023-07-23T10:00:10Z</time>
      </trkpt>
      <trkpt lat="48.39841" lon="7.39662">
        <ele>284.1</ele>
        <time>2023-07-23T10:00:11Z</time>
      </trkpt>
      <trkpt lat="48.39843" lon="7.39658">
        <ele>284.2</ele>
        <time>2023-07-23T10:00:12Z</time>
      </trkpt>
      <trkpt lat="48.39845" lon="7.39655">
        <ele>284.4</ele>
        <time>2023-07-23T10:00:13Z</time>
      </trkpt>
      <trkpt lat="48.39847" lon="7.39651">
        <ele>284.5</ele>
        <time>2023-07-23T10:00:14Z</time>
      </trkpt>
      <trkpt lat="48.39848" lon="7.39648">
        <ele>284.6</ele>
        <time>2023-07-23T10:00:15Z</time>
      </trkpt>
      <trkpt lat="48.3985" lon="7.39644">
        <ele>284.8</ele>
        <time>2023-07-23T10:00:16Z</time>
      </trkpt>
      <trkpt lat="48.39852" lon="7.3964">
        <ele>284.9</ele>
        <time>2023-07-23T10:00:17Z</time>
      </trkpt>
      <trkpt lat="48.39853" lon="7.39636">
        <ele>285</ele>
        <time>2023-07-23T10:00:18Z</time>
      </trkpt>
      <trkpt lat="48.39854" lon="7.39633">
        <ele>285.1</ele>
        <time>2023-07-23T10:00:19Z</time>
      </trkpt>
      <trkpt lat="48.39856" lon="7.39629">
        <ele>285.3</ele>
        <time>2023-07-23T10:00:20Z</time>
      </trkpt>
      <trkpt lat="48.39857" lon="7.39625">
        <ele>285.4</ele>
        <time>2023-07-23T10:00:21Z</time>
      </trkpt>
      <trkpt lat="48.39859" lon="7.39621">
        <ele>285.5</ele>
        <time>2023-07-23T10:00:22Z</time>
      </trkpt>
      <trkpt lat="48.3986" lon="7.39618">
        <ele>285.6</ele>
        <time>2023-07-23T10:00:23Z</time>
      </trkpt>
      <trkpt lat="48.39861" lon="7.39614">
        <ele>285.8</ele>
        <time>2023-07-23T10:00:24Z</time>
      </trkpt>
      <trkpt lat="48.39862" lon="7.39609">
        <ele>285.9</ele>
        <time>2023-07-23T10:00:25Z</time>
      </trkpt>
      <trkpt lat="48.39863" lon="7.39605">
        <ele>286</ele>
        <time>2023-07-23T10:00:26Z</time>
      </trkpt>
      <trkpt lat="48.39864" lon="7.39601">
        <ele>286.2</ele>
        <time>2023-07-23T10:00:27Z</time>
      </trkpt>
      <trkpt lat="48.39865" lon="7.39597">
        <ele>286.3</ele>
        <time>2023-07-23T10:00:28Z</time>
      </trkpt>
      <trkpt lat="48.39866" lon="7.39592">
        <ele>286.4</ele>
        <time>2023-07-23T10:00:29Z</time>
      </trkpt>
      <trkpt lat="48.39866" lon="7.39588">
        <ele>286.5</ele>
        <time>2023-07-23T10:00:30Z</time>
      </trkpt>
      <trkpt lat="48.39867" lon="7.39584">
        <ele>286.7</ele>
        <time>2023-07-23T10:00:31Z</time>
      </trkpt>
      <trkpt lat="48.39867" lon="7.3958">
        <ele>286.8</ele>
        <time>2023-07-23T10:00:32Z</time>
      </trkpt>
      <trkpt lat="48.39867" lon="7.39575">
        <ele>286.9</ele>
        <time>2023-07-23T10:00:33Z</time>
      </trkpt>
      <trkpt lat="48.39867" lon="7.39571">
        <ele>287</ele>
        <time>2023-07-23T10:00:34Z</time>
      </trkpt>
      <trkpt lat="48.39868" lon="7.39567">
        <ele>287.1</ele>
        <time>2023-07-23T10:00:35Z</time>
      </trkpt>
      <trkpt lat="48.39867" lon="7.39562">
        <ele>287.3</ele>
        <time>2023-07-23T10:00:36Z</time>
      </trkpt>
      <trkpt lat="48.39867" lon="7.39558">
        <ele>287.4</ele>
        <time>2023-07-23T10:00:37Z</time>
      </trkpt>
      <trkpt lat="48.39866" lon="7.39553">
        <ele>287.5</ele>
        <time>2023-07-23T10:00:38Z</time>
      </trkpt>
      <trkpt lat="48.39866" lon="7.39549">
        <ele>287.7</ele>
        <time>2023-07-23T10:00:39Z</time>
      </trkpt>
      <trkpt lat="48.39865" lon="7.39544">
        <ele>287.8</ele>
        <time>2023-07-23T10:00:40Z</time>
      </trkpt>
      <trkpt lat="48.39864" lon="7.39539">
        <ele>287.9</ele>
        <time>2023-07-23T10:00:41Z</time>
      </trkpt>
      <trkpt lat="48.39864" lon="7.39535">
        <ele>288</ele>
        <time>2023-07-23T10:00:42Z</time>
      </trkpt>
      <trkpt lat="48.39863" lon="7.39531">
        <ele>288.1</ele>
        <time>2023-07-23T10:00:43Z</time>
      </trkpt>
      <trkpt lat="48.39862" lon="7.39527">
        <ele>288.3</ele>
        <time>2023-07-23T10:00:44Z</time>
      </trkpt>
      <trkpt lat="48.39861" lon="7.39522">
        <ele>288.4</ele>
        <time>2023-07-23T10:00:45Z</time>
      </trkpt>
      <trkpt lat="48.3986" lon="7.39518">
        <ele>288.5</ele>
        <time>2023-07-23T10:00:46Z</time>
      </trkpt>
      <trkpt lat="48.39858" lon="7.39514">
        <ele>288.6</ele>
        <time>2023-07-23T10:00:47Z</time>
      </trkpt>
      <trkpt lat="48.39857" lon="7.3951">
        <ele>288.7</ele>
        <time>2023-07-23T10:00:48Z</time>
      </trkpt>
      <trkpt lat="48.39855" lon="7.39504">
        <ele>288.9</ele>
        <time>2023-07-23T10:00:49Z</time>
      </trkpt>
      <trkpt lat="48.39855" lon="7.39502">
        <ele>288.9</ele>
        <time>2023-07-23T10:00:50Z</time>
      </trkpt>
      <trkpt lat="48.39853" lon="7.39498">
        <ele>289.1</ele>
        <time>2023-07-23T10:00:51Z</time>
      </trkpt>
      <trkpt lat="48.39852" lon="7.39494">
        <ele>289.2</ele>
        <time>2023-07-23T10:00:52Z</time>
      </trkpt>
      <trkpt lat="48.3985" lon="7.3949">
        <ele>289.3</ele>
        <time>2023-07-23T10:00:53Z</time>
      </trkpt>
      <trkpt lat="48.39849" lon="7.39486">
        <ele>289.4</ele>
        <time>2023-07-23T10:00:54Z</time>
      </trkpt>
      <trkpt lat="48.39847" lon="7.39482">
        <ele>289.6</ele>
        <time>2023-07-23T10:00:55Z</time>
      </trkpt>
      <trkpt lat="48.39846" lon="7.39478">
        <ele>289.7</ele>
        <time>2023-07-23T10:00:56Z</time>
      </trkpt>
      <trkpt lat="48.39845" lon="7.39474">
        <ele>289.8</ele>
        <time>2023-07-23T10:00:57Z</time>
      </trkpt>
      <trkpt lat="48.39843" lon="7.39469">
        <ele>289.9</ele>
        <time>2023-07-23T10:00:58Z</time>
      </trkpt>
      <trkpt lat="48.39842" lon="7.39465">
        <ele>290</ele>
        <time>2023-07-23T10:00:59Z</time>
      </trkpt>
      <trkpt lat="48.3984" lon="7.39461">
        <ele>290.2</ele>
        <time>2023-07-23T10:01:00Z</time>
      </trkpt>
      <trkpt lat="48.39839" lon="7.39457">
        <ele>290.3</ele>
        <time>2023-07-23T10:01:01Z</time>
      </trkpt>
      <trkpt lat="48.39837" lon="7.39453">
        <ele>290.4</ele>
        <time>2023-07-23T10:01:02Z</time>
      </trkpt>
      <trkpt lat="48.39836" lon="7.39449">
        <ele>290.5</ele>
        <time>2023-07-23T10:01:03Z</time>
      </trkpt>
      <trkpt lat="48.39834" lon="7.39445">
        <ele>290.6</ele>
        <time>2023-07-23T10:01:04Z</time>
      </trkpt>
      <trkpt lat="48.39833" lon="7.3944">
        <ele>290.8</ele>
        <time>2023-07-23T10:01:05Z</time>
      </trkpt>
      <trkpt lat="48.39832" lon="7.39436">
        <ele>290.9</ele>
        <time>2023-07-23T10:01:06Z</time>
      </trkpt>
      <trkpt lat="48.3983" lon="7.39431">
        <ele>291.1</ele>
        <time>2023-07-23T10:01:07Z</time>
      </trkpt>
      <trkpt lat="48.39829" lon="7.39427">
        <ele>291.2</ele>
        <time>2023-07-23T10:01:08Z</time>
      </trkpt>
      <trkpt lat="48.39828" lon="7.39423">
        <ele>291.3</ele>
        <time>2023-07-23T10:01:09Z</time>
      </trkpt>
      <trkpt lat="48.39826" lon="7.39419">
        <ele>291.4</ele>
        <time>2023-07-23T10:01:10Z</time>
      </trkpt>
      <trkpt lat="48.39825" lon="7.39414">
        <ele>291.6</ele>
        <time>2023-07-23T10:01:11Z</time>
      </trkpt>
      <trkpt lat="48.39824" lon="7.3941">
        <ele>291.7</ele>
        <time>2023-07-23T10:01:12Z</time>
      </trkpt>
      <trkpt lat="48.39822" lon="7.39406">
        <ele>291.8</ele>
        <time>2023-07-23T10:01:13Z</time>
      </trkpt>
      <trkpt lat="48.39821" lon="7.39402">
        <ele>292</ele>
        <time>2023-07-23T10:01:14Z</time>
      </trkpt>
      <trkpt lat="48.3982" lon="7.39398">
        <ele>292.1</ele>
        <time>2023-07-23T10:01:15Z</time>
      </trkpt>
      <trkpt lat="48.39819" lon="7.39393">
        <ele>292.2</ele>
        <time>2023-07-23T10:01:16Z</time>
      </trkpt>
      <trkpt lat="48.39817" lon="7.39389">
        <ele>292.3</ele>
        <time>2023-07-23T10:01:17Z</time>
      </trkpt>
      <trkpt lat="48.39816" lon="7.39385">
        <ele>292.5</ele>
        <time>2023-07-23T10:01:18Z</time>
      </trkpt>
      <trkpt lat="48.39815" lon="7.39381">
        <ele>292.6</ele>
        <time>2023-07-23T10:01:19Z</time>
      </trkpt>
      <trkpt lat="48.39813" lon="7.39377">
        <ele>292.7</ele>
        <time>2023-07-23T10:01:20Z</time>
      </trkpt>
      <trkpt lat="48.39812" lon="7.39373">
        <ele>292.9</ele>
        <time>2023-07-23T10:01:21Z</time>
      </trkpt>
      <trkpt lat="48.39811" lon="7.39368">
        <ele>293</ele>
        <time>2023-07-23T10:01:22Z</time>
      </trkpt>
      <trkpt lat="48.3981" lon="7.39364">
        <ele>293.1</ele>
        <time>2023-07-23T10:01:23Z</time>
      </trkpt>
      <trkpt lat="48.39808" lon="7.3936">
        <ele>293.2</ele>
        <time>2023-07-23T10:01:24Z</time>
      </trkpt>
      <trkpt lat="48.39806" lon="7.39356">
        <ele>293.4</ele>
        <time>2023-07-23T10:01:25Z</time>
      </trkpt>
      <trkpt lat="48.39805" lon="7.39352">
        <ele>293.5</ele>
        <time>2023-07-23T10:01:26Z</time>
      </trkpt>
      <trkpt lat="48.39804" lon="7.39348">
        <ele>293.6</ele>
        <time>2023-07-23T10:01:27Z</time>
      </trkpt>
      <trkpt lat="48.39802" lon="7.39344">
        <ele>293.8</ele>
        <time>2023-07-23T10:01:28Z</time>
      </trkpt>
      <trkpt lat="48.39801" lon="7.39339">
        <ele>293.9</ele>
        <time>2023-07-23T10:01:29Z</time>
      </trkpt>
      <trkpt lat="48.398" lon="7.39335">
        <ele>294</ele>
        <time>2023-07-23T10:01:30Z</time>
      </trkpt>
      <trkpt lat="48.39799" lon="7.39331">
        <ele>294.1</ele>
        <time>2023-07-23T10:01:31Z</time>
      </trkpt>
      <trkpt lat="48.39798" lon="7.39326">
        <ele>294.3</ele>
        <time>2023-07-23T10:01:32Z</time>
      </trkpt>
      <trkpt lat="48.39796" lon="7.39322">
        <ele>294.4</ele>
        <time>2023-07-23T10:01:33Z</time>
      </trkpt>
      <trkpt lat="48.39795" lon="7.39318">
        <ele>294.5</ele>
        <time>2023-07-23T10:01:34Z</time>
      </trkpt>
      <trkpt lat="48.39793" lon="7.39314">
        <ele>294.6</ele>
        <time>2023-07-23T10:01:35Z</time>
      </trkpt>
      <trkpt lat="48.39792" lon="7.3931">
        <ele>294.7</ele>
        <time>2023-07-23T10:01:36Z</time>
      </trkpt>
      <trkpt lat="48.39791" lon="7.39306">
        <ele>294.8</ele>
        <time>2023-07-23T10:01:37Z</time>
      </trkpt>
      <trkpt lat="48.3979" lon="7.39302">
        <ele>294.9</ele>
        <time>2023-07-23T10:01:38Z</time>
      </trkpt>
      <trkpt lat="48.39788" lon="7.39298">
        <ele>295.1</ele>
        <time>2023-07-23T10:01:39Z</time>
      </trkpt>
      <trkpt lat="48.39787" lon="7.39294">
        <ele>295.2</ele>
        <time>2023-07-23T10:01:40Z</time>
      </trkpt>
      <trkpt lat="48.39785" lon="7.3929">
        <ele>295.3</ele>
        <time>2023-07-23T10:01:41Z</time>
      </trkpt>
      <trkpt lat="48.39784" lon="7.39286">
        <ele>295.4</ele>
        <time>2023-07-23T10:01:42Z</time>
      </trkpt>
      <trkpt lat="48.39783" lon="7.39282">
        <ele>295.5</ele>
        <time>2023-07-23T10:01:43Z</time>
      </trkpt>
      <trkpt lat="48.39782" lon="7.39278">
        <ele>295.6</ele>
        <time>2023-07-23T10:01:44Z</time>
      </trkpt>
      <trkpt lat="48.39781" lon="7.39274">
        <ele>295.7</ele>
        <time>2023-07-23T10:01:45Z</time>
      </trkpt>
      <trkpt lat="48.39779" lon="7.3927">
        <ele>295.8</ele>
        <time>2023-07-23T10:01:46Z</time>
      </trkpt>
      <trkpt lat="48.39778" lon="7.39267">
        <ele>296</ele>
        <time>2023-07-23T10:01:47Z</time>
      </trkpt>
      <trkpt lat="48.39777" lon="7.39261">
        <ele>296.1</ele>
        <time>2023-07-23T10:01:48Z</time>
      </trkpt>
      <trkpt lat="48.39776" lon="7.39259">
        <ele>296.1</ele>
        <time>2023-07-23T10:01:49Z</time>
      </trkpt>
      <trkpt lat="48.39774" lon="7.39254">
        <ele>296.3</ele>
        <time>2023-07-23T10:01:50Z</time>
      </trkpt>
      <trkpt lat="48.39774" lon="7.39252">
        <ele>296.3</ele>
        <time>2023-07-23T10:01:51Z</time>
      </trkpt>
      <trkpt lat="48.39773" lon="7.39248">
        <ele>296.4</ele>
        <time>2023-07-23T10:01:52Z</time>
      </trkpt>
      <trkpt lat="48.39771" lon="7.39244">
        <ele>296.5</ele>
        <time>2023-07-23T10:01:53Z</time>
      </trkpt>
      <trkpt lat="48.3977" lon="7.3924">
        <ele>296.6</ele>
        <time>2023-07-23T10:01:54Z</time>
      </trkpt>
      <trkpt lat="48.39768" lon="7.39235">
        <ele>296.7</ele>
        <time>2023-07-23T10:01:55Z</time>
      </trkpt>
      <trkpt lat="48.39768" lon="7.39231">
        <ele>296.8</ele>
        <time>2023-07-23T10:01:56Z</time>
      </trkpt>
      <trkpt lat="48.39766" lon="7.39227">
        <ele>296.9</ele>
        <time>2023-07-23T10:01:57Z</time>
      </trkpt>
      <trkpt lat="48.39765" lon="7.39223">
        <ele>297</ele>
        <time>2023-07-23T10:01:58Z</time>
      </trkpt>
      <trkpt lat="48.39764" lon="7.3922">
        <ele>297.1</ele>
        <time>2023-07-23T10:01:59Z</time>
      </trkpt>
      <trkpt lat="48.39763" lon="7.39215">
        <ele>297.2</ele>
        <time>2023-07-23T10:02:00Z</time>
      </trkpt>
      <trkpt lat="48.39761" lon="7.39211">
        <ele>297.2</ele>
        <time>2023-07-23T10:02:01Z</time>
      </trkpt>
      <trkpt lat="48.3976" lon="7.39207">
        <ele>297.3</ele>
        <time>2023-07-23T10:02:02Z</time>
      </trkpt>
      <trkpt lat="48.39759" lon="7.39203">
        <ele>297.4</ele>
        <time>2023-07-23T10:02:03Z</time>
      </trkpt>
      <trkpt lat="48.39758" lon="7.39199">
        <ele>297.5</ele>
        <time>2023-07-23T10:02:04Z</time>
      </trkpt>
      <trkpt lat="48.39756" lon="7.39194">
        <ele>297.6</ele>
        <time>2023-07-23T10:02:05Z</time>
      </trkpt>
      <trkpt lat="48.39755" lon="7.3919">
        <ele>297.7</ele>
        <time>2023-07-23T10:02:06Z</time>
      </trkpt>
      <trkpt lat="48.39754" lon="7.39186">
        <ele>297.8</ele>
        <time>2023-07-23T10:02:07Z</time>
      </trkpt>
      <trkpt lat="48.39753" lon="7.39182">
        <ele>297.9</ele>
        <time>2023-07-23T10:02:08Z</time>
      </trkpt>
      <trkpt lat="48.39751" lon="7.39177">
        <ele>298</ele>
        <time>2023-07-23T10:02:09Z</time>
      </trkpt>
      <trkpt lat="48.3975" lon="7.39173">
        <ele>298.1</ele>
        <time>2023-07-23T10:02:10Z</time>
      </trkpt>
      <trkpt lat="48.39749" lon="7.39169">
        <ele>298.2</ele>
        <time>2023-07-23T10:02:11Z</time>
      </trkpt>
      <trkpt lat="48.39747" lon="7.39165">
        <ele>298.3</ele>
        <time>2023-07-23T10:02:12Z</time>
      </trkpt>
      <trkpt lat="48.39746" lon="7.39161">
        <ele>298.4</ele>
        <time>2023-07-23T10:02:13Z</time>
      </trkpt>
      <trkpt lat="48.39745" lon="7.39156">
        <ele>298.5</ele>
        <time>2023-07-23T10:02:14Z</time>
      </trkpt>
      <trkpt lat="48.39743" lon="7.39152">
        <ele>298.6</ele>
        <time>2023-07-23T10:02:15Z</time>
      </trkpt>
      <trkpt lat="48.39742" lon="7.39148">
        <ele>298.7</ele>
        <time>2023-07-23T10:02:16Z</time>
      </trkpt>
      <trkpt lat="48.39741" lon="7.39143">
        <ele>298.9</ele>
        <time>2023-07-23T10:02:17Z</time>
      </trkpt>
      <trkpt lat="48.39739" lon="7.39139">
        <ele>299</ele>
        <time>2023-07-23T10:02:18Z</time>
      </trkpt>
      <trkpt lat="48.39738" lon="7.39134">
        <ele>299.1</ele>
        <time>2023-07-23T10:02:19Z</time>
      </trkpt>
      <trkpt lat="48.39736" lon="7.39131">
        <ele>299.2</ele>
        <time>2023-07-23T10:02:20Z</time>
      </trkpt>
      <trkpt lat="48.39735" lon="7.39127">
        <ele>299.3</ele>
        <time>2023-07-23T10:02:21Z</time>
      </trkpt>
      <trkpt lat="48.39734" lon="7.39122">
        <ele>299.4</ele>
        <time>2023-07-23T10:02:22Z</time>
      </trkpt>
      <trkpt lat="48.39733" lon="7.39118">
        <ele>299.5</ele>
        <time>2023-07-23T10:02:23Z</time>
      </trkpt>
      <trkpt lat="48.39731" lon="7.39114">
        <ele>299.7</ele>
        <time>2023-07-23T10:02:24Z</time>
      </trkpt>
      <trkpt lat="48.3973" lon="7.3911">
        <ele>299.8</ele>
        <time>2023-07-23T10:02:25Z</time>
      </trkpt>
      <trkpt lat="48.39729" lon="7.39106">
        <ele>299.9</ele>
        <time>2023-07-23T10:02:26Z</time>
      </trkpt>
      <trkpt lat="48.39727" lon="7.39102">
        <ele>300</ele>
        <time>2023-07-23T10:02:27Z</time>
      </trkpt>
      <trkpt lat="48.39726" lon="7.39098">
        <ele>300.1</ele>
        <time>2023-07-23T10:02:28Z</time>
      </trkpt>
      <trkpt lat="48.39725" lon="7.39094">
        <ele>300.2</ele>
        <time>2023-07-23T10:02:29Z</time>
      </trkpt>
      <trkpt lat="48.39723" lon="7.39091">
        <ele>300.3</ele>
        <time>2023-07-23T10:02:30Z</time>
      </trkpt>
      <trkpt lat="48.39721" lon="7.39086">
        <ele>300.5</ele>
        <time>2023-07-23T10:02:31Z</time>
      </trkpt>
      <trkpt lat="48.3972" lon="7.39084">
        <ele>300.5</ele>
        <time>2023-07-23T10:02:32Z</time>
      </trkpt>
      <trkpt lat="48.39719" lon="7.3908">
        <ele>300.6</ele>
        <time>2023-07-23T10:02:33Z</time>
      </trkpt>
      <trkpt lat="48.39717" lon="7.39076">
        <ele>300.7</ele>
        <time>2023-07-23T10:02:34Z</time>
      </trkpt>
      <trkpt lat="48.39716" lon="7.39072">
        <ele>300.8</ele>
        <time>2023-07-23T10:02:35Z</time>
      </trkpt>
      <trkpt lat="48.39715" lon="7.39068">
        <ele>301</ele>
        <time>2023-07-23T10:02:36Z</time>
      </trkpt>
      <trkpt lat="48.39713" lon="7.39064">
        <ele>301.1</ele>
        <time>2023-07-23T10:02:37Z</time>
      </trkpt>
      <trkpt lat="48.39711" lon="7.39061">
        <ele>301.2</ele>
        <time>2023-07-23T10:02:38Z</time>
      </trkpt>
      <trkpt lat="48.3971" lon="7.39057">
        <ele>301.4</ele>
        <time>2023-07-23T10:02:39Z</time>
      </trkpt>
      <trkpt lat="48.39708" lon="7.39053">
        <ele>301.5</ele>
        <time>2023-07-23T10:02:40Z</time>
      </trkpt>
      <trkpt lat="48.39706" lon="7.39049">
        <ele>301.6</ele>
        <time>2023-07-23T10:02:41Z</time>
      </trkpt>
      <trkpt lat="48.39705" lon="7.39045">
        <ele>301.8</ele>
        <time>2023-07-23T10:02:42Z</time>
      </trkpt>
      <trkpt lat="48.39703" lon="7.39041">
        <ele>301.9</ele>
        <time>2023-07-23T10:02:43Z</time>
      </trkpt>
      <trkpt lat="48.39701" lon="7.39038">
        <ele>302</ele>
        <time>2023-07-23T10:02:44Z</time>
      </trkpt>
      <trkpt lat="48.39699" lon="7.39033">
        <ele>302.2</ele>
        <time>2023-07-23T10:02:45Z</time>
      </trkpt>
      <trkpt lat="48.39697" lon="7.3903">
        <ele>302.3</ele>
        <time>2023-07-23T10:02:46Z</time>
      </trkpt>
      <trkpt lat="48.39696" lon="7.39025">
        <ele>302.4</ele>
        <time>2023-07-23T10:02:47Z</time>
      </trkpt>
      <trkpt lat="48.39694" lon="7.39023">
        <ele>302.5</ele>
        <time>2023-07-23T10:02:48Z</time>
      </trkpt>
      <trkpt lat="48.39692" lon="7.39019">
        <ele>302.6</ele>
        <time>2023-07-23T10:02:49Z</time>
      </trkpt>
      <trkpt lat="48.3969" lon="7.39015">
        <ele>302.8</ele>
        <time>2023-07-23T10:02:50Z</time>
      </trkpt>
      <trkpt lat="48.39688" lon="7.39011">
        <ele>302.9</ele>
        <time>2023-07-23T10:02:51Z</time>
      </trkpt>
      <trkpt lat="48.39686" lon="7.39007">
        <ele>303</ele>
        <time>2023-07-23T10:02:52Z</time>
      </trkpt>
      <trkpt lat="48.39684" lon="7.39003">
        <ele>303.2</ele>
        <time>2023-07-23T10:02:53Z</time>
      </trkpt>
      <trkpt lat="48.39682" lon="7.39">
        <ele>303.3</ele>
        <time>2023-07-23T10:02:54Z</time>
      </trkpt>
      <trkpt lat="48.39681" lon="7.38996">
        <ele>303.4</ele>
        <time>2023-07-23T10:02:55Z</time>
      </trkpt>
      <trkpt lat="48.39678" lon="7.38993">
        <ele>303.6</ele>
        <time>2023-07-23T10:02:56Z</time>
      </trkpt>
      <trkpt lat="48.39677" lon="7.38989">
        <ele>303.7</ele>
        <time>2023-07-23T10:02:57Z</time>
      </trkpt>
      <trkpt lat="48.39674" lon="7.38986">
        <ele>303.9</ele>
        <time>2023-07-23T10:02:58Z</time>
      </trkpt>
      <trkpt lat="48.39672" lon="7.38983">
        <ele>304</ele>
        <time>2023-07-23T10:02:59Z</time>
      </trkpt>
      <trkpt lat="48.3967" lon="7.38979">
        <ele>304.1</ele>
        <time>2023-07-23T10:03:00Z</time>
      </trkpt>
      <trkpt lat="48.39667" lon="7.38976">
        <ele>304.3</ele>
        <time>2023-07-23T10:03:01Z</time>
      </trkpt>
      <trkpt lat="48.39665" lon="7.38974">
        <ele>304.4</ele>
        <time>2023-07-23T10:03:02Z</time>
      </trkpt>
      <trkpt lat="48.39663" lon="7.3897">
        <ele>304.6</ele>
        <time>2023-07-23T10:03:03Z</time>
      </trkpt>
      <trkpt lat="48.3966" lon="7.38967">
        <ele>304.7</ele>
        <time>2023-07-23T10:03:04Z</time>
      </trkpt>
      <trkpt lat="48.39658" lon="7.38964">
        <ele>304.9</ele>
        <time>2023-07-23T10:03:05Z</time>
      </trkpt>
      <trkpt lat="48.39655" lon="7.38962">
        <ele>305</ele>
        <time>2023-07-23T10:03:06Z</time>
      </trkpt>
      <trkpt lat="48.39652" lon="7.38961">
        <ele>305.2</ele>
        <time>2023-07-23T10:03:07Z</time>
      </trkpt>
      <trkpt lat="48.3965" lon="7.38959">
        <ele>305.4</ele>
        <time>2023-07-23T10:03:08Z</time>
      </trkpt>
      <trkpt lat="48.39647" lon="7.38956">
        <ele>305.5</ele>
        <time>2023-07-23T10:03:09Z</time>
      </trkpt>
      <trkpt lat="48.39645" lon="7.38953">
        <ele>305.7</ele>
        <time>2023-07-23T10:03:10Z</time>
      </trkpt>
      <trkpt lat="48.39642" lon="7.38951">
        <ele>305.8</ele>
        <time>2023-07-23T10:03:11Z</time>
      </trkpt>
      <trkpt lat="48.39639" lon="7.38949">
        <ele>306</ele>
        <time>2023-07-23T10:03:12Z</time>
      </trkpt>
      <trkpt lat="48.39636" lon="7.38947">
        <ele>306.1</ele>
        <time>2023-07-23T10:03:13Z</time>
      </trkpt>
      <trkpt lat="48.39634" lon="7.38944">
        <ele>306.2</ele>
        <time>2023-07-23T10:03:14Z</time>
      </trkpt>
      <trkpt lat="48.39631" lon="7.38942">
        <ele>306.3</ele>
        <time>2023-07-23T10:03:15Z</time>
      </trkpt>
      <trkpt lat="48.39628" lon="7.3894">
        <ele>306.5</ele>
        <time>2023-07-23T10:03:16Z</time>
      </trkpt>
      <trkpt lat="48.39626" lon="7.38938">
        <ele>306.6</ele>
        <time>2023-07-23T10:03:17Z</time>
      </trkpt>
      <trkpt lat="48.39623" lon="7.38936">
        <ele>306.7</ele>
        <time>2023-07-23T10:03:18Z</time>
      </trkpt>
      <trkpt lat="48.39621" lon="7.38934">
        <ele>306.8</ele>
        <time>2023-07-23T10:03:19Z</time>
      </trkpt>
      <trkpt lat="48.39617" lon="7.38933">
        <ele>307</ele>
        <time>2023-07-23T10:03:20Z</time>
      </trkpt>
      <trkpt lat="48.39614" lon="7.38931">
        <ele>307.1</ele>
        <time>2023-07-23T10:03:21Z</time>
      </trkpt>
      <trkpt lat="48.39611" lon="7.3893">
        <ele>307.3</ele>
        <time>2023-07-23T10:03:22Z</time>
      </trkpt>
      <trkpt lat="48.39608" lon="7.38929">
        <ele>307.4</ele>
        <time>2023-07-23T10:03:23Z</time>
      </trkpt>
      <trkpt lat="48.39605" lon="7.38927">
        <ele>307.5</ele>
        <time>2023-07-23T10:03:24Z</time>
      </trkpt>
      <trkpt lat="48.39602" lon="7.38926">
        <ele>307.7</ele>
        <time>2023-07-23T10:03:25Z</time>
      </trkpt>
      <trkpt lat="48.39599" lon="7.38924">
        <ele>307.8</ele>
        <time>2023-07-23T10:03:26Z</time>
      </trkpt>
      <trkpt lat="48.39596" lon="7.38923">
        <ele>308</ele>
        <time>2023-07-23T10:03:27Z</time>
      </trkpt>
      <trkpt lat="48.39593" lon="7.38923">
        <ele>308.2</ele>
        <time>2023-07-23T10:03:28Z</time>
      </trkpt>
      <trkpt lat="48.3959" lon="7.38922">
        <ele>308.3</ele>
        <time>2023-07-23T10:03:29Z</time>
      </trkpt>
      <trkpt lat="48.39587" lon="7.38921">
        <ele>308.5</ele>
        <time>2023-07-23T10:03:30Z</time>
      </trkpt>
      <trkpt lat="48.39585" lon="7.3892">
        <ele>308.6</ele>
        <time>2023-07-23T10:03:31Z</time>
      </trkpt>
      <trkpt lat="48.39581" lon="7.3892">
        <ele>308.7</ele>
        <time>2023-07-23T10:03:32Z</time>
      </trkpt>
      <trkpt lat="48.39578" lon="7.38919">
        <ele>308.9</ele>
        <time>2023-07-23T10:03:33Z</time>
      </trkpt>
      <trkpt lat="48.39575" lon="7.38918">
        <ele>309</ele>
        <time>2023-07-23T10:03:34Z</time>
      </trkpt>
      <trkpt lat="48.39572" lon="7.38918">
        <ele>309.1</ele>
        <time>2023-07-23T10:03:35Z</time>
      </trkpt>
      <trkpt lat="48.39569" lon="7.38918">
        <ele>309.2</ele>
        <time>2023-07-23T10:03:36Z</time>
      </trkpt>
      <trkpt lat="48.39566" lon="7.38918">
        <ele>309.4</ele>
        <time>2023-07-23T10:03:37Z</time>
      </trkpt>
      <trkpt lat="48.39563" lon="7.38917">
        <ele>309.5</ele>
        <time>2023-07-23T10:03:38Z</time>
      </trkpt>
      <trkpt lat="48.39559" lon="7.38917">
        <ele>309.6</ele>
        <time>2023-07-23T10:03:39Z</time>
      </trkpt>
      <trkpt lat="48.39556" lon="7.38916">
        <ele>309.8</ele>
        <time>2023-07-23T10:03:40Z</time>
      </trkpt>
      <trkpt lat="48.39554" lon="7.38917">
        <ele>309.9</ele>
        <time>2023-07-23T10:03:41Z</time>
      </trkpt>
      <trkpt lat="48.3955" lon="7.38916">
        <ele>310</ele>
        <time>2023-07-23T10:03:42Z</time>
      </trkpt>
      <trkpt lat="48.39546" lon="7.38914">
        <ele>310.2</ele>
        <time>2023-07-23T10:03:43Z</time>
      </trkpt>
      <trkpt lat="48.39544" lon="7.38913">
        <ele>310.3</ele>
        <time>2023-07-23T10:03:44Z</time>
      </trkpt>
      <trkpt lat="48.39541" lon="7.38912">
        <ele>310.4</ele>
        <time>2023-07-23T10:03:45Z</time>
      </trkpt>
      <trkpt lat="48.39539" lon="7.38909">
        <ele>310.5</ele>
        <time>2023-07-23T10:03:47Z</time>
      </trkpt>
      <trkpt lat="48.39535" lon="7.38907">
        <ele>310.6</ele>
        <time>2023-07-23T10:03:48Z</time>
      </trkpt>
      <trkpt lat="48.39533" lon="7.38905">
        <ele>310.7</ele>
        <time>2023-07-23T10:03:49Z</time>
      </trkpt>
      <trkpt lat="48.3953" lon="7.38902">
        <ele>310.9</ele>
        <time>2023-07-23T10:03:50Z</time>
      </trkpt>
      <trkpt lat="48.39527" lon="7.38901">
        <ele>311</ele>
        <time>2023-07-23T10:03:51Z</time>
      </trkpt>
      <trkpt lat="48.39524" lon="7.38898">
        <ele>311.1</ele>
        <time>2023-07-23T10:03:52Z</time>
      </trkpt>
      <trkpt lat="48.39522" lon="7.38896">
        <ele>311.2</ele>
        <time>2023-07-23T10:03:53Z</time>
      </trkpt>
      <trkpt lat="48.3952" lon="7.38893">
        <ele>311.4</ele>
        <time>2023-07-23T10:03:54Z</time>
      </trkpt>
      <trkpt lat="48.39517" lon="7.38891">
        <ele>311.5</ele>
        <time>2023-07-23T10:03:55Z</time>
      </trkpt>
      <trkpt lat="48.39515" lon="7.38888">
        <ele>311.7</ele>
        <time>2023-07-23T10:03:56Z</time>
      </trkpt>
      <trkpt lat="48.39513" lon="7.38886">
        <ele>311.8</ele>
        <time>2023-07-23T10:03:57Z</time>
      </trkpt>
      <trkpt lat="48.3951" lon="7.38883">
        <ele>312</ele>
        <time>2023-07-23T10:03:58Z</time>
      </trkpt>
      <trkpt lat="48.39508" lon="7.38881">
        <ele>312.1</ele>
        <time>2023-07-23T10:03:59Z</time>
      </trkpt>
      <trkpt lat="48.39505" lon="7.38878">
        <ele>312.3</ele>
        <time>2023-07-23T10:04:00Z</time>
      </trkpt>
      <trkpt lat="48.39503" lon="7.38876">
        <ele>312.5</ele>
        <time>2023-07-23T10:04:01Z</time>
      </trkpt>
      <trkpt lat="48.395" lon="7.38873">
        <ele>312.6</ele>
        <time>2023-07-23T10:04:02Z</time>
      </trkpt>
      <trkpt lat="48.39498" lon="7.3887">
        <ele>312.8</ele>
        <time>2023-07-23T10:04:03Z</time>
      </trkpt>
      <trkpt lat="48.39495" lon="7.38868">
        <ele>312.9</ele>
        <time>2023-07-23T10:04:04Z</time>
      </trkpt>
      <trkpt lat="48.39492" lon="7.38865">
        <ele>313.1</ele>
        <time>2023-07-23T10:04:05Z</time>
      </trkpt>
      <trkpt lat="48.3949" lon="7.38863">
        <ele>313.2</ele>
        <time>2023-07-23T10:04:06Z</time>
      </trkpt>
      <trkpt lat="48.39487" lon="7.38859">
        <ele>313.4</ele>
        <time>2023-07-23T10:04:07Z</time>
      </trkpt>
      <trkpt lat="48.39484" lon="7.38856">
        <ele>313.6</ele>
        <time>2023-07-23T10:04:08Z</time>
      </trkpt>
      <trkpt lat="48.39482" lon="7.38854">
        <ele>313.7</ele>
        <time>2023-07-23T10:04:09Z</time>
      </trkpt>
      <trkpt lat="48.3948" lon="7.3885">
        <ele>313.9</ele>
        <time>2023-07-23T10:04:10Z</time>
      </trkpt>
      <trkpt lat="48.39477" lon="7.38847">
        <ele>314.1</ele>
        <time>2023-07-23T10:04:11Z</time>
      </trkpt>
      <trkpt lat="48.39476" lon="7.38842">
        <ele>314.3</ele>
        <time>2023-07-23T10:04:12Z</time>
      </trkpt>
      <trkpt lat="48.39474" lon="7.38838">
        <ele>314.4</ele>
        <time>2023-07-23T10:04:13Z</time>
      </trkpt>
      <trkpt lat="48.39471" lon="7.38828">
        <ele>314.7</ele>
        <time>2023-07-23T10:04:14Z</time>
      </trkpt>
      <trkpt lat="48.39469" lon="7.38825">
        <ele>314.8</ele>
        <time>2023-07-23T10:04:15Z</time>
      </trkpt>
      <trkpt lat="48.39468" lon="7.3882">
        <ele>315</ele>
        <time>2023-07-23T10:04:16Z</time>
      </trkpt>
      <trkpt lat="48.39466" lon="7.38816">
        <ele>315.1</ele>
        <time>2023-07-23T10:04:17Z</time>
      </trkpt>
      <trkpt lat="48.39465" lon="7.38811">
        <ele>315.2</ele>
        <time>2023-07-23T10:04:18Z</time>
      </trkpt>
      <trkpt lat="48.39464" lon="7.38806">
        <ele>315.3</ele>
        <time>2023-07-23T10:04:19Z</time>
      </trkpt>
      <trkpt lat="48.39463" lon="7.388">
        <ele>315.4</ele>
        <time>2023-07-23T10:04:20Z</time>
      </trkpt>
      <trkpt lat="48.39463" lon="7.38794">
        <ele>315.4</ele>
        <time>2023-07-23T10:04:21Z</time>
      </trkpt>
      <trkpt lat="48.39462" lon="7.38789">
        <ele>315.5</ele>
        <time>2023-07-23T10:04:22Z</time>
      </trkpt>
      <trkpt lat="48.39463" lon="7.38782">
        <ele>315.6</ele>
        <time>2023-07-23T10:04:23Z</time>
      </trkpt>
      <trkpt lat="48.39463" lon="7.38775">
        <ele>315.6</ele>
        <time>2023-07-23T10:04:24Z</time>
      </trkpt>
      <trkpt lat="48.39464" lon="7.38768">
        <ele>315.7</ele>
        <time>2023-07-23T10:04:25Z</time>
      </trkpt>
      <trkpt lat="48.39464" lon="7.38761">
        <ele>315.7</ele>
        <time>2023-07-23T10:04:26Z</time>
      </trkpt>
      <trkpt lat="48.39465" lon="7.38753">
        <ele>315.7</ele>
        <time>2023-07-23T10:04:27Z</time>
      </trkpt>
      <trkpt lat="48.39466" lon="7.38745">
        <ele>315.8</ele>
        <time>2023-07-23T10:04:28Z</time>
      </trkpt>
      <trkpt lat="48.39466" lon="7.38737">
        <ele>315.8</ele>
        <time>2023-07-23T10:04:29Z</time>
      </trkpt>
      <trkpt lat="48.39468" lon="7.38729">
        <ele>315.8</ele>
        <time>2023-07-23T10:04:30Z</time>
      </trkpt>
      <trkpt lat="48.39469" lon="7.38721">
        <ele>315.8</ele>
        <time>2023-07-23T10:04:31Z</time>
      </trkpt>
      <trkpt lat="48.3947" lon="7.38713">
        <ele>315.8</ele>
        <time>2023-07-23T10:04:32Z</time>
      </trkpt>
      <trkpt lat="48.39472" lon="7.38705">
        <ele>315.9</ele>
        <time>2023-07-23T10:04:33Z</time>
      </trkpt>
      <trkpt lat="48.39475" lon="7.38697">
        <ele>315.9</ele>
        <time>2023-07-23T10:04:34Z</time>
      </trkpt>
      <trkpt lat="48.39477" lon="7.38689">
        <ele>315.9</ele>
        <time>2023-07-23T10:04:35Z</time>
      </trkpt>
      <trkpt lat="48.3948" lon="7.38681">
        <ele>316</ele>
        <time>2023-07-23T10:04:36Z</time>
      </trkpt>
      <trkpt lat="48.39482" lon="7.38674">
        <ele>316</ele>
        <time>2023-07-23T10:04:37Z</time>
      </trkpt>
      <trkpt lat="48.39484" lon="7.38666">
        <ele>316.1</ele>
        <time>2023-07-23T10:04:38Z</time>
      </trkpt>
      <trkpt lat="48.39486" lon="7.38657">
        <ele>316.1</ele>
        <time>2023-07-23T10:04:39Z</time>
      </trkpt>
      <trkpt lat="48.39489" lon="7.38649">
        <ele>316.2</ele>
        <time>2023-07-23T10:04:40Z</time>
      </trkpt>
      <trkpt lat="48.3949" lon="7.38641">
        <ele>316.3</ele>
        <time>2023-07-23T10:04:41Z</time>
      </trkpt>
      <trkpt lat="48.39493" lon="7.38633">
        <ele>316.4</ele>
        <time>2023-07-23T10:04:42Z</time>
      </trkpt>
      <trkpt lat="48.39495" lon="7.38625">
        <ele>316.5</ele>
        <time>2023-07-23T10:04:43Z</time>
      </trkpt>
      <trkpt lat="48.39496" lon="7.38617">
        <ele>316.5</ele>
        <time>2023-07-23T10:04:44Z</time>
      </trkpt>
      <trkpt lat="48.39498" lon="7.38609">
        <ele>316.6</ele>
        <time>2023-07-23T10:04:45Z</time>
      </trkpt>
      <trkpt lat="48.39499" lon="7.38601">
        <ele>316.7</ele>
        <time>2023-07-23T10:04:46Z</time>
      </trkpt>
      <trkpt lat="48.395" lon="7.38594">
        <ele>316.7</ele>
        <time>2023-07-23T10:04:47Z</time>
      </trkpt>
      <trkpt lat="48.39502" lon="7.38586">
        <ele>316.8</ele>
        <time>2023-07-23T10:04:48Z</time>
      </trkpt>
      <trkpt lat="48.39502" lon="7.38579">
        <ele>316.9</ele>
        <time>2023-07-23T10:04:49Z</time>
      </trkpt>
      <trkpt lat="48.39503" lon="7.38572">
        <ele>317.1</ele>
        <time>2023-07-23T10:04:50Z</time>
      </trkpt>
      <trkpt lat="48.39504" lon="7.38565">
        <ele>317.3</ele>
        <time>2023-07-23T10:04:51Z</time>
      </trkpt>
      <trkpt lat="48.39504" lon="7.38559">
        <ele>317.5</ele>
        <time>2023-07-23T10:04:52Z</time>
      </trkpt>
      <trkpt lat="48.39505" lon="7.38552">
        <ele>317.6</ele>
        <time>2023-07-23T10:04:53Z</time>
      </trkpt>
      <trkpt lat="48.39505" lon="7.38546">
        <ele>317.8</ele>
        <time>2023-07-23T10:04:54Z</time>
      </trkpt>
      <trkpt lat="48.39506" lon="7.38539">
        <ele>318</ele>
        <time>2023-07-23T10:04:55Z</time>
      </trkpt>
      <trkpt lat="48.39507" lon="7.38533">
        <ele>318.1</ele>
        <time>2023-07-23T10:04:56Z</time>
      </trkpt>
      <trkpt lat="48.39507" lon="7.38527">
        <ele>318.3</ele>
        <time>2023-07-23T10:04:57Z</time>
      </trkpt>
      <trkpt lat="48.39508" lon="7.38521">
        <ele>318.5</ele>
        <time>2023-07-23T10:04:58Z</time>
      </trkpt>
      <trkpt lat="48.39508" lon="7.38515">
        <ele>318.6</ele>
        <time>2023-07-23T10:04:59Z</time>
      </trkpt>
      <trkpt lat="48.39509" lon="7.38509">
        <ele>318.8</ele>
        <time>2023-07-23T10:05:00Z</time>
      </trkpt>
      <trkpt lat="48.3951" lon="7.38503">
        <ele>319</ele>
        <time>2023-07-23T10:05:01Z</time>
      </trkpt>
      <trkpt lat="48.3951" lon="7.38498">
        <ele>319.1</ele>
        <time>2023-07-23T10:05:02Z</time>
      </trkpt>
      <trkpt lat="48.39511" lon="7.38491">
        <ele>319.3</ele>
        <time>2023-07-23T10:05:03Z</time>
      </trkpt>
      <trkpt lat="48.39511" lon="7.38486">
        <ele>319.4</ele>
        <time>2023-07-23T10:05:04Z</time>
      </trkpt>
      <trkpt lat="48.39512" lon="7.3848">
        <ele>319.6</ele>
        <time>2023-07-23T10:05:05Z</time>
      </trkpt>
      <trkpt lat="48.39512" lon="7.38474">
        <ele>319.8</ele>
        <time>2023-07-23T10:05:06Z</time>
      </trkpt>
      <trkpt lat="48.39513" lon="7.38468">
        <ele>319.9</ele>
        <time>2023-07-23T10:05:07Z</time>
      </trkpt>
      <trkpt lat="48.39513" lon="7.38462">
        <ele>320.1</ele>
        <time>2023-07-23T10:05:08Z</time>
      </trkpt>
      <trkpt lat="48.39514" lon="7.38456">
        <ele>320.2</ele>
        <time>2023-07-23T10:05:09Z</time>
      </trkpt>
      <trkpt lat="48.39514" lon="7.38451">
        <ele>320.4</ele>
        <time>2023-07-23T10:05:10Z</time>
      </trkpt>
      <trkpt lat="48.39515" lon="7.38445">
        <ele>320.5</ele>
        <time>2023-07-23T10:05:11Z</time>
      </trkpt>
      <trkpt lat="48.39515" lon="7.38439">
        <ele>320.7</ele>
        <time>2023-07-23T10:05:12Z</time>
      </trkpt>
      <trkpt lat="48.39516" lon="7.38433">
        <ele>320.8</ele>
        <time>2023-07-23T10:05:13Z</time>
      </trkpt>
      <trkpt lat="48.39516" lon="7.38427">
        <ele>321</ele>
        <time>2023-07-23T10:05:14Z</time>
      </trkpt>
      <trkpt lat="48.39517" lon="7.38422">
        <ele>321.1</ele>
        <time>2023-07-23T10:05:15Z</time>
      </trkpt>
      <trkpt lat="48.39518" lon="7.38416">
        <ele>321.3</ele>
        <time>2023-07-23T10:05:16Z</time>
      </trkpt>
      <trkpt lat="48.39518" lon="7.3841">
        <ele>321.5</ele>
        <time>2023-07-23T10:05:17Z</time>
      </trkpt>
      <trkpt lat="48.39519" lon="7.38404">
        <ele>321.7</ele>
        <time>2023-07-23T10:05:18Z</time>
      </trkpt>
      <trkpt lat="48.3952" lon="7.38398">
        <ele>321.8</ele>
        <time>2023-07-23T10:05:19Z</time>
      </trkpt>
      <trkpt lat="48.3952" lon="7.38392">
        <ele>322</ele>
        <time>2023-07-23T10:05:20Z</time>
      </trkpt>
      <trkpt lat="48.39521" lon="7.38386">
        <ele>322.2</ele>
        <time>2023-07-23T10:05:21Z</time>
      </trkpt>
      <trkpt lat="48.39521" lon="7.3838">
        <ele>322.3</ele>
        <time>2023-07-23T10:05:22Z</time>
      </trkpt>
      <trkpt lat="48.39522" lon="7.38374">
        <ele>322.5</ele>
        <time>2023-07-23T10:05:23Z</time>
      </trkpt>
      <trkpt lat="48.39522" lon="7.38368">
        <ele>322.6</ele>
        <time>2023-07-23T10:05:24Z</time>
      </trkpt>
      <trkpt lat="48.39523" lon="7.38362">
        <ele>322.8</ele>
        <time>2023-07-23T10:05:25Z</time>
      </trkpt>
      <trkpt lat="48.39523" lon="7.38355">
        <ele>322.9</ele>
        <time>2023-07-23T10:05:26Z</time>
      </trkpt>
      <trkpt lat="48.39524" lon="7.3835">
        <ele>323.1</ele>
        <time>2023-07-23T10:05:27Z</time>
      </trkpt>
      <trkpt lat="48.39524" lon="7.38344">
        <ele>323.2</ele>
        <time>2023-07-23T10:05:28Z</time>
      </trkpt>
      <trkpt lat="48.39525" lon="7.38338">
        <ele>323.4</ele>
        <time>2023-07-23T10:05:29Z</time>
      </trkpt>
      <trkpt lat="48.39526" lon="7.38333">
        <ele>323.5</ele>
        <time>2023-07-23T10:05:30Z</time>
      </trkpt>
      <trkpt lat="48.39526" lon="7.38327">
        <ele>323.6</ele>
        <time>2023-07-23T10:05:31Z</time>
      </trkpt>
      <trkpt lat="48.39527" lon="7.38322">
        <ele>323.7</ele>
        <time>2023-07-23T10:05:32Z</time>
      </trkpt>
      <trkpt lat="48.39527" lon="7.38316">
        <ele>323.9</ele>
        <time>2023-07-23T10:05:33Z</time>
      </trkpt>
      <trkpt lat="48.39527" lon="7.38311">
        <ele>324</ele>
        <time>2023-07-23T10:05:34Z</time>
      </trkpt>
      <trkpt lat="48.39528" lon="7.38306">
        <ele>324.1</ele>
        <time>2023-07-23T10:05:35Z</time>
      </trkpt>
      <trkpt lat="48.39529" lon="7.38301">
        <ele>324.2</ele>
        <time>2023-07-23T10:05:36Z</time>
      </trkpt>
      <trkpt lat="48.39529" lon="7.38296">
        <ele>324.3</ele>
        <time>2023-07-23T10:05:37Z</time>
      </trkpt>
      <trkpt lat="48.3953" lon="7.38291">
        <ele>324.4</ele>
        <time>2023-07-23T10:05:38Z</time>
      </trkpt>
      <trkpt lat="48.39531" lon="7.38285">
        <ele>324.6</ele>
        <time>2023-07-23T10:05:39Z</time>
      </trkpt>
      <trkpt lat="48.39532" lon="7.3828">
        <ele>324.7</ele>
        <time>2023-07-23T10:05:40Z</time>
      </trkpt>
      <trkpt lat="48.39533" lon="7.38275">
        <ele>324.8</ele>
        <time>2023-07-23T10:05:41Z</time>
      </trkpt>
      <trkpt lat="48.39534" lon="7.3827">
        <ele>324.9</ele>
        <time>2023-07-23T10:05:42Z</time>
      </trkpt>
      <trkpt lat="48.39536" lon="7.38265">
        <ele>325</ele>
        <time>2023-07-23T10:05:43Z</time>
      </trkpt>
      <trkpt lat="48.39537" lon="7.3826">
        <ele>325.2</ele>
        <time>2023-07-23T10:05:44Z</time>
      </trkpt>
      <trkpt lat="48.39539" lon="7.38255">
        <ele>325.3</ele>
        <time>2023-07-23T10:05:45Z</time>
      </trkpt>
      <trkpt lat="48.39539" lon="7.3825">
        <ele>325.4</ele>
        <time>2023-07-23T10:05:46Z</time>
      </trkpt>
      <trkpt lat="48.39541" lon="7.38245">
        <ele>325.5</ele>
        <time>2023-07-23T10:05:47Z</time>
      </trkpt>
      <trkpt lat="48.39542" lon="7.3824">
        <ele>325.6</ele>
        <time>2023-07-23T10:05:48Z</time>
      </trkpt>
      <trkpt lat="48.39544" lon="7.38236">
        <ele>325.8</ele>
        <time>2023-07-23T10:05:49Z</time>
      </trkpt>
      <trkpt lat="48.39545" lon="7.38231">
        <ele>325.9</ele>
        <time>2023-07-23T10:05:50Z</time>
      </trkpt>
      <trkpt lat="48.39547" lon="7.38227">
        <ele>326</ele>
        <time>2023-07-23T10:05:51Z</time>
      </trkpt>
      <trkpt lat="48.39549" lon="7.38223">
        <ele>326.1</ele>
        <time>2023-07-23T10:05:53Z</time>
      </trkpt>
      <trkpt lat="48.3955" lon="7.38218">
        <ele>326.2</ele>
        <time>2023-07-23T10:05:54Z</time>
      </trkpt>
      <trkpt lat="48.39551" lon="7.38214">
        <ele>326.3</ele>
        <time>2023-07-23T10:05:55Z</time>
      </trkpt>
      <trkpt lat="48.39553" lon="7.3821">
        <ele>326.5</ele>
        <time>2023-07-23T10:05:56Z</time>
      </trkpt>
      <trkpt lat="48.39555" lon="7.38205">
        <ele>326.6</ele>
        <time>2023-07-23T10:05:57Z</time>
      </trkpt>
      <trkpt lat="48.39557" lon="7.38201">
        <ele>326.7</ele>
        <time>2023-07-23T10:05:58Z</time>
      </trkpt>
      <trkpt lat="48.39558" lon="7.38197">
        <ele>326.8</ele>
        <time>2023-07-23T10:05:59Z</time>
      </trkpt>
      <trkpt lat="48.39559" lon="7.38191">
        <ele>326.9</ele>
        <time>2023-07-23T10:06:00Z</time>
      </trkpt>
      <trkpt lat="48.3956" lon="7.38187">
        <ele>327</ele>
        <time>2023-07-23T10:06:01Z</time>
      </trkpt>
      <trkpt lat="48.39561" lon="7.38182">
        <ele>327.1</ele>
        <time>2023-07-23T10:06:02Z</time>
      </trkpt>
      <trkpt lat="48.39562" lon="7.38177">
        <ele>327.2</ele>
        <time>2023-07-23T10:06:03Z</time>
      </trkpt>
      <trkpt lat="48.39564" lon="7.38174">
        <ele>327.3</ele>
        <time>2023-07-23T10:06:04Z</time>
      </trkpt>
      <trkpt lat="48.39564" lon="7.38169">
        <ele>327.4</ele>
        <time>2023-07-23T10:06:05Z</time>
      </trkpt>
      <trkpt lat="48.39565" lon="7.38164">
        <ele>327.5</ele>
        <time>2023-07-23T10:06:06Z</time>
      </trkpt>
      <trkpt lat="48.39565" lon="7.38159">
        <ele>327.6</ele>
        <time>2023-07-23T10:06:07Z</time>
      </trkpt>
      <trkpt lat="48.39566" lon="7.38154">
        <ele>327.7</ele>
        <time>2023-07-23T10:06:08Z</time>
      </trkpt>
      <trkpt lat="48.39567" lon="7.38149">
        <ele>327.8</ele>
        <time>2023-07-23T10:06:09Z</time>
      </trkpt>
      <trkpt lat="48.39567" lon="7.38144">
        <ele>327.8</ele>
        <time>2023-07-23T10:06:10Z</time>
      </trkpt>
      <trkpt lat="48.39568" lon="7.38139">
        <ele>327.9</ele>
        <time>2023-07-23T10:06:11Z</time>
      </trkpt>
      <trkpt lat="48.39568" lon="7.38134">
        <ele>328</ele>
        <time>2023-07-23T10:06:12Z</time>
      </trkpt>
      <trkpt lat="48.39568" lon="7.38129">
        <ele>328.1</ele>
        <time>2023-07-23T10:06:13Z</time>
      </trkpt>
      <trkpt lat="48.39568" lon="7.38123">
        <ele>328.2</ele>
        <time>2023-07-23T10:06:14Z</time>
      </trkpt>
      <trkpt lat="48.39568" lon="7.38118">
        <ele>328.3</ele>
        <time>2023-07-23T10:06:15Z</time>
      </trkpt>
      <trkpt lat="48.39568" lon="7.38113">
        <ele>328.4</ele>
        <time>2023-07-23T10:06:16Z</time>
      </trkpt>
      <trkpt lat="48.39568" lon="7.38108">
        <ele>328.5</ele>
        <time>2023-07-23T10:06:17Z</time>
      </trkpt>
      <trkpt lat="48.39567" lon="7.38103">
        <ele>328.6</ele>
        <time>2023-07-23T10:06:18Z</time>
      </trkpt>
      <trkpt lat="48.39567" lon="7.38097">
        <ele>328.7</ele>
        <time>2023-07-23T10:06:19Z</time>
      </trkpt>
      <trkpt lat="48.39566" lon="7.38093">
        <ele>328.8</ele>
        <time>2023-07-23T10:06:20Z</time>
      </trkpt>
      <trkpt lat="48.39565" lon="7.38087">
        <ele>328.9</ele>
        <time>2023-07-23T10:06:21Z</time>
      </trkpt>
      <trkpt lat="48.39564" lon="7.38082">
        <ele>329</ele>
        <time>2023-07-23T10:06:22Z</time>
      </trkpt>
      <trkpt lat="48.39563" lon="7.38076">
        <ele>329.1</ele>
        <time>2023-07-23T10:06:23Z</time>
      </trkpt>
      <trkpt lat="48.39562" lon="7.38071">
        <ele>329.2</ele>
        <time>2023-07-23T10:06:24Z</time>
      </trkpt>
      <trkpt lat="48.39561" lon="7.38065">
        <ele>329.3</ele>
        <time>2023-07-23T10:06:25Z</time>
      </trkpt>
      <trkpt lat="48.3956" lon="7.38058">
        <ele>329.4</ele>
        <time>2023-07-23T10:06:26Z</time>
      </trkpt>
      <trkpt lat="48.39559" lon="7.38052">
        <ele>329.4</ele>
        <time>2023-07-23T10:06:27Z</time>
      </trkpt>
      <trkpt lat="48.39558" lon="7.38046">
        <ele>329.5</ele>
        <time>2023-07-23T10:06:28Z</time>
      </trkpt>
      <trkpt lat="48.39557" lon="7.38039">
        <ele>329.6</ele>
        <time>2023-07-23T10:06:29Z</time>
      </trkpt>
      <trkpt lat="48.39556" lon="7.38032">
        <ele>329.7</ele>
        <time>2023-07-23T10:06:30Z</time>
      </trkpt>
      <trkpt lat="48.39555" lon="7.38026">
        <ele>329.8</ele>
        <time>2023-07-23T10:06:31Z</time>
      </trkpt>
      <trkpt lat="48.39554" lon="7.38019">
        <ele>329.9</ele>
        <time>2023-07-23T10:06:32Z</time>
      </trkpt>
      <trkpt lat="48.39553" lon="7.38013">
        <ele>330</ele>
        <time>2023-07-23T10:06:33Z</time>
      </trkpt>
      <trkpt lat="48.39552" lon="7.38007">
        <ele>330</ele>
        <time>2023-07-23T10:06:34Z</time>
      </trkpt>
      <trkpt lat="48.39552" lon="7.38">
        <ele>330.1</ele>
        <time>2023-07-23T10:06:35Z</time>
      </trkpt>
      <trkpt lat="48.39552" lon="7.37994">
        <ele>330.2</ele>
        <time>2023-07-23T10:06:36Z</time>
      </trkpt>
      <trkpt lat="48.39553" lon="7.37988">
        <ele>330.3</ele>
        <time>2023-07-23T10:06:37Z</time>
      </trkpt>
      <trkpt lat="48.39553" lon="7.37982">
        <ele>330.4</ele>
        <time>2023-07-23T10:06:38Z</time>
      </trkpt>
      <trkpt lat="48.39554" lon="7.37976">
        <ele>330.5</ele>
        <time>2023-07-23T10:06:39Z</time>
      </trkpt>
      <trkpt lat="48.39554" lon="7.3797">
        <ele>330.6</ele>
        <time>2023-07-23T10:06:40Z</time>
      </trkpt>
      <trkpt lat="48.39555" lon="7.37964">
        <ele>330.7</ele>
        <time>2023-07-23T10:06:41Z</time>
      </trkpt>
      <trkpt lat="48.39556" lon="7.37959">
        <ele>330.8</ele>
        <time>2023-07-23T10:06:42Z</time>
      </trkpt>
      <trkpt lat="48.39556" lon="7.37953">
        <ele>330.9</ele>
        <time>2023-07-23T10:06:43Z</time>
      </trkpt>
      <trkpt lat="48.39557" lon="7.37947">
        <ele>331</ele>
        <time>2023-07-23T10:06:44Z</time>
      </trkpt>
      <trkpt lat="48.39557" lon="7.37942">
        <ele>331.1</ele>
        <time>2023-07-23T10:06:45Z</time>
      </trkpt>
      <trkpt lat="48.39559" lon="7.37936">
        <ele>331.2</ele>
        <time>2023-07-23T10:06:46Z</time>
      </trkpt>
      <trkpt lat="48.39559" lon="7.37931">
        <ele>331.3</ele>
        <time>2023-07-23T10:06:47Z</time>
      </trkpt>
      <trkpt lat="48.3956" lon="7.37925">
        <ele>331.4</ele>
        <time>2023-07-23T10:06:48Z</time>
      </trkpt>
      <trkpt lat="48.3956" lon="7.3792">
        <ele>331.5</ele>
        <time>2023-07-23T10:06:49Z</time>
      </trkpt>
      <trkpt lat="48.39561" lon="7.37914">
        <ele>331.6</ele>
        <time>2023-07-23T10:06:50Z</time>
      </trkpt>
      <trkpt lat="48.39561" lon="7.37908">
        <ele>331.7</ele>
        <time>2023-07-23T10:06:51Z</time>
      </trkpt>
      <trkpt lat="48.39563" lon="7.37902">
        <ele>331.7</ele>
        <time>2023-07-23T10:06:52Z</time>
      </trkpt>
      <trkpt lat="48.39563" lon="7.37896">
        <ele>331.8</ele>
        <time>2023-07-23T10:06:53Z</time>
      </trkpt>
      <trkpt lat="48.39564" lon="7.3789">
        <ele>331.9</ele>
        <time>2023-07-23T10:06:54Z</time>
      </trkpt>
      <trkpt lat="48.39565" lon="7.37885">
        <ele>332</ele>
        <time>2023-07-23T10:06:55Z</time>
      </trkpt>
      <trkpt lat="48.39566" lon="7.37879">
        <ele>332.1</ele>
        <time>2023-07-23T10:06:56Z</time>
      </trkpt>
      <trkpt lat="48.39566" lon="7.37874">
        <ele>332.2</ele>
        <time>2023-07-23T10:06:57Z</time>
      </trkpt>
      <trkpt lat="48.39567" lon="7.37867">
        <ele>332.3</ele>
        <time>2023-07-23T10:06:58Z</time>
      </trkpt>
      <trkpt lat="48.39568" lon="7.37862">
        <ele>332.3</ele>
        <time>2023-07-23T10:06:59Z</time>
      </trkpt>
      <trkpt lat="48.39569" lon="7.37857">
        <ele>332.4</ele>
        <time>2023-07-23T10:07:00Z</time>
      </trkpt>
      <trkpt lat="48.3957" lon="7.37852">
        <ele>332.5</ele>
        <time>2023-07-23T10:07:01Z</time>
      </trkpt>
      <trkpt lat="48.39571" lon="7.3784">
        <ele>332.6</ele>
        <time>2023-07-23T10:07:02Z</time>
      </trkpt>
      <trkpt lat="48.39572" lon="7.37834">
        <ele>332.7</ele>
        <time>2023-07-23T10:07:03Z</time>
      </trkpt>
      <trkpt lat="48.39573" lon="7.37828">
        <ele>332.7</ele>
        <time>2023-07-23T10:07:04Z</time>
      </trkpt>
      <trkpt lat="48.39574" lon="7.37822">
        <ele>332.8</ele>
        <time>2023-07-23T10:07:05Z</time>
      </trkpt>
      <trkpt lat="48.39575" lon="7.37817">
        <ele>332.9</ele>
        <time>2023-07-23T10:07:06Z</time>
      </trkpt>
      <trkpt lat="48.39576" lon="7.37811">
        <ele>333</ele>
        <time>2023-07-23T10:07:07Z</time>
      </trkpt>
      <trkpt lat="48.39577" lon="7.37805">
        <ele>333.1</ele>
        <time>2023-07-23T10:07:08Z</time>
      </trkpt>
      <trkpt lat="48.39578" lon="7.378">
        <ele>333.2</ele>
        <time>2023-07-23T10:07:09Z</time>
      </trkpt>
      <trkpt lat="48.3958" lon="7.37794">
        <ele>333.3</ele>
        <time>2023-07-23T10:07:10Z</time>
      </trkpt>
      <trkpt lat="48.39582" lon="7.37788">
        <ele>333.4</ele>
        <time>2023-07-23T10:07:11Z</time>
      </trkpt>
      <trkpt lat="48.39583" lon="7.37783">
        <ele>333.5</ele>
        <time>2023-07-23T10:07:12Z</time>
      </trkpt>
      <trkpt lat="48.39585" lon="7.37777">
        <ele>333.6</ele>
        <time>2023-07-23T10:07:13Z</time>
      </trkpt>
      <trkpt lat="48.39586" lon="7.37772">
        <ele>333.7</ele>
        <time>2023-07-23T10:07:14Z</time>
      </trkpt>
      <trkpt lat="48.39588" lon="7.37767">
        <ele>333.8</ele>
        <time>2023-07-23T10:07:15Z</time>
      </trkpt>
      <trkpt lat="48.3959" lon="7.37762">
        <ele>334</ele>
        <time>2023-07-23T10:07:16Z</time>
      </trkpt>
      <trkpt lat="48.39592" lon="7.37757">
        <ele>334.1</ele>
        <time>2023-07-23T10:07:17Z</time>
      </trkpt>
      <trkpt lat="48.39594" lon="7.37752">
        <ele>334.3</ele>
        <time>2023-07-23T10:07:18Z</time>
      </trkpt>
      <trkpt lat="48.39596" lon="7.37747">
        <ele>334.4</ele>
        <time>2023-07-23T10:07:19Z</time>
      </trkpt>
      <trkpt lat="48.39597" lon="7.37742">
        <ele>334.6</ele>
        <time>2023-07-23T10:07:20Z</time>
      </trkpt>
      <trkpt lat="48.39599" lon="7.37738">
        <ele>334.7</ele>
        <time>2023-07-23T10:07:21Z</time>
      </trkpt>
      <trkpt lat="48.39601" lon="7.37733">
        <ele>334.8</ele>
        <time>2023-07-23T10:07:22Z</time>
      </trkpt>
      <trkpt lat="48.39603" lon="7.37729">
        <ele>334.9</ele>
        <time>2023-07-23T10:07:23Z</time>
      </trkpt>
      <trkpt lat="48.39605" lon="7.37724">
        <ele>335</ele>
        <time>2023-07-23T10:07:24Z</time>
      </trkpt>
      <trkpt lat="48.39607" lon="7.3772">
        <ele>335.2</ele>
        <time>2023-07-23T10:07:25Z</time>
      </trkpt>
      <trkpt lat="48.39608" lon="7.37715">
        <ele>335.3</ele>
        <time>2023-07-23T10:07:26Z</time>
      </trkpt>
      <trkpt lat="48.3961" lon="7.37711">
        <ele>335.4</ele>
        <time>2023-07-23T10:07:27Z</time>
      </trkpt>
      <trkpt lat="48.39612" lon="7.37706">
        <ele>335.5</ele>
        <time>2023-07-23T10:07:28Z</time>
      </trkpt>
      <trkpt lat="48.39614" lon="7.37702">
        <ele>335.6</ele>
        <time>2023-07-23T10:07:29Z</time>
      </trkpt>
      <trkpt lat="48.39615" lon="7.37698">
        <ele>335.7</ele>
        <time>2023-07-23T10:07:30Z</time>
      </trkpt>
      <trkpt lat="48.39617" lon="7.37693">
        <ele>335.9</ele>
        <time>2023-07-23T10:07:31Z</time>
      </trkpt>
      <trkpt lat="48.39618" lon="7.37688">
        <ele>336</ele>
        <time>2023-07-23T10:07:32Z</time>
      </trkpt>
      <trkpt lat="48.3962" lon="7.37684">
        <ele>336.1</ele>
        <time>2023-07-23T10:07:33Z</time>
      </trkpt>
      <trkpt lat="48.39621" lon="7.37679">
        <ele>336.2</ele>
        <time>2023-07-23T10:07:34Z</time>
      </trkpt>
      <trkpt lat="48.39622" lon="7.37675">
        <ele>336.3</ele>
        <time>2023-07-23T10:07:35Z</time>
      </trkpt>
      <trkpt lat="48.39624" lon="7.3767">
        <ele>336.4</ele>
        <time>2023-07-23T10:07:36Z</time>
      </trkpt>
      <trkpt lat="48.39624" lon="7.37665">
        <ele>336.5</ele>
        <time>2023-07-23T10:07:37Z</time>
      </trkpt>
      <trkpt lat="48.39625" lon="7.3766">
        <ele>336.6</ele>
        <time>2023-07-23T10:07:38Z</time>
      </trkpt>
      <trkpt lat="48.39626" lon="7.37655">
        <ele>336.7</ele>
        <time>2023-07-23T10:07:39Z</time>
      </trkpt>
      <trkpt lat="48.39628" lon="7.3765">
        <ele>336.9</ele>
        <time>2023-07-23T10:07:40Z</time>
      </trkpt>
      <trkpt lat="48.39628" lon="7.37645">
        <ele>337</ele>
        <time>2023-07-23T10:07:41Z</time>
      </trkpt>
      <trkpt lat="48.39629" lon="7.3764">
        <ele>337.1</ele>
        <time>2023-07-23T10:07:42Z</time>
      </trkpt>
      <trkpt lat="48.3963" lon="7.37635">
        <ele>337.2</ele>
        <time>2023-07-23T10:07:43Z</time>
      </trkpt>
      <trkpt lat="48.39631" lon="7.3763">
        <ele>337.3</ele>
        <time>2023-07-23T10:07:44Z</time>
      </trkpt>
      <trkpt lat="48.39631" lon="7.37625">
        <ele>337.4</ele>
        <time>2023-07-23T10:07:45Z</time>
      </trkpt>
      <trkpt lat="48.39632" lon="7.3762">
        <ele>337.5</ele>
        <time>2023-07-23T10:07:46Z</time>
      </trkpt>
      <trkpt lat="48.39632" lon="7.37614">
        <ele>337.6</ele>
        <time>2023-07-23T10:07:47Z</time>
      </trkpt>
      <trkpt lat="48.39632" lon="7.37609">
        <ele>337.7</ele>
        <time>2023-07-23T10:07:48Z</time>
      </trkpt>
      <trkpt lat="48.39632" lon="7.37603">
        <ele>337.8</ele>
        <time>2023-07-23T10:07:49Z</time>
      </trkpt>
      <trkpt lat="48.39632" lon="7.37598">
        <ele>337.9</ele>
        <time>2023-07-23T10:07:50Z</time>
      </trkpt>
      <trkpt lat="48.39632" lon="7.37593">
        <ele>338</ele>
        <time>2023-07-23T10:07:51Z</time>
      </trkpt>
      <trkpt lat="48.39632" lon="7.37588">
        <ele>338.1</ele>
        <time>2023-07-23T10:07:52Z</time>
      </trkpt>
      <trkpt lat="48.39632" lon="7.37583">
        <ele>338.1</ele>
        <time>2023-07-23T10:07:53Z</time>
      </trkpt>
      <trkpt lat="48.39631" lon="7.37578">
        <ele>338.2</ele>
        <time>2023-07-23T10:07:54Z</time>
      </trkpt>
      <trkpt lat="48.39631" lon="7.37573">
        <ele>338.3</ele>
        <time>2023-07-23T10:07:55Z</time>
      </trkpt>
      <trkpt lat="48.3963" lon="7.37568">
        <ele>338.4</ele>
        <time>2023-07-23T10:07:56Z</time>
      </trkpt>
      <trkpt lat="48.3963" lon="7.37562">
        <ele>338.5</ele>
        <time>2023-07-23T10:07:57Z</time>
      </trkpt>
      <trkpt lat="48.39629" lon="7.37557">
        <ele>338.6</ele>
        <time>2023-07-23T10:07:59Z</time>
      </trkpt>
      <trkpt lat="48.39628" lon="7.37552">
        <ele>338.8</ele>
        <time>2023-07-23T10:08:00Z</time>
      </trkpt>
      <trkpt lat="48.39627" lon="7.37547">
        <ele>338.9</ele>
        <time>2023-07-23T10:08:01Z</time>
      </trkpt>
      <trkpt lat="48.39626" lon="7.37542">
        <ele>339</ele>
        <time>2023-07-23T10:08:02Z</time>
      </trkpt>
      <trkpt lat="48.39625" lon="7.37537">
        <ele>339.1</ele>
        <time>2023-07-23T10:08:03Z</time>
      </trkpt>
      <trkpt lat="48.39624" lon="7.37532">
        <ele>339.2</ele>
        <time>2023-07-23T10:08:04Z</time>
      </trkpt>
      <trkpt lat="48.39623" lon="7.37527">
        <ele>339.3</ele>
        <time>2023-07-23T10:08:05Z</time>
      </trkpt>
      <trkpt lat="48.39622" lon="7.37522">
        <ele>339.4</ele>
        <time>2023-07-23T10:08:06Z</time>
      </trkpt>
      <trkpt lat="48.39621" lon="7.37517">
        <ele>339.6</ele>
        <time>2023-07-23T10:08:07Z</time>
      </trkpt>
      <trkpt lat="48.3962" lon="7.37512">
        <ele>339.7</ele>
        <time>2023-07-23T10:08:08Z</time>
      </trkpt>
      <trkpt lat="48.39619" lon="7.37507">
        <ele>339.8</ele>
        <time>2023-07-23T10:08:09Z</time>
      </trkpt>
      <trkpt lat="48.39618" lon="7.37502">
        <ele>339.9</ele>
        <time>2023-07-23T10:08:10Z</time>
      </trkpt>
      <trkpt lat="48.39617" lon="7.37497">
        <ele>340</ele>
        <time>2023-07-23T10:08:11Z</time>
      </trkpt>
      <trkpt lat="48.39616" lon="7.37492">
        <ele>340.1</ele>
        <time>2023-07-23T10:08:12Z</time>
      </trkpt>
      <trkpt lat="48.39614" lon="7.37488">
        <ele>340.2</ele>
        <time>2023-07-23T10:08:13Z</time>
      </trkpt>
      <trkpt lat="48.39613" lon="7.37483">
        <ele>340.4</ele>
        <time>2023-07-23T10:08:14Z</time>
      </trkpt>
      <trkpt lat="48.39612" lon="7.37478">
        <ele>340.5</ele>
        <time>2023-07-23T10:08:15Z</time>
      </trkpt>
      <trkpt lat="48.3961" lon="7.37473">
        <ele>340.6</ele>
        <time>2023-07-23T10:08:16Z</time>
      </trkpt>
      <trkpt lat="48.39609" lon="7.37468">
        <ele>340.7</ele>
        <time>2023-07-23T10:08:17Z</time>
      </trkpt>
      <trkpt lat="48.39608" lon="7.37463">
        <ele>340.8</ele>
        <time>2023-07-23T10:08:18Z</time>
      </trkpt>
      <trkpt lat="48.39607" lon="7.37459">
        <ele>340.9</ele>
        <time>2023-07-23T10:08:19Z</time>
      </trkpt>
      <trkpt lat="48.39606" lon="7.37454">
        <ele>341</ele>
        <time>2023-07-23T10:08:20Z</time>
      </trkpt>
      <trkpt lat="48.39605" lon="7.37449">
        <ele>341.1</ele>
        <time>2023-07-23T10:08:21Z</time>
      </trkpt>
      <trkpt lat="48.39604" lon="7.37444">
        <ele>341.2</ele>
        <time>2023-07-23T10:08:22Z</time>
      </trkpt>
      <trkpt lat="48.39602" lon="7.37439">
        <ele>341.3</ele>
        <time>2023-07-23T10:08:23Z</time>
      </trkpt>
      <trkpt lat="48.39602" lon="7.37433">
        <ele>341.5</ele>
        <time>2023-07-23T10:08:24Z</time>
      </trkpt>
      <trkpt lat="48.396" lon="7.37428">
        <ele>341.6</ele>
        <time>2023-07-23T10:08:25Z</time>
      </trkpt>
      <trkpt lat="48.39599" lon="7.37423">
        <ele>341.7</ele>
        <time>2023-07-23T10:08:26Z</time>
      </trkpt>
      <trkpt lat="48.39598" lon="7.37419">
        <ele>341.8</ele>
        <time>2023-07-23T10:08:27Z</time>
      </trkpt>
      <trkpt lat="48.39598" lon="7.37413">
        <ele>342</ele>
        <time>2023-07-23T10:08:28Z</time>
      </trkpt>
      <trkpt lat="48.39596" lon="7.37408">
        <ele>342.1</ele>
        <time>2023-07-23T10:08:29Z</time>
      </trkpt>
      <trkpt lat="48.39595" lon="7.37403">
        <ele>342.2</ele>
        <time>2023-07-23T10:08:30Z</time>
      </trkpt>
      <trkpt lat="48.39594" lon="7.37398">
        <ele>342.3</ele>
        <time>2023-07-23T10:08:31Z</time>
      </trkpt>
      <trkpt lat="48.39593" lon="7.37394">
        <ele>342.4</ele>
        <time>2023-07-23T10:08:32Z</time>
      </trkpt>
      <trkpt lat="48.39592" lon="7.37389">
        <ele>342.6</ele>
        <time>2023-07-23T10:08:33Z</time>
      </trkpt>
      <trkpt lat="48.39591" lon="7.37384">
        <ele>342.7</ele>
        <time>2023-07-23T10:08:34Z</time>
      </trkpt>
      <trkpt lat="48.39589" lon="7.37379">
        <ele>342.8</ele>
        <time>2023-07-23T10:08:35Z</time>
      </trkpt>
      <trkpt lat="48.39589" lon="7.37374">
        <ele>342.9</ele>
        <time>2023-07-23T10:08:36Z</time>
      </trkpt>
      <trkpt lat="48.39587" lon="7.37369">
        <ele>343</ele>
        <time>2023-07-23T10:08:37Z</time>
      </trkpt>
      <trkpt lat="48.39586" lon="7.37364">
        <ele>343.1</ele>
        <time>2023-07-23T10:08:38Z</time>
      </trkpt>
      <trkpt lat="48.39585" lon="7.37359">
        <ele>343.3</ele>
        <time>2023-07-23T10:08:39Z</time>
      </trkpt>
      <trkpt lat="48.39585" lon="7.37353">
        <ele>343.4</ele>
        <time>2023-07-23T10:08:40Z</time>
      </trkpt>
      <trkpt lat="48.39583" lon="7.37348">
        <ele>343.5</ele>
        <time>2023-07-23T10:08:41Z</time>
      </trkpt>
      <trkpt lat="48.39582" lon="7.37343">
        <ele>343.6</ele>
        <time>2023-07-23T10:08:42Z</time>
      </trkpt>
      <trkpt lat="48.39581" lon="7.37339">
        <ele>343.7</ele>
        <time>2023-07-23T10:08:43Z</time>
      </trkpt>
      <trkpt lat="48.3958" lon="7.37333">
        <ele>343.8</ele>
        <time>2023-07-23T10:08:44Z</time>
      </trkpt>
      <trkpt lat="48.39579" lon="7.37328">
        <ele>343.9</ele>
        <time>2023-07-23T10:08:45Z</time>
      </trkpt>
      <trkpt lat="48.39578" lon="7.37323">
        <ele>344</ele>
        <time>2023-07-23T10:08:46Z</time>
      </trkpt>
      <trkpt lat="48.39577" lon="7.37318">
        <ele>344.1</ele>
        <time>2023-07-23T10:08:47Z</time>
      </trkpt>
      <trkpt lat="48.39576" lon="7.37313">
        <ele>344.2</ele>
        <time>2023-07-23T10:08:48Z</time>
      </trkpt>
      <trkpt lat="48.39575" lon="7.37308">
        <ele>344.2</ele>
        <time>2023-07-23T10:08:49Z</time>
      </trkpt>
      <trkpt lat="48.39574" lon="7.37303">
        <ele>344.2</ele>
        <time>2023-07-23T10:08:50Z</time>
      </trkpt>
      <trkpt lat="48.39573" lon="7.37298">
        <ele>344.2</ele>
        <time>2023-07-23T10:08:51Z</time>
      </trkpt>
      <trkpt lat="48.39572" lon="7.37293">
        <ele>344.3</ele>
        <time>2023-07-23T10:08:52Z</time>
      </trkpt>
      <trkpt lat="48.39571" lon="7.37288">
        <ele>344.3</ele>
        <time>2023-07-23T10:08:53Z</time>
      </trkpt>
      <trkpt lat="48.39569" lon="7.37283">
        <ele>344.4</ele>
        <time>2023-07-23T10:08:54Z</time>
      </trkpt>
      <trkpt lat="48.39568" lon="7.37278">
        <ele>344.5</ele>
        <time>2023-07-23T10:08:55Z</time>
      </trkpt>
      <trkpt lat="48.39567" lon="7.37273">
        <ele>344.6</ele>
        <time>2023-07-23T10:08:56Z</time>
      </trkpt>
      <trkpt lat="48.39566" lon="7.37268">
        <ele>344.7</ele>
        <time>2023-07-23T10:08:57Z</time>
      </trkpt>
      <trkpt lat="48.39565" lon="7.37264">
        <ele>344.7</ele>
        <time>2023-07-23T10:08:58Z</time>
      </trkpt>
      <trkpt lat="48.39564" lon="7.37258">
        <ele>344.8</ele>
        <time>2023-07-23T10:08:59Z</time>
      </trkpt>
      <trkpt lat="48.39563" lon="7.37254">
        <ele>344.9</ele>
        <time>2023-07-23T10:09:00Z</time>
      </trkpt>
      <trkpt lat="48.39562" lon="7.37249">
        <ele>345</ele>
        <time>2023-07-23T10:09:01Z</time>
      </trkpt>
      <trkpt lat="48.39561" lon="7.37243">
        <ele>345.1</ele>
        <time>2023-07-23T10:09:02Z</time>
      </trkpt>
      <trkpt lat="48.3956" lon="7.37238">
        <ele>345.2</ele>
        <time>2023-07-23T10:09:03Z</time>
      </trkpt>
      <trkpt lat="48.39559" lon="7.37232">
        <ele>345.3</ele>
        <time>2023-07-23T10:09:04Z</time>
      </trkpt>
      <trkpt lat="48.39558" lon="7.37226">
        <ele>345.3</ele>
        <time>2023-07-23T10:09:05Z</time>
      </trkpt>
      <trkpt lat="48.39557" lon="7.3722">
        <ele>345.4</ele>
        <time>2023-07-23T10:09:06Z</time>
      </trkpt>
      <trkpt lat="48.39556" lon="7.37214">
        <ele>345.5</ele>
        <time>2023-07-23T10:09:07Z</time>
      </trkpt>
      <trkpt lat="48.39554" lon="7.37209">
        <ele>345.5</ele>
        <time>2023-07-23T10:09:08Z</time>
      </trkpt>
      <trkpt lat="48.39554" lon="7.37204">
        <ele>345.6</ele>
        <time>2023-07-23T10:09:09Z</time>
      </trkpt>
      <trkpt lat="48.39552" lon="7.37198">
        <ele>345.6</ele>
        <time>2023-07-23T10:09:10Z</time>
      </trkpt>
      <trkpt lat="48.39551" lon="7.37192">
        <ele>345.7</ele>
        <time>2023-07-23T10:09:11Z</time>
      </trkpt>
      <trkpt lat="48.39549" lon="7.37186">
        <ele>345.8</ele>
        <time>2023-07-23T10:09:12Z</time>
      </trkpt>
      <trkpt lat="48.39548" lon="7.3718">
        <ele>345.9</ele>
        <time>2023-07-23T10:09:13Z</time>
      </trkpt>
      <trkpt lat="48.39547" lon="7.37174">
        <ele>346</ele>
        <time>2023-07-23T10:09:14Z</time>
      </trkpt>
      <trkpt lat="48.39546" lon="7.37168">
        <ele>346</ele>
        <time>2023-07-23T10:09:15Z</time>
      </trkpt>
      <trkpt lat="48.39545" lon="7.37162">
        <ele>346.1</ele>
        <time>2023-07-23T10:09:16Z</time>
      </trkpt>
      <trkpt lat="48.39542" lon="7.3715">
        <ele>346.3</ele>
        <time>2023-07-23T10:09:17Z</time>
      </trkpt>
      <trkpt lat="48.39541" lon="7.37144">
        <ele>346.4</ele>
        <time>2023-07-23T10:09:18Z</time>
      </trkpt>
      <trkpt lat="48.39539" lon="7.37138">
        <ele>346.5</ele>
        <time>2023-07-23T10:09:19Z</time>
      </trkpt>
      <trkpt lat="48.39538" lon="7.37132">
        <ele>346.5</ele>
        <time>2023-07-23T10:09:20Z</time>
      </trkpt>
      <trkpt lat="48.39536" lon="7.37126">
        <ele>346.6</ele>
        <time>2023-07-23T10:09:21Z</time>
      </trkpt>
      <trkpt lat="48.39534" lon="7.3712">
        <ele>346.7</ele>
        <time>2023-07-23T10:09:22Z</time>
      </trkpt>
      <trkpt lat="48.39532" lon="7.37115">
        <ele>346.8</ele>
        <time>2023-07-23T10:09:23Z</time>
      </trkpt>
      <trkpt lat="48.3953" lon="7.37109">
        <ele>346.8</ele>
        <time>2023-07-23T10:09:24Z</time>
      </trkpt>
      <trkpt lat="48.39528" lon="7.37104">
        <ele>346.9</ele>
        <time>2023-07-23T10:09:25Z</time>
      </trkpt>
      <trkpt lat="48.39526" lon="7.37098">
        <ele>347</ele>
        <time>2023-07-23T10:09:26Z</time>
      </trkpt>
      <trkpt lat="48.39523" lon="7.37093">
        <ele>347.1</ele>
        <time>2023-07-23T10:09:27Z</time>
      </trkpt>
      <trkpt lat="48.39519" lon="7.37088">
        <ele>347.1</ele>
        <time>2023-07-23T10:09:28Z</time>
      </trkpt>
      <trkpt lat="48.39516" lon="7.37084">
        <ele>347.2</ele>
        <time>2023-07-23T10:09:29Z</time>
      </trkpt>
      <trkpt lat="48.39514" lon="7.37079">
        <ele>347.3</ele>
        <time>2023-07-23T10:09:30Z</time>
      </trkpt>
      <trkpt lat="48.39511" lon="7.37075">
        <ele>347.3</ele>
        <time>2023-07-23T10:09:31Z</time>
      </trkpt>
      <trkpt lat="48.39508" lon="7.3707">
        <ele>347.4</ele>
        <time>2023-07-23T10:09:32Z</time>
      </trkpt>
      <trkpt lat="48.39505" lon="7.37065">
        <ele>347.4</ele>
        <time>2023-07-23T10:09:33Z</time>
      </trkpt>
      <trkpt lat="48.39502" lon="7.37062">
        <ele>347.5</ele>
        <time>2023-07-23T10:09:34Z</time>
      </trkpt>
      <trkpt lat="48.39499" lon="7.37057">
        <ele>347.5</ele>
        <time>2023-07-23T10:09:35Z</time>
      </trkpt>
      <trkpt lat="48.39496" lon="7.37052">
        <ele>347.6</ele>
        <time>2023-07-23T10:09:36Z</time>
      </trkpt>
      <trkpt lat="48.39493" lon="7.37047">
        <ele>347.7</ele>
        <time>2023-07-23T10:09:37Z</time>
      </trkpt>
      <trkpt lat="48.3949" lon="7.37042">
        <ele>347.7</ele>
        <time>2023-07-23T10:09:38Z</time>
      </trkpt>
      <trkpt lat="48.39487" lon="7.37038">
        <ele>347.8</ele>
        <time>2023-07-23T10:09:39Z</time>
      </trkpt>
      <trkpt lat="48.39483" lon="7.37033">
        <ele>347.8</ele>
        <time>2023-07-23T10:09:40Z</time>
      </trkpt>
      <trkpt lat="48.3948" lon="7.37028">
        <ele>347.9</ele>
        <time>2023-07-23T10:09:41Z</time>
      </trkpt>
      <trkpt lat="48.39476" lon="7.37023">
        <ele>348</ele>
        <time>2023-07-23T10:09:42Z</time>
      </trkpt>
      <trkpt lat="48.39473" lon="7.37019">
        <ele>348</ele>
        <time>2023-07-23T10:09:43Z</time>
      </trkpt>
      <trkpt lat="48.3947" lon="7.37014">
        <ele>348.1</ele>
        <time>2023-07-23T10:09:44Z</time>
      </trkpt>
      <trkpt lat="48.39466" lon="7.3701">
        <ele>348.2</ele>
        <time>2023-07-23T10:09:45Z</time>
      </trkpt>
      <trkpt lat="48.39462" lon="7.37006">
        <ele>348.3</ele>
        <time>2023-07-23T10:09:46Z</time>
      </trkpt>
      <trkpt lat="48.39458" lon="7.37002">
        <ele>348.4</ele>
        <time>2023-07-23T10:09:47Z</time>
      </trkpt>
      <trkpt lat="48.39455" lon="7.36998">
        <ele>348.5</ele>
        <time>2023-07-23T10:09:48Z</time>
      </trkpt>
      <trkpt lat="48.39451" lon="7.36994">
        <ele>348.6</ele>
        <time>2023-07-23T10:09:49Z</time>
      </trkpt>
      <trkpt lat="48.39447" lon="7.3699">
        <ele>348.6</ele>
        <time>2023-07-23T10:09:50Z</time>
      </trkpt>
      <trkpt lat="48.39443" lon="7.36987">
        <ele>348.8</ele>
        <time>2023-07-23T10:09:51Z</time>
      </trkpt>
      <trkpt lat="48.39439" lon="7.36983">
        <ele>348.9</ele>
        <time>2023-07-23T10:09:52Z</time>
      </trkpt>
      <trkpt lat="48.39435" lon="7.3698">
        <ele>349</ele>
        <time>2023-07-23T10:09:53Z</time>
      </trkpt>
      <trkpt lat="48.39431" lon="7.36976">
        <ele>349.1</ele>
        <time>2023-07-23T10:09:54Z</time>
      </trkpt>
      <trkpt lat="48.39427" lon="7.36972">
        <ele>349.2</ele>
        <time>2023-07-23T10:09:55Z</time>
      </trkpt>
      <trkpt lat="48.39423" lon="7.3697">
        <ele>349.4</ele>
        <time>2023-07-23T10:09:56Z</time>
      </trkpt>
      <trkpt lat="48.39419" lon="7.36967">
        <ele>349.5</ele>
        <time>2023-07-23T10:09:57Z</time>
      </trkpt>
      <trkpt lat="48.39415" lon="7.36964">
        <ele>349.6</ele>
        <time>2023-07-23T10:09:58Z</time>
      </trkpt>
      <trkpt lat="48.39411" lon="7.36961">
        <ele>349.8</ele>
        <time>2023-07-23T10:09:59Z</time>
      </trkpt>
      <trkpt lat="48.39407" lon="7.36958">
        <ele>349.9</ele>
        <time>2023-07-23T10:10:00Z</time>
      </trkpt>
      <trkpt lat="48.39403" lon="7.36955">
        <ele>350</ele>
        <time>2023-07-23T10:10:01Z</time>
      </trkpt>
      <trkpt lat="48.39399" lon="7.36952">
        <ele>350.2</ele>
        <time>2023-07-23T10:10:02Z</time>
      </trkpt>
      <trkpt lat="48.39395" lon="7.3695">
        <ele>350.3</ele>
        <time>2023-07-23T10:10:03Z</time>
      </trkpt>
      <trkpt lat="48.39391" lon="7.36947">
        <ele>350.4</ele>
        <time>2023-07-23T10:10:05Z</time>
      </trkpt>
      <trkpt lat="48.39387" lon="7.36945">
        <ele>350.6</ele>
        <time>2023-07-23T10:10:06Z</time>
      </trkpt>
      <trkpt lat="48.39383" lon="7.36942">
        <ele>350.7</ele>
        <time>2023-07-23T10:10:07Z</time>
      </trkpt>
      <trkpt lat="48.39379" lon="7.3694">
        <ele>350.9</ele>
        <time>2023-07-23T10:10:08Z</time>
      </trkpt>
      <trkpt lat="48.39375" lon="7.36939">
        <ele>351</ele>
        <time>2023-07-23T10:10:09Z</time>
      </trkpt>
      <trkpt lat="48.39371" lon="7.36937">
        <ele>351.2</ele>
        <time>2023-07-23T10:10:10Z</time>
      </trkpt>
      <trkpt lat="48.39367" lon="7.36936">
        <ele>351.4</ele>
        <time>2023-07-23T10:10:11Z</time>
      </trkpt>
      <trkpt lat="48.39363" lon="7.36936">
        <ele>351.5</ele>
        <time>2023-07-23T10:10:12Z</time>
      </trkpt>
      <trkpt lat="48.39359" lon="7.36935">
        <ele>351.7</ele>
        <time>2023-07-23T10:10:13Z</time>
      </trkpt>
      <trkpt lat="48.39355" lon="7.36936">
        <ele>351.9</ele>
        <time>2023-07-23T10:10:14Z</time>
      </trkpt>
      <trkpt lat="48.39351" lon="7.36936">
        <ele>352.1</ele>
        <time>2023-07-23T10:10:15Z</time>
      </trkpt>
      <trkpt lat="48.39347" lon="7.36936">
        <ele>352.2</ele>
        <time>2023-07-23T10:10:16Z</time>
      </trkpt>
      <trkpt lat="48.39343" lon="7.36937">
        <ele>352.4</ele>
        <time>2023-07-23T10:10:17Z</time>
      </trkpt>
      <trkpt lat="48.39339" lon="7.36938">
        <ele>352.6</ele>
        <time>2023-07-23T10:10:18Z</time>
      </trkpt>
      <trkpt lat="48.39336" lon="7.36938">
        <ele>352.7</ele>
        <time>2023-07-23T10:10:19Z</time>
      </trkpt>
      <trkpt lat="48.39331" lon="7.36939">
        <ele>352.9</ele>
        <time>2023-07-23T10:10:20Z</time>
      </trkpt>
      <trkpt lat="48.39327" lon="7.36939">
        <ele>353.1</ele>
        <time>2023-07-23T10:10:21Z</time>
      </trkpt>
      <trkpt lat="48.39323" lon="7.36939">
        <ele>353.2</ele>
        <time>2023-07-23T10:10:22Z</time>
      </trkpt>
      <trkpt lat="48.39319" lon="7.36939">
        <ele>353.4</ele>
        <time>2023-07-23T10:10:23Z</time>
      </trkpt>
      <trkpt lat="48.39315" lon="7.36939">
        <ele>353.6</ele>
        <time>2023-07-23T10:10:24Z</time>
      </trkpt>
      <trkpt lat="48.39312" lon="7.36937">
        <ele>353.8</ele>
        <time>2023-07-23T10:10:25Z</time>
      </trkpt>
      <trkpt lat="48.39308" lon="7.36935">
        <ele>353.9</ele>
        <time>2023-07-23T10:10:26Z</time>
      </trkpt>
      <trkpt lat="48.39305" lon="7.36934">
        <ele>354.1</ele>
        <time>2023-07-23T10:10:27Z</time>
      </trkpt>
      <trkpt lat="48.39301" lon="7.36931">
        <ele>354.2</ele>
        <time>2023-07-23T10:10:28Z</time>
      </trkpt>
      <trkpt lat="48.39299" lon="7.36927">
        <ele>354.4</ele>
        <time>2023-07-23T10:10:29Z</time>
      </trkpt>
      <trkpt lat="48.39296" lon="7.36923">
        <ele>354.6</ele>
        <time>2023-07-23T10:10:30Z</time>
      </trkpt>
      <trkpt lat="48.39293" lon="7.36918">
        <ele>354.8</ele>
        <time>2023-07-23T10:10:31Z</time>
      </trkpt>
      <trkpt lat="48.39291" lon="7.36914">
        <ele>354.9</ele>
        <time>2023-07-23T10:10:32Z</time>
      </trkpt>
      <trkpt lat="48.39289" lon="7.36909">
        <ele>355.1</ele>
        <time>2023-07-23T10:10:33Z</time>
      </trkpt>
      <trkpt lat="48.39287" lon="7.36904">
        <ele>355.3</ele>
        <time>2023-07-23T10:10:34Z</time>
      </trkpt>
      <trkpt lat="48.39286" lon="7.36899">
        <ele>355.5</ele>
        <time>2023-07-23T10:10:35Z</time>
      </trkpt>
      <trkpt lat="48.39284" lon="7.36895">
        <ele>355.6</ele>
        <time>2023-07-23T10:10:36Z</time>
      </trkpt>
      <trkpt lat="48.39283" lon="7.3689">
        <ele>355.8</ele>
        <time>2023-07-23T10:10:37Z</time>
      </trkpt>
      <trkpt lat="48.39281" lon="7.36886">
        <ele>356</ele>
        <time>2023-07-23T10:10:38Z</time>
      </trkpt>
      <trkpt lat="48.3928" lon="7.36881">
        <ele>356.1</ele>
        <time>2023-07-23T10:10:39Z</time>
      </trkpt>
      <trkpt lat="48.39279" lon="7.36876">
        <ele>356.3</ele>
        <time>2023-07-23T10:10:40Z</time>
      </trkpt>
      <trkpt lat="48.39278" lon="7.36871">
        <ele>356.5</ele>
        <time>2023-07-23T10:10:41Z</time>
      </trkpt>
      <trkpt lat="48.39276" lon="7.36866">
        <ele>356.7</ele>
        <time>2023-07-23T10:10:42Z</time>
      </trkpt>
      <trkpt lat="48.39275" lon="7.36861">
        <ele>356.8</ele>
        <time>2023-07-23T10:10:43Z</time>
      </trkpt>
      <trkpt lat="48.39274" lon="7.36855">
        <ele>357</ele>
        <time>2023-07-23T10:10:44Z</time>
      </trkpt>
      <trkpt lat="48.39273" lon="7.36851">
        <ele>357.2</ele>
        <time>2023-07-23T10:10:45Z</time>
      </trkpt>
      <trkpt lat="48.39272" lon="7.36845">
        <ele>357.3</ele>
        <time>2023-07-23T10:10:46Z</time>
      </trkpt>
      <trkpt lat="48.39271" lon="7.3684">
        <ele>357.5</ele>
        <time>2023-07-23T10:10:47Z</time>
      </trkpt>
      <trkpt lat="48.3927" lon="7.36834">
        <ele>357.7</ele>
        <time>2023-07-23T10:10:48Z</time>
      </trkpt>
      <trkpt lat="48.3927" lon="7.36829">
        <ele>357.8</ele>
        <time>2023-07-23T10:10:49Z</time>
      </trkpt>
      <trkpt lat="48.39269" lon="7.36824">
        <ele>357.9</ele>
        <time>2023-07-23T10:10:50Z</time>
      </trkpt>
      <trkpt lat="48.39268" lon="7.36819">
        <ele>358.1</ele>
        <time>2023-07-23T10:10:51Z</time>
      </trkpt>
      <trkpt lat="48.39267" lon="7.36814">
        <ele>358.2</ele>
        <time>2023-07-23T10:10:52Z</time>
      </trkpt>
      <trkpt lat="48.39267" lon="7.36808">
        <ele>358.4</ele>
        <time>2023-07-23T10:10:53Z</time>
      </trkpt>
      <trkpt lat="48.39266" lon="7.36803">
        <ele>358.5</ele>
        <time>2023-07-23T10:10:54Z</time>
      </trkpt>
      <trkpt lat="48.39265" lon="7.36798">
        <ele>358.6</ele>
        <time>2023-07-23T10:10:55Z</time>
      </trkpt>
      <trkpt lat="48.39264" lon="7.36792">
        <ele>358.8</ele>
        <time>2023-07-23T10:10:56Z</time>
      </trkpt>
      <trkpt lat="48.39263" lon="7.36787">
        <ele>358.9</ele>
        <time>2023-07-23T10:10:57Z</time>
      </trkpt>
      <trkpt lat="48.39263" lon="7.36782">
        <ele>359.1</ele>
        <time>2023-07-23T10:10:58Z</time>
      </trkpt>
      <trkpt lat="48.39262" lon="7.36777">
        <ele>359.2</ele>
        <time>2023-07-23T10:10:59Z</time>
      </trkpt>
      <trkpt lat="48.39261" lon="7.36772">
        <ele>359.4</ele>
        <time>2023-07-23T10:11:00Z</time>
      </trkpt>
      <trkpt lat="48.3926" lon="7.36766">
        <ele>359.5</ele>
        <time>2023-07-23T10:11:01Z</time>
      </trkpt>
      <trkpt lat="48.39259" lon="7.36761">
        <ele>359.6</ele>
        <time>2023-07-23T10:11:02Z</time>
      </trkpt>
      <trkpt lat="48.39259" lon="7.36755">
        <ele>359.8</ele>
        <time>2023-07-23T10:11:03Z</time>
      </trkpt>
      <trkpt lat="48.39258" lon="7.36751">
        <ele>359.9</ele>
        <time>2023-07-23T10:11:04Z</time>
      </trkpt>
      <trkpt lat="48.39257" lon="7.36747">
        <ele>359.9</ele>
        <time>2023-07-23T10:11:05Z</time>
      </trkpt>
      <trkpt lat="48.39255" lon="7.36742">
        <ele>360</ele>
        <time>2023-07-23T10:11:06Z</time>
      </trkpt>
      <trkpt lat="48.39255" lon="7.36737">
        <ele>360.1</ele>
        <time>2023-07-23T10:11:07Z</time>
      </trkpt>
      <trkpt lat="48.39255" lon="7.36732">
        <ele>360.2</ele>
        <time>2023-07-23T10:11:08Z</time>
      </trkpt>
      <trkpt lat="48.39254" lon="7.36726">
        <ele>360.3</ele>
        <time>2023-07-23T10:11:09Z</time>
      </trkpt>
      <trkpt lat="48.39254" lon="7.36721">
        <ele>360.5</ele>
        <time>2023-07-23T10:11:10Z</time>
      </trkpt>
      <trkpt lat="48.39253" lon="7.36715">
        <ele>360.6</ele>
        <time>2023-07-23T10:11:11Z</time>
      </trkpt>
      <trkpt lat="48.39254" lon="7.36709">
        <ele>360.7</ele>
        <time>2023-07-23T10:11:12Z</time>
      </trkpt>
      <trkpt lat="48.39254" lon="7.36703">
        <ele>360.8</ele>
        <time>2023-07-23T10:11:13Z</time>
      </trkpt>
      <trkpt lat="48.39254" lon="7.36697">
        <ele>360.9</ele>
        <time>2023-07-23T10:11:14Z</time>
      </trkpt>
      <trkpt lat="48.39255" lon="7.36691">
        <ele>361</ele>
        <time>2023-07-23T10:11:15Z</time>
      </trkpt>
      <trkpt lat="48.39256" lon="7.36686">
        <ele>361.2</ele>
        <time>2023-07-23T10:11:16Z</time>
      </trkpt>
      <trkpt lat="48.39258" lon="7.36681">
        <ele>361.3</ele>
        <time>2023-07-23T10:11:17Z</time>
      </trkpt>
      <trkpt lat="48.3926" lon="7.36676">
        <ele>361.4</ele>
        <time>2023-07-23T10:11:18Z</time>
      </trkpt>
      <trkpt lat="48.39262" lon="7.36672">
        <ele>361.6</ele>
        <time>2023-07-23T10:11:19Z</time>
      </trkpt>
      <trkpt lat="48.39265" lon="7.36668">
        <ele>361.7</ele>
        <time>2023-07-23T10:11:20Z</time>
      </trkpt>
      <trkpt lat="48.39269" lon="7.36664">
        <ele>361.9</ele>
        <time>2023-07-23T10:11:21Z</time>
      </trkpt>
      <trkpt lat="48.39272" lon="7.3666">
        <ele>362</ele>
        <time>2023-07-23T10:11:22Z</time>
      </trkpt>
      <trkpt lat="48.39275" lon="7.36657">
        <ele>362.1</ele>
        <time>2023-07-23T10:11:23Z</time>
      </trkpt>
      <trkpt lat="48.39278" lon="7.36654">
        <ele>362.3</ele>
        <time>2023-07-23T10:11:24Z</time>
      </trkpt>
      <trkpt lat="48.39281" lon="7.36652">
        <ele>362.4</ele>
        <time>2023-07-23T10:11:25Z</time>
      </trkpt>
      <trkpt lat="48.39284" lon="7.36648">
        <ele>362.5</ele>
        <time>2023-07-23T10:11:26Z</time>
      </trkpt>
      <trkpt lat="48.39288" lon="7.36646">
        <ele>362.6</ele>
        <time>2023-07-23T10:11:27Z</time>
      </trkpt>
      <trkpt lat="48.39294" lon="7.36641">
        <ele>362.8</ele>
        <time>2023-07-23T10:11:28Z</time>
      </trkpt>
      <trkpt lat="48.39298" lon="7.36639">
        <ele>362.9</ele>
        <time>2023-07-23T10:11:29Z</time>
      </trkpt>
      <trkpt lat="48.39301" lon="7.36636">
        <ele>363.1</ele>
        <time>2023-07-23T10:11:30Z</time>
      </trkpt>
      <trkpt lat="48.39304" lon="7.36634">
        <ele>363.2</ele>
        <time>2023-07-23T10:11:31Z</time>
      </trkpt>
      <trkpt lat="48.39308" lon="7.36634">
        <ele>363.3</ele>
        <time>2023-07-23T10:11:32Z</time>
      </trkpt>
      <trkpt lat="48.39311" lon="7.36631">
        <ele>363.4</ele>
        <time>2023-07-23T10:11:33Z</time>
      </trkpt>
      <trkpt lat="48.39314" lon="7.36629">
        <ele>363.5</ele>
        <time>2023-07-23T10:11:34Z</time>
      </trkpt>
      <trkpt lat="48.39317" lon="7.36628">
        <ele>363.6</ele>
        <time>2023-07-23T10:11:35Z</time>
      </trkpt>
      <trkpt lat="48.39321" lon="7.36627">
        <ele>363.7</ele>
        <time>2023-07-23T10:11:36Z</time>
      </trkpt>
      <trkpt lat="48.39325" lon="7.36627">
        <ele>363.9</ele>
        <time>2023-07-23T10:11:37Z</time>
      </trkpt>
      <trkpt lat="48.39328" lon="7.36626">
        <ele>364</ele>
        <time>2023-07-23T10:11:38Z</time>
      </trkpt>
      <trkpt lat="48.39332" lon="7.36626">
        <ele>364.1</ele>
        <time>2023-07-23T10:11:39Z</time>
      </trkpt>
      <trkpt lat="48.39336" lon="7.36627">
        <ele>364.3</ele>
        <time>2023-07-23T10:11:40Z</time>
      </trkpt>
      <trkpt lat="48.39339" lon="7.36628">
        <ele>364.4</ele>
        <time>2023-07-23T10:11:41Z</time>
      </trkpt>
      <trkpt lat="48.39343" lon="7.36629">
        <ele>364.6</ele>
        <time>2023-07-23T10:11:42Z</time>
      </trkpt>
      <trkpt lat="48.39346" lon="7.36629">
        <ele>364.7</ele>
        <time>2023-07-23T10:11:43Z</time>
      </trkpt>
      <trkpt lat="48.39349" lon="7.3663">
        <ele>364.8</ele>
        <time>2023-07-23T10:11:44Z</time>
      </trkpt>
      <trkpt lat="48.39352" lon="7.36631">
        <ele>364.9</ele>
        <time>2023-07-23T10:11:45Z</time>
      </trkpt>
      <trkpt lat="48.39355" lon="7.36633">
        <ele>365.1</ele>
        <time>2023-07-23T10:11:46Z</time>
      </trkpt>
      <trkpt lat="48.39358" lon="7.36634">
        <ele>365.2</ele>
        <time>2023-07-23T10:11:47Z</time>
      </trkpt>
      <trkpt lat="48.39362" lon="7.36635">
        <ele>365.4</ele>
        <time>2023-07-23T10:11:48Z</time>
      </trkpt>
      <trkpt lat="48.39365" lon="7.36637">
        <ele>365.5</ele>
        <time>2023-07-23T10:11:49Z</time>
      </trkpt>
      <trkpt lat="48.39368" lon="7.36638">
        <ele>365.7</ele>
        <time>2023-07-23T10:11:50Z</time>
      </trkpt>
      <trkpt lat="48.39372" lon="7.36639">
        <ele>365.9</ele>
        <time>2023-07-23T10:11:51Z</time>
      </trkpt>
      <trkpt lat="48.39375" lon="7.36641">
        <ele>366</ele>
        <time>2023-07-23T10:11:52Z</time>
      </trkpt>
      <trkpt lat="48.39378" lon="7.36642">
        <ele>366.2</ele>
        <time>2023-07-23T10:11:53Z</time>
      </trkpt>
      <trkpt lat="48.39382" lon="7.36643">
        <ele>366.4</ele>
        <time>2023-07-23T10:11:54Z</time>
      </trkpt>
      <trkpt lat="48.39385" lon="7.36644">
        <ele>366.5</ele>
        <time>2023-07-23T10:11:55Z</time>
      </trkpt>
      <trkpt lat="48.39388" lon="7.36645">
        <ele>366.6</ele>
        <time>2023-07-23T10:11:56Z</time>
      </trkpt>
      <trkpt lat="48.39391" lon="7.36646">
        <ele>366.7</ele>
        <time>2023-07-23T10:11:57Z</time>
      </trkpt>
      <trkpt lat="48.39395" lon="7.36647">
        <ele>366.9</ele>
        <time>2023-07-23T10:11:58Z</time>
      </trkpt>
      <trkpt lat="48.39398" lon="7.36648">
        <ele>367</ele>
        <time>2023-07-23T10:11:59Z</time>
      </trkpt>
      <trkpt lat="48.39402" lon="7.36648">
        <ele>367.2</ele>
        <time>2023-07-23T10:12:00Z</time>
      </trkpt>
      <trkpt lat="48.39405" lon="7.36648">
        <ele>367.3</ele>
        <time>2023-07-23T10:12:01Z</time>
      </trkpt>
      <trkpt lat="48.39408" lon="7.36648">
        <ele>367.4</ele>
        <time>2023-07-23T10:12:02Z</time>
      </trkpt>
      <trkpt lat="48.39412" lon="7.36648">
        <ele>367.5</ele>
        <time>2023-07-23T10:12:03Z</time>
      </trkpt>
      <trkpt lat="48.39415" lon="7.36647">
        <ele>367.6</ele>
        <time>2023-07-23T10:12:04Z</time>
      </trkpt>
      <trkpt lat="48.39419" lon="7.36647">
        <ele>367.8</ele>
        <time>2023-07-23T10:12:05Z</time>
      </trkpt>
      <trkpt lat="48.39422" lon="7.36646">
        <ele>367.9</ele>
        <time>2023-07-23T10:12:06Z</time>
      </trkpt>
      <trkpt lat="48.39426" lon="7.36646">
        <ele>368</ele>
        <time>2023-07-23T10:12:07Z</time>
      </trkpt>
      <trkpt lat="48.3943" lon="7.36645">
        <ele>368.2</ele>
        <time>2023-07-23T10:12:08Z</time>
      </trkpt>
      <trkpt lat="48.39433" lon="7.36645">
        <ele>368.3</ele>
        <time>2023-07-23T10:12:09Z</time>
      </trkpt>
      <trkpt lat="48.39436" lon="7.36643">
        <ele>368.4</ele>
        <time>2023-07-23T10:12:11Z</time>
      </trkpt>
      <trkpt lat="48.3944" lon="7.36643">
        <ele>368.5</ele>
        <time>2023-07-23T10:12:12Z</time>
      </trkpt>
      <trkpt lat="48.39444" lon="7.36642">
        <ele>368.7</ele>
        <time>2023-07-23T10:12:13Z</time>
      </trkpt>
      <trkpt lat="48.39447" lon="7.36641">
        <ele>368.8</ele>
        <time>2023-07-23T10:12:14Z</time>
      </trkpt>
      <trkpt lat="48.39451" lon="7.36639">
        <ele>369</ele>
        <time>2023-07-23T10:12:15Z</time>
      </trkpt>
      <trkpt lat="48.39455" lon="7.36638">
        <ele>369.1</ele>
        <time>2023-07-23T10:12:16Z</time>
      </trkpt>
      <trkpt lat="48.39458" lon="7.36636">
        <ele>369.3</ele>
        <time>2023-07-23T10:12:17Z</time>
      </trkpt>
      <trkpt lat="48.39461" lon="7.36634">
        <ele>369.4</ele>
        <time>2023-07-23T10:12:18Z</time>
      </trkpt>
      <trkpt lat="48.39464" lon="7.36632">
        <ele>369.5</ele>
        <time>2023-07-23T10:12:19Z</time>
      </trkpt>
      <trkpt lat="48.39467" lon="7.36629">
        <ele>369.7</ele>
        <time>2023-07-23T10:12:20Z</time>
      </trkpt>
      <trkpt lat="48.3947" lon="7.36627">
        <ele>369.8</ele>
        <time>2023-07-23T10:12:21Z</time>
      </trkpt>
      <trkpt lat="48.39473" lon="7.36625">
        <ele>370</ele>
        <time>2023-07-23T10:12:22Z</time>
      </trkpt>
      <trkpt lat="48.39476" lon="7.36624">
        <ele>370.1</ele>
        <time>2023-07-23T10:12:23Z</time>
      </trkpt>
      <trkpt lat="48.39479" lon="7.36622">
        <ele>370.3</ele>
        <time>2023-07-23T10:12:24Z</time>
      </trkpt>
      <trkpt lat="48.39482" lon="7.3662">
        <ele>370.4</ele>
        <time>2023-07-23T10:12:25Z</time>
      </trkpt>
      <trkpt lat="48.39485" lon="7.36618">
        <ele>370.6</ele>
        <time>2023-07-23T10:12:26Z</time>
      </trkpt>
      <trkpt lat="48.39488" lon="7.36617">
        <ele>370.7</ele>
        <time>2023-07-23T10:12:27Z</time>
      </trkpt>
      <trkpt lat="48.39492" lon="7.36615">
        <ele>370.9</ele>
        <time>2023-07-23T10:12:28Z</time>
      </trkpt>
      <trkpt lat="48.39495" lon="7.36613">
        <ele>371</ele>
        <time>2023-07-23T10:12:29Z</time>
      </trkpt>
      <trkpt lat="48.39497" lon="7.3661">
        <ele>371.2</ele>
        <time>2023-07-23T10:12:30Z</time>
      </trkpt>
      <trkpt lat="48.395" lon="7.36608">
        <ele>371.3</ele>
        <time>2023-07-23T10:12:31Z</time>
      </trkpt>
      <trkpt lat="48.39503" lon="7.36606">
        <ele>371.5</ele>
        <time>2023-07-23T10:12:32Z</time>
      </trkpt>
      <trkpt lat="48.39506" lon="7.36603">
        <ele>371.7</ele>
        <time>2023-07-23T10:12:33Z</time>
      </trkpt>
      <trkpt lat="48.39509" lon="7.366">
        <ele>371.8</ele>
        <time>2023-07-23T10:12:34Z</time>
      </trkpt>
      <trkpt lat="48.39512" lon="7.36598">
        <ele>372</ele>
        <time>2023-07-23T10:12:35Z</time>
      </trkpt>
      <trkpt lat="48.39515" lon="7.36594">
        <ele>372.2</ele>
        <time>2023-07-23T10:12:36Z</time>
      </trkpt>
      <trkpt lat="48.39518" lon="7.36591">
        <ele>372.4</ele>
        <time>2023-07-23T10:12:37Z</time>
      </trkpt>
      <trkpt lat="48.3952" lon="7.36589">
        <ele>372.5</ele>
        <time>2023-07-23T10:12:38Z</time>
      </trkpt>
      <trkpt lat="48.39523" lon="7.36586">
        <ele>372.7</ele>
        <time>2023-07-23T10:12:39Z</time>
      </trkpt>
      <trkpt lat="48.39526" lon="7.36583">
        <ele>372.8</ele>
        <time>2023-07-23T10:12:40Z</time>
      </trkpt>
      <trkpt lat="48.39529" lon="7.3658">
        <ele>373</ele>
        <time>2023-07-23T10:12:41Z</time>
      </trkpt>
      <trkpt lat="48.39531" lon="7.36578">
        <ele>373.1</ele>
        <time>2023-07-23T10:12:42Z</time>
      </trkpt>
      <trkpt lat="48.39534" lon="7.36575">
        <ele>373.3</ele>
        <time>2023-07-23T10:12:43Z</time>
      </trkpt>
      <trkpt lat="48.39537" lon="7.36572">
        <ele>373.4</ele>
        <time>2023-07-23T10:12:44Z</time>
      </trkpt>
      <trkpt lat="48.3954" lon="7.36569">
        <ele>373.5</ele>
        <time>2023-07-23T10:12:45Z</time>
      </trkpt>
      <trkpt lat="48.39543" lon="7.36566">
        <ele>373.7</ele>
        <time>2023-07-23T10:12:46Z</time>
      </trkpt>
      <trkpt lat="48.39546" lon="7.36564">
        <ele>373.8</ele>
        <time>2023-07-23T10:12:47Z</time>
      </trkpt>
      <trkpt lat="48.39548" lon="7.36561">
        <ele>374</ele>
        <time>2023-07-23T10:12:48Z</time>
      </trkpt>
      <trkpt lat="48.39551" lon="7.36558">
        <ele>374.1</ele>
        <time>2023-07-23T10:12:49Z</time>
      </trkpt>
      <trkpt lat="48.39554" lon="7.36555">
        <ele>374.2</ele>
        <time>2023-07-23T10:12:50Z</time>
      </trkpt>
      <trkpt lat="48.39556" lon="7.3655">
        <ele>374.4</ele>
        <time>2023-07-23T10:12:51Z</time>
      </trkpt>
      <trkpt lat="48.39559" lon="7.36547">
        <ele>374.5</ele>
        <time>2023-07-23T10:12:52Z</time>
      </trkpt>
      <trkpt lat="48.39561" lon="7.36544">
        <ele>374.7</ele>
        <time>2023-07-23T10:12:53Z</time>
      </trkpt>
      <trkpt lat="48.39563" lon="7.3654">
        <ele>374.8</ele>
        <time>2023-07-23T10:12:54Z</time>
      </trkpt>
      <trkpt lat="48.39566" lon="7.36536">
        <ele>375</ele>
        <time>2023-07-23T10:12:55Z</time>
      </trkpt>
      <trkpt lat="48.39568" lon="7.36533">
        <ele>375.2</ele>
        <time>2023-07-23T10:12:56Z</time>
      </trkpt>
      <trkpt lat="48.3957" lon="7.36529">
        <ele>375.4</ele>
        <time>2023-07-23T10:12:57Z</time>
      </trkpt>
      <trkpt lat="48.39573" lon="7.36526">
        <ele>375.5</ele>
        <time>2023-07-23T10:12:58Z</time>
      </trkpt>
      <trkpt lat="48.39575" lon="7.36522">
        <ele>375.7</ele>
        <time>2023-07-23T10:12:59Z</time>
      </trkpt>
      <trkpt lat="48.39578" lon="7.36519">
        <ele>375.9</ele>
        <time>2023-07-23T10:13:00Z</time>
      </trkpt>
      <trkpt lat="48.3958" lon="7.36515">
        <ele>376.1</ele>
        <time>2023-07-23T10:13:01Z</time>
      </trkpt>
      <trkpt lat="48.39582" lon="7.36512">
        <ele>376.2</ele>
        <time>2023-07-23T10:13:02Z</time>
      </trkpt>
      <trkpt lat="48.39585" lon="7.36508">
        <ele>376.4</ele>
        <time>2023-07-23T10:13:03Z</time>
      </trkpt>
      <trkpt lat="48.39587" lon="7.36505">
        <ele>376.6</ele>
        <time>2023-07-23T10:13:04Z</time>
      </trkpt>
      <trkpt lat="48.3959" lon="7.36501">
        <ele>376.7</ele>
        <time>2023-07-23T10:13:05Z</time>
      </trkpt>
      <trkpt lat="48.39592" lon="7.36498">
        <ele>376.9</ele>
        <time>2023-07-23T10:13:06Z</time>
      </trkpt>
      <trkpt lat="48.39595" lon="7.36496">
        <ele>377.1</ele>
        <time>2023-07-23T10:13:07Z</time>
      </trkpt>
      <trkpt lat="48.39599" lon="7.36494">
        <ele>377.2</ele>
        <time>2023-07-23T10:13:08Z</time>
      </trkpt>
      <trkpt lat="48.39602" lon="7.36493">
        <ele>377.4</ele>
        <time>2023-07-23T10:13:09Z</time>
      </trkpt>
      <trkpt lat="48.39605" lon="7.36491">
        <ele>377.6</ele>
        <time>2023-07-23T10:13:10Z</time>
      </trkpt>
      <trkpt lat="48.39608" lon="7.3649">
        <ele>377.7</ele>
        <time>2023-07-23T10:13:11Z</time>
      </trkpt>
      <trkpt lat="48.39612" lon="7.3649">
        <ele>377.9</ele>
        <time>2023-07-23T10:13:12Z</time>
      </trkpt>
      <trkpt lat="48.39615" lon="7.36489">
        <ele>378</ele>
        <time>2023-07-23T10:13:13Z</time>
      </trkpt>
      <trkpt lat="48.39618" lon="7.36489">
        <ele>378.2</ele>
        <time>2023-07-23T10:13:14Z</time>
      </trkpt>
      <trkpt lat="48.39622" lon="7.36488">
        <ele>378.3</ele>
        <time>2023-07-23T10:13:15Z</time>
      </trkpt>
      <trkpt lat="48.39625" lon="7.36488">
        <ele>378.5</ele>
        <time>2023-07-23T10:13:16Z</time>
      </trkpt>
      <trkpt lat="48.39628" lon="7.36488">
        <ele>378.7</ele>
        <time>2023-07-23T10:13:17Z</time>
      </trkpt>
      <trkpt lat="48.39631" lon="7.36487">
        <ele>378.8</ele>
        <time>2023-07-23T10:13:18Z</time>
      </trkpt>
      <trkpt lat="48.39635" lon="7.36488">
        <ele>379</ele>
        <time>2023-07-23T10:13:19Z</time>
      </trkpt>
      <trkpt lat="48.39638" lon="7.36488">
        <ele>379.2</ele>
        <time>2023-07-23T10:13:20Z</time>
      </trkpt>
      <trkpt lat="48.39641" lon="7.36488">
        <ele>379.4</ele>
        <time>2023-07-23T10:13:21Z</time>
      </trkpt>
      <trkpt lat="48.39644" lon="7.36486">
        <ele>379.6</ele>
        <time>2023-07-23T10:13:22Z</time>
      </trkpt>
      <trkpt lat="48.39648" lon="7.36486">
        <ele>379.8</ele>
        <time>2023-07-23T10:13:23Z</time>
      </trkpt>
      <trkpt lat="48.39654" lon="7.36486">
        <ele>380.2</ele>
        <time>2023-07-23T10:13:24Z</time>
      </trkpt>
      <trkpt lat="48.39657" lon="7.36485">
        <ele>380.3</ele>
        <time>2023-07-23T10:13:25Z</time>
      </trkpt>
      <trkpt lat="48.3966" lon="7.36485">
        <ele>380.5</ele>
        <time>2023-07-23T10:13:26Z</time>
      </trkpt>
      <trkpt lat="48.39664" lon="7.36484">
        <ele>380.7</ele>
        <time>2023-07-23T10:13:27Z</time>
      </trkpt>
      <trkpt lat="48.39667" lon="7.36484">
        <ele>380.9</ele>
        <time>2023-07-23T10:13:28Z</time>
      </trkpt>
      <trkpt lat="48.39671" lon="7.36484">
        <ele>381.1</ele>
        <time>2023-07-23T10:13:29Z</time>
      </trkpt>
      <trkpt lat="48.39674" lon="7.36484">
        <ele>381.3</ele>
        <time>2023-07-23T10:13:30Z</time>
      </trkpt>
      <trkpt lat="48.39678" lon="7.36484">
        <ele>381.5</ele>
        <time>2023-07-23T10:13:31Z</time>
      </trkpt>
      <trkpt lat="48.39681" lon="7.36483">
        <ele>381.7</ele>
        <time>2023-07-23T10:13:32Z</time>
      </trkpt>
      <trkpt lat="48.39684" lon="7.36482">
        <ele>381.8</ele>
        <time>2023-07-23T10:13:33Z</time>
      </trkpt>
      <trkpt lat="48.39687" lon="7.36482">
        <ele>382</ele>
        <time>2023-07-23T10:13:34Z</time>
      </trkpt>
      <trkpt lat="48.39691" lon="7.36481">
        <ele>382.2</ele>
        <time>2023-07-23T10:13:35Z</time>
      </trkpt>
      <trkpt lat="48.39694" lon="7.3648">
        <ele>382.4</ele>
        <time>2023-07-23T10:13:36Z</time>
      </trkpt>
      <trkpt lat="48.39697" lon="7.36479">
        <ele>382.5</ele>
        <time>2023-07-23T10:13:37Z</time>
      </trkpt>
      <trkpt lat="48.397" lon="7.36478">
        <ele>382.7</ele>
        <time>2023-07-23T10:13:38Z</time>
      </trkpt>
      <trkpt lat="48.39703" lon="7.36478">
        <ele>382.9</ele>
        <time>2023-07-23T10:13:39Z</time>
      </trkpt>
      <trkpt lat="48.39707" lon="7.36477">
        <ele>383</ele>
        <time>2023-07-23T10:13:40Z</time>
      </trkpt>
      <trkpt lat="48.3971" lon="7.36475">
        <ele>383.2</ele>
        <time>2023-07-23T10:13:41Z</time>
      </trkpt>
      <trkpt lat="48.39713" lon="7.36474">
        <ele>383.4</ele>
        <time>2023-07-23T10:13:42Z</time>
      </trkpt>
      <trkpt lat="48.39716" lon="7.36473">
        <ele>383.6</ele>
        <time>2023-07-23T10:13:43Z</time>
      </trkpt>
      <trkpt lat="48.39719" lon="7.36471">
        <ele>383.8</ele>
        <time>2023-07-23T10:13:44Z</time>
      </trkpt>
      <trkpt lat="48.39722" lon="7.3647">
        <ele>384</ele>
        <time>2023-07-23T10:13:45Z</time>
      </trkpt>
      <trkpt lat="48.39725" lon="7.36469">
        <ele>384.1</ele>
        <time>2023-07-23T10:13:46Z</time>
      </trkpt>
      <trkpt lat="48.39728" lon="7.36469">
        <ele>384.3</ele>
        <time>2023-07-23T10:13:47Z</time>
      </trkpt>
      <trkpt lat="48.39732" lon="7.3647">
        <ele>384.5</ele>
        <time>2023-07-23T10:13:48Z</time>
      </trkpt>
      <trkpt lat="48.39734" lon="7.36471">
        <ele>384.6</ele>
        <time>2023-07-23T10:13:49Z</time>
      </trkpt>
      <trkpt lat="48.39737" lon="7.36472">
        <ele>384.7</ele>
        <time>2023-07-23T10:13:50Z</time>
      </trkpt>
      <trkpt lat="48.39741" lon="7.36474">
        <ele>384.9</ele>
        <time>2023-07-23T10:13:51Z</time>
      </trkpt>
      <trkpt lat="48.39744" lon="7.36476">
        <ele>385</ele>
        <time>2023-07-23T10:13:52Z</time>
      </trkpt>
      <trkpt lat="48.39747" lon="7.36479">
        <ele>385.1</ele>
        <time>2023-07-23T10:13:53Z</time>
      </trkpt>
      <trkpt lat="48.3975" lon="7.36482">
        <ele>385.3</ele>
        <time>2023-07-23T10:13:54Z</time>
      </trkpt>
      <trkpt lat="48.39753" lon="7.36485">
        <ele>385.4</ele>
        <time>2023-07-23T10:13:55Z</time>
      </trkpt>
      <trkpt lat="48.39756" lon="7.36488">
        <ele>385.6</ele>
        <time>2023-07-23T10:13:56Z</time>
      </trkpt>
      <trkpt lat="48.39758" lon="7.36491">
        <ele>385.7</ele>
        <time>2023-07-23T10:13:57Z</time>
      </trkpt>
      <trkpt lat="48.39761" lon="7.36495">
        <ele>385.8</ele>
        <time>2023-07-23T10:13:58Z</time>
      </trkpt>
      <trkpt lat="48.39764" lon="7.36497">
        <ele>385.9</ele>
        <time>2023-07-23T10:13:59Z</time>
      </trkpt>
      <trkpt lat="48.39766" lon="7.36501">
        <ele>386</ele>
        <time>2023-07-23T10:14:00Z</time>
      </trkpt>
      <trkpt lat="48.39769" lon="7.36503">
        <ele>386.2</ele>
        <time>2023-07-23T10:14:01Z</time>
      </trkpt>
      <trkpt lat="48.39772" lon="7.36507">
        <ele>386.3</ele>
        <time>2023-07-23T10:14:02Z</time>
      </trkpt>
      <trkpt lat="48.39774" lon="7.3651">
        <ele>386.4</ele>
        <time>2023-07-23T10:14:03Z</time>
      </trkpt>
      <trkpt lat="48.39778" lon="7.36513">
        <ele>386.5</ele>
        <time>2023-07-23T10:14:04Z</time>
      </trkpt>
      <trkpt lat="48.39781" lon="7.36517">
        <ele>386.6</ele>
        <time>2023-07-23T10:14:05Z</time>
      </trkpt>
      <trkpt lat="48.39785" lon="7.36521">
        <ele>386.7</ele>
        <time>2023-07-23T10:14:06Z</time>
      </trkpt>
      <trkpt lat="48.39788" lon="7.36525">
        <ele>386.8</ele>
        <time>2023-07-23T10:14:07Z</time>
      </trkpt>
      <trkpt lat="48.39792" lon="7.36529">
        <ele>386.9</ele>
        <time>2023-07-23T10:14:08Z</time>
      </trkpt>
      <trkpt lat="48.39796" lon="7.36531">
        <ele>386.9</ele>
        <time>2023-07-23T10:14:09Z</time>
      </trkpt>
      <trkpt lat="48.398" lon="7.36534">
        <ele>387</ele>
        <time>2023-07-23T10:14:10Z</time>
      </trkpt>
      <trkpt lat="48.39804" lon="7.36536">
        <ele>387.1</ele>
        <time>2023-07-23T10:14:11Z</time>
      </trkpt>
      <trkpt lat="48.39808" lon="7.36537">
        <ele>387.2</ele>
        <time>2023-07-23T10:14:12Z</time>
      </trkpt>
      <trkpt lat="48.39811" lon="7.36538">
        <ele>387.3</ele>
        <time>2023-07-23T10:14:13Z</time>
      </trkpt>
      <trkpt lat="48.39816" lon="7.36536">
        <ele>387.4</ele>
        <time>2023-07-23T10:14:14Z</time>
      </trkpt>
      <trkpt lat="48.39819" lon="7.36535">
        <ele>387.4</ele>
        <time>2023-07-23T10:14:15Z</time>
      </trkpt>
      <trkpt lat="48.39823" lon="7.36532">
        <ele>387.5</ele>
        <time>2023-07-23T10:14:17Z</time>
      </trkpt>
      <trkpt lat="48.39827" lon="7.3653">
        <ele>387.6</ele>
        <time>2023-07-23T10:14:18Z</time>
      </trkpt>
      <trkpt lat="48.39831" lon="7.36525">
        <ele>387.7</ele>
        <time>2023-07-23T10:14:19Z</time>
      </trkpt>
      <trkpt lat="48.39834" lon="7.36521">
        <ele>387.7</ele>
        <time>2023-07-23T10:14:20Z</time>
      </trkpt>
      <trkpt lat="48.39837" lon="7.36516">
        <ele>387.8</ele>
        <time>2023-07-23T10:14:21Z</time>
      </trkpt>
      <trkpt lat="48.3984" lon="7.36512">
        <ele>387.9</ele>
        <time>2023-07-23T10:14:22Z</time>
      </trkpt>
      <trkpt lat="48.39843" lon="7.36506">
        <ele>388</ele>
        <time>2023-07-23T10:14:23Z</time>
      </trkpt>
      <trkpt lat="48.39845" lon="7.36499">
        <ele>388.1</ele>
        <time>2023-07-23T10:14:24Z</time>
      </trkpt>
      <trkpt lat="48.39847" lon="7.36493">
        <ele>388.2</ele>
        <time>2023-07-23T10:14:25Z</time>
      </trkpt>
      <trkpt lat="48.39849" lon="7.36487">
        <ele>388.3</ele>
        <time>2023-07-23T10:14:26Z</time>
      </trkpt>
      <trkpt lat="48.3985" lon="7.3648">
        <ele>388.4</ele>
        <time>2023-07-23T10:14:27Z</time>
      </trkpt>
      <trkpt lat="48.39851" lon="7.36474">
        <ele>388.5</ele>
        <time>2023-07-23T10:14:28Z</time>
      </trkpt>
      <trkpt lat="48.39853" lon="7.36468">
        <ele>388.6</ele>
        <time>2023-07-23T10:14:29Z</time>
      </trkpt>
      <trkpt lat="48.39853" lon="7.36461">
        <ele>388.7</ele>
        <time>2023-07-23T10:14:30Z</time>
      </trkpt>
      <trkpt lat="48.39854" lon="7.36454">
        <ele>388.9</ele>
        <time>2023-07-23T10:14:31Z</time>
      </trkpt>
      <trkpt lat="48.39855" lon="7.36447">
        <ele>389</ele>
        <time>2023-07-23T10:14:32Z</time>
      </trkpt>
      <trkpt lat="48.39855" lon="7.36441">
        <ele>389.2</ele>
        <time>2023-07-23T10:14:33Z</time>
      </trkpt>
      <trkpt lat="48.39856" lon="7.36434">
        <ele>389.3</ele>
        <time>2023-07-23T10:14:34Z</time>
      </trkpt>
      <trkpt lat="48.39856" lon="7.36427">
        <ele>389.4</ele>
        <time>2023-07-23T10:14:35Z</time>
      </trkpt>
      <trkpt lat="48.39857" lon="7.3642">
        <ele>389.5</ele>
        <time>2023-07-23T10:14:36Z</time>
      </trkpt>
      <trkpt lat="48.39857" lon="7.36413">
        <ele>389.6</ele>
        <time>2023-07-23T10:14:37Z</time>
      </trkpt>
      <trkpt lat="48.39857" lon="7.36407">
        <ele>389.7</ele>
        <time>2023-07-23T10:14:38Z</time>
      </trkpt>
      <trkpt lat="48.39858" lon="7.364">
        <ele>389.7</ele>
        <time>2023-07-23T10:14:39Z</time>
      </trkpt>
      <trkpt lat="48.39857" lon="7.36393">
        <ele>389.8</ele>
        <time>2023-07-23T10:14:40Z</time>
      </trkpt>
      <trkpt lat="48.39858" lon="7.36386">
        <ele>389.9</ele>
        <time>2023-07-23T10:14:41Z</time>
      </trkpt>
      <trkpt lat="48.39858" lon="7.36379">
        <ele>390</ele>
        <time>2023-07-23T10:14:42Z</time>
      </trkpt>
      <trkpt lat="48.39857" lon="7.36372">
        <ele>390.1</ele>
        <time>2023-07-23T10:14:43Z</time>
      </trkpt>
      <trkpt lat="48.39857" lon="7.36366">
        <ele>390.2</ele>
        <time>2023-07-23T10:14:44Z</time>
      </trkpt>
      <trkpt lat="48.39856" lon="7.36359">
        <ele>390.3</ele>
        <time>2023-07-23T10:14:45Z</time>
      </trkpt>
      <trkpt lat="48.39856" lon="7.36352">
        <ele>390.4</ele>
        <time>2023-07-23T10:14:46Z</time>
      </trkpt>
      <trkpt lat="48.39855" lon="7.36346">
        <ele>390.5</ele>
        <time>2023-07-23T10:14:47Z</time>
      </trkpt>
      <trkpt lat="48.39854" lon="7.36339">
        <ele>390.5</ele>
        <time>2023-07-23T10:14:48Z</time>
      </trkpt>
      <trkpt lat="48.39852" lon="7.36333">
        <ele>390.6</ele>
        <time>2023-07-23T10:14:49Z</time>
      </trkpt>
      <trkpt lat="48.3985" lon="7.36327">
        <ele>390.7</ele>
        <time>2023-07-23T10:14:50Z</time>
      </trkpt>
      <trkpt lat="48.39849" lon="7.36321">
        <ele>390.8</ele>
        <time>2023-07-23T10:14:51Z</time>
      </trkpt>
      <trkpt lat="48.39847" lon="7.36315">
        <ele>390.9</ele>
        <time>2023-07-23T10:14:52Z</time>
      </trkpt>
      <trkpt lat="48.39845" lon="7.36309">
        <ele>391.1</ele>
        <time>2023-07-23T10:14:53Z</time>
      </trkpt>
      <trkpt lat="48.39844" lon="7.36303">
        <ele>391.2</ele>
        <time>2023-07-23T10:14:54Z</time>
      </trkpt>
      <trkpt lat="48.39842" lon="7.36297">
        <ele>391.4</ele>
        <time>2023-07-23T10:14:55Z</time>
      </trkpt>
      <trkpt lat="48.3984" lon="7.36292">
        <ele>391.5</ele>
        <time>2023-07-23T10:14:56Z</time>
      </trkpt>
      <trkpt lat="48.39838" lon="7.36286">
        <ele>391.7</ele>
        <time>2023-07-23T10:14:57Z</time>
      </trkpt>
      <trkpt lat="48.39837" lon="7.36281">
        <ele>391.9</ele>
        <time>2023-07-23T10:14:58Z</time>
      </trkpt>
      <trkpt lat="48.39836" lon="7.36275">
        <ele>392</ele>
        <time>2023-07-23T10:14:59Z</time>
      </trkpt>
      <trkpt lat="48.39834" lon="7.3627">
        <ele>392.2</ele>
        <time>2023-07-23T10:15:00Z</time>
      </trkpt>
      <trkpt lat="48.39833" lon="7.36264">
        <ele>392.4</ele>
        <time>2023-07-23T10:15:01Z</time>
      </trkpt>
      <trkpt lat="48.39831" lon="7.36259">
        <ele>392.5</ele>
        <time>2023-07-23T10:15:02Z</time>
      </trkpt>
      <trkpt lat="48.3983" lon="7.36254">
        <ele>392.7</ele>
        <time>2023-07-23T10:15:03Z</time>
      </trkpt>
      <trkpt lat="48.39828" lon="7.36249">
        <ele>392.8</ele>
        <time>2023-07-23T10:15:04Z</time>
      </trkpt>
      <trkpt lat="48.39826" lon="7.36245">
        <ele>392.9</ele>
        <time>2023-07-23T10:15:05Z</time>
      </trkpt>
      <trkpt lat="48.39825" lon="7.36239">
        <ele>393.1</ele>
        <time>2023-07-23T10:15:06Z</time>
      </trkpt>
      <trkpt lat="48.39821" lon="7.3623">
        <ele>393.3</ele>
        <time>2023-07-23T10:15:07Z</time>
      </trkpt>
      <trkpt lat="48.39819" lon="7.36225">
        <ele>393.4</ele>
        <time>2023-07-23T10:15:08Z</time>
      </trkpt>
      <trkpt lat="48.39817" lon="7.3622">
        <ele>393.5</ele>
        <time>2023-07-23T10:15:09Z</time>
      </trkpt>
      <trkpt lat="48.39815" lon="7.36214">
        <ele>393.6</ele>
        <time>2023-07-23T10:15:10Z</time>
      </trkpt>
      <trkpt lat="48.39813" lon="7.36209">
        <ele>393.7</ele>
        <time>2023-07-23T10:15:11Z</time>
      </trkpt>
      <trkpt lat="48.39811" lon="7.36204">
        <ele>393.8</ele>
        <time>2023-07-23T10:15:12Z</time>
      </trkpt>
      <trkpt lat="48.39809" lon="7.36199">
        <ele>393.9</ele>
        <time>2023-07-23T10:15:13Z</time>
      </trkpt>
      <trkpt lat="48.39807" lon="7.36194">
        <ele>394.1</ele>
        <time>2023-07-23T10:15:14Z</time>
      </trkpt>
      <trkpt lat="48.39804" lon="7.36189">
        <ele>394.2</ele>
        <time>2023-07-23T10:15:15Z</time>
      </trkpt>
      <trkpt lat="48.39802" lon="7.36184">
        <ele>394.3</ele>
        <time>2023-07-23T10:15:16Z</time>
      </trkpt>
      <trkpt lat="48.39799" lon="7.3618">
        <ele>394.4</ele>
        <time>2023-07-23T10:15:17Z</time>
      </trkpt>
      <trkpt lat="48.39797" lon="7.36175">
        <ele>394.5</ele>
        <time>2023-07-23T10:15:18Z</time>
      </trkpt>
      <trkpt lat="48.39794" lon="7.36171">
        <ele>394.6</ele>
        <time>2023-07-23T10:15:19Z</time>
      </trkpt>
      <trkpt lat="48.39792" lon="7.36166">
        <ele>394.7</ele>
        <time>2023-07-23T10:15:20Z</time>
      </trkpt>
      <trkpt lat="48.39789" lon="7.36161">
        <ele>394.8</ele>
        <time>2023-07-23T10:15:21Z</time>
      </trkpt>
      <trkpt lat="48.39787" lon="7.36157">
        <ele>394.9</ele>
        <time>2023-07-23T10:15:22Z</time>
      </trkpt>
      <trkpt lat="48.39784" lon="7.36152">
        <ele>395.1</ele>
        <time>2023-07-23T10:15:23Z</time>
      </trkpt>
      <trkpt lat="48.39781" lon="7.36148">
        <ele>395.2</ele>
        <time>2023-07-23T10:15:24Z</time>
      </trkpt>
      <trkpt lat="48.39779" lon="7.36143">
        <ele>395.3</ele>
        <time>2023-07-23T10:15:25Z</time>
      </trkpt>
      <trkpt lat="48.39776" lon="7.36139">
        <ele>395.3</ele>
        <time>2023-07-23T10:15:26Z</time>
      </trkpt>
      <trkpt lat="48.39774" lon="7.36134">
        <ele>395.5</ele>
        <time>2023-07-23T10:15:27Z</time>
      </trkpt>
      <trkpt lat="48.39771" lon="7.3613">
        <ele>395.5</ele>
        <time>2023-07-23T10:15:28Z</time>
      </trkpt>
      <trkpt lat="48.39768" lon="7.36126">
        <ele>395.7</ele>
        <time>2023-07-23T10:15:29Z</time>
      </trkpt>
      <trkpt lat="48.39765" lon="7.36121">
        <ele>395.8</ele>
        <time>2023-07-23T10:15:30Z</time>
      </trkpt>
      <trkpt lat="48.39762" lon="7.36118">
        <ele>395.9</ele>
        <time>2023-07-23T10:15:31Z</time>
      </trkpt>
      <trkpt lat="48.39759" lon="7.36114">
        <ele>396</ele>
        <time>2023-07-23T10:15:32Z</time>
      </trkpt>
      <trkpt lat="48.39756" lon="7.3611">
        <ele>396.1</ele>
        <time>2023-07-23T10:15:33Z</time>
      </trkpt>
      <trkpt lat="48.39753" lon="7.36106">
        <ele>396.2</ele>
        <time>2023-07-23T10:15:34Z</time>
      </trkpt>
      <trkpt lat="48.3975" lon="7.36102">
        <ele>396.3</ele>
        <time>2023-07-23T10:15:35Z</time>
      </trkpt>
      <trkpt lat="48.39747" lon="7.36098">
        <ele>396.4</ele>
        <time>2023-07-23T10:15:36Z</time>
      </trkpt>
      <trkpt lat="48.39744" lon="7.36095">
        <ele>396.5</ele>
        <time>2023-07-23T10:15:37Z</time>
      </trkpt>
      <trkpt lat="48.39742" lon="7.36091">
        <ele>396.6</ele>
        <time>2023-07-23T10:15:38Z</time>
      </trkpt>
      <trkpt lat="48.39739" lon="7.36088">
        <ele>396.7</ele>
        <time>2023-07-23T10:15:39Z</time>
      </trkpt>
      <trkpt lat="48.39736" lon="7.36083">
        <ele>396.9</ele>
        <time>2023-07-23T10:15:40Z</time>
      </trkpt>
      <trkpt lat="48.39734" lon="7.3608">
        <ele>397</ele>
        <time>2023-07-23T10:15:41Z</time>
      </trkpt>
      <trkpt lat="48.39731" lon="7.36076">
        <ele>397.1</ele>
        <time>2023-07-23T10:15:42Z</time>
      </trkpt>
      <trkpt lat="48.39728" lon="7.36072">
        <ele>397.2</ele>
        <time>2023-07-23T10:15:43Z</time>
      </trkpt>
      <trkpt lat="48.39726" lon="7.36067">
        <ele>397.3</ele>
        <time>2023-07-23T10:15:44Z</time>
      </trkpt>
      <trkpt lat="48.39723" lon="7.36063">
        <ele>397.4</ele>
        <time>2023-07-23T10:15:45Z</time>
      </trkpt>
      <trkpt lat="48.3972" lon="7.36059">
        <ele>397.5</ele>
        <time>2023-07-23T10:15:46Z</time>
      </trkpt>
      <trkpt lat="48.39718" lon="7.36056">
        <ele>397.7</ele>
        <time>2023-07-23T10:15:47Z</time>
      </trkpt>
      <trkpt lat="48.39716" lon="7.36052">
        <ele>397.8</ele>
        <time>2023-07-23T10:15:48Z</time>
      </trkpt>
      <trkpt lat="48.39713" lon="7.36047">
        <ele>398</ele>
        <time>2023-07-23T10:15:49Z</time>
      </trkpt>
      <trkpt lat="48.39711" lon="7.36044">
        <ele>398.1</ele>
        <time>2023-07-23T10:15:50Z</time>
      </trkpt>
      <trkpt lat="48.39708" lon="7.3604">
        <ele>398.2</ele>
        <time>2023-07-23T10:15:51Z</time>
      </trkpt>
      <trkpt lat="48.39706" lon="7.36037">
        <ele>398.4</ele>
        <time>2023-07-23T10:15:52Z</time>
      </trkpt>
      <trkpt lat="48.39704" lon="7.36033">
        <ele>398.5</ele>
        <time>2023-07-23T10:15:53Z</time>
      </trkpt>
      <trkpt lat="48.39701" lon="7.3603">
        <ele>398.7</ele>
        <time>2023-07-23T10:15:54Z</time>
      </trkpt>
      <trkpt lat="48.39699" lon="7.36027">
        <ele>398.8</ele>
        <time>2023-07-23T10:15:55Z</time>
      </trkpt>
      <trkpt lat="48.39697" lon="7.36024">
        <ele>398.9</ele>
        <time>2023-07-23T10:15:56Z</time>
      </trkpt>
      <trkpt lat="48.39695" lon="7.3602">
        <ele>399.1</ele>
        <time>2023-07-23T10:15:57Z</time>
      </trkpt>
      <trkpt lat="48.39692" lon="7.36017">
        <ele>399.2</ele>
        <time>2023-07-23T10:15:58Z</time>
      </trkpt>
      <trkpt lat="48.3969" lon="7.36014">
        <ele>399.3</ele>
        <time>2023-07-23T10:15:59Z</time>
      </trkpt>
      <trkpt lat="48.39688" lon="7.3601">
        <ele>399.5</ele>
        <time>2023-07-23T10:16:00Z</time>
      </trkpt>
      <trkpt lat="48.39686" lon="7.36007">
        <ele>399.6</ele>
        <time>2023-07-23T10:16:01Z</time>
      </trkpt>
      <trkpt lat="48.39683" lon="7.36003">
        <ele>399.8</ele>
        <time>2023-07-23T10:16:02Z</time>
      </trkpt>
      <trkpt lat="48.39681" lon="7.36">
        <ele>399.9</ele>
        <time>2023-07-23T10:16:03Z</time>
      </trkpt>
      <trkpt lat="48.39679" lon="7.35997">
        <ele>400</ele>
        <time>2023-07-23T10:16:04Z</time>
      </trkpt>
      <trkpt lat="48.39676" lon="7.35994">
        <ele>400.2</ele>
        <time>2023-07-23T10:16:05Z</time>
      </trkpt>
      <trkpt lat="48.39674" lon="7.3599">
        <ele>400.3</ele>
        <time>2023-07-23T10:16:06Z</time>
      </trkpt>
      <trkpt lat="48.39672" lon="7.35987">
        <ele>400.4</ele>
        <time>2023-07-23T10:16:07Z</time>
      </trkpt>
      <trkpt lat="48.39669" lon="7.35983">
        <ele>400.5</ele>
        <time>2023-07-23T10:16:08Z</time>
      </trkpt>
      <trkpt lat="48.39667" lon="7.3598">
        <ele>400.6</ele>
        <time>2023-07-23T10:16:09Z</time>
      </trkpt>
      <trkpt lat="48.39665" lon="7.35976">
        <ele>400.8</ele>
        <time>2023-07-23T10:16:10Z</time>
      </trkpt>
      <trkpt lat="48.39662" lon="7.35973">
        <ele>400.9</ele>
        <time>2023-07-23T10:16:11Z</time>
      </trkpt>
      <trkpt lat="48.3966" lon="7.3597">
        <ele>401</ele>
        <time>2023-07-23T10:16:12Z</time>
      </trkpt>
      <trkpt lat="48.39657" lon="7.35967">
        <ele>401.1</ele>
        <time>2023-07-23T10:16:13Z</time>
      </trkpt>
      <trkpt lat="48.39655" lon="7.35963">
        <ele>401.2</ele>
        <time>2023-07-23T10:16:14Z</time>
      </trkpt>
      <trkpt lat="48.39653" lon="7.3596">
        <ele>401.3</ele>
        <time>2023-07-23T10:16:15Z</time>
      </trkpt>
      <trkpt lat="48.3965" lon="7.35957">
        <ele>401.5</ele>
        <time>2023-07-23T10:16:16Z</time>
      </trkpt>
      <trkpt lat="48.39647" lon="7.35953">
        <ele>401.6</ele>
        <time>2023-07-23T10:16:17Z</time>
      </trkpt>
      <trkpt lat="48.39645" lon="7.3595">
        <ele>401.7</ele>
        <time>2023-07-23T10:16:18Z</time>
      </trkpt>
      <trkpt lat="48.39643" lon="7.35946">
        <ele>401.9</ele>
        <time>2023-07-23T10:16:19Z</time>
      </trkpt>
      <trkpt lat="48.3964" lon="7.35943">
        <ele>402</ele>
        <time>2023-07-23T10:16:20Z</time>
      </trkpt>
      <trkpt lat="48.39638" lon="7.3594">
        <ele>402.2</ele>
        <time>2023-07-23T10:16:21Z</time>
      </trkpt>
      <trkpt lat="48.39635" lon="7.35936">
        <ele>402.3</ele>
        <time>2023-07-23T10:16:23Z</time>
      </trkpt>
      <trkpt lat="48.39633" lon="7.35933">
        <ele>402.5</ele>
        <time>2023-07-23T10:16:24Z</time>
      </trkpt>
      <trkpt lat="48.3963" lon="7.35929">
        <ele>402.7</ele>
        <time>2023-07-23T10:16:25Z</time>
      </trkpt>
      <trkpt lat="48.39628" lon="7.35926">
        <ele>402.8</ele>
        <time>2023-07-23T10:16:26Z</time>
      </trkpt>
      <trkpt lat="48.39625" lon="7.35922">
        <ele>403</ele>
        <time>2023-07-23T10:16:27Z</time>
      </trkpt>
      <trkpt lat="48.39623" lon="7.35919">
        <ele>403.1</ele>
        <time>2023-07-23T10:16:28Z</time>
      </trkpt>
      <trkpt lat="48.39621" lon="7.35916">
        <ele>403.3</ele>
        <time>2023-07-23T10:16:29Z</time>
      </trkpt>
      <trkpt lat="48.39618" lon="7.35912">
        <ele>403.5</ele>
        <time>2023-07-23T10:16:30Z</time>
      </trkpt>
      <trkpt lat="48.39616" lon="7.35909">
        <ele>403.6</ele>
        <time>2023-07-23T10:16:31Z</time>
      </trkpt>
      <trkpt lat="48.39614" lon="7.35906">
        <ele>403.8</ele>
        <time>2023-07-23T10:16:32Z</time>
      </trkpt>
      <trkpt lat="48.39611" lon="7.35903">
        <ele>404</ele>
        <time>2023-07-23T10:16:33Z</time>
      </trkpt>
      <trkpt lat="48.39609" lon="7.359">
        <ele>404.1</ele>
        <time>2023-07-23T10:16:34Z</time>
      </trkpt>
      <trkpt lat="48.39607" lon="7.35897">
        <ele>404.3</ele>
        <time>2023-07-23T10:16:35Z</time>
      </trkpt>
      <trkpt lat="48.39605" lon="7.35894">
        <ele>404.5</ele>
        <time>2023-07-23T10:16:36Z</time>
      </trkpt>
      <trkpt lat="48.39603" lon="7.35891">
        <ele>404.6</ele>
        <time>2023-07-23T10:16:37Z</time>
      </trkpt>
      <trkpt lat="48.396" lon="7.35888">
        <ele>404.8</ele>
        <time>2023-07-23T10:16:38Z</time>
      </trkpt>
      <trkpt lat="48.39598" lon="7.35885">
        <ele>404.9</ele>
        <time>2023-07-23T10:16:39Z</time>
      </trkpt>
      <trkpt lat="48.39596" lon="7.35882">
        <ele>405.1</ele>
        <time>2023-07-23T10:16:40Z</time>
      </trkpt>
      <trkpt lat="48.39594" lon="7.35879">
        <ele>405.3</ele>
        <time>2023-07-23T10:16:41Z</time>
      </trkpt>
      <trkpt lat="48.39591" lon="7.35875">
        <ele>405.5</ele>
        <time>2023-07-23T10:16:42Z</time>
      </trkpt>
      <trkpt lat="48.3959" lon="7.35874">
        <ele>405.5</ele>
        <time>2023-07-23T10:16:43Z</time>
      </trkpt>
      <trkpt lat="48.39588" lon="7.35871">
        <ele>405.7</ele>
        <time>2023-07-23T10:16:44Z</time>
      </trkpt>
      <trkpt lat="48.39587" lon="7.3587">
        <ele>405.8</ele>
        <time>2023-07-23T10:16:45Z</time>
      </trkpt>
      <trkpt lat="48.39584" lon="7.35866">
        <ele>406</ele>
        <time>2023-07-23T10:16:46Z</time>
      </trkpt>
      <trkpt lat="48.39583" lon="7.35865">
        <ele>406</ele>
        <time>2023-07-23T10:16:47Z</time>
      </trkpt>
      <trkpt lat="48.39581" lon="7.35862">
        <ele>406.2</ele>
        <time>2023-07-23T10:16:48Z</time>
      </trkpt>
      <trkpt lat="48.39577" lon="7.35856">
        <ele>406.5</ele>
        <time>2023-07-23T10:16:49Z</time>
      </trkpt>
      <trkpt lat="48.39575" lon="7.35852">
        <ele>406.7</ele>
        <time>2023-07-23T10:16:50Z</time>
      </trkpt>
      <trkpt lat="48.39574" lon="7.35851">
        <ele>406.8</ele>
        <time>2023-07-23T10:16:51Z</time>
      </trkpt>
      <trkpt lat="48.39571" lon="7.35847">
        <ele>407</ele>
        <time>2023-07-23T10:16:52Z</time>
      </trkpt>
      <trkpt lat="48.3957" lon="7.35845">
        <ele>407.1</ele>
        <time>2023-07-23T10:16:53Z</time>
      </trkpt>
      <trkpt lat="48.39567" lon="7.35841">
        <ele>407.3</ele>
        <time>2023-07-23T10:16:54Z</time>
      </trkpt>
      <trkpt lat="48.39566" lon="7.3584">
        <ele>407.4</ele>
        <time>2023-07-23T10:16:55Z</time>
      </trkpt>
      <trkpt lat="48.39564" lon="7.35836">
        <ele>407.6</ele>
        <time>2023-07-23T10:16:56Z</time>
      </trkpt>
      <trkpt lat="48.39563" lon="7.35834">
        <ele>407.7</ele>
        <time>2023-07-23T10:16:57Z</time>
      </trkpt>
      <trkpt lat="48.3956" lon="7.35829">
        <ele>407.9</ele>
        <time>2023-07-23T10:16:58Z</time>
      </trkpt>
      <trkpt lat="48.39559" lon="7.35828">
        <ele>408</ele>
        <time>2023-07-23T10:16:59Z</time>
      </trkpt>
      <trkpt lat="48.39558" lon="7.35824">
        <ele>408.2</ele>
        <time>2023-07-23T10:17:00Z</time>
      </trkpt>
      <trkpt lat="48.39556" lon="7.35821">
        <ele>408.4</ele>
        <time>2023-07-23T10:17:01Z</time>
      </trkpt>
      <trkpt lat="48.39554" lon="7.35816">
        <ele>408.6</ele>
        <time>2023-07-23T10:17:02Z</time>
      </trkpt>
      <trkpt lat="48.39553" lon="7.35812">
        <ele>408.8</ele>
        <time>2023-07-23T10:17:03Z</time>
      </trkpt>
      <trkpt lat="48.39552" lon="7.35807">
        <ele>409</ele>
        <time>2023-07-23T10:17:04Z</time>
      </trkpt>
      <trkpt lat="48.39551" lon="7.35803">
        <ele>409.2</ele>
        <time>2023-07-23T10:17:05Z</time>
      </trkpt>
      <trkpt lat="48.39549" lon="7.35799">
        <ele>409.4</ele>
        <time>2023-07-23T10:17:06Z</time>
      </trkpt>
      <trkpt lat="48.39548" lon="7.35795">
        <ele>409.6</ele>
        <time>2023-07-23T10:17:07Z</time>
      </trkpt>
      <trkpt lat="48.39548" lon="7.3579">
        <ele>409.8</ele>
        <time>2023-07-23T10:17:08Z</time>
      </trkpt>
      <trkpt lat="48.39547" lon="7.35786">
        <ele>409.9</ele>
        <time>2023-07-23T10:17:09Z</time>
      </trkpt>
      <trkpt lat="48.39546" lon="7.35782">
        <ele>410.1</ele>
        <time>2023-07-23T10:17:10Z</time>
      </trkpt>
      <trkpt lat="48.39546" lon="7.35777">
        <ele>410.3</ele>
        <time>2023-07-23T10:17:11Z</time>
      </trkpt>
      <trkpt lat="48.39546" lon="7.35773">
        <ele>410.5</ele>
        <time>2023-07-23T10:17:12Z</time>
      </trkpt>
      <trkpt lat="48.39546" lon="7.35769">
        <ele>410.7</ele>
        <time>2023-07-23T10:17:13Z</time>
      </trkpt>
      <trkpt lat="48.39546" lon="7.35764">
        <ele>410.9</ele>
        <time>2023-07-23T10:17:14Z</time>
      </trkpt>
      <trkpt lat="48.39546" lon="7.3576">
        <ele>411.1</ele>
        <time>2023-07-23T10:17:15Z</time>
      </trkpt>
      <trkpt lat="48.39546" lon="7.35756">
        <ele>411.3</ele>
        <time>2023-07-23T10:17:16Z</time>
      </trkpt>
      <trkpt lat="48.39546" lon="7.35751">
        <ele>411.5</ele>
        <time>2023-07-23T10:17:17Z</time>
      </trkpt>
      <trkpt lat="48.39547" lon="7.35747">
        <ele>411.7</ele>
        <time>2023-07-23T10:17:18Z</time>
      </trkpt>
      <trkpt lat="48.39547" lon="7.35743">
        <ele>411.9</ele>
        <time>2023-07-23T10:17:19Z</time>
      </trkpt>
      <trkpt lat="48.39548" lon="7.35738">
        <ele>412.1</ele>
        <time>2023-07-23T10:17:20Z</time>
      </trkpt>
      <trkpt lat="48.39549" lon="7.35734">
        <ele>412.3</ele>
        <time>2023-07-23T10:17:21Z</time>
      </trkpt>
      <trkpt lat="48.3955" lon="7.3573">
        <ele>412.5</ele>
        <time>2023-07-23T10:17:22Z</time>
      </trkpt>
      <trkpt lat="48.39552" lon="7.35725">
        <ele>412.8</ele>
        <time>2023-07-23T10:17:23Z</time>
      </trkpt>
      <trkpt lat="48.39553" lon="7.35723">
        <ele>413</ele>
        <time>2023-07-23T10:17:24Z</time>
      </trkpt>
      <trkpt lat="48.39554" lon="7.35719">
        <ele>413.2</ele>
        <time>2023-07-23T10:17:25Z</time>
      </trkpt>
      <trkpt lat="48.39556" lon="7.35716">
        <ele>413.5</ele>
        <time>2023-07-23T10:17:26Z</time>
      </trkpt>
      <trkpt lat="48.39558" lon="7.35713">
        <ele>413.7</ele>
        <time>2023-07-23T10:17:27Z</time>
      </trkpt>
      <trkpt lat="48.3956" lon="7.35709">
        <ele>413.9</ele>
        <time>2023-07-23T10:17:28Z</time>
      </trkpt>
      <trkpt lat="48.39562" lon="7.35706">
        <ele>414.2</ele>
        <time>2023-07-23T10:17:29Z</time>
      </trkpt>
      <trkpt lat="48.39565" lon="7.35704">
        <ele>414.4</ele>
        <time>2023-07-23T10:17:30Z</time>
      </trkpt>
      <trkpt lat="48.39567" lon="7.35699">
        <ele>414.7</ele>
        <time>2023-07-23T10:17:31Z</time>
      </trkpt>
      <trkpt lat="48.39569" lon="7.35698">
        <ele>414.9</ele>
        <time>2023-07-23T10:17:32Z</time>
      </trkpt>
      <trkpt lat="48.39571" lon="7.35695">
        <ele>415.1</ele>
        <time>2023-07-23T10:17:33Z</time>
      </trkpt>
      <trkpt lat="48.39573" lon="7.35693">
        <ele>415.3</ele>
        <time>2023-07-23T10:17:34Z</time>
      </trkpt>
      <trkpt lat="48.39575" lon="7.3569">
        <ele>415.5</ele>
        <time>2023-07-23T10:17:35Z</time>
      </trkpt>
      <trkpt lat="48.39577" lon="7.35687">
        <ele>415.7</ele>
        <time>2023-07-23T10:17:36Z</time>
      </trkpt>
      <trkpt lat="48.3958" lon="7.35684">
        <ele>415.9</ele>
        <time>2023-07-23T10:17:37Z</time>
      </trkpt>
      <trkpt lat="48.39582" lon="7.35682">
        <ele>416.1</ele>
        <time>2023-07-23T10:17:38Z</time>
      </trkpt>
      <trkpt lat="48.39584" lon="7.35679">
        <ele>416.3</ele>
        <time>2023-07-23T10:17:39Z</time>
      </trkpt>
      <trkpt lat="48.39586" lon="7.35677">
        <ele>416.5</ele>
        <time>2023-07-23T10:17:40Z</time>
      </trkpt>
      <trkpt lat="48.39588" lon="7.35674">
        <ele>416.7</ele>
        <time>2023-07-23T10:17:41Z</time>
      </trkpt>
      <trkpt lat="48.39591" lon="7.35671">
        <ele>416.9</ele>
        <time>2023-07-23T10:17:42Z</time>
      </trkpt>
      <trkpt lat="48.39593" lon="7.35668">
        <ele>417.2</ele>
        <time>2023-07-23T10:17:43Z</time>
      </trkpt>
      <trkpt lat="48.39595" lon="7.35665">
        <ele>417.4</ele>
        <time>2023-07-23T10:17:44Z</time>
      </trkpt>
      <trkpt lat="48.39596" lon="7.35661">
        <ele>417.6</ele>
        <time>2023-07-23T10:17:45Z</time>
      </trkpt>
      <trkpt lat="48.39598" lon="7.35659">
        <ele>417.9</ele>
        <time>2023-07-23T10:17:46Z</time>
      </trkpt>
      <trkpt lat="48.39601" lon="7.35654">
        <ele>418.2</ele>
        <time>2023-07-23T10:17:47Z</time>
      </trkpt>
      <trkpt lat="48.39602" lon="7.35653">
        <ele>418.3</ele>
        <time>2023-07-23T10:17:48Z</time>
      </trkpt>
      <trkpt lat="48.39604" lon="7.3565">
        <ele>418.5</ele>
        <time>2023-07-23T10:17:49Z</time>
      </trkpt>
      <trkpt lat="48.39607" lon="7.35645">
        <ele>418.7</ele>
        <time>2023-07-23T10:17:50Z</time>
      </trkpt>
      <trkpt lat="48.39608" lon="7.35643">
        <ele>418.8</ele>
        <time>2023-07-23T10:17:51Z</time>
      </trkpt>
      <trkpt lat="48.3961" lon="7.35638">
        <ele>419.1</ele>
        <time>2023-07-23T10:17:52Z</time>
      </trkpt>
      <trkpt lat="48.39611" lon="7.35636">
        <ele>419.2</ele>
        <time>2023-07-23T10:17:53Z</time>
      </trkpt>
      <trkpt lat="48.39612" lon="7.35631">
        <ele>419.4</ele>
        <time>2023-07-23T10:17:54Z</time>
      </trkpt>
      <trkpt lat="48.39613" lon="7.35629">
        <ele>419.5</ele>
        <time>2023-07-23T10:17:55Z</time>
      </trkpt>
      <trkpt lat="48.39614" lon="7.35625">
        <ele>419.6</ele>
        <time>2023-07-23T10:17:56Z</time>
      </trkpt>
      <trkpt lat="48.39615" lon="7.35621">
        <ele>419.8</ele>
        <time>2023-07-23T10:17:57Z</time>
      </trkpt>
      <trkpt lat="48.39616" lon="7.35617">
        <ele>420</ele>
        <time>2023-07-23T10:17:58Z</time>
      </trkpt>
      <trkpt lat="48.39616" lon="7.35611">
        <ele>420.2</ele>
        <time>2023-07-23T10:17:59Z</time>
      </trkpt>
      <trkpt lat="48.39617" lon="7.3561">
        <ele>420.2</ele>
        <time>2023-07-23T10:18:00Z</time>
      </trkpt>
      <trkpt lat="48.39617" lon="7.35605">
        <ele>420.4</ele>
        <time>2023-07-23T10:18:01Z</time>
      </trkpt>
      <trkpt lat="48.39618" lon="7.35599">
        <ele>420.6</ele>
        <time>2023-07-23T10:18:02Z</time>
      </trkpt>
      <trkpt lat="48.39618" lon="7.35597">
        <ele>420.7</ele>
        <time>2023-07-23T10:18:03Z</time>
      </trkpt>
      <trkpt lat="48.39618" lon="7.35592">
        <ele>420.8</ele>
        <time>2023-07-23T10:18:04Z</time>
      </trkpt>
      <trkpt lat="48.39618" lon="7.35588">
        <ele>421</ele>
        <time>2023-07-23T10:18:05Z</time>
      </trkpt>
      <trkpt lat="48.39617" lon="7.35584">
        <ele>421.1</ele>
        <time>2023-07-23T10:18:06Z</time>
      </trkpt>
      <trkpt lat="48.39617" lon="7.35579">
        <ele>421.3</ele>
        <time>2023-07-23T10:18:07Z</time>
      </trkpt>
      <trkpt lat="48.39616" lon="7.35574">
        <ele>421.4</ele>
        <time>2023-07-23T10:18:08Z</time>
      </trkpt>
      <trkpt lat="48.39615" lon="7.35572">
        <ele>421.5</ele>
        <time>2023-07-23T10:18:09Z</time>
      </trkpt>
      <trkpt lat="48.39614" lon="7.35567">
        <ele>421.6</ele>
        <time>2023-07-23T10:18:10Z</time>
      </trkpt>
      <trkpt lat="48.39614" lon="7.35563">
        <ele>421.8</ele>
        <time>2023-07-23T10:18:11Z</time>
      </trkpt>
      <trkpt lat="48.39612" lon="7.35559">
        <ele>421.9</ele>
        <time>2023-07-23T10:18:12Z</time>
      </trkpt>
      <trkpt lat="48.39611" lon="7.35555">
        <ele>422</ele>
        <time>2023-07-23T10:18:13Z</time>
      </trkpt>
      <trkpt lat="48.3961" lon="7.35551">
        <ele>422.1</ele>
        <time>2023-07-23T10:18:14Z</time>
      </trkpt>
      <trkpt lat="48.39608" lon="7.35546">
        <ele>422.2</ele>
        <time>2023-07-23T10:18:15Z</time>
      </trkpt>
      <trkpt lat="48.39607" lon="7.35541">
        <ele>422.4</ele>
        <time>2023-07-23T10:18:16Z</time>
      </trkpt>
      <trkpt lat="48.39606" lon="7.35539">
        <ele>422.5</ele>
        <time>2023-07-23T10:18:17Z</time>
      </trkpt>
      <trkpt lat="48.39604" lon="7.35535">
        <ele>422.6</ele>
        <time>2023-07-23T10:18:18Z</time>
      </trkpt>
      <trkpt lat="48.39602" lon="7.35531">
        <ele>422.8</ele>
        <time>2023-07-23T10:18:19Z</time>
      </trkpt>
      <trkpt lat="48.39601" lon="7.35529">
        <ele>422.8</ele>
        <time>2023-07-23T10:18:20Z</time>
      </trkpt>
      <trkpt lat="48.39599" lon="7.35525">
        <ele>423</ele>
        <time>2023-07-23T10:18:21Z</time>
      </trkpt>
      <trkpt lat="48.39597" lon="7.35522">
        <ele>423.1</ele>
        <time>2023-07-23T10:18:22Z</time>
      </trkpt>
      <trkpt lat="48.39594" lon="7.35518">
        <ele>423.3</ele>
        <time>2023-07-23T10:18:23Z</time>
      </trkpt>
      <trkpt lat="48.39593" lon="7.35517">
        <ele>423.4</ele>
        <time>2023-07-23T10:18:24Z</time>
      </trkpt>
      <trkpt lat="48.39591" lon="7.35514">
        <ele>423.5</ele>
        <time>2023-07-23T10:18:25Z</time>
      </trkpt>
      <trkpt lat="48.39588" lon="7.35511">
        <ele>423.6</ele>
        <time>2023-07-23T10:18:26Z</time>
      </trkpt>
      <trkpt lat="48.39586" lon="7.35508">
        <ele>423.8</ele>
        <time>2023-07-23T10:18:27Z</time>
      </trkpt>
      <trkpt lat="48.39584" lon="7.35506">
        <ele>423.9</ele>
        <time>2023-07-23T10:18:29Z</time>
      </trkpt>
      <trkpt lat="48.39581" lon="7.35504">
        <ele>424</ele>
        <time>2023-07-23T10:18:30Z</time>
      </trkpt>
      <trkpt lat="48.39578" lon="7.35502">
        <ele>424.2</ele>
        <time>2023-07-23T10:18:31Z</time>
      </trkpt>
      <trkpt lat="48.39576" lon="7.35499">
        <ele>424.3</ele>
        <time>2023-07-23T10:18:32Z</time>
      </trkpt>
      <trkpt lat="48.39573" lon="7.35496">
        <ele>424.4</ele>
        <time>2023-07-23T10:18:33Z</time>
      </trkpt>
      <trkpt lat="48.39571" lon="7.35494">
        <ele>424.6</ele>
        <time>2023-07-23T10:18:34Z</time>
      </trkpt>
      <trkpt lat="48.39568" lon="7.35492">
        <ele>424.7</ele>
        <time>2023-07-23T10:18:35Z</time>
      </trkpt>
      <trkpt lat="48.39563" lon="7.35486">
        <ele>424.9</ele>
        <time>2023-07-23T10:18:36Z</time>
      </trkpt>
      <trkpt lat="48.3956" lon="7.35482">
        <ele>425.1</ele>
        <time>2023-07-23T10:18:37Z</time>
      </trkpt>
      <trkpt lat="48.39558" lon="7.3548">
        <ele>425.2</ele>
        <time>2023-07-23T10:18:38Z</time>
      </trkpt>
      <trkpt lat="48.39555" lon="7.35477">
        <ele>425.3</ele>
        <time>2023-07-23T10:18:39Z</time>
      </trkpt>
      <trkpt lat="48.39553" lon="7.35474">
        <ele>425.4</ele>
        <time>2023-07-23T10:18:40Z</time>
      </trkpt>
      <trkpt lat="48.3955" lon="7.35471">
        <ele>425.6</ele>
        <time>2023-07-23T10:18:41Z</time>
      </trkpt>
      <trkpt lat="48.39548" lon="7.35468">
        <ele>425.7</ele>
        <time>2023-07-23T10:18:42Z</time>
      </trkpt>
      <trkpt lat="48.39545" lon="7.35464">
        <ele>425.8</ele>
        <time>2023-07-23T10:18:43Z</time>
      </trkpt>
      <trkpt lat="48.39543" lon="7.35461">
        <ele>425.9</ele>
        <time>2023-07-23T10:18:44Z</time>
      </trkpt>
      <trkpt lat="48.3954" lon="7.35458">
        <ele>426.1</ele>
        <time>2023-07-23T10:18:45Z</time>
      </trkpt>
      <trkpt lat="48.39538" lon="7.35455">
        <ele>426.2</ele>
        <time>2023-07-23T10:18:46Z</time>
      </trkpt>
      <trkpt lat="48.39536" lon="7.35451">
        <ele>426.3</ele>
        <time>2023-07-23T10:18:47Z</time>
      </trkpt>
      <trkpt lat="48.39533" lon="7.35448">
        <ele>426.4</ele>
        <time>2023-07-23T10:18:48Z</time>
      </trkpt>
      <trkpt lat="48.39531" lon="7.35444">
        <ele>426.5</ele>
        <time>2023-07-23T10:18:49Z</time>
      </trkpt>
      <trkpt lat="48.39529" lon="7.3544">
        <ele>426.7</ele>
        <time>2023-07-23T10:18:50Z</time>
      </trkpt>
      <trkpt lat="48.39527" lon="7.35437">
        <ele>426.8</ele>
        <time>2023-07-23T10:18:51Z</time>
      </trkpt>
      <trkpt lat="48.39525" lon="7.35433">
        <ele>426.9</ele>
        <time>2023-07-23T10:18:52Z</time>
      </trkpt>
      <trkpt lat="48.39522" lon="7.35429">
        <ele>427.1</ele>
        <time>2023-07-23T10:18:53Z</time>
      </trkpt>
      <trkpt lat="48.3952" lon="7.35426">
        <ele>427.2</ele>
        <time>2023-07-23T10:18:54Z</time>
      </trkpt>
      <trkpt lat="48.39518" lon="7.35423">
        <ele>427.4</ele>
        <time>2023-07-23T10:18:55Z</time>
      </trkpt>
      <trkpt lat="48.39515" lon="7.35421">
        <ele>427.6</ele>
        <time>2023-07-23T10:18:56Z</time>
      </trkpt>
      <trkpt lat="48.39513" lon="7.35418">
        <ele>427.7</ele>
        <time>2023-07-23T10:18:57Z</time>
      </trkpt>
      <trkpt lat="48.3951" lon="7.35415">
        <ele>427.9</ele>
        <time>2023-07-23T10:18:58Z</time>
      </trkpt>
      <trkpt lat="48.39508" lon="7.35412">
        <ele>428.1</ele>
        <time>2023-07-23T10:18:59Z</time>
      </trkpt>
      <trkpt lat="48.39505" lon="7.35409">
        <ele>428.2</ele>
        <time>2023-07-23T10:19:00Z</time>
      </trkpt>
      <trkpt lat="48.39503" lon="7.35408">
        <ele>428.4</ele>
        <time>2023-07-23T10:19:01Z</time>
      </trkpt>
      <trkpt lat="48.395" lon="7.35405">
        <ele>428.5</ele>
        <time>2023-07-23T10:19:02Z</time>
      </trkpt>
      <trkpt lat="48.39497" lon="7.35403">
        <ele>428.7</ele>
        <time>2023-07-23T10:19:03Z</time>
      </trkpt>
      <trkpt lat="48.39494" lon="7.35401">
        <ele>428.7</ele>
        <time>2023-07-23T10:19:04Z</time>
      </trkpt>
      <trkpt lat="48.39491" lon="7.354">
        <ele>428.8</ele>
        <time>2023-07-23T10:19:05Z</time>
      </trkpt>
      <trkpt lat="48.39489" lon="7.35398">
        <ele>428.8</ele>
        <time>2023-07-23T10:19:06Z</time>
      </trkpt>
      <trkpt lat="48.39486" lon="7.35397">
        <ele>428.9</ele>
        <time>2023-07-23T10:19:07Z</time>
      </trkpt>
      <trkpt lat="48.39483" lon="7.35396">
        <ele>428.9</ele>
        <time>2023-07-23T10:19:08Z</time>
      </trkpt>
      <trkpt lat="48.3948" lon="7.35395">
        <ele>429</ele>
        <time>2023-07-23T10:19:09Z</time>
      </trkpt>
      <trkpt lat="48.39477" lon="7.35393">
        <ele>429</ele>
        <time>2023-07-23T10:19:10Z</time>
      </trkpt>
      <trkpt lat="48.39474" lon="7.3539">
        <ele>429</ele>
        <time>2023-07-23T10:19:11Z</time>
      </trkpt>
      <trkpt lat="48.39472" lon="7.35387">
        <ele>429.2</ele>
        <time>2023-07-23T10:19:12Z</time>
      </trkpt>
      <trkpt lat="48.39469" lon="7.35385">
        <ele>429.3</ele>
        <time>2023-07-23T10:19:13Z</time>
      </trkpt>
      <trkpt lat="48.39466" lon="7.35382">
        <ele>429.4</ele>
        <time>2023-07-23T10:19:14Z</time>
      </trkpt>
      <trkpt lat="48.39463" lon="7.35378">
        <ele>429.6</ele>
        <time>2023-07-23T10:19:15Z</time>
      </trkpt>
      <trkpt lat="48.39462" lon="7.35375">
        <ele>429.7</ele>
        <time>2023-07-23T10:19:16Z</time>
      </trkpt>
      <trkpt lat="48.3946" lon="7.35371">
        <ele>429.8</ele>
        <time>2023-07-23T10:19:17Z</time>
      </trkpt>
      <trkpt lat="48.39458" lon="7.35366">
        <ele>430</ele>
        <time>2023-07-23T10:19:18Z</time>
      </trkpt>
      <trkpt lat="48.39456" lon="7.35362">
        <ele>430.1</ele>
        <time>2023-07-23T10:19:19Z</time>
      </trkpt>
      <trkpt lat="48.39454" lon="7.35358">
        <ele>430.3</ele>
        <time>2023-07-23T10:19:20Z</time>
      </trkpt>
      <trkpt lat="48.39453" lon="7.35354">
        <ele>430.4</ele>
        <time>2023-07-23T10:19:21Z</time>
      </trkpt>
      <trkpt lat="48.39452" lon="7.35349">
        <ele>430.5</ele>
        <time>2023-07-23T10:19:22Z</time>
      </trkpt>
      <trkpt lat="48.39451" lon="7.35345">
        <ele>430.7</ele>
        <time>2023-07-23T10:19:23Z</time>
      </trkpt>
      <trkpt lat="48.3945" lon="7.35341">
        <ele>430.8</ele>
        <time>2023-07-23T10:19:24Z</time>
      </trkpt>
      <trkpt lat="48.39449" lon="7.35337">
        <ele>431</ele>
        <time>2023-07-23T10:19:25Z</time>
      </trkpt>
      <trkpt lat="48.39448" lon="7.35332">
        <ele>431.1</ele>
        <time>2023-07-23T10:19:26Z</time>
      </trkpt>
      <trkpt lat="48.39447" lon="7.35328">
        <ele>431.3</ele>
        <time>2023-07-23T10:19:27Z</time>
      </trkpt>
      <trkpt lat="48.39446" lon="7.35323">
        <ele>431.5</ele>
        <time>2023-07-23T10:19:28Z</time>
      </trkpt>
      <trkpt lat="48.39445" lon="7.35319">
        <ele>431.6</ele>
        <time>2023-07-23T10:19:29Z</time>
      </trkpt>
      <trkpt lat="48.39443" lon="7.35315">
        <ele>431.8</ele>
        <time>2023-07-23T10:19:30Z</time>
      </trkpt>
      <trkpt lat="48.39443" lon="7.35311">
        <ele>432</ele>
        <time>2023-07-23T10:19:31Z</time>
      </trkpt>
      <trkpt lat="48.39442" lon="7.35306">
        <ele>432.1</ele>
        <time>2023-07-23T10:19:32Z</time>
      </trkpt>
      <trkpt lat="48.39441" lon="7.35303">
        <ele>432.3</ele>
        <time>2023-07-23T10:19:33Z</time>
      </trkpt>
      <trkpt lat="48.39439" lon="7.35297">
        <ele>432.5</ele>
        <time>2023-07-23T10:19:34Z</time>
      </trkpt>
      <trkpt lat="48.39439" lon="7.35295">
        <ele>432.6</ele>
        <time>2023-07-23T10:19:35Z</time>
      </trkpt>
      <trkpt lat="48.39438" lon="7.35291">
        <ele>432.8</ele>
        <time>2023-07-23T10:19:36Z</time>
      </trkpt>
      <trkpt lat="48.39437" lon="7.35287">
        <ele>432.9</ele>
        <time>2023-07-23T10:19:37Z</time>
      </trkpt>
      <trkpt lat="48.39436" lon="7.35283">
        <ele>433.1</ele>
        <time>2023-07-23T10:19:38Z</time>
      </trkpt>
      <trkpt lat="48.39436" lon="7.35279">
        <ele>433.3</ele>
        <time>2023-07-23T10:19:39Z</time>
      </trkpt>
      <trkpt lat="48.39435" lon="7.35274">
        <ele>433.4</ele>
        <time>2023-07-23T10:19:40Z</time>
      </trkpt>
      <trkpt lat="48.39434" lon="7.3527">
        <ele>433.6</ele>
        <time>2023-07-23T10:19:41Z</time>
      </trkpt>
      <trkpt lat="48.39434" lon="7.35266">
        <ele>433.8</ele>
        <time>2023-07-23T10:19:42Z</time>
      </trkpt>
      <trkpt lat="48.39433" lon="7.35262">
        <ele>434</ele>
        <time>2023-07-23T10:19:43Z</time>
      </trkpt>
      <trkpt lat="48.39432" lon="7.35256">
        <ele>434.3</ele>
        <time>2023-07-23T10:19:44Z</time>
      </trkpt>
      <trkpt lat="48.39432" lon="7.35254">
        <ele>434.4</ele>
        <time>2023-07-23T10:19:45Z</time>
      </trkpt>
      <trkpt lat="48.39431" lon="7.3525">
        <ele>434.6</ele>
        <time>2023-07-23T10:19:46Z</time>
      </trkpt>
      <trkpt lat="48.39431" lon="7.35244">
        <ele>434.8</ele>
        <time>2023-07-23T10:19:47Z</time>
      </trkpt>
      <trkpt lat="48.39431" lon="7.35243">
        <ele>434.9</ele>
        <time>2023-07-23T10:19:48Z</time>
      </trkpt>
      <trkpt lat="48.3943" lon="7.35239">
        <ele>435.1</ele>
        <time>2023-07-23T10:19:49Z</time>
      </trkpt>
      <trkpt lat="48.3943" lon="7.35233">
        <ele>435.3</ele>
        <time>2023-07-23T10:19:50Z</time>
      </trkpt>
      <trkpt lat="48.39429" lon="7.35231">
        <ele>435.4</ele>
        <time>2023-07-23T10:19:51Z</time>
      </trkpt>
      <trkpt lat="48.39429" lon="7.35225">
        <ele>435.7</ele>
        <time>2023-07-23T10:19:52Z</time>
      </trkpt>
      <trkpt lat="48.39428" lon="7.35223">
        <ele>435.8</ele>
        <time>2023-07-23T10:19:53Z</time>
      </trkpt>
      <trkpt lat="48.39428" lon="7.35219">
        <ele>436</ele>
        <time>2023-07-23T10:19:54Z</time>
      </trkpt>
      <trkpt lat="48.39428" lon="7.35213">
        <ele>436.3</ele>
        <time>2023-07-23T10:19:55Z</time>
      </trkpt>
      <trkpt lat="48.39427" lon="7.35211">
        <ele>436.4</ele>
        <time>2023-07-23T10:19:56Z</time>
      </trkpt>
      <trkpt lat="48.39427" lon="7.35207">
        <ele>436.6</ele>
        <time>2023-07-23T10:19:57Z</time>
      </trkpt>
      <trkpt lat="48.39427" lon="7.35203">
        <ele>436.8</ele>
        <time>2023-07-23T10:19:58Z</time>
      </trkpt>
      <trkpt lat="48.39427" lon="7.35198">
        <ele>437</ele>
        <time>2023-07-23T10:19:59Z</time>
      </trkpt>
      <trkpt lat="48.39426" lon="7.35193">
        <ele>437.3</ele>
        <time>2023-07-23T10:20:00Z</time>
      </trkpt>
      <trkpt lat="48.39426" lon="7.35191">
        <ele>437.4</ele>
        <time>2023-07-23T10:20:01Z</time>
      </trkpt>
      <trkpt lat="48.39425" lon="7.35186">
        <ele>437.6</ele>
        <time>2023-07-23T10:20:02Z</time>
      </trkpt>
      <trkpt lat="48.39425" lon="7.3518">
        <ele>437.8</ele>
        <time>2023-07-23T10:20:03Z</time>
      </trkpt>
      <trkpt lat="48.39424" lon="7.35178">
        <ele>437.9</ele>
        <time>2023-07-23T10:20:04Z</time>
      </trkpt>
      <trkpt lat="48.39424" lon="7.35173">
        <ele>438.2</ele>
        <time>2023-07-23T10:20:05Z</time>
      </trkpt>
      <trkpt lat="48.39424" lon="7.35171">
        <ele>438.3</ele>
        <time>2023-07-23T10:20:06Z</time>
      </trkpt>
      <trkpt lat="48.39424" lon="7.35166">
        <ele>438.5</ele>
        <time>2023-07-23T10:20:07Z</time>
      </trkpt>
      <trkpt lat="48.39423" lon="7.3516">
        <ele>438.7</ele>
        <time>2023-07-23T10:20:08Z</time>
      </trkpt>
      <trkpt lat="48.39423" lon="7.35158">
        <ele>438.8</ele>
        <time>2023-07-23T10:20:09Z</time>
      </trkpt>
      <trkpt lat="48.39423" lon="7.35154">
        <ele>439</ele>
        <time>2023-07-23T10:20:10Z</time>
      </trkpt>
      <trkpt lat="48.39423" lon="7.35148">
        <ele>439.3</ele>
        <time>2023-07-23T10:20:11Z</time>
      </trkpt>
      <trkpt lat="48.39423" lon="7.35146">
        <ele>439.4</ele>
        <time>2023-07-23T10:20:12Z</time>
      </trkpt>
      <trkpt lat="48.39423" lon="7.35142">
        <ele>439.5</ele>
        <time>2023-07-23T10:20:13Z</time>
      </trkpt>
      <trkpt lat="48.39423" lon="7.35138">
        <ele>439.7</ele>
        <time>2023-07-23T10:20:14Z</time>
      </trkpt>
      <trkpt lat="48.39424" lon="7.35134">
        <ele>439.9</ele>
        <time>2023-07-23T10:20:15Z</time>
      </trkpt>
      <trkpt lat="48.39424" lon="7.3513">
        <ele>440.2</ele>
        <time>2023-07-23T10:20:16Z</time>
      </trkpt>
      <trkpt lat="48.39425" lon="7.35126">
        <ele>440.4</ele>
        <time>2023-07-23T10:20:17Z</time>
      </trkpt>
      <trkpt lat="48.39425" lon="7.35122">
        <ele>440.6</ele>
        <time>2023-07-23T10:20:18Z</time>
      </trkpt>
      <trkpt lat="48.39426" lon="7.35116">
        <ele>440.9</ele>
        <time>2023-07-23T10:20:19Z</time>
      </trkpt>
      <trkpt lat="48.39426" lon="7.35114">
        <ele>441</ele>
        <time>2023-07-23T10:20:20Z</time>
      </trkpt>
      <trkpt lat="48.39428" lon="7.35109">
        <ele>441.3</ele>
        <time>2023-07-23T10:20:21Z</time>
      </trkpt>
      <trkpt lat="48.39428" lon="7.35107">
        <ele>441.4</ele>
        <time>2023-07-23T10:20:22Z</time>
      </trkpt>
      <trkpt lat="48.39429" lon="7.35101">
        <ele>441.7</ele>
        <time>2023-07-23T10:20:23Z</time>
      </trkpt>
      <trkpt lat="48.3943" lon="7.35099">
        <ele>441.9</ele>
        <time>2023-07-23T10:20:24Z</time>
      </trkpt>
      <trkpt lat="48.39431" lon="7.35094">
        <ele>442.2</ele>
        <time>2023-07-23T10:20:25Z</time>
      </trkpt>
      <trkpt lat="48.39431" lon="7.35092">
        <ele>442.3</ele>
        <time>2023-07-23T10:20:26Z</time>
      </trkpt>
      <trkpt lat="48.39433" lon="7.35087">
        <ele>442.7</ele>
        <time>2023-07-23T10:20:27Z</time>
      </trkpt>
      <trkpt lat="48.39434" lon="7.35085">
        <ele>442.8</ele>
        <time>2023-07-23T10:20:28Z</time>
      </trkpt>
      <trkpt lat="48.39435" lon="7.3508">
        <ele>443.1</ele>
        <time>2023-07-23T10:20:29Z</time>
      </trkpt>
      <trkpt lat="48.39436" lon="7.35079">
        <ele>443.2</ele>
        <time>2023-07-23T10:20:30Z</time>
      </trkpt>
      <trkpt lat="48.39437" lon="7.35074">
        <ele>443.6</ele>
        <time>2023-07-23T10:20:31Z</time>
      </trkpt>
      <trkpt lat="48.39438" lon="7.35072">
        <ele>443.7</ele>
        <time>2023-07-23T10:20:32Z</time>
      </trkpt>
      <trkpt lat="48.39439" lon="7.35069">
        <ele>443.9</ele>
        <time>2023-07-23T10:20:33Z</time>
      </trkpt>
      <trkpt lat="48.3944" lon="7.35066">
        <ele>444.2</ele>
        <time>2023-07-23T10:20:35Z</time>
      </trkpt>
      <trkpt lat="48.39442" lon="7.35061">
        <ele>444.6</ele>
        <time>2023-07-23T10:20:36Z</time>
      </trkpt>
      <trkpt lat="48.39443" lon="7.35059">
        <ele>444.7</ele>
        <time>2023-07-23T10:20:37Z</time>
      </trkpt>
      <trkpt lat="48.39444" lon="7.35055">
        <ele>445</ele>
        <time>2023-07-23T10:20:38Z</time>
      </trkpt>
      <trkpt lat="48.39445" lon="7.35053">
        <ele>445.1</ele>
        <time>2023-07-23T10:20:39Z</time>
      </trkpt>
      <trkpt lat="48.39447" lon="7.35048">
        <ele>445.5</ele>
        <time>2023-07-23T10:20:40Z</time>
      </trkpt>
      <trkpt lat="48.39448" lon="7.35047">
        <ele>445.6</ele>
        <time>2023-07-23T10:20:41Z</time>
      </trkpt>
      <trkpt lat="48.3945" lon="7.35042">
        <ele>446</ele>
        <time>2023-07-23T10:20:42Z</time>
      </trkpt>
      <trkpt lat="48.39451" lon="7.35041">
        <ele>446.1</ele>
        <time>2023-07-23T10:20:43Z</time>
      </trkpt>
      <trkpt lat="48.39452" lon="7.35037">
        <ele>446.4</ele>
        <time>2023-07-23T10:20:44Z</time>
      </trkpt>
      <trkpt lat="48.39454" lon="7.35033">
        <ele>446.7</ele>
        <time>2023-07-23T10:20:45Z</time>
      </trkpt>
      <trkpt lat="48.39454" lon="7.35031">
        <ele>446.8</ele>
        <time>2023-07-23T10:20:46Z</time>
      </trkpt>
      <trkpt lat="48.39456" lon="7.35026">
        <ele>447.1</ele>
        <time>2023-07-23T10:20:47Z</time>
      </trkpt>
      <trkpt lat="48.39457" lon="7.35025">
        <ele>447.2</ele>
        <time>2023-07-23T10:20:48Z</time>
      </trkpt>
      <trkpt lat="48.39458" lon="7.3502">
        <ele>447.5</ele>
        <time>2023-07-23T10:20:49Z</time>
      </trkpt>
      <trkpt lat="48.39459" lon="7.35019">
        <ele>447.6</ele>
        <time>2023-07-23T10:20:50Z</time>
      </trkpt>
      <trkpt lat="48.3946" lon="7.35014">
        <ele>447.9</ele>
        <time>2023-07-23T10:20:51Z</time>
      </trkpt>
      <trkpt lat="48.39461" lon="7.35012">
        <ele>448</ele>
        <time>2023-07-23T10:20:52Z</time>
      </trkpt>
      <trkpt lat="48.39463" lon="7.35007">
        <ele>448.3</ele>
        <time>2023-07-23T10:20:53Z</time>
      </trkpt>
      <trkpt lat="48.39463" lon="7.35005">
        <ele>448.4</ele>
        <time>2023-07-23T10:20:54Z</time>
      </trkpt>
      <trkpt lat="48.39465" lon="7.35">
        <ele>448.7</ele>
        <time>2023-07-23T10:20:55Z</time>
      </trkpt>
      <trkpt lat="48.39465" lon="7.34997">
        <ele>448.8</ele>
        <time>2023-07-23T10:20:56Z</time>
      </trkpt>
      <trkpt lat="48.39465" lon="7.34993">
        <ele>449</ele>
        <time>2023-07-23T10:20:57Z</time>
      </trkpt>
      <trkpt lat="48.39466" lon="7.34989">
        <ele>449.2</ele>
        <time>2023-07-23T10:20:58Z</time>
      </trkpt>
      <trkpt lat="48.39467" lon="7.34982">
        <ele>449.6</ele>
        <time>2023-07-23T10:20:59Z</time>
      </trkpt>
      <trkpt lat="48.39468" lon="7.34978">
        <ele>449.8</ele>
        <time>2023-07-23T10:21:00Z</time>
      </trkpt>
      <trkpt lat="48.39469" lon="7.34972">
        <ele>450</ele>
        <time>2023-07-23T10:21:01Z</time>
      </trkpt>
      <trkpt lat="48.39469" lon="7.3497">
        <ele>450.1</ele>
        <time>2023-07-23T10:21:02Z</time>
      </trkpt>
      <trkpt lat="48.39471" lon="7.34965">
        <ele>450.4</ele>
        <time>2023-07-23T10:21:03Z</time>
      </trkpt>
      <trkpt lat="48.39471" lon="7.34963">
        <ele>450.5</ele>
        <time>2023-07-23T10:21:04Z</time>
      </trkpt>
      <trkpt lat="48.39472" lon="7.34959">
        <ele>450.7</ele>
        <time>2023-07-23T10:21:05Z</time>
      </trkpt>
      <trkpt lat="48.39473" lon="7.34953">
        <ele>450.9</ele>
        <time>2023-07-23T10:21:06Z</time>
      </trkpt>
      <trkpt lat="48.39473" lon="7.34951">
        <ele>451</ele>
        <time>2023-07-23T10:21:07Z</time>
      </trkpt>
      <trkpt lat="48.39474" lon="7.34946">
        <ele>451.3</ele>
        <time>2023-07-23T10:21:08Z</time>
      </trkpt>
      <trkpt lat="48.39474" lon="7.34944">
        <ele>451.3</ele>
        <time>2023-07-23T10:21:09Z</time>
      </trkpt>
      <trkpt lat="48.39475" lon="7.34938">
        <ele>451.6</ele>
        <time>2023-07-23T10:21:10Z</time>
      </trkpt>
      <trkpt lat="48.39475" lon="7.34936">
        <ele>451.7</ele>
        <time>2023-07-23T10:21:11Z</time>
      </trkpt>
      <trkpt lat="48.39476" lon="7.34931">
        <ele>451.9</ele>
        <time>2023-07-23T10:21:12Z</time>
      </trkpt>
      <trkpt lat="48.39476" lon="7.34929">
        <ele>452</ele>
        <time>2023-07-23T10:21:13Z</time>
      </trkpt>
      <trkpt lat="48.39476" lon="7.34924">
        <ele>452.2</ele>
        <time>2023-07-23T10:21:14Z</time>
      </trkpt>
      <trkpt lat="48.39476" lon="7.34922">
        <ele>452.3</ele>
        <time>2023-07-23T10:21:15Z</time>
      </trkpt>
      <trkpt lat="48.39477" lon="7.34916">
        <ele>452.5</ele>
        <time>2023-07-23T10:21:16Z</time>
      </trkpt>
      <trkpt lat="48.39477" lon="7.34915">
        <ele>452.6</ele>
        <time>2023-07-23T10:21:17Z</time>
      </trkpt>
      <trkpt lat="48.39478" lon="7.34909">
        <ele>452.8</ele>
        <time>2023-07-23T10:21:18Z</time>
      </trkpt>
      <trkpt lat="48.39478" lon="7.34907">
        <ele>452.9</ele>
        <time>2023-07-23T10:21:19Z</time>
      </trkpt>
      <trkpt lat="48.39478" lon="7.34902">
        <ele>453.1</ele>
        <time>2023-07-23T10:21:20Z</time>
      </trkpt>
      <trkpt lat="48.39478" lon="7.349">
        <ele>453.2</ele>
        <time>2023-07-23T10:21:21Z</time>
      </trkpt>
      <trkpt lat="48.39479" lon="7.34894">
        <ele>453.5</ele>
        <time>2023-07-23T10:21:22Z</time>
      </trkpt>
      <trkpt lat="48.39479" lon="7.34892">
        <ele>453.6</ele>
        <time>2023-07-23T10:21:23Z</time>
      </trkpt>
      <trkpt lat="48.3948" lon="7.34887">
        <ele>453.8</ele>
        <time>2023-07-23T10:21:24Z</time>
      </trkpt>
      <trkpt lat="48.3948" lon="7.34885">
        <ele>453.9</ele>
        <time>2023-07-23T10:21:25Z</time>
      </trkpt>
      <trkpt lat="48.39481" lon="7.34879">
        <ele>454.1</ele>
        <time>2023-07-23T10:21:26Z</time>
      </trkpt>
      <trkpt lat="48.39481" lon="7.34877">
        <ele>454.2</ele>
        <time>2023-07-23T10:21:27Z</time>
      </trkpt>
      <trkpt lat="48.39481" lon="7.34872">
        <ele>454.5</ele>
        <time>2023-07-23T10:21:28Z</time>
      </trkpt>
      <trkpt lat="48.39481" lon="7.3487">
        <ele>454.6</ele>
        <time>2023-07-23T10:21:29Z</time>
      </trkpt>
      <trkpt lat="48.39481" lon="7.34864">
        <ele>454.8</ele>
        <time>2023-07-23T10:21:30Z</time>
      </trkpt>
      <trkpt lat="48.39482" lon="7.34862">
        <ele>454.9</ele>
        <time>2023-07-23T10:21:31Z</time>
      </trkpt>
      <trkpt lat="48.39482" lon="7.34857">
        <ele>455.2</ele>
        <time>2023-07-23T10:21:32Z</time>
      </trkpt>
      <trkpt lat="48.39482" lon="7.34855">
        <ele>455.3</ele>
        <time>2023-07-23T10:21:33Z</time>
      </trkpt>
      <trkpt lat="48.39482" lon="7.34849">
        <ele>455.6</ele>
        <time>2023-07-23T10:21:34Z</time>
      </trkpt>
      <trkpt lat="48.39482" lon="7.34847">
        <ele>455.7</ele>
        <time>2023-07-23T10:21:35Z</time>
      </trkpt>
      <trkpt lat="48.39483" lon="7.34842">
        <ele>455.9</ele>
        <time>2023-07-23T10:21:36Z</time>
      </trkpt>
      <trkpt lat="48.39483" lon="7.3484">
        <ele>456</ele>
        <time>2023-07-23T10:21:37Z</time>
      </trkpt>
      <trkpt lat="48.39484" lon="7.34835">
        <ele>456.3</ele>
        <time>2023-07-23T10:21:38Z</time>
      </trkpt>
      <trkpt lat="48.39484" lon="7.34833">
        <ele>456.4</ele>
        <time>2023-07-23T10:21:39Z</time>
      </trkpt>
      <trkpt lat="48.39485" lon="7.34827">
        <ele>456.7</ele>
        <time>2023-07-23T10:21:40Z</time>
      </trkpt>
      <trkpt lat="48.39485" lon="7.34825">
        <ele>456.8</ele>
        <time>2023-07-23T10:21:41Z</time>
      </trkpt>
      <trkpt lat="48.39485" lon="7.3482">
        <ele>457.1</ele>
        <time>2023-07-23T10:21:42Z</time>
      </trkpt>
      <trkpt lat="48.39486" lon="7.34818">
        <ele>457.2</ele>
        <time>2023-07-23T10:21:43Z</time>
      </trkpt>
      <trkpt lat="48.39486" lon="7.34813">
        <ele>457.5</ele>
        <time>2023-07-23T10:21:44Z</time>
      </trkpt>
      <trkpt lat="48.39486" lon="7.34811">
        <ele>457.6</ele>
        <time>2023-07-23T10:21:45Z</time>
      </trkpt>
      <trkpt lat="48.39487" lon="7.34805">
        <ele>457.9</ele>
        <time>2023-07-23T10:21:46Z</time>
      </trkpt>
      <trkpt lat="48.39488" lon="7.34803">
        <ele>458</ele>
        <time>2023-07-23T10:21:47Z</time>
      </trkpt>
      <trkpt lat="48.39488" lon="7.34798">
        <ele>458.2</ele>
        <time>2023-07-23T10:21:48Z</time>
      </trkpt>
      <trkpt lat="48.39488" lon="7.34796">
        <ele>458.3</ele>
        <time>2023-07-23T10:21:49Z</time>
      </trkpt>
      <trkpt lat="48.39487" lon="7.34793">
        <ele>458.5</ele>
        <time>2023-07-23T10:21:50Z</time>
      </trkpt>
      <trkpt lat="48.39487" lon="7.34788">
        <ele>458.7</ele>
        <time>2023-07-23T10:21:51Z</time>
      </trkpt>
      <trkpt lat="48.39489" lon="7.34783">
        <ele>458.9</ele>
        <time>2023-07-23T10:21:52Z</time>
      </trkpt>
      <trkpt lat="48.39489" lon="7.34781">
        <ele>459</ele>
        <time>2023-07-23T10:21:53Z</time>
      </trkpt>
      <trkpt lat="48.39489" lon="7.34776">
        <ele>459.2</ele>
        <time>2023-07-23T10:21:54Z</time>
      </trkpt>
      <trkpt lat="48.39488" lon="7.34774">
        <ele>459.3</ele>
        <time>2023-07-23T10:21:55Z</time>
      </trkpt>
      <trkpt lat="48.39486" lon="7.3477">
        <ele>459.5</ele>
        <time>2023-07-23T10:21:56Z</time>
      </trkpt>
      <trkpt lat="48.39486" lon="7.34766">
        <ele>459.7</ele>
        <time>2023-07-23T10:21:57Z</time>
      </trkpt>
      <trkpt lat="48.39487" lon="7.34761">
        <ele>459.9</ele>
        <time>2023-07-23T10:21:58Z</time>
      </trkpt>
      <trkpt lat="48.39487" lon="7.34759">
        <ele>460</ele>
        <time>2023-07-23T10:21:59Z</time>
      </trkpt>
      <trkpt lat="48.39487" lon="7.34753">
        <ele>460.2</ele>
        <time>2023-07-23T10:22:00Z</time>
      </trkpt>
      <trkpt lat="48.39486" lon="7.34751">
        <ele>460.3</ele>
        <time>2023-07-23T10:22:01Z</time>
      </trkpt>
      <trkpt lat="48.39485" lon="7.34748">
        <ele>460.5</ele>
        <time>2023-07-23T10:22:02Z</time>
      </trkpt>
      <trkpt lat="48.39482" lon="7.34743">
        <ele>460.7</ele>
        <time>2023-07-23T10:22:03Z</time>
      </trkpt>
      <trkpt lat="48.39482" lon="7.34741">
        <ele>460.8</ele>
        <time>2023-07-23T10:22:04Z</time>
      </trkpt>
      <trkpt lat="48.39482" lon="7.34737">
        <ele>461</ele>
        <time>2023-07-23T10:22:05Z</time>
      </trkpt>
      <trkpt lat="48.39481" lon="7.34732">
        <ele>461.2</ele>
        <time>2023-07-23T10:22:06Z</time>
      </trkpt>
      <trkpt lat="48.39481" lon="7.3473">
        <ele>461.3</ele>
        <time>2023-07-23T10:22:07Z</time>
      </trkpt>
      <trkpt lat="48.3948" lon="7.34726">
        <ele>461.5</ele>
        <time>2023-07-23T10:22:08Z</time>
      </trkpt>
      <trkpt lat="48.39479" lon="7.3472">
        <ele>461.7</ele>
        <time>2023-07-23T10:22:09Z</time>
      </trkpt>
      <trkpt lat="48.39478" lon="7.34718">
        <ele>461.8</ele>
        <time>2023-07-23T10:22:10Z</time>
      </trkpt>
      <trkpt lat="48.39476" lon="7.34716">
        <ele>462</ele>
        <time>2023-07-23T10:22:11Z</time>
      </trkpt>
      <trkpt lat="48.39474" lon="7.34712">
        <ele>462.2</ele>
        <time>2023-07-23T10:22:12Z</time>
      </trkpt>
      <trkpt lat="48.39474" lon="7.34706">
        <ele>462.5</ele>
        <time>2023-07-23T10:22:13Z</time>
      </trkpt>
      <trkpt lat="48.39474" lon="7.34704">
        <ele>462.6</ele>
        <time>2023-07-23T10:22:14Z</time>
      </trkpt>
      <trkpt lat="48.39475" lon="7.347">
        <ele>462.8</ele>
        <time>2023-07-23T10:22:15Z</time>
      </trkpt>
      <trkpt lat="48.39474" lon="7.34696">
        <ele>463</ele>
        <time>2023-07-23T10:22:16Z</time>
      </trkpt>
      <trkpt lat="48.39471" lon="7.34693">
        <ele>463.2</ele>
        <time>2023-07-23T10:22:17Z</time>
      </trkpt>
      <trkpt lat="48.39469" lon="7.34688">
        <ele>463.5</ele>
        <time>2023-07-23T10:22:18Z</time>
      </trkpt>
      <trkpt lat="48.39468" lon="7.34686">
        <ele>463.6</ele>
        <time>2023-07-23T10:22:19Z</time>
      </trkpt>
      <trkpt lat="48.39468" lon="7.34682">
        <ele>463.9</ele>
        <time>2023-07-23T10:22:20Z</time>
      </trkpt>
      <trkpt lat="48.39469" lon="7.34678">
        <ele>464.1</ele>
        <time>2023-07-23T10:22:21Z</time>
      </trkpt>
      <trkpt lat="48.39468" lon="7.34672">
        <ele>464.4</ele>
        <time>2023-07-23T10:22:22Z</time>
      </trkpt>
      <trkpt lat="48.39468" lon="7.3467">
        <ele>464.5</ele>
        <time>2023-07-23T10:22:23Z</time>
      </trkpt>
      <trkpt lat="48.39466" lon="7.34665">
        <ele>464.8</ele>
        <time>2023-07-23T10:22:24Z</time>
      </trkpt>
      <trkpt lat="48.39466" lon="7.34663">
        <ele>464.9</ele>
        <time>2023-07-23T10:22:25Z</time>
      </trkpt>
      <trkpt lat="48.39466" lon="7.34657">
        <ele>465.2</ele>
        <time>2023-07-23T10:22:26Z</time>
      </trkpt>
      <trkpt lat="48.39465" lon="7.34656">
        <ele>465.4</ele>
        <time>2023-07-23T10:22:27Z</time>
      </trkpt>
      <trkpt lat="48.39464" lon="7.34652">
        <ele>465.6</ele>
        <time>2023-07-23T10:22:28Z</time>
      </trkpt>
      <trkpt lat="48.39463" lon="7.34646">
        <ele>465.9</ele>
        <time>2023-07-23T10:22:29Z</time>
      </trkpt>
      <trkpt lat="48.39463" lon="7.34644">
        <ele>466</ele>
        <time>2023-07-23T10:22:30Z</time>
      </trkpt>
      <trkpt lat="48.39462" lon="7.34639">
        <ele>466.3</ele>
        <time>2023-07-23T10:22:31Z</time>
      </trkpt>
      <trkpt lat="48.39462" lon="7.34637">
        <ele>466.4</ele>
        <time>2023-07-23T10:22:32Z</time>
      </trkpt>
      <trkpt lat="48.39461" lon="7.34631">
        <ele>466.8</ele>
        <time>2023-07-23T10:22:33Z</time>
      </trkpt>
      <trkpt lat="48.39461" lon="7.34629">
        <ele>466.9</ele>
        <time>2023-07-23T10:22:34Z</time>
      </trkpt>
      <trkpt lat="48.3946" lon="7.34623">
        <ele>467.3</ele>
        <time>2023-07-23T10:22:35Z</time>
      </trkpt>
      <trkpt lat="48.3946" lon="7.34621">
        <ele>467.4</ele>
        <time>2023-07-23T10:22:36Z</time>
      </trkpt>
      <trkpt lat="48.3946" lon="7.34615">
        <ele>467.7</ele>
        <time>2023-07-23T10:22:37Z</time>
      </trkpt>
      <trkpt lat="48.3946" lon="7.34613">
        <ele>467.8</ele>
        <time>2023-07-23T10:22:38Z</time>
      </trkpt>
      <trkpt lat="48.3946" lon="7.3461">
        <ele>468</ele>
        <time>2023-07-23T10:22:39Z</time>
      </trkpt>
      <trkpt lat="48.3946" lon="7.34607">
        <ele>468.2</ele>
        <time>2023-07-23T10:22:41Z</time>
      </trkpt>
      <trkpt lat="48.3946" lon="7.34601">
        <ele>468.6</ele>
        <time>2023-07-23T10:22:42Z</time>
      </trkpt>
      <trkpt lat="48.3946" lon="7.34599">
        <ele>468.7</ele>
        <time>2023-07-23T10:22:43Z</time>
      </trkpt>
      <trkpt lat="48.3946" lon="7.34595">
        <ele>469</ele>
        <time>2023-07-23T10:22:44Z</time>
      </trkpt>
      <trkpt lat="48.3946" lon="7.34593">
        <ele>469.1</ele>
        <time>2023-07-23T10:22:45Z</time>
      </trkpt>
      <trkpt lat="48.39461" lon="7.34589">
        <ele>469.3</ele>
        <time>2023-07-23T10:22:46Z</time>
      </trkpt>
      <trkpt lat="48.39462" lon="7.34585">
        <ele>469.6</ele>
        <time>2023-07-23T10:22:47Z</time>
      </trkpt>
      <trkpt lat="48.39463" lon="7.34579">
        <ele>469.9</ele>
        <time>2023-07-23T10:22:48Z</time>
      </trkpt>
      <trkpt lat="48.39463" lon="7.34578">
        <ele>470</ele>
        <time>2023-07-23T10:22:49Z</time>
      </trkpt>
      <trkpt lat="48.39464" lon="7.34574">
        <ele>470.3</ele>
        <time>2023-07-23T10:22:50Z</time>
      </trkpt>
      <trkpt lat="48.39465" lon="7.34568">
        <ele>470.6</ele>
        <time>2023-07-23T10:22:51Z</time>
      </trkpt>
      <trkpt lat="48.39466" lon="7.34566">
        <ele>470.7</ele>
        <time>2023-07-23T10:22:52Z</time>
      </trkpt>
      <trkpt lat="48.39467" lon="7.34561">
        <ele>471</ele>
        <time>2023-07-23T10:22:53Z</time>
      </trkpt>
      <trkpt lat="48.39467" lon="7.3456">
        <ele>471.1</ele>
        <time>2023-07-23T10:22:54Z</time>
      </trkpt>
      <trkpt lat="48.39468" lon="7.34556">
        <ele>471.3</ele>
        <time>2023-07-23T10:22:55Z</time>
      </trkpt>
      <trkpt lat="48.3947" lon="7.34551">
        <ele>471.5</ele>
        <time>2023-07-23T10:22:56Z</time>
      </trkpt>
      <trkpt lat="48.3947" lon="7.34549">
        <ele>471.6</ele>
        <time>2023-07-23T10:22:57Z</time>
      </trkpt>
      <trkpt lat="48.39471" lon="7.34545">
        <ele>471.8</ele>
        <time>2023-07-23T10:22:58Z</time>
      </trkpt>
      <trkpt lat="48.39472" lon="7.3454">
        <ele>472.1</ele>
        <time>2023-07-23T10:22:59Z</time>
      </trkpt>
      <trkpt lat="48.39473" lon="7.34538">
        <ele>472.2</ele>
        <time>2023-07-23T10:23:00Z</time>
      </trkpt>
      <trkpt lat="48.39475" lon="7.34533">
        <ele>472.5</ele>
        <time>2023-07-23T10:23:01Z</time>
      </trkpt>
      <trkpt lat="48.39475" lon="7.34531">
        <ele>472.6</ele>
        <time>2023-07-23T10:23:02Z</time>
      </trkpt>
      <trkpt lat="48.39476" lon="7.34527">
        <ele>472.8</ele>
        <time>2023-07-23T10:23:03Z</time>
      </trkpt>
      <trkpt lat="48.39478" lon="7.34522">
        <ele>473.1</ele>
        <time>2023-07-23T10:23:04Z</time>
      </trkpt>
      <trkpt lat="48.39478" lon="7.3452">
        <ele>473.2</ele>
        <time>2023-07-23T10:23:05Z</time>
      </trkpt>
      <trkpt lat="48.3948" lon="7.34515">
        <ele>473.4</ele>
        <time>2023-07-23T10:23:06Z</time>
      </trkpt>
      <trkpt lat="48.3948" lon="7.34514">
        <ele>473.5</ele>
        <time>2023-07-23T10:23:07Z</time>
      </trkpt>
      <trkpt lat="48.39481" lon="7.3451">
        <ele>473.7</ele>
        <time>2023-07-23T10:23:08Z</time>
      </trkpt>
      <trkpt lat="48.39483" lon="7.34502">
        <ele>474.1</ele>
        <time>2023-07-23T10:23:09Z</time>
      </trkpt>
      <trkpt lat="48.39485" lon="7.34497">
        <ele>474.3</ele>
        <time>2023-07-23T10:23:10Z</time>
      </trkpt>
      <trkpt lat="48.39485" lon="7.34495">
        <ele>474.4</ele>
        <time>2023-07-23T10:23:11Z</time>
      </trkpt>
      <trkpt lat="48.39486" lon="7.3449">
        <ele>474.7</ele>
        <time>2023-07-23T10:23:12Z</time>
      </trkpt>
      <trkpt lat="48.39487" lon="7.34488">
        <ele>474.8</ele>
        <time>2023-07-23T10:23:13Z</time>
      </trkpt>
      <trkpt lat="48.39488" lon="7.34484">
        <ele>474.9</ele>
        <time>2023-07-23T10:23:14Z</time>
      </trkpt>
      <trkpt lat="48.39489" lon="7.34481">
        <ele>475.1</ele>
        <time>2023-07-23T10:23:15Z</time>
      </trkpt>
      <trkpt lat="48.39491" lon="7.34477">
        <ele>475.3</ele>
        <time>2023-07-23T10:23:16Z</time>
      </trkpt>
      <trkpt lat="48.39492" lon="7.34471">
        <ele>475.6</ele>
        <time>2023-07-23T10:23:17Z</time>
      </trkpt>
      <trkpt lat="48.39493" lon="7.34469">
        <ele>475.7</ele>
        <time>2023-07-23T10:23:18Z</time>
      </trkpt>
      <trkpt lat="48.39494" lon="7.34464">
        <ele>476</ele>
        <time>2023-07-23T10:23:19Z</time>
      </trkpt>
      <trkpt lat="48.39495" lon="7.34462">
        <ele>476</ele>
        <time>2023-07-23T10:23:20Z</time>
      </trkpt>
      <trkpt lat="48.39497" lon="7.34457">
        <ele>476.3</ele>
        <time>2023-07-23T10:23:21Z</time>
      </trkpt>
      <trkpt lat="48.39498" lon="7.34455">
        <ele>476.4</ele>
        <time>2023-07-23T10:23:22Z</time>
      </trkpt>
      <trkpt lat="48.39499" lon="7.34451">
        <ele>476.6</ele>
        <time>2023-07-23T10:23:23Z</time>
      </trkpt>
      <trkpt lat="48.39501" lon="7.34446">
        <ele>476.8</ele>
        <time>2023-07-23T10:23:24Z</time>
      </trkpt>
      <trkpt lat="48.39501" lon="7.34444">
        <ele>476.9</ele>
        <time>2023-07-23T10:23:25Z</time>
      </trkpt>
      <trkpt lat="48.39502" lon="7.3444">
        <ele>477.1</ele>
        <time>2023-07-23T10:23:26Z</time>
      </trkpt>
      <trkpt lat="48.39504" lon="7.34436">
        <ele>477.3</ele>
        <time>2023-07-23T10:23:27Z</time>
      </trkpt>
      <trkpt lat="48.39506" lon="7.34432">
        <ele>477.5</ele>
        <time>2023-07-23T10:23:28Z</time>
      </trkpt>
      <trkpt lat="48.39506" lon="7.3443">
        <ele>477.6</ele>
        <time>2023-07-23T10:23:29Z</time>
      </trkpt>
      <trkpt lat="48.39509" lon="7.34425">
        <ele>477.9</ele>
        <time>2023-07-23T10:23:30Z</time>
      </trkpt>
      <trkpt lat="48.3951" lon="7.34424">
        <ele>477.9</ele>
        <time>2023-07-23T10:23:31Z</time>
      </trkpt>
      <trkpt lat="48.39511" lon="7.34419">
        <ele>478.2</ele>
        <time>2023-07-23T10:23:32Z</time>
      </trkpt>
      <trkpt lat="48.39512" lon="7.34417">
        <ele>478.3</ele>
        <time>2023-07-23T10:23:33Z</time>
      </trkpt>
      <trkpt lat="48.39514" lon="7.34413">
        <ele>478.5</ele>
        <time>2023-07-23T10:23:34Z</time>
      </trkpt>
      <trkpt lat="48.39515" lon="7.34412">
        <ele>478.6</ele>
        <time>2023-07-23T10:23:35Z</time>
      </trkpt>
      <trkpt lat="48.39517" lon="7.34408">
        <ele>478.8</ele>
        <time>2023-07-23T10:23:36Z</time>
      </trkpt>
      <trkpt lat="48.39518" lon="7.34407">
        <ele>478.9</ele>
        <time>2023-07-23T10:23:37Z</time>
      </trkpt>
      <trkpt lat="48.3952" lon="7.34403">
        <ele>479.1</ele>
        <time>2023-07-23T10:23:38Z</time>
      </trkpt>
      <trkpt lat="48.39521" lon="7.34402">
        <ele>479.2</ele>
        <time>2023-07-23T10:23:39Z</time>
      </trkpt>
      <trkpt lat="48.39524" lon="7.34398">
        <ele>479.5</ele>
        <time>2023-07-23T10:23:40Z</time>
      </trkpt>
      <trkpt lat="48.39524" lon="7.34396">
        <ele>479.5</ele>
        <time>2023-07-23T10:23:41Z</time>
      </trkpt>
      <trkpt lat="48.39527" lon="7.34393">
        <ele>479.8</ele>
        <time>2023-07-23T10:23:42Z</time>
      </trkpt>
      <trkpt lat="48.39528" lon="7.34392">
        <ele>479.9</ele>
        <time>2023-07-23T10:23:43Z</time>
      </trkpt>
      <trkpt lat="48.39531" lon="7.34389">
        <ele>480.1</ele>
        <time>2023-07-23T10:23:44Z</time>
      </trkpt>
      <trkpt lat="48.39531" lon="7.34387">
        <ele>480.2</ele>
        <time>2023-07-23T10:23:45Z</time>
      </trkpt>
      <trkpt lat="48.39534" lon="7.34384">
        <ele>480.4</ele>
        <time>2023-07-23T10:23:46Z</time>
      </trkpt>
      <trkpt lat="48.39535" lon="7.34382">
        <ele>480.5</ele>
        <time>2023-07-23T10:23:47Z</time>
      </trkpt>
      <trkpt lat="48.39538" lon="7.34378">
        <ele>480.8</ele>
        <time>2023-07-23T10:23:48Z</time>
      </trkpt>
      <trkpt lat="48.39538" lon="7.34377">
        <ele>480.9</ele>
        <time>2023-07-23T10:23:49Z</time>
      </trkpt>
      <trkpt lat="48.39541" lon="7.34373">
        <ele>481.1</ele>
        <time>2023-07-23T10:23:50Z</time>
      </trkpt>
      <trkpt lat="48.39542" lon="7.34371">
        <ele>481.2</ele>
        <time>2023-07-23T10:23:51Z</time>
      </trkpt>
      <trkpt lat="48.39544" lon="7.34367">
        <ele>481.5</ele>
        <time>2023-07-23T10:23:52Z</time>
      </trkpt>
      <trkpt lat="48.39545" lon="7.34366">
        <ele>481.5</ele>
        <time>2023-07-23T10:23:53Z</time>
      </trkpt>
      <trkpt lat="48.39546" lon="7.34361">
        <ele>481.8</ele>
        <time>2023-07-23T10:23:54Z</time>
      </trkpt>
      <trkpt lat="48.39547" lon="7.34359">
        <ele>481.9</ele>
        <time>2023-07-23T10:23:55Z</time>
      </trkpt>
      <trkpt lat="48.39549" lon="7.34355">
        <ele>482.1</ele>
        <time>2023-07-23T10:23:56Z</time>
      </trkpt>
      <trkpt lat="48.3955" lon="7.34353">
        <ele>482.2</ele>
        <time>2023-07-23T10:23:57Z</time>
      </trkpt>
      <trkpt lat="48.39552" lon="7.34348">
        <ele>482.5</ele>
        <time>2023-07-23T10:23:58Z</time>
      </trkpt>
      <trkpt lat="48.39552" lon="7.34347">
        <ele>482.5</ele>
        <time>2023-07-23T10:23:59Z</time>
      </trkpt>
      <trkpt lat="48.39554" lon="7.34342">
        <ele>482.8</ele>
        <time>2023-07-23T10:24:00Z</time>
      </trkpt>
      <trkpt lat="48.39555" lon="7.3434">
        <ele>482.9</ele>
        <time>2023-07-23T10:24:01Z</time>
      </trkpt>
      <trkpt lat="48.39556" lon="7.34335">
        <ele>483.1</ele>
        <time>2023-07-23T10:24:02Z</time>
      </trkpt>
      <trkpt lat="48.39557" lon="7.34333">
        <ele>483.2</ele>
        <time>2023-07-23T10:24:03Z</time>
      </trkpt>
      <trkpt lat="48.39558" lon="7.34328">
        <ele>483.5</ele>
        <time>2023-07-23T10:24:04Z</time>
      </trkpt>
      <trkpt lat="48.39559" lon="7.34327">
        <ele>483.6</ele>
        <time>2023-07-23T10:24:05Z</time>
      </trkpt>
      <trkpt lat="48.39561" lon="7.34322">
        <ele>483.8</ele>
        <time>2023-07-23T10:24:06Z</time>
      </trkpt>
      <trkpt lat="48.39561" lon="7.34321">
        <ele>483.9</ele>
        <time>2023-07-23T10:24:07Z</time>
      </trkpt>
      <trkpt lat="48.39563" lon="7.34316">
        <ele>484.2</ele>
        <time>2023-07-23T10:24:08Z</time>
      </trkpt>
      <trkpt lat="48.39564" lon="7.34314">
        <ele>484.3</ele>
        <time>2023-07-23T10:24:09Z</time>
      </trkpt>
      <trkpt lat="48.39566" lon="7.34309">
        <ele>484.5</ele>
        <time>2023-07-23T10:24:10Z</time>
      </trkpt>
      <trkpt lat="48.39566" lon="7.34307">
        <ele>484.6</ele>
        <time>2023-07-23T10:24:11Z</time>
      </trkpt>
      <trkpt lat="48.39568" lon="7.34302">
        <ele>484.8</ele>
        <time>2023-07-23T10:24:12Z</time>
      </trkpt>
      <trkpt lat="48.39568" lon="7.34301">
        <ele>484.9</ele>
        <time>2023-07-23T10:24:13Z</time>
      </trkpt>
      <trkpt lat="48.39569" lon="7.34295">
        <ele>485.2</ele>
        <time>2023-07-23T10:24:14Z</time>
      </trkpt>
      <trkpt lat="48.39569" lon="7.34294">
        <ele>485.2</ele>
        <time>2023-07-23T10:24:15Z</time>
      </trkpt>
      <trkpt lat="48.39571" lon="7.34289">
        <ele>485.5</ele>
        <time>2023-07-23T10:24:16Z</time>
      </trkpt>
      <trkpt lat="48.39571" lon="7.34287">
        <ele>485.6</ele>
        <time>2023-07-23T10:24:17Z</time>
      </trkpt>
      <trkpt lat="48.39573" lon="7.34282">
        <ele>485.8</ele>
        <time>2023-07-23T10:24:18Z</time>
      </trkpt>
      <trkpt lat="48.39574" lon="7.3428">
        <ele>485.9</ele>
        <time>2023-07-23T10:24:19Z</time>
      </trkpt>
      <trkpt lat="48.39576" lon="7.34276">
        <ele>486.1</ele>
        <time>2023-07-23T10:24:20Z</time>
      </trkpt>
      <trkpt lat="48.39577" lon="7.34274">
        <ele>486.2</ele>
        <time>2023-07-23T10:24:21Z</time>
      </trkpt>
      <trkpt lat="48.39579" lon="7.34269">
        <ele>486.5</ele>
        <time>2023-07-23T10:24:22Z</time>
      </trkpt>
      <trkpt lat="48.3958" lon="7.34268">
        <ele>486.6</ele>
        <time>2023-07-23T10:24:23Z</time>
      </trkpt>
      <trkpt lat="48.39583" lon="7.34264">
        <ele>486.9</ele>
        <time>2023-07-23T10:24:24Z</time>
      </trkpt>
      <trkpt lat="48.39584" lon="7.34263">
        <ele>487</ele>
        <time>2023-07-23T10:24:25Z</time>
      </trkpt>
      <trkpt lat="48.39587" lon="7.34261">
        <ele>487.3</ele>
        <time>2023-07-23T10:24:26Z</time>
      </trkpt>
      <trkpt lat="48.39588" lon="7.3426">
        <ele>487.4</ele>
        <time>2023-07-23T10:24:27Z</time>
      </trkpt>
      <trkpt lat="48.39591" lon="7.34259">
        <ele>487.6</ele>
        <time>2023-07-23T10:24:28Z</time>
      </trkpt>
      <trkpt lat="48.39594" lon="7.34259">
        <ele>487.9</ele>
        <time>2023-07-23T10:24:29Z</time>
      </trkpt>
      <trkpt lat="48.39595" lon="7.34259">
        <ele>488</ele>
        <time>2023-07-23T10:24:30Z</time>
      </trkpt>
      <trkpt lat="48.39599" lon="7.3426">
        <ele>488.3</ele>
        <time>2023-07-23T10:24:31Z</time>
      </trkpt>
      <trkpt lat="48.396" lon="7.34259">
        <ele>488.4</ele>
        <time>2023-07-23T10:24:32Z</time>
      </trkpt>
      <trkpt lat="48.39604" lon="7.34259">
        <ele>488.7</ele>
        <time>2023-07-23T10:24:33Z</time>
      </trkpt>
      <trkpt lat="48.39605" lon="7.34259">
        <ele>488.8</ele>
        <time>2023-07-23T10:24:34Z</time>
      </trkpt>
      <trkpt lat="48.39608" lon="7.34259">
        <ele>489</ele>
        <time>2023-07-23T10:24:35Z</time>
      </trkpt>
      <trkpt lat="48.39609" lon="7.34258">
        <ele>489.1</ele>
        <time>2023-07-23T10:24:36Z</time>
      </trkpt>
      <trkpt lat="48.39612" lon="7.34256">
        <ele>489.4</ele>
        <time>2023-07-23T10:24:37Z</time>
      </trkpt>
      <trkpt lat="48.39613" lon="7.34256">
        <ele>489.5</ele>
        <time>2023-07-23T10:24:38Z</time>
      </trkpt>
      <trkpt lat="48.39617" lon="7.34258">
        <ele>489.8</ele>
        <time>2023-07-23T10:24:39Z</time>
      </trkpt>
      <trkpt lat="48.39618" lon="7.34258">
        <ele>489.9</ele>
        <time>2023-07-23T10:24:40Z</time>
      </trkpt>
      <trkpt lat="48.39621" lon="7.3426">
        <ele>490.2</ele>
        <time>2023-07-23T10:24:41Z</time>
      </trkpt>
      <trkpt lat="48.39622" lon="7.3426">
        <ele>490.3</ele>
        <time>2023-07-23T10:24:42Z</time>
      </trkpt>
      <trkpt lat="48.39626" lon="7.34259">
        <ele>490.7</ele>
        <time>2023-07-23T10:24:43Z</time>
      </trkpt>
      <trkpt lat="48.39627" lon="7.34259">
        <ele>490.8</ele>
        <time>2023-07-23T10:24:44Z</time>
      </trkpt>
      <trkpt lat="48.39629" lon="7.34259">
        <ele>491</ele>
        <time>2023-07-23T10:24:45Z</time>
      </trkpt>
      <trkpt lat="48.39632" lon="7.34259">
        <ele>491.2</ele>
        <time>2023-07-23T10:24:47Z</time>
      </trkpt>
      <trkpt lat="48.39635" lon="7.34259">
        <ele>491.5</ele>
        <time>2023-07-23T10:24:48Z</time>
      </trkpt>
      <trkpt lat="48.39636" lon="7.34259">
        <ele>491.6</ele>
        <time>2023-07-23T10:24:49Z</time>
      </trkpt>
      <trkpt lat="48.39639" lon="7.34259">
        <ele>491.9</ele>
        <time>2023-07-23T10:24:50Z</time>
      </trkpt>
      <trkpt lat="48.3964" lon="7.34258">
        <ele>492</ele>
        <time>2023-07-23T10:24:51Z</time>
      </trkpt>
      <trkpt lat="48.39643" lon="7.34258">
        <ele>492.3</ele>
        <time>2023-07-23T10:24:52Z</time>
      </trkpt>
      <trkpt lat="48.39645" lon="7.34258">
        <ele>492.4</ele>
        <time>2023-07-23T10:24:53Z</time>
      </trkpt>
      <trkpt lat="48.39648" lon="7.34258">
        <ele>492.7</ele>
        <time>2023-07-23T10:24:54Z</time>
      </trkpt>
      <trkpt lat="48.39649" lon="7.34257">
        <ele>492.8</ele>
        <time>2023-07-23T10:24:55Z</time>
      </trkpt>
      <trkpt lat="48.39653" lon="7.34257">
        <ele>493.1</ele>
        <time>2023-07-23T10:24:56Z</time>
      </trkpt>
      <trkpt lat="48.39654" lon="7.34256">
        <ele>493.2</ele>
        <time>2023-07-23T10:24:57Z</time>
      </trkpt>
      <trkpt lat="48.39657" lon="7.34254">
        <ele>493.4</ele>
        <time>2023-07-23T10:24:58Z</time>
      </trkpt>
      <trkpt lat="48.39658" lon="7.34254">
        <ele>493.4</ele>
        <time>2023-07-23T10:24:59Z</time>
      </trkpt>
      <trkpt lat="48.39661" lon="7.3425">
        <ele>493.5</ele>
        <time>2023-07-23T10:25:00Z</time>
      </trkpt>
      <trkpt lat="48.39662" lon="7.34249">
        <ele>493.5</ele>
        <time>2023-07-23T10:25:01Z</time>
      </trkpt>
      <trkpt lat="48.39664" lon="7.34245">
        <ele>493.5</ele>
        <time>2023-07-23T10:25:02Z</time>
      </trkpt>
      <trkpt lat="48.39665" lon="7.34244">
        <ele>493.5</ele>
        <time>2023-07-23T10:25:03Z</time>
      </trkpt>
      <trkpt lat="48.39668" lon="7.3424">
        <ele>493.6</ele>
        <time>2023-07-23T10:25:04Z</time>
      </trkpt>
      <trkpt lat="48.39669" lon="7.34239">
        <ele>493.6</ele>
        <time>2023-07-23T10:25:05Z</time>
      </trkpt>
      <trkpt lat="48.39671" lon="7.34235">
        <ele>493.6</ele>
        <time>2023-07-23T10:25:06Z</time>
      </trkpt>
      <trkpt lat="48.39672" lon="7.34234">
        <ele>493.6</ele>
        <time>2023-07-23T10:25:07Z</time>
      </trkpt>
      <trkpt lat="48.39674" lon="7.3423">
        <ele>493.9</ele>
        <time>2023-07-23T10:25:08Z</time>
      </trkpt>
      <trkpt lat="48.39675" lon="7.34229">
        <ele>494</ele>
        <time>2023-07-23T10:25:09Z</time>
      </trkpt>
      <trkpt lat="48.39678" lon="7.34225">
        <ele>494.3</ele>
        <time>2023-07-23T10:25:10Z</time>
      </trkpt>
      <trkpt lat="48.39679" lon="7.34224">
        <ele>494.4</ele>
        <time>2023-07-23T10:25:11Z</time>
      </trkpt>
      <trkpt lat="48.39681" lon="7.3422">
        <ele>494.6</ele>
        <time>2023-07-23T10:25:12Z</time>
      </trkpt>
      <trkpt lat="48.39682" lon="7.34219">
        <ele>494.7</ele>
        <time>2023-07-23T10:25:13Z</time>
      </trkpt>
      <trkpt lat="48.39685" lon="7.34215">
        <ele>495.1</ele>
        <time>2023-07-23T10:25:14Z</time>
      </trkpt>
      <trkpt lat="48.39686" lon="7.34214">
        <ele>495.2</ele>
        <time>2023-07-23T10:25:15Z</time>
      </trkpt>
      <trkpt lat="48.39689" lon="7.34211">
        <ele>495.5</ele>
        <time>2023-07-23T10:25:16Z</time>
      </trkpt>
      <trkpt lat="48.3969" lon="7.34209">
        <ele>495.6</ele>
        <time>2023-07-23T10:25:17Z</time>
      </trkpt>
      <trkpt lat="48.39692" lon="7.34206">
        <ele>495.9</ele>
        <time>2023-07-23T10:25:18Z</time>
      </trkpt>
      <trkpt lat="48.39693" lon="7.34205">
        <ele>496</ele>
        <time>2023-07-23T10:25:19Z</time>
      </trkpt>
      <trkpt lat="48.39695" lon="7.34201">
        <ele>496.3</ele>
        <time>2023-07-23T10:25:20Z</time>
      </trkpt>
      <trkpt lat="48.39696" lon="7.342">
        <ele>496.4</ele>
        <time>2023-07-23T10:25:21Z</time>
      </trkpt>
      <trkpt lat="48.39699" lon="7.34197">
        <ele>496.7</ele>
        <time>2023-07-23T10:25:22Z</time>
      </trkpt>
      <trkpt lat="48.397" lon="7.34195">
        <ele>496.8</ele>
        <time>2023-07-23T10:25:23Z</time>
      </trkpt>
      <trkpt lat="48.39703" lon="7.34191">
        <ele>497.2</ele>
        <time>2023-07-23T10:25:24Z</time>
      </trkpt>
      <trkpt lat="48.39705" lon="7.34188">
        <ele>497.3</ele>
        <time>2023-07-23T10:25:25Z</time>
      </trkpt>
      <trkpt lat="48.39706" lon="7.34186">
        <ele>497.5</ele>
        <time>2023-07-23T10:25:26Z</time>
      </trkpt>
      <trkpt lat="48.39709" lon="7.34182">
        <ele>497.8</ele>
        <time>2023-07-23T10:25:27Z</time>
      </trkpt>
      <trkpt lat="48.3971" lon="7.34181">
        <ele>497.9</ele>
        <time>2023-07-23T10:25:28Z</time>
      </trkpt>
      <trkpt lat="48.39713" lon="7.34177">
        <ele>498.2</ele>
        <time>2023-07-23T10:25:29Z</time>
      </trkpt>
      <trkpt lat="48.39714" lon="7.34176">
        <ele>498.3</ele>
        <time>2023-07-23T10:25:30Z</time>
      </trkpt>
      <trkpt lat="48.39717" lon="7.34172">
        <ele>498.6</ele>
        <time>2023-07-23T10:25:31Z</time>
      </trkpt>
      <trkpt lat="48.39718" lon="7.34171">
        <ele>498.7</ele>
        <time>2023-07-23T10:25:32Z</time>
      </trkpt>
      <trkpt lat="48.3972" lon="7.34168">
        <ele>499</ele>
        <time>2023-07-23T10:25:33Z</time>
      </trkpt>
      <trkpt lat="48.39721" lon="7.34166">
        <ele>499.1</ele>
        <time>2023-07-23T10:25:34Z</time>
      </trkpt>
      <trkpt lat="48.39724" lon="7.34163">
        <ele>499.4</ele>
        <time>2023-07-23T10:25:35Z</time>
      </trkpt>
      <trkpt lat="48.39725" lon="7.34162">
        <ele>499.5</ele>
        <time>2023-07-23T10:25:36Z</time>
      </trkpt>
      <trkpt lat="48.39726" lon="7.34161">
        <ele>499.6</ele>
        <time>2023-07-23T10:25:37Z</time>
      </trkpt>
      <trkpt lat="48.39727" lon="7.3416">
        <ele>499.6</ele>
        <time>2023-07-23T10:25:38Z</time>
      </trkpt>
      <trkpt lat="48.39727" lon="7.3416">
        <ele>499.7</ele>
        <time>2023-07-23T10:25:39Z</time>
      </trkpt>
      <trkpt lat="48.39727" lon="7.34159">
        <ele>499.7</ele>
        <time>2023-07-23T10:25:40Z</time>
      </trkpt>
      <trkpt lat="48.39728" lon="7.34159">
        <ele>499.8</ele>
        <time>2023-07-23T10:25:41Z</time>
      </trkpt>
      <trkpt lat="48.39728" lon="7.34158">
        <ele>499.8</ele>
        <time>2023-07-23T10:25:42Z</time>
      </trkpt>
      <trkpt lat="48.39729" lon="7.34158">
        <ele>499.9</ele>
        <time>2023-07-23T10:25:43Z</time>
      </trkpt>
      <trkpt lat="48.39729" lon="7.34157">
        <ele>499.9</ele>
        <time>2023-07-23T10:25:44Z</time>
      </trkpt>
      <trkpt lat="48.3973" lon="7.34157">
        <ele>499.9</ele>
        <time>2023-07-23T10:25:45Z</time>
      </trkpt>
      <trkpt lat="48.3973" lon="7.34156">
        <ele>500</ele>
        <time>2023-07-23T10:25:46Z</time>
      </trkpt>
      <trkpt lat="48.39731" lon="7.34156">
        <ele>500</ele>
        <time>2023-07-23T10:25:47Z</time>
      </trkpt>
      <trkpt lat="48.39731" lon="7.34155">
        <ele>500.1</ele>
        <time>2023-07-23T10:25:48Z</time>
      </trkpt>
      <trkpt lat="48.39732" lon="7.34154">
        <ele>500.1</ele>
        <time>2023-07-23T10:25:49Z</time>
      </trkpt>
      <trkpt lat="48.39732" lon="7.34154">
        <ele>500.2</ele>
        <time>2023-07-23T10:25:50Z</time>
      </trkpt>
      <trkpt lat="48.39733" lon="7.34153">
        <ele>500.2</ele>
        <time>2023-07-23T10:25:51Z</time>
      </trkpt>
      <trkpt lat="48.39733" lon="7.34153">
        <ele>500.3</ele>
        <time>2023-07-23T10:25:52Z</time>
      </trkpt>
      <trkpt lat="48.39734" lon="7.34152">
        <ele>500.3</ele>
        <time>2023-07-23T10:27:25Z</time>
      </trkpt>
      <trkpt lat="48.39734" lon="7.34152">
        <ele>500.4</ele>
        <time>2023-07-23T10:27:26Z</time>
      </trkpt>
      <trkpt lat="48.39736" lon="7.34149">
        <ele>500.5</ele>
        <time>2023-07-23T10:27:27Z</time>
      </trkpt>
      <trkpt lat="48.39736" lon="7.34148">
        <ele>500.6</ele>
        <time>2023-07-23T10:27:28Z</time>
      </trkpt>
      <trkpt lat="48.39737" lon="7.34147">
        <ele>500.7</ele>
        <time>2023-07-23T10:27:29Z</time>
      </trkpt>
      <trkpt lat="48.39738" lon="7.34145">
        <ele>500.8</ele>
        <time>2023-07-23T10:27:30Z</time>
      </trkpt>
      <trkpt lat="48.3974" lon="7.34145">
        <ele>501</ele>
        <time>2023-07-23T10:27:31Z</time>
      </trkpt>
      <trkpt lat="48.39742" lon="7.34141">
        <ele>501.2</ele>
        <time>2023-07-23T10:27:32Z</time>
      </trkpt>
      <trkpt lat="48.39743" lon="7.3414">
        <ele>501.3</ele>
        <time>2023-07-23T10:27:33Z</time>
      </trkpt>
      <trkpt lat="48.39745" lon="7.34137">
        <ele>501.5</ele>
        <time>2023-07-23T10:27:34Z</time>
      </trkpt>
      <trkpt lat="48.39745" lon="7.34136">
        <ele>501.6</ele>
        <time>2023-07-23T10:27:35Z</time>
      </trkpt>
      <trkpt lat="48.39747" lon="7.34133">
        <ele>501.8</ele>
        <time>2023-07-23T10:27:36Z</time>
      </trkpt>
      <trkpt lat="48.39748" lon="7.34132">
        <ele>501.9</ele>
        <time>2023-07-23T10:27:37Z</time>
      </trkpt>
      <trkpt lat="48.3975" lon="7.34129">
        <ele>502.1</ele>
        <time>2023-07-23T10:27:38Z</time>
      </trkpt>
      <trkpt lat="48.39751" lon="7.34128">
        <ele>502.2</ele>
        <time>2023-07-23T10:27:39Z</time>
      </trkpt>
      <trkpt lat="48.39753" lon="7.34125">
        <ele>502.4</ele>
        <time>2023-07-23T10:27:40Z</time>
      </trkpt>
      <trkpt lat="48.39754" lon="7.34124">
        <ele>502.5</ele>
        <time>2023-07-23T10:27:41Z</time>
      </trkpt>
      <trkpt lat="48.39755" lon="7.34121">
        <ele>502.8</ele>
        <time>2023-07-23T10:27:42Z</time>
      </trkpt>
      <trkpt lat="48.39756" lon="7.3412">
        <ele>502.8</ele>
        <time>2023-07-23T10:27:43Z</time>
      </trkpt>
      <trkpt lat="48.39758" lon="7.34117">
        <ele>503.1</ele>
        <time>2023-07-23T10:27:44Z</time>
      </trkpt>
      <trkpt lat="48.39759" lon="7.34116">
        <ele>503.1</ele>
        <time>2023-07-23T10:27:45Z</time>
      </trkpt>
      <trkpt lat="48.39761" lon="7.34113">
        <ele>503.4</ele>
        <time>2023-07-23T10:27:46Z</time>
      </trkpt>
      <trkpt lat="48.39762" lon="7.34112">
        <ele>503.4</ele>
        <time>2023-07-23T10:27:47Z</time>
      </trkpt>
      <trkpt lat="48.39764" lon="7.34109">
        <ele>503.7</ele>
        <time>2023-07-23T10:27:48Z</time>
      </trkpt>
      <trkpt lat="48.39765" lon="7.34107">
        <ele>503.8</ele>
        <time>2023-07-23T10:27:49Z</time>
      </trkpt>
      <trkpt lat="48.39767" lon="7.34104">
        <ele>504</ele>
        <time>2023-07-23T10:27:50Z</time>
      </trkpt>
      <trkpt lat="48.39767" lon="7.34103">
        <ele>504.1</ele>
        <time>2023-07-23T10:27:51Z</time>
      </trkpt>
      <trkpt lat="48.3977" lon="7.34099">
        <ele>504.3</ele>
        <time>2023-07-23T10:27:52Z</time>
      </trkpt>
      <trkpt lat="48.3977" lon="7.34098">
        <ele>504.4</ele>
        <time>2023-07-23T10:27:53Z</time>
      </trkpt>
      <trkpt lat="48.39773" lon="7.34094">
        <ele>504.7</ele>
        <time>2023-07-23T10:27:54Z</time>
      </trkpt>
      <trkpt lat="48.39773" lon="7.34093">
        <ele>504.7</ele>
        <time>2023-07-23T10:27:55Z</time>
      </trkpt>
      <trkpt lat="48.39775" lon="7.34089">
        <ele>505</ele>
        <time>2023-07-23T10:27:56Z</time>
      </trkpt>
      <trkpt lat="48.39776" lon="7.34087">
        <ele>505.1</ele>
        <time>2023-07-23T10:27:57Z</time>
      </trkpt>
      <trkpt lat="48.39778" lon="7.34083">
        <ele>505.3</ele>
        <time>2023-07-23T10:27:58Z</time>
      </trkpt>
      <trkpt lat="48.39779" lon="7.34082">
        <ele>505.4</ele>
        <time>2023-07-23T10:27:59Z</time>
      </trkpt>
      <trkpt lat="48.39781" lon="7.34078">
        <ele>505.7</ele>
        <time>2023-07-23T10:28:00Z</time>
      </trkpt>
      <trkpt lat="48.39782" lon="7.34076">
        <ele>505.8</ele>
        <time>2023-07-23T10:28:01Z</time>
      </trkpt>
      <trkpt lat="48.39784" lon="7.34073">
        <ele>506</ele>
        <time>2023-07-23T10:28:02Z</time>
      </trkpt>
      <trkpt lat="48.39785" lon="7.34071">
        <ele>506.1</ele>
        <time>2023-07-23T10:28:03Z</time>
      </trkpt>
      <trkpt lat="48.39787" lon="7.34068">
        <ele>506.3</ele>
        <time>2023-07-23T10:28:04Z</time>
      </trkpt>
      <trkpt lat="48.39788" lon="7.34067">
        <ele>506.4</ele>
        <time>2023-07-23T10:28:05Z</time>
      </trkpt>
      <trkpt lat="48.3979" lon="7.34063">
        <ele>506.7</ele>
        <time>2023-07-23T10:28:06Z</time>
      </trkpt>
      <trkpt lat="48.39791" lon="7.34061">
        <ele>506.8</ele>
        <time>2023-07-23T10:28:07Z</time>
      </trkpt>
      <trkpt lat="48.39793" lon="7.34057">
        <ele>507</ele>
        <time>2023-07-23T10:28:08Z</time>
      </trkpt>
      <trkpt lat="48.39794" lon="7.34056">
        <ele>507.1</ele>
        <time>2023-07-23T10:28:09Z</time>
      </trkpt>
      <trkpt lat="48.39796" lon="7.34052">
        <ele>507.3</ele>
        <time>2023-07-23T10:28:10Z</time>
      </trkpt>
      <trkpt lat="48.39796" lon="7.34051">
        <ele>507.4</ele>
        <time>2023-07-23T10:28:11Z</time>
      </trkpt>
      <trkpt lat="48.39798" lon="7.34047">
        <ele>507.7</ele>
        <time>2023-07-23T10:28:12Z</time>
      </trkpt>
      <trkpt lat="48.39799" lon="7.34046">
        <ele>507.7</ele>
        <time>2023-07-23T10:28:13Z</time>
      </trkpt>
      <trkpt lat="48.39801" lon="7.34042">
        <ele>508</ele>
        <time>2023-07-23T10:28:14Z</time>
      </trkpt>
      <trkpt lat="48.39802" lon="7.3404">
        <ele>508.1</ele>
        <time>2023-07-23T10:28:15Z</time>
      </trkpt>
      <trkpt lat="48.39804" lon="7.34037">
        <ele>508.4</ele>
        <time>2023-07-23T10:28:16Z</time>
      </trkpt>
      <trkpt lat="48.39805" lon="7.34035">
        <ele>508.5</ele>
        <time>2023-07-23T10:28:17Z</time>
      </trkpt>
      <trkpt lat="48.39807" lon="7.34031">
        <ele>508.8</ele>
        <time>2023-07-23T10:28:18Z</time>
      </trkpt>
      <trkpt lat="48.39808" lon="7.3403">
        <ele>508.9</ele>
        <time>2023-07-23T10:28:19Z</time>
      </trkpt>
      <trkpt lat="48.3981" lon="7.34026">
        <ele>509.1</ele>
        <time>2023-07-23T10:28:20Z</time>
      </trkpt>
      <trkpt lat="48.3981" lon="7.34024">
        <ele>509.2</ele>
        <time>2023-07-23T10:28:21Z</time>
      </trkpt>
      <trkpt lat="48.39813" lon="7.34021">
        <ele>509.5</ele>
        <time>2023-07-23T10:28:22Z</time>
      </trkpt>
      <trkpt lat="48.39814" lon="7.34019">
        <ele>509.6</ele>
        <time>2023-07-23T10:28:23Z</time>
      </trkpt>
      <trkpt lat="48.39816" lon="7.34015">
        <ele>509.9</ele>
        <time>2023-07-23T10:28:24Z</time>
      </trkpt>
      <trkpt lat="48.39817" lon="7.34014">
        <ele>510</ele>
        <time>2023-07-23T10:28:25Z</time>
      </trkpt>
      <trkpt lat="48.39819" lon="7.34009">
        <ele>510.3</ele>
        <time>2023-07-23T10:28:26Z</time>
      </trkpt>
      <trkpt lat="48.39819" lon="7.34008">
        <ele>510.4</ele>
        <time>2023-07-23T10:28:27Z</time>
      </trkpt>
      <trkpt lat="48.39822" lon="7.34004">
        <ele>510.7</ele>
        <time>2023-07-23T10:28:28Z</time>
      </trkpt>
      <trkpt lat="48.39822" lon="7.34002">
        <ele>510.8</ele>
        <time>2023-07-23T10:28:29Z</time>
      </trkpt>
      <trkpt lat="48.39825" lon="7.33998">
        <ele>511.1</ele>
        <time>2023-07-23T10:28:30Z</time>
      </trkpt>
      <trkpt lat="48.39826" lon="7.33996">
        <ele>511.2</ele>
        <time>2023-07-23T10:28:31Z</time>
      </trkpt>
      <trkpt lat="48.39827" lon="7.33992">
        <ele>511.5</ele>
        <time>2023-07-23T10:28:32Z</time>
      </trkpt>
      <trkpt lat="48.39828" lon="7.3399">
        <ele>511.6</ele>
        <time>2023-07-23T10:28:33Z</time>
      </trkpt>
      <trkpt lat="48.3983" lon="7.33986">
        <ele>511.9</ele>
        <time>2023-07-23T10:28:34Z</time>
      </trkpt>
      <trkpt lat="48.39831" lon="7.33985">
        <ele>512</ele>
        <time>2023-07-23T10:28:35Z</time>
      </trkpt>
      <trkpt lat="48.39833" lon="7.33981">
        <ele>512.3</ele>
        <time>2023-07-23T10:28:36Z</time>
      </trkpt>
      <trkpt lat="48.39834" lon="7.33979">
        <ele>512.4</ele>
        <time>2023-07-23T10:28:37Z</time>
      </trkpt>
      <trkpt lat="48.39836" lon="7.33975">
        <ele>512.7</ele>
        <time>2023-07-23T10:28:38Z</time>
      </trkpt>
      <trkpt lat="48.39837" lon="7.33974">
        <ele>512.7</ele>
        <time>2023-07-23T10:28:39Z</time>
      </trkpt>
      <trkpt lat="48.3984" lon="7.3397">
        <ele>513</ele>
        <time>2023-07-23T10:28:40Z</time>
      </trkpt>
      <trkpt lat="48.39841" lon="7.33969">
        <ele>513.1</ele>
        <time>2023-07-23T10:28:41Z</time>
      </trkpt>
      <trkpt lat="48.39843" lon="7.33965">
        <ele>513.4</ele>
        <time>2023-07-23T10:28:42Z</time>
      </trkpt>
      <trkpt lat="48.39844" lon="7.33964">
        <ele>513.5</ele>
        <time>2023-07-23T10:28:43Z</time>
      </trkpt>
      <trkpt lat="48.39847" lon="7.3396">
        <ele>513.8</ele>
        <time>2023-07-23T10:28:44Z</time>
      </trkpt>
      <trkpt lat="48.39848" lon="7.33959">
        <ele>513.9</ele>
        <time>2023-07-23T10:28:45Z</time>
      </trkpt>
      <trkpt lat="48.39851" lon="7.33956">
        <ele>514.1</ele>
        <time>2023-07-23T10:28:46Z</time>
      </trkpt>
      <trkpt lat="48.39852" lon="7.33955">
        <ele>514.2</ele>
        <time>2023-07-23T10:28:47Z</time>
      </trkpt>
      <trkpt lat="48.39855" lon="7.33952">
        <ele>514.5</ele>
        <time>2023-07-23T10:28:48Z</time>
      </trkpt>
      <trkpt lat="48.39856" lon="7.33951">
        <ele>514.6</ele>
        <time>2023-07-23T10:28:49Z</time>
      </trkpt>
      <trkpt lat="48.39859" lon="7.33948">
        <ele>514.8</ele>
        <time>2023-07-23T10:28:50Z</time>
      </trkpt>
      <trkpt lat="48.3986" lon="7.33947">
        <ele>514.9</ele>
        <time>2023-07-23T10:28:51Z</time>
      </trkpt>
      <trkpt lat="48.39862" lon="7.33944">
        <ele>515.2</ele>
        <time>2023-07-23T10:28:52Z</time>
      </trkpt>
      <trkpt lat="48.39864" lon="7.33943">
        <ele>515.3</ele>
        <time>2023-07-23T10:28:53Z</time>
      </trkpt>
      <trkpt lat="48.39867" lon="7.33941">
        <ele>515.6</ele>
        <time>2023-07-23T10:28:54Z</time>
      </trkpt>
      <trkpt lat="48.39868" lon="7.3394">
        <ele>515.7</ele>
        <time>2023-07-23T10:28:55Z</time>
      </trkpt>
      <trkpt lat="48.39871" lon="7.33938">
        <ele>515.9</ele>
        <time>2023-07-23T10:28:56Z</time>
      </trkpt>
      <trkpt lat="48.39872" lon="7.33937">
        <ele>516</ele>
        <time>2023-07-23T10:28:57Z</time>
      </trkpt>
      <trkpt lat="48.39875" lon="7.33934">
        <ele>516.3</ele>
        <time>2023-07-23T10:28:59Z</time>
      </trkpt>
      <trkpt lat="48.39876" lon="7.33933">
        <ele>516.4</ele>
        <time>2023-07-23T10:29:00Z</time>
      </trkpt>
      <trkpt lat="48.39879" lon="7.33931">
        <ele>516.6</ele>
        <time>2023-07-23T10:29:01Z</time>
      </trkpt>
      <trkpt lat="48.3988" lon="7.3393">
        <ele>516.8</ele>
        <time>2023-07-23T10:29:02Z</time>
      </trkpt>
      <trkpt lat="48.39883" lon="7.33927">
        <ele>517.1</ele>
        <time>2023-07-23T10:29:03Z</time>
      </trkpt>
      <trkpt lat="48.39884" lon="7.33926">
        <ele>517.2</ele>
        <time>2023-07-23T10:29:04Z</time>
      </trkpt>
      <trkpt lat="48.39887" lon="7.33924">
        <ele>517.5</ele>
        <time>2023-07-23T10:29:05Z</time>
      </trkpt>
      <trkpt lat="48.39888" lon="7.33923">
        <ele>517.6</ele>
        <time>2023-07-23T10:29:06Z</time>
      </trkpt>
      <trkpt lat="48.39891" lon="7.3392">
        <ele>517.9</ele>
        <time>2023-07-23T10:29:07Z</time>
      </trkpt>
      <trkpt lat="48.39892" lon="7.33919">
        <ele>518</ele>
        <time>2023-07-23T10:29:08Z</time>
      </trkpt>
      <trkpt lat="48.39895" lon="7.33917">
        <ele>518.3</ele>
        <time>2023-07-23T10:29:09Z</time>
      </trkpt>
      <trkpt lat="48.39896" lon="7.33916">
        <ele>518.4</ele>
        <time>2023-07-23T10:29:10Z</time>
      </trkpt>
      <trkpt lat="48.39899" lon="7.33912">
        <ele>518.7</ele>
        <time>2023-07-23T10:29:11Z</time>
      </trkpt>
      <trkpt lat="48.39899" lon="7.33911">
        <ele>518.8</ele>
        <time>2023-07-23T10:29:12Z</time>
      </trkpt>
      <trkpt lat="48.39902" lon="7.33908">
        <ele>519.1</ele>
        <time>2023-07-23T10:29:13Z</time>
      </trkpt>
      <trkpt lat="48.39903" lon="7.33907">
        <ele>519.2</ele>
        <time>2023-07-23T10:29:14Z</time>
      </trkpt>
      <trkpt lat="48.39906" lon="7.33904">
        <ele>519.5</ele>
        <time>2023-07-23T10:29:15Z</time>
      </trkpt>
      <trkpt lat="48.39906" lon="7.33903">
        <ele>519.6</ele>
        <time>2023-07-23T10:29:16Z</time>
      </trkpt>
      <trkpt lat="48.39909" lon="7.33899">
        <ele>519.9</ele>
        <time>2023-07-23T10:29:17Z</time>
      </trkpt>
      <trkpt lat="48.3991" lon="7.33898">
        <ele>520</ele>
        <time>2023-07-23T10:29:18Z</time>
      </trkpt>
      <trkpt lat="48.39912" lon="7.33894">
        <ele>520.3</ele>
        <time>2023-07-23T10:29:19Z</time>
      </trkpt>
      <trkpt lat="48.39913" lon="7.33893">
        <ele>520.4</ele>
        <time>2023-07-23T10:29:20Z</time>
      </trkpt>
      <trkpt lat="48.39916" lon="7.33889">
        <ele>520.6</ele>
        <time>2023-07-23T10:29:21Z</time>
      </trkpt>
      <trkpt lat="48.39917" lon="7.33888">
        <ele>520.7</ele>
        <time>2023-07-23T10:29:22Z</time>
      </trkpt>
      <trkpt lat="48.39919" lon="7.33884">
        <ele>521.1</ele>
        <time>2023-07-23T10:29:23Z</time>
      </trkpt>
      <trkpt lat="48.3992" lon="7.33882">
        <ele>521.2</ele>
        <time>2023-07-23T10:29:24Z</time>
      </trkpt>
      <trkpt lat="48.39922" lon="7.33878">
        <ele>521.4</ele>
        <time>2023-07-23T10:29:25Z</time>
      </trkpt>
      <trkpt lat="48.39923" lon="7.33876">
        <ele>521.5</ele>
        <time>2023-07-23T10:29:26Z</time>
      </trkpt>
      <trkpt lat="48.39925" lon="7.33872">
        <ele>521.8</ele>
        <time>2023-07-23T10:29:27Z</time>
      </trkpt>
      <trkpt lat="48.39926" lon="7.3387">
        <ele>521.9</ele>
        <time>2023-07-23T10:29:28Z</time>
      </trkpt>
      <trkpt lat="48.39929" lon="7.33865">
        <ele>522.3</ele>
        <time>2023-07-23T10:29:29Z</time>
      </trkpt>
      <trkpt lat="48.39931" lon="7.33863">
        <ele>522.5</ele>
        <time>2023-07-23T10:29:30Z</time>
      </trkpt>
      <trkpt lat="48.39933" lon="7.3386">
        <ele>522.6</ele>
        <time>2023-07-23T10:29:31Z</time>
      </trkpt>
      <trkpt lat="48.39936" lon="7.33856">
        <ele>522.9</ele>
        <time>2023-07-23T10:29:32Z</time>
      </trkpt>
      <trkpt lat="48.39937" lon="7.33855">
        <ele>523</ele>
        <time>2023-07-23T10:29:33Z</time>
      </trkpt>
      <trkpt lat="48.39939" lon="7.33851">
        <ele>523.2</ele>
        <time>2023-07-23T10:29:34Z</time>
      </trkpt>
      <trkpt lat="48.3994" lon="7.3385">
        <ele>523.3</ele>
        <time>2023-07-23T10:29:35Z</time>
      </trkpt>
      <trkpt lat="48.39943" lon="7.33847">
        <ele>523.6</ele>
        <time>2023-07-23T10:29:36Z</time>
      </trkpt>
      <trkpt lat="48.39944" lon="7.33846">
        <ele>523.7</ele>
        <time>2023-07-23T10:29:37Z</time>
      </trkpt>
      <trkpt lat="48.39947" lon="7.33841">
        <ele>523.9</ele>
        <time>2023-07-23T10:29:38Z</time>
      </trkpt>
      <trkpt lat="48.39948" lon="7.3384">
        <ele>524</ele>
        <time>2023-07-23T10:29:39Z</time>
      </trkpt>
      <trkpt lat="48.39951" lon="7.33836">
        <ele>524.3</ele>
        <time>2023-07-23T10:29:40Z</time>
      </trkpt>
      <trkpt lat="48.39952" lon="7.33835">
        <ele>524.4</ele>
        <time>2023-07-23T10:29:41Z</time>
      </trkpt>
      <trkpt lat="48.39955" lon="7.33831">
        <ele>524.6</ele>
        <time>2023-07-23T10:29:42Z</time>
      </trkpt>
      <trkpt lat="48.39956" lon="7.3383">
        <ele>524.7</ele>
        <time>2023-07-23T10:29:43Z</time>
      </trkpt>
      <trkpt lat="48.39959" lon="7.33826">
        <ele>525</ele>
        <time>2023-07-23T10:29:44Z</time>
      </trkpt>
      <trkpt lat="48.3996" lon="7.33825">
        <ele>525.1</ele>
        <time>2023-07-23T10:29:45Z</time>
      </trkpt>
      <trkpt lat="48.39963" lon="7.33822">
        <ele>525.3</ele>
        <time>2023-07-23T10:29:46Z</time>
      </trkpt>
      <trkpt lat="48.39964" lon="7.3382">
        <ele>525.4</ele>
        <time>2023-07-23T10:29:47Z</time>
      </trkpt>
      <trkpt lat="48.39967" lon="7.33817">
        <ele>525.7</ele>
        <time>2023-07-23T10:29:48Z</time>
      </trkpt>
      <trkpt lat="48.39968" lon="7.33816">
        <ele>525.8</ele>
        <time>2023-07-23T10:29:49Z</time>
      </trkpt>
      <trkpt lat="48.39971" lon="7.33812">
        <ele>526</ele>
        <time>2023-07-23T10:29:50Z</time>
      </trkpt>
      <trkpt lat="48.39972" lon="7.33811">
        <ele>526.1</ele>
        <time>2023-07-23T10:29:51Z</time>
      </trkpt>
      <trkpt lat="48.39975" lon="7.33807">
        <ele>526.4</ele>
        <time>2023-07-23T10:29:52Z</time>
      </trkpt>
      <trkpt lat="48.39976" lon="7.33806">
        <ele>526.4</ele>
        <time>2023-07-23T10:29:53Z</time>
      </trkpt>
      <trkpt lat="48.39979" lon="7.33803">
        <ele>526.7</ele>
        <time>2023-07-23T10:29:54Z</time>
      </trkpt>
      <trkpt lat="48.3998" lon="7.33802">
        <ele>526.8</ele>
        <time>2023-07-23T10:29:55Z</time>
      </trkpt>
      <trkpt lat="48.39983" lon="7.33798">
        <ele>527</ele>
        <time>2023-07-23T10:29:56Z</time>
      </trkpt>
      <trkpt lat="48.39984" lon="7.33797">
        <ele>527.1</ele>
        <time>2023-07-23T10:29:57Z</time>
      </trkpt>
      <trkpt lat="48.39986" lon="7.33792">
        <ele>527.3</ele>
        <time>2023-07-23T10:29:58Z</time>
      </trkpt>
      <trkpt lat="48.39987" lon="7.33791">
        <ele>527.4</ele>
        <time>2023-07-23T10:29:59Z</time>
      </trkpt>
      <trkpt lat="48.3999" lon="7.33787">
        <ele>527.6</ele>
        <time>2023-07-23T10:30:00Z</time>
      </trkpt>
      <trkpt lat="48.3999" lon="7.33786">
        <ele>527.7</ele>
        <time>2023-07-23T10:30:01Z</time>
      </trkpt>
      <trkpt lat="48.39993" lon="7.33783">
        <ele>527.8</ele>
        <time>2023-07-23T10:30:02Z</time>
      </trkpt>
      <trkpt lat="48.39995" lon="7.3378">
        <ele>528</ele>
        <time>2023-07-23T10:30:03Z</time>
      </trkpt>
      <trkpt lat="48.39996" lon="7.33779">
        <ele>528.1</ele>
        <time>2023-07-23T10:30:04Z</time>
      </trkpt>
      <trkpt lat="48.39999" lon="7.33776">
        <ele>528.3</ele>
        <time>2023-07-23T10:30:05Z</time>
      </trkpt>
      <trkpt lat="48.4" lon="7.33774">
        <ele>528.4</ele>
        <time>2023-07-23T10:30:06Z</time>
      </trkpt>
      <trkpt lat="48.40003" lon="7.33771">
        <ele>528.6</ele>
        <time>2023-07-23T10:30:07Z</time>
      </trkpt>
      <trkpt lat="48.40004" lon="7.3377">
        <ele>528.7</ele>
        <time>2023-07-23T10:30:08Z</time>
      </trkpt>
      <trkpt lat="48.40007" lon="7.33767">
        <ele>528.9</ele>
        <time>2023-07-23T10:30:09Z</time>
      </trkpt>
      <trkpt lat="48.40009" lon="7.33766">
        <ele>529</ele>
        <time>2023-07-23T10:30:10Z</time>
      </trkpt>
      <trkpt lat="48.40012" lon="7.33763">
        <ele>529.2</ele>
        <time>2023-07-23T10:30:11Z</time>
      </trkpt>
      <trkpt lat="48.40013" lon="7.33762">
        <ele>529.3</ele>
        <time>2023-07-23T10:30:12Z</time>
      </trkpt>
      <trkpt lat="48.40016" lon="7.33759">
        <ele>529.5</ele>
        <time>2023-07-23T10:30:13Z</time>
      </trkpt>
      <trkpt lat="48.40017" lon="7.33758">
        <ele>529.5</ele>
        <time>2023-07-23T10:30:14Z</time>
      </trkpt>
      <trkpt lat="48.4002" lon="7.33756">
        <ele>529.7</ele>
        <time>2023-07-23T10:30:15Z</time>
      </trkpt>
      <trkpt lat="48.40022" lon="7.33754">
        <ele>529.8</ele>
        <time>2023-07-23T10:30:16Z</time>
      </trkpt>
      <trkpt lat="48.40026" lon="7.33751">
        <ele>530</ele>
        <time>2023-07-23T10:30:17Z</time>
      </trkpt>
      <trkpt lat="48.40027" lon="7.3375">
        <ele>530.1</ele>
        <time>2023-07-23T10:30:18Z</time>
      </trkpt>
      <trkpt lat="48.40029" lon="7.33748">
        <ele>530.2</ele>
        <time>2023-07-23T10:30:19Z</time>
      </trkpt>
      <trkpt lat="48.40033" lon="7.33745">
        <ele>530.4</ele>
        <time>2023-07-23T10:30:20Z</time>
      </trkpt>
      <trkpt lat="48.40034" lon="7.33744">
        <ele>530.5</ele>
        <time>2023-07-23T10:30:21Z</time>
      </trkpt>
      <trkpt lat="48.40038" lon="7.33742">
        <ele>530.7</ele>
        <time>2023-07-23T10:30:22Z</time>
      </trkpt>
      <trkpt lat="48.40039" lon="7.33741">
        <ele>530.8</ele>
        <time>2023-07-23T10:30:23Z</time>
      </trkpt>
      <trkpt lat="48.40042" lon="7.33739">
        <ele>531</ele>
        <time>2023-07-23T10:30:24Z</time>
      </trkpt>
      <trkpt lat="48.40044" lon="7.33739">
        <ele>531.1</ele>
        <time>2023-07-23T10:30:25Z</time>
      </trkpt>
      <trkpt lat="48.40047" lon="7.33737">
        <ele>531.3</ele>
        <time>2023-07-23T10:30:26Z</time>
      </trkpt>
      <trkpt lat="48.40048" lon="7.33736">
        <ele>531.4</ele>
        <time>2023-07-23T10:30:27Z</time>
      </trkpt>
      <trkpt lat="48.40052" lon="7.33734">
        <ele>531.6</ele>
        <time>2023-07-23T10:30:28Z</time>
      </trkpt>
      <trkpt lat="48.40053" lon="7.33733">
        <ele>531.7</ele>
        <time>2023-07-23T10:30:29Z</time>
      </trkpt>
      <trkpt lat="48.40057" lon="7.33732">
        <ele>531.9</ele>
        <time>2023-07-23T10:30:30Z</time>
      </trkpt>
      <trkpt lat="48.40058" lon="7.33732">
        <ele>532</ele>
        <time>2023-07-23T10:30:31Z</time>
      </trkpt>
      <trkpt lat="48.40061" lon="7.3373">
        <ele>532.2</ele>
        <time>2023-07-23T10:30:32Z</time>
      </trkpt>
      <trkpt lat="48.40064" lon="7.33729">
        <ele>532.4</ele>
        <time>2023-07-23T10:30:33Z</time>
      </trkpt>
      <trkpt lat="48.40066" lon="7.33728">
        <ele>532.5</ele>
        <time>2023-07-23T10:30:34Z</time>
      </trkpt>
      <trkpt lat="48.40069" lon="7.33726">
        <ele>532.7</ele>
        <time>2023-07-23T10:30:35Z</time>
      </trkpt>
      <trkpt lat="48.4007" lon="7.33726">
        <ele>532.8</ele>
        <time>2023-07-23T10:30:36Z</time>
      </trkpt>
      <trkpt lat="48.40074" lon="7.33724">
        <ele>533.1</ele>
        <time>2023-07-23T10:30:37Z</time>
      </trkpt>
      <trkpt lat="48.40075" lon="7.33724">
        <ele>533.1</ele>
        <time>2023-07-23T10:30:38Z</time>
      </trkpt>
      <trkpt lat="48.40078" lon="7.33723">
        <ele>533.3</ele>
        <time>2023-07-23T10:30:39Z</time>
      </trkpt>
      <trkpt lat="48.40081" lon="7.33722">
        <ele>533.5</ele>
        <time>2023-07-23T10:30:40Z</time>
      </trkpt>
      <trkpt lat="48.40085" lon="7.33721">
        <ele>533.8</ele>
        <time>2023-07-23T10:30:41Z</time>
      </trkpt>
      <trkpt lat="48.40086" lon="7.3372">
        <ele>533.9</ele>
        <time>2023-07-23T10:30:42Z</time>
      </trkpt>
      <trkpt lat="48.4009" lon="7.33719">
        <ele>534.1</ele>
        <time>2023-07-23T10:30:43Z</time>
      </trkpt>
      <trkpt lat="48.40091" lon="7.33719">
        <ele>534.2</ele>
        <time>2023-07-23T10:30:44Z</time>
      </trkpt>
      <trkpt lat="48.40095" lon="7.33718">
        <ele>534.5</ele>
        <time>2023-07-23T10:30:45Z</time>
      </trkpt>
      <trkpt lat="48.40096" lon="7.33718">
        <ele>534.6</ele>
        <time>2023-07-23T10:30:46Z</time>
      </trkpt>
      <trkpt lat="48.401" lon="7.33718">
        <ele>534.8</ele>
        <time>2023-07-23T10:30:47Z</time>
      </trkpt>
      <trkpt lat="48.40101" lon="7.33717">
        <ele>534.9</ele>
        <time>2023-07-23T10:30:48Z</time>
      </trkpt>
      <trkpt lat="48.40104" lon="7.33717">
        <ele>535.1</ele>
        <time>2023-07-23T10:30:49Z</time>
      </trkpt>
      <trkpt lat="48.40106" lon="7.33717">
        <ele>535.2</ele>
        <time>2023-07-23T10:30:50Z</time>
      </trkpt>
      <trkpt lat="48.40109" lon="7.33717">
        <ele>535.4</ele>
        <time>2023-07-23T10:30:51Z</time>
      </trkpt>
      <trkpt lat="48.40112" lon="7.33718">
        <ele>535.7</ele>
        <time>2023-07-23T10:30:52Z</time>
      </trkpt>
      <trkpt lat="48.40113" lon="7.33717">
        <ele>535.7</ele>
        <time>2023-07-23T10:30:53Z</time>
      </trkpt>
      <trkpt lat="48.40117" lon="7.33718">
        <ele>536</ele>
        <time>2023-07-23T10:30:54Z</time>
      </trkpt>
      <trkpt lat="48.40118" lon="7.33718">
        <ele>536.1</ele>
        <time>2023-07-23T10:30:55Z</time>
      </trkpt>
      <trkpt lat="48.40122" lon="7.33718">
        <ele>536.3</ele>
        <time>2023-07-23T10:30:56Z</time>
      </trkpt>
      <trkpt lat="48.40123" lon="7.33718">
        <ele>536.4</ele>
        <time>2023-07-23T10:30:57Z</time>
      </trkpt>
      <trkpt lat="48.40127" lon="7.33718">
        <ele>536.6</ele>
        <time>2023-07-23T10:30:58Z</time>
      </trkpt>
      <trkpt lat="48.40128" lon="7.33718">
        <ele>536.6</ele>
        <time>2023-07-23T10:30:59Z</time>
      </trkpt>
      <trkpt lat="48.40131" lon="7.33719">
        <ele>536.9</ele>
        <time>2023-07-23T10:31:00Z</time>
      </trkpt>
      <trkpt lat="48.40133" lon="7.33719">
        <ele>536.9</ele>
        <time>2023-07-23T10:31:01Z</time>
      </trkpt>
      <trkpt lat="48.40136" lon="7.3372">
        <ele>536.9</ele>
        <time>2023-07-23T10:31:02Z</time>
      </trkpt>
      <trkpt lat="48.40138" lon="7.3372">
        <ele>536.9</ele>
        <time>2023-07-23T10:31:03Z</time>
      </trkpt>
      <trkpt lat="48.40141" lon="7.3372">
        <ele>536.9</ele>
        <time>2023-07-23T10:31:05Z</time>
      </trkpt>
      <trkpt lat="48.40144" lon="7.33721">
        <ele>536.9</ele>
        <time>2023-07-23T10:31:06Z</time>
      </trkpt>
      <trkpt lat="48.40148" lon="7.33722">
        <ele>537.2</ele>
        <time>2023-07-23T10:31:07Z</time>
      </trkpt>
      <trkpt lat="48.40149" lon="7.33722">
        <ele>537.3</ele>
        <time>2023-07-23T10:31:08Z</time>
      </trkpt>
      <trkpt lat="48.40153" lon="7.33723">
        <ele>537.5</ele>
        <time>2023-07-23T10:31:09Z</time>
      </trkpt>
      <trkpt lat="48.40154" lon="7.33723">
        <ele>537.6</ele>
        <time>2023-07-23T10:31:10Z</time>
      </trkpt>
      <trkpt lat="48.40157" lon="7.33724">
        <ele>537.8</ele>
        <time>2023-07-23T10:31:11Z</time>
      </trkpt>
      <trkpt lat="48.40161" lon="7.33724">
        <ele>538.1</ele>
        <time>2023-07-23T10:31:12Z</time>
      </trkpt>
      <trkpt lat="48.40162" lon="7.33724">
        <ele>538.2</ele>
        <time>2023-07-23T10:31:13Z</time>
      </trkpt>
      <trkpt lat="48.40165" lon="7.33724">
        <ele>538.4</ele>
        <time>2023-07-23T10:31:14Z</time>
      </trkpt>
      <trkpt lat="48.40167" lon="7.33724">
        <ele>538.5</ele>
        <time>2023-07-23T10:31:15Z</time>
      </trkpt>
      <trkpt lat="48.4017" lon="7.33723">
        <ele>538.7</ele>
        <time>2023-07-23T10:31:16Z</time>
      </trkpt>
      <trkpt lat="48.40172" lon="7.33723">
        <ele>538.8</ele>
        <time>2023-07-23T10:31:17Z</time>
      </trkpt>
      <trkpt lat="48.40175" lon="7.33721">
        <ele>539.1</ele>
        <time>2023-07-23T10:31:18Z</time>
      </trkpt>
      <trkpt lat="48.40177" lon="7.3372">
        <ele>539.2</ele>
        <time>2023-07-23T10:31:19Z</time>
      </trkpt>
      <trkpt lat="48.4018" lon="7.33718">
        <ele>539.4</ele>
        <time>2023-07-23T10:31:20Z</time>
      </trkpt>
      <trkpt lat="48.40182" lon="7.33717">
        <ele>539.5</ele>
        <time>2023-07-23T10:31:21Z</time>
      </trkpt>
      <trkpt lat="48.40185" lon="7.33715">
        <ele>539.7</ele>
        <time>2023-07-23T10:31:22Z</time>
      </trkpt>
      <trkpt lat="48.40186" lon="7.33714">
        <ele>539.8</ele>
        <time>2023-07-23T10:31:23Z</time>
      </trkpt>
      <trkpt lat="48.40189" lon="7.33711">
        <ele>540.1</ele>
        <time>2023-07-23T10:31:24Z</time>
      </trkpt>
      <trkpt lat="48.4019" lon="7.3371">
        <ele>540.2</ele>
        <time>2023-07-23T10:31:25Z</time>
      </trkpt>
      <trkpt lat="48.40193" lon="7.33706">
        <ele>540.4</ele>
        <time>2023-07-23T10:31:26Z</time>
      </trkpt>
      <trkpt lat="48.40194" lon="7.33704">
        <ele>540.5</ele>
        <time>2023-07-23T10:31:27Z</time>
      </trkpt>
      <trkpt lat="48.40197" lon="7.33698">
        <ele>540.9</ele>
        <time>2023-07-23T10:31:28Z</time>
      </trkpt>
      <trkpt lat="48.40198" lon="7.33695">
        <ele>541</ele>
        <time>2023-07-23T10:31:29Z</time>
      </trkpt>
      <trkpt lat="48.402" lon="7.33691">
        <ele>541.2</ele>
        <time>2023-07-23T10:31:30Z</time>
      </trkpt>
      <trkpt lat="48.40202" lon="7.33686">
        <ele>541.5</ele>
        <time>2023-07-23T10:31:31Z</time>
      </trkpt>
      <trkpt lat="48.40202" lon="7.33684">
        <ele>541.6</ele>
        <time>2023-07-23T10:31:32Z</time>
      </trkpt>
      <trkpt lat="48.40204" lon="7.33679">
        <ele>541.8</ele>
        <time>2023-07-23T10:31:33Z</time>
      </trkpt>
      <trkpt lat="48.40204" lon="7.33677">
        <ele>541.9</ele>
        <time>2023-07-23T10:31:34Z</time>
      </trkpt>
      <trkpt lat="48.40205" lon="7.33673">
        <ele>542.1</ele>
        <time>2023-07-23T10:31:35Z</time>
      </trkpt>
      <trkpt lat="48.40206" lon="7.33669">
        <ele>542.2</ele>
        <time>2023-07-23T10:31:36Z</time>
      </trkpt>
      <trkpt lat="48.40207" lon="7.33665">
        <ele>542.4</ele>
        <time>2023-07-23T10:31:37Z</time>
      </trkpt>
      <trkpt lat="48.40207" lon="7.33661">
        <ele>542.6</ele>
        <time>2023-07-23T10:31:38Z</time>
      </trkpt>
      <trkpt lat="48.40208" lon="7.33656">
        <ele>542.7</ele>
        <time>2023-07-23T10:31:39Z</time>
      </trkpt>
      <trkpt lat="48.40208" lon="7.33652">
        <ele>542.9</ele>
        <time>2023-07-23T10:31:40Z</time>
      </trkpt>
      <trkpt lat="48.40208" lon="7.33647">
        <ele>543</ele>
        <time>2023-07-23T10:31:41Z</time>
      </trkpt>
      <trkpt lat="48.40208" lon="7.33643">
        <ele>543.2</ele>
        <time>2023-07-23T10:31:42Z</time>
      </trkpt>
      <trkpt lat="48.40208" lon="7.33638">
        <ele>543.4</ele>
        <time>2023-07-23T10:31:43Z</time>
      </trkpt>
      <trkpt lat="48.40208" lon="7.33634">
        <ele>543.5</ele>
        <time>2023-07-23T10:31:44Z</time>
      </trkpt>
      <trkpt lat="48.40207" lon="7.33629">
        <ele>543.6</ele>
        <time>2023-07-23T10:31:45Z</time>
      </trkpt>
      <trkpt lat="48.40207" lon="7.33624">
        <ele>543.8</ele>
        <time>2023-07-23T10:31:46Z</time>
      </trkpt>
      <trkpt lat="48.40207" lon="7.3362">
        <ele>543.9</ele>
        <time>2023-07-23T10:31:47Z</time>
      </trkpt>
      <trkpt lat="48.40206" lon="7.33615">
        <ele>544.1</ele>
        <time>2023-07-23T10:31:48Z</time>
      </trkpt>
      <trkpt lat="48.40205" lon="7.3361">
        <ele>544.3</ele>
        <time>2023-07-23T10:31:49Z</time>
      </trkpt>
      <trkpt lat="48.40205" lon="7.33606">
        <ele>544.4</ele>
        <time>2023-07-23T10:31:50Z</time>
      </trkpt>
      <trkpt lat="48.40204" lon="7.33601">
        <ele>544.5</ele>
        <time>2023-07-23T10:31:51Z</time>
      </trkpt>
      <trkpt lat="48.40203" lon="7.33597">
        <ele>544.7</ele>
        <time>2023-07-23T10:31:52Z</time>
      </trkpt>
      <trkpt lat="48.40202" lon="7.33592">
        <ele>544.8</ele>
        <time>2023-07-23T10:31:53Z</time>
      </trkpt>
      <trkpt lat="48.40202" lon="7.33587">
        <ele>544.9</ele>
        <time>2023-07-23T10:31:54Z</time>
      </trkpt>
      <trkpt lat="48.40201" lon="7.33583">
        <ele>545.1</ele>
        <time>2023-07-23T10:31:55Z</time>
      </trkpt>
      <trkpt lat="48.402" lon="7.33578">
        <ele>545.2</ele>
        <time>2023-07-23T10:31:56Z</time>
      </trkpt>
      <trkpt lat="48.40199" lon="7.33574">
        <ele>545.3</ele>
        <time>2023-07-23T10:31:57Z</time>
      </trkpt>
      <trkpt lat="48.40198" lon="7.33569">
        <ele>545.5</ele>
        <time>2023-07-23T10:31:58Z</time>
      </trkpt>
      <trkpt lat="48.40198" lon="7.33565">
        <ele>545.6</ele>
        <time>2023-07-23T10:31:59Z</time>
      </trkpt>
      <trkpt lat="48.40197" lon="7.3356">
        <ele>545.8</ele>
        <time>2023-07-23T10:32:00Z</time>
      </trkpt>
      <trkpt lat="48.40196" lon="7.33556">
        <ele>545.9</ele>
        <time>2023-07-23T10:32:01Z</time>
      </trkpt>
      <trkpt lat="48.40196" lon="7.33551">
        <ele>546</ele>
        <time>2023-07-23T10:32:02Z</time>
      </trkpt>
      <trkpt lat="48.40195" lon="7.33547">
        <ele>546.2</ele>
        <time>2023-07-23T10:32:03Z</time>
      </trkpt>
      <trkpt lat="48.40194" lon="7.33543">
        <ele>546.3</ele>
        <time>2023-07-23T10:32:04Z</time>
      </trkpt>
      <trkpt lat="48.40194" lon="7.33538">
        <ele>546.5</ele>
        <time>2023-07-23T10:32:05Z</time>
      </trkpt>
      <trkpt lat="48.40193" lon="7.33534">
        <ele>546.7</ele>
        <time>2023-07-23T10:32:06Z</time>
      </trkpt>
      <trkpt lat="48.40192" lon="7.33529">
        <ele>546.8</ele>
        <time>2023-07-23T10:32:07Z</time>
      </trkpt>
      <trkpt lat="48.40191" lon="7.33525">
        <ele>547</ele>
        <time>2023-07-23T10:32:08Z</time>
      </trkpt>
      <trkpt lat="48.40191" lon="7.33521">
        <ele>547.2</ele>
        <time>2023-07-23T10:32:09Z</time>
      </trkpt>
      <trkpt lat="48.4019" lon="7.33517">
        <ele>547.3</ele>
        <time>2023-07-23T10:32:10Z</time>
      </trkpt>
      <trkpt lat="48.4019" lon="7.33512">
        <ele>547.5</ele>
        <time>2023-07-23T10:32:11Z</time>
      </trkpt>
      <trkpt lat="48.40189" lon="7.33508">
        <ele>547.7</ele>
        <time>2023-07-23T10:32:12Z</time>
      </trkpt>
      <trkpt lat="48.40188" lon="7.33503">
        <ele>547.8</ele>
        <time>2023-07-23T10:32:13Z</time>
      </trkpt>
      <trkpt lat="48.40187" lon="7.33497">
        <ele>548</ele>
        <time>2023-07-23T10:32:14Z</time>
      </trkpt>
      <trkpt lat="48.40187" lon="7.33495">
        <ele>548.1</ele>
        <time>2023-07-23T10:32:15Z</time>
      </trkpt>
      <trkpt lat="48.40185" lon="7.33491">
        <ele>548.3</ele>
        <time>2023-07-23T10:32:16Z</time>
      </trkpt>
      <trkpt lat="48.40185" lon="7.33487">
        <ele>548.4</ele>
        <time>2023-07-23T10:32:17Z</time>
      </trkpt>
      <trkpt lat="48.40184" lon="7.33482">
        <ele>548.6</ele>
        <time>2023-07-23T10:32:18Z</time>
      </trkpt>
      <trkpt lat="48.40183" lon="7.33478">
        <ele>548.7</ele>
        <time>2023-07-23T10:32:19Z</time>
      </trkpt>
      <trkpt lat="48.40183" lon="7.33473">
        <ele>548.9</ele>
        <time>2023-07-23T10:32:20Z</time>
      </trkpt>
      <trkpt lat="48.40182" lon="7.33469">
        <ele>549</ele>
        <time>2023-07-23T10:32:21Z</time>
      </trkpt>
      <trkpt lat="48.40181" lon="7.33465">
        <ele>549.2</ele>
        <time>2023-07-23T10:32:22Z</time>
      </trkpt>
      <trkpt lat="48.4018" lon="7.3346">
        <ele>549.3</ele>
        <time>2023-07-23T10:32:23Z</time>
      </trkpt>
      <trkpt lat="48.40179" lon="7.33456">
        <ele>549.5</ele>
        <time>2023-07-23T10:32:24Z</time>
      </trkpt>
      <trkpt lat="48.40178" lon="7.33452">
        <ele>549.7</ele>
        <time>2023-07-23T10:32:25Z</time>
      </trkpt>
      <trkpt lat="48.40177" lon="7.33448">
        <ele>549.8</ele>
        <time>2023-07-23T10:32:26Z</time>
      </trkpt>
      <trkpt lat="48.40177" lon="7.33443">
        <ele>550</ele>
        <time>2023-07-23T10:32:27Z</time>
      </trkpt>
      <trkpt lat="48.40176" lon="7.33439">
        <ele>550.1</ele>
        <time>2023-07-23T10:32:28Z</time>
      </trkpt>
      <trkpt lat="48.40176" lon="7.33434">
        <ele>550.4</ele>
        <time>2023-07-23T10:32:29Z</time>
      </trkpt>
      <trkpt lat="48.40175" lon="7.3343">
        <ele>550.6</ele>
        <time>2023-07-23T10:32:30Z</time>
      </trkpt>
      <trkpt lat="48.40176" lon="7.33425">
        <ele>550.9</ele>
        <time>2023-07-23T10:32:31Z</time>
      </trkpt>
      <trkpt lat="48.40176" lon="7.33421">
        <ele>551</ele>
        <time>2023-07-23T10:32:32Z</time>
      </trkpt>
      <trkpt lat="48.40176" lon="7.33417">
        <ele>551.2</ele>
        <time>2023-07-23T10:32:33Z</time>
      </trkpt>
      <trkpt lat="48.40177" lon="7.33413">
        <ele>551.4</ele>
        <time>2023-07-23T10:32:34Z</time>
      </trkpt>
      <trkpt lat="48.40177" lon="7.33408">
        <ele>551.6</ele>
        <time>2023-07-23T10:32:35Z</time>
      </trkpt>
      <trkpt lat="48.40178" lon="7.33404">
        <ele>551.8</ele>
        <time>2023-07-23T10:32:36Z</time>
      </trkpt>
      <trkpt lat="48.40179" lon="7.334">
        <ele>552</ele>
        <time>2023-07-23T10:32:37Z</time>
      </trkpt>
      <trkpt lat="48.4018" lon="7.33396">
        <ele>552.2</ele>
        <time>2023-07-23T10:32:38Z</time>
      </trkpt>
      <trkpt lat="48.40181" lon="7.33392">
        <ele>552.4</ele>
        <time>2023-07-23T10:32:39Z</time>
      </trkpt>
      <trkpt lat="48.40183" lon="7.33388">
        <ele>552.6</ele>
        <time>2023-07-23T10:32:40Z</time>
      </trkpt>
      <trkpt lat="48.40184" lon="7.33385">
        <ele>552.8</ele>
        <time>2023-07-23T10:32:41Z</time>
      </trkpt>
      <trkpt lat="48.40186" lon="7.33382">
        <ele>553</ele>
        <time>2023-07-23T10:32:42Z</time>
      </trkpt>
      <trkpt lat="48.40188" lon="7.33378">
        <ele>553.2</ele>
        <time>2023-07-23T10:32:43Z</time>
      </trkpt>
      <trkpt lat="48.40191" lon="7.33374">
        <ele>553.5</ele>
        <time>2023-07-23T10:32:44Z</time>
      </trkpt>
      <trkpt lat="48.40192" lon="7.33372">
        <ele>553.6</ele>
        <time>2023-07-23T10:32:45Z</time>
      </trkpt>
      <trkpt lat="48.40194" lon="7.33369">
        <ele>553.8</ele>
        <time>2023-07-23T10:32:46Z</time>
      </trkpt>
      <trkpt lat="48.40196" lon="7.33367">
        <ele>554.1</ele>
        <time>2023-07-23T10:32:47Z</time>
      </trkpt>
      <trkpt lat="48.40199" lon="7.33362">
        <ele>554.3</ele>
        <time>2023-07-23T10:32:48Z</time>
      </trkpt>
      <trkpt lat="48.402" lon="7.33361">
        <ele>554.4</ele>
        <time>2023-07-23T10:32:49Z</time>
      </trkpt>
      <trkpt lat="48.40202" lon="7.33358">
        <ele>554.6</ele>
        <time>2023-07-23T10:32:50Z</time>
      </trkpt>
      <trkpt lat="48.40204" lon="7.33355">
        <ele>554.8</ele>
        <time>2023-07-23T10:32:51Z</time>
      </trkpt>
      <trkpt lat="48.40206" lon="7.33351">
        <ele>555</ele>
        <time>2023-07-23T10:32:52Z</time>
      </trkpt>
      <trkpt lat="48.40208" lon="7.33347">
        <ele>555.2</ele>
        <time>2023-07-23T10:32:53Z</time>
      </trkpt>
      <trkpt lat="48.40209" lon="7.33344">
        <ele>555.3</ele>
        <time>2023-07-23T10:32:54Z</time>
      </trkpt>
      <trkpt lat="48.4021" lon="7.3334">
        <ele>555.5</ele>
        <time>2023-07-23T10:32:55Z</time>
      </trkpt>
      <trkpt lat="48.40212" lon="7.33336">
        <ele>555.7</ele>
        <time>2023-07-23T10:32:56Z</time>
      </trkpt>
      <trkpt lat="48.40213" lon="7.33331">
        <ele>555.8</ele>
        <time>2023-07-23T10:32:57Z</time>
      </trkpt>
      <trkpt lat="48.40214" lon="7.33327">
        <ele>556</ele>
        <time>2023-07-23T10:32:58Z</time>
      </trkpt>
      <trkpt lat="48.40215" lon="7.33323">
        <ele>556.2</ele>
        <time>2023-07-23T10:32:59Z</time>
      </trkpt>
      <trkpt lat="48.40216" lon="7.33319">
        <ele>556.3</ele>
        <time>2023-07-23T10:33:00Z</time>
      </trkpt>
      <trkpt lat="48.40217" lon="7.33314">
        <ele>556.4</ele>
        <time>2023-07-23T10:33:01Z</time>
      </trkpt>
      <trkpt lat="48.40218" lon="7.3331">
        <ele>556.4</ele>
        <time>2023-07-23T10:33:02Z</time>
      </trkpt>
      <trkpt lat="48.40219" lon="7.33305">
        <ele>556.5</ele>
        <time>2023-07-23T10:33:03Z</time>
      </trkpt>
      <trkpt lat="48.4022" lon="7.33301">
        <ele>556.5</ele>
        <time>2023-07-23T10:33:04Z</time>
      </trkpt>
      <trkpt lat="48.40221" lon="7.33297">
        <ele>556.5</ele>
        <time>2023-07-23T10:33:05Z</time>
      </trkpt>
      <trkpt lat="48.40222" lon="7.33293">
        <ele>556.5</ele>
        <time>2023-07-23T10:33:06Z</time>
      </trkpt>
      <trkpt lat="48.40224" lon="7.33289">
        <ele>556.7</ele>
        <time>2023-07-23T10:33:07Z</time>
      </trkpt>
      <trkpt lat="48.40225" lon="7.33285">
        <ele>556.8</ele>
        <time>2023-07-23T10:33:08Z</time>
      </trkpt>
      <trkpt lat="48.40226" lon="7.33281">
        <ele>557</ele>
        <time>2023-07-23T10:33:09Z</time>
      </trkpt>
      <trkpt lat="48.40227" lon="7.33277">
        <ele>557.1</ele>
        <time>2023-07-23T10:33:11Z</time>
      </trkpt>
      <trkpt lat="48.40228" lon="7.33273">
        <ele>557.2</ele>
        <time>2023-07-23T10:33:12Z</time>
      </trkpt>
      <trkpt lat="48.40229" lon="7.33269">
        <ele>557.4</ele>
        <time>2023-07-23T10:33:13Z</time>
      </trkpt>
      <trkpt lat="48.4023" lon="7.33264">
        <ele>557.6</ele>
        <time>2023-07-23T10:33:14Z</time>
      </trkpt>
      <trkpt lat="48.40231" lon="7.3326">
        <ele>557.7</ele>
        <time>2023-07-23T10:33:15Z</time>
      </trkpt>
      <trkpt lat="48.40233" lon="7.33257">
        <ele>557.9</ele>
        <time>2023-07-23T10:33:16Z</time>
      </trkpt>
      <trkpt lat="48.40234" lon="7.33252">
        <ele>558</ele>
        <time>2023-07-23T10:33:17Z</time>
      </trkpt>
      <trkpt lat="48.40235" lon="7.33248">
        <ele>558.2</ele>
        <time>2023-07-23T10:33:18Z</time>
      </trkpt>
      <trkpt lat="48.40236" lon="7.33244">
        <ele>558.3</ele>
        <time>2023-07-23T10:33:19Z</time>
      </trkpt>
      <trkpt lat="48.40237" lon="7.3324">
        <ele>558.5</ele>
        <time>2023-07-23T10:33:20Z</time>
      </trkpt>
      <trkpt lat="48.40238" lon="7.33236">
        <ele>558.6</ele>
        <time>2023-07-23T10:33:21Z</time>
      </trkpt>
      <trkpt lat="48.4024" lon="7.33232">
        <ele>558.8</ele>
        <time>2023-07-23T10:33:22Z</time>
      </trkpt>
      <trkpt lat="48.40241" lon="7.33228">
        <ele>558.9</ele>
        <time>2023-07-23T10:33:23Z</time>
      </trkpt>
      <trkpt lat="48.40242" lon="7.33224">
        <ele>559.1</ele>
        <time>2023-07-23T10:33:24Z</time>
      </trkpt>
      <trkpt lat="48.40244" lon="7.3322">
        <ele>559.2</ele>
        <time>2023-07-23T10:33:25Z</time>
      </trkpt>
      <trkpt lat="48.40245" lon="7.33216">
        <ele>559.4</ele>
        <time>2023-07-23T10:33:26Z</time>
      </trkpt>
      <trkpt lat="48.40246" lon="7.33212">
        <ele>559.5</ele>
        <time>2023-07-23T10:33:27Z</time>
      </trkpt>
      <trkpt lat="48.40247" lon="7.33208">
        <ele>559.7</ele>
        <time>2023-07-23T10:33:28Z</time>
      </trkpt>
      <trkpt lat="48.40249" lon="7.33205">
        <ele>559.8</ele>
        <time>2023-07-23T10:33:29Z</time>
      </trkpt>
      <trkpt lat="48.4025" lon="7.33201">
        <ele>560</ele>
        <time>2023-07-23T10:33:30Z</time>
      </trkpt>
      <trkpt lat="48.40252" lon="7.33196">
        <ele>560.2</ele>
        <time>2023-07-23T10:33:31Z</time>
      </trkpt>
      <trkpt lat="48.40253" lon="7.33192">
        <ele>560.3</ele>
        <time>2023-07-23T10:33:32Z</time>
      </trkpt>
      <trkpt lat="48.40254" lon="7.33188">
        <ele>560.5</ele>
        <time>2023-07-23T10:33:33Z</time>
      </trkpt>
      <trkpt lat="48.40255" lon="7.33184">
        <ele>560.6</ele>
        <time>2023-07-23T10:33:34Z</time>
      </trkpt>
      <trkpt lat="48.40256" lon="7.3318">
        <ele>560.8</ele>
        <time>2023-07-23T10:33:35Z</time>
      </trkpt>
      <trkpt lat="48.40258" lon="7.33171">
        <ele>561.1</ele>
        <time>2023-07-23T10:33:36Z</time>
      </trkpt>
      <trkpt lat="48.40259" lon="7.33167">
        <ele>561.3</ele>
        <time>2023-07-23T10:33:37Z</time>
      </trkpt>
      <trkpt lat="48.4026" lon="7.33162">
        <ele>561.4</ele>
        <time>2023-07-23T10:33:38Z</time>
      </trkpt>
      <trkpt lat="48.4026" lon="7.33157">
        <ele>561.6</ele>
        <time>2023-07-23T10:33:39Z</time>
      </trkpt>
      <trkpt lat="48.40261" lon="7.33152">
        <ele>561.8</ele>
        <time>2023-07-23T10:33:40Z</time>
      </trkpt>
      <trkpt lat="48.40261" lon="7.33148">
        <ele>561.9</ele>
        <time>2023-07-23T10:33:41Z</time>
      </trkpt>
      <trkpt lat="48.40262" lon="7.33143">
        <ele>562.1</ele>
        <time>2023-07-23T10:33:42Z</time>
      </trkpt>
      <trkpt lat="48.40262" lon="7.33138">
        <ele>562.2</ele>
        <time>2023-07-23T10:33:43Z</time>
      </trkpt>
      <trkpt lat="48.40262" lon="7.33134">
        <ele>562.4</ele>
        <time>2023-07-23T10:33:44Z</time>
      </trkpt>
      <trkpt lat="48.40263" lon="7.33129">
        <ele>562.5</ele>
        <time>2023-07-23T10:33:45Z</time>
      </trkpt>
      <trkpt lat="48.40263" lon="7.33124">
        <ele>562.7</ele>
        <time>2023-07-23T10:33:46Z</time>
      </trkpt>
      <trkpt lat="48.40263" lon="7.3312">
        <ele>562.8</ele>
        <time>2023-07-23T10:33:47Z</time>
      </trkpt>
      <trkpt lat="48.40264" lon="7.33115">
        <ele>563</ele>
        <time>2023-07-23T10:33:48Z</time>
      </trkpt>
      <trkpt lat="48.40263" lon="7.3311">
        <ele>563.1</ele>
        <time>2023-07-23T10:33:49Z</time>
      </trkpt>
      <trkpt lat="48.40264" lon="7.33105">
        <ele>563.3</ele>
        <time>2023-07-23T10:33:50Z</time>
      </trkpt>
      <trkpt lat="48.40265" lon="7.33101">
        <ele>563.4</ele>
        <time>2023-07-23T10:33:51Z</time>
      </trkpt>
      <trkpt lat="48.40265" lon="7.33096">
        <ele>563.6</ele>
        <time>2023-07-23T10:33:52Z</time>
      </trkpt>
      <trkpt lat="48.40266" lon="7.33091">
        <ele>563.7</ele>
        <time>2023-07-23T10:33:53Z</time>
      </trkpt>
      <trkpt lat="48.40267" lon="7.33086">
        <ele>563.9</ele>
        <time>2023-07-23T10:33:54Z</time>
      </trkpt>
      <trkpt lat="48.40267" lon="7.33081">
        <ele>564</ele>
        <time>2023-07-23T10:33:55Z</time>
      </trkpt>
      <trkpt lat="48.40269" lon="7.33076">
        <ele>564.1</ele>
        <time>2023-07-23T10:33:56Z</time>
      </trkpt>
      <trkpt lat="48.4027" lon="7.33072">
        <ele>564.3</ele>
        <time>2023-07-23T10:33:57Z</time>
      </trkpt>
      <trkpt lat="48.40272" lon="7.33067">
        <ele>564.4</ele>
        <time>2023-07-23T10:33:58Z</time>
      </trkpt>
      <trkpt lat="48.40273" lon="7.33063">
        <ele>564.5</ele>
        <time>2023-07-23T10:33:59Z</time>
      </trkpt>
      <trkpt lat="48.40275" lon="7.33059">
        <ele>564.6</ele>
        <time>2023-07-23T10:34:00Z</time>
      </trkpt>
      <trkpt lat="48.40277" lon="7.33054">
        <ele>564.8</ele>
        <time>2023-07-23T10:34:01Z</time>
      </trkpt>
      <trkpt lat="48.40279" lon="7.3305">
        <ele>564.9</ele>
        <time>2023-07-23T10:34:02Z</time>
      </trkpt>
      <trkpt lat="48.40282" lon="7.33047">
        <ele>565</ele>
        <time>2023-07-23T10:34:03Z</time>
      </trkpt>
      <trkpt lat="48.40284" lon="7.33044">
        <ele>565.2</ele>
        <time>2023-07-23T10:34:04Z</time>
      </trkpt>
      <trkpt lat="48.40287" lon="7.33041">
        <ele>565.3</ele>
        <time>2023-07-23T10:34:05Z</time>
      </trkpt>
      <trkpt lat="48.4029" lon="7.33039">
        <ele>565.5</ele>
        <time>2023-07-23T10:34:06Z</time>
      </trkpt>
      <trkpt lat="48.40294" lon="7.33038">
        <ele>565.6</ele>
        <time>2023-07-23T10:34:07Z</time>
      </trkpt>
      <trkpt lat="48.40297" lon="7.33037">
        <ele>565.8</ele>
        <time>2023-07-23T10:34:08Z</time>
      </trkpt>
      <trkpt lat="48.403" lon="7.33035">
        <ele>565.9</ele>
        <time>2023-07-23T10:34:09Z</time>
      </trkpt>
      <trkpt lat="48.40303" lon="7.33033">
        <ele>566.1</ele>
        <time>2023-07-23T10:34:10Z</time>
      </trkpt>
      <trkpt lat="48.40306" lon="7.33031">
        <ele>566.2</ele>
        <time>2023-07-23T10:34:11Z</time>
      </trkpt>
      <trkpt lat="48.40309" lon="7.3303">
        <ele>566.4</ele>
        <time>2023-07-23T10:34:12Z</time>
      </trkpt>
      <trkpt lat="48.40312" lon="7.33028">
        <ele>566.5</ele>
        <time>2023-07-23T10:34:13Z</time>
      </trkpt>
      <trkpt lat="48.40315" lon="7.33026">
        <ele>566.7</ele>
        <time>2023-07-23T10:34:14Z</time>
      </trkpt>
      <trkpt lat="48.40317" lon="7.33023">
        <ele>566.7</ele>
        <time>2023-07-23T10:34:15Z</time>
      </trkpt>
      <trkpt lat="48.4032" lon="7.33021">
        <ele>566.7</ele>
        <time>2023-07-23T10:34:16Z</time>
      </trkpt>
      <trkpt lat="48.40324" lon="7.33018">
        <ele>566.7</ele>
        <time>2023-07-23T10:34:17Z</time>
      </trkpt>
      <trkpt lat="48.40325" lon="7.33017">
        <ele>566.7</ele>
        <time>2023-07-23T10:34:18Z</time>
      </trkpt>
      <trkpt lat="48.40327" lon="7.33015">
        <ele>566.7</ele>
        <time>2023-07-23T10:34:19Z</time>
      </trkpt>
      <trkpt lat="48.40328" lon="7.33014">
        <ele>566.7</ele>
        <time>2023-07-23T10:34:20Z</time>
      </trkpt>
      <trkpt lat="48.40329" lon="7.33013">
        <ele>566.7</ele>
        <time>2023-07-23T10:34:21Z</time>
      </trkpt>
      <trkpt lat="48.4033" lon="7.33013">
        <ele>566.7</ele>
        <time>2023-07-23T10:34:22Z</time>
      </trkpt>
      <trkpt lat="48.4033" lon="7.33014">
        <ele>566.8</ele>
        <time>2023-07-23T10:34:23Z</time>
      </trkpt>
      <trkpt lat="48.40331" lon="7.33014">
        <ele>566.9</ele>
        <time>2023-07-23T10:34:24Z</time>
      </trkpt>
      <trkpt lat="48.40332" lon="7.33015">
        <ele>566.9</ele>
        <time>2023-07-23T10:34:25Z</time>
      </trkpt>
      <trkpt lat="48.40332" lon="7.33015">
        <ele>567</ele>
        <time>2023-07-23T10:34:26Z</time>
      </trkpt>
      <trkpt lat="48.40333" lon="7.33016">
        <ele>567.1</ele>
        <time>2023-07-23T10:34:27Z</time>
      </trkpt>
      <trkpt lat="48.40333" lon="7.33016">
        <ele>567.2</ele>
        <time>2023-07-23T10:34:28Z</time>
      </trkpt>
      <trkpt lat="48.40334" lon="7.33017">
        <ele>567.2</ele>
        <time>2023-07-23T10:34:29Z</time>
      </trkpt>
      <trkpt lat="48.40334" lon="7.33017">
        <ele>567.3</ele>
        <time>2023-07-23T10:34:30Z</time>
      </trkpt>
      <trkpt lat="48.40335" lon="7.33018">
        <ele>567.4</ele>
        <time>2023-07-23T10:34:31Z</time>
      </trkpt>
      <trkpt lat="48.40336" lon="7.33018">
        <ele>567.4</ele>
        <time>2023-07-23T10:34:32Z</time>
      </trkpt>
      <trkpt lat="48.40336" lon="7.33019">
        <ele>567.5</ele>
        <time>2023-07-23T10:42:54Z</time>
      </trkpt>
      <trkpt lat="48.40337" lon="7.33019">
        <ele>567.6</ele>
        <time>2023-07-23T10:42:55Z</time>
      </trkpt>
      <trkpt lat="48.4034" lon="7.33019">
        <ele>567.9</ele>
        <time>2023-07-23T10:42:56Z</time>
      </trkpt>
      <trkpt lat="48.40341" lon="7.33019">
        <ele>568</ele>
        <time>2023-07-23T10:42:57Z</time>
      </trkpt>
      <trkpt lat="48.40343" lon="7.3302">
        <ele>568.3</ele>
        <time>2023-07-23T10:42:58Z</time>
      </trkpt>
      <trkpt lat="48.40344" lon="7.3302">
        <ele>568.4</ele>
        <time>2023-07-23T10:42:59Z</time>
      </trkpt>
      <trkpt lat="48.40347" lon="7.33019">
        <ele>568.7</ele>
        <time>2023-07-23T10:43:00Z</time>
      </trkpt>
      <trkpt lat="48.40348" lon="7.33018">
        <ele>568.8</ele>
        <time>2023-07-23T10:43:01Z</time>
      </trkpt>
      <trkpt lat="48.4035" lon="7.33017">
        <ele>569.1</ele>
        <time>2023-07-23T10:43:02Z</time>
      </trkpt>
      <trkpt lat="48.40351" lon="7.33017">
        <ele>569.2</ele>
        <time>2023-07-23T10:43:03Z</time>
      </trkpt>
      <trkpt lat="48.40352" lon="7.33017">
        <ele>569.3</ele>
        <time>2023-07-23T10:43:04Z</time>
      </trkpt>
      <trkpt lat="48.40352" lon="7.33017">
        <ele>569.3</ele>
        <time>2023-07-23T10:43:05Z</time>
      </trkpt>
      <trkpt lat="48.40353" lon="7.33017">
        <ele>569.4</ele>
        <time>2023-07-23T10:43:06Z</time>
      </trkpt>
      <trkpt lat="48.40355" lon="7.33016">
        <ele>569.6</ele>
        <time>2023-07-23T10:43:07Z</time>
      </trkpt>
      <trkpt lat="48.40355" lon="7.33016">
        <ele>569.7</ele>
        <time>2023-07-23T10:43:08Z</time>
      </trkpt>
      <trkpt lat="48.40357" lon="7.33016">
        <ele>569.9</ele>
        <time>2023-07-23T10:43:09Z</time>
      </trkpt>
      <trkpt lat="48.40358" lon="7.33016">
        <ele>570</ele>
        <time>2023-07-23T10:43:10Z</time>
      </trkpt>
      <trkpt lat="48.40359" lon="7.33016">
        <ele>570.1</ele>
        <time>2023-07-23T10:43:11Z</time>
      </trkpt>
      <trkpt lat="48.40359" lon="7.33015">
        <ele>571.2</ele>
        <time>2023-07-23T10:43:12Z</time>
      </trkpt>
      <trkpt lat="48.4036" lon="7.33015">
        <ele>571.3</ele>
        <time>2023-07-23T10:43:13Z</time>
      </trkpt>
      <trkpt lat="48.4036" lon="7.33015">
        <ele>571.3</ele>
        <time>2023-07-23T10:43:14Z</time>
      </trkpt>
      <trkpt lat="48.40361" lon="7.33014">
        <ele>571.4</ele>
        <time>2023-07-23T10:43:15Z</time>
      </trkpt>
      <trkpt lat="48.40361" lon="7.33014">
        <ele>571.4</ele>
        <time>2023-07-23T10:43:16Z</time>
      </trkpt>
      <trkpt lat="48.40363" lon="7.33013">
        <ele>571.6</ele>
        <time>2023-07-23T10:43:17Z</time>
      </trkpt>
      <trkpt lat="48.40364" lon="7.33013">
        <ele>571.7</ele>
        <time>2023-07-23T10:43:18Z</time>
      </trkpt>
      <trkpt lat="48.40365" lon="7.33013">
        <ele>571.7</ele>
        <time>2023-07-23T10:43:19Z</time>
      </trkpt>
      <trkpt lat="48.40368" lon="7.33014">
        <ele>572</ele>
        <time>2023-07-23T10:43:20Z</time>
      </trkpt>
      <trkpt lat="48.40369" lon="7.33016">
        <ele>572.1</ele>
        <time>2023-07-23T10:43:21Z</time>
      </trkpt>
      <trkpt lat="48.4037" lon="7.3302">
        <ele>572.4</ele>
        <time>2023-07-23T10:43:22Z</time>
      </trkpt>
      <trkpt lat="48.40371" lon="7.33022">
        <ele>572.5</ele>
        <time>2023-07-23T10:43:23Z</time>
      </trkpt>
      <trkpt lat="48.40372" lon="7.33026">
        <ele>572.8</ele>
        <time>2023-07-23T10:43:24Z</time>
      </trkpt>
      <trkpt lat="48.40372" lon="7.33028">
        <ele>572.9</ele>
        <time>2023-07-23T10:43:25Z</time>
      </trkpt>
      <trkpt lat="48.40373" lon="7.33032">
        <ele>573.2</ele>
        <time>2023-07-23T10:43:26Z</time>
      </trkpt>
      <trkpt lat="48.40374" lon="7.33034">
        <ele>573.3</ele>
        <time>2023-07-23T10:43:27Z</time>
      </trkpt>
      <trkpt lat="48.40375" lon="7.33038">
        <ele>573.5</ele>
        <time>2023-07-23T10:43:28Z</time>
      </trkpt>
      <trkpt lat="48.40376" lon="7.33039">
        <ele>573.6</ele>
        <time>2023-07-23T10:43:29Z</time>
      </trkpt>
      <trkpt lat="48.40377" lon="7.33041">
        <ele>573.7</ele>
        <time>2023-07-23T10:43:30Z</time>
      </trkpt>
      <trkpt lat="48.40377" lon="7.33044">
        <ele>573.9</ele>
        <time>2023-07-23T10:43:31Z</time>
      </trkpt>
      <trkpt lat="48.40379" lon="7.33048">
        <ele>574.3</ele>
        <time>2023-07-23T10:43:32Z</time>
      </trkpt>
      <trkpt lat="48.40379" lon="7.33049">
        <ele>574.4</ele>
        <time>2023-07-23T10:43:33Z</time>
      </trkpt>
      <trkpt lat="48.40379" lon="7.33054">
        <ele>574.7</ele>
        <time>2023-07-23T10:43:34Z</time>
      </trkpt>
      <trkpt lat="48.4038" lon="7.33055">
        <ele>574.8</ele>
        <time>2023-07-23T10:43:35Z</time>
      </trkpt>
      <trkpt lat="48.4038" lon="7.33059">
        <ele>575.1</ele>
        <time>2023-07-23T10:43:36Z</time>
      </trkpt>
      <trkpt lat="48.4038" lon="7.33061">
        <ele>575.2</ele>
        <time>2023-07-23T10:43:37Z</time>
      </trkpt>
      <trkpt lat="48.4038" lon="7.33063">
        <ele>575.4</ele>
        <time>2023-07-23T10:43:38Z</time>
      </trkpt>
      <trkpt lat="48.40381" lon="7.33066">
        <ele>575.6</ele>
        <time>2023-07-23T10:43:39Z</time>
      </trkpt>
      <trkpt lat="48.40382" lon="7.33071">
        <ele>575.9</ele>
        <time>2023-07-23T10:43:41Z</time>
      </trkpt>
      <trkpt lat="48.40382" lon="7.33072">
        <ele>576</ele>
        <time>2023-07-23T10:43:42Z</time>
      </trkpt>
      <trkpt lat="48.40383" lon="7.33076">
        <ele>576.3</ele>
        <time>2023-07-23T10:43:43Z</time>
      </trkpt>
      <trkpt lat="48.40383" lon="7.33078">
        <ele>576.4</ele>
        <time>2023-07-23T10:43:44Z</time>
      </trkpt>
      <trkpt lat="48.40386" lon="7.33081">
        <ele>576.8</ele>
        <time>2023-07-23T10:43:45Z</time>
      </trkpt>
      <trkpt lat="48.40387" lon="7.33082">
        <ele>576.9</ele>
        <time>2023-07-23T10:43:46Z</time>
      </trkpt>
      <trkpt lat="48.4039" lon="7.33085">
        <ele>577.3</ele>
        <time>2023-07-23T10:43:47Z</time>
      </trkpt>
      <trkpt lat="48.4039" lon="7.33087">
        <ele>577.4</ele>
        <time>2023-07-23T10:43:48Z</time>
      </trkpt>
      <trkpt lat="48.40391" lon="7.33092">
        <ele>577.8</ele>
        <time>2023-07-23T10:43:49Z</time>
      </trkpt>
      <trkpt lat="48.40392" lon="7.33094">
        <ele>577.9</ele>
        <time>2023-07-23T10:43:50Z</time>
      </trkpt>
      <trkpt lat="48.40393" lon="7.33099">
        <ele>578.2</ele>
        <time>2023-07-23T10:43:51Z</time>
      </trkpt>
      <trkpt lat="48.40393" lon="7.331">
        <ele>578.3</ele>
        <time>2023-07-23T10:43:52Z</time>
      </trkpt>
      <trkpt lat="48.40396" lon="7.33102">
        <ele>578.7</ele>
        <time>2023-07-23T10:43:53Z</time>
      </trkpt>
      <trkpt lat="48.40398" lon="7.33102">
        <ele>578.8</ele>
        <time>2023-07-23T10:43:54Z</time>
      </trkpt>
      <trkpt lat="48.40401" lon="7.33101">
        <ele>579</ele>
        <time>2023-07-23T10:43:55Z</time>
      </trkpt>
      <trkpt lat="48.40404" lon="7.33099">
        <ele>579.3</ele>
        <time>2023-07-23T10:43:56Z</time>
      </trkpt>
      <trkpt lat="48.40405" lon="7.33098">
        <ele>579.5</ele>
        <time>2023-07-23T10:43:57Z</time>
      </trkpt>
      <trkpt lat="48.40409" lon="7.33099">
        <ele>579.8</ele>
        <time>2023-07-23T10:43:58Z</time>
      </trkpt>
      <trkpt lat="48.40409" lon="7.33101">
        <ele>579.9</ele>
        <time>2023-07-23T10:43:59Z</time>
      </trkpt>
      <trkpt lat="48.40412" lon="7.33105">
        <ele>580.2</ele>
        <time>2023-07-23T10:44:00Z</time>
      </trkpt>
      <trkpt lat="48.40413" lon="7.33107">
        <ele>580.3</ele>
        <time>2023-07-23T10:44:01Z</time>
      </trkpt>
      <trkpt lat="48.40416" lon="7.33111">
        <ele>581</ele>
        <time>2023-07-23T10:44:02Z</time>
      </trkpt>
      <trkpt lat="48.4042" lon="7.33112">
        <ele>581.7</ele>
        <time>2023-07-23T10:44:03Z</time>
      </trkpt>
      <trkpt lat="48.40421" lon="7.33113">
        <ele>581.9</ele>
        <time>2023-07-23T10:44:04Z</time>
      </trkpt>
      <trkpt lat="48.40424" lon="7.33114">
        <ele>582.4</ele>
        <time>2023-07-23T10:44:05Z</time>
      </trkpt>
      <trkpt lat="48.40425" lon="7.33115">
        <ele>582.6</ele>
        <time>2023-07-23T10:44:06Z</time>
      </trkpt>
      <trkpt lat="48.40428" lon="7.33117">
        <ele>583.3</ele>
        <time>2023-07-23T10:44:07Z</time>
      </trkpt>
      <trkpt lat="48.4043" lon="7.33118">
        <ele>583.5</ele>
        <time>2023-07-23T10:44:08Z</time>
      </trkpt>
      <trkpt lat="48.40433" lon="7.33119">
        <ele>584.1</ele>
        <time>2023-07-23T10:44:09Z</time>
      </trkpt>
      <trkpt lat="48.40434" lon="7.3312">
        <ele>584.4</ele>
        <time>2023-07-23T10:44:10Z</time>
      </trkpt>
      <trkpt lat="48.40437" lon="7.33123">
        <ele>584.5</ele>
        <time>2023-07-23T10:44:11Z</time>
      </trkpt>
      <trkpt lat="48.40438" lon="7.33124">
        <ele>584.6</ele>
        <time>2023-07-23T10:44:12Z</time>
      </trkpt>
      <trkpt lat="48.40442" lon="7.33127">
        <ele>584.8</ele>
        <time>2023-07-23T10:44:13Z</time>
      </trkpt>
      <trkpt lat="48.40443" lon="7.33128">
        <ele>584.9</ele>
        <time>2023-07-23T10:44:14Z</time>
      </trkpt>
      <trkpt lat="48.40446" lon="7.33131">
        <ele>585.1</ele>
        <time>2023-07-23T10:44:15Z</time>
      </trkpt>
      <trkpt lat="48.40446" lon="7.33133">
        <ele>585.2</ele>
        <time>2023-07-23T10:44:16Z</time>
      </trkpt>
      <trkpt lat="48.40448" lon="7.33137">
        <ele>585.4</ele>
        <time>2023-07-23T10:44:17Z</time>
      </trkpt>
      <trkpt lat="48.40449" lon="7.33139">
        <ele>585.5</ele>
        <time>2023-07-23T10:44:18Z</time>
      </trkpt>
      <trkpt lat="48.4045" lon="7.33144">
        <ele>585.7</ele>
        <time>2023-07-23T10:44:19Z</time>
      </trkpt>
      <trkpt lat="48.40451" lon="7.33145">
        <ele>585.8</ele>
        <time>2023-07-23T10:44:20Z</time>
      </trkpt>
      <trkpt lat="48.40451" lon="7.3315">
        <ele>585.9</ele>
        <time>2023-07-23T10:44:21Z</time>
      </trkpt>
      <trkpt lat="48.40451" lon="7.33152">
        <ele>585.9</ele>
        <time>2023-07-23T10:44:22Z</time>
      </trkpt>
      <trkpt lat="48.40449" lon="7.33157">
        <ele>586</ele>
        <time>2023-07-23T10:44:23Z</time>
      </trkpt>
      <trkpt lat="48.40449" lon="7.33159">
        <ele>586</ele>
        <time>2023-07-23T10:44:24Z</time>
      </trkpt>
      <trkpt lat="48.40447" lon="7.33162">
        <ele>586.2</ele>
        <time>2023-07-23T10:44:25Z</time>
      </trkpt>
      <trkpt lat="48.40444" lon="7.33164">
        <ele>586.4</ele>
        <time>2023-07-23T10:44:26Z</time>
      </trkpt>
      <trkpt lat="48.4044" lon="7.33166">
        <ele>586.6</ele>
        <time>2023-07-23T10:44:27Z</time>
      </trkpt>
      <trkpt lat="48.40439" lon="7.33166">
        <ele>586.7</ele>
        <time>2023-07-23T10:44:28Z</time>
      </trkpt>
      <trkpt lat="48.40435" lon="7.33166">
        <ele>586.9</ele>
        <time>2023-07-23T10:44:29Z</time>
      </trkpt>
      <trkpt lat="48.40434" lon="7.33165">
        <ele>587</ele>
        <time>2023-07-23T10:44:30Z</time>
      </trkpt>
      <trkpt lat="48.4043" lon="7.33165">
        <ele>587.2</ele>
        <time>2023-07-23T10:44:31Z</time>
      </trkpt>
      <trkpt lat="48.40429" lon="7.33165">
        <ele>587.3</ele>
        <time>2023-07-23T10:44:32Z</time>
      </trkpt>
      <trkpt lat="48.40425" lon="7.33163">
        <ele>587.5</ele>
        <time>2023-07-23T10:44:33Z</time>
      </trkpt>
      <trkpt lat="48.40424" lon="7.33163">
        <ele>587.6</ele>
        <time>2023-07-23T10:44:34Z</time>
      </trkpt>
      <trkpt lat="48.40421" lon="7.33161">
        <ele>587.8</ele>
        <time>2023-07-23T10:44:35Z</time>
      </trkpt>
      <trkpt lat="48.40418" lon="7.33161">
        <ele>588</ele>
        <time>2023-07-23T10:44:36Z</time>
      </trkpt>
      <trkpt lat="48.40416" lon="7.3316">
        <ele>588.1</ele>
        <time>2023-07-23T10:44:37Z</time>
      </trkpt>
      <trkpt lat="48.40413" lon="7.33159">
        <ele>588.3</ele>
        <time>2023-07-23T10:44:38Z</time>
      </trkpt>
      <trkpt lat="48.40412" lon="7.33159">
        <ele>588.3</ele>
        <time>2023-07-23T10:44:39Z</time>
      </trkpt>
      <trkpt lat="48.40408" lon="7.33157">
        <ele>588.5</ele>
        <time>2023-07-23T10:44:40Z</time>
      </trkpt>
      <trkpt lat="48.40407" lon="7.33157">
        <ele>588.6</ele>
        <time>2023-07-23T10:44:41Z</time>
      </trkpt>
      <trkpt lat="48.40403" lon="7.33156">
        <ele>588.8</ele>
        <time>2023-07-23T10:44:42Z</time>
      </trkpt>
      <trkpt lat="48.40402" lon="7.33156">
        <ele>588.8</ele>
        <time>2023-07-23T10:44:43Z</time>
      </trkpt>
      <trkpt lat="48.40399" lon="7.33155">
        <ele>589</ele>
        <time>2023-07-23T10:44:44Z</time>
      </trkpt>
      <trkpt lat="48.40398" lon="7.33154">
        <ele>589</ele>
        <time>2023-07-23T10:44:45Z</time>
      </trkpt>
      <trkpt lat="48.40394" lon="7.33153">
        <ele>589.2</ele>
        <time>2023-07-23T10:44:46Z</time>
      </trkpt>
      <trkpt lat="48.40393" lon="7.33153">
        <ele>589.3</ele>
        <time>2023-07-23T10:44:47Z</time>
      </trkpt>
      <trkpt lat="48.40389" lon="7.33152">
        <ele>589.5</ele>
        <time>2023-07-23T10:44:48Z</time>
      </trkpt>
      <trkpt lat="48.40388" lon="7.33152">
        <ele>589.5</ele>
        <time>2023-07-23T10:44:49Z</time>
      </trkpt>
      <trkpt lat="48.40384" lon="7.33151">
        <ele>589.7</ele>
        <time>2023-07-23T10:44:50Z</time>
      </trkpt>
      <trkpt lat="48.40383" lon="7.33151">
        <ele>589.7</ele>
        <time>2023-07-23T10:44:51Z</time>
      </trkpt>
      <trkpt lat="48.4038" lon="7.33151">
        <ele>589.8</ele>
        <time>2023-07-23T10:44:52Z</time>
      </trkpt>
      <trkpt lat="48.40377" lon="7.3315">
        <ele>590</ele>
        <time>2023-07-23T10:44:53Z</time>
      </trkpt>
      <trkpt lat="48.40375" lon="7.3315">
        <ele>590</ele>
        <time>2023-07-23T10:44:54Z</time>
      </trkpt>
      <trkpt lat="48.40373" lon="7.33148">
        <ele>590.1</ele>
        <time>2023-07-23T10:44:55Z</time>
      </trkpt>
      <trkpt lat="48.4037" lon="7.33147">
        <ele>590.1</ele>
        <time>2023-07-23T10:44:56Z</time>
      </trkpt>
      <trkpt lat="48.40367" lon="7.33145">
        <ele>590.2</ele>
        <time>2023-07-23T10:44:57Z</time>
      </trkpt>
      <trkpt lat="48.40364" lon="7.33144">
        <ele>590.3</ele>
        <time>2023-07-23T10:44:58Z</time>
      </trkpt>
      <trkpt lat="48.4036" lon="7.33142">
        <ele>590.3</ele>
        <time>2023-07-23T10:44:59Z</time>
      </trkpt>
      <trkpt lat="48.40357" lon="7.33141">
        <ele>590.4</ele>
        <time>2023-07-23T10:45:00Z</time>
      </trkpt>
      <trkpt lat="48.40354" lon="7.33139">
        <ele>590.4</ele>
        <time>2023-07-23T10:45:01Z</time>
      </trkpt>
      <trkpt lat="48.4035" lon="7.33137">
        <ele>590.5</ele>
        <time>2023-07-23T10:45:02Z</time>
      </trkpt>
      <trkpt lat="48.40347" lon="7.33136">
        <ele>590.6</ele>
        <time>2023-07-23T10:45:03Z</time>
      </trkpt>
      <trkpt lat="48.40344" lon="7.33135">
        <ele>590.6</ele>
        <time>2023-07-23T10:45:04Z</time>
      </trkpt>
      <trkpt lat="48.4034" lon="7.33134">
        <ele>590.7</ele>
        <time>2023-07-23T10:45:05Z</time>
      </trkpt>
      <trkpt lat="48.40337" lon="7.33133">
        <ele>590.7</ele>
        <time>2023-07-23T10:45:06Z</time>
      </trkpt>
      <trkpt lat="48.40333" lon="7.33134">
        <ele>590.8</ele>
        <time>2023-07-23T10:45:07Z</time>
      </trkpt>
      <trkpt lat="48.40329" lon="7.33134">
        <ele>590.9</ele>
        <time>2023-07-23T10:45:08Z</time>
      </trkpt>
      <trkpt lat="48.40326" lon="7.33136">
        <ele>591</ele>
        <time>2023-07-23T10:45:09Z</time>
      </trkpt>
      <trkpt lat="48.40323" lon="7.33138">
        <ele>591.1</ele>
        <time>2023-07-23T10:45:10Z</time>
      </trkpt>
      <trkpt lat="48.4032" lon="7.33142">
        <ele>591.2</ele>
        <time>2023-07-23T10:45:11Z</time>
      </trkpt>
      <trkpt lat="48.40318" lon="7.33146">
        <ele>591.3</ele>
        <time>2023-07-23T10:45:12Z</time>
      </trkpt>
      <trkpt lat="48.40316" lon="7.3315">
        <ele>591.4</ele>
        <time>2023-07-23T10:45:13Z</time>
      </trkpt>
      <trkpt lat="48.40315" lon="7.33155">
        <ele>591.5</ele>
        <time>2023-07-23T10:45:14Z</time>
      </trkpt>
      <trkpt lat="48.40314" lon="7.3316">
        <ele>591.5</ele>
        <time>2023-07-23T10:45:15Z</time>
      </trkpt>
      <trkpt lat="48.40313" lon="7.33165">
        <ele>591.6</ele>
        <time>2023-07-23T10:45:16Z</time>
      </trkpt>
      <trkpt lat="48.40312" lon="7.33169">
        <ele>591.6</ele>
        <time>2023-07-23T10:45:17Z</time>
      </trkpt>
      <trkpt lat="48.40311" lon="7.33174">
        <ele>591.6</ele>
        <time>2023-07-23T10:45:18Z</time>
      </trkpt>
      <trkpt lat="48.4031" lon="7.33179">
        <ele>591.7</ele>
        <time>2023-07-23T10:45:19Z</time>
      </trkpt>
      <trkpt lat="48.40309" lon="7.33184">
        <ele>591.7</ele>
        <time>2023-07-23T10:45:20Z</time>
      </trkpt>
      <trkpt lat="48.40308" lon="7.33188">
        <ele>591.8</ele>
        <time>2023-07-23T10:45:21Z</time>
      </trkpt>
      <trkpt lat="48.40307" lon="7.33193">
        <ele>591.8</ele>
        <time>2023-07-23T10:45:22Z</time>
      </trkpt>
      <trkpt lat="48.40306" lon="7.33197">
        <ele>591.9</ele>
        <time>2023-07-23T10:45:23Z</time>
      </trkpt>
      <trkpt lat="48.40305" lon="7.33201">
        <ele>591.9</ele>
        <time>2023-07-23T10:45:24Z</time>
      </trkpt>
      <trkpt lat="48.40304" lon="7.33205">
        <ele>592</ele>
        <time>2023-07-23T10:45:25Z</time>
      </trkpt>
      <trkpt lat="48.40303" lon="7.33209">
        <ele>592.1</ele>
        <time>2023-07-23T10:45:26Z</time>
      </trkpt>
      <trkpt lat="48.40302" lon="7.33214">
        <ele>592.2</ele>
        <time>2023-07-23T10:45:27Z</time>
      </trkpt>
      <trkpt lat="48.40301" lon="7.33218">
        <ele>592.3</ele>
        <time>2023-07-23T10:45:28Z</time>
      </trkpt>
      <trkpt lat="48.403" lon="7.33222">
        <ele>592.4</ele>
        <time>2023-07-23T10:45:29Z</time>
      </trkpt>
      <trkpt lat="48.403" lon="7.33226">
        <ele>592.5</ele>
        <time>2023-07-23T10:45:30Z</time>
      </trkpt>
      <trkpt lat="48.40298" lon="7.3323">
        <ele>592.6</ele>
        <time>2023-07-23T10:45:31Z</time>
      </trkpt>
      <trkpt lat="48.40298" lon="7.33234">
        <ele>592.7</ele>
        <time>2023-07-23T10:45:32Z</time>
      </trkpt>
      <trkpt lat="48.40297" lon="7.3324">
        <ele>592.9</ele>
        <time>2023-07-23T10:45:33Z</time>
      </trkpt>
      <trkpt lat="48.40297" lon="7.33242">
        <ele>593</ele>
        <time>2023-07-23T10:45:34Z</time>
      </trkpt>
      <trkpt lat="48.40296" lon="7.33246">
        <ele>593.1</ele>
        <time>2023-07-23T10:45:35Z</time>
      </trkpt>
      <trkpt lat="48.40296" lon="7.33251">
        <ele>593.3</ele>
        <time>2023-07-23T10:45:36Z</time>
      </trkpt>
      <trkpt lat="48.40296" lon="7.33255">
        <ele>593.4</ele>
        <time>2023-07-23T10:45:37Z</time>
      </trkpt>
      <trkpt lat="48.40295" lon="7.3326">
        <ele>593.6</ele>
        <time>2023-07-23T10:45:38Z</time>
      </trkpt>
      <trkpt lat="48.40294" lon="7.33264">
        <ele>593.7</ele>
        <time>2023-07-23T10:45:39Z</time>
      </trkpt>
      <trkpt lat="48.40294" lon="7.33269">
        <ele>593.9</ele>
        <time>2023-07-23T10:45:40Z</time>
      </trkpt>
      <trkpt lat="48.40294" lon="7.33273">
        <ele>594</ele>
        <time>2023-07-23T10:45:41Z</time>
      </trkpt>
      <trkpt lat="48.40294" lon="7.33277">
        <ele>594.2</ele>
        <time>2023-07-23T10:45:42Z</time>
      </trkpt>
      <trkpt lat="48.40294" lon="7.33282">
        <ele>594.3</ele>
        <time>2023-07-23T10:45:43Z</time>
      </trkpt>
      <trkpt lat="48.40294" lon="7.33286">
        <ele>594.5</ele>
        <time>2023-07-23T10:45:44Z</time>
      </trkpt>
      <trkpt lat="48.40294" lon="7.33291">
        <ele>594.7</ele>
        <time>2023-07-23T10:45:45Z</time>
      </trkpt>
      <trkpt lat="48.40294" lon="7.33298">
        <ele>595</ele>
        <time>2023-07-23T10:45:47Z</time>
      </trkpt>
      <trkpt lat="48.40294" lon="7.333">
        <ele>595.1</ele>
        <time>2023-07-23T10:45:48Z</time>
      </trkpt>
      <trkpt lat="48.40294" lon="7.33303">
        <ele>595.2</ele>
        <time>2023-07-23T10:45:49Z</time>
      </trkpt>
      <trkpt lat="48.40294" lon="7.33307">
        <ele>595.3</ele>
        <time>2023-07-23T10:45:50Z</time>
      </trkpt>
      <trkpt lat="48.40294" lon="7.33311">
        <ele>595.5</ele>
        <time>2023-07-23T10:45:51Z</time>
      </trkpt>
      <trkpt lat="48.40294" lon="7.33317">
        <ele>595.8</ele>
        <time>2023-07-23T10:45:52Z</time>
      </trkpt>
      <trkpt lat="48.40295" lon="7.33319">
        <ele>595.8</ele>
        <time>2023-07-23T10:45:53Z</time>
      </trkpt>
      <trkpt lat="48.40295" lon="7.33325">
        <ele>596.1</ele>
        <time>2023-07-23T10:45:54Z</time>
      </trkpt>
      <trkpt lat="48.40296" lon="7.33327">
        <ele>596.2</ele>
        <time>2023-07-23T10:45:55Z</time>
      </trkpt>
      <trkpt lat="48.40296" lon="7.33333">
        <ele>596.4</ele>
        <time>2023-07-23T10:45:56Z</time>
      </trkpt>
      <trkpt lat="48.40296" lon="7.33334">
        <ele>596.5</ele>
        <time>2023-07-23T10:45:57Z</time>
      </trkpt>
      <trkpt lat="48.40297" lon="7.3334">
        <ele>596.8</ele>
        <time>2023-07-23T10:45:58Z</time>
      </trkpt>
      <trkpt lat="48.40297" lon="7.33343">
        <ele>596.9</ele>
        <time>2023-07-23T10:45:59Z</time>
      </trkpt>
      <trkpt lat="48.40298" lon="7.33347">
        <ele>597.1</ele>
        <time>2023-07-23T10:46:00Z</time>
      </trkpt>
      <trkpt lat="48.40299" lon="7.33351">
        <ele>597.3</ele>
        <time>2023-07-23T10:46:01Z</time>
      </trkpt>
      <trkpt lat="48.403" lon="7.33355">
        <ele>597.5</ele>
        <time>2023-07-23T10:46:02Z</time>
      </trkpt>
      <trkpt lat="48.403" lon="7.33359">
        <ele>597.6</ele>
        <time>2023-07-23T10:46:03Z</time>
      </trkpt>
      <trkpt lat="48.40302" lon="7.33363">
        <ele>597.9</ele>
        <time>2023-07-23T10:46:04Z</time>
      </trkpt>
      <trkpt lat="48.40303" lon="7.33369">
        <ele>598.1</ele>
        <time>2023-07-23T10:46:05Z</time>
      </trkpt>
      <trkpt lat="48.40304" lon="7.33371">
        <ele>598.2</ele>
        <time>2023-07-23T10:46:06Z</time>
      </trkpt>
      <trkpt lat="48.40306" lon="7.33374">
        <ele>598.4</ele>
        <time>2023-07-23T10:46:07Z</time>
      </trkpt>
      <trkpt lat="48.40307" lon="7.33379">
        <ele>598.7</ele>
        <time>2023-07-23T10:46:08Z</time>
      </trkpt>
      <trkpt lat="48.40308" lon="7.33381">
        <ele>598.8</ele>
        <time>2023-07-23T10:46:09Z</time>
      </trkpt>
      <trkpt lat="48.4031" lon="7.33386">
        <ele>599.1</ele>
        <time>2023-07-23T10:46:10Z</time>
      </trkpt>
      <trkpt lat="48.40311" lon="7.33388">
        <ele>599.2</ele>
        <time>2023-07-23T10:46:11Z</time>
      </trkpt>
      <trkpt lat="48.40313" lon="7.33392">
        <ele>599.5</ele>
        <time>2023-07-23T10:46:12Z</time>
      </trkpt>
      <trkpt lat="48.40314" lon="7.33394">
        <ele>599.6</ele>
        <time>2023-07-23T10:46:13Z</time>
      </trkpt>
      <trkpt lat="48.40317" lon="7.33401">
        <ele>600</ele>
        <time>2023-07-23T10:46:14Z</time>
      </trkpt>
      <trkpt lat="48.40319" lon="7.33406">
        <ele>600.2</ele>
        <time>2023-07-23T10:46:15Z</time>
      </trkpt>
      <trkpt lat="48.4032" lon="7.33407">
        <ele>600.3</ele>
        <time>2023-07-23T10:46:16Z</time>
      </trkpt>
      <trkpt lat="48.40322" lon="7.33411">
        <ele>600.5</ele>
        <time>2023-07-23T10:46:17Z</time>
      </trkpt>
      <trkpt lat="48.40324" lon="7.33415">
        <ele>600.8</ele>
        <time>2023-07-23T10:46:18Z</time>
      </trkpt>
      <trkpt lat="48.40324" lon="7.33417">
        <ele>600.9</ele>
        <time>2023-07-23T10:46:19Z</time>
      </trkpt>
      <trkpt lat="48.40327" lon="7.33422">
        <ele>601.1</ele>
        <time>2023-07-23T10:46:20Z</time>
      </trkpt>
      <trkpt lat="48.40328" lon="7.33423">
        <ele>601.2</ele>
        <time>2023-07-23T10:46:21Z</time>
      </trkpt>
      <trkpt lat="48.4033" lon="7.33428">
        <ele>601.5</ele>
        <time>2023-07-23T10:46:22Z</time>
      </trkpt>
      <trkpt lat="48.40331" lon="7.33429">
        <ele>601.6</ele>
        <time>2023-07-23T10:46:23Z</time>
      </trkpt>
      <trkpt lat="48.40333" lon="7.33432">
        <ele>601.7</ele>
        <time>2023-07-23T10:46:24Z</time>
      </trkpt>
      <trkpt lat="48.40335" lon="7.33435">
        <ele>601.9</ele>
        <time>2023-07-23T10:46:25Z</time>
      </trkpt>
      <trkpt lat="48.40337" lon="7.33438">
        <ele>602.1</ele>
        <time>2023-07-23T10:46:26Z</time>
      </trkpt>
      <trkpt lat="48.40339" lon="7.33442">
        <ele>602.4</ele>
        <time>2023-07-23T10:46:27Z</time>
      </trkpt>
      <trkpt lat="48.4034" lon="7.33444">
        <ele>602.5</ele>
        <time>2023-07-23T10:46:28Z</time>
      </trkpt>
      <trkpt lat="48.40343" lon="7.33448">
        <ele>602.8</ele>
        <time>2023-07-23T10:46:29Z</time>
      </trkpt>
      <trkpt lat="48.40344" lon="7.33449">
        <ele>602.9</ele>
        <time>2023-07-23T10:46:30Z</time>
      </trkpt>
      <trkpt lat="48.40346" lon="7.33451">
        <ele>603.1</ele>
        <time>2023-07-23T10:46:31Z</time>
      </trkpt>
      <trkpt lat="48.40349" lon="7.33455">
        <ele>603.4</ele>
        <time>2023-07-23T10:46:32Z</time>
      </trkpt>
      <trkpt lat="48.4035" lon="7.33456">
        <ele>603.4</ele>
        <time>2023-07-23T10:46:33Z</time>
      </trkpt>
      <trkpt lat="48.40352" lon="7.33459">
        <ele>603.7</ele>
        <time>2023-07-23T10:46:34Z</time>
      </trkpt>
      <trkpt lat="48.40356" lon="7.33462">
        <ele>604</ele>
        <time>2023-07-23T10:46:35Z</time>
      </trkpt>
      <trkpt lat="48.40357" lon="7.33463">
        <ele>604.1</ele>
        <time>2023-07-23T10:46:36Z</time>
      </trkpt>
      <trkpt lat="48.40359" lon="7.33465">
        <ele>604.3</ele>
        <time>2023-07-23T10:46:37Z</time>
      </trkpt>
      <trkpt lat="48.40362" lon="7.33468">
        <ele>604.5</ele>
        <time>2023-07-23T10:46:38Z</time>
      </trkpt>
      <trkpt lat="48.40363" lon="7.33469">
        <ele>604.6</ele>
        <time>2023-07-23T10:46:39Z</time>
      </trkpt>
      <trkpt lat="48.40366" lon="7.3347">
        <ele>604.8</ele>
        <time>2023-07-23T10:46:40Z</time>
      </trkpt>
      <trkpt lat="48.4037" lon="7.33472">
        <ele>605.1</ele>
        <time>2023-07-23T10:46:41Z</time>
      </trkpt>
      <trkpt lat="48.40371" lon="7.33473">
        <ele>605.2</ele>
        <time>2023-07-23T10:46:42Z</time>
      </trkpt>
      <trkpt lat="48.40375" lon="7.33474">
        <ele>605.5</ele>
        <time>2023-07-23T10:46:43Z</time>
      </trkpt>
      <trkpt lat="48.40376" lon="7.33475">
        <ele>605.6</ele>
        <time>2023-07-23T10:46:44Z</time>
      </trkpt>
      <trkpt lat="48.4038" lon="7.33476">
        <ele>605.8</ele>
        <time>2023-07-23T10:46:45Z</time>
      </trkpt>
      <trkpt lat="48.40381" lon="7.33477">
        <ele>605.9</ele>
        <time>2023-07-23T10:46:46Z</time>
      </trkpt>
      <trkpt lat="48.40385" lon="7.33479">
        <ele>606.2</ele>
        <time>2023-07-23T10:46:47Z</time>
      </trkpt>
      <trkpt lat="48.40386" lon="7.3348">
        <ele>606.3</ele>
        <time>2023-07-23T10:46:48Z</time>
      </trkpt>
      <trkpt lat="48.40389" lon="7.33483">
        <ele>606.5</ele>
        <time>2023-07-23T10:46:49Z</time>
      </trkpt>
      <trkpt lat="48.4039" lon="7.33483">
        <ele>606.6</ele>
        <time>2023-07-23T10:46:50Z</time>
      </trkpt>
      <trkpt lat="48.40394" lon="7.33486">
        <ele>606.9</ele>
        <time>2023-07-23T10:46:51Z</time>
      </trkpt>
      <trkpt lat="48.40395" lon="7.33487">
        <ele>607</ele>
        <time>2023-07-23T10:46:52Z</time>
      </trkpt>
      <trkpt lat="48.40397" lon="7.33491">
        <ele>607.2</ele>
        <time>2023-07-23T10:46:53Z</time>
      </trkpt>
      <trkpt lat="48.40399" lon="7.33493">
        <ele>607.4</ele>
        <time>2023-07-23T10:46:54Z</time>
      </trkpt>
      <trkpt lat="48.40402" lon="7.33497">
        <ele>607.6</ele>
        <time>2023-07-23T10:46:55Z</time>
      </trkpt>
      <trkpt lat="48.40402" lon="7.33498">
        <ele>607.7</ele>
        <time>2023-07-23T10:46:56Z</time>
      </trkpt>
      <trkpt lat="48.40404" lon="7.33501">
        <ele>607.9</ele>
        <time>2023-07-23T10:46:57Z</time>
      </trkpt>
      <trkpt lat="48.40406" lon="7.33505">
        <ele>608.1</ele>
        <time>2023-07-23T10:46:58Z</time>
      </trkpt>
      <trkpt lat="48.40407" lon="7.33506">
        <ele>608.2</ele>
        <time>2023-07-23T10:46:59Z</time>
      </trkpt>
      <trkpt lat="48.40409" lon="7.3351">
        <ele>608.4</ele>
        <time>2023-07-23T10:47:00Z</time>
      </trkpt>
      <trkpt lat="48.40409" lon="7.33511">
        <ele>608.5</ele>
        <time>2023-07-23T10:47:01Z</time>
      </trkpt>
      <trkpt lat="48.40411" lon="7.33514">
        <ele>608.7</ele>
        <time>2023-07-23T10:47:02Z</time>
      </trkpt>
      <trkpt lat="48.40413" lon="7.33519">
        <ele>609</ele>
        <time>2023-07-23T10:47:03Z</time>
      </trkpt>
      <trkpt lat="48.40414" lon="7.33521">
        <ele>609.1</ele>
        <time>2023-07-23T10:47:04Z</time>
      </trkpt>
      <trkpt lat="48.40415" lon="7.33526">
        <ele>609.3</ele>
        <time>2023-07-23T10:47:05Z</time>
      </trkpt>
      <trkpt lat="48.40416" lon="7.33527">
        <ele>609.4</ele>
        <time>2023-07-23T10:47:06Z</time>
      </trkpt>
      <trkpt lat="48.40418" lon="7.33531">
        <ele>609.7</ele>
        <time>2023-07-23T10:47:07Z</time>
      </trkpt>
      <trkpt lat="48.40419" lon="7.33533">
        <ele>609.7</ele>
        <time>2023-07-23T10:47:08Z</time>
      </trkpt>
      <trkpt lat="48.40421" lon="7.33538">
        <ele>610</ele>
        <time>2023-07-23T10:47:09Z</time>
      </trkpt>
      <trkpt lat="48.40422" lon="7.33539">
        <ele>610.1</ele>
        <time>2023-07-23T10:47:10Z</time>
      </trkpt>
      <trkpt lat="48.40425" lon="7.33543">
        <ele>610.3</ele>
        <time>2023-07-23T10:47:11Z</time>
      </trkpt>
      <trkpt lat="48.40426" lon="7.33545">
        <ele>610.4</ele>
        <time>2023-07-23T10:47:12Z</time>
      </trkpt>
      <trkpt lat="48.40428" lon="7.33549">
        <ele>610.6</ele>
        <time>2023-07-23T10:47:13Z</time>
      </trkpt>
      <trkpt lat="48.40429" lon="7.3355">
        <ele>610.7</ele>
        <time>2023-07-23T10:47:14Z</time>
      </trkpt>
      <trkpt lat="48.40432" lon="7.33554">
        <ele>611</ele>
        <time>2023-07-23T10:47:15Z</time>
      </trkpt>
      <trkpt lat="48.40433" lon="7.33556">
        <ele>611.1</ele>
        <time>2023-07-23T10:47:16Z</time>
      </trkpt>
      <trkpt lat="48.40435" lon="7.3356">
        <ele>611.3</ele>
        <time>2023-07-23T10:47:17Z</time>
      </trkpt>
      <trkpt lat="48.40435" lon="7.33561">
        <ele>611.4</ele>
        <time>2023-07-23T10:47:18Z</time>
      </trkpt>
      <trkpt lat="48.40438" lon="7.33566">
        <ele>611.6</ele>
        <time>2023-07-23T10:47:19Z</time>
      </trkpt>
      <trkpt lat="48.40439" lon="7.33567">
        <ele>611.7</ele>
        <time>2023-07-23T10:47:20Z</time>
      </trkpt>
      <trkpt lat="48.40442" lon="7.3357">
        <ele>611.9</ele>
        <time>2023-07-23T10:47:21Z</time>
      </trkpt>
      <trkpt lat="48.40443" lon="7.33571">
        <ele>612</ele>
        <time>2023-07-23T10:47:22Z</time>
      </trkpt>
      <trkpt lat="48.40444" lon="7.33575">
        <ele>612.2</ele>
        <time>2023-07-23T10:47:23Z</time>
      </trkpt>
      <trkpt lat="48.40447" lon="7.33579">
        <ele>612.4</ele>
        <time>2023-07-23T10:47:24Z</time>
      </trkpt>
      <trkpt lat="48.40448" lon="7.3358">
        <ele>612.5</ele>
        <time>2023-07-23T10:47:25Z</time>
      </trkpt>
      <trkpt lat="48.40451" lon="7.33584">
        <ele>612.8</ele>
        <time>2023-07-23T10:47:26Z</time>
      </trkpt>
      <trkpt lat="48.40452" lon="7.33585">
        <ele>612.9</ele>
        <time>2023-07-23T10:47:27Z</time>
      </trkpt>
      <trkpt lat="48.40455" lon="7.33589">
        <ele>613.1</ele>
        <time>2023-07-23T10:47:28Z</time>
      </trkpt>
      <trkpt lat="48.40456" lon="7.3359">
        <ele>613.2</ele>
        <time>2023-07-23T10:47:29Z</time>
      </trkpt>
      <trkpt lat="48.40458" lon="7.33594">
        <ele>613.5</ele>
        <time>2023-07-23T10:47:30Z</time>
      </trkpt>
      <trkpt lat="48.40459" lon="7.33596">
        <ele>613.6</ele>
        <time>2023-07-23T10:47:31Z</time>
      </trkpt>
      <trkpt lat="48.40462" lon="7.33599">
        <ele>613.8</ele>
        <time>2023-07-23T10:47:32Z</time>
      </trkpt>
      <trkpt lat="48.40463" lon="7.336">
        <ele>613.9</ele>
        <time>2023-07-23T10:47:33Z</time>
      </trkpt>
      <trkpt lat="48.40465" lon="7.33603">
        <ele>614.1</ele>
        <time>2023-07-23T10:47:34Z</time>
      </trkpt>
      <trkpt lat="48.40467" lon="7.33606">
        <ele>614.3</ele>
        <time>2023-07-23T10:47:35Z</time>
      </trkpt>
      <trkpt lat="48.40469" lon="7.3361">
        <ele>614.6</ele>
        <time>2023-07-23T10:47:36Z</time>
      </trkpt>
      <trkpt lat="48.4047" lon="7.33611">
        <ele>614.7</ele>
        <time>2023-07-23T10:47:37Z</time>
      </trkpt>
      <trkpt lat="48.40473" lon="7.33614">
        <ele>614.9</ele>
        <time>2023-07-23T10:47:38Z</time>
      </trkpt>
      <trkpt lat="48.40475" lon="7.33617">
        <ele>615.1</ele>
        <time>2023-07-23T10:47:39Z</time>
      </trkpt>
      <trkpt lat="48.40478" lon="7.33621">
        <ele>615.4</ele>
        <time>2023-07-23T10:47:40Z</time>
      </trkpt>
      <trkpt lat="48.40479" lon="7.33622">
        <ele>615.5</ele>
        <time>2023-07-23T10:47:41Z</time>
      </trkpt>
      <trkpt lat="48.40481" lon="7.33626">
        <ele>615.7</ele>
        <time>2023-07-23T10:47:42Z</time>
      </trkpt>
      <trkpt lat="48.40482" lon="7.33627">
        <ele>615.8</ele>
        <time>2023-07-23T10:47:43Z</time>
      </trkpt>
      <trkpt lat="48.40485" lon="7.33631">
        <ele>616.1</ele>
        <time>2023-07-23T10:47:44Z</time>
      </trkpt>
      <trkpt lat="48.40486" lon="7.33632">
        <ele>616.2</ele>
        <time>2023-07-23T10:47:45Z</time>
      </trkpt>
      <trkpt lat="48.40489" lon="7.33635">
        <ele>616.5</ele>
        <time>2023-07-23T10:47:46Z</time>
      </trkpt>
      <trkpt lat="48.4049" lon="7.33637">
        <ele>616.6</ele>
        <time>2023-07-23T10:47:47Z</time>
      </trkpt>
      <trkpt lat="48.40493" lon="7.33639">
        <ele>616.8</ele>
        <time>2023-07-23T10:47:48Z</time>
      </trkpt>
      <trkpt lat="48.40495" lon="7.33643">
        <ele>617</ele>
        <time>2023-07-23T10:47:49Z</time>
      </trkpt>
      <trkpt lat="48.40497" lon="7.33644">
        <ele>617.2</ele>
        <time>2023-07-23T10:47:50Z</time>
      </trkpt>
      <trkpt lat="48.40499" lon="7.33647">
        <ele>617.4</ele>
        <time>2023-07-23T10:47:51Z</time>
      </trkpt>
      <trkpt lat="48.40501" lon="7.33649">
        <ele>617.6</ele>
        <time>2023-07-23T10:47:53Z</time>
      </trkpt>
      <trkpt lat="48.40503" lon="7.33652">
        <ele>617.8</ele>
        <time>2023-07-23T10:47:54Z</time>
      </trkpt>
      <trkpt lat="48.40506" lon="7.33654">
        <ele>618.1</ele>
        <time>2023-07-23T10:47:55Z</time>
      </trkpt>
      <trkpt lat="48.40507" lon="7.33655">
        <ele>618.2</ele>
        <time>2023-07-23T10:47:56Z</time>
      </trkpt>
      <trkpt lat="48.4051" lon="7.33658">
        <ele>618.4</ele>
        <time>2023-07-23T10:47:57Z</time>
      </trkpt>
      <trkpt lat="48.40512" lon="7.33658">
        <ele>618.5</ele>
        <time>2023-07-23T10:47:58Z</time>
      </trkpt>
      <trkpt lat="48.40515" lon="7.33661">
        <ele>618.8</ele>
        <time>2023-07-23T10:47:59Z</time>
      </trkpt>
      <trkpt lat="48.40516" lon="7.33662">
        <ele>618.9</ele>
        <time>2023-07-23T10:48:00Z</time>
      </trkpt>
      <trkpt lat="48.40518" lon="7.33663">
        <ele>619.1</ele>
        <time>2023-07-23T10:48:01Z</time>
      </trkpt>
      <trkpt lat="48.40522" lon="7.33666">
        <ele>619.4</ele>
        <time>2023-07-23T10:48:02Z</time>
      </trkpt>
      <trkpt lat="48.40523" lon="7.33666">
        <ele>619.5</ele>
        <time>2023-07-23T10:48:03Z</time>
      </trkpt>
      <trkpt lat="48.40527" lon="7.33667">
        <ele>619.7</ele>
        <time>2023-07-23T10:48:04Z</time>
      </trkpt>
      <trkpt lat="48.40528" lon="7.33668">
        <ele>619.8</ele>
        <time>2023-07-23T10:48:05Z</time>
      </trkpt>
      <trkpt lat="48.40531" lon="7.33669">
        <ele>620.1</ele>
        <time>2023-07-23T10:48:06Z</time>
      </trkpt>
      <trkpt lat="48.40533" lon="7.33669">
        <ele>620.2</ele>
        <time>2023-07-23T10:48:07Z</time>
      </trkpt>
      <trkpt lat="48.40537" lon="7.33669">
        <ele>620.5</ele>
        <time>2023-07-23T10:48:08Z</time>
      </trkpt>
      <trkpt lat="48.40538" lon="7.33669">
        <ele>620.5</ele>
        <time>2023-07-23T10:48:09Z</time>
      </trkpt>
      <trkpt lat="48.40541" lon="7.3367">
        <ele>620.8</ele>
        <time>2023-07-23T10:48:10Z</time>
      </trkpt>
      <trkpt lat="48.40542" lon="7.3367">
        <ele>620.9</ele>
        <time>2023-07-23T10:48:11Z</time>
      </trkpt>
      <trkpt lat="48.40545" lon="7.33671">
        <ele>621.1</ele>
        <time>2023-07-23T10:48:12Z</time>
      </trkpt>
      <trkpt lat="48.40548" lon="7.33672">
        <ele>621.3</ele>
        <time>2023-07-23T10:48:13Z</time>
      </trkpt>
      <trkpt lat="48.4055" lon="7.33673">
        <ele>621.4</ele>
        <time>2023-07-23T10:48:14Z</time>
      </trkpt>
      <trkpt lat="48.40553" lon="7.33675">
        <ele>621.7</ele>
        <time>2023-07-23T10:48:15Z</time>
      </trkpt>
      <trkpt lat="48.40554" lon="7.33676">
        <ele>621.7</ele>
        <time>2023-07-23T10:48:16Z</time>
      </trkpt>
      <trkpt lat="48.40557" lon="7.33679">
        <ele>622</ele>
        <time>2023-07-23T10:48:17Z</time>
      </trkpt>
      <trkpt lat="48.40558" lon="7.3368">
        <ele>622.1</ele>
        <time>2023-07-23T10:48:18Z</time>
      </trkpt>
      <trkpt lat="48.40561" lon="7.33683">
        <ele>622.3</ele>
        <time>2023-07-23T10:48:19Z</time>
      </trkpt>
      <trkpt lat="48.40562" lon="7.33684">
        <ele>622.4</ele>
        <time>2023-07-23T10:48:20Z</time>
      </trkpt>
      <trkpt lat="48.40565" lon="7.33687">
        <ele>622.6</ele>
        <time>2023-07-23T10:48:21Z</time>
      </trkpt>
      <trkpt lat="48.40566" lon="7.33689">
        <ele>622.7</ele>
        <time>2023-07-23T10:48:22Z</time>
      </trkpt>
      <trkpt lat="48.40568" lon="7.33692">
        <ele>623</ele>
        <time>2023-07-23T10:48:23Z</time>
      </trkpt>
      <trkpt lat="48.40569" lon="7.33694">
        <ele>623</ele>
        <time>2023-07-23T10:48:24Z</time>
      </trkpt>
      <trkpt lat="48.40571" lon="7.33698">
        <ele>623.3</ele>
        <time>2023-07-23T10:48:25Z</time>
      </trkpt>
      <trkpt lat="48.40572" lon="7.33699">
        <ele>623.4</ele>
        <time>2023-07-23T10:48:26Z</time>
      </trkpt>
      <trkpt lat="48.40575" lon="7.33706">
        <ele>623.7</ele>
        <time>2023-07-23T10:48:27Z</time>
      </trkpt>
      <trkpt lat="48.40577" lon="7.33711">
        <ele>623.9</ele>
        <time>2023-07-23T10:48:28Z</time>
      </trkpt>
      <trkpt lat="48.40577" lon="7.33713">
        <ele>624</ele>
        <time>2023-07-23T10:48:29Z</time>
      </trkpt>
      <trkpt lat="48.40579" lon="7.33718">
        <ele>624.3</ele>
        <time>2023-07-23T10:48:30Z</time>
      </trkpt>
      <trkpt lat="48.40579" lon="7.3372">
        <ele>624.4</ele>
        <time>2023-07-23T10:48:31Z</time>
      </trkpt>
      <trkpt lat="48.40581" lon="7.33724">
        <ele>624.6</ele>
        <time>2023-07-23T10:48:32Z</time>
      </trkpt>
      <trkpt lat="48.40582" lon="7.33726">
        <ele>624.7</ele>
        <time>2023-07-23T10:48:33Z</time>
      </trkpt>
      <trkpt lat="48.40584" lon="7.33731">
        <ele>625</ele>
        <time>2023-07-23T10:48:34Z</time>
      </trkpt>
      <trkpt lat="48.40585" lon="7.33732">
        <ele>625.1</ele>
        <time>2023-07-23T10:48:35Z</time>
      </trkpt>
      <trkpt lat="48.40586" lon="7.33737">
        <ele>625.3</ele>
        <time>2023-07-23T10:48:36Z</time>
      </trkpt>
      <trkpt lat="48.40587" lon="7.33738">
        <ele>625.4</ele>
        <time>2023-07-23T10:48:37Z</time>
      </trkpt>
      <trkpt lat="48.40589" lon="7.33743">
        <ele>625.6</ele>
        <time>2023-07-23T10:48:38Z</time>
      </trkpt>
      <trkpt lat="48.40589" lon="7.33744">
        <ele>625.7</ele>
        <time>2023-07-23T10:48:39Z</time>
      </trkpt>
      <trkpt lat="48.40591" lon="7.33749">
        <ele>626</ele>
        <time>2023-07-23T10:48:40Z</time>
      </trkpt>
      <trkpt lat="48.40591" lon="7.3375">
        <ele>626.1</ele>
        <time>2023-07-23T10:48:41Z</time>
      </trkpt>
      <trkpt lat="48.40594" lon="7.33754">
        <ele>626.3</ele>
        <time>2023-07-23T10:48:42Z</time>
      </trkpt>
      <trkpt lat="48.40594" lon="7.33756">
        <ele>626.4</ele>
        <time>2023-07-23T10:48:43Z</time>
      </trkpt>
      <trkpt lat="48.40596" lon="7.33761">
        <ele>626.7</ele>
        <time>2023-07-23T10:48:44Z</time>
      </trkpt>
      <trkpt lat="48.40596" lon="7.33763">
        <ele>626.8</ele>
        <time>2023-07-23T10:48:45Z</time>
      </trkpt>
      <trkpt lat="48.40598" lon="7.33767">
        <ele>627</ele>
        <time>2023-07-23T10:48:46Z</time>
      </trkpt>
      <trkpt lat="48.40599" lon="7.33769">
        <ele>627.1</ele>
        <time>2023-07-23T10:48:47Z</time>
      </trkpt>
      <trkpt lat="48.40601" lon="7.33773">
        <ele>627.4</ele>
        <time>2023-07-23T10:48:48Z</time>
      </trkpt>
      <trkpt lat="48.40602" lon="7.33775">
        <ele>627.5</ele>
        <time>2023-07-23T10:48:49Z</time>
      </trkpt>
      <trkpt lat="48.40604" lon="7.33779">
        <ele>627.8</ele>
        <time>2023-07-23T10:48:50Z</time>
      </trkpt>
      <trkpt lat="48.40605" lon="7.3378">
        <ele>627.9</ele>
        <time>2023-07-23T10:48:51Z</time>
      </trkpt>
      <trkpt lat="48.40607" lon="7.33783">
        <ele>628.1</ele>
        <time>2023-07-23T10:48:52Z</time>
      </trkpt>
      <trkpt lat="48.40608" lon="7.33784">
        <ele>628.2</ele>
        <time>2023-07-23T10:48:53Z</time>
      </trkpt>
      <trkpt lat="48.4061" lon="7.33788">
        <ele>628.5</ele>
        <time>2023-07-23T10:48:54Z</time>
      </trkpt>
      <trkpt lat="48.40611" lon="7.33789">
        <ele>628.6</ele>
        <time>2023-07-23T10:48:55Z</time>
      </trkpt>
      <trkpt lat="48.40613" lon="7.33792">
        <ele>628.8</ele>
        <time>2023-07-23T10:48:56Z</time>
      </trkpt>
      <trkpt lat="48.40614" lon="7.33793">
        <ele>628.9</ele>
        <time>2023-07-23T10:48:57Z</time>
      </trkpt>
      <trkpt lat="48.40616" lon="7.33797">
        <ele>629.2</ele>
        <time>2023-07-23T10:48:58Z</time>
      </trkpt>
      <trkpt lat="48.40617" lon="7.33798">
        <ele>629.3</ele>
        <time>2023-07-23T10:48:59Z</time>
      </trkpt>
      <trkpt lat="48.40619" lon="7.33801">
        <ele>629.6</ele>
        <time>2023-07-23T10:49:00Z</time>
      </trkpt>
      <trkpt lat="48.4062" lon="7.33802">
        <ele>629.7</ele>
        <time>2023-07-23T10:49:01Z</time>
      </trkpt>
      <trkpt lat="48.40622" lon="7.33805">
        <ele>629.9</ele>
        <time>2023-07-23T10:49:02Z</time>
      </trkpt>
      <trkpt lat="48.40623" lon="7.33806">
        <ele>630</ele>
        <time>2023-07-23T10:49:03Z</time>
      </trkpt>
      <trkpt lat="48.40626" lon="7.3381">
        <ele>630.3</ele>
        <time>2023-07-23T10:49:04Z</time>
      </trkpt>
      <trkpt lat="48.40627" lon="7.33811">
        <ele>630.4</ele>
        <time>2023-07-23T10:49:05Z</time>
      </trkpt>
      <trkpt lat="48.40629" lon="7.33814">
        <ele>630.7</ele>
        <time>2023-07-23T10:49:06Z</time>
      </trkpt>
      <trkpt lat="48.4063" lon="7.33815">
        <ele>630.8</ele>
        <time>2023-07-23T10:49:07Z</time>
      </trkpt>
      <trkpt lat="48.40632" lon="7.33818">
        <ele>631.1</ele>
        <time>2023-07-23T10:49:08Z</time>
      </trkpt>
      <trkpt lat="48.40633" lon="7.33819">
        <ele>631.2</ele>
        <time>2023-07-23T10:49:09Z</time>
      </trkpt>
      <trkpt lat="48.40636" lon="7.33822">
        <ele>631.4</ele>
        <time>2023-07-23T10:49:10Z</time>
      </trkpt>
      <trkpt lat="48.40636" lon="7.33823">
        <ele>631.5</ele>
        <time>2023-07-23T10:49:11Z</time>
      </trkpt>
      <trkpt lat="48.40639" lon="7.33826">
        <ele>631.8</ele>
        <time>2023-07-23T10:49:12Z</time>
      </trkpt>
      <trkpt lat="48.40639" lon="7.33827">
        <ele>631.9</ele>
        <time>2023-07-23T10:49:13Z</time>
      </trkpt>
      <trkpt lat="48.40642" lon="7.33829">
        <ele>632.1</ele>
        <time>2023-07-23T10:49:14Z</time>
      </trkpt>
      <trkpt lat="48.40643" lon="7.3383">
        <ele>632.2</ele>
        <time>2023-07-23T10:49:15Z</time>
      </trkpt>
      <trkpt lat="48.40645" lon="7.33833">
        <ele>632.5</ele>
        <time>2023-07-23T10:49:16Z</time>
      </trkpt>
      <trkpt lat="48.40646" lon="7.33834">
        <ele>632.6</ele>
        <time>2023-07-23T10:49:17Z</time>
      </trkpt>
      <trkpt lat="48.40649" lon="7.33836">
        <ele>632.8</ele>
        <time>2023-07-23T10:49:18Z</time>
      </trkpt>
      <trkpt lat="48.40649" lon="7.33837">
        <ele>632.9</ele>
        <time>2023-07-23T10:49:19Z</time>
      </trkpt>
      <trkpt lat="48.40652" lon="7.33839">
        <ele>633.2</ele>
        <time>2023-07-23T10:49:20Z</time>
      </trkpt>
      <trkpt lat="48.40653" lon="7.3384">
        <ele>633.3</ele>
        <time>2023-07-23T10:49:21Z</time>
      </trkpt>
      <trkpt lat="48.40656" lon="7.33842">
        <ele>633.6</ele>
        <time>2023-07-23T10:49:22Z</time>
      </trkpt>
      <trkpt lat="48.40657" lon="7.33843">
        <ele>633.6</ele>
        <time>2023-07-23T10:49:23Z</time>
      </trkpt>
      <trkpt lat="48.4066" lon="7.33845">
        <ele>633.9</ele>
        <time>2023-07-23T10:49:24Z</time>
      </trkpt>
      <trkpt lat="48.40661" lon="7.33846">
        <ele>634</ele>
        <time>2023-07-23T10:49:25Z</time>
      </trkpt>
      <trkpt lat="48.40664" lon="7.33848">
        <ele>634.3</ele>
        <time>2023-07-23T10:49:26Z</time>
      </trkpt>
      <trkpt lat="48.40665" lon="7.33849">
        <ele>634.4</ele>
        <time>2023-07-23T10:49:27Z</time>
      </trkpt>
      <trkpt lat="48.40668" lon="7.33851">
        <ele>634.6</ele>
        <time>2023-07-23T10:49:28Z</time>
      </trkpt>
      <trkpt lat="48.40668" lon="7.33852">
        <ele>634.7</ele>
        <time>2023-07-23T10:49:29Z</time>
      </trkpt>
      <trkpt lat="48.40671" lon="7.33854">
        <ele>635</ele>
        <time>2023-07-23T10:49:30Z</time>
      </trkpt>
      <trkpt lat="48.40672" lon="7.33854">
        <ele>635.1</ele>
        <time>2023-07-23T10:49:31Z</time>
      </trkpt>
      <trkpt lat="48.40675" lon="7.33856">
        <ele>635.4</ele>
        <time>2023-07-23T10:49:32Z</time>
      </trkpt>
      <trkpt lat="48.40676" lon="7.33857">
        <ele>635.5</ele>
        <time>2023-07-23T10:49:33Z</time>
      </trkpt>
      <trkpt lat="48.40679" lon="7.33859">
        <ele>635.8</ele>
        <time>2023-07-23T10:49:34Z</time>
      </trkpt>
      <trkpt lat="48.40681" lon="7.33859">
        <ele>635.9</ele>
        <time>2023-07-23T10:49:35Z</time>
      </trkpt>
      <trkpt lat="48.40683" lon="7.33862">
        <ele>636.1</ele>
        <time>2023-07-23T10:49:36Z</time>
      </trkpt>
      <trkpt lat="48.40684" lon="7.33862">
        <ele>636.2</ele>
        <time>2023-07-23T10:49:37Z</time>
      </trkpt>
      <trkpt lat="48.40687" lon="7.33865">
        <ele>636.5</ele>
        <time>2023-07-23T10:49:38Z</time>
      </trkpt>
      <trkpt lat="48.40688" lon="7.33866">
        <ele>636.6</ele>
        <time>2023-07-23T10:49:39Z</time>
      </trkpt>
      <trkpt lat="48.40691" lon="7.33869">
        <ele>636.9</ele>
        <time>2023-07-23T10:49:40Z</time>
      </trkpt>
      <trkpt lat="48.40692" lon="7.3387">
        <ele>637</ele>
        <time>2023-07-23T10:49:41Z</time>
      </trkpt>
      <trkpt lat="48.40695" lon="7.33872">
        <ele>637.3</ele>
        <time>2023-07-23T10:49:42Z</time>
      </trkpt>
      <trkpt lat="48.40696" lon="7.33877">
        <ele>637.6</ele>
        <time>2023-07-23T10:49:43Z</time>
      </trkpt>
      <trkpt lat="48.40697" lon="7.33879">
        <ele>637.7</ele>
        <time>2023-07-23T10:49:44Z</time>
      </trkpt>
      <trkpt lat="48.40699" lon="7.33883">
        <ele>638.1</ele>
        <time>2023-07-23T10:49:45Z</time>
      </trkpt>
      <trkpt lat="48.407" lon="7.33884">
        <ele>638.2</ele>
        <time>2023-07-23T10:49:46Z</time>
      </trkpt>
      <trkpt lat="48.40703" lon="7.33887">
        <ele>638.5</ele>
        <time>2023-07-23T10:49:47Z</time>
      </trkpt>
      <trkpt lat="48.40704" lon="7.33888">
        <ele>638.6</ele>
        <time>2023-07-23T10:49:48Z</time>
      </trkpt>
      <trkpt lat="48.40707" lon="7.33891">
        <ele>638.9</ele>
        <time>2023-07-23T10:49:49Z</time>
      </trkpt>
      <trkpt lat="48.40708" lon="7.33892">
        <ele>639</ele>
        <time>2023-07-23T10:49:50Z</time>
      </trkpt>
      <trkpt lat="48.4071" lon="7.33896">
        <ele>639.3</ele>
        <time>2023-07-23T10:49:51Z</time>
      </trkpt>
      <trkpt lat="48.40711" lon="7.33897">
        <ele>639.4</ele>
        <time>2023-07-23T10:49:52Z</time>
      </trkpt>
      <trkpt lat="48.40714" lon="7.339">
        <ele>639.7</ele>
        <time>2023-07-23T10:49:53Z</time>
      </trkpt>
      <trkpt lat="48.40714" lon="7.33901">
        <ele>639.8</ele>
        <time>2023-07-23T10:49:54Z</time>
      </trkpt>
      <trkpt lat="48.40717" lon="7.33905">
        <ele>640.1</ele>
        <time>2023-07-23T10:49:55Z</time>
      </trkpt>
      <trkpt lat="48.40717" lon="7.33906">
        <ele>640.2</ele>
        <time>2023-07-23T10:49:56Z</time>
      </trkpt>
      <trkpt lat="48.4072" lon="7.33909">
        <ele>640.5</ele>
        <time>2023-07-23T10:49:58Z</time>
      </trkpt>
      <trkpt lat="48.4072" lon="7.3391">
        <ele>640.6</ele>
        <time>2023-07-23T10:49:59Z</time>
      </trkpt>
      <trkpt lat="48.40723" lon="7.33914">
        <ele>640.9</ele>
        <time>2023-07-23T10:50:00Z</time>
      </trkpt>
      <trkpt lat="48.40723" lon="7.33915">
        <ele>640.9</ele>
        <time>2023-07-23T10:50:01Z</time>
      </trkpt>
      <trkpt lat="48.40725" lon="7.33918">
        <ele>641.3</ele>
        <time>2023-07-23T10:50:02Z</time>
      </trkpt>
      <trkpt lat="48.40726" lon="7.33919">
        <ele>641.3</ele>
        <time>2023-07-23T10:50:03Z</time>
      </trkpt>
      <trkpt lat="48.40728" lon="7.33923">
        <ele>641.6</ele>
        <time>2023-07-23T10:50:04Z</time>
      </trkpt>
      <trkpt lat="48.40729" lon="7.33924">
        <ele>641.7</ele>
        <time>2023-07-23T10:50:05Z</time>
      </trkpt>
      <trkpt lat="48.40731" lon="7.33927">
        <ele>642.1</ele>
        <time>2023-07-23T10:50:06Z</time>
      </trkpt>
      <trkpt lat="48.40732" lon="7.33928">
        <ele>642.1</ele>
        <time>2023-07-23T10:50:07Z</time>
      </trkpt>
      <trkpt lat="48.40734" lon="7.33932">
        <ele>642.5</ele>
        <time>2023-07-23T10:50:08Z</time>
      </trkpt>
      <trkpt lat="48.40735" lon="7.33933">
        <ele>642.6</ele>
        <time>2023-07-23T10:50:09Z</time>
      </trkpt>
      <trkpt lat="48.40737" lon="7.33936">
        <ele>642.9</ele>
        <time>2023-07-23T10:50:10Z</time>
      </trkpt>
      <trkpt lat="48.40738" lon="7.33937">
        <ele>643</ele>
        <time>2023-07-23T10:50:11Z</time>
      </trkpt>
      <trkpt lat="48.4074" lon="7.33941">
        <ele>643.3</ele>
        <time>2023-07-23T10:50:12Z</time>
      </trkpt>
      <trkpt lat="48.40741" lon="7.33942">
        <ele>643.4</ele>
        <time>2023-07-23T10:50:13Z</time>
      </trkpt>
      <trkpt lat="48.40744" lon="7.33945">
        <ele>643.8</ele>
        <time>2023-07-23T10:50:14Z</time>
      </trkpt>
      <trkpt lat="48.40744" lon="7.33946">
        <ele>643.9</ele>
        <time>2023-07-23T10:50:15Z</time>
      </trkpt>
      <trkpt lat="48.40747" lon="7.33949">
        <ele>644.2</ele>
        <time>2023-07-23T10:50:16Z</time>
      </trkpt>
      <trkpt lat="48.40748" lon="7.3395">
        <ele>644.3</ele>
        <time>2023-07-23T10:50:17Z</time>
      </trkpt>
      <trkpt lat="48.40751" lon="7.33952">
        <ele>644.7</ele>
        <time>2023-07-23T10:50:18Z</time>
      </trkpt>
      <trkpt lat="48.40752" lon="7.33953">
        <ele>644.8</ele>
        <time>2023-07-23T10:50:19Z</time>
      </trkpt>
      <trkpt lat="48.40755" lon="7.33956">
        <ele>645.1</ele>
        <time>2023-07-23T10:50:20Z</time>
      </trkpt>
      <trkpt lat="48.40756" lon="7.33956">
        <ele>645.2</ele>
        <time>2023-07-23T10:50:21Z</time>
      </trkpt>
      <trkpt lat="48.40759" lon="7.33958">
        <ele>645.5</ele>
        <time>2023-07-23T10:50:22Z</time>
      </trkpt>
      <trkpt lat="48.40759" lon="7.33959">
        <ele>645.6</ele>
        <time>2023-07-23T10:50:23Z</time>
      </trkpt>
      <trkpt lat="48.40763" lon="7.33961">
        <ele>646</ele>
        <time>2023-07-23T10:50:24Z</time>
      </trkpt>
      <trkpt lat="48.40764" lon="7.33962">
        <ele>646.1</ele>
        <time>2023-07-23T10:50:25Z</time>
      </trkpt>
      <trkpt lat="48.40766" lon="7.33964">
        <ele>646.4</ele>
        <time>2023-07-23T10:50:26Z</time>
      </trkpt>
      <trkpt lat="48.40767" lon="7.33964">
        <ele>646.5</ele>
        <time>2023-07-23T10:50:27Z</time>
      </trkpt>
      <trkpt lat="48.4077" lon="7.33965">
        <ele>646.8</ele>
        <time>2023-07-23T10:50:28Z</time>
      </trkpt>
      <trkpt lat="48.40771" lon="7.33965">
        <ele>646.9</ele>
        <time>2023-07-23T10:50:29Z</time>
      </trkpt>
      <trkpt lat="48.40774" lon="7.33966">
        <ele>647.2</ele>
        <time>2023-07-23T10:50:30Z</time>
      </trkpt>
      <trkpt lat="48.40775" lon="7.33967">
        <ele>647.3</ele>
        <time>2023-07-23T10:50:31Z</time>
      </trkpt>
      <trkpt lat="48.40778" lon="7.33967">
        <ele>647.6</ele>
        <time>2023-07-23T10:50:32Z</time>
      </trkpt>
      <trkpt lat="48.40779" lon="7.33967">
        <ele>647.7</ele>
        <time>2023-07-23T10:50:33Z</time>
      </trkpt>
      <trkpt lat="48.40783" lon="7.33967">
        <ele>648</ele>
        <time>2023-07-23T10:50:34Z</time>
      </trkpt>
      <trkpt lat="48.40786" lon="7.33967">
        <ele>648.3</ele>
        <time>2023-07-23T10:50:35Z</time>
      </trkpt>
      <trkpt lat="48.40787" lon="7.33967">
        <ele>648.4</ele>
        <time>2023-07-23T10:50:36Z</time>
      </trkpt>
      <trkpt lat="48.4079" lon="7.33967">
        <ele>648.7</ele>
        <time>2023-07-23T10:50:37Z</time>
      </trkpt>
      <trkpt lat="48.40791" lon="7.33967">
        <ele>648.8</ele>
        <time>2023-07-23T10:50:38Z</time>
      </trkpt>
      <trkpt lat="48.40794" lon="7.33966">
        <ele>649.1</ele>
        <time>2023-07-23T10:50:39Z</time>
      </trkpt>
      <trkpt lat="48.40795" lon="7.33965">
        <ele>649.1</ele>
        <time>2023-07-23T10:50:40Z</time>
      </trkpt>
      <trkpt lat="48.40798" lon="7.33964">
        <ele>649.4</ele>
        <time>2023-07-23T10:50:41Z</time>
      </trkpt>
      <trkpt lat="48.40799" lon="7.33963">
        <ele>649.5</ele>
        <time>2023-07-23T10:50:42Z</time>
      </trkpt>
      <trkpt lat="48.40802" lon="7.33962">
        <ele>649.8</ele>
        <time>2023-07-23T10:50:43Z</time>
      </trkpt>
      <trkpt lat="48.40803" lon="7.33962">
        <ele>649.9</ele>
        <time>2023-07-23T10:50:44Z</time>
      </trkpt>
      <trkpt lat="48.40806" lon="7.3396">
        <ele>650.2</ele>
        <time>2023-07-23T10:50:45Z</time>
      </trkpt>
      <trkpt lat="48.40807" lon="7.3396">
        <ele>650.3</ele>
        <time>2023-07-23T10:50:46Z</time>
      </trkpt>
      <trkpt lat="48.4081" lon="7.33958">
        <ele>650.5</ele>
        <time>2023-07-23T10:50:47Z</time>
      </trkpt>
      <trkpt lat="48.40811" lon="7.33958">
        <ele>650.6</ele>
        <time>2023-07-23T10:50:48Z</time>
      </trkpt>
      <trkpt lat="48.40814" lon="7.33955">
        <ele>650.9</ele>
        <time>2023-07-23T10:50:49Z</time>
      </trkpt>
      <trkpt lat="48.40815" lon="7.33955">
        <ele>651</ele>
        <time>2023-07-23T10:50:50Z</time>
      </trkpt>
      <trkpt lat="48.40818" lon="7.33953">
        <ele>651.3</ele>
        <time>2023-07-23T10:50:51Z</time>
      </trkpt>
      <trkpt lat="48.40819" lon="7.33952">
        <ele>651.3</ele>
        <time>2023-07-23T10:50:52Z</time>
      </trkpt>
      <trkpt lat="48.40822" lon="7.33951">
        <ele>651.6</ele>
        <time>2023-07-23T10:50:53Z</time>
      </trkpt>
      <trkpt lat="48.40823" lon="7.33951">
        <ele>651.7</ele>
        <time>2023-07-23T10:50:54Z</time>
      </trkpt>
      <trkpt lat="48.40826" lon="7.3395">
        <ele>652</ele>
        <time>2023-07-23T10:50:55Z</time>
      </trkpt>
      <trkpt lat="48.40827" lon="7.33949">
        <ele>652.1</ele>
        <time>2023-07-23T10:50:56Z</time>
      </trkpt>
      <trkpt lat="48.4083" lon="7.33947">
        <ele>652.3</ele>
        <time>2023-07-23T10:50:57Z</time>
      </trkpt>
      <trkpt lat="48.40831" lon="7.33947">
        <ele>652.4</ele>
        <time>2023-07-23T10:50:58Z</time>
      </trkpt>
      <trkpt lat="48.40834" lon="7.33946">
        <ele>652.7</ele>
        <time>2023-07-23T10:50:59Z</time>
      </trkpt>
      <trkpt lat="48.40836" lon="7.33945">
        <ele>652.8</ele>
        <time>2023-07-23T10:51:00Z</time>
      </trkpt>
      <trkpt lat="48.40839" lon="7.33944">
        <ele>653.2</ele>
        <time>2023-07-23T10:51:01Z</time>
      </trkpt>
      <trkpt lat="48.4084" lon="7.33943">
        <ele>653.3</ele>
        <time>2023-07-23T10:51:02Z</time>
      </trkpt>
      <trkpt lat="48.40843" lon="7.33942">
        <ele>653.5</ele>
        <time>2023-07-23T10:51:03Z</time>
      </trkpt>
      <trkpt lat="48.40844" lon="7.33942">
        <ele>653.6</ele>
        <time>2023-07-23T10:51:04Z</time>
      </trkpt>
      <trkpt lat="48.40847" lon="7.33942">
        <ele>653.9</ele>
        <time>2023-07-23T10:51:05Z</time>
      </trkpt>
      <trkpt lat="48.40848" lon="7.33941">
        <ele>654</ele>
        <time>2023-07-23T10:51:06Z</time>
      </trkpt>
      <trkpt lat="48.40852" lon="7.33941">
        <ele>654.4</ele>
        <time>2023-07-23T10:51:07Z</time>
      </trkpt>
      <trkpt lat="48.40853" lon="7.33941">
        <ele>654.5</ele>
        <time>2023-07-23T10:51:08Z</time>
      </trkpt>
      <trkpt lat="48.40856" lon="7.3394">
        <ele>654.7</ele>
        <time>2023-07-23T10:51:09Z</time>
      </trkpt>
      <trkpt lat="48.40858" lon="7.3394">
        <ele>654.9</ele>
        <time>2023-07-23T10:51:10Z</time>
      </trkpt>
      <trkpt lat="48.40861" lon="7.33939">
        <ele>655.2</ele>
        <time>2023-07-23T10:51:11Z</time>
      </trkpt>
      <trkpt lat="48.40862" lon="7.33939">
        <ele>655.3</ele>
        <time>2023-07-23T10:51:12Z</time>
      </trkpt>
      <trkpt lat="48.40866" lon="7.3394">
        <ele>655.6</ele>
        <time>2023-07-23T10:51:13Z</time>
      </trkpt>
      <trkpt lat="48.40867" lon="7.3394">
        <ele>655.7</ele>
        <time>2023-07-23T10:51:14Z</time>
      </trkpt>
      <trkpt lat="48.4087" lon="7.33941">
        <ele>656</ele>
        <time>2023-07-23T10:51:15Z</time>
      </trkpt>
      <trkpt lat="48.40871" lon="7.33942">
        <ele>656.1</ele>
        <time>2023-07-23T10:51:16Z</time>
      </trkpt>
      <trkpt lat="48.40874" lon="7.33943">
        <ele>656.4</ele>
        <time>2023-07-23T10:51:17Z</time>
      </trkpt>
      <trkpt lat="48.40875" lon="7.33943">
        <ele>656.5</ele>
        <time>2023-07-23T10:51:18Z</time>
      </trkpt>
      <trkpt lat="48.40878" lon="7.33944">
        <ele>656.7</ele>
        <time>2023-07-23T10:51:19Z</time>
      </trkpt>
      <trkpt lat="48.40879" lon="7.33945">
        <ele>656.8</ele>
        <time>2023-07-23T10:51:20Z</time>
      </trkpt>
      <trkpt lat="48.40882" lon="7.33947">
        <ele>657.1</ele>
        <time>2023-07-23T10:51:21Z</time>
      </trkpt>
      <trkpt lat="48.40883" lon="7.33948">
        <ele>657.2</ele>
        <time>2023-07-23T10:51:22Z</time>
      </trkpt>
      <trkpt lat="48.40885" lon="7.33949">
        <ele>657.4</ele>
        <time>2023-07-23T10:51:23Z</time>
      </trkpt>
      <trkpt lat="48.40886" lon="7.3395">
        <ele>657.6</ele>
        <time>2023-07-23T10:51:24Z</time>
      </trkpt>
      <trkpt lat="48.40888" lon="7.33952">
        <ele>657.8</ele>
        <time>2023-07-23T10:51:25Z</time>
      </trkpt>
      <trkpt lat="48.40889" lon="7.33953">
        <ele>657.9</ele>
        <time>2023-07-23T10:51:26Z</time>
      </trkpt>
      <trkpt lat="48.40891" lon="7.33955">
        <ele>658.2</ele>
        <time>2023-07-23T10:51:27Z</time>
      </trkpt>
      <trkpt lat="48.40892" lon="7.33956">
        <ele>658.3</ele>
        <time>2023-07-23T10:51:28Z</time>
      </trkpt>
      <trkpt lat="48.40895" lon="7.33958">
        <ele>658.6</ele>
        <time>2023-07-23T10:51:29Z</time>
      </trkpt>
      <trkpt lat="48.40895" lon="7.33959">
        <ele>658.6</ele>
        <time>2023-07-23T10:51:30Z</time>
      </trkpt>
      <trkpt lat="48.40897" lon="7.33962">
        <ele>658.9</ele>
        <time>2023-07-23T10:51:31Z</time>
      </trkpt>
      <trkpt lat="48.40898" lon="7.33964">
        <ele>659</ele>
        <time>2023-07-23T10:51:32Z</time>
      </trkpt>
      <trkpt lat="48.409" lon="7.33967">
        <ele>659.3</ele>
        <time>2023-07-23T10:51:33Z</time>
      </trkpt>
      <trkpt lat="48.409" lon="7.33968">
        <ele>659.4</ele>
        <time>2023-07-23T10:51:34Z</time>
      </trkpt>
      <trkpt lat="48.40902" lon="7.33971">
        <ele>659.7</ele>
        <time>2023-07-23T10:51:35Z</time>
      </trkpt>
      <trkpt lat="48.40903" lon="7.33972">
        <ele>659.8</ele>
        <time>2023-07-23T10:51:36Z</time>
      </trkpt>
      <trkpt lat="48.40905" lon="7.33976">
        <ele>660.1</ele>
        <time>2023-07-23T10:51:37Z</time>
      </trkpt>
      <trkpt lat="48.40906" lon="7.33977">
        <ele>660.2</ele>
        <time>2023-07-23T10:51:38Z</time>
      </trkpt>
      <trkpt lat="48.40908" lon="7.3398">
        <ele>660.5</ele>
        <time>2023-07-23T10:51:39Z</time>
      </trkpt>
      <trkpt lat="48.40908" lon="7.33981">
        <ele>660.6</ele>
        <time>2023-07-23T10:51:40Z</time>
      </trkpt>
      <trkpt lat="48.4091" lon="7.33984">
        <ele>660.8</ele>
        <time>2023-07-23T10:51:41Z</time>
      </trkpt>
      <trkpt lat="48.40911" lon="7.33985">
        <ele>660.9</ele>
        <time>2023-07-23T10:51:42Z</time>
      </trkpt>
      <trkpt lat="48.40913" lon="7.33988">
        <ele>661.2</ele>
        <time>2023-07-23T10:51:43Z</time>
      </trkpt>
      <trkpt lat="48.40914" lon="7.33989">
        <ele>661.3</ele>
        <time>2023-07-23T10:51:44Z</time>
      </trkpt>
      <trkpt lat="48.40916" lon="7.33991">
        <ele>661.6</ele>
        <time>2023-07-23T10:51:45Z</time>
      </trkpt>
      <trkpt lat="48.40917" lon="7.33992">
        <ele>661.7</ele>
        <time>2023-07-23T10:51:46Z</time>
      </trkpt>
      <trkpt lat="48.40918" lon="7.33995">
        <ele>662</ele>
        <time>2023-07-23T10:51:47Z</time>
      </trkpt>
      <trkpt lat="48.40919" lon="7.33996">
        <ele>662</ele>
        <time>2023-07-23T10:51:48Z</time>
      </trkpt>
      <trkpt lat="48.40921" lon="7.33998">
        <ele>662.2</ele>
        <time>2023-07-23T10:51:49Z</time>
      </trkpt>
      <trkpt lat="48.40922" lon="7.33999">
        <ele>662.4</ele>
        <time>2023-07-23T10:51:50Z</time>
      </trkpt>
      <trkpt lat="48.40925" lon="7.34001">
        <ele>662.6</ele>
        <time>2023-07-23T10:51:51Z</time>
      </trkpt>
      <trkpt lat="48.40925" lon="7.34001">
        <ele>662.7</ele>
        <time>2023-07-23T10:51:52Z</time>
      </trkpt>
      <trkpt lat="48.40927" lon="7.34003">
        <ele>662.9</ele>
        <time>2023-07-23T10:51:53Z</time>
      </trkpt>
      <trkpt lat="48.40928" lon="7.34004">
        <ele>663</ele>
        <time>2023-07-23T10:51:54Z</time>
      </trkpt>
      <trkpt lat="48.40931" lon="7.34005">
        <ele>663.3</ele>
        <time>2023-07-23T10:51:55Z</time>
      </trkpt>
      <trkpt lat="48.40932" lon="7.34006">
        <ele>663.4</ele>
        <time>2023-07-23T10:51:56Z</time>
      </trkpt>
      <trkpt lat="48.40935" lon="7.34007">
        <ele>663.7</ele>
        <time>2023-07-23T10:51:57Z</time>
      </trkpt>
      <trkpt lat="48.40936" lon="7.34007">
        <ele>663.8</ele>
        <time>2023-07-23T10:51:58Z</time>
      </trkpt>
      <trkpt lat="48.40939" lon="7.34008">
        <ele>664</ele>
        <time>2023-07-23T10:51:59Z</time>
      </trkpt>
      <trkpt lat="48.4094" lon="7.34008">
        <ele>664.1</ele>
        <time>2023-07-23T10:52:00Z</time>
      </trkpt>
      <trkpt lat="48.40942" lon="7.34009">
        <ele>664.3</ele>
        <time>2023-07-23T10:52:01Z</time>
      </trkpt>
      <trkpt lat="48.40944" lon="7.34009">
        <ele>664.4</ele>
        <time>2023-07-23T10:52:03Z</time>
      </trkpt>
      <trkpt lat="48.40945" lon="7.34009">
        <ele>664.6</ele>
        <time>2023-07-23T10:52:04Z</time>
      </trkpt>
      <trkpt lat="48.40947" lon="7.34009">
        <ele>664.7</ele>
        <time>2023-07-23T10:52:05Z</time>
      </trkpt>
      <trkpt lat="48.4095" lon="7.3401">
        <ele>665</ele>
        <time>2023-07-23T10:52:06Z</time>
      </trkpt>
      <trkpt lat="48.40951" lon="7.34009">
        <ele>665</ele>
        <time>2023-07-23T10:52:07Z</time>
      </trkpt>
      <trkpt lat="48.40954" lon="7.34009">
        <ele>665.3</ele>
        <time>2023-07-23T10:52:08Z</time>
      </trkpt>
      <trkpt lat="48.40955" lon="7.34009">
        <ele>665.3</ele>
        <time>2023-07-23T10:52:09Z</time>
      </trkpt>
      <trkpt lat="48.40958" lon="7.34009">
        <ele>665.6</ele>
        <time>2023-07-23T10:52:10Z</time>
      </trkpt>
      <trkpt lat="48.40959" lon="7.34009">
        <ele>665.7</ele>
        <time>2023-07-23T10:52:11Z</time>
      </trkpt>
      <trkpt lat="48.40962" lon="7.34008">
        <ele>665.9</ele>
        <time>2023-07-23T10:52:12Z</time>
      </trkpt>
      <trkpt lat="48.40963" lon="7.34008">
        <ele>666</ele>
        <time>2023-07-23T10:52:13Z</time>
      </trkpt>
      <trkpt lat="48.40966" lon="7.34006">
        <ele>666.2</ele>
        <time>2023-07-23T10:52:14Z</time>
      </trkpt>
      <trkpt lat="48.40967" lon="7.34006">
        <ele>666.2</ele>
        <time>2023-07-23T10:52:15Z</time>
      </trkpt>
      <trkpt lat="48.4097" lon="7.34005">
        <ele>666.5</ele>
        <time>2023-07-23T10:52:16Z</time>
      </trkpt>
      <trkpt lat="48.40971" lon="7.34004">
        <ele>666.5</ele>
        <time>2023-07-23T10:52:17Z</time>
      </trkpt>
      <trkpt lat="48.40974" lon="7.34003">
        <ele>666.8</ele>
        <time>2023-07-23T10:52:18Z</time>
      </trkpt>
      <trkpt lat="48.40975" lon="7.34002">
        <ele>666.9</ele>
        <time>2023-07-23T10:52:19Z</time>
      </trkpt>
      <trkpt lat="48.40978" lon="7.34">
        <ele>667.1</ele>
        <time>2023-07-23T10:52:20Z</time>
      </trkpt>
      <trkpt lat="48.40979" lon="7.33999">
        <ele>667.2</ele>
        <time>2023-07-23T10:52:21Z</time>
      </trkpt>
      <trkpt lat="48.40982" lon="7.33998">
        <ele>667.4</ele>
        <time>2023-07-23T10:52:22Z</time>
      </trkpt>
      <trkpt lat="48.40983" lon="7.33997">
        <ele>667.5</ele>
        <time>2023-07-23T10:52:23Z</time>
      </trkpt>
      <trkpt lat="48.40986" lon="7.33995">
        <ele>667.7</ele>
        <time>2023-07-23T10:52:24Z</time>
      </trkpt>
      <trkpt lat="48.40987" lon="7.33995">
        <ele>667.8</ele>
        <time>2023-07-23T10:52:25Z</time>
      </trkpt>
      <trkpt lat="48.4099" lon="7.33994">
        <ele>668</ele>
        <time>2023-07-23T10:52:26Z</time>
      </trkpt>
      <trkpt lat="48.40991" lon="7.33993">
        <ele>668.1</ele>
        <time>2023-07-23T10:52:27Z</time>
      </trkpt>
      <trkpt lat="48.40993" lon="7.33992">
        <ele>668.3</ele>
        <time>2023-07-23T10:52:28Z</time>
      </trkpt>
      <trkpt lat="48.40994" lon="7.33991">
        <ele>668.4</ele>
        <time>2023-07-23T10:52:29Z</time>
      </trkpt>
      <trkpt lat="48.40997" lon="7.3399">
        <ele>668.6</ele>
        <time>2023-07-23T10:52:30Z</time>
      </trkpt>
      <trkpt lat="48.40998" lon="7.33989">
        <ele>668.7</ele>
        <time>2023-07-23T10:52:31Z</time>
      </trkpt>
      <trkpt lat="48.41001" lon="7.33987">
        <ele>668.9</ele>
        <time>2023-07-23T10:52:32Z</time>
      </trkpt>
      <trkpt lat="48.41002" lon="7.33987">
        <ele>669</ele>
        <time>2023-07-23T10:52:33Z</time>
      </trkpt>
      <trkpt lat="48.41005" lon="7.33986">
        <ele>669.2</ele>
        <time>2023-07-23T10:52:34Z</time>
      </trkpt>
      <trkpt lat="48.41006" lon="7.33985">
        <ele>669.3</ele>
        <time>2023-07-23T10:52:35Z</time>
      </trkpt>
      <trkpt lat="48.4101" lon="7.33983">
        <ele>669.6</ele>
        <time>2023-07-23T10:52:36Z</time>
      </trkpt>
      <trkpt lat="48.41013" lon="7.33982">
        <ele>669.9</ele>
        <time>2023-07-23T10:52:37Z</time>
      </trkpt>
      <trkpt lat="48.41014" lon="7.33982">
        <ele>670</ele>
        <time>2023-07-23T10:52:38Z</time>
      </trkpt>
      <trkpt lat="48.41017" lon="7.3398">
        <ele>670.3</ele>
        <time>2023-07-23T10:52:39Z</time>
      </trkpt>
      <trkpt lat="48.41017" lon="7.3398">
        <ele>670.3</ele>
        <time>2023-07-23T10:52:40Z</time>
      </trkpt>
      <trkpt lat="48.4102" lon="7.33978">
        <ele>670.6</ele>
        <time>2023-07-23T10:52:41Z</time>
      </trkpt>
      <trkpt lat="48.41021" lon="7.33978">
        <ele>670.7</ele>
        <time>2023-07-23T10:52:42Z</time>
      </trkpt>
      <trkpt lat="48.41024" lon="7.33977">
        <ele>670.9</ele>
        <time>2023-07-23T10:52:43Z</time>
      </trkpt>
      <trkpt lat="48.41025" lon="7.33976">
        <ele>671</ele>
        <time>2023-07-23T10:52:44Z</time>
      </trkpt>
      <trkpt lat="48.41028" lon="7.33975">
        <ele>671.3</ele>
        <time>2023-07-23T10:52:45Z</time>
      </trkpt>
      <trkpt lat="48.41029" lon="7.33975">
        <ele>671.4</ele>
        <time>2023-07-23T10:52:46Z</time>
      </trkpt>
      <trkpt lat="48.41032" lon="7.33975">
        <ele>671.7</ele>
        <time>2023-07-23T10:52:47Z</time>
      </trkpt>
      <trkpt lat="48.41033" lon="7.33974">
        <ele>671.7</ele>
        <time>2023-07-23T10:52:48Z</time>
      </trkpt>
      <trkpt lat="48.41036" lon="7.33973">
        <ele>672</ele>
        <time>2023-07-23T10:52:49Z</time>
      </trkpt>
      <trkpt lat="48.41037" lon="7.33973">
        <ele>672.1</ele>
        <time>2023-07-23T10:52:50Z</time>
      </trkpt>
      <trkpt lat="48.41039" lon="7.33973">
        <ele>672.4</ele>
        <time>2023-07-23T10:52:51Z</time>
      </trkpt>
      <trkpt lat="48.4104" lon="7.33973">
        <ele>672.4</ele>
        <time>2023-07-23T10:52:52Z</time>
      </trkpt>
      <trkpt lat="48.41043" lon="7.33972">
        <ele>672.7</ele>
        <time>2023-07-23T10:52:53Z</time>
      </trkpt>
      <trkpt lat="48.41044" lon="7.33971">
        <ele>672.8</ele>
        <time>2023-07-23T10:52:54Z</time>
      </trkpt>
      <trkpt lat="48.41047" lon="7.33971">
        <ele>673.1</ele>
        <time>2023-07-23T10:52:55Z</time>
      </trkpt>
      <trkpt lat="48.41048" lon="7.33971">
        <ele>673.2</ele>
        <time>2023-07-23T10:52:56Z</time>
      </trkpt>
      <trkpt lat="48.41051" lon="7.3397">
        <ele>673.5</ele>
        <time>2023-07-23T10:52:57Z</time>
      </trkpt>
      <trkpt lat="48.41052" lon="7.3397">
        <ele>673.6</ele>
        <time>2023-07-23T10:52:58Z</time>
      </trkpt>
      <trkpt lat="48.41054" lon="7.3397">
        <ele>673.7</ele>
        <time>2023-07-23T10:52:59Z</time>
      </trkpt>
      <trkpt lat="48.41055" lon="7.3397">
        <ele>673.9</ele>
        <time>2023-07-23T10:53:00Z</time>
      </trkpt>
      <trkpt lat="48.41057" lon="7.3397">
        <ele>674.1</ele>
        <time>2023-07-23T10:53:01Z</time>
      </trkpt>
      <trkpt lat="48.41059" lon="7.3397">
        <ele>674.2</ele>
        <time>2023-07-23T10:53:02Z</time>
      </trkpt>
      <trkpt lat="48.41062" lon="7.33969">
        <ele>674.5</ele>
        <time>2023-07-23T10:53:03Z</time>
      </trkpt>
      <trkpt lat="48.41063" lon="7.33969">
        <ele>674.6</ele>
        <time>2023-07-23T10:53:04Z</time>
      </trkpt>
      <trkpt lat="48.41064" lon="7.3397">
        <ele>674.8</ele>
        <time>2023-07-23T10:53:05Z</time>
      </trkpt>
      <trkpt lat="48.41066" lon="7.3397">
        <ele>675</ele>
        <time>2023-07-23T10:53:06Z</time>
      </trkpt>
      <trkpt lat="48.41069" lon="7.3397">
        <ele>675.2</ele>
        <time>2023-07-23T10:53:07Z</time>
      </trkpt>
      <trkpt lat="48.4107" lon="7.33969">
        <ele>675.3</ele>
        <time>2023-07-23T10:53:08Z</time>
      </trkpt>
      <trkpt lat="48.41072" lon="7.3397">
        <ele>675.6</ele>
        <time>2023-07-23T10:53:09Z</time>
      </trkpt>
      <trkpt lat="48.41074" lon="7.3397">
        <ele>675.7</ele>
        <time>2023-07-23T10:53:10Z</time>
      </trkpt>
      <trkpt lat="48.41076" lon="7.3397">
        <ele>676</ele>
        <time>2023-07-23T10:53:11Z</time>
      </trkpt>
      <trkpt lat="48.41078" lon="7.3397">
        <ele>676.1</ele>
        <time>2023-07-23T10:53:12Z</time>
      </trkpt>
      <trkpt lat="48.41081" lon="7.33971">
        <ele>676.3</ele>
        <time>2023-07-23T10:53:13Z</time>
      </trkpt>
      <trkpt lat="48.41081" lon="7.33971">
        <ele>676.4</ele>
        <time>2023-07-23T10:53:14Z</time>
      </trkpt>
      <trkpt lat="48.41085" lon="7.33971">
        <ele>676.7</ele>
        <time>2023-07-23T10:53:15Z</time>
      </trkpt>
      <trkpt lat="48.41085" lon="7.33971">
        <ele>676.8</ele>
        <time>2023-07-23T10:53:16Z</time>
      </trkpt>
      <trkpt lat="48.41088" lon="7.33972">
        <ele>677.1</ele>
        <time>2023-07-23T10:53:17Z</time>
      </trkpt>
      <trkpt lat="48.41089" lon="7.33972">
        <ele>677.2</ele>
        <time>2023-07-23T10:53:18Z</time>
      </trkpt>
      <trkpt lat="48.41091" lon="7.33972">
        <ele>677.3</ele>
        <time>2023-07-23T10:53:19Z</time>
      </trkpt>
      <trkpt lat="48.41093" lon="7.33972">
        <ele>677.5</ele>
        <time>2023-07-23T10:53:20Z</time>
      </trkpt>
      <trkpt lat="48.41095" lon="7.33973">
        <ele>677.7</ele>
        <time>2023-07-23T10:53:21Z</time>
      </trkpt>
      <trkpt lat="48.41096" lon="7.33973">
        <ele>677.8</ele>
        <time>2023-07-23T10:53:22Z</time>
      </trkpt>
      <trkpt lat="48.41099" lon="7.33973">
        <ele>678.1</ele>
        <time>2023-07-23T10:53:23Z</time>
      </trkpt>
      <trkpt lat="48.411" lon="7.33973">
        <ele>678.2</ele>
        <time>2023-07-23T10:53:24Z</time>
      </trkpt>
      <trkpt lat="48.41103" lon="7.33973">
        <ele>678.5</ele>
        <time>2023-07-23T10:53:25Z</time>
      </trkpt>
      <trkpt lat="48.41104" lon="7.33973">
        <ele>678.6</ele>
        <time>2023-07-23T10:53:26Z</time>
      </trkpt>
      <trkpt lat="48.41107" lon="7.33973">
        <ele>678.9</ele>
        <time>2023-07-23T10:53:27Z</time>
      </trkpt>
      <trkpt lat="48.41108" lon="7.33973">
        <ele>679</ele>
        <time>2023-07-23T10:53:28Z</time>
      </trkpt>
      <trkpt lat="48.4111" lon="7.33974">
        <ele>679.2</ele>
        <time>2023-07-23T10:53:29Z</time>
      </trkpt>
      <trkpt lat="48.41111" lon="7.33974">
        <ele>679.3</ele>
        <time>2023-07-23T10:53:30Z</time>
      </trkpt>
      <trkpt lat="48.41114" lon="7.33974">
        <ele>679.6</ele>
        <time>2023-07-23T10:53:31Z</time>
      </trkpt>
      <trkpt lat="48.41115" lon="7.33974">
        <ele>679.7</ele>
        <time>2023-07-23T10:53:32Z</time>
      </trkpt>
      <trkpt lat="48.41118" lon="7.33974">
        <ele>680</ele>
        <time>2023-07-23T10:53:33Z</time>
      </trkpt>
      <trkpt lat="48.41119" lon="7.33974">
        <ele>680.1</ele>
        <time>2023-07-23T10:53:34Z</time>
      </trkpt>
      <trkpt lat="48.41122" lon="7.33973">
        <ele>680.4</ele>
        <time>2023-07-23T10:53:35Z</time>
      </trkpt>
      <trkpt lat="48.41123" lon="7.33973">
        <ele>680.5</ele>
        <time>2023-07-23T10:53:36Z</time>
      </trkpt>
      <trkpt lat="48.41126" lon="7.33973">
        <ele>680.8</ele>
        <time>2023-07-23T10:53:37Z</time>
      </trkpt>
      <trkpt lat="48.41127" lon="7.33973">
        <ele>680.9</ele>
        <time>2023-07-23T10:53:38Z</time>
      </trkpt>
      <trkpt lat="48.4113" lon="7.33972">
        <ele>681.2</ele>
        <time>2023-07-23T10:53:39Z</time>
      </trkpt>
      <trkpt lat="48.41131" lon="7.33972">
        <ele>681.3</ele>
        <time>2023-07-23T10:53:40Z</time>
      </trkpt>
      <trkpt lat="48.41134" lon="7.33973">
        <ele>681.6</ele>
        <time>2023-07-23T10:53:41Z</time>
      </trkpt>
      <trkpt lat="48.41135" lon="7.33973">
        <ele>681.7</ele>
        <time>2023-07-23T10:53:42Z</time>
      </trkpt>
      <trkpt lat="48.41138" lon="7.33972">
        <ele>682</ele>
        <time>2023-07-23T10:53:43Z</time>
      </trkpt>
      <trkpt lat="48.41139" lon="7.33972">
        <ele>682.1</ele>
        <time>2023-07-23T10:53:44Z</time>
      </trkpt>
      <trkpt lat="48.41143" lon="7.33971">
        <ele>682.4</ele>
        <time>2023-07-23T10:53:45Z</time>
      </trkpt>
      <trkpt lat="48.41144" lon="7.33971">
        <ele>682.5</ele>
        <time>2023-07-23T10:53:46Z</time>
      </trkpt>
      <trkpt lat="48.41147" lon="7.33971">
        <ele>682.9</ele>
        <time>2023-07-23T10:53:47Z</time>
      </trkpt>
      <trkpt lat="48.41148" lon="7.3397">
        <ele>682.9</ele>
        <time>2023-07-23T10:53:48Z</time>
      </trkpt>
      <trkpt lat="48.41151" lon="7.3397">
        <ele>683.3</ele>
        <time>2023-07-23T10:53:49Z</time>
      </trkpt>
      <trkpt lat="48.41152" lon="7.3397">
        <ele>683.4</ele>
        <time>2023-07-23T10:53:50Z</time>
      </trkpt>
      <trkpt lat="48.41156" lon="7.33969">
        <ele>683.7</ele>
        <time>2023-07-23T10:53:51Z</time>
      </trkpt>
      <trkpt lat="48.41157" lon="7.33969">
        <ele>683.8</ele>
        <time>2023-07-23T10:53:52Z</time>
      </trkpt>
      <trkpt lat="48.4116" lon="7.33969">
        <ele>684.1</ele>
        <time>2023-07-23T10:53:53Z</time>
      </trkpt>
      <trkpt lat="48.41161" lon="7.33969">
        <ele>684.2</ele>
        <time>2023-07-23T10:53:54Z</time>
      </trkpt>
      <trkpt lat="48.41164" lon="7.33969">
        <ele>684.5</ele>
        <time>2023-07-23T10:53:55Z</time>
      </trkpt>
      <trkpt lat="48.41165" lon="7.33969">
        <ele>684.6</ele>
        <time>2023-07-23T10:53:56Z</time>
      </trkpt>
      <trkpt lat="48.41168" lon="7.33968">
        <ele>684.8</ele>
        <time>2023-07-23T10:53:57Z</time>
      </trkpt>
      <trkpt lat="48.4117" lon="7.33969">
        <ele>685</ele>
        <time>2023-07-23T10:53:58Z</time>
      </trkpt>
      <trkpt lat="48.41173" lon="7.33968">
        <ele>685.2</ele>
        <time>2023-07-23T10:53:59Z</time>
      </trkpt>
      <trkpt lat="48.41174" lon="7.33968">
        <ele>685.3</ele>
        <time>2023-07-23T10:54:00Z</time>
      </trkpt>
      <trkpt lat="48.41177" lon="7.33968">
        <ele>685.6</ele>
        <time>2023-07-23T10:54:01Z</time>
      </trkpt>
      <trkpt lat="48.41178" lon="7.33968">
        <ele>685.7</ele>
        <time>2023-07-23T10:54:02Z</time>
      </trkpt>
      <trkpt lat="48.41181" lon="7.33968">
        <ele>686</ele>
        <time>2023-07-23T10:54:03Z</time>
      </trkpt>
      <trkpt lat="48.41182" lon="7.33969">
        <ele>686.1</ele>
        <time>2023-07-23T10:54:04Z</time>
      </trkpt>
      <trkpt lat="48.41186" lon="7.33969">
        <ele>686.4</ele>
        <time>2023-07-23T10:54:05Z</time>
      </trkpt>
      <trkpt lat="48.41187" lon="7.33969">
        <ele>686.5</ele>
        <time>2023-07-23T10:54:06Z</time>
      </trkpt>
      <trkpt lat="48.41189" lon="7.3397">
        <ele>686.7</ele>
        <time>2023-07-23T10:54:07Z</time>
      </trkpt>
      <trkpt lat="48.41191" lon="7.3397">
        <ele>686.9</ele>
        <time>2023-07-23T10:54:09Z</time>
      </trkpt>
      <trkpt lat="48.41194" lon="7.3397">
        <ele>687.1</ele>
        <time>2023-07-23T10:54:10Z</time>
      </trkpt>
      <trkpt lat="48.41195" lon="7.3397">
        <ele>687.2</ele>
        <time>2023-07-23T10:54:11Z</time>
      </trkpt>
      <trkpt lat="48.41198" lon="7.33971">
        <ele>687.5</ele>
        <time>2023-07-23T10:54:12Z</time>
      </trkpt>
      <trkpt lat="48.41199" lon="7.33972">
        <ele>687.6</ele>
        <time>2023-07-23T10:54:13Z</time>
      </trkpt>
      <trkpt lat="48.41202" lon="7.33973">
        <ele>687.9</ele>
        <time>2023-07-23T10:54:14Z</time>
      </trkpt>
      <trkpt lat="48.41203" lon="7.33973">
        <ele>688</ele>
        <time>2023-07-23T10:54:15Z</time>
      </trkpt>
      <trkpt lat="48.41206" lon="7.33974">
        <ele>688.3</ele>
        <time>2023-07-23T10:54:16Z</time>
      </trkpt>
      <trkpt lat="48.41207" lon="7.33974">
        <ele>688.4</ele>
        <time>2023-07-23T10:54:17Z</time>
      </trkpt>
      <trkpt lat="48.4121" lon="7.33975">
        <ele>688.7</ele>
        <time>2023-07-23T10:54:18Z</time>
      </trkpt>
      <trkpt lat="48.41211" lon="7.33976">
        <ele>688.8</ele>
        <time>2023-07-23T10:54:19Z</time>
      </trkpt>
      <trkpt lat="48.41215" lon="7.33976">
        <ele>689.1</ele>
        <time>2023-07-23T10:54:20Z</time>
      </trkpt>
      <trkpt lat="48.41215" lon="7.33977">
        <ele>689.2</ele>
        <time>2023-07-23T10:54:21Z</time>
      </trkpt>
      <trkpt lat="48.41218" lon="7.33978">
        <ele>689.5</ele>
        <time>2023-07-23T10:54:22Z</time>
      </trkpt>
      <trkpt lat="48.4122" lon="7.33978">
        <ele>689.6</ele>
        <time>2023-07-23T10:54:23Z</time>
      </trkpt>
      <trkpt lat="48.41222" lon="7.33979">
        <ele>689.8</ele>
        <time>2023-07-23T10:54:24Z</time>
      </trkpt>
      <trkpt lat="48.41223" lon="7.33979">
        <ele>689.9</ele>
        <time>2023-07-23T10:54:25Z</time>
      </trkpt>
      <trkpt lat="48.41226" lon="7.3398">
        <ele>690.2</ele>
        <time>2023-07-23T10:54:26Z</time>
      </trkpt>
      <trkpt lat="48.41227" lon="7.3398">
        <ele>690.3</ele>
        <time>2023-07-23T10:54:27Z</time>
      </trkpt>
      <trkpt lat="48.4123" lon="7.33981">
        <ele>690.6</ele>
        <time>2023-07-23T10:54:28Z</time>
      </trkpt>
      <trkpt lat="48.41231" lon="7.33981">
        <ele>690.7</ele>
        <time>2023-07-23T10:54:29Z</time>
      </trkpt>
      <trkpt lat="48.41234" lon="7.33982">
        <ele>690.9</ele>
        <time>2023-07-23T10:54:30Z</time>
      </trkpt>
      <trkpt lat="48.41234" lon="7.33982">
        <ele>691</ele>
        <time>2023-07-23T10:54:31Z</time>
      </trkpt>
      <trkpt lat="48.41237" lon="7.33983">
        <ele>691.3</ele>
        <time>2023-07-23T10:54:32Z</time>
      </trkpt>
      <trkpt lat="48.41238" lon="7.33983">
        <ele>691.4</ele>
        <time>2023-07-23T10:54:33Z</time>
      </trkpt>
      <trkpt lat="48.41241" lon="7.33984">
        <ele>691.7</ele>
        <time>2023-07-23T10:54:34Z</time>
      </trkpt>
      <trkpt lat="48.41243" lon="7.33983">
        <ele>691.8</ele>
        <time>2023-07-23T10:54:35Z</time>
      </trkpt>
      <trkpt lat="48.41245" lon="7.33984">
        <ele>692</ele>
        <time>2023-07-23T10:54:36Z</time>
      </trkpt>
      <trkpt lat="48.41246" lon="7.33984">
        <ele>692.1</ele>
        <time>2023-07-23T10:54:37Z</time>
      </trkpt>
      <trkpt lat="48.41249" lon="7.33984">
        <ele>692.4</ele>
        <time>2023-07-23T10:54:38Z</time>
      </trkpt>
      <trkpt lat="48.4125" lon="7.33983">
        <ele>692.5</ele>
        <time>2023-07-23T10:54:39Z</time>
      </trkpt>
      <trkpt lat="48.41253" lon="7.33983">
        <ele>692.7</ele>
        <time>2023-07-23T10:54:40Z</time>
      </trkpt>
      <trkpt lat="48.41254" lon="7.33983">
        <ele>692.8</ele>
        <time>2023-07-23T10:54:41Z</time>
      </trkpt>
      <trkpt lat="48.41259" lon="7.33984">
        <ele>693.2</ele>
        <time>2023-07-23T10:54:42Z</time>
      </trkpt>
      <trkpt lat="48.41262" lon="7.33984">
        <ele>693.5</ele>
        <time>2023-07-23T10:54:43Z</time>
      </trkpt>
      <trkpt lat="48.41262" lon="7.33984">
        <ele>693.5</ele>
        <time>2023-07-23T10:54:44Z</time>
      </trkpt>
      <trkpt lat="48.41265" lon="7.33984">
        <ele>693.8</ele>
        <time>2023-07-23T10:54:45Z</time>
      </trkpt>
      <trkpt lat="48.41266" lon="7.33984">
        <ele>693.9</ele>
        <time>2023-07-23T10:54:46Z</time>
      </trkpt>
      <trkpt lat="48.41268" lon="7.33983">
        <ele>694.1</ele>
        <time>2023-07-23T10:54:47Z</time>
      </trkpt>
      <trkpt lat="48.4127" lon="7.33984">
        <ele>694.2</ele>
        <time>2023-07-23T10:54:48Z</time>
      </trkpt>
      <trkpt lat="48.41273" lon="7.33984">
        <ele>694.5</ele>
        <time>2023-07-23T10:54:49Z</time>
      </trkpt>
      <trkpt lat="48.41274" lon="7.33984">
        <ele>694.6</ele>
        <time>2023-07-23T10:54:50Z</time>
      </trkpt>
      <trkpt lat="48.41277" lon="7.33984">
        <ele>694.9</ele>
        <time>2023-07-23T10:54:51Z</time>
      </trkpt>
      <trkpt lat="48.41277" lon="7.33984">
        <ele>694.9</ele>
        <time>2023-07-23T10:54:52Z</time>
      </trkpt>
      <trkpt lat="48.41281" lon="7.33984">
        <ele>695.2</ele>
        <time>2023-07-23T10:54:53Z</time>
      </trkpt>
      <trkpt lat="48.41282" lon="7.33984">
        <ele>695.3</ele>
        <time>2023-07-23T10:54:54Z</time>
      </trkpt>
      <trkpt lat="48.41285" lon="7.33984">
        <ele>695.6</ele>
        <time>2023-07-23T10:54:55Z</time>
      </trkpt>
      <trkpt lat="48.41286" lon="7.33984">
        <ele>695.7</ele>
        <time>2023-07-23T10:54:56Z</time>
      </trkpt>
      <trkpt lat="48.41289" lon="7.33984">
        <ele>696</ele>
        <time>2023-07-23T10:54:57Z</time>
      </trkpt>
      <trkpt lat="48.4129" lon="7.33984">
        <ele>696.1</ele>
        <time>2023-07-23T10:54:58Z</time>
      </trkpt>
      <trkpt lat="48.41293" lon="7.33984">
        <ele>696.4</ele>
        <time>2023-07-23T10:54:59Z</time>
      </trkpt>
      <trkpt lat="48.41294" lon="7.33984">
        <ele>696.5</ele>
        <time>2023-07-23T10:55:00Z</time>
      </trkpt>
      <trkpt lat="48.41297" lon="7.33984">
        <ele>696.8</ele>
        <time>2023-07-23T10:55:01Z</time>
      </trkpt>
      <trkpt lat="48.41298" lon="7.33984">
        <ele>696.9</ele>
        <time>2023-07-23T10:55:02Z</time>
      </trkpt>
      <trkpt lat="48.41301" lon="7.33984">
        <ele>697.2</ele>
        <time>2023-07-23T10:55:03Z</time>
      </trkpt>
      <trkpt lat="48.41302" lon="7.33984">
        <ele>697.3</ele>
        <time>2023-07-23T10:55:04Z</time>
      </trkpt>
      <trkpt lat="48.41305" lon="7.33985">
        <ele>697.6</ele>
        <time>2023-07-23T10:55:05Z</time>
      </trkpt>
      <trkpt lat="48.41306" lon="7.33985">
        <ele>697.7</ele>
        <time>2023-07-23T10:55:06Z</time>
      </trkpt>
      <trkpt lat="48.41309" lon="7.33985">
        <ele>698</ele>
        <time>2023-07-23T10:55:07Z</time>
      </trkpt>
      <trkpt lat="48.4131" lon="7.33985">
        <ele>698.1</ele>
        <time>2023-07-23T10:55:08Z</time>
      </trkpt>
      <trkpt lat="48.41313" lon="7.33985">
        <ele>698.4</ele>
        <time>2023-07-23T10:55:09Z</time>
      </trkpt>
      <trkpt lat="48.41314" lon="7.33985">
        <ele>698.5</ele>
        <time>2023-07-23T10:55:10Z</time>
      </trkpt>
      <trkpt lat="48.41317" lon="7.33986">
        <ele>698.8</ele>
        <time>2023-07-23T10:55:11Z</time>
      </trkpt>
      <trkpt lat="48.41318" lon="7.33986">
        <ele>698.9</ele>
        <time>2023-07-23T10:55:12Z</time>
      </trkpt>
      <trkpt lat="48.41321" lon="7.33986">
        <ele>699.2</ele>
        <time>2023-07-23T10:55:13Z</time>
      </trkpt>
      <trkpt lat="48.41322" lon="7.33986">
        <ele>699.3</ele>
        <time>2023-07-23T10:55:14Z</time>
      </trkpt>
      <trkpt lat="48.41325" lon="7.33986">
        <ele>699.6</ele>
        <time>2023-07-23T10:55:15Z</time>
      </trkpt>
      <trkpt lat="48.41326" lon="7.33986">
        <ele>699.7</ele>
        <time>2023-07-23T10:55:16Z</time>
      </trkpt>
      <trkpt lat="48.41329" lon="7.33986">
        <ele>700</ele>
        <time>2023-07-23T10:55:17Z</time>
      </trkpt>
      <trkpt lat="48.4133" lon="7.33986">
        <ele>700.1</ele>
        <time>2023-07-23T10:55:18Z</time>
      </trkpt>
      <trkpt lat="48.41333" lon="7.33986">
        <ele>700.3</ele>
        <time>2023-07-23T10:55:19Z</time>
      </trkpt>
      <trkpt lat="48.41334" lon="7.33986">
        <ele>700.4</ele>
        <time>2023-07-23T10:55:20Z</time>
      </trkpt>
      <trkpt lat="48.41337" lon="7.33987">
        <ele>700.8</ele>
        <time>2023-07-23T10:55:21Z</time>
      </trkpt>
      <trkpt lat="48.41338" lon="7.33987">
        <ele>700.9</ele>
        <time>2023-07-23T10:55:22Z</time>
      </trkpt>
      <trkpt lat="48.41341" lon="7.33987">
        <ele>701.2</ele>
        <time>2023-07-23T10:55:23Z</time>
      </trkpt>
      <trkpt lat="48.41342" lon="7.33988">
        <ele>701.3</ele>
        <time>2023-07-23T10:55:24Z</time>
      </trkpt>
      <trkpt lat="48.41345" lon="7.33988">
        <ele>701.6</ele>
        <time>2023-07-23T10:55:25Z</time>
      </trkpt>
      <trkpt lat="48.41346" lon="7.33988">
        <ele>701.7</ele>
        <time>2023-07-23T10:55:26Z</time>
      </trkpt>
      <trkpt lat="48.41349" lon="7.33988">
        <ele>702</ele>
        <time>2023-07-23T10:55:27Z</time>
      </trkpt>
      <trkpt lat="48.4135" lon="7.33989">
        <ele>702.1</ele>
        <time>2023-07-23T10:55:28Z</time>
      </trkpt>
      <trkpt lat="48.41353" lon="7.33989">
        <ele>702.4</ele>
        <time>2023-07-23T10:55:29Z</time>
      </trkpt>
      <trkpt lat="48.41354" lon="7.33989">
        <ele>702.5</ele>
        <time>2023-07-23T10:55:30Z</time>
      </trkpt>
      <trkpt lat="48.41356" lon="7.33991">
        <ele>702.8</ele>
        <time>2023-07-23T10:55:31Z</time>
      </trkpt>
      <trkpt lat="48.41357" lon="7.33991">
        <ele>702.9</ele>
        <time>2023-07-23T10:55:32Z</time>
      </trkpt>
      <trkpt lat="48.4136" lon="7.33993">
        <ele>703.3</ele>
        <time>2023-07-23T10:55:33Z</time>
      </trkpt>
      <trkpt lat="48.41361" lon="7.33994">
        <ele>703.4</ele>
        <time>2023-07-23T10:55:34Z</time>
      </trkpt>
      <trkpt lat="48.41364" lon="7.33996">
        <ele>703.7</ele>
        <time>2023-07-23T10:55:35Z</time>
      </trkpt>
      <trkpt lat="48.41365" lon="7.33996">
        <ele>703.8</ele>
        <time>2023-07-23T10:55:36Z</time>
      </trkpt>
      <trkpt lat="48.41368" lon="7.33999">
        <ele>704.2</ele>
        <time>2023-07-23T10:55:37Z</time>
      </trkpt>
      <trkpt lat="48.41369" lon="7.34">
        <ele>704.3</ele>
        <time>2023-07-23T10:55:38Z</time>
      </trkpt>
      <trkpt lat="48.41371" lon="7.34002">
        <ele>704.6</ele>
        <time>2023-07-23T10:55:39Z</time>
      </trkpt>
      <trkpt lat="48.41372" lon="7.34003">
        <ele>704.7</ele>
        <time>2023-07-23T10:55:40Z</time>
      </trkpt>
      <trkpt lat="48.41375" lon="7.34006">
        <ele>705.1</ele>
        <time>2023-07-23T10:55:41Z</time>
      </trkpt>
      <trkpt lat="48.41376" lon="7.34007">
        <ele>705.2</ele>
        <time>2023-07-23T10:55:42Z</time>
      </trkpt>
      <trkpt lat="48.41378" lon="7.34009">
        <ele>705.5</ele>
        <time>2023-07-23T10:55:43Z</time>
      </trkpt>
      <trkpt lat="48.41379" lon="7.3401">
        <ele>705.6</ele>
        <time>2023-07-23T10:55:44Z</time>
      </trkpt>
      <trkpt lat="48.41381" lon="7.34014">
        <ele>705.9</ele>
        <time>2023-07-23T10:55:45Z</time>
      </trkpt>
      <trkpt lat="48.41381" lon="7.34015">
        <ele>706</ele>
        <time>2023-07-23T10:55:46Z</time>
      </trkpt>
      <trkpt lat="48.41383" lon="7.34019">
        <ele>706.3</ele>
        <time>2023-07-23T10:55:47Z</time>
      </trkpt>
      <trkpt lat="48.41384" lon="7.3402">
        <ele>706.4</ele>
        <time>2023-07-23T10:55:48Z</time>
      </trkpt>
      <trkpt lat="48.41386" lon="7.34023">
        <ele>706.7</ele>
        <time>2023-07-23T10:55:49Z</time>
      </trkpt>
      <trkpt lat="48.41387" lon="7.34024">
        <ele>706.8</ele>
        <time>2023-07-23T10:55:50Z</time>
      </trkpt>
      <trkpt lat="48.41389" lon="7.34027">
        <ele>707.1</ele>
        <time>2023-07-23T10:55:51Z</time>
      </trkpt>
      <trkpt lat="48.4139" lon="7.34028">
        <ele>707.2</ele>
        <time>2023-07-23T10:55:52Z</time>
      </trkpt>
      <trkpt lat="48.41392" lon="7.34031">
        <ele>707.6</ele>
        <time>2023-07-23T10:55:53Z</time>
      </trkpt>
      <trkpt lat="48.41393" lon="7.34032">
        <ele>707.7</ele>
        <time>2023-07-23T10:55:54Z</time>
      </trkpt>
      <trkpt lat="48.41394" lon="7.34036">
        <ele>708</ele>
        <time>2023-07-23T10:55:55Z</time>
      </trkpt>
      <trkpt lat="48.41395" lon="7.34037">
        <ele>708.1</ele>
        <time>2023-07-23T10:55:56Z</time>
      </trkpt>
      <trkpt lat="48.41397" lon="7.3404">
        <ele>708.4</ele>
        <time>2023-07-23T10:55:57Z</time>
      </trkpt>
      <trkpt lat="48.41398" lon="7.34042">
        <ele>708.5</ele>
        <time>2023-07-23T10:55:58Z</time>
      </trkpt>
      <trkpt lat="48.414" lon="7.34045">
        <ele>708.8</ele>
        <time>2023-07-23T10:55:59Z</time>
      </trkpt>
      <trkpt lat="48.41401" lon="7.34046">
        <ele>708.9</ele>
        <time>2023-07-23T10:56:00Z</time>
      </trkpt>
      <trkpt lat="48.41403" lon="7.34049">
        <ele>709.3</ele>
        <time>2023-07-23T10:56:01Z</time>
      </trkpt>
      <trkpt lat="48.41404" lon="7.3405">
        <ele>709.4</ele>
        <time>2023-07-23T10:56:02Z</time>
      </trkpt>
      <trkpt lat="48.41406" lon="7.34053">
        <ele>709.7</ele>
        <time>2023-07-23T10:56:03Z</time>
      </trkpt>
      <trkpt lat="48.41407" lon="7.34054">
        <ele>709.8</ele>
        <time>2023-07-23T10:56:04Z</time>
      </trkpt>
      <trkpt lat="48.41409" lon="7.34057">
        <ele>710.1</ele>
        <time>2023-07-23T10:56:05Z</time>
      </trkpt>
      <trkpt lat="48.4141" lon="7.34058">
        <ele>710.2</ele>
        <time>2023-07-23T10:56:06Z</time>
      </trkpt>
      <trkpt lat="48.41412" lon="7.3406">
        <ele>710.6</ele>
        <time>2023-07-23T10:56:07Z</time>
      </trkpt>
      <trkpt lat="48.41413" lon="7.3406">
        <ele>710.7</ele>
        <time>2023-07-23T10:56:08Z</time>
      </trkpt>
      <trkpt lat="48.41416" lon="7.34063">
        <ele>711</ele>
        <time>2023-07-23T10:56:09Z</time>
      </trkpt>
      <trkpt lat="48.41417" lon="7.34063">
        <ele>711.1</ele>
        <time>2023-07-23T10:56:10Z</time>
      </trkpt>
      <trkpt lat="48.41419" lon="7.34064">
        <ele>711.4</ele>
        <time>2023-07-23T10:56:11Z</time>
      </trkpt>
      <trkpt lat="48.4142" lon="7.34065">
        <ele>711.5</ele>
        <time>2023-07-23T10:56:12Z</time>
      </trkpt>
      <trkpt lat="48.41423" lon="7.34066">
        <ele>711.8</ele>
        <time>2023-07-23T10:56:13Z</time>
      </trkpt>
      <trkpt lat="48.41424" lon="7.34066">
        <ele>711.9</ele>
        <time>2023-07-23T10:56:15Z</time>
      </trkpt>
      <trkpt lat="48.41426" lon="7.34067">
        <ele>712.1</ele>
        <time>2023-07-23T10:56:16Z</time>
      </trkpt>
      <trkpt lat="48.41427" lon="7.34067">
        <ele>712.2</ele>
        <time>2023-07-23T10:56:17Z</time>
      </trkpt>
      <trkpt lat="48.4143" lon="7.34068">
        <ele>712.5</ele>
        <time>2023-07-23T10:56:18Z</time>
      </trkpt>
      <trkpt lat="48.41431" lon="7.34068">
        <ele>712.6</ele>
        <time>2023-07-23T10:56:19Z</time>
      </trkpt>
      <trkpt lat="48.41432" lon="7.34067">
        <ele>712.8</ele>
        <time>2023-07-23T10:56:20Z</time>
      </trkpt>
      <trkpt lat="48.41434" lon="7.34067">
        <ele>713</ele>
        <time>2023-07-23T10:56:21Z</time>
      </trkpt>
      <trkpt lat="48.41437" lon="7.34068">
        <ele>713.3</ele>
        <time>2023-07-23T10:56:22Z</time>
      </trkpt>
      <trkpt lat="48.41438" lon="7.34068">
        <ele>713.4</ele>
        <time>2023-07-23T10:56:23Z</time>
      </trkpt>
      <trkpt lat="48.4144" lon="7.34067">
        <ele>713.6</ele>
        <time>2023-07-23T10:56:24Z</time>
      </trkpt>
      <trkpt lat="48.41442" lon="7.34067">
        <ele>713.8</ele>
        <time>2023-07-23T10:56:25Z</time>
      </trkpt>
      <trkpt lat="48.41444" lon="7.34066">
        <ele>714.1</ele>
        <time>2023-07-23T10:56:26Z</time>
      </trkpt>
      <trkpt lat="48.41445" lon="7.34066">
        <ele>714.2</ele>
        <time>2023-07-23T10:56:27Z</time>
      </trkpt>
      <trkpt lat="48.41448" lon="7.34065">
        <ele>714.5</ele>
        <time>2023-07-23T10:56:28Z</time>
      </trkpt>
      <trkpt lat="48.41449" lon="7.34065">
        <ele>714.6</ele>
        <time>2023-07-23T10:56:29Z</time>
      </trkpt>
      <trkpt lat="48.41452" lon="7.34064">
        <ele>714.9</ele>
        <time>2023-07-23T10:56:30Z</time>
      </trkpt>
      <trkpt lat="48.41453" lon="7.34064">
        <ele>715</ele>
        <time>2023-07-23T10:56:31Z</time>
      </trkpt>
      <trkpt lat="48.41456" lon="7.34063">
        <ele>715.3</ele>
        <time>2023-07-23T10:56:32Z</time>
      </trkpt>
      <trkpt lat="48.41457" lon="7.34063">
        <ele>715.4</ele>
        <time>2023-07-23T10:56:33Z</time>
      </trkpt>
      <trkpt lat="48.4146" lon="7.34062">
        <ele>715.7</ele>
        <time>2023-07-23T10:56:34Z</time>
      </trkpt>
      <trkpt lat="48.41462" lon="7.34061">
        <ele>715.8</ele>
        <time>2023-07-23T10:56:35Z</time>
      </trkpt>
      <trkpt lat="48.41465" lon="7.3406">
        <ele>716.1</ele>
        <time>2023-07-23T10:56:36Z</time>
      </trkpt>
      <trkpt lat="48.41466" lon="7.34059">
        <ele>716.2</ele>
        <time>2023-07-23T10:56:37Z</time>
      </trkpt>
      <trkpt lat="48.41469" lon="7.34058">
        <ele>716.5</ele>
        <time>2023-07-23T10:56:38Z</time>
      </trkpt>
      <trkpt lat="48.4147" lon="7.34057">
        <ele>716.6</ele>
        <time>2023-07-23T10:56:39Z</time>
      </trkpt>
      <trkpt lat="48.41473" lon="7.34055">
        <ele>716.9</ele>
        <time>2023-07-23T10:56:40Z</time>
      </trkpt>
      <trkpt lat="48.41474" lon="7.34054">
        <ele>717</ele>
        <time>2023-07-23T10:56:41Z</time>
      </trkpt>
      <trkpt lat="48.41477" lon="7.34052">
        <ele>717.3</ele>
        <time>2023-07-23T10:56:42Z</time>
      </trkpt>
      <trkpt lat="48.41478" lon="7.34051">
        <ele>717.4</ele>
        <time>2023-07-23T10:56:43Z</time>
      </trkpt>
      <trkpt lat="48.41481" lon="7.34047">
        <ele>717.8</ele>
        <time>2023-07-23T10:56:44Z</time>
      </trkpt>
      <trkpt lat="48.41484" lon="7.34043">
        <ele>718.1</ele>
        <time>2023-07-23T10:56:45Z</time>
      </trkpt>
      <trkpt lat="48.41484" lon="7.34041">
        <ele>718.2</ele>
        <time>2023-07-23T10:56:46Z</time>
      </trkpt>
      <trkpt lat="48.41486" lon="7.34038">
        <ele>718.4</ele>
        <time>2023-07-23T10:56:47Z</time>
      </trkpt>
      <trkpt lat="48.41487" lon="7.34036">
        <ele>718.5</ele>
        <time>2023-07-23T10:56:48Z</time>
      </trkpt>
      <trkpt lat="48.41488" lon="7.34033">
        <ele>718.7</ele>
        <time>2023-07-23T10:56:49Z</time>
      </trkpt>
      <trkpt lat="48.41489" lon="7.34031">
        <ele>718.8</ele>
        <time>2023-07-23T10:56:50Z</time>
      </trkpt>
      <trkpt lat="48.41491" lon="7.34027">
        <ele>719.1</ele>
        <time>2023-07-23T10:56:51Z</time>
      </trkpt>
      <trkpt lat="48.41491" lon="7.34026">
        <ele>719.2</ele>
        <time>2023-07-23T10:56:52Z</time>
      </trkpt>
      <trkpt lat="48.41493" lon="7.34022">
        <ele>719.4</ele>
        <time>2023-07-23T10:56:53Z</time>
      </trkpt>
      <trkpt lat="48.41493" lon="7.3402">
        <ele>719.5</ele>
        <time>2023-07-23T10:56:54Z</time>
      </trkpt>
      <trkpt lat="48.41495" lon="7.34016">
        <ele>719.8</ele>
        <time>2023-07-23T10:56:55Z</time>
      </trkpt>
      <trkpt lat="48.41496" lon="7.34015">
        <ele>719.9</ele>
        <time>2023-07-23T10:56:56Z</time>
      </trkpt>
      <trkpt lat="48.41497" lon="7.34011">
        <ele>720.1</ele>
        <time>2023-07-23T10:56:57Z</time>
      </trkpt>
      <trkpt lat="48.41498" lon="7.34009">
        <ele>720.2</ele>
        <time>2023-07-23T10:56:58Z</time>
      </trkpt>
      <trkpt lat="48.41499" lon="7.34005">
        <ele>720.5</ele>
        <time>2023-07-23T10:56:59Z</time>
      </trkpt>
      <trkpt lat="48.415" lon="7.34004">
        <ele>720.6</ele>
        <time>2023-07-23T10:57:00Z</time>
      </trkpt>
      <trkpt lat="48.41502" lon="7.33999">
        <ele>720.8</ele>
        <time>2023-07-23T10:57:01Z</time>
      </trkpt>
      <trkpt lat="48.41502" lon="7.33998">
        <ele>721</ele>
        <time>2023-07-23T10:57:02Z</time>
      </trkpt>
      <trkpt lat="48.41504" lon="7.33994">
        <ele>721.3</ele>
        <time>2023-07-23T10:57:03Z</time>
      </trkpt>
      <trkpt lat="48.41504" lon="7.33992">
        <ele>721.4</ele>
        <time>2023-07-23T10:57:04Z</time>
      </trkpt>
      <trkpt lat="48.41506" lon="7.33988">
        <ele>721.6</ele>
        <time>2023-07-23T10:57:05Z</time>
      </trkpt>
      <trkpt lat="48.41507" lon="7.33987">
        <ele>721.7</ele>
        <time>2023-07-23T10:57:06Z</time>
      </trkpt>
      <trkpt lat="48.41508" lon="7.33983">
        <ele>722</ele>
        <time>2023-07-23T10:57:07Z</time>
      </trkpt>
      <trkpt lat="48.41509" lon="7.33982">
        <ele>722.1</ele>
        <time>2023-07-23T10:57:08Z</time>
      </trkpt>
      <trkpt lat="48.4151" lon="7.33978">
        <ele>722.3</ele>
        <time>2023-07-23T10:57:09Z</time>
      </trkpt>
      <trkpt lat="48.41511" lon="7.33977">
        <ele>722.5</ele>
        <time>2023-07-23T10:57:10Z</time>
      </trkpt>
      <trkpt lat="48.41513" lon="7.33973">
        <ele>722.7</ele>
        <time>2023-07-23T10:57:11Z</time>
      </trkpt>
      <trkpt lat="48.41514" lon="7.33972">
        <ele>722.8</ele>
        <time>2023-07-23T10:57:12Z</time>
      </trkpt>
      <trkpt lat="48.41515" lon="7.33968">
        <ele>723.1</ele>
        <time>2023-07-23T10:57:13Z</time>
      </trkpt>
      <trkpt lat="48.41516" lon="7.33967">
        <ele>723.2</ele>
        <time>2023-07-23T10:57:14Z</time>
      </trkpt>
      <trkpt lat="48.41518" lon="7.33963">
        <ele>723.5</ele>
        <time>2023-07-23T10:57:15Z</time>
      </trkpt>
      <trkpt lat="48.41519" lon="7.33962">
        <ele>723.5</ele>
        <time>2023-07-23T10:57:16Z</time>
      </trkpt>
      <trkpt lat="48.41521" lon="7.33959">
        <ele>723.8</ele>
        <time>2023-07-23T10:57:17Z</time>
      </trkpt>
      <trkpt lat="48.41521" lon="7.33958">
        <ele>723.9</ele>
        <time>2023-07-23T10:57:18Z</time>
      </trkpt>
      <trkpt lat="48.41524" lon="7.33955">
        <ele>724.1</ele>
        <time>2023-07-23T10:57:19Z</time>
      </trkpt>
      <trkpt lat="48.41525" lon="7.33954">
        <ele>724.2</ele>
        <time>2023-07-23T10:57:20Z</time>
      </trkpt>
      <trkpt lat="48.41527" lon="7.33951">
        <ele>724.5</ele>
        <time>2023-07-23T10:57:21Z</time>
      </trkpt>
      <trkpt lat="48.41528" lon="7.3395">
        <ele>724.6</ele>
        <time>2023-07-23T10:57:22Z</time>
      </trkpt>
      <trkpt lat="48.4153" lon="7.33947">
        <ele>724.8</ele>
        <time>2023-07-23T10:57:23Z</time>
      </trkpt>
      <trkpt lat="48.41531" lon="7.33946">
        <ele>724.9</ele>
        <time>2023-07-23T10:57:24Z</time>
      </trkpt>
      <trkpt lat="48.41533" lon="7.33943">
        <ele>725.2</ele>
        <time>2023-07-23T10:57:25Z</time>
      </trkpt>
      <trkpt lat="48.41534" lon="7.33942">
        <ele>725.2</ele>
        <time>2023-07-23T10:57:26Z</time>
      </trkpt>
      <trkpt lat="48.41537" lon="7.3394">
        <ele>725.5</ele>
        <time>2023-07-23T10:57:27Z</time>
      </trkpt>
      <trkpt lat="48.41538" lon="7.33939">
        <ele>725.6</ele>
        <time>2023-07-23T10:57:28Z</time>
      </trkpt>
      <trkpt lat="48.41541" lon="7.33936">
        <ele>725.9</ele>
        <time>2023-07-23T10:57:29Z</time>
      </trkpt>
      <trkpt lat="48.41541" lon="7.33935">
        <ele>726</ele>
        <time>2023-07-23T10:57:30Z</time>
      </trkpt>
      <trkpt lat="48.41544" lon="7.33932">
        <ele>726.2</ele>
        <time>2023-07-23T10:57:31Z</time>
      </trkpt>
      <trkpt lat="48.41545" lon="7.3393">
        <ele>726.3</ele>
        <time>2023-07-23T10:57:32Z</time>
      </trkpt>
      <trkpt lat="48.41548" lon="7.33927">
        <ele>726.6</ele>
        <time>2023-07-23T10:57:33Z</time>
      </trkpt>
      <trkpt lat="48.41549" lon="7.33926">
        <ele>726.7</ele>
        <time>2023-07-23T10:57:34Z</time>
      </trkpt>
      <trkpt lat="48.41552" lon="7.33923">
        <ele>726.9</ele>
        <time>2023-07-23T10:57:35Z</time>
      </trkpt>
      <trkpt lat="48.41553" lon="7.33922">
        <ele>727</ele>
        <time>2023-07-23T10:57:36Z</time>
      </trkpt>
      <trkpt lat="48.41556" lon="7.33919">
        <ele>727.2</ele>
        <time>2023-07-23T10:57:37Z</time>
      </trkpt>
      <trkpt lat="48.41557" lon="7.33918">
        <ele>727.3</ele>
        <time>2023-07-23T10:57:38Z</time>
      </trkpt>
      <trkpt lat="48.4156" lon="7.33916">
        <ele>727.5</ele>
        <time>2023-07-23T10:57:39Z</time>
      </trkpt>
      <trkpt lat="48.4156" lon="7.33915">
        <ele>727.6</ele>
        <time>2023-07-23T10:57:40Z</time>
      </trkpt>
      <trkpt lat="48.41564" lon="7.33912">
        <ele>727.8</ele>
        <time>2023-07-23T10:57:41Z</time>
      </trkpt>
      <trkpt lat="48.41565" lon="7.33911">
        <ele>727.9</ele>
        <time>2023-07-23T10:57:42Z</time>
      </trkpt>
      <trkpt lat="48.41568" lon="7.33909">
        <ele>728.1</ele>
        <time>2023-07-23T10:57:43Z</time>
      </trkpt>
      <trkpt lat="48.41569" lon="7.33908">
        <ele>728.2</ele>
        <time>2023-07-23T10:57:44Z</time>
      </trkpt>
      <trkpt lat="48.41572" lon="7.33905">
        <ele>728.4</ele>
        <time>2023-07-23T10:57:45Z</time>
      </trkpt>
      <trkpt lat="48.41573" lon="7.33905">
        <ele>728.5</ele>
        <time>2023-07-23T10:57:46Z</time>
      </trkpt>
      <trkpt lat="48.41577" lon="7.33903">
        <ele>728.7</ele>
        <time>2023-07-23T10:57:47Z</time>
      </trkpt>
      <trkpt lat="48.41578" lon="7.33903">
        <ele>728.8</ele>
        <time>2023-07-23T10:57:48Z</time>
      </trkpt>
      <trkpt lat="48.41582" lon="7.33901">
        <ele>729</ele>
        <time>2023-07-23T10:57:49Z</time>
      </trkpt>
      <trkpt lat="48.41583" lon="7.33901">
        <ele>729.1</ele>
        <time>2023-07-23T10:57:50Z</time>
      </trkpt>
      <trkpt lat="48.41587" lon="7.339">
        <ele>729.3</ele>
        <time>2023-07-23T10:57:51Z</time>
      </trkpt>
      <trkpt lat="48.41588" lon="7.339">
        <ele>729.4</ele>
        <time>2023-07-23T10:57:52Z</time>
      </trkpt>
      <trkpt lat="48.41591" lon="7.339">
        <ele>729.6</ele>
        <time>2023-07-23T10:57:53Z</time>
      </trkpt>
      <trkpt lat="48.41593" lon="7.339">
        <ele>729.7</ele>
        <time>2023-07-23T10:57:54Z</time>
      </trkpt>
      <trkpt lat="48.41596" lon="7.339">
        <ele>729.9</ele>
        <time>2023-07-23T10:57:55Z</time>
      </trkpt>
      <trkpt lat="48.41597" lon="7.339">
        <ele>729.9</ele>
        <time>2023-07-23T10:57:56Z</time>
      </trkpt>
      <trkpt lat="48.41601" lon="7.339">
        <ele>730.2</ele>
        <time>2023-07-23T10:57:57Z</time>
      </trkpt>
      <trkpt lat="48.41602" lon="7.339">
        <ele>730.2</ele>
        <time>2023-07-23T10:57:58Z</time>
      </trkpt>
      <trkpt lat="48.41605" lon="7.33899">
        <ele>730.4</ele>
        <time>2023-07-23T10:57:59Z</time>
      </trkpt>
      <trkpt lat="48.41606" lon="7.33899">
        <ele>730.5</ele>
        <time>2023-07-23T10:58:00Z</time>
      </trkpt>
      <trkpt lat="48.41609" lon="7.33897">
        <ele>730.7</ele>
        <time>2023-07-23T10:58:01Z</time>
      </trkpt>
      <trkpt lat="48.4161" lon="7.33897">
        <ele>730.7</ele>
        <time>2023-07-23T10:58:02Z</time>
      </trkpt>
      <trkpt lat="48.41614" lon="7.33899">
        <ele>730.9</ele>
        <time>2023-07-23T10:58:03Z</time>
      </trkpt>
      <trkpt lat="48.41615" lon="7.33899">
        <ele>731</ele>
        <time>2023-07-23T10:58:04Z</time>
      </trkpt>
      <trkpt lat="48.41618" lon="7.339">
        <ele>731.2</ele>
        <time>2023-07-23T10:58:05Z</time>
      </trkpt>
      <trkpt lat="48.41619" lon="7.339">
        <ele>731.3</ele>
        <time>2023-07-23T10:58:06Z</time>
      </trkpt>
      <trkpt lat="48.41622" lon="7.33899">
        <ele>731.4</ele>
        <time>2023-07-23T10:58:07Z</time>
      </trkpt>
      <trkpt lat="48.41626" lon="7.339">
        <ele>731.6</ele>
        <time>2023-07-23T10:58:08Z</time>
      </trkpt>
      <trkpt lat="48.41627" lon="7.339">
        <ele>731.7</ele>
        <time>2023-07-23T10:58:09Z</time>
      </trkpt>
      <trkpt lat="48.4163" lon="7.33901">
        <ele>731.8</ele>
        <time>2023-07-23T10:58:10Z</time>
      </trkpt>
      <trkpt lat="48.41632" lon="7.33901">
        <ele>731.9</ele>
        <time>2023-07-23T10:58:11Z</time>
      </trkpt>
      <trkpt lat="48.41635" lon="7.33902">
        <ele>732.1</ele>
        <time>2023-07-23T10:58:12Z</time>
      </trkpt>
      <trkpt lat="48.41638" lon="7.33902">
        <ele>732.2</ele>
        <time>2023-07-23T10:58:13Z</time>
      </trkpt>
      <trkpt lat="48.41639" lon="7.33902">
        <ele>732.3</ele>
        <time>2023-07-23T10:58:14Z</time>
      </trkpt>
      <trkpt lat="48.41642" lon="7.33904">
        <ele>732.5</ele>
        <time>2023-07-23T10:58:15Z</time>
      </trkpt>
      <trkpt lat="48.41643" lon="7.33904">
        <ele>732.5</ele>
        <time>2023-07-23T10:58:16Z</time>
      </trkpt>
      <trkpt lat="48.41646" lon="7.33906">
        <ele>732.7</ele>
        <time>2023-07-23T10:58:17Z</time>
      </trkpt>
      <trkpt lat="48.41647" lon="7.33907">
        <ele>732.8</ele>
        <time>2023-07-23T10:58:18Z</time>
      </trkpt>
      <trkpt lat="48.41649" lon="7.33909">
        <ele>732.9</ele>
        <time>2023-07-23T10:58:19Z</time>
      </trkpt>
      <trkpt lat="48.4165" lon="7.33911">
        <ele>733</ele>
        <time>2023-07-23T10:58:21Z</time>
      </trkpt>
      <trkpt lat="48.41653" lon="7.33912">
        <ele>733.1</ele>
        <time>2023-07-23T10:58:22Z</time>
      </trkpt>
      <trkpt lat="48.41655" lon="7.33912">
        <ele>733.2</ele>
        <time>2023-07-23T10:58:23Z</time>
      </trkpt>
      <trkpt lat="48.41656" lon="7.33913">
        <ele>733.3</ele>
        <time>2023-07-23T10:58:24Z</time>
      </trkpt>
      <trkpt lat="48.4166" lon="7.33915">
        <ele>733.5</ele>
        <time>2023-07-23T10:58:25Z</time>
      </trkpt>
      <trkpt lat="48.4166" lon="7.33915">
        <ele>733.5</ele>
        <time>2023-07-23T10:58:26Z</time>
      </trkpt>
      <trkpt lat="48.41663" lon="7.33917">
        <ele>733.7</ele>
        <time>2023-07-23T10:58:27Z</time>
      </trkpt>
      <trkpt lat="48.41665" lon="7.33917">
        <ele>733.8</ele>
        <time>2023-07-23T10:58:28Z</time>
      </trkpt>
      <trkpt lat="48.41668" lon="7.33918">
        <ele>734</ele>
        <time>2023-07-23T10:58:29Z</time>
      </trkpt>
      <trkpt lat="48.41669" lon="7.33918">
        <ele>734</ele>
        <time>2023-07-23T10:58:30Z</time>
      </trkpt>
      <trkpt lat="48.41673" lon="7.33919">
        <ele>734.3</ele>
        <time>2023-07-23T10:58:31Z</time>
      </trkpt>
      <trkpt lat="48.41674" lon="7.33919">
        <ele>734.3</ele>
        <time>2023-07-23T10:58:32Z</time>
      </trkpt>
      <trkpt lat="48.41678" lon="7.33919">
        <ele>734.6</ele>
        <time>2023-07-23T10:58:33Z</time>
      </trkpt>
      <trkpt lat="48.41679" lon="7.33919">
        <ele>734.6</ele>
        <time>2023-07-23T10:58:34Z</time>
      </trkpt>
      <trkpt lat="48.41682" lon="7.33918">
        <ele>734.8</ele>
        <time>2023-07-23T10:58:35Z</time>
      </trkpt>
      <trkpt lat="48.41685" lon="7.33918">
        <ele>735</ele>
        <time>2023-07-23T10:58:36Z</time>
      </trkpt>
      <trkpt lat="48.41686" lon="7.33918">
        <ele>735.1</ele>
        <time>2023-07-23T10:58:37Z</time>
      </trkpt>
      <trkpt lat="48.41689" lon="7.33917">
        <ele>735.3</ele>
        <time>2023-07-23T10:58:38Z</time>
      </trkpt>
      <trkpt lat="48.41692" lon="7.33917">
        <ele>735.5</ele>
        <time>2023-07-23T10:58:39Z</time>
      </trkpt>
      <trkpt lat="48.41693" lon="7.33916">
        <ele>735.6</ele>
        <time>2023-07-23T10:58:40Z</time>
      </trkpt>
      <trkpt lat="48.41697" lon="7.33916">
        <ele>735.8</ele>
        <time>2023-07-23T10:58:41Z</time>
      </trkpt>
      <trkpt lat="48.41698" lon="7.33915">
        <ele>735.9</ele>
        <time>2023-07-23T10:58:42Z</time>
      </trkpt>
      <trkpt lat="48.41702" lon="7.33915">
        <ele>736.1</ele>
        <time>2023-07-23T10:58:43Z</time>
      </trkpt>
      <trkpt lat="48.41703" lon="7.33916">
        <ele>736.2</ele>
        <time>2023-07-23T10:58:44Z</time>
      </trkpt>
      <trkpt lat="48.41705" lon="7.33915">
        <ele>736.3</ele>
        <time>2023-07-23T10:58:45Z</time>
      </trkpt>
      <trkpt lat="48.41709" lon="7.33914">
        <ele>736.5</ele>
        <time>2023-07-23T10:58:46Z</time>
      </trkpt>
      <trkpt lat="48.4171" lon="7.33914">
        <ele>736.6</ele>
        <time>2023-07-23T10:58:47Z</time>
      </trkpt>
      <trkpt lat="48.41715" lon="7.33914">
        <ele>736.9</ele>
        <time>2023-07-23T10:58:48Z</time>
      </trkpt>
      <trkpt lat="48.41717" lon="7.33914">
        <ele>737</ele>
        <time>2023-07-23T10:58:49Z</time>
      </trkpt>
      <trkpt lat="48.41721" lon="7.33915">
        <ele>737.3</ele>
        <time>2023-07-23T10:58:50Z</time>
      </trkpt>
      <trkpt lat="48.41723" lon="7.33915">
        <ele>737.4</ele>
        <time>2023-07-23T10:58:51Z</time>
      </trkpt>
      <trkpt lat="48.41726" lon="7.33918">
        <ele>737.6</ele>
        <time>2023-07-23T10:58:52Z</time>
      </trkpt>
      <trkpt lat="48.41727" lon="7.33918">
        <ele>737.6</ele>
        <time>2023-07-23T10:58:53Z</time>
      </trkpt>
      <trkpt lat="48.41729" lon="7.33922">
        <ele>737.8</ele>
        <time>2023-07-23T10:58:54Z</time>
      </trkpt>
      <trkpt lat="48.4173" lon="7.33924">
        <ele>737.9</ele>
        <time>2023-07-23T10:58:55Z</time>
      </trkpt>
      <trkpt lat="48.41731" lon="7.33927">
        <ele>738</ele>
        <time>2023-07-23T10:58:56Z</time>
      </trkpt>
      <trkpt lat="48.41734" lon="7.33931">
        <ele>738.2</ele>
        <time>2023-07-23T10:58:57Z</time>
      </trkpt>
      <trkpt lat="48.41735" lon="7.33932">
        <ele>738.3</ele>
        <time>2023-07-23T10:58:58Z</time>
      </trkpt>
      <trkpt lat="48.41736" lon="7.33937">
        <ele>738.5</ele>
        <time>2023-07-23T10:58:59Z</time>
      </trkpt>
      <trkpt lat="48.41736" lon="7.33939">
        <ele>738.6</ele>
        <time>2023-07-23T10:59:00Z</time>
      </trkpt>
      <trkpt lat="48.41736" lon="7.33945">
        <ele>738.8</ele>
        <time>2023-07-23T10:59:01Z</time>
      </trkpt>
      <trkpt lat="48.41736" lon="7.33947">
        <ele>738.8</ele>
        <time>2023-07-23T10:59:02Z</time>
      </trkpt>
      <trkpt lat="48.41735" lon="7.33951">
        <ele>739</ele>
        <time>2023-07-23T10:59:03Z</time>
      </trkpt>
      <trkpt lat="48.41736" lon="7.33956">
        <ele>739.2</ele>
        <time>2023-07-23T10:59:04Z</time>
      </trkpt>
      <trkpt lat="48.41736" lon="7.33958">
        <ele>739.2</ele>
        <time>2023-07-23T10:59:05Z</time>
      </trkpt>
      <trkpt lat="48.41736" lon="7.33964">
        <ele>739.4</ele>
        <time>2023-07-23T10:59:06Z</time>
      </trkpt>
      <trkpt lat="48.41735" lon="7.33966">
        <ele>739.5</ele>
        <time>2023-07-23T10:59:07Z</time>
      </trkpt>
      <trkpt lat="48.41735" lon="7.33971">
        <ele>739.7</ele>
        <time>2023-07-23T10:59:08Z</time>
      </trkpt>
      <trkpt lat="48.41735" lon="7.33977">
        <ele>739.9</ele>
        <time>2023-07-23T10:59:09Z</time>
      </trkpt>
      <trkpt lat="48.41735" lon="7.33978">
        <ele>739.9</ele>
        <time>2023-07-23T10:59:10Z</time>
      </trkpt>
      <trkpt lat="48.41735" lon="7.33984">
        <ele>740.1</ele>
        <time>2023-07-23T10:59:11Z</time>
      </trkpt>
      <trkpt lat="48.41735" lon="7.33986">
        <ele>740.2</ele>
        <time>2023-07-23T10:59:12Z</time>
      </trkpt>
      <trkpt lat="48.41735" lon="7.33992">
        <ele>740.4</ele>
        <time>2023-07-23T10:59:13Z</time>
      </trkpt>
      <trkpt lat="48.41735" lon="7.33993">
        <ele>740.4</ele>
        <time>2023-07-23T10:59:14Z</time>
      </trkpt>
      <trkpt lat="48.41735" lon="7.33999">
        <ele>740.6</ele>
        <time>2023-07-23T10:59:15Z</time>
      </trkpt>
      <trkpt lat="48.41735" lon="7.34001">
        <ele>740.7</ele>
        <time>2023-07-23T10:59:16Z</time>
      </trkpt>
      <trkpt lat="48.41735" lon="7.34006">
        <ele>740.9</ele>
        <time>2023-07-23T10:59:17Z</time>
      </trkpt>
      <trkpt lat="48.41735" lon="7.34008">
        <ele>740.9</ele>
        <time>2023-07-23T10:59:18Z</time>
      </trkpt>
      <trkpt lat="48.41736" lon="7.34014">
        <ele>741.1</ele>
        <time>2023-07-23T10:59:19Z</time>
      </trkpt>
      <trkpt lat="48.41736" lon="7.34016">
        <ele>741.2</ele>
        <time>2023-07-23T10:59:20Z</time>
      </trkpt>
      <trkpt lat="48.41736" lon="7.34021">
        <ele>741.4</ele>
        <time>2023-07-23T10:59:21Z</time>
      </trkpt>
      <trkpt lat="48.41736" lon="7.34023">
        <ele>741.5</ele>
        <time>2023-07-23T10:59:22Z</time>
      </trkpt>
      <trkpt lat="48.41736" lon="7.34029">
        <ele>741.7</ele>
        <time>2023-07-23T10:59:23Z</time>
      </trkpt>
      <trkpt lat="48.41736" lon="7.34031">
        <ele>741.7</ele>
        <time>2023-07-23T10:59:24Z</time>
      </trkpt>
      <trkpt lat="48.41735" lon="7.34036">
        <ele>741.9</ele>
        <time>2023-07-23T10:59:25Z</time>
      </trkpt>
      <trkpt lat="48.41735" lon="7.34038">
        <ele>742</ele>
        <time>2023-07-23T10:59:26Z</time>
      </trkpt>
      <trkpt lat="48.41735" lon="7.34043">
        <ele>742.2</ele>
        <time>2023-07-23T10:59:27Z</time>
      </trkpt>
      <trkpt lat="48.41734" lon="7.34045">
        <ele>742.3</ele>
        <time>2023-07-23T10:59:28Z</time>
      </trkpt>
      <trkpt lat="48.41734" lon="7.3405">
        <ele>742.5</ele>
        <time>2023-07-23T10:59:29Z</time>
      </trkpt>
      <trkpt lat="48.41734" lon="7.34052">
        <ele>742.6</ele>
        <time>2023-07-23T10:59:30Z</time>
      </trkpt>
      <trkpt lat="48.41733" lon="7.34057">
        <ele>742.8</ele>
        <time>2023-07-23T10:59:31Z</time>
      </trkpt>
      <trkpt lat="48.41732" lon="7.34059">
        <ele>742.9</ele>
        <time>2023-07-23T10:59:32Z</time>
      </trkpt>
      <trkpt lat="48.41731" lon="7.34064">
        <ele>743.1</ele>
        <time>2023-07-23T10:59:33Z</time>
      </trkpt>
      <trkpt lat="48.41731" lon="7.34066">
        <ele>743.2</ele>
        <time>2023-07-23T10:59:34Z</time>
      </trkpt>
      <trkpt lat="48.41729" lon="7.34072">
        <ele>743.5</ele>
        <time>2023-07-23T10:59:35Z</time>
      </trkpt>
      <trkpt lat="48.41729" lon="7.34073">
        <ele>743.5</ele>
        <time>2023-07-23T10:59:36Z</time>
      </trkpt>
      <trkpt lat="48.41728" lon="7.34078">
        <ele>743.8</ele>
        <time>2023-07-23T10:59:37Z</time>
      </trkpt>
      <trkpt lat="48.41727" lon="7.3408">
        <ele>743.8</ele>
        <time>2023-07-23T10:59:38Z</time>
      </trkpt>
      <trkpt lat="48.41726" lon="7.34085">
        <ele>744.1</ele>
        <time>2023-07-23T10:59:39Z</time>
      </trkpt>
      <trkpt lat="48.41726" lon="7.34086">
        <ele>744.1</ele>
        <time>2023-07-23T10:59:40Z</time>
      </trkpt>
      <trkpt lat="48.41725" lon="7.34091">
        <ele>744.3</ele>
        <time>2023-07-23T10:59:41Z</time>
      </trkpt>
      <trkpt lat="48.41724" lon="7.34093">
        <ele>744.4</ele>
        <time>2023-07-23T10:59:42Z</time>
      </trkpt>
      <trkpt lat="48.41723" lon="7.34098">
        <ele>744.6</ele>
        <time>2023-07-23T10:59:43Z</time>
      </trkpt>
      <trkpt lat="48.41723" lon="7.34099">
        <ele>744.7</ele>
        <time>2023-07-23T10:59:44Z</time>
      </trkpt>
      <trkpt lat="48.41722" lon="7.34104">
        <ele>744.9</ele>
        <time>2023-07-23T10:59:45Z</time>
      </trkpt>
      <trkpt lat="48.41721" lon="7.34106">
        <ele>745</ele>
        <time>2023-07-23T10:59:46Z</time>
      </trkpt>
      <trkpt lat="48.4172" lon="7.34112">
        <ele>745.2</ele>
        <time>2023-07-23T10:59:47Z</time>
      </trkpt>
      <trkpt lat="48.4172" lon="7.34113">
        <ele>745.2</ele>
        <time>2023-07-23T10:59:48Z</time>
      </trkpt>
      <trkpt lat="48.4172" lon="7.34119">
        <ele>745.4</ele>
        <time>2023-07-23T10:59:49Z</time>
      </trkpt>
      <trkpt lat="48.41719" lon="7.34121">
        <ele>745.5</ele>
        <time>2023-07-23T10:59:50Z</time>
      </trkpt>
      <trkpt lat="48.41719" lon="7.34126">
        <ele>745.7</ele>
        <time>2023-07-23T10:59:51Z</time>
      </trkpt>
      <trkpt lat="48.41719" lon="7.34128">
        <ele>745.7</ele>
        <time>2023-07-23T10:59:52Z</time>
      </trkpt>
      <trkpt lat="48.41719" lon="7.34133">
        <ele>745.9</ele>
        <time>2023-07-23T10:59:53Z</time>
      </trkpt>
      <trkpt lat="48.41719" lon="7.34135">
        <ele>746</ele>
        <time>2023-07-23T10:59:54Z</time>
      </trkpt>
      <trkpt lat="48.41719" lon="7.34141">
        <ele>746.2</ele>
        <time>2023-07-23T10:59:55Z</time>
      </trkpt>
      <trkpt lat="48.41719" lon="7.34143">
        <ele>746.2</ele>
        <time>2023-07-23T10:59:56Z</time>
      </trkpt>
      <trkpt lat="48.4172" lon="7.34149">
        <ele>746.5</ele>
        <time>2023-07-23T10:59:57Z</time>
      </trkpt>
      <trkpt lat="48.4172" lon="7.34151">
        <ele>746.5</ele>
        <time>2023-07-23T10:59:58Z</time>
      </trkpt>
      <trkpt lat="48.4172" lon="7.34157">
        <ele>746.7</ele>
        <time>2023-07-23T10:59:59Z</time>
      </trkpt>
      <trkpt lat="48.4172" lon="7.34159">
        <ele>746.7</ele>
        <time>2023-07-23T11:00:00Z</time>
      </trkpt>
      <trkpt lat="48.41719" lon="7.34164">
        <ele>746.9</ele>
        <time>2023-07-23T11:00:01Z</time>
      </trkpt>
      <trkpt lat="48.41719" lon="7.34166">
        <ele>747</ele>
        <time>2023-07-23T11:00:02Z</time>
      </trkpt>
      <trkpt lat="48.41719" lon="7.34171">
        <ele>747.1</ele>
        <time>2023-07-23T11:00:03Z</time>
      </trkpt>
      <trkpt lat="48.41717" lon="7.34176">
        <ele>747.3</ele>
        <time>2023-07-23T11:00:04Z</time>
      </trkpt>
      <trkpt lat="48.41717" lon="7.34178">
        <ele>747.4</ele>
        <time>2023-07-23T11:00:05Z</time>
      </trkpt>
      <trkpt lat="48.41716" lon="7.34183">
        <ele>747.5</ele>
        <time>2023-07-23T11:00:06Z</time>
      </trkpt>
      <trkpt lat="48.41716" lon="7.34185">
        <ele>747.6</ele>
        <time>2023-07-23T11:00:07Z</time>
      </trkpt>
      <trkpt lat="48.41715" lon="7.3419">
        <ele>747.8</ele>
        <time>2023-07-23T11:00:08Z</time>
      </trkpt>
      <trkpt lat="48.41714" lon="7.34192">
        <ele>747.9</ele>
        <time>2023-07-23T11:00:09Z</time>
      </trkpt>
      <trkpt lat="48.41713" lon="7.34197">
        <ele>748</ele>
        <time>2023-07-23T11:00:10Z</time>
      </trkpt>
      <trkpt lat="48.41712" lon="7.34198">
        <ele>748.1</ele>
        <time>2023-07-23T11:00:11Z</time>
      </trkpt>
      <trkpt lat="48.4171" lon="7.34203">
        <ele>748.3</ele>
        <time>2023-07-23T11:00:12Z</time>
      </trkpt>
      <trkpt lat="48.4171" lon="7.34205">
        <ele>748.4</ele>
        <time>2023-07-23T11:00:13Z</time>
      </trkpt>
      <trkpt lat="48.41708" lon="7.3421">
        <ele>748.6</ele>
        <time>2023-07-23T11:00:14Z</time>
      </trkpt>
      <trkpt lat="48.41708" lon="7.34211">
        <ele>748.6</ele>
        <time>2023-07-23T11:00:15Z</time>
      </trkpt>
      <trkpt lat="48.41706" lon="7.34216">
        <ele>748.8</ele>
        <time>2023-07-23T11:00:16Z</time>
      </trkpt>
      <trkpt lat="48.41705" lon="7.34217">
        <ele>748.9</ele>
        <time>2023-07-23T11:00:17Z</time>
      </trkpt>
      <trkpt lat="48.41703" lon="7.34222">
        <ele>749.1</ele>
        <time>2023-07-23T11:00:18Z</time>
      </trkpt>
      <trkpt lat="48.41703" lon="7.34224">
        <ele>749.2</ele>
        <time>2023-07-23T11:00:19Z</time>
      </trkpt>
      <trkpt lat="48.41701" lon="7.34229">
        <ele>749.5</ele>
        <time>2023-07-23T11:00:20Z</time>
      </trkpt>
      <trkpt lat="48.41701" lon="7.3423">
        <ele>749.5</ele>
        <time>2023-07-23T11:00:21Z</time>
      </trkpt>
      <trkpt lat="48.417" lon="7.34236">
        <ele>749.7</ele>
        <time>2023-07-23T11:00:22Z</time>
      </trkpt>
      <trkpt lat="48.41699" lon="7.34237">
        <ele>749.8</ele>
        <time>2023-07-23T11:00:23Z</time>
      </trkpt>
      <trkpt lat="48.41698" lon="7.34242">
        <ele>750.1</ele>
        <time>2023-07-23T11:00:24Z</time>
      </trkpt>
      <trkpt lat="48.41698" lon="7.34244">
        <ele>750.1</ele>
        <time>2023-07-23T11:00:25Z</time>
      </trkpt>
      <trkpt lat="48.41697" lon="7.3425">
        <ele>750.4</ele>
        <time>2023-07-23T11:00:27Z</time>
      </trkpt>
      <trkpt lat="48.41697" lon="7.34252">
        <ele>750.4</ele>
        <time>2023-07-23T11:00:28Z</time>
      </trkpt>
      <trkpt lat="48.41696" lon="7.34257">
        <ele>750.7</ele>
        <time>2023-07-23T11:00:29Z</time>
      </trkpt>
      <trkpt lat="48.41696" lon="7.34259">
        <ele>750.7</ele>
        <time>2023-07-23T11:00:30Z</time>
      </trkpt>
      <trkpt lat="48.41696" lon="7.34264">
        <ele>750.9</ele>
        <time>2023-07-23T11:00:31Z</time>
      </trkpt>
      <trkpt lat="48.41696" lon="7.34266">
        <ele>751</ele>
        <time>2023-07-23T11:00:32Z</time>
      </trkpt>
      <trkpt lat="48.41695" lon="7.34271">
        <ele>751.2</ele>
        <time>2023-07-23T11:00:33Z</time>
      </trkpt>
      <trkpt lat="48.41695" lon="7.34273">
        <ele>751.3</ele>
        <time>2023-07-23T11:00:34Z</time>
      </trkpt>
      <trkpt lat="48.41695" lon="7.34279">
        <ele>751.5</ele>
        <time>2023-07-23T11:00:35Z</time>
      </trkpt>
      <trkpt lat="48.41695" lon="7.3428">
        <ele>751.6</ele>
        <time>2023-07-23T11:00:36Z</time>
      </trkpt>
      <trkpt lat="48.41694" lon="7.34286">
        <ele>751.8</ele>
        <time>2023-07-23T11:00:37Z</time>
      </trkpt>
      <trkpt lat="48.41694" lon="7.34288">
        <ele>751.9</ele>
        <time>2023-07-23T11:00:38Z</time>
      </trkpt>
      <trkpt lat="48.41694" lon="7.34293">
        <ele>752.1</ele>
        <time>2023-07-23T11:00:39Z</time>
      </trkpt>
      <trkpt lat="48.41694" lon="7.34295">
        <ele>752.2</ele>
        <time>2023-07-23T11:00:40Z</time>
      </trkpt>
      <trkpt lat="48.41693" lon="7.34301">
        <ele>752.5</ele>
        <time>2023-07-23T11:00:41Z</time>
      </trkpt>
      <trkpt lat="48.41693" lon="7.34303">
        <ele>752.5</ele>
        <time>2023-07-23T11:00:42Z</time>
      </trkpt>
      <trkpt lat="48.41693" lon="7.34308">
        <ele>752.8</ele>
        <time>2023-07-23T11:00:43Z</time>
      </trkpt>
      <trkpt lat="48.41693" lon="7.3431">
        <ele>752.9</ele>
        <time>2023-07-23T11:00:44Z</time>
      </trkpt>
      <trkpt lat="48.41692" lon="7.34316">
        <ele>753.2</ele>
        <time>2023-07-23T11:00:45Z</time>
      </trkpt>
      <trkpt lat="48.41692" lon="7.34317">
        <ele>753.3</ele>
        <time>2023-07-23T11:00:46Z</time>
      </trkpt>
      <trkpt lat="48.41691" lon="7.34321">
        <ele>753.5</ele>
        <time>2023-07-23T11:00:47Z</time>
      </trkpt>
      <trkpt lat="48.4169" lon="7.34327">
        <ele>753.7</ele>
        <time>2023-07-23T11:00:48Z</time>
      </trkpt>
      <trkpt lat="48.4169" lon="7.34329">
        <ele>753.8</ele>
        <time>2023-07-23T11:00:49Z</time>
      </trkpt>
      <trkpt lat="48.41689" lon="7.34334">
        <ele>754.1</ele>
        <time>2023-07-23T11:00:50Z</time>
      </trkpt>
      <trkpt lat="48.41688" lon="7.34336">
        <ele>754.2</ele>
        <time>2023-07-23T11:00:51Z</time>
      </trkpt>
      <trkpt lat="48.41687" lon="7.34341">
        <ele>754.5</ele>
        <time>2023-07-23T11:00:52Z</time>
      </trkpt>
      <trkpt lat="48.41686" lon="7.34343">
        <ele>754.6</ele>
        <time>2023-07-23T11:00:53Z</time>
      </trkpt>
      <trkpt lat="48.41685" lon="7.34348">
        <ele>754.8</ele>
        <time>2023-07-23T11:00:54Z</time>
      </trkpt>
      <trkpt lat="48.41684" lon="7.34349">
        <ele>754.9</ele>
        <time>2023-07-23T11:00:55Z</time>
      </trkpt>
      <trkpt lat="48.41683" lon="7.34356">
        <ele>755.3</ele>
        <time>2023-07-23T11:00:56Z</time>
      </trkpt>
      <trkpt lat="48.41681" lon="7.34361">
        <ele>755.5</ele>
        <time>2023-07-23T11:00:57Z</time>
      </trkpt>
      <trkpt lat="48.4168" lon="7.34363">
        <ele>755.6</ele>
        <time>2023-07-23T11:00:58Z</time>
      </trkpt>
      <trkpt lat="48.41679" lon="7.34367">
        <ele>755.8</ele>
        <time>2023-07-23T11:00:59Z</time>
      </trkpt>
      <trkpt lat="48.41679" lon="7.34369">
        <ele>755.9</ele>
        <time>2023-07-23T11:01:00Z</time>
      </trkpt>
      <trkpt lat="48.41677" lon="7.34374">
        <ele>756.2</ele>
        <time>2023-07-23T11:01:01Z</time>
      </trkpt>
      <trkpt lat="48.41677" lon="7.34375">
        <ele>756.2</ele>
        <time>2023-07-23T11:01:02Z</time>
      </trkpt>
      <trkpt lat="48.41674" lon="7.3438">
        <ele>756.5</ele>
        <time>2023-07-23T11:01:03Z</time>
      </trkpt>
      <trkpt lat="48.41674" lon="7.34381">
        <ele>756.6</ele>
        <time>2023-07-23T11:01:04Z</time>
      </trkpt>
      <trkpt lat="48.41672" lon="7.34386">
        <ele>756.9</ele>
        <time>2023-07-23T11:01:05Z</time>
      </trkpt>
      <trkpt lat="48.41672" lon="7.34388">
        <ele>757</ele>
        <time>2023-07-23T11:01:06Z</time>
      </trkpt>
      <trkpt lat="48.4167" lon="7.34393">
        <ele>757.2</ele>
        <time>2023-07-23T11:01:07Z</time>
      </trkpt>
      <trkpt lat="48.41669" lon="7.34394">
        <ele>757.3</ele>
        <time>2023-07-23T11:01:08Z</time>
      </trkpt>
      <trkpt lat="48.41667" lon="7.34399">
        <ele>757.6</ele>
        <time>2023-07-23T11:01:09Z</time>
      </trkpt>
      <trkpt lat="48.41667" lon="7.344">
        <ele>757.7</ele>
        <time>2023-07-23T11:01:10Z</time>
      </trkpt>
      <trkpt lat="48.41665" lon="7.34405">
        <ele>757.9</ele>
        <time>2023-07-23T11:01:11Z</time>
      </trkpt>
      <trkpt lat="48.41665" lon="7.34407">
        <ele>758</ele>
        <time>2023-07-23T11:01:12Z</time>
      </trkpt>
      <trkpt lat="48.41663" lon="7.34411">
        <ele>758.2</ele>
        <time>2023-07-23T11:01:13Z</time>
      </trkpt>
      <trkpt lat="48.41663" lon="7.34412">
        <ele>758.3</ele>
        <time>2023-07-23T11:01:14Z</time>
      </trkpt>
      <trkpt lat="48.41661" lon="7.34416">
        <ele>758.5</ele>
        <time>2023-07-23T11:01:15Z</time>
      </trkpt>
      <trkpt lat="48.4166" lon="7.34418">
        <ele>758.6</ele>
        <time>2023-07-23T11:01:16Z</time>
      </trkpt>
      <trkpt lat="48.41659" lon="7.34422">
        <ele>758.8</ele>
        <time>2023-07-23T11:01:17Z</time>
      </trkpt>
      <trkpt lat="48.41658" lon="7.34423">
        <ele>758.9</ele>
        <time>2023-07-23T11:01:18Z</time>
      </trkpt>
      <trkpt lat="48.41657" lon="7.34428">
        <ele>759.1</ele>
        <time>2023-07-23T11:01:19Z</time>
      </trkpt>
      <trkpt lat="48.41656" lon="7.34429">
        <ele>759.2</ele>
        <time>2023-07-23T11:01:20Z</time>
      </trkpt>
      <trkpt lat="48.41654" lon="7.34434">
        <ele>759.5</ele>
        <time>2023-07-23T11:01:21Z</time>
      </trkpt>
      <trkpt lat="48.41654" lon="7.34435">
        <ele>759.5</ele>
        <time>2023-07-23T11:01:22Z</time>
      </trkpt>
      <trkpt lat="48.41652" lon="7.3444">
        <ele>759.8</ele>
        <time>2023-07-23T11:01:23Z</time>
      </trkpt>
      <trkpt lat="48.41652" lon="7.34442">
        <ele>759.9</ele>
        <time>2023-07-23T11:01:24Z</time>
      </trkpt>
      <trkpt lat="48.4165" lon="7.34446">
        <ele>760.1</ele>
        <time>2023-07-23T11:01:25Z</time>
      </trkpt>
      <trkpt lat="48.4165" lon="7.34448">
        <ele>760.2</ele>
        <time>2023-07-23T11:01:26Z</time>
      </trkpt>
      <trkpt lat="48.41648" lon="7.34453">
        <ele>760.4</ele>
        <time>2023-07-23T11:01:27Z</time>
      </trkpt>
      <trkpt lat="48.41648" lon="7.34454">
        <ele>760.5</ele>
        <time>2023-07-23T11:01:28Z</time>
      </trkpt>
      <trkpt lat="48.41646" lon="7.34459">
        <ele>760.8</ele>
        <time>2023-07-23T11:01:29Z</time>
      </trkpt>
      <trkpt lat="48.41646" lon="7.34461">
        <ele>760.8</ele>
        <time>2023-07-23T11:01:30Z</time>
      </trkpt>
      <trkpt lat="48.41644" lon="7.34466">
        <ele>761.1</ele>
        <time>2023-07-23T11:01:31Z</time>
      </trkpt>
      <trkpt lat="48.41644" lon="7.34467">
        <ele>761.2</ele>
        <time>2023-07-23T11:01:32Z</time>
      </trkpt>
      <trkpt lat="48.41643" lon="7.34472">
        <ele>761.4</ele>
        <time>2023-07-23T11:01:33Z</time>
      </trkpt>
      <trkpt lat="48.41642" lon="7.34474">
        <ele>761.5</ele>
        <time>2023-07-23T11:01:34Z</time>
      </trkpt>
      <trkpt lat="48.4164" lon="7.34478">
        <ele>761.8</ele>
        <time>2023-07-23T11:01:35Z</time>
      </trkpt>
      <trkpt lat="48.4164" lon="7.34479">
        <ele>761.8</ele>
        <time>2023-07-23T11:01:36Z</time>
      </trkpt>
      <trkpt lat="48.41638" lon="7.34484">
        <ele>762.1</ele>
        <time>2023-07-23T11:01:37Z</time>
      </trkpt>
      <trkpt lat="48.41638" lon="7.34486">
        <ele>762.2</ele>
        <time>2023-07-23T11:01:38Z</time>
      </trkpt>
      <trkpt lat="48.41636" lon="7.3449">
        <ele>762.4</ele>
        <time>2023-07-23T11:01:39Z</time>
      </trkpt>
      <trkpt lat="48.41636" lon="7.34492">
        <ele>762.5</ele>
        <time>2023-07-23T11:01:40Z</time>
      </trkpt>
      <trkpt lat="48.41635" lon="7.34496">
        <ele>762.8</ele>
        <time>2023-07-23T11:01:41Z</time>
      </trkpt>
      <trkpt lat="48.41634" lon="7.34498">
        <ele>762.9</ele>
        <time>2023-07-23T11:01:42Z</time>
      </trkpt>
      <trkpt lat="48.41633" lon="7.34502">
        <ele>763.1</ele>
        <time>2023-07-23T11:01:43Z</time>
      </trkpt>
      <trkpt lat="48.41632" lon="7.34504">
        <ele>763.2</ele>
        <time>2023-07-23T11:01:44Z</time>
      </trkpt>
      <trkpt lat="48.41631" lon="7.34508">
        <ele>763.5</ele>
        <time>2023-07-23T11:01:45Z</time>
      </trkpt>
      <trkpt lat="48.4163" lon="7.34509">
        <ele>763.6</ele>
        <time>2023-07-23T11:01:46Z</time>
      </trkpt>
      <trkpt lat="48.41628" lon="7.34514">
        <ele>763.8</ele>
        <time>2023-07-23T11:01:47Z</time>
      </trkpt>
      <trkpt lat="48.41628" lon="7.34515">
        <ele>763.9</ele>
        <time>2023-07-23T11:01:48Z</time>
      </trkpt>
      <trkpt lat="48.41626" lon="7.34519">
        <ele>764.2</ele>
        <time>2023-07-23T11:01:49Z</time>
      </trkpt>
      <trkpt lat="48.41626" lon="7.3452">
        <ele>764.3</ele>
        <time>2023-07-23T11:01:50Z</time>
      </trkpt>
      <trkpt lat="48.41624" lon="7.34525">
        <ele>764.5</ele>
        <time>2023-07-23T11:01:51Z</time>
      </trkpt>
      <trkpt lat="48.41623" lon="7.34526">
        <ele>764.6</ele>
        <time>2023-07-23T11:01:52Z</time>
      </trkpt>
      <trkpt lat="48.41621" lon="7.34531">
        <ele>764.9</ele>
        <time>2023-07-23T11:01:53Z</time>
      </trkpt>
      <trkpt lat="48.4162" lon="7.34532">
        <ele>765</ele>
        <time>2023-07-23T11:01:54Z</time>
      </trkpt>
      <trkpt lat="48.41618" lon="7.34536">
        <ele>765.3</ele>
        <time>2023-07-23T11:01:55Z</time>
      </trkpt>
      <trkpt lat="48.41617" lon="7.34538">
        <ele>765.4</ele>
        <time>2023-07-23T11:01:56Z</time>
      </trkpt>
      <trkpt lat="48.41615" lon="7.34541">
        <ele>765.7</ele>
        <time>2023-07-23T11:01:57Z</time>
      </trkpt>
      <trkpt lat="48.41614" lon="7.34543">
        <ele>765.8</ele>
        <time>2023-07-23T11:01:58Z</time>
      </trkpt>
      <trkpt lat="48.41611" lon="7.34546">
        <ele>766.1</ele>
        <time>2023-07-23T11:01:59Z</time>
      </trkpt>
      <trkpt lat="48.4161" lon="7.34548">
        <ele>766.2</ele>
        <time>2023-07-23T11:02:00Z</time>
      </trkpt>
      <trkpt lat="48.41608" lon="7.34551">
        <ele>766.5</ele>
        <time>2023-07-23T11:02:01Z</time>
      </trkpt>
      <trkpt lat="48.41606" lon="7.34554">
        <ele>766.8</ele>
        <time>2023-07-23T11:02:02Z</time>
      </trkpt>
      <trkpt lat="48.41605" lon="7.34555">
        <ele>766.9</ele>
        <time>2023-07-23T11:02:03Z</time>
      </trkpt>
      <trkpt lat="48.41603" lon="7.34558">
        <ele>767.1</ele>
        <time>2023-07-23T11:02:04Z</time>
      </trkpt>
      <trkpt lat="48.41602" lon="7.3456">
        <ele>767.2</ele>
        <time>2023-07-23T11:02:05Z</time>
      </trkpt>
      <trkpt lat="48.416" lon="7.34562">
        <ele>767.5</ele>
        <time>2023-07-23T11:02:06Z</time>
      </trkpt>
      <trkpt lat="48.41597" lon="7.34565">
        <ele>767.8</ele>
        <time>2023-07-23T11:02:07Z</time>
      </trkpt>
      <trkpt lat="48.41596" lon="7.34567">
        <ele>767.9</ele>
        <time>2023-07-23T11:02:08Z</time>
      </trkpt>
      <trkpt lat="48.41593" lon="7.34569">
        <ele>768.2</ele>
        <time>2023-07-23T11:02:09Z</time>
      </trkpt>
      <trkpt lat="48.41592" lon="7.3457">
        <ele>768.3</ele>
        <time>2023-07-23T11:02:10Z</time>
      </trkpt>
      <trkpt lat="48.41589" lon="7.34573">
        <ele>768.6</ele>
        <time>2023-07-23T11:02:11Z</time>
      </trkpt>
      <trkpt lat="48.41588" lon="7.34575">
        <ele>768.7</ele>
        <time>2023-07-23T11:02:12Z</time>
      </trkpt>
      <trkpt lat="48.41586" lon="7.34578">
        <ele>768.9</ele>
        <time>2023-07-23T11:02:13Z</time>
      </trkpt>
      <trkpt lat="48.41585" lon="7.34579">
        <ele>769</ele>
        <time>2023-07-23T11:02:14Z</time>
      </trkpt>
      <trkpt lat="48.41582" lon="7.34581">
        <ele>769.3</ele>
        <time>2023-07-23T11:02:15Z</time>
      </trkpt>
      <trkpt lat="48.41579" lon="7.34583">
        <ele>769.6</ele>
        <time>2023-07-23T11:02:16Z</time>
      </trkpt>
      <trkpt lat="48.41578" lon="7.34584">
        <ele>769.7</ele>
        <time>2023-07-23T11:02:17Z</time>
      </trkpt>
      <trkpt lat="48.41575" lon="7.34587">
        <ele>769.9</ele>
        <time>2023-07-23T11:02:18Z</time>
      </trkpt>
      <trkpt lat="48.41574" lon="7.34589">
        <ele>770</ele>
        <time>2023-07-23T11:02:19Z</time>
      </trkpt>
      <trkpt lat="48.41572" lon="7.3459">
        <ele>770.3</ele>
        <time>2023-07-23T11:02:20Z</time>
      </trkpt>
      <trkpt lat="48.41569" lon="7.34593">
        <ele>770.5</ele>
        <time>2023-07-23T11:02:21Z</time>
      </trkpt>
      <trkpt lat="48.41568" lon="7.34594">
        <ele>770.7</ele>
        <time>2023-07-23T11:02:22Z</time>
      </trkpt>
      <trkpt lat="48.41566" lon="7.34598">
        <ele>770.9</ele>
        <time>2023-07-23T11:02:23Z</time>
      </trkpt>
      <trkpt lat="48.41565" lon="7.34599">
        <ele>771</ele>
        <time>2023-07-23T11:02:24Z</time>
      </trkpt>
      <trkpt lat="48.41562" lon="7.34602">
        <ele>771.3</ele>
        <time>2023-07-23T11:02:25Z</time>
      </trkpt>
      <trkpt lat="48.41561" lon="7.34602">
        <ele>771.4</ele>
        <time>2023-07-23T11:02:26Z</time>
      </trkpt>
      <trkpt lat="48.41559" lon="7.34605">
        <ele>771.6</ele>
        <time>2023-07-23T11:02:27Z</time>
      </trkpt>
      <trkpt lat="48.41558" lon="7.34606">
        <ele>771.7</ele>
        <time>2023-07-23T11:02:28Z</time>
      </trkpt>
      <trkpt lat="48.41556" lon="7.34608">
        <ele>771.9</ele>
        <time>2023-07-23T11:02:29Z</time>
      </trkpt>
      <trkpt lat="48.41553" lon="7.34611">
        <ele>772.2</ele>
        <time>2023-07-23T11:02:30Z</time>
      </trkpt>
      <trkpt lat="48.41552" lon="7.34612">
        <ele>772.2</ele>
        <time>2023-07-23T11:02:31Z</time>
      </trkpt>
      <trkpt lat="48.41549" lon="7.34615">
        <ele>772.5</ele>
        <time>2023-07-23T11:02:33Z</time>
      </trkpt>
      <trkpt lat="48.41548" lon="7.34616">
        <ele>772.6</ele>
        <time>2023-07-23T11:02:34Z</time>
      </trkpt>
      <trkpt lat="48.41545" lon="7.34619">
        <ele>772.9</ele>
        <time>2023-07-23T11:02:35Z</time>
      </trkpt>
      <trkpt lat="48.41544" lon="7.3462">
        <ele>772.9</ele>
        <time>2023-07-23T11:02:36Z</time>
      </trkpt>
      <trkpt lat="48.41541" lon="7.34623">
        <ele>773.2</ele>
        <time>2023-07-23T11:02:37Z</time>
      </trkpt>
      <trkpt lat="48.41539" lon="7.34624">
        <ele>773.3</ele>
        <time>2023-07-23T11:02:38Z</time>
      </trkpt>
      <trkpt lat="48.41537" lon="7.34626">
        <ele>773.5</ele>
        <time>2023-07-23T11:02:39Z</time>
      </trkpt>
      <trkpt lat="48.41536" lon="7.34627">
        <ele>773.6</ele>
        <time>2023-07-23T11:02:40Z</time>
      </trkpt>
      <trkpt lat="48.41533" lon="7.3463">
        <ele>773.9</ele>
        <time>2023-07-23T11:02:41Z</time>
      </trkpt>
      <trkpt lat="48.41532" lon="7.34631">
        <ele>773.9</ele>
        <time>2023-07-23T11:02:42Z</time>
      </trkpt>
      <trkpt lat="48.41529" lon="7.34634">
        <ele>774.2</ele>
        <time>2023-07-23T11:02:43Z</time>
      </trkpt>
      <trkpt lat="48.41529" lon="7.34636">
        <ele>774.3</ele>
        <time>2023-07-23T11:02:44Z</time>
      </trkpt>
      <trkpt lat="48.41526" lon="7.34638">
        <ele>774.5</ele>
        <time>2023-07-23T11:02:45Z</time>
      </trkpt>
      <trkpt lat="48.41525" lon="7.34639">
        <ele>774.6</ele>
        <time>2023-07-23T11:02:46Z</time>
      </trkpt>
      <trkpt lat="48.41522" lon="7.34643">
        <ele>774.8</ele>
        <time>2023-07-23T11:02:47Z</time>
      </trkpt>
      <trkpt lat="48.41521" lon="7.34644">
        <ele>774.9</ele>
        <time>2023-07-23T11:02:48Z</time>
      </trkpt>
      <trkpt lat="48.41518" lon="7.34647">
        <ele>775.1</ele>
        <time>2023-07-23T11:02:49Z</time>
      </trkpt>
      <trkpt lat="48.41517" lon="7.34648">
        <ele>775.2</ele>
        <time>2023-07-23T11:02:50Z</time>
      </trkpt>
      <trkpt lat="48.41515" lon="7.34651">
        <ele>775.4</ele>
        <time>2023-07-23T11:02:51Z</time>
      </trkpt>
      <trkpt lat="48.41514" lon="7.34652">
        <ele>775.5</ele>
        <time>2023-07-23T11:02:52Z</time>
      </trkpt>
      <trkpt lat="48.41511" lon="7.34656">
        <ele>775.7</ele>
        <time>2023-07-23T11:02:53Z</time>
      </trkpt>
      <trkpt lat="48.4151" lon="7.34657">
        <ele>775.7</ele>
        <time>2023-07-23T11:02:54Z</time>
      </trkpt>
      <trkpt lat="48.41507" lon="7.3466">
        <ele>776</ele>
        <time>2023-07-23T11:02:55Z</time>
      </trkpt>
      <trkpt lat="48.41506" lon="7.34661">
        <ele>776</ele>
        <time>2023-07-23T11:02:56Z</time>
      </trkpt>
      <trkpt lat="48.41503" lon="7.34665">
        <ele>776.2</ele>
        <time>2023-07-23T11:02:57Z</time>
      </trkpt>
      <trkpt lat="48.41502" lon="7.34666">
        <ele>776.3</ele>
        <time>2023-07-23T11:02:58Z</time>
      </trkpt>
      <trkpt lat="48.41499" lon="7.3467">
        <ele>776.4</ele>
        <time>2023-07-23T11:02:59Z</time>
      </trkpt>
      <trkpt lat="48.41499" lon="7.34671">
        <ele>776.5</ele>
        <time>2023-07-23T11:03:00Z</time>
      </trkpt>
      <trkpt lat="48.41496" lon="7.34675">
        <ele>776.6</ele>
        <time>2023-07-23T11:03:01Z</time>
      </trkpt>
      <trkpt lat="48.41495" lon="7.34677">
        <ele>776.7</ele>
        <time>2023-07-23T11:03:02Z</time>
      </trkpt>
      <trkpt lat="48.41493" lon="7.34681">
        <ele>776.8</ele>
        <time>2023-07-23T11:03:03Z</time>
      </trkpt>
      <trkpt lat="48.41492" lon="7.34682">
        <ele>776.9</ele>
        <time>2023-07-23T11:03:04Z</time>
      </trkpt>
      <trkpt lat="48.41488" lon="7.34688">
        <ele>777</ele>
        <time>2023-07-23T11:03:05Z</time>
      </trkpt>
      <trkpt lat="48.41486" lon="7.34691">
        <ele>777.1</ele>
        <time>2023-07-23T11:03:06Z</time>
      </trkpt>
      <trkpt lat="48.41484" lon="7.34695">
        <ele>777.2</ele>
        <time>2023-07-23T11:03:07Z</time>
      </trkpt>
      <trkpt lat="48.41483" lon="7.34696">
        <ele>777.2</ele>
        <time>2023-07-23T11:03:08Z</time>
      </trkpt>
      <trkpt lat="48.41481" lon="7.347">
        <ele>777.3</ele>
        <time>2023-07-23T11:03:09Z</time>
      </trkpt>
      <trkpt lat="48.41479" lon="7.34703">
        <ele>777.4</ele>
        <time>2023-07-23T11:03:10Z</time>
      </trkpt>
      <trkpt lat="48.41477" lon="7.34707">
        <ele>777.4</ele>
        <time>2023-07-23T11:03:11Z</time>
      </trkpt>
      <trkpt lat="48.41475" lon="7.34711">
        <ele>777.5</ele>
        <time>2023-07-23T11:03:12Z</time>
      </trkpt>
      <trkpt lat="48.41472" lon="7.34715">
        <ele>777.5</ele>
        <time>2023-07-23T11:03:13Z</time>
      </trkpt>
      <trkpt lat="48.4147" lon="7.34719">
        <ele>777.5</ele>
        <time>2023-07-23T11:03:14Z</time>
      </trkpt>
      <trkpt lat="48.41467" lon="7.34724">
        <ele>777.6</ele>
        <time>2023-07-23T11:03:15Z</time>
      </trkpt>
      <trkpt lat="48.41465" lon="7.34728">
        <ele>777.6</ele>
        <time>2023-07-23T11:03:16Z</time>
      </trkpt>
      <trkpt lat="48.41463" lon="7.34733">
        <ele>777.7</ele>
        <time>2023-07-23T11:03:17Z</time>
      </trkpt>
      <trkpt lat="48.4146" lon="7.34738">
        <ele>777.8</ele>
        <time>2023-07-23T11:03:18Z</time>
      </trkpt>
      <trkpt lat="48.41459" lon="7.34743">
        <ele>777.8</ele>
        <time>2023-07-23T11:03:19Z</time>
      </trkpt>
      <trkpt lat="48.41456" lon="7.34747">
        <ele>777.9</ele>
        <time>2023-07-23T11:03:20Z</time>
      </trkpt>
      <trkpt lat="48.41454" lon="7.34751">
        <ele>777.9</ele>
        <time>2023-07-23T11:03:21Z</time>
      </trkpt>
      <trkpt lat="48.41452" lon="7.34756">
        <ele>778</ele>
        <time>2023-07-23T11:03:22Z</time>
      </trkpt>
      <trkpt lat="48.4145" lon="7.3476">
        <ele>778.1</ele>
        <time>2023-07-23T11:03:23Z</time>
      </trkpt>
      <trkpt lat="48.41448" lon="7.34765">
        <ele>778.1</ele>
        <time>2023-07-23T11:03:24Z</time>
      </trkpt>
      <trkpt lat="48.41446" lon="7.3477">
        <ele>778.2</ele>
        <time>2023-07-23T11:03:25Z</time>
      </trkpt>
      <trkpt lat="48.41444" lon="7.34774">
        <ele>778.3</ele>
        <time>2023-07-23T11:03:26Z</time>
      </trkpt>
      <trkpt lat="48.41442" lon="7.34779">
        <ele>778.4</ele>
        <time>2023-07-23T11:03:27Z</time>
      </trkpt>
      <trkpt lat="48.4144" lon="7.34784">
        <ele>778.5</ele>
        <time>2023-07-23T11:03:28Z</time>
      </trkpt>
      <trkpt lat="48.41437" lon="7.34788">
        <ele>778.5</ele>
        <time>2023-07-23T11:03:29Z</time>
      </trkpt>
      <trkpt lat="48.41435" lon="7.34793">
        <ele>778.6</ele>
        <time>2023-07-23T11:03:30Z</time>
      </trkpt>
      <trkpt lat="48.41433" lon="7.34798">
        <ele>778.7</ele>
        <time>2023-07-23T11:03:31Z</time>
      </trkpt>
      <trkpt lat="48.41432" lon="7.34802">
        <ele>778.8</ele>
        <time>2023-07-23T11:03:32Z</time>
      </trkpt>
      <trkpt lat="48.4143" lon="7.34806">
        <ele>778.9</ele>
        <time>2023-07-23T11:03:33Z</time>
      </trkpt>
      <trkpt lat="48.41429" lon="7.3481">
        <ele>779</ele>
        <time>2023-07-23T11:03:34Z</time>
      </trkpt>
      <trkpt lat="48.41427" lon="7.34814">
        <ele>779.1</ele>
        <time>2023-07-23T11:03:35Z</time>
      </trkpt>
      <trkpt lat="48.41424" lon="7.34818">
        <ele>779.2</ele>
        <time>2023-07-23T11:03:36Z</time>
      </trkpt>
      <trkpt lat="48.41423" lon="7.34822">
        <ele>779.3</ele>
        <time>2023-07-23T11:03:37Z</time>
      </trkpt>
      <trkpt lat="48.4142" lon="7.34826">
        <ele>779.4</ele>
        <time>2023-07-23T11:03:38Z</time>
      </trkpt>
      <trkpt lat="48.41419" lon="7.3483">
        <ele>779.5</ele>
        <time>2023-07-23T11:03:39Z</time>
      </trkpt>
      <trkpt lat="48.41417" lon="7.34835">
        <ele>779.6</ele>
        <time>2023-07-23T11:03:40Z</time>
      </trkpt>
      <trkpt lat="48.41415" lon="7.3484">
        <ele>779.7</ele>
        <time>2023-07-23T11:03:41Z</time>
      </trkpt>
      <trkpt lat="48.41414" lon="7.34845">
        <ele>779.8</ele>
        <time>2023-07-23T11:03:42Z</time>
      </trkpt>
      <trkpt lat="48.41412" lon="7.34849">
        <ele>779.9</ele>
        <time>2023-07-23T11:03:43Z</time>
      </trkpt>
      <trkpt lat="48.41411" lon="7.34853">
        <ele>780</ele>
        <time>2023-07-23T11:03:44Z</time>
      </trkpt>
      <trkpt lat="48.4141" lon="7.34857">
        <ele>780.1</ele>
        <time>2023-07-23T11:03:45Z</time>
      </trkpt>
      <trkpt lat="48.4141" lon="7.34862">
        <ele>780.2</ele>
        <time>2023-07-23T11:03:46Z</time>
      </trkpt>
      <trkpt lat="48.41409" lon="7.34867">
        <ele>780.3</ele>
        <time>2023-07-23T11:03:47Z</time>
      </trkpt>
      <trkpt lat="48.41408" lon="7.34872">
        <ele>780.4</ele>
        <time>2023-07-23T11:03:48Z</time>
      </trkpt>
      <trkpt lat="48.41408" lon="7.34877">
        <ele>780.6</ele>
        <time>2023-07-23T11:03:49Z</time>
      </trkpt>
      <trkpt lat="48.41408" lon="7.34882">
        <ele>780.6</ele>
        <time>2023-07-23T11:03:50Z</time>
      </trkpt>
      <trkpt lat="48.41407" lon="7.34886">
        <ele>780.6</ele>
        <time>2023-07-23T11:03:51Z</time>
      </trkpt>
      <trkpt lat="48.41406" lon="7.34891">
        <ele>780.6</ele>
        <time>2023-07-23T11:03:52Z</time>
      </trkpt>
      <trkpt lat="48.41407" lon="7.34896">
        <ele>780.6</ele>
        <time>2023-07-23T11:03:53Z</time>
      </trkpt>
      <trkpt lat="48.41408" lon="7.349">
        <ele>780.6</ele>
        <time>2023-07-23T11:03:54Z</time>
      </trkpt>
      <trkpt lat="48.41411" lon="7.34904">
        <ele>780.6</ele>
        <time>2023-07-23T11:03:55Z</time>
      </trkpt>
      <trkpt lat="48.41414" lon="7.34907">
        <ele>780.6</ele>
        <time>2023-07-23T11:03:56Z</time>
      </trkpt>
      <trkpt lat="48.41417" lon="7.34908">
        <ele>780.6</ele>
        <time>2023-07-23T11:03:57Z</time>
      </trkpt>
      <trkpt lat="48.4142" lon="7.34906">
        <ele>780.7</ele>
        <time>2023-07-23T11:03:58Z</time>
      </trkpt>
      <trkpt lat="48.41423" lon="7.34904">
        <ele>780.7</ele>
        <time>2023-07-23T11:03:59Z</time>
      </trkpt>
      <trkpt lat="48.41425" lon="7.349">
        <ele>780.7</ele>
        <time>2023-07-23T11:04:00Z</time>
      </trkpt>
      <trkpt lat="48.41426" lon="7.34895">
        <ele>780.8</ele>
        <time>2023-07-23T11:04:01Z</time>
      </trkpt>
      <trkpt lat="48.41428" lon="7.34891">
        <ele>780.8</ele>
        <time>2023-07-23T11:04:02Z</time>
      </trkpt>
      <trkpt lat="48.41429" lon="7.34886">
        <ele>780.8</ele>
        <time>2023-07-23T11:04:03Z</time>
      </trkpt>
      <trkpt lat="48.41431" lon="7.34882">
        <ele>780.9</ele>
        <time>2023-07-23T11:04:04Z</time>
      </trkpt>
      <trkpt lat="48.41432" lon="7.34878">
        <ele>780.9</ele>
        <time>2023-07-23T11:04:05Z</time>
      </trkpt>
      <trkpt lat="48.41434" lon="7.34875">
        <ele>780.9</ele>
        <time>2023-07-23T11:04:06Z</time>
      </trkpt>
      <trkpt lat="48.41434" lon="7.34874">
        <ele>780.9</ele>
        <time>2023-07-23T11:04:07Z</time>
      </trkpt>
      <trkpt lat="48.41435" lon="7.34873">
        <ele>780.9</ele>
        <time>2023-07-23T11:04:08Z</time>
      </trkpt>
      <trkpt lat="48.41436" lon="7.34873">
        <ele>780.9</ele>
        <time>2023-07-23T11:04:09Z</time>
      </trkpt>
      <trkpt lat="48.41436" lon="7.34872">
        <ele>780.9</ele>
        <time>2023-07-23T11:04:10Z</time>
      </trkpt>
      <trkpt lat="48.41436" lon="7.34872">
        <ele>780.9</ele>
        <time>2023-07-23T11:04:11Z</time>
      </trkpt>
      <trkpt lat="48.41437" lon="7.34872">
        <ele>780.9</ele>
        <time>2023-07-23T11:04:12Z</time>
      </trkpt>
      <trkpt lat="48.41437" lon="7.34872">
        <ele>780.9</ele>
        <time>2023-07-23T11:04:13Z</time>
      </trkpt>
      <trkpt lat="48.41437" lon="7.34871">
        <ele>780.9</ele>
        <time>2023-07-23T11:04:14Z</time>
      </trkpt>
      <trkpt lat="48.41437" lon="7.3487">
        <ele>780.9</ele>
        <time>2023-07-23T11:04:15Z</time>
      </trkpt>
      <trkpt lat="48.41438" lon="7.34869">
        <ele>780.9</ele>
        <time>2023-07-23T11:04:16Z</time>
      </trkpt>
      <trkpt lat="48.41438" lon="7.34868">
        <ele>780.9</ele>
        <time>2023-07-23T11:04:17Z</time>
      </trkpt>
      <trkpt lat="48.41438" lon="7.34867">
        <ele>780.9</ele>
        <time>2023-07-23T11:04:18Z</time>
      </trkpt>
      <trkpt lat="48.41438" lon="7.34866">
        <ele>781</ele>
        <time>2023-07-23T11:04:19Z</time>
      </trkpt>
      <trkpt lat="48.41439" lon="7.34865">
        <ele>781</ele>
        <time>2023-07-23T11:04:20Z</time>
      </trkpt>
      <trkpt lat="48.41439" lon="7.34864">
        <ele>781</ele>
        <time>2023-07-23T11:05:18Z</time>
      </trkpt>
      <trkpt lat="48.41439" lon="7.34864">
        <ele>781</ele>
        <time>2023-07-23T11:05:19Z</time>
      </trkpt>
      <trkpt lat="48.4144" lon="7.34861">
        <ele>781</ele>
        <time>2023-07-23T11:05:20Z</time>
      </trkpt>
      <trkpt lat="48.41441" lon="7.34859">
        <ele>781</ele>
        <time>2023-07-23T11:05:21Z</time>
      </trkpt>
      <trkpt lat="48.41441" lon="7.34858">
        <ele>781</ele>
        <time>2023-07-23T11:05:22Z</time>
      </trkpt>
      <trkpt lat="48.41442" lon="7.34856">
        <ele>781</ele>
        <time>2023-07-23T11:05:23Z</time>
      </trkpt>
      <trkpt lat="48.41443" lon="7.34854">
        <ele>781</ele>
        <time>2023-07-23T11:05:24Z</time>
      </trkpt>
      <trkpt lat="48.41446" lon="7.3485">
        <ele>781.1</ele>
        <time>2023-07-23T11:05:25Z</time>
      </trkpt>
      <trkpt lat="48.41446" lon="7.34848">
        <ele>781.1</ele>
        <time>2023-07-23T11:05:26Z</time>
      </trkpt>
      <trkpt lat="48.41448" lon="7.34845">
        <ele>781.2</ele>
        <time>2023-07-23T11:05:27Z</time>
      </trkpt>
      <trkpt lat="48.41449" lon="7.34841">
        <ele>781.2</ele>
        <time>2023-07-23T11:05:28Z</time>
      </trkpt>
      <trkpt lat="48.41452" lon="7.34837">
        <ele>781.3</ele>
        <time>2023-07-23T11:05:29Z</time>
      </trkpt>
      <trkpt lat="48.41453" lon="7.34835">
        <ele>781.4</ele>
        <time>2023-07-23T11:05:30Z</time>
      </trkpt>
      <trkpt lat="48.41456" lon="7.34831">
        <ele>781.5</ele>
        <time>2023-07-23T11:05:31Z</time>
      </trkpt>
      <trkpt lat="48.41457" lon="7.3483">
        <ele>781.5</ele>
        <time>2023-07-23T11:05:32Z</time>
      </trkpt>
      <trkpt lat="48.4146" lon="7.34826">
        <ele>781.7</ele>
        <time>2023-07-23T11:05:33Z</time>
      </trkpt>
      <trkpt lat="48.41461" lon="7.34824">
        <ele>781.7</ele>
        <time>2023-07-23T11:05:34Z</time>
      </trkpt>
      <trkpt lat="48.41463" lon="7.3482">
        <ele>781.9</ele>
        <time>2023-07-23T11:05:35Z</time>
      </trkpt>
      <trkpt lat="48.41464" lon="7.34819">
        <ele>782</ele>
        <time>2023-07-23T11:05:36Z</time>
      </trkpt>
      <trkpt lat="48.41467" lon="7.34816">
        <ele>782.2</ele>
        <time>2023-07-23T11:05:37Z</time>
      </trkpt>
      <trkpt lat="48.41468" lon="7.34815">
        <ele>782.2</ele>
        <time>2023-07-23T11:05:38Z</time>
      </trkpt>
      <trkpt lat="48.41472" lon="7.34812">
        <ele>782.4</ele>
        <time>2023-07-23T11:05:39Z</time>
      </trkpt>
      <trkpt lat="48.41473" lon="7.34811">
        <ele>782.5</ele>
        <time>2023-07-23T11:05:40Z</time>
      </trkpt>
      <trkpt lat="48.41475" lon="7.34809">
        <ele>782.7</ele>
        <time>2023-07-23T11:05:41Z</time>
      </trkpt>
      <trkpt lat="48.41478" lon="7.34807">
        <ele>782.8</ele>
        <time>2023-07-23T11:05:42Z</time>
      </trkpt>
      <trkpt lat="48.41481" lon="7.34805">
        <ele>783.2</ele>
        <time>2023-07-23T11:05:43Z</time>
      </trkpt>
      <trkpt lat="48.41482" lon="7.34804">
        <ele>783.3</ele>
        <time>2023-07-23T11:05:44Z</time>
      </trkpt>
      <trkpt lat="48.41485" lon="7.34802">
        <ele>783.6</ele>
        <time>2023-07-23T11:05:45Z</time>
      </trkpt>
      <trkpt lat="48.41486" lon="7.34801">
        <ele>783.7</ele>
        <time>2023-07-23T11:05:46Z</time>
      </trkpt>
      <trkpt lat="48.41488" lon="7.34799">
        <ele>784</ele>
        <time>2023-07-23T11:05:47Z</time>
      </trkpt>
      <trkpt lat="48.41489" lon="7.34799">
        <ele>784.1</ele>
        <time>2023-07-23T11:05:48Z</time>
      </trkpt>
      <trkpt lat="48.41492" lon="7.34797">
        <ele>784.4</ele>
        <time>2023-07-23T11:05:49Z</time>
      </trkpt>
      <trkpt lat="48.41493" lon="7.34796">
        <ele>784.5</ele>
        <time>2023-07-23T11:05:50Z</time>
      </trkpt>
      <trkpt lat="48.41496" lon="7.34794">
        <ele>784.8</ele>
        <time>2023-07-23T11:05:51Z</time>
      </trkpt>
      <trkpt lat="48.41497" lon="7.34793">
        <ele>784.9</ele>
        <time>2023-07-23T11:05:52Z</time>
      </trkpt>
      <trkpt lat="48.415" lon="7.34791">
        <ele>785.3</ele>
        <time>2023-07-23T11:05:53Z</time>
      </trkpt>
      <trkpt lat="48.41501" lon="7.3479">
        <ele>785.4</ele>
        <time>2023-07-23T11:05:54Z</time>
      </trkpt>
      <trkpt lat="48.41503" lon="7.34788">
        <ele>785.7</ele>
        <time>2023-07-23T11:05:55Z</time>
      </trkpt>
      <trkpt lat="48.41505" lon="7.34788">
        <ele>785.8</ele>
        <time>2023-07-23T11:05:56Z</time>
      </trkpt>
      <trkpt lat="48.41508" lon="7.34785">
        <ele>786.1</ele>
        <time>2023-07-23T11:05:57Z</time>
      </trkpt>
      <trkpt lat="48.41508" lon="7.34784">
        <ele>786.3</ele>
        <time>2023-07-23T11:05:58Z</time>
      </trkpt>
      <trkpt lat="48.41512" lon="7.34783">
        <ele>786.6</ele>
        <time>2023-07-23T11:05:59Z</time>
      </trkpt>
      <trkpt lat="48.41513" lon="7.34782">
        <ele>786.7</ele>
        <time>2023-07-23T11:06:00Z</time>
      </trkpt>
      <trkpt lat="48.41515" lon="7.3478">
        <ele>787.1</ele>
        <time>2023-07-23T11:06:01Z</time>
      </trkpt>
      <trkpt lat="48.41516" lon="7.3478">
        <ele>787.2</ele>
        <time>2023-07-23T11:06:02Z</time>
      </trkpt>
      <trkpt lat="48.41519" lon="7.34777">
        <ele>787.5</ele>
        <time>2023-07-23T11:06:03Z</time>
      </trkpt>
      <trkpt lat="48.4152" lon="7.34777">
        <ele>787.6</ele>
        <time>2023-07-23T11:06:04Z</time>
      </trkpt>
      <trkpt lat="48.41523" lon="7.34775">
        <ele>788</ele>
        <time>2023-07-23T11:06:05Z</time>
      </trkpt>
      <trkpt lat="48.41523" lon="7.34774">
        <ele>788.1</ele>
        <time>2023-07-23T11:06:06Z</time>
      </trkpt>
      <trkpt lat="48.41527" lon="7.34773">
        <ele>788.5</ele>
        <time>2023-07-23T11:06:07Z</time>
      </trkpt>
      <trkpt lat="48.41528" lon="7.34772">
        <ele>788.6</ele>
        <time>2023-07-23T11:06:08Z</time>
      </trkpt>
      <trkpt lat="48.41531" lon="7.34771">
        <ele>789</ele>
        <time>2023-07-23T11:06:09Z</time>
      </trkpt>
      <trkpt lat="48.41532" lon="7.3477">
        <ele>789.1</ele>
        <time>2023-07-23T11:06:10Z</time>
      </trkpt>
      <trkpt lat="48.41535" lon="7.34768">
        <ele>789.5</ele>
        <time>2023-07-23T11:06:11Z</time>
      </trkpt>
      <trkpt lat="48.41536" lon="7.34768">
        <ele>789.6</ele>
        <time>2023-07-23T11:06:12Z</time>
      </trkpt>
      <trkpt lat="48.41539" lon="7.34767">
        <ele>790</ele>
        <time>2023-07-23T11:06:13Z</time>
      </trkpt>
      <trkpt lat="48.4154" lon="7.34767">
        <ele>790.1</ele>
        <time>2023-07-23T11:06:14Z</time>
      </trkpt>
      <trkpt lat="48.41543" lon="7.34766">
        <ele>790.5</ele>
        <time>2023-07-23T11:06:15Z</time>
      </trkpt>
      <trkpt lat="48.41544" lon="7.34766">
        <ele>790.6</ele>
        <time>2023-07-23T11:06:16Z</time>
      </trkpt>
      <trkpt lat="48.41547" lon="7.34766">
        <ele>791</ele>
        <time>2023-07-23T11:06:17Z</time>
      </trkpt>
      <trkpt lat="48.41548" lon="7.34766">
        <ele>791.1</ele>
        <time>2023-07-23T11:06:18Z</time>
      </trkpt>
      <trkpt lat="48.41552" lon="7.34766">
        <ele>791.5</ele>
        <time>2023-07-23T11:06:19Z</time>
      </trkpt>
      <trkpt lat="48.41553" lon="7.34767">
        <ele>791.6</ele>
        <time>2023-07-23T11:06:20Z</time>
      </trkpt>
      <trkpt lat="48.41555" lon="7.34767">
        <ele>791.7</ele>
        <time>2023-07-23T11:06:21Z</time>
      </trkpt>
      <trkpt lat="48.41556" lon="7.34768">
        <ele>791.6</ele>
        <time>2023-07-23T11:06:22Z</time>
      </trkpt>
      <trkpt lat="48.41559" lon="7.3477">
        <ele>791.4</ele>
        <time>2023-07-23T11:06:23Z</time>
      </trkpt>
      <trkpt lat="48.41562" lon="7.34771">
        <ele>791.2</ele>
        <time>2023-07-23T11:06:24Z</time>
      </trkpt>
      <trkpt lat="48.41563" lon="7.34772">
        <ele>791.2</ele>
        <time>2023-07-23T11:06:25Z</time>
      </trkpt>
      <trkpt lat="48.41566" lon="7.34775">
        <ele>791.1</ele>
        <time>2023-07-23T11:06:26Z</time>
      </trkpt>
      <trkpt lat="48.41567" lon="7.34776">
        <ele>791.2</ele>
        <time>2023-07-23T11:06:27Z</time>
      </trkpt>
      <trkpt lat="48.4157" lon="7.34778">
        <ele>791.4</ele>
        <time>2023-07-23T11:06:28Z</time>
      </trkpt>
      <trkpt lat="48.41571" lon="7.34779">
        <ele>791.5</ele>
        <time>2023-07-23T11:06:29Z</time>
      </trkpt>
      <trkpt lat="48.41574" lon="7.34782">
        <ele>791.8</ele>
        <time>2023-07-23T11:06:30Z</time>
      </trkpt>
      <trkpt lat="48.41575" lon="7.34783">
        <ele>791.9</ele>
        <time>2023-07-23T11:06:31Z</time>
      </trkpt>
      <trkpt lat="48.41578" lon="7.34787">
        <ele>792.3</ele>
        <time>2023-07-23T11:06:32Z</time>
      </trkpt>
      <trkpt lat="48.41579" lon="7.34789">
        <ele>792.4</ele>
        <time>2023-07-23T11:06:33Z</time>
      </trkpt>
      <trkpt lat="48.41581" lon="7.34792">
        <ele>792.6</ele>
        <time>2023-07-23T11:06:34Z</time>
      </trkpt>
      <trkpt lat="48.41582" lon="7.34794">
        <ele>792.8</ele>
        <time>2023-07-23T11:06:35Z</time>
      </trkpt>
      <trkpt lat="48.41584" lon="7.34798">
        <ele>793</ele>
        <time>2023-07-23T11:06:36Z</time>
      </trkpt>
      <trkpt lat="48.41584" lon="7.34799">
        <ele>793.1</ele>
        <time>2023-07-23T11:06:37Z</time>
      </trkpt>
      <trkpt lat="48.41586" lon="7.34804">
        <ele>793.4</ele>
        <time>2023-07-23T11:06:38Z</time>
      </trkpt>
      <trkpt lat="48.41587" lon="7.34805">
        <ele>793.5</ele>
        <time>2023-07-23T11:06:39Z</time>
      </trkpt>
      <trkpt lat="48.41589" lon="7.3481">
        <ele>793.8</ele>
        <time>2023-07-23T11:06:40Z</time>
      </trkpt>
      <trkpt lat="48.41589" lon="7.34811">
        <ele>793.9</ele>
        <time>2023-07-23T11:06:41Z</time>
      </trkpt>
      <trkpt lat="48.41591" lon="7.34815">
        <ele>794.2</ele>
        <time>2023-07-23T11:06:42Z</time>
      </trkpt>
      <trkpt lat="48.41591" lon="7.34817">
        <ele>794.3</ele>
        <time>2023-07-23T11:06:43Z</time>
      </trkpt>
      <trkpt lat="48.41593" lon="7.34822">
        <ele>794.5</ele>
        <time>2023-07-23T11:06:45Z</time>
      </trkpt>
      <trkpt lat="48.41593" lon="7.34823">
        <ele>794.7</ele>
        <time>2023-07-23T11:06:46Z</time>
      </trkpt>
      <trkpt lat="48.41595" lon="7.34828">
        <ele>794.9</ele>
        <time>2023-07-23T11:06:47Z</time>
      </trkpt>
      <trkpt lat="48.41595" lon="7.3483">
        <ele>795</ele>
        <time>2023-07-23T11:06:48Z</time>
      </trkpt>
      <trkpt lat="48.41597" lon="7.34835">
        <ele>795.3</ele>
        <time>2023-07-23T11:06:49Z</time>
      </trkpt>
      <trkpt lat="48.41597" lon="7.34836">
        <ele>795.4</ele>
        <time>2023-07-23T11:06:50Z</time>
      </trkpt>
      <trkpt lat="48.41599" lon="7.3484">
        <ele>795.6</ele>
        <time>2023-07-23T11:06:51Z</time>
      </trkpt>
      <trkpt lat="48.41599" lon="7.34842">
        <ele>795.7</ele>
        <time>2023-07-23T11:06:52Z</time>
      </trkpt>
      <trkpt lat="48.41601" lon="7.34847">
        <ele>796</ele>
        <time>2023-07-23T11:06:53Z</time>
      </trkpt>
      <trkpt lat="48.41601" lon="7.34849">
        <ele>796.1</ele>
        <time>2023-07-23T11:06:54Z</time>
      </trkpt>
      <trkpt lat="48.41603" lon="7.34853">
        <ele>796.3</ele>
        <time>2023-07-23T11:06:55Z</time>
      </trkpt>
      <trkpt lat="48.41604" lon="7.34854">
        <ele>796.4</ele>
        <time>2023-07-23T11:06:56Z</time>
      </trkpt>
      <trkpt lat="48.41605" lon="7.34859">
        <ele>796.6</ele>
        <time>2023-07-23T11:06:57Z</time>
      </trkpt>
      <trkpt lat="48.41606" lon="7.34861">
        <ele>796.7</ele>
        <time>2023-07-23T11:06:58Z</time>
      </trkpt>
      <trkpt lat="48.41607" lon="7.34865">
        <ele>796.9</ele>
        <time>2023-07-23T11:06:59Z</time>
      </trkpt>
      <trkpt lat="48.41608" lon="7.34866">
        <ele>796.9</ele>
        <time>2023-07-23T11:07:00Z</time>
      </trkpt>
      <trkpt lat="48.4161" lon="7.34871">
        <ele>797.1</ele>
        <time>2023-07-23T11:07:01Z</time>
      </trkpt>
      <trkpt lat="48.4161" lon="7.34873">
        <ele>797.2</ele>
        <time>2023-07-23T11:07:02Z</time>
      </trkpt>
      <trkpt lat="48.41612" lon="7.34877">
        <ele>797.3</ele>
        <time>2023-07-23T11:07:03Z</time>
      </trkpt>
      <trkpt lat="48.41612" lon="7.34878">
        <ele>797.4</ele>
        <time>2023-07-23T11:07:04Z</time>
      </trkpt>
      <trkpt lat="48.41614" lon="7.34883">
        <ele>797.6</ele>
        <time>2023-07-23T11:07:05Z</time>
      </trkpt>
      <trkpt lat="48.41614" lon="7.34884">
        <ele>797.7</ele>
        <time>2023-07-23T11:07:06Z</time>
      </trkpt>
      <trkpt lat="48.41616" lon="7.34889">
        <ele>797.8</ele>
        <time>2023-07-23T11:07:07Z</time>
      </trkpt>
      <trkpt lat="48.41617" lon="7.3489">
        <ele>797.9</ele>
        <time>2023-07-23T11:07:08Z</time>
      </trkpt>
      <trkpt lat="48.41619" lon="7.34894">
        <ele>798.1</ele>
        <time>2023-07-23T11:07:09Z</time>
      </trkpt>
      <trkpt lat="48.41619" lon="7.34896">
        <ele>798.1</ele>
        <time>2023-07-23T11:07:10Z</time>
      </trkpt>
      <trkpt lat="48.41621" lon="7.349">
        <ele>798.3</ele>
        <time>2023-07-23T11:07:11Z</time>
      </trkpt>
      <trkpt lat="48.41622" lon="7.34901">
        <ele>798.4</ele>
        <time>2023-07-23T11:07:12Z</time>
      </trkpt>
      <trkpt lat="48.41625" lon="7.34906">
        <ele>798.6</ele>
        <time>2023-07-23T11:07:13Z</time>
      </trkpt>
      <trkpt lat="48.41627" lon="7.3491">
        <ele>798.8</ele>
        <time>2023-07-23T11:07:14Z</time>
      </trkpt>
      <trkpt lat="48.41627" lon="7.34911">
        <ele>798.8</ele>
        <time>2023-07-23T11:07:15Z</time>
      </trkpt>
      <trkpt lat="48.41629" lon="7.34914">
        <ele>799</ele>
        <time>2023-07-23T11:07:16Z</time>
      </trkpt>
      <trkpt lat="48.4163" lon="7.34915">
        <ele>799.1</ele>
        <time>2023-07-23T11:07:17Z</time>
      </trkpt>
      <trkpt lat="48.41632" lon="7.34918">
        <ele>799.2</ele>
        <time>2023-07-23T11:07:18Z</time>
      </trkpt>
      <trkpt lat="48.41633" lon="7.34919">
        <ele>799.3</ele>
        <time>2023-07-23T11:07:19Z</time>
      </trkpt>
      <trkpt lat="48.41636" lon="7.34922">
        <ele>799.5</ele>
        <time>2023-07-23T11:07:20Z</time>
      </trkpt>
      <trkpt lat="48.41636" lon="7.34923">
        <ele>799.5</ele>
        <time>2023-07-23T11:07:21Z</time>
      </trkpt>
      <trkpt lat="48.41639" lon="7.34926">
        <ele>799.7</ele>
        <time>2023-07-23T11:07:22Z</time>
      </trkpt>
      <trkpt lat="48.41639" lon="7.34927">
        <ele>799.8</ele>
        <time>2023-07-23T11:07:23Z</time>
      </trkpt>
      <trkpt lat="48.41641" lon="7.3493">
        <ele>800</ele>
        <time>2023-07-23T11:07:24Z</time>
      </trkpt>
      <trkpt lat="48.41642" lon="7.34931">
        <ele>800</ele>
        <time>2023-07-23T11:07:25Z</time>
      </trkpt>
      <trkpt lat="48.41645" lon="7.34934">
        <ele>800.2</ele>
        <time>2023-07-23T11:07:26Z</time>
      </trkpt>
      <trkpt lat="48.41646" lon="7.34935">
        <ele>800.3</ele>
        <time>2023-07-23T11:07:27Z</time>
      </trkpt>
      <trkpt lat="48.41648" lon="7.34938">
        <ele>800.5</ele>
        <time>2023-07-23T11:07:28Z</time>
      </trkpt>
      <trkpt lat="48.41649" lon="7.34939">
        <ele>800.5</ele>
        <time>2023-07-23T11:07:29Z</time>
      </trkpt>
      <trkpt lat="48.41652" lon="7.34941">
        <ele>800.7</ele>
        <time>2023-07-23T11:07:30Z</time>
      </trkpt>
      <trkpt lat="48.41653" lon="7.34942">
        <ele>800.8</ele>
        <time>2023-07-23T11:07:31Z</time>
      </trkpt>
      <trkpt lat="48.41655" lon="7.34943">
        <ele>801</ele>
        <time>2023-07-23T11:07:32Z</time>
      </trkpt>
      <trkpt lat="48.41656" lon="7.34944">
        <ele>801.1</ele>
        <time>2023-07-23T11:07:33Z</time>
      </trkpt>
      <trkpt lat="48.41659" lon="7.34947">
        <ele>801.4</ele>
        <time>2023-07-23T11:07:34Z</time>
      </trkpt>
      <trkpt lat="48.4166" lon="7.34947">
        <ele>801.4</ele>
        <time>2023-07-23T11:07:35Z</time>
      </trkpt>
      <trkpt lat="48.41663" lon="7.34949">
        <ele>801.7</ele>
        <time>2023-07-23T11:07:36Z</time>
      </trkpt>
      <trkpt lat="48.41664" lon="7.3495">
        <ele>801.8</ele>
        <time>2023-07-23T11:07:37Z</time>
      </trkpt>
      <trkpt lat="48.41667" lon="7.34952">
        <ele>802</ele>
        <time>2023-07-23T11:07:38Z</time>
      </trkpt>
      <trkpt lat="48.41668" lon="7.34953">
        <ele>802.1</ele>
        <time>2023-07-23T11:07:39Z</time>
      </trkpt>
      <trkpt lat="48.41671" lon="7.34955">
        <ele>802.4</ele>
        <time>2023-07-23T11:07:40Z</time>
      </trkpt>
      <trkpt lat="48.41672" lon="7.34955">
        <ele>802.5</ele>
        <time>2023-07-23T11:07:41Z</time>
      </trkpt>
      <trkpt lat="48.41675" lon="7.34958">
        <ele>802.7</ele>
        <time>2023-07-23T11:07:42Z</time>
      </trkpt>
      <trkpt lat="48.41676" lon="7.34958">
        <ele>802.8</ele>
        <time>2023-07-23T11:07:43Z</time>
      </trkpt>
      <trkpt lat="48.41679" lon="7.3496">
        <ele>803.1</ele>
        <time>2023-07-23T11:07:44Z</time>
      </trkpt>
      <trkpt lat="48.41681" lon="7.34961">
        <ele>803.2</ele>
        <time>2023-07-23T11:07:45Z</time>
      </trkpt>
      <trkpt lat="48.41684" lon="7.34962">
        <ele>803.4</ele>
        <time>2023-07-23T11:07:46Z</time>
      </trkpt>
      <trkpt lat="48.41685" lon="7.34963">
        <ele>803.5</ele>
        <time>2023-07-23T11:07:47Z</time>
      </trkpt>
      <trkpt lat="48.41688" lon="7.34965">
        <ele>803.8</ele>
        <time>2023-07-23T11:07:48Z</time>
      </trkpt>
      <trkpt lat="48.41689" lon="7.34965">
        <ele>803.9</ele>
        <time>2023-07-23T11:07:49Z</time>
      </trkpt>
      <trkpt lat="48.41692" lon="7.34967">
        <ele>804.1</ele>
        <time>2023-07-23T11:07:50Z</time>
      </trkpt>
      <trkpt lat="48.41693" lon="7.34967">
        <ele>804.2</ele>
        <time>2023-07-23T11:07:51Z</time>
      </trkpt>
      <trkpt lat="48.41696" lon="7.34968">
        <ele>804.4</ele>
        <time>2023-07-23T11:07:52Z</time>
      </trkpt>
      <trkpt lat="48.41697" lon="7.34968">
        <ele>804.5</ele>
        <time>2023-07-23T11:07:53Z</time>
      </trkpt>
      <trkpt lat="48.417" lon="7.3497">
        <ele>804.7</ele>
        <time>2023-07-23T11:07:54Z</time>
      </trkpt>
      <trkpt lat="48.41701" lon="7.3497">
        <ele>804.8</ele>
        <time>2023-07-23T11:07:55Z</time>
      </trkpt>
      <trkpt lat="48.41704" lon="7.34972">
        <ele>805.1</ele>
        <time>2023-07-23T11:07:56Z</time>
      </trkpt>
      <trkpt lat="48.41705" lon="7.34973">
        <ele>805.2</ele>
        <time>2023-07-23T11:07:57Z</time>
      </trkpt>
      <trkpt lat="48.41709" lon="7.34975">
        <ele>805.5</ele>
        <time>2023-07-23T11:07:58Z</time>
      </trkpt>
      <trkpt lat="48.4171" lon="7.34975">
        <ele>805.6</ele>
        <time>2023-07-23T11:07:59Z</time>
      </trkpt>
      <trkpt lat="48.41713" lon="7.34977">
        <ele>805.9</ele>
        <time>2023-07-23T11:08:00Z</time>
      </trkpt>
      <trkpt lat="48.41715" lon="7.34977">
        <ele>806</ele>
        <time>2023-07-23T11:08:01Z</time>
      </trkpt>
      <trkpt lat="48.41717" lon="7.34977">
        <ele>806.2</ele>
        <time>2023-07-23T11:08:02Z</time>
      </trkpt>
      <trkpt lat="48.41719" lon="7.34978">
        <ele>806.4</ele>
        <time>2023-07-23T11:08:03Z</time>
      </trkpt>
      <trkpt lat="48.41722" lon="7.34979">
        <ele>806.6</ele>
        <time>2023-07-23T11:08:04Z</time>
      </trkpt>
      <trkpt lat="48.41723" lon="7.34979">
        <ele>806.7</ele>
        <time>2023-07-23T11:08:05Z</time>
      </trkpt>
      <trkpt lat="48.41726" lon="7.34979">
        <ele>807</ele>
        <time>2023-07-23T11:08:06Z</time>
      </trkpt>
      <trkpt lat="48.41727" lon="7.3498">
        <ele>807.1</ele>
        <time>2023-07-23T11:08:07Z</time>
      </trkpt>
      <trkpt lat="48.41731" lon="7.34979">
        <ele>807.4</ele>
        <time>2023-07-23T11:08:08Z</time>
      </trkpt>
      <trkpt lat="48.41731" lon="7.34978">
        <ele>807.5</ele>
        <time>2023-07-23T11:08:09Z</time>
      </trkpt>
      <trkpt lat="48.41734" lon="7.34976">
        <ele>807.8</ele>
        <time>2023-07-23T11:08:10Z</time>
      </trkpt>
      <trkpt lat="48.41735" lon="7.34976">
        <ele>807.8</ele>
        <time>2023-07-23T11:08:11Z</time>
      </trkpt>
      <trkpt lat="48.41738" lon="7.34977">
        <ele>808.1</ele>
        <time>2023-07-23T11:08:12Z</time>
      </trkpt>
      <trkpt lat="48.41739" lon="7.34978">
        <ele>808.2</ele>
        <time>2023-07-23T11:08:13Z</time>
      </trkpt>
      <trkpt lat="48.41742" lon="7.3498">
        <ele>808.4</ele>
        <time>2023-07-23T11:08:14Z</time>
      </trkpt>
      <trkpt lat="48.41743" lon="7.3498">
        <ele>808.5</ele>
        <time>2023-07-23T11:08:15Z</time>
      </trkpt>
      <trkpt lat="48.41746" lon="7.34981">
        <ele>808.8</ele>
        <time>2023-07-23T11:08:16Z</time>
      </trkpt>
      <trkpt lat="48.41747" lon="7.34981">
        <ele>808.8</ele>
        <time>2023-07-23T11:08:17Z</time>
      </trkpt>
      <trkpt lat="48.41751" lon="7.3498">
        <ele>809.1</ele>
        <time>2023-07-23T11:08:18Z</time>
      </trkpt>
      <trkpt lat="48.41752" lon="7.34981">
        <ele>809.2</ele>
        <time>2023-07-23T11:08:19Z</time>
      </trkpt>
      <trkpt lat="48.41755" lon="7.3498">
        <ele>809.5</ele>
        <time>2023-07-23T11:08:20Z</time>
      </trkpt>
      <trkpt lat="48.41756" lon="7.3498">
        <ele>809.6</ele>
        <time>2023-07-23T11:08:21Z</time>
      </trkpt>
      <trkpt lat="48.4176" lon="7.3498">
        <ele>809.8</ele>
        <time>2023-07-23T11:08:22Z</time>
      </trkpt>
      <trkpt lat="48.41761" lon="7.3498">
        <ele>809.9</ele>
        <time>2023-07-23T11:08:23Z</time>
      </trkpt>
      <trkpt lat="48.41764" lon="7.3498">
        <ele>810.2</ele>
        <time>2023-07-23T11:08:24Z</time>
      </trkpt>
      <trkpt lat="48.41765" lon="7.3498">
        <ele>810.2</ele>
        <time>2023-07-23T11:08:25Z</time>
      </trkpt>
      <trkpt lat="48.41769" lon="7.3498">
        <ele>810.5</ele>
        <time>2023-07-23T11:08:26Z</time>
      </trkpt>
      <trkpt lat="48.4177" lon="7.3498">
        <ele>810.6</ele>
        <time>2023-07-23T11:08:27Z</time>
      </trkpt>
      <trkpt lat="48.41773" lon="7.3498">
        <ele>810.8</ele>
        <time>2023-07-23T11:08:28Z</time>
      </trkpt>
      <trkpt lat="48.41774" lon="7.34979">
        <ele>810.9</ele>
        <time>2023-07-23T11:08:29Z</time>
      </trkpt>
      <trkpt lat="48.41777" lon="7.34979">
        <ele>811.1</ele>
        <time>2023-07-23T11:08:30Z</time>
      </trkpt>
      <trkpt lat="48.41778" lon="7.34979">
        <ele>811.1</ele>
        <time>2023-07-23T11:08:31Z</time>
      </trkpt>
      <trkpt lat="48.41781" lon="7.34979">
        <ele>811.4</ele>
        <time>2023-07-23T11:08:32Z</time>
      </trkpt>
      <trkpt lat="48.41782" lon="7.34979">
        <ele>811.4</ele>
        <time>2023-07-23T11:08:33Z</time>
      </trkpt>
      <trkpt lat="48.41785" lon="7.34978">
        <ele>811.7</ele>
        <time>2023-07-23T11:08:34Z</time>
      </trkpt>
      <trkpt lat="48.41786" lon="7.34978">
        <ele>811.7</ele>
        <time>2023-07-23T11:08:35Z</time>
      </trkpt>
      <trkpt lat="48.4179" lon="7.34978">
        <ele>812</ele>
        <time>2023-07-23T11:08:36Z</time>
      </trkpt>
      <trkpt lat="48.4179" lon="7.34978">
        <ele>812</ele>
        <time>2023-07-23T11:08:37Z</time>
      </trkpt>
      <trkpt lat="48.41794" lon="7.34978">
        <ele>812.3</ele>
        <time>2023-07-23T11:08:38Z</time>
      </trkpt>
      <trkpt lat="48.41795" lon="7.34978">
        <ele>812.3</ele>
        <time>2023-07-23T11:08:39Z</time>
      </trkpt>
      <trkpt lat="48.41798" lon="7.34978">
        <ele>812.6</ele>
        <time>2023-07-23T11:08:40Z</time>
      </trkpt>
      <trkpt lat="48.41799" lon="7.34978">
        <ele>812.6</ele>
        <time>2023-07-23T11:08:41Z</time>
      </trkpt>
      <trkpt lat="48.41803" lon="7.34978">
        <ele>812.9</ele>
        <time>2023-07-23T11:08:42Z</time>
      </trkpt>
      <trkpt lat="48.41804" lon="7.34978">
        <ele>813</ele>
        <time>2023-07-23T11:08:43Z</time>
      </trkpt>
      <trkpt lat="48.41807" lon="7.34977">
        <ele>813.2</ele>
        <time>2023-07-23T11:08:44Z</time>
      </trkpt>
      <trkpt lat="48.41808" lon="7.34977">
        <ele>813.3</ele>
        <time>2023-07-23T11:08:45Z</time>
      </trkpt>
      <trkpt lat="48.41811" lon="7.34977">
        <ele>813.5</ele>
        <time>2023-07-23T11:08:46Z</time>
      </trkpt>
      <trkpt lat="48.41812" lon="7.34977">
        <ele>813.6</ele>
        <time>2023-07-23T11:08:47Z</time>
      </trkpt>
      <trkpt lat="48.41815" lon="7.34977">
        <ele>813.8</ele>
        <time>2023-07-23T11:08:48Z</time>
      </trkpt>
      <trkpt lat="48.41817" lon="7.34977">
        <ele>813.9</ele>
        <time>2023-07-23T11:08:49Z</time>
      </trkpt>
      <trkpt lat="48.4182" lon="7.34977">
        <ele>814.1</ele>
        <time>2023-07-23T11:08:51Z</time>
      </trkpt>
      <trkpt lat="48.41821" lon="7.34977">
        <ele>814.2</ele>
        <time>2023-07-23T11:08:52Z</time>
      </trkpt>
      <trkpt lat="48.41824" lon="7.34977">
        <ele>814.5</ele>
        <time>2023-07-23T11:08:53Z</time>
      </trkpt>
      <trkpt lat="48.41825" lon="7.34976">
        <ele>814.6</ele>
        <time>2023-07-23T11:08:54Z</time>
      </trkpt>
      <trkpt lat="48.41828" lon="7.34976">
        <ele>814.8</ele>
        <time>2023-07-23T11:08:55Z</time>
      </trkpt>
      <trkpt lat="48.4183" lon="7.34976">
        <ele>814.9</ele>
        <time>2023-07-23T11:08:56Z</time>
      </trkpt>
      <trkpt lat="48.41833" lon="7.34977">
        <ele>815.2</ele>
        <time>2023-07-23T11:08:57Z</time>
      </trkpt>
      <trkpt lat="48.41834" lon="7.34976">
        <ele>815.3</ele>
        <time>2023-07-23T11:08:58Z</time>
      </trkpt>
      <trkpt lat="48.41837" lon="7.34976">
        <ele>815.6</ele>
        <time>2023-07-23T11:08:59Z</time>
      </trkpt>
      <trkpt lat="48.41838" lon="7.34976">
        <ele>815.7</ele>
        <time>2023-07-23T11:09:00Z</time>
      </trkpt>
      <trkpt lat="48.41841" lon="7.34976">
        <ele>816</ele>
        <time>2023-07-23T11:09:01Z</time>
      </trkpt>
      <trkpt lat="48.41843" lon="7.34976">
        <ele>816.1</ele>
        <time>2023-07-23T11:09:02Z</time>
      </trkpt>
      <trkpt lat="48.41846" lon="7.34976">
        <ele>816.3</ele>
        <time>2023-07-23T11:09:03Z</time>
      </trkpt>
      <trkpt lat="48.41847" lon="7.34976">
        <ele>816.4</ele>
        <time>2023-07-23T11:09:04Z</time>
      </trkpt>
      <trkpt lat="48.4185" lon="7.34976">
        <ele>816.7</ele>
        <time>2023-07-23T11:09:05Z</time>
      </trkpt>
      <trkpt lat="48.41851" lon="7.34976">
        <ele>816.8</ele>
        <time>2023-07-23T11:09:06Z</time>
      </trkpt>
      <trkpt lat="48.41854" lon="7.34976">
        <ele>817</ele>
        <time>2023-07-23T11:09:07Z</time>
      </trkpt>
      <trkpt lat="48.41855" lon="7.34976">
        <ele>817.1</ele>
        <time>2023-07-23T11:09:08Z</time>
      </trkpt>
      <trkpt lat="48.41858" lon="7.34975">
        <ele>817.4</ele>
        <time>2023-07-23T11:09:09Z</time>
      </trkpt>
      <trkpt lat="48.4186" lon="7.34975">
        <ele>817.5</ele>
        <time>2023-07-23T11:09:10Z</time>
      </trkpt>
      <trkpt lat="48.41862" lon="7.34975">
        <ele>817.7</ele>
        <time>2023-07-23T11:09:11Z</time>
      </trkpt>
      <trkpt lat="48.41863" lon="7.34976">
        <ele>817.7</ele>
        <time>2023-07-23T11:09:12Z</time>
      </trkpt>
      <trkpt lat="48.41867" lon="7.34976">
        <ele>818</ele>
        <time>2023-07-23T11:09:13Z</time>
      </trkpt>
      <trkpt lat="48.41868" lon="7.34975">
        <ele>818.1</ele>
        <time>2023-07-23T11:09:14Z</time>
      </trkpt>
      <trkpt lat="48.41871" lon="7.34976">
        <ele>818.3</ele>
        <time>2023-07-23T11:09:15Z</time>
      </trkpt>
      <trkpt lat="48.41872" lon="7.34976">
        <ele>818.4</ele>
        <time>2023-07-23T11:09:16Z</time>
      </trkpt>
      <trkpt lat="48.41875" lon="7.34977">
        <ele>818.6</ele>
        <time>2023-07-23T11:09:17Z</time>
      </trkpt>
      <trkpt lat="48.41876" lon="7.34977">
        <ele>818.6</ele>
        <time>2023-07-23T11:09:18Z</time>
      </trkpt>
      <trkpt lat="48.41881" lon="7.34978">
        <ele>819</ele>
        <time>2023-07-23T11:09:19Z</time>
      </trkpt>
      <trkpt lat="48.41884" lon="7.34979">
        <ele>819.2</ele>
        <time>2023-07-23T11:09:20Z</time>
      </trkpt>
      <trkpt lat="48.41885" lon="7.34979">
        <ele>819.3</ele>
        <time>2023-07-23T11:09:21Z</time>
      </trkpt>
      <trkpt lat="48.41889" lon="7.34981">
        <ele>819.5</ele>
        <time>2023-07-23T11:09:22Z</time>
      </trkpt>
      <trkpt lat="48.4189" lon="7.34981">
        <ele>819.6</ele>
        <time>2023-07-23T11:09:23Z</time>
      </trkpt>
      <trkpt lat="48.41893" lon="7.34982">
        <ele>819.9</ele>
        <time>2023-07-23T11:09:24Z</time>
      </trkpt>
      <trkpt lat="48.41894" lon="7.34982">
        <ele>820</ele>
        <time>2023-07-23T11:09:25Z</time>
      </trkpt>
      <trkpt lat="48.41897" lon="7.34983">
        <ele>820.2</ele>
        <time>2023-07-23T11:09:26Z</time>
      </trkpt>
      <trkpt lat="48.41898" lon="7.34984">
        <ele>820.3</ele>
        <time>2023-07-23T11:09:27Z</time>
      </trkpt>
      <trkpt lat="48.41902" lon="7.34985">
        <ele>820.6</ele>
        <time>2023-07-23T11:09:28Z</time>
      </trkpt>
      <trkpt lat="48.41903" lon="7.34985">
        <ele>820.7</ele>
        <time>2023-07-23T11:09:29Z</time>
      </trkpt>
      <trkpt lat="48.41906" lon="7.34986">
        <ele>820.9</ele>
        <time>2023-07-23T11:09:30Z</time>
      </trkpt>
      <trkpt lat="48.41907" lon="7.34986">
        <ele>821</ele>
        <time>2023-07-23T11:09:31Z</time>
      </trkpt>
      <trkpt lat="48.4191" lon="7.34988">
        <ele>821.2</ele>
        <time>2023-07-23T11:09:32Z</time>
      </trkpt>
      <trkpt lat="48.4191" lon="7.34988">
        <ele>821.3</ele>
        <time>2023-07-23T11:09:33Z</time>
      </trkpt>
      <trkpt lat="48.41914" lon="7.3499">
        <ele>821.6</ele>
        <time>2023-07-23T11:09:34Z</time>
      </trkpt>
      <trkpt lat="48.41915" lon="7.3499">
        <ele>821.6</ele>
        <time>2023-07-23T11:09:35Z</time>
      </trkpt>
      <trkpt lat="48.41918" lon="7.3499">
        <ele>821.9</ele>
        <time>2023-07-23T11:09:36Z</time>
      </trkpt>
      <trkpt lat="48.41919" lon="7.34991">
        <ele>822</ele>
        <time>2023-07-23T11:09:37Z</time>
      </trkpt>
      <trkpt lat="48.41922" lon="7.34993">
        <ele>822.3</ele>
        <time>2023-07-23T11:09:38Z</time>
      </trkpt>
      <trkpt lat="48.41923" lon="7.34993">
        <ele>822.4</ele>
        <time>2023-07-23T11:09:39Z</time>
      </trkpt>
      <trkpt lat="48.41926" lon="7.34994">
        <ele>822.6</ele>
        <time>2023-07-23T11:09:40Z</time>
      </trkpt>
      <trkpt lat="48.41927" lon="7.34994">
        <ele>822.7</ele>
        <time>2023-07-23T11:09:41Z</time>
      </trkpt>
      <trkpt lat="48.4193" lon="7.34996">
        <ele>823</ele>
        <time>2023-07-23T11:09:42Z</time>
      </trkpt>
      <trkpt lat="48.41931" lon="7.34997">
        <ele>823.1</ele>
        <time>2023-07-23T11:09:43Z</time>
      </trkpt>
      <trkpt lat="48.41934" lon="7.34998">
        <ele>823.4</ele>
        <time>2023-07-23T11:09:44Z</time>
      </trkpt>
      <trkpt lat="48.41935" lon="7.34998">
        <ele>823.5</ele>
        <time>2023-07-23T11:09:45Z</time>
      </trkpt>
      <trkpt lat="48.41939" lon="7.34999">
        <ele>823.8</ele>
        <time>2023-07-23T11:09:46Z</time>
      </trkpt>
      <trkpt lat="48.4194" lon="7.34999">
        <ele>823.9</ele>
        <time>2023-07-23T11:09:47Z</time>
      </trkpt>
      <trkpt lat="48.41943" lon="7.35">
        <ele>824.2</ele>
        <time>2023-07-23T11:09:48Z</time>
      </trkpt>
      <trkpt lat="48.41944" lon="7.35">
        <ele>824.3</ele>
        <time>2023-07-23T11:09:49Z</time>
      </trkpt>
      <trkpt lat="48.41948" lon="7.35001">
        <ele>824.6</ele>
        <time>2023-07-23T11:09:50Z</time>
      </trkpt>
      <trkpt lat="48.41949" lon="7.35002">
        <ele>824.7</ele>
        <time>2023-07-23T11:09:51Z</time>
      </trkpt>
      <trkpt lat="48.41952" lon="7.35003">
        <ele>825</ele>
        <time>2023-07-23T11:09:52Z</time>
      </trkpt>
      <trkpt lat="48.41953" lon="7.35003">
        <ele>825.1</ele>
        <time>2023-07-23T11:09:53Z</time>
      </trkpt>
      <trkpt lat="48.41956" lon="7.35004">
        <ele>825.4</ele>
        <time>2023-07-23T11:09:54Z</time>
      </trkpt>
      <trkpt lat="48.41958" lon="7.35004">
        <ele>825.5</ele>
        <time>2023-07-23T11:09:55Z</time>
      </trkpt>
      <trkpt lat="48.41961" lon="7.35005">
        <ele>825.8</ele>
        <time>2023-07-23T11:09:56Z</time>
      </trkpt>
      <trkpt lat="48.41962" lon="7.35005">
        <ele>825.9</ele>
        <time>2023-07-23T11:09:57Z</time>
      </trkpt>
      <trkpt lat="48.41965" lon="7.35007">
        <ele>826.2</ele>
        <time>2023-07-23T11:09:58Z</time>
      </trkpt>
      <trkpt lat="48.41966" lon="7.35007">
        <ele>826.3</ele>
        <time>2023-07-23T11:09:59Z</time>
      </trkpt>
      <trkpt lat="48.4197" lon="7.35008">
        <ele>826.6</ele>
        <time>2023-07-23T11:10:00Z</time>
      </trkpt>
      <trkpt lat="48.41971" lon="7.35008">
        <ele>826.7</ele>
        <time>2023-07-23T11:10:01Z</time>
      </trkpt>
      <trkpt lat="48.41974" lon="7.35008">
        <ele>826.9</ele>
        <time>2023-07-23T11:10:02Z</time>
      </trkpt>
      <trkpt lat="48.41977" lon="7.35009">
        <ele>827.1</ele>
        <time>2023-07-23T11:10:03Z</time>
      </trkpt>
      <trkpt lat="48.41978" lon="7.35009">
        <ele>827.2</ele>
        <time>2023-07-23T11:10:04Z</time>
      </trkpt>
      <trkpt lat="48.41982" lon="7.3501">
        <ele>827.5</ele>
        <time>2023-07-23T11:10:05Z</time>
      </trkpt>
      <trkpt lat="48.41983" lon="7.3501">
        <ele>827.6</ele>
        <time>2023-07-23T11:10:06Z</time>
      </trkpt>
      <trkpt lat="48.41986" lon="7.35011">
        <ele>827.8</ele>
        <time>2023-07-23T11:10:07Z</time>
      </trkpt>
      <trkpt lat="48.41987" lon="7.35011">
        <ele>827.9</ele>
        <time>2023-07-23T11:10:08Z</time>
      </trkpt>
      <trkpt lat="48.41991" lon="7.35012">
        <ele>828.1</ele>
        <time>2023-07-23T11:10:09Z</time>
      </trkpt>
      <trkpt lat="48.41992" lon="7.35013">
        <ele>828.2</ele>
        <time>2023-07-23T11:10:10Z</time>
      </trkpt>
      <trkpt lat="48.41995" lon="7.35013">
        <ele>828.4</ele>
        <time>2023-07-23T11:10:11Z</time>
      </trkpt>
      <trkpt lat="48.41996" lon="7.35013">
        <ele>828.5</ele>
        <time>2023-07-23T11:10:12Z</time>
      </trkpt>
      <trkpt lat="48.41999" lon="7.35014">
        <ele>828.8</ele>
        <time>2023-07-23T11:10:13Z</time>
      </trkpt>
      <trkpt lat="48.42001" lon="7.35014">
        <ele>828.9</ele>
        <time>2023-07-23T11:10:14Z</time>
      </trkpt>
      <trkpt lat="48.42004" lon="7.35015">
        <ele>829.1</ele>
        <time>2023-07-23T11:10:15Z</time>
      </trkpt>
      <trkpt lat="48.42005" lon="7.35015">
        <ele>829.2</ele>
        <time>2023-07-23T11:10:16Z</time>
      </trkpt>
      <trkpt lat="48.42008" lon="7.35016">
        <ele>829.4</ele>
        <time>2023-07-23T11:10:17Z</time>
      </trkpt>
      <trkpt lat="48.42009" lon="7.35017">
        <ele>829.5</ele>
        <time>2023-07-23T11:10:18Z</time>
      </trkpt>
      <trkpt lat="48.42013" lon="7.35018">
        <ele>829.7</ele>
        <time>2023-07-23T11:10:19Z</time>
      </trkpt>
      <trkpt lat="48.42014" lon="7.35018">
        <ele>829.8</ele>
        <time>2023-07-23T11:10:20Z</time>
      </trkpt>
      <trkpt lat="48.42018" lon="7.35018">
        <ele>830</ele>
        <time>2023-07-23T11:10:21Z</time>
      </trkpt>
      <trkpt lat="48.42019" lon="7.35019">
        <ele>830.1</ele>
        <time>2023-07-23T11:10:22Z</time>
      </trkpt>
      <trkpt lat="48.42022" lon="7.35019">
        <ele>830.2</ele>
        <time>2023-07-23T11:10:23Z</time>
      </trkpt>
      <trkpt lat="48.42025" lon="7.3502">
        <ele>830.4</ele>
        <time>2023-07-23T11:10:24Z</time>
      </trkpt>
      <trkpt lat="48.42026" lon="7.35021">
        <ele>830.5</ele>
        <time>2023-07-23T11:10:25Z</time>
      </trkpt>
      <trkpt lat="48.4203" lon="7.35021">
        <ele>830.7</ele>
        <time>2023-07-23T11:10:26Z</time>
      </trkpt>
      <trkpt lat="48.42031" lon="7.35021">
        <ele>830.8</ele>
        <time>2023-07-23T11:10:27Z</time>
      </trkpt>
      <trkpt lat="48.42035" lon="7.35022">
        <ele>831</ele>
        <time>2023-07-23T11:10:28Z</time>
      </trkpt>
      <trkpt lat="48.42036" lon="7.35022">
        <ele>831.1</ele>
        <time>2023-07-23T11:10:29Z</time>
      </trkpt>
      <trkpt lat="48.42039" lon="7.35023">
        <ele>831.2</ele>
        <time>2023-07-23T11:10:30Z</time>
      </trkpt>
      <trkpt lat="48.42042" lon="7.35024">
        <ele>831.4</ele>
        <time>2023-07-23T11:10:31Z</time>
      </trkpt>
      <trkpt lat="48.42044" lon="7.35024">
        <ele>831.5</ele>
        <time>2023-07-23T11:10:32Z</time>
      </trkpt>
      <trkpt lat="48.42048" lon="7.35024">
        <ele>831.8</ele>
        <time>2023-07-23T11:10:33Z</time>
      </trkpt>
      <trkpt lat="48.42049" lon="7.35024">
        <ele>831.9</ele>
        <time>2023-07-23T11:10:34Z</time>
      </trkpt>
      <trkpt lat="48.42052" lon="7.35025">
        <ele>832.1</ele>
        <time>2023-07-23T11:10:35Z</time>
      </trkpt>
      <trkpt lat="48.42054" lon="7.35025">
        <ele>832.2</ele>
        <time>2023-07-23T11:10:36Z</time>
      </trkpt>
      <trkpt lat="48.42057" lon="7.35025">
        <ele>832.4</ele>
        <time>2023-07-23T11:10:37Z</time>
      </trkpt>
      <trkpt lat="48.42058" lon="7.35025">
        <ele>832.4</ele>
        <time>2023-07-23T11:10:38Z</time>
      </trkpt>
      <trkpt lat="48.42061" lon="7.35025">
        <ele>832.6</ele>
        <time>2023-07-23T11:10:39Z</time>
      </trkpt>
      <trkpt lat="48.42062" lon="7.35025">
        <ele>832.7</ele>
        <time>2023-07-23T11:10:40Z</time>
      </trkpt>
      <trkpt lat="48.42065" lon="7.35025">
        <ele>832.9</ele>
        <time>2023-07-23T11:10:41Z</time>
      </trkpt>
      <trkpt lat="48.42067" lon="7.35026">
        <ele>833</ele>
        <time>2023-07-23T11:10:42Z</time>
      </trkpt>
      <trkpt lat="48.4207" lon="7.35026">
        <ele>833.2</ele>
        <time>2023-07-23T11:10:43Z</time>
      </trkpt>
      <trkpt lat="48.42071" lon="7.35025">
        <ele>833.2</ele>
        <time>2023-07-23T11:10:44Z</time>
      </trkpt>
      <trkpt lat="48.42075" lon="7.35025">
        <ele>833.5</ele>
        <time>2023-07-23T11:10:45Z</time>
      </trkpt>
      <trkpt lat="48.42076" lon="7.35025">
        <ele>833.5</ele>
        <time>2023-07-23T11:10:46Z</time>
      </trkpt>
      <trkpt lat="48.42079" lon="7.35024">
        <ele>833.8</ele>
        <time>2023-07-23T11:10:47Z</time>
      </trkpt>
      <trkpt lat="48.4208" lon="7.35024">
        <ele>833.8</ele>
        <time>2023-07-23T11:10:48Z</time>
      </trkpt>
      <trkpt lat="48.42084" lon="7.35023">
        <ele>834.1</ele>
        <time>2023-07-23T11:10:49Z</time>
      </trkpt>
      <trkpt lat="48.42085" lon="7.35024">
        <ele>834.2</ele>
        <time>2023-07-23T11:10:50Z</time>
      </trkpt>
      <trkpt lat="48.42088" lon="7.35023">
        <ele>834.4</ele>
        <time>2023-07-23T11:10:51Z</time>
      </trkpt>
      <trkpt lat="48.4209" lon="7.35023">
        <ele>834.5</ele>
        <time>2023-07-23T11:10:52Z</time>
      </trkpt>
      <trkpt lat="48.42093" lon="7.35022">
        <ele>834.7</ele>
        <time>2023-07-23T11:10:53Z</time>
      </trkpt>
      <trkpt lat="48.42094" lon="7.35022">
        <ele>834.8</ele>
        <time>2023-07-23T11:10:54Z</time>
      </trkpt>
      <trkpt lat="48.42097" lon="7.3502">
        <ele>835</ele>
        <time>2023-07-23T11:10:55Z</time>
      </trkpt>
      <trkpt lat="48.42099" lon="7.3502">
        <ele>835.1</ele>
        <time>2023-07-23T11:10:57Z</time>
      </trkpt>
      <trkpt lat="48.42102" lon="7.35018">
        <ele>835.4</ele>
        <time>2023-07-23T11:10:58Z</time>
      </trkpt>
      <trkpt lat="48.42103" lon="7.35017">
        <ele>835.4</ele>
        <time>2023-07-23T11:10:59Z</time>
      </trkpt>
      <trkpt lat="48.42107" lon="7.35015">
        <ele>835.7</ele>
        <time>2023-07-23T11:11:00Z</time>
      </trkpt>
      <trkpt lat="48.42108" lon="7.35015">
        <ele>835.8</ele>
        <time>2023-07-23T11:11:01Z</time>
      </trkpt>
      <trkpt lat="48.42111" lon="7.35013">
        <ele>836</ele>
        <time>2023-07-23T11:11:02Z</time>
      </trkpt>
      <trkpt lat="48.42112" lon="7.35013">
        <ele>836.1</ele>
        <time>2023-07-23T11:11:03Z</time>
      </trkpt>
      <trkpt lat="48.42115" lon="7.3501">
        <ele>836.3</ele>
        <time>2023-07-23T11:11:04Z</time>
      </trkpt>
      <trkpt lat="48.42118" lon="7.35008">
        <ele>836.5</ele>
        <time>2023-07-23T11:11:05Z</time>
      </trkpt>
      <trkpt lat="48.42119" lon="7.35007">
        <ele>836.6</ele>
        <time>2023-07-23T11:11:06Z</time>
      </trkpt>
      <trkpt lat="48.42122" lon="7.35004">
        <ele>836.8</ele>
        <time>2023-07-23T11:11:07Z</time>
      </trkpt>
      <trkpt lat="48.42124" lon="7.35004">
        <ele>836.9</ele>
        <time>2023-07-23T11:11:08Z</time>
      </trkpt>
      <trkpt lat="48.42126" lon="7.35001">
        <ele>837.1</ele>
        <time>2023-07-23T11:11:09Z</time>
      </trkpt>
      <trkpt lat="48.42127" lon="7.35">
        <ele>837.2</ele>
        <time>2023-07-23T11:11:10Z</time>
      </trkpt>
      <trkpt lat="48.4213" lon="7.34996">
        <ele>837.4</ele>
        <time>2023-07-23T11:11:11Z</time>
      </trkpt>
      <trkpt lat="48.42131" lon="7.34995">
        <ele>837.5</ele>
        <time>2023-07-23T11:11:12Z</time>
      </trkpt>
      <trkpt lat="48.42133" lon="7.34991">
        <ele>837.7</ele>
        <time>2023-07-23T11:11:13Z</time>
      </trkpt>
      <trkpt lat="48.42134" lon="7.3499">
        <ele>837.7</ele>
        <time>2023-07-23T11:11:14Z</time>
      </trkpt>
      <trkpt lat="48.42137" lon="7.34987">
        <ele>838</ele>
        <time>2023-07-23T11:11:15Z</time>
      </trkpt>
      <trkpt lat="48.42138" lon="7.34985">
        <ele>838</ele>
        <time>2023-07-23T11:11:16Z</time>
      </trkpt>
      <trkpt lat="48.4214" lon="7.34982">
        <ele>838.2</ele>
        <time>2023-07-23T11:11:17Z</time>
      </trkpt>
      <trkpt lat="48.42141" lon="7.3498">
        <ele>838.3</ele>
        <time>2023-07-23T11:11:18Z</time>
      </trkpt>
      <trkpt lat="48.42144" lon="7.34977">
        <ele>838.5</ele>
        <time>2023-07-23T11:11:19Z</time>
      </trkpt>
      <trkpt lat="48.42145" lon="7.34976">
        <ele>838.6</ele>
        <time>2023-07-23T11:11:20Z</time>
      </trkpt>
      <trkpt lat="48.42147" lon="7.34973">
        <ele>838.8</ele>
        <time>2023-07-23T11:11:21Z</time>
      </trkpt>
      <trkpt lat="48.42148" lon="7.34971">
        <ele>838.8</ele>
        <time>2023-07-23T11:11:22Z</time>
      </trkpt>
      <trkpt lat="48.4215" lon="7.34968">
        <ele>839</ele>
        <time>2023-07-23T11:11:23Z</time>
      </trkpt>
      <trkpt lat="48.4215" lon="7.34966">
        <ele>839.1</ele>
        <time>2023-07-23T11:11:24Z</time>
      </trkpt>
      <trkpt lat="48.42153" lon="7.34961">
        <ele>839.4</ele>
        <time>2023-07-23T11:11:25Z</time>
      </trkpt>
      <trkpt lat="48.42156" lon="7.34959">
        <ele>839.6</ele>
        <time>2023-07-23T11:11:26Z</time>
      </trkpt>
      <trkpt lat="48.42157" lon="7.34958">
        <ele>839.7</ele>
        <time>2023-07-23T11:11:27Z</time>
      </trkpt>
      <trkpt lat="48.4216" lon="7.34955">
        <ele>839.9</ele>
        <time>2023-07-23T11:11:28Z</time>
      </trkpt>
      <trkpt lat="48.42161" lon="7.34954">
        <ele>839.9</ele>
        <time>2023-07-23T11:11:29Z</time>
      </trkpt>
      <trkpt lat="48.42163" lon="7.34951">
        <ele>840.1</ele>
        <time>2023-07-23T11:11:30Z</time>
      </trkpt>
      <trkpt lat="48.42164" lon="7.3495">
        <ele>840.2</ele>
        <time>2023-07-23T11:11:31Z</time>
      </trkpt>
      <trkpt lat="48.42167" lon="7.34947">
        <ele>840.4</ele>
        <time>2023-07-23T11:11:32Z</time>
      </trkpt>
      <trkpt lat="48.42168" lon="7.34946">
        <ele>840.4</ele>
        <time>2023-07-23T11:11:33Z</time>
      </trkpt>
      <trkpt lat="48.4217" lon="7.34942">
        <ele>840.6</ele>
        <time>2023-07-23T11:11:34Z</time>
      </trkpt>
      <trkpt lat="48.42171" lon="7.34941">
        <ele>840.7</ele>
        <time>2023-07-23T11:11:35Z</time>
      </trkpt>
      <trkpt lat="48.42174" lon="7.34938">
        <ele>840.9</ele>
        <time>2023-07-23T11:11:36Z</time>
      </trkpt>
      <trkpt lat="48.42175" lon="7.34936">
        <ele>841</ele>
        <time>2023-07-23T11:11:37Z</time>
      </trkpt>
      <trkpt lat="48.42177" lon="7.34933">
        <ele>841.2</ele>
        <time>2023-07-23T11:11:38Z</time>
      </trkpt>
      <trkpt lat="48.42178" lon="7.34931">
        <ele>841.3</ele>
        <time>2023-07-23T11:11:39Z</time>
      </trkpt>
      <trkpt lat="48.42181" lon="7.34928">
        <ele>841.5</ele>
        <time>2023-07-23T11:11:40Z</time>
      </trkpt>
      <trkpt lat="48.42182" lon="7.34927">
        <ele>841.6</ele>
        <time>2023-07-23T11:11:41Z</time>
      </trkpt>
      <trkpt lat="48.42184" lon="7.34923">
        <ele>841.9</ele>
        <time>2023-07-23T11:11:42Z</time>
      </trkpt>
      <trkpt lat="48.42185" lon="7.34922">
        <ele>841.9</ele>
        <time>2023-07-23T11:11:43Z</time>
      </trkpt>
      <trkpt lat="48.42187" lon="7.34918">
        <ele>842.2</ele>
        <time>2023-07-23T11:11:44Z</time>
      </trkpt>
      <trkpt lat="48.42188" lon="7.34917">
        <ele>842.3</ele>
        <time>2023-07-23T11:11:45Z</time>
      </trkpt>
      <trkpt lat="48.42191" lon="7.34913">
        <ele>842.5</ele>
        <time>2023-07-23T11:11:46Z</time>
      </trkpt>
      <trkpt lat="48.42192" lon="7.34912">
        <ele>842.6</ele>
        <time>2023-07-23T11:11:47Z</time>
      </trkpt>
      <trkpt lat="48.42194" lon="7.34909">
        <ele>842.8</ele>
        <time>2023-07-23T11:11:48Z</time>
      </trkpt>
      <trkpt lat="48.42195" lon="7.34908">
        <ele>842.9</ele>
        <time>2023-07-23T11:11:49Z</time>
      </trkpt>
      <trkpt lat="48.42197" lon="7.34904">
        <ele>843.1</ele>
        <time>2023-07-23T11:11:50Z</time>
      </trkpt>
      <trkpt lat="48.42198" lon="7.34902">
        <ele>843.2</ele>
        <time>2023-07-23T11:11:51Z</time>
      </trkpt>
      <trkpt lat="48.42201" lon="7.34899">
        <ele>843.5</ele>
        <time>2023-07-23T11:11:52Z</time>
      </trkpt>
      <trkpt lat="48.42202" lon="7.34897">
        <ele>843.5</ele>
        <time>2023-07-23T11:11:53Z</time>
      </trkpt>
      <trkpt lat="48.42204" lon="7.34894">
        <ele>843.8</ele>
        <time>2023-07-23T11:11:54Z</time>
      </trkpt>
      <trkpt lat="48.42205" lon="7.34893">
        <ele>843.9</ele>
        <time>2023-07-23T11:11:55Z</time>
      </trkpt>
      <trkpt lat="48.42208" lon="7.34889">
        <ele>844.1</ele>
        <time>2023-07-23T11:11:56Z</time>
      </trkpt>
      <trkpt lat="48.42209" lon="7.34887">
        <ele>844.2</ele>
        <time>2023-07-23T11:11:57Z</time>
      </trkpt>
      <trkpt lat="48.42211" lon="7.34884">
        <ele>844.4</ele>
        <time>2023-07-23T11:11:58Z</time>
      </trkpt>
      <trkpt lat="48.42212" lon="7.34882">
        <ele>844.5</ele>
        <time>2023-07-23T11:11:59Z</time>
      </trkpt>
      <trkpt lat="48.42214" lon="7.34878">
        <ele>844.7</ele>
        <time>2023-07-23T11:12:00Z</time>
      </trkpt>
      <trkpt lat="48.42215" lon="7.34876">
        <ele>844.8</ele>
        <time>2023-07-23T11:12:01Z</time>
      </trkpt>
      <trkpt lat="48.42218" lon="7.34874">
        <ele>845</ele>
        <time>2023-07-23T11:12:02Z</time>
      </trkpt>
      <trkpt lat="48.42219" lon="7.34872">
        <ele>845.1</ele>
        <time>2023-07-23T11:12:03Z</time>
      </trkpt>
      <trkpt lat="48.42221" lon="7.34869">
        <ele>845.3</ele>
        <time>2023-07-23T11:12:04Z</time>
      </trkpt>
      <trkpt lat="48.42222" lon="7.34868">
        <ele>845.4</ele>
        <time>2023-07-23T11:12:05Z</time>
      </trkpt>
      <trkpt lat="48.42225" lon="7.34864">
        <ele>845.6</ele>
        <time>2023-07-23T11:12:06Z</time>
      </trkpt>
      <trkpt lat="48.42226" lon="7.34863">
        <ele>845.7</ele>
        <time>2023-07-23T11:12:07Z</time>
      </trkpt>
      <trkpt lat="48.42229" lon="7.3486">
        <ele>845.9</ele>
        <time>2023-07-23T11:12:08Z</time>
      </trkpt>
      <trkpt lat="48.4223" lon="7.34859">
        <ele>846</ele>
        <time>2023-07-23T11:12:09Z</time>
      </trkpt>
      <trkpt lat="48.42233" lon="7.34856">
        <ele>846.2</ele>
        <time>2023-07-23T11:12:10Z</time>
      </trkpt>
      <trkpt lat="48.42234" lon="7.34855">
        <ele>846.3</ele>
        <time>2023-07-23T11:12:11Z</time>
      </trkpt>
      <trkpt lat="48.42237" lon="7.34852">
        <ele>846.6</ele>
        <time>2023-07-23T11:12:12Z</time>
      </trkpt>
      <trkpt lat="48.42238" lon="7.34851">
        <ele>846.6</ele>
        <time>2023-07-23T11:12:13Z</time>
      </trkpt>
      <trkpt lat="48.42241" lon="7.34848">
        <ele>846.9</ele>
        <time>2023-07-23T11:12:14Z</time>
      </trkpt>
      <trkpt lat="48.42242" lon="7.34847">
        <ele>847</ele>
        <time>2023-07-23T11:12:15Z</time>
      </trkpt>
      <trkpt lat="48.42245" lon="7.34845">
        <ele>847.2</ele>
        <time>2023-07-23T11:12:16Z</time>
      </trkpt>
      <trkpt lat="48.42246" lon="7.34844">
        <ele>847.3</ele>
        <time>2023-07-23T11:12:17Z</time>
      </trkpt>
      <trkpt lat="48.42249" lon="7.34841">
        <ele>847.5</ele>
        <time>2023-07-23T11:12:18Z</time>
      </trkpt>
      <trkpt lat="48.4225" lon="7.3484">
        <ele>847.6</ele>
        <time>2023-07-23T11:12:19Z</time>
      </trkpt>
      <trkpt lat="48.42253" lon="7.34837">
        <ele>847.9</ele>
        <time>2023-07-23T11:12:20Z</time>
      </trkpt>
      <trkpt lat="48.42254" lon="7.34836">
        <ele>848</ele>
        <time>2023-07-23T11:12:21Z</time>
      </trkpt>
      <trkpt lat="48.42257" lon="7.34834">
        <ele>848.2</ele>
        <time>2023-07-23T11:12:22Z</time>
      </trkpt>
      <trkpt lat="48.42258" lon="7.34833">
        <ele>848.3</ele>
        <time>2023-07-23T11:12:23Z</time>
      </trkpt>
      <trkpt lat="48.42262" lon="7.3483">
        <ele>848.6</ele>
        <time>2023-07-23T11:12:24Z</time>
      </trkpt>
      <trkpt lat="48.42263" lon="7.34829">
        <ele>848.7</ele>
        <time>2023-07-23T11:12:25Z</time>
      </trkpt>
      <trkpt lat="48.42266" lon="7.34827">
        <ele>848.9</ele>
        <time>2023-07-23T11:12:26Z</time>
      </trkpt>
      <trkpt lat="48.42267" lon="7.34826">
        <ele>849</ele>
        <time>2023-07-23T11:12:27Z</time>
      </trkpt>
      <trkpt lat="48.4227" lon="7.34824">
        <ele>849.3</ele>
        <time>2023-07-23T11:12:28Z</time>
      </trkpt>
      <trkpt lat="48.42271" lon="7.34823">
        <ele>849.3</ele>
        <time>2023-07-23T11:12:29Z</time>
      </trkpt>
      <trkpt lat="48.42275" lon="7.34821">
        <ele>849.6</ele>
        <time>2023-07-23T11:12:30Z</time>
      </trkpt>
      <trkpt lat="48.42276" lon="7.34821">
        <ele>849.7</ele>
        <time>2023-07-23T11:12:31Z</time>
      </trkpt>
      <trkpt lat="48.42279" lon="7.34819">
        <ele>849.9</ele>
        <time>2023-07-23T11:12:32Z</time>
      </trkpt>
      <trkpt lat="48.4228" lon="7.34818">
        <ele>850</ele>
        <time>2023-07-23T11:12:33Z</time>
      </trkpt>
      <trkpt lat="48.42283" lon="7.34816">
        <ele>850.2</ele>
        <time>2023-07-23T11:12:34Z</time>
      </trkpt>
      <trkpt lat="48.42284" lon="7.34815">
        <ele>850.3</ele>
        <time>2023-07-23T11:12:35Z</time>
      </trkpt>
      <trkpt lat="48.42288" lon="7.34814">
        <ele>850.5</ele>
        <time>2023-07-23T11:12:36Z</time>
      </trkpt>
      <trkpt lat="48.42289" lon="7.34813">
        <ele>850.6</ele>
        <time>2023-07-23T11:12:37Z</time>
      </trkpt>
      <trkpt lat="48.42292" lon="7.34811">
        <ele>850.8</ele>
        <time>2023-07-23T11:12:38Z</time>
      </trkpt>
      <trkpt lat="48.42293" lon="7.34811">
        <ele>850.9</ele>
        <time>2023-07-23T11:12:39Z</time>
      </trkpt>
      <trkpt lat="48.42296" lon="7.34809">
        <ele>851.1</ele>
        <time>2023-07-23T11:12:40Z</time>
      </trkpt>
      <trkpt lat="48.42297" lon="7.34808">
        <ele>851.2</ele>
        <time>2023-07-23T11:12:41Z</time>
      </trkpt>
      <trkpt lat="48.423" lon="7.34807">
        <ele>851.5</ele>
        <time>2023-07-23T11:12:42Z</time>
      </trkpt>
      <trkpt lat="48.42301" lon="7.34806">
        <ele>851.5</ele>
        <time>2023-07-23T11:12:43Z</time>
      </trkpt>
      <trkpt lat="48.42305" lon="7.34804">
        <ele>851.8</ele>
        <time>2023-07-23T11:12:44Z</time>
      </trkpt>
      <trkpt lat="48.42306" lon="7.34804">
        <ele>851.9</ele>
        <time>2023-07-23T11:12:45Z</time>
      </trkpt>
      <trkpt lat="48.42309" lon="7.34802">
        <ele>852.1</ele>
        <time>2023-07-23T11:12:46Z</time>
      </trkpt>
      <trkpt lat="48.4231" lon="7.34801">
        <ele>852.2</ele>
        <time>2023-07-23T11:12:47Z</time>
      </trkpt>
      <trkpt lat="48.42314" lon="7.348">
        <ele>852.5</ele>
        <time>2023-07-23T11:12:48Z</time>
      </trkpt>
      <trkpt lat="48.42315" lon="7.34799">
        <ele>852.6</ele>
        <time>2023-07-23T11:12:49Z</time>
      </trkpt>
      <trkpt lat="48.42318" lon="7.34797">
        <ele>852.8</ele>
        <time>2023-07-23T11:12:50Z</time>
      </trkpt>
      <trkpt lat="48.42319" lon="7.34796">
        <ele>852.9</ele>
        <time>2023-07-23T11:12:51Z</time>
      </trkpt>
      <trkpt lat="48.42323" lon="7.34794">
        <ele>853.2</ele>
        <time>2023-07-23T11:12:52Z</time>
      </trkpt>
      <trkpt lat="48.42324" lon="7.34794">
        <ele>853.3</ele>
        <time>2023-07-23T11:12:53Z</time>
      </trkpt>
      <trkpt lat="48.42327" lon="7.34792">
        <ele>853.5</ele>
        <time>2023-07-23T11:12:54Z</time>
      </trkpt>
      <trkpt lat="48.42328" lon="7.34792">
        <ele>853.6</ele>
        <time>2023-07-23T11:12:55Z</time>
      </trkpt>
      <trkpt lat="48.42331" lon="7.34789">
        <ele>853.9</ele>
        <time>2023-07-23T11:12:56Z</time>
      </trkpt>
      <trkpt lat="48.42332" lon="7.34789">
        <ele>854</ele>
        <time>2023-07-23T11:12:57Z</time>
      </trkpt>
      <trkpt lat="48.42335" lon="7.34786">
        <ele>854.2</ele>
        <time>2023-07-23T11:12:58Z</time>
      </trkpt>
      <trkpt lat="48.42336" lon="7.34785">
        <ele>854.3</ele>
        <time>2023-07-23T11:12:59Z</time>
      </trkpt>
      <trkpt lat="48.42339" lon="7.34782">
        <ele>854.6</ele>
        <time>2023-07-23T11:13:00Z</time>
      </trkpt>
      <trkpt lat="48.4234" lon="7.34781">
        <ele>854.7</ele>
        <time>2023-07-23T11:13:01Z</time>
      </trkpt>
      <trkpt lat="48.42342" lon="7.34778">
        <ele>854.9</ele>
        <time>2023-07-23T11:13:03Z</time>
      </trkpt>
      <trkpt lat="48.42343" lon="7.34777">
        <ele>855</ele>
        <time>2023-07-23T11:13:04Z</time>
      </trkpt>
      <trkpt lat="48.42344" lon="7.34776">
        <ele>855.1</ele>
        <time>2023-07-23T11:13:05Z</time>
      </trkpt>
      <trkpt lat="48.42345" lon="7.34776">
        <ele>855.2</ele>
        <time>2023-07-23T11:13:06Z</time>
      </trkpt>
      <trkpt lat="48.42346" lon="7.34776">
        <ele>855.2</ele>
        <time>2023-07-23T11:13:07Z</time>
      </trkpt>
      <trkpt lat="48.42346" lon="7.34775">
        <ele>855.3</ele>
        <time>2023-07-23T11:13:08Z</time>
      </trkpt>
      <trkpt lat="48.42346" lon="7.34774">
        <ele>855.3</ele>
        <time>2023-07-23T11:13:09Z</time>
      </trkpt>
      <trkpt lat="48.42346" lon="7.34773">
        <ele>855.4</ele>
        <time>2023-07-23T11:13:10Z</time>
      </trkpt>
      <trkpt lat="48.42346" lon="7.34772">
        <ele>855.4</ele>
        <time>2023-07-23T11:13:11Z</time>
      </trkpt>
      <trkpt lat="48.42346" lon="7.34771">
        <ele>855.5</ele>
        <time>2023-07-23T11:13:12Z</time>
      </trkpt>
      <trkpt lat="48.42346" lon="7.3477">
        <ele>855.5</ele>
        <time>2023-07-23T11:13:13Z</time>
      </trkpt>
      <trkpt lat="48.42346" lon="7.34769">
        <ele>855.6</ele>
        <time>2023-07-23T11:13:14Z</time>
      </trkpt>
      <trkpt lat="48.42346" lon="7.34768">
        <ele>855.6</ele>
        <time>2023-07-23T11:13:15Z</time>
      </trkpt>
      <trkpt lat="48.42346" lon="7.34767">
        <ele>855.7</ele>
        <time>2023-07-23T11:13:16Z</time>
      </trkpt>
      <trkpt lat="48.42346" lon="7.34766">
        <ele>855.7</ele>
        <time>2023-07-23T11:16:47Z</time>
      </trkpt>
      <trkpt lat="48.42346" lon="7.34766">
        <ele>855.8</ele>
        <time>2023-07-23T11:16:48Z</time>
      </trkpt>
      <trkpt lat="48.42347" lon="7.34761">
        <ele>856</ele>
        <time>2023-07-23T11:16:49Z</time>
      </trkpt>
      <trkpt lat="48.42347" lon="7.3476">
        <ele>856.1</ele>
        <time>2023-07-23T11:16:50Z</time>
      </trkpt>
      <trkpt lat="48.42347" lon="7.34759">
        <ele>856.2</ele>
        <time>2023-07-23T11:16:51Z</time>
      </trkpt>
      <trkpt lat="48.42348" lon="7.34756">
        <ele>856.3</ele>
        <time>2023-07-23T11:16:52Z</time>
      </trkpt>
      <trkpt lat="48.4235" lon="7.34753">
        <ele>856.5</ele>
        <time>2023-07-23T11:16:53Z</time>
      </trkpt>
      <trkpt lat="48.42351" lon="7.34752">
        <ele>856.6</ele>
        <time>2023-07-23T11:16:54Z</time>
      </trkpt>
      <trkpt lat="48.42352" lon="7.3475">
        <ele>856.7</ele>
        <time>2023-07-23T11:16:55Z</time>
      </trkpt>
      <trkpt lat="48.42353" lon="7.34748">
        <ele>856.8</ele>
        <time>2023-07-23T11:16:56Z</time>
      </trkpt>
      <trkpt lat="48.42354" lon="7.34745">
        <ele>857</ele>
        <time>2023-07-23T11:16:57Z</time>
      </trkpt>
      <trkpt lat="48.42355" lon="7.34744">
        <ele>857.1</ele>
        <time>2023-07-23T11:16:58Z</time>
      </trkpt>
      <trkpt lat="48.42356" lon="7.34742">
        <ele>857.2</ele>
        <time>2023-07-23T11:16:59Z</time>
      </trkpt>
      <trkpt lat="48.42356" lon="7.34739">
        <ele>857.4</ele>
        <time>2023-07-23T11:17:00Z</time>
      </trkpt>
      <trkpt lat="48.42357" lon="7.34735">
        <ele>857.6</ele>
        <time>2023-07-23T11:17:01Z</time>
      </trkpt>
      <trkpt lat="48.42358" lon="7.34734">
        <ele>857.6</ele>
        <time>2023-07-23T11:17:02Z</time>
      </trkpt>
      <trkpt lat="48.42358" lon="7.3473">
        <ele>857.8</ele>
        <time>2023-07-23T11:17:03Z</time>
      </trkpt>
      <trkpt lat="48.42359" lon="7.34728">
        <ele>857.9</ele>
        <time>2023-07-23T11:17:04Z</time>
      </trkpt>
      <trkpt lat="48.42359" lon="7.34723">
        <ele>858.2</ele>
        <time>2023-07-23T11:17:05Z</time>
      </trkpt>
      <trkpt lat="48.42359" lon="7.34721">
        <ele>858.2</ele>
        <time>2023-07-23T11:17:06Z</time>
      </trkpt>
      <trkpt lat="48.42359" lon="7.34717">
        <ele>858.4</ele>
        <time>2023-07-23T11:17:07Z</time>
      </trkpt>
      <trkpt lat="48.42358" lon="7.34715">
        <ele>858.5</ele>
        <time>2023-07-23T11:17:08Z</time>
      </trkpt>
      <trkpt lat="48.42358" lon="7.3471">
        <ele>858.8</ele>
        <time>2023-07-23T11:17:09Z</time>
      </trkpt>
      <trkpt lat="48.42358" lon="7.34708">
        <ele>858.8</ele>
        <time>2023-07-23T11:17:10Z</time>
      </trkpt>
      <trkpt lat="48.42358" lon="7.34704">
        <ele>859</ele>
        <time>2023-07-23T11:17:11Z</time>
      </trkpt>
      <trkpt lat="48.42358" lon="7.34702">
        <ele>859.1</ele>
        <time>2023-07-23T11:17:12Z</time>
      </trkpt>
      <trkpt lat="48.42358" lon="7.34697">
        <ele>859.3</ele>
        <time>2023-07-23T11:17:14Z</time>
      </trkpt>
      <trkpt lat="48.42358" lon="7.34696">
        <ele>859.4</ele>
        <time>2023-07-23T11:17:15Z</time>
      </trkpt>
      <trkpt lat="48.42357" lon="7.34691">
        <ele>859.6</ele>
        <time>2023-07-23T11:17:16Z</time>
      </trkpt>
      <trkpt lat="48.42357" lon="7.34689">
        <ele>859.7</ele>
        <time>2023-07-23T11:17:17Z</time>
      </trkpt>
      <trkpt lat="48.42356" lon="7.34684">
        <ele>860</ele>
        <time>2023-07-23T11:17:18Z</time>
      </trkpt>
      <trkpt lat="48.42355" lon="7.34682">
        <ele>860</ele>
        <time>2023-07-23T11:17:19Z</time>
      </trkpt>
      <trkpt lat="48.42355" lon="7.34678">
        <ele>860.3</ele>
        <time>2023-07-23T11:17:20Z</time>
      </trkpt>
      <trkpt lat="48.42354" lon="7.34676">
        <ele>860.4</ele>
        <time>2023-07-23T11:17:21Z</time>
      </trkpt>
      <trkpt lat="48.42353" lon="7.34672">
        <ele>860.6</ele>
        <time>2023-07-23T11:17:22Z</time>
      </trkpt>
      <trkpt lat="48.42353" lon="7.3467">
        <ele>860.7</ele>
        <time>2023-07-23T11:17:23Z</time>
      </trkpt>
      <trkpt lat="48.42352" lon="7.34665">
        <ele>860.9</ele>
        <time>2023-07-23T11:17:24Z</time>
      </trkpt>
      <trkpt lat="48.42352" lon="7.34664">
        <ele>861</ele>
        <time>2023-07-23T11:17:25Z</time>
      </trkpt>
      <trkpt lat="48.4235" lon="7.34659">
        <ele>861.2</ele>
        <time>2023-07-23T11:17:26Z</time>
      </trkpt>
      <trkpt lat="48.4235" lon="7.34658">
        <ele>861.3</ele>
        <time>2023-07-23T11:17:27Z</time>
      </trkpt>
      <trkpt lat="48.42349" lon="7.34653">
        <ele>861.5</ele>
        <time>2023-07-23T11:17:28Z</time>
      </trkpt>
      <trkpt lat="48.42349" lon="7.34651">
        <ele>861.6</ele>
        <time>2023-07-23T11:17:29Z</time>
      </trkpt>
      <trkpt lat="48.42348" lon="7.34647">
        <ele>861.8</ele>
        <time>2023-07-23T11:17:30Z</time>
      </trkpt>
      <trkpt lat="48.42348" lon="7.34645">
        <ele>861.8</ele>
        <time>2023-07-23T11:17:31Z</time>
      </trkpt>
      <trkpt lat="48.42347" lon="7.34641">
        <ele>862</ele>
        <time>2023-07-23T11:17:32Z</time>
      </trkpt>
      <trkpt lat="48.42347" lon="7.34639">
        <ele>862.1</ele>
        <time>2023-07-23T11:17:33Z</time>
      </trkpt>
      <trkpt lat="48.42346" lon="7.34633">
        <ele>862.4</ele>
        <time>2023-07-23T11:17:34Z</time>
      </trkpt>
      <trkpt lat="48.42346" lon="7.3463">
        <ele>862.5</ele>
        <time>2023-07-23T11:17:35Z</time>
      </trkpt>
      <trkpt lat="48.42346" lon="7.34627">
        <ele>862.7</ele>
        <time>2023-07-23T11:17:36Z</time>
      </trkpt>
      <trkpt lat="48.42345" lon="7.34622">
        <ele>862.9</ele>
        <time>2023-07-23T11:17:37Z</time>
      </trkpt>
      <trkpt lat="48.42345" lon="7.3462">
        <ele>862.9</ele>
        <time>2023-07-23T11:17:38Z</time>
      </trkpt>
      <trkpt lat="48.42345" lon="7.34615">
        <ele>863.1</ele>
        <time>2023-07-23T11:17:39Z</time>
      </trkpt>
      <trkpt lat="48.42345" lon="7.34613">
        <ele>863.2</ele>
        <time>2023-07-23T11:17:40Z</time>
      </trkpt>
      <trkpt lat="48.42344" lon="7.34609">
        <ele>863.4</ele>
        <time>2023-07-23T11:17:41Z</time>
      </trkpt>
      <trkpt lat="48.42344" lon="7.34607">
        <ele>863.4</ele>
        <time>2023-07-23T11:17:42Z</time>
      </trkpt>
      <trkpt lat="48.42344" lon="7.34602">
        <ele>863.6</ele>
        <time>2023-07-23T11:17:43Z</time>
      </trkpt>
      <trkpt lat="48.42344" lon="7.34601">
        <ele>863.7</ele>
        <time>2023-07-23T11:17:44Z</time>
      </trkpt>
      <trkpt lat="48.42345" lon="7.34596">
        <ele>863.9</ele>
        <time>2023-07-23T11:17:45Z</time>
      </trkpt>
      <trkpt lat="48.42345" lon="7.34594">
        <ele>864</ele>
        <time>2023-07-23T11:17:46Z</time>
      </trkpt>
      <trkpt lat="48.42345" lon="7.34589">
        <ele>864.2</ele>
        <time>2023-07-23T11:17:47Z</time>
      </trkpt>
      <trkpt lat="48.42345" lon="7.34587">
        <ele>864.3</ele>
        <time>2023-07-23T11:17:48Z</time>
      </trkpt>
      <trkpt lat="48.42345" lon="7.34582">
        <ele>864.5</ele>
        <time>2023-07-23T11:17:49Z</time>
      </trkpt>
      <trkpt lat="48.42345" lon="7.3458">
        <ele>864.6</ele>
        <time>2023-07-23T11:17:50Z</time>
      </trkpt>
      <trkpt lat="48.42346" lon="7.34575">
        <ele>864.8</ele>
        <time>2023-07-23T11:17:51Z</time>
      </trkpt>
      <trkpt lat="48.42346" lon="7.34574">
        <ele>864.9</ele>
        <time>2023-07-23T11:17:52Z</time>
      </trkpt>
      <trkpt lat="48.42346" lon="7.34568">
        <ele>865.1</ele>
        <time>2023-07-23T11:17:53Z</time>
      </trkpt>
      <trkpt lat="48.42347" lon="7.34567">
        <ele>865.2</ele>
        <time>2023-07-23T11:17:54Z</time>
      </trkpt>
      <trkpt lat="48.42347" lon="7.34562">
        <ele>865.4</ele>
        <time>2023-07-23T11:17:55Z</time>
      </trkpt>
      <trkpt lat="48.42348" lon="7.3456">
        <ele>865.5</ele>
        <time>2023-07-23T11:17:56Z</time>
      </trkpt>
      <trkpt lat="48.42348" lon="7.34554">
        <ele>865.7</ele>
        <time>2023-07-23T11:17:57Z</time>
      </trkpt>
      <trkpt lat="48.42348" lon="7.34553">
        <ele>865.8</ele>
        <time>2023-07-23T11:17:58Z</time>
      </trkpt>
      <trkpt lat="48.42349" lon="7.34547">
        <ele>866</ele>
        <time>2023-07-23T11:17:59Z</time>
      </trkpt>
      <trkpt lat="48.42349" lon="7.34546">
        <ele>866.1</ele>
        <time>2023-07-23T11:18:00Z</time>
      </trkpt>
      <trkpt lat="48.4235" lon="7.3454">
        <ele>866.3</ele>
        <time>2023-07-23T11:18:01Z</time>
      </trkpt>
      <trkpt lat="48.42351" lon="7.34538">
        <ele>866.4</ele>
        <time>2023-07-23T11:18:02Z</time>
      </trkpt>
      <trkpt lat="48.42351" lon="7.34533">
        <ele>866.6</ele>
        <time>2023-07-23T11:18:03Z</time>
      </trkpt>
      <trkpt lat="48.42351" lon="7.34531">
        <ele>866.6</ele>
        <time>2023-07-23T11:18:04Z</time>
      </trkpt>
      <trkpt lat="48.42352" lon="7.34526">
        <ele>866.9</ele>
        <time>2023-07-23T11:18:05Z</time>
      </trkpt>
      <trkpt lat="48.42353" lon="7.34525">
        <ele>866.9</ele>
        <time>2023-07-23T11:18:06Z</time>
      </trkpt>
      <trkpt lat="48.42353" lon="7.34519">
        <ele>867.2</ele>
        <time>2023-07-23T11:18:07Z</time>
      </trkpt>
      <trkpt lat="48.42354" lon="7.34517">
        <ele>867.2</ele>
        <time>2023-07-23T11:18:08Z</time>
      </trkpt>
      <trkpt lat="48.42354" lon="7.34513">
        <ele>867.4</ele>
        <time>2023-07-23T11:18:09Z</time>
      </trkpt>
      <trkpt lat="48.42354" lon="7.34511">
        <ele>867.5</ele>
        <time>2023-07-23T11:18:10Z</time>
      </trkpt>
      <trkpt lat="48.42355" lon="7.34506">
        <ele>867.7</ele>
        <time>2023-07-23T11:18:11Z</time>
      </trkpt>
      <trkpt lat="48.42355" lon="7.34504">
        <ele>867.8</ele>
        <time>2023-07-23T11:18:12Z</time>
      </trkpt>
      <trkpt lat="48.42356" lon="7.34499">
        <ele>868</ele>
        <time>2023-07-23T11:18:13Z</time>
      </trkpt>
      <trkpt lat="48.42357" lon="7.34497">
        <ele>868.1</ele>
        <time>2023-07-23T11:18:14Z</time>
      </trkpt>
      <trkpt lat="48.42357" lon="7.34492">
        <ele>868.3</ele>
        <time>2023-07-23T11:18:15Z</time>
      </trkpt>
      <trkpt lat="48.42357" lon="7.3449">
        <ele>868.3</ele>
        <time>2023-07-23T11:18:16Z</time>
      </trkpt>
      <trkpt lat="48.42358" lon="7.34485">
        <ele>868.5</ele>
        <time>2023-07-23T11:18:17Z</time>
      </trkpt>
      <trkpt lat="48.42358" lon="7.34483">
        <ele>868.6</ele>
        <time>2023-07-23T11:18:18Z</time>
      </trkpt>
      <trkpt lat="48.42358" lon="7.34479">
        <ele>868.7</ele>
        <time>2023-07-23T11:18:19Z</time>
      </trkpt>
      <trkpt lat="48.42359" lon="7.34473">
        <ele>868.9</ele>
        <time>2023-07-23T11:18:20Z</time>
      </trkpt>
      <trkpt lat="48.42359" lon="7.34471">
        <ele>869</ele>
        <time>2023-07-23T11:18:21Z</time>
      </trkpt>
      <trkpt lat="48.4236" lon="7.34465">
        <ele>869.2</ele>
        <time>2023-07-23T11:18:22Z</time>
      </trkpt>
      <trkpt lat="48.4236" lon="7.34463">
        <ele>869.2</ele>
        <time>2023-07-23T11:18:23Z</time>
      </trkpt>
      <trkpt lat="48.42361" lon="7.34457">
        <ele>869.4</ele>
        <time>2023-07-23T11:18:24Z</time>
      </trkpt>
      <trkpt lat="48.42361" lon="7.34455">
        <ele>869.5</ele>
        <time>2023-07-23T11:18:25Z</time>
      </trkpt>
      <trkpt lat="48.42362" lon="7.3445">
        <ele>869.7</ele>
        <time>2023-07-23T11:18:26Z</time>
      </trkpt>
      <trkpt lat="48.42363" lon="7.34447">
        <ele>869.7</ele>
        <time>2023-07-23T11:18:27Z</time>
      </trkpt>
      <trkpt lat="48.42363" lon="7.34443">
        <ele>869.9</ele>
        <time>2023-07-23T11:18:28Z</time>
      </trkpt>
      <trkpt lat="48.42364" lon="7.34437">
        <ele>870.1</ele>
        <time>2023-07-23T11:18:29Z</time>
      </trkpt>
      <trkpt lat="48.42364" lon="7.34435">
        <ele>870.1</ele>
        <time>2023-07-23T11:18:30Z</time>
      </trkpt>
      <trkpt lat="48.42365" lon="7.34429">
        <ele>870.3</ele>
        <time>2023-07-23T11:18:31Z</time>
      </trkpt>
      <trkpt lat="48.42365" lon="7.34427">
        <ele>870.4</ele>
        <time>2023-07-23T11:18:32Z</time>
      </trkpt>
      <trkpt lat="48.42366" lon="7.34423">
        <ele>870.5</ele>
        <time>2023-07-23T11:18:33Z</time>
      </trkpt>
      <trkpt lat="48.42367" lon="7.34418">
        <ele>870.7</ele>
        <time>2023-07-23T11:18:34Z</time>
      </trkpt>
      <trkpt lat="48.42368" lon="7.34414">
        <ele>870.8</ele>
        <time>2023-07-23T11:18:35Z</time>
      </trkpt>
      <trkpt lat="48.42368" lon="7.3441">
        <ele>871</ele>
        <time>2023-07-23T11:18:36Z</time>
      </trkpt>
      <trkpt lat="48.42369" lon="7.34405">
        <ele>871.1</ele>
        <time>2023-07-23T11:18:37Z</time>
      </trkpt>
      <trkpt lat="48.42369" lon="7.34401">
        <ele>871.2</ele>
        <time>2023-07-23T11:18:38Z</time>
      </trkpt>
      <trkpt lat="48.4237" lon="7.34397">
        <ele>871.3</ele>
        <time>2023-07-23T11:18:39Z</time>
      </trkpt>
      <trkpt lat="48.42371" lon="7.34392">
        <ele>871.4</ele>
        <time>2023-07-23T11:18:40Z</time>
      </trkpt>
      <trkpt lat="48.42371" lon="7.34388">
        <ele>871.6</ele>
        <time>2023-07-23T11:18:41Z</time>
      </trkpt>
      <trkpt lat="48.42372" lon="7.34384">
        <ele>871.7</ele>
        <time>2023-07-23T11:18:42Z</time>
      </trkpt>
      <trkpt lat="48.42372" lon="7.3438">
        <ele>871.8</ele>
        <time>2023-07-23T11:18:43Z</time>
      </trkpt>
      <trkpt lat="48.42373" lon="7.34376">
        <ele>871.9</ele>
        <time>2023-07-23T11:18:44Z</time>
      </trkpt>
      <trkpt lat="48.42374" lon="7.3437">
        <ele>872.1</ele>
        <time>2023-07-23T11:18:45Z</time>
      </trkpt>
      <trkpt lat="48.42374" lon="7.34368">
        <ele>872.1</ele>
        <time>2023-07-23T11:18:46Z</time>
      </trkpt>
      <trkpt lat="48.42375" lon="7.34364">
        <ele>872.2</ele>
        <time>2023-07-23T11:18:47Z</time>
      </trkpt>
      <trkpt lat="48.42375" lon="7.34359">
        <ele>872.3</ele>
        <time>2023-07-23T11:18:48Z</time>
      </trkpt>
      <trkpt lat="48.42375" lon="7.34355">
        <ele>872.4</ele>
        <time>2023-07-23T11:18:49Z</time>
      </trkpt>
      <trkpt lat="48.42376" lon="7.34351">
        <ele>872.6</ele>
        <time>2023-07-23T11:18:50Z</time>
      </trkpt>
      <trkpt lat="48.42377" lon="7.34345">
        <ele>872.7</ele>
        <time>2023-07-23T11:18:51Z</time>
      </trkpt>
      <trkpt lat="48.42377" lon="7.34343">
        <ele>872.8</ele>
        <time>2023-07-23T11:18:52Z</time>
      </trkpt>
      <trkpt lat="48.42378" lon="7.34339">
        <ele>872.9</ele>
        <time>2023-07-23T11:18:53Z</time>
      </trkpt>
      <trkpt lat="48.42379" lon="7.34334">
        <ele>873</ele>
        <time>2023-07-23T11:18:54Z</time>
      </trkpt>
      <trkpt lat="48.42379" lon="7.3433">
        <ele>873.2</ele>
        <time>2023-07-23T11:18:55Z</time>
      </trkpt>
      <trkpt lat="48.4238" lon="7.34326">
        <ele>873.3</ele>
        <time>2023-07-23T11:18:56Z</time>
      </trkpt>
      <trkpt lat="48.4238" lon="7.34321">
        <ele>873.4</ele>
        <time>2023-07-23T11:18:57Z</time>
      </trkpt>
      <trkpt lat="48.42381" lon="7.34318">
        <ele>873.5</ele>
        <time>2023-07-23T11:18:58Z</time>
      </trkpt>
      <trkpt lat="48.42382" lon="7.34313">
        <ele>873.7</ele>
        <time>2023-07-23T11:18:59Z</time>
      </trkpt>
      <trkpt lat="48.42382" lon="7.34309">
        <ele>873.8</ele>
        <time>2023-07-23T11:19:00Z</time>
      </trkpt>
      <trkpt lat="48.42383" lon="7.34305">
        <ele>873.9</ele>
        <time>2023-07-23T11:19:01Z</time>
      </trkpt>
      <trkpt lat="48.42383" lon="7.34301">
        <ele>874</ele>
        <time>2023-07-23T11:19:02Z</time>
      </trkpt>
      <trkpt lat="48.42384" lon="7.34297">
        <ele>874.2</ele>
        <time>2023-07-23T11:19:03Z</time>
      </trkpt>
      <trkpt lat="48.42384" lon="7.34293">
        <ele>874.3</ele>
        <time>2023-07-23T11:19:04Z</time>
      </trkpt>
      <trkpt lat="48.42385" lon="7.34288">
        <ele>874.4</ele>
        <time>2023-07-23T11:19:05Z</time>
      </trkpt>
      <trkpt lat="48.42386" lon="7.34284">
        <ele>874.6</ele>
        <time>2023-07-23T11:19:06Z</time>
      </trkpt>
      <trkpt lat="48.42386" lon="7.3428">
        <ele>874.7</ele>
        <time>2023-07-23T11:19:07Z</time>
      </trkpt>
      <trkpt lat="48.42387" lon="7.34276">
        <ele>874.8</ele>
        <time>2023-07-23T11:19:08Z</time>
      </trkpt>
      <trkpt lat="48.42387" lon="7.34271">
        <ele>875</ele>
        <time>2023-07-23T11:19:09Z</time>
      </trkpt>
      <trkpt lat="48.42388" lon="7.34267">
        <ele>875.1</ele>
        <time>2023-07-23T11:19:10Z</time>
      </trkpt>
      <trkpt lat="48.42388" lon="7.34263">
        <ele>875.3</ele>
        <time>2023-07-23T11:19:11Z</time>
      </trkpt>
      <trkpt lat="48.42389" lon="7.34259">
        <ele>875.4</ele>
        <time>2023-07-23T11:19:12Z</time>
      </trkpt>
      <trkpt lat="48.4239" lon="7.34255">
        <ele>875.5</ele>
        <time>2023-07-23T11:19:13Z</time>
      </trkpt>
      <trkpt lat="48.4239" lon="7.3425">
        <ele>875.7</ele>
        <time>2023-07-23T11:19:14Z</time>
      </trkpt>
      <trkpt lat="48.42391" lon="7.34246">
        <ele>875.8</ele>
        <time>2023-07-23T11:19:15Z</time>
      </trkpt>
      <trkpt lat="48.42391" lon="7.3424">
        <ele>876.1</ele>
        <time>2023-07-23T11:19:16Z</time>
      </trkpt>
      <trkpt lat="48.42391" lon="7.34238">
        <ele>876.1</ele>
        <time>2023-07-23T11:19:17Z</time>
      </trkpt>
      <trkpt lat="48.42392" lon="7.34234">
        <ele>876.3</ele>
        <time>2023-07-23T11:19:18Z</time>
      </trkpt>
      <trkpt lat="48.42393" lon="7.3423">
        <ele>876.4</ele>
        <time>2023-07-23T11:19:20Z</time>
      </trkpt>
      <trkpt lat="48.42394" lon="7.34226">
        <ele>876.6</ele>
        <time>2023-07-23T11:19:21Z</time>
      </trkpt>
      <trkpt lat="48.42394" lon="7.34219">
        <ele>876.8</ele>
        <time>2023-07-23T11:19:22Z</time>
      </trkpt>
      <trkpt lat="48.42395" lon="7.34217">
        <ele>876.9</ele>
        <time>2023-07-23T11:19:23Z</time>
      </trkpt>
      <trkpt lat="48.42395" lon="7.34211">
        <ele>877</ele>
        <time>2023-07-23T11:19:24Z</time>
      </trkpt>
      <trkpt lat="48.42395" lon="7.34209">
        <ele>877.1</ele>
        <time>2023-07-23T11:19:25Z</time>
      </trkpt>
      <trkpt lat="48.42396" lon="7.34203">
        <ele>877.3</ele>
        <time>2023-07-23T11:19:26Z</time>
      </trkpt>
      <trkpt lat="48.42397" lon="7.34201">
        <ele>877.3</ele>
        <time>2023-07-23T11:19:27Z</time>
      </trkpt>
      <trkpt lat="48.42397" lon="7.34196">
        <ele>877.4</ele>
        <time>2023-07-23T11:19:28Z</time>
      </trkpt>
      <trkpt lat="48.42398" lon="7.34192">
        <ele>877.6</ele>
        <time>2023-07-23T11:19:29Z</time>
      </trkpt>
      <trkpt lat="48.42399" lon="7.34186">
        <ele>877.7</ele>
        <time>2023-07-23T11:19:30Z</time>
      </trkpt>
      <trkpt lat="48.42399" lon="7.34184">
        <ele>877.8</ele>
        <time>2023-07-23T11:19:31Z</time>
      </trkpt>
      <trkpt lat="48.42399" lon="7.34179">
        <ele>877.9</ele>
        <time>2023-07-23T11:19:32Z</time>
      </trkpt>
      <trkpt lat="48.424" lon="7.34175">
        <ele>878</ele>
        <time>2023-07-23T11:19:33Z</time>
      </trkpt>
      <trkpt lat="48.424" lon="7.34171">
        <ele>878.1</ele>
        <time>2023-07-23T11:19:34Z</time>
      </trkpt>
      <trkpt lat="48.424" lon="7.34167">
        <ele>878.2</ele>
        <time>2023-07-23T11:19:35Z</time>
      </trkpt>
      <trkpt lat="48.42401" lon="7.34162">
        <ele>878.3</ele>
        <time>2023-07-23T11:19:36Z</time>
      </trkpt>
      <trkpt lat="48.424" lon="7.34157">
        <ele>878.4</ele>
        <time>2023-07-23T11:19:37Z</time>
      </trkpt>
      <trkpt lat="48.42401" lon="7.34152">
        <ele>878.6</ele>
        <time>2023-07-23T11:19:38Z</time>
      </trkpt>
      <trkpt lat="48.42401" lon="7.34148">
        <ele>878.7</ele>
        <time>2023-07-23T11:19:39Z</time>
      </trkpt>
      <trkpt lat="48.42401" lon="7.34143">
        <ele>878.8</ele>
        <time>2023-07-23T11:19:40Z</time>
      </trkpt>
      <trkpt lat="48.42401" lon="7.34139">
        <ele>878.9</ele>
        <time>2023-07-23T11:19:41Z</time>
      </trkpt>
      <trkpt lat="48.42401" lon="7.34135">
        <ele>878.9</ele>
        <time>2023-07-23T11:19:42Z</time>
      </trkpt>
      <trkpt lat="48.424" lon="7.34125">
        <ele>879.1</ele>
        <time>2023-07-23T11:19:43Z</time>
      </trkpt>
      <trkpt lat="48.42398" lon="7.34119">
        <ele>879.3</ele>
        <time>2023-07-23T11:19:44Z</time>
      </trkpt>
      <trkpt lat="48.42398" lon="7.34116">
        <ele>879.3</ele>
        <time>2023-07-23T11:19:45Z</time>
      </trkpt>
      <trkpt lat="48.42399" lon="7.34112">
        <ele>879.4</ele>
        <time>2023-07-23T11:19:46Z</time>
      </trkpt>
      <trkpt lat="48.424" lon="7.34108">
        <ele>879.5</ele>
        <time>2023-07-23T11:19:47Z</time>
      </trkpt>
      <trkpt lat="48.424" lon="7.34104">
        <ele>879.6</ele>
        <time>2023-07-23T11:19:48Z</time>
      </trkpt>
      <trkpt lat="48.424" lon="7.34099">
        <ele>879.7</ele>
        <time>2023-07-23T11:19:49Z</time>
      </trkpt>
      <trkpt lat="48.42399" lon="7.34094">
        <ele>879.7</ele>
        <time>2023-07-23T11:19:50Z</time>
      </trkpt>
      <trkpt lat="48.42399" lon="7.3409">
        <ele>879.8</ele>
        <time>2023-07-23T11:19:51Z</time>
      </trkpt>
      <trkpt lat="48.42398" lon="7.34085">
        <ele>879.9</ele>
        <time>2023-07-23T11:19:52Z</time>
      </trkpt>
      <trkpt lat="48.42398" lon="7.34081">
        <ele>880</ele>
        <time>2023-07-23T11:19:53Z</time>
      </trkpt>
      <trkpt lat="48.42398" lon="7.34075">
        <ele>880.1</ele>
        <time>2023-07-23T11:19:54Z</time>
      </trkpt>
      <trkpt lat="48.42397" lon="7.34071">
        <ele>880.2</ele>
        <time>2023-07-23T11:19:55Z</time>
      </trkpt>
      <trkpt lat="48.42397" lon="7.34066">
        <ele>880.2</ele>
        <time>2023-07-23T11:19:56Z</time>
      </trkpt>
      <trkpt lat="48.42397" lon="7.34062">
        <ele>880.3</ele>
        <time>2023-07-23T11:19:57Z</time>
      </trkpt>
      <trkpt lat="48.42396" lon="7.34057">
        <ele>880.4</ele>
        <time>2023-07-23T11:19:58Z</time>
      </trkpt>
      <trkpt lat="48.42396" lon="7.34053">
        <ele>880.5</ele>
        <time>2023-07-23T11:19:59Z</time>
      </trkpt>
      <trkpt lat="48.42396" lon="7.34047">
        <ele>880.6</ele>
        <time>2023-07-23T11:20:00Z</time>
      </trkpt>
      <trkpt lat="48.42395" lon="7.34043">
        <ele>880.7</ele>
        <time>2023-07-23T11:20:01Z</time>
      </trkpt>
      <trkpt lat="48.42395" lon="7.34038">
        <ele>880.8</ele>
        <time>2023-07-23T11:20:02Z</time>
      </trkpt>
      <trkpt lat="48.42395" lon="7.34033">
        <ele>880.9</ele>
        <time>2023-07-23T11:20:03Z</time>
      </trkpt>
      <trkpt lat="48.42395" lon="7.34027">
        <ele>881</ele>
        <time>2023-07-23T11:20:04Z</time>
      </trkpt>
      <trkpt lat="48.42395" lon="7.34024">
        <ele>881.1</ele>
        <time>2023-07-23T11:20:05Z</time>
      </trkpt>
      <trkpt lat="48.42394" lon="7.3402">
        <ele>881.2</ele>
        <time>2023-07-23T11:20:06Z</time>
      </trkpt>
      <trkpt lat="48.42394" lon="7.34015">
        <ele>881.3</ele>
        <time>2023-07-23T11:20:07Z</time>
      </trkpt>
      <trkpt lat="48.42394" lon="7.3401">
        <ele>881.5</ele>
        <time>2023-07-23T11:20:08Z</time>
      </trkpt>
      <trkpt lat="48.42394" lon="7.34005">
        <ele>881.6</ele>
        <time>2023-07-23T11:20:09Z</time>
      </trkpt>
      <trkpt lat="48.42393" lon="7.34">
        <ele>881.7</ele>
        <time>2023-07-23T11:20:10Z</time>
      </trkpt>
      <trkpt lat="48.42393" lon="7.33995">
        <ele>881.8</ele>
        <time>2023-07-23T11:20:11Z</time>
      </trkpt>
      <trkpt lat="48.42393" lon="7.3399">
        <ele>882</ele>
        <time>2023-07-23T11:20:12Z</time>
      </trkpt>
      <trkpt lat="48.42393" lon="7.33985">
        <ele>882.1</ele>
        <time>2023-07-23T11:20:13Z</time>
      </trkpt>
      <trkpt lat="48.42393" lon="7.3398">
        <ele>882.2</ele>
        <time>2023-07-23T11:20:14Z</time>
      </trkpt>
      <trkpt lat="48.42393" lon="7.33975">
        <ele>882.3</ele>
        <time>2023-07-23T11:20:15Z</time>
      </trkpt>
      <trkpt lat="48.42393" lon="7.3397">
        <ele>882.4</ele>
        <time>2023-07-23T11:20:16Z</time>
      </trkpt>
      <trkpt lat="48.42394" lon="7.33965">
        <ele>882.6</ele>
        <time>2023-07-23T11:20:17Z</time>
      </trkpt>
      <trkpt lat="48.42394" lon="7.33959">
        <ele>882.7</ele>
        <time>2023-07-23T11:20:18Z</time>
      </trkpt>
      <trkpt lat="48.42394" lon="7.33954">
        <ele>882.8</ele>
        <time>2023-07-23T11:20:19Z</time>
      </trkpt>
      <trkpt lat="48.42395" lon="7.33949">
        <ele>882.9</ele>
        <time>2023-07-23T11:20:20Z</time>
      </trkpt>
      <trkpt lat="48.42395" lon="7.33944">
        <ele>883</ele>
        <time>2023-07-23T11:20:21Z</time>
      </trkpt>
      <trkpt lat="48.42396" lon="7.33939">
        <ele>883.1</ele>
        <time>2023-07-23T11:20:22Z</time>
      </trkpt>
      <trkpt lat="48.42397" lon="7.33935">
        <ele>883.2</ele>
        <time>2023-07-23T11:20:23Z</time>
      </trkpt>
      <trkpt lat="48.42398" lon="7.3393">
        <ele>883.3</ele>
        <time>2023-07-23T11:20:24Z</time>
      </trkpt>
      <trkpt lat="48.42399" lon="7.33924">
        <ele>883.4</ele>
        <time>2023-07-23T11:20:25Z</time>
      </trkpt>
      <trkpt lat="48.42399" lon="7.3392">
        <ele>883.5</ele>
        <time>2023-07-23T11:20:26Z</time>
      </trkpt>
      <trkpt lat="48.42401" lon="7.33915">
        <ele>883.6</ele>
        <time>2023-07-23T11:20:27Z</time>
      </trkpt>
      <trkpt lat="48.42402" lon="7.33911">
        <ele>883.7</ele>
        <time>2023-07-23T11:20:28Z</time>
      </trkpt>
      <trkpt lat="48.42403" lon="7.33906">
        <ele>883.8</ele>
        <time>2023-07-23T11:20:29Z</time>
      </trkpt>
      <trkpt lat="48.42404" lon="7.33902">
        <ele>883.9</ele>
        <time>2023-07-23T11:20:30Z</time>
      </trkpt>
      <trkpt lat="48.42404" lon="7.33896">
        <ele>884</ele>
        <time>2023-07-23T11:20:31Z</time>
      </trkpt>
      <trkpt lat="48.42405" lon="7.33892">
        <ele>884.1</ele>
        <time>2023-07-23T11:20:32Z</time>
      </trkpt>
      <trkpt lat="48.42406" lon="7.33887">
        <ele>884.2</ele>
        <time>2023-07-23T11:20:33Z</time>
      </trkpt>
      <trkpt lat="48.42407" lon="7.33883">
        <ele>884.3</ele>
        <time>2023-07-23T11:20:34Z</time>
      </trkpt>
      <trkpt lat="48.42407" lon="7.33878">
        <ele>884.4</ele>
        <time>2023-07-23T11:20:35Z</time>
      </trkpt>
      <trkpt lat="48.42408" lon="7.33873">
        <ele>884.5</ele>
        <time>2023-07-23T11:20:36Z</time>
      </trkpt>
      <trkpt lat="48.42408" lon="7.33869">
        <ele>884.6</ele>
        <time>2023-07-23T11:20:37Z</time>
      </trkpt>
      <trkpt lat="48.42408" lon="7.33864">
        <ele>884.7</ele>
        <time>2023-07-23T11:20:38Z</time>
      </trkpt>
      <trkpt lat="48.42409" lon="7.33858">
        <ele>884.8</ele>
        <time>2023-07-23T11:20:39Z</time>
      </trkpt>
      <trkpt lat="48.42409" lon="7.33854">
        <ele>884.9</ele>
        <time>2023-07-23T11:20:40Z</time>
      </trkpt>
      <trkpt lat="48.42409" lon="7.33849">
        <ele>885</ele>
        <time>2023-07-23T11:20:41Z</time>
      </trkpt>
      <trkpt lat="48.42408" lon="7.33844">
        <ele>885.1</ele>
        <time>2023-07-23T11:20:42Z</time>
      </trkpt>
      <trkpt lat="48.42408" lon="7.33839">
        <ele>885.2</ele>
        <time>2023-07-23T11:20:43Z</time>
      </trkpt>
      <trkpt lat="48.42409" lon="7.33835">
        <ele>885.3</ele>
        <time>2023-07-23T11:20:44Z</time>
      </trkpt>
      <trkpt lat="48.42408" lon="7.3383">
        <ele>885.4</ele>
        <time>2023-07-23T11:20:45Z</time>
      </trkpt>
      <trkpt lat="48.42408" lon="7.33825">
        <ele>885.5</ele>
        <time>2023-07-23T11:20:46Z</time>
      </trkpt>
      <trkpt lat="48.42408" lon="7.3382">
        <ele>885.6</ele>
        <time>2023-07-23T11:20:47Z</time>
      </trkpt>
      <trkpt lat="48.42407" lon="7.33815">
        <ele>885.7</ele>
        <time>2023-07-23T11:20:48Z</time>
      </trkpt>
      <trkpt lat="48.42406" lon="7.3381">
        <ele>885.8</ele>
        <time>2023-07-23T11:20:49Z</time>
      </trkpt>
      <trkpt lat="48.42406" lon="7.33805">
        <ele>885.8</ele>
        <time>2023-07-23T11:20:50Z</time>
      </trkpt>
      <trkpt lat="48.42405" lon="7.338">
        <ele>885.9</ele>
        <time>2023-07-23T11:20:51Z</time>
      </trkpt>
      <trkpt lat="48.42405" lon="7.33795">
        <ele>886</ele>
        <time>2023-07-23T11:20:52Z</time>
      </trkpt>
      <trkpt lat="48.42404" lon="7.33791">
        <ele>886.1</ele>
        <time>2023-07-23T11:20:53Z</time>
      </trkpt>
      <trkpt lat="48.42403" lon="7.33786">
        <ele>886.2</ele>
        <time>2023-07-23T11:20:54Z</time>
      </trkpt>
      <trkpt lat="48.42402" lon="7.33781">
        <ele>886.2</ele>
        <time>2023-07-23T11:20:55Z</time>
      </trkpt>
      <trkpt lat="48.424" lon="7.33775">
        <ele>886.4</ele>
        <time>2023-07-23T11:20:56Z</time>
      </trkpt>
      <trkpt lat="48.42399" lon="7.3377">
        <ele>886.5</ele>
        <time>2023-07-23T11:20:57Z</time>
      </trkpt>
      <trkpt lat="48.42398" lon="7.33765">
        <ele>886.6</ele>
        <time>2023-07-23T11:20:58Z</time>
      </trkpt>
      <trkpt lat="48.42396" lon="7.3376">
        <ele>886.7</ele>
        <time>2023-07-23T11:20:59Z</time>
      </trkpt>
      <trkpt lat="48.42394" lon="7.33755">
        <ele>886.8</ele>
        <time>2023-07-23T11:21:00Z</time>
      </trkpt>
      <trkpt lat="48.42392" lon="7.3375">
        <ele>887</ele>
        <time>2023-07-23T11:21:01Z</time>
      </trkpt>
      <trkpt lat="48.4239" lon="7.33746">
        <ele>887.1</ele>
        <time>2023-07-23T11:21:02Z</time>
      </trkpt>
      <trkpt lat="48.42388" lon="7.33741">
        <ele>887.2</ele>
        <time>2023-07-23T11:21:03Z</time>
      </trkpt>
      <trkpt lat="48.42386" lon="7.33736">
        <ele>887.3</ele>
        <time>2023-07-23T11:21:04Z</time>
      </trkpt>
      <trkpt lat="48.42383" lon="7.33732">
        <ele>887.5</ele>
        <time>2023-07-23T11:21:05Z</time>
      </trkpt>
      <trkpt lat="48.42381" lon="7.33728">
        <ele>887.6</ele>
        <time>2023-07-23T11:21:06Z</time>
      </trkpt>
      <trkpt lat="48.42378" lon="7.33723">
        <ele>887.7</ele>
        <time>2023-07-23T11:21:07Z</time>
      </trkpt>
      <trkpt lat="48.42376" lon="7.33718">
        <ele>887.9</ele>
        <time>2023-07-23T11:21:08Z</time>
      </trkpt>
      <trkpt lat="48.42372" lon="7.33714">
        <ele>888</ele>
        <time>2023-07-23T11:21:09Z</time>
      </trkpt>
      <trkpt lat="48.4237" lon="7.33709">
        <ele>888.2</ele>
        <time>2023-07-23T11:21:10Z</time>
      </trkpt>
      <trkpt lat="48.42367" lon="7.33705">
        <ele>888.4</ele>
        <time>2023-07-23T11:21:11Z</time>
      </trkpt>
      <trkpt lat="48.42364" lon="7.337">
        <ele>888.5</ele>
        <time>2023-07-23T11:21:12Z</time>
      </trkpt>
      <trkpt lat="48.42361" lon="7.33695">
        <ele>888.7</ele>
        <time>2023-07-23T11:21:13Z</time>
      </trkpt>
      <trkpt lat="48.42359" lon="7.33691">
        <ele>888.8</ele>
        <time>2023-07-23T11:21:14Z</time>
      </trkpt>
      <trkpt lat="48.42356" lon="7.33686">
        <ele>888.9</ele>
        <time>2023-07-23T11:21:15Z</time>
      </trkpt>
      <trkpt lat="48.42353" lon="7.33682">
        <ele>889</ele>
        <time>2023-07-23T11:21:16Z</time>
      </trkpt>
      <trkpt lat="48.42351" lon="7.33677">
        <ele>889.1</ele>
        <time>2023-07-23T11:21:17Z</time>
      </trkpt>
      <trkpt lat="48.42349" lon="7.33672">
        <ele>889.2</ele>
        <time>2023-07-23T11:21:18Z</time>
      </trkpt>
      <trkpt lat="48.42346" lon="7.33668">
        <ele>889.3</ele>
        <time>2023-07-23T11:21:19Z</time>
      </trkpt>
      <trkpt lat="48.42343" lon="7.33663">
        <ele>889.3</ele>
        <time>2023-07-23T11:21:20Z</time>
      </trkpt>
      <trkpt lat="48.42341" lon="7.33658">
        <ele>889.4</ele>
        <time>2023-07-23T11:21:21Z</time>
      </trkpt>
      <trkpt lat="48.42339" lon="7.33652">
        <ele>889.5</ele>
        <time>2023-07-23T11:21:22Z</time>
      </trkpt>
      <trkpt lat="48.42336" lon="7.33648">
        <ele>889.6</ele>
        <time>2023-07-23T11:21:23Z</time>
      </trkpt>
      <trkpt lat="48.42333" lon="7.33643">
        <ele>889.7</ele>
        <time>2023-07-23T11:21:24Z</time>
      </trkpt>
      <trkpt lat="48.42331" lon="7.33638">
        <ele>889.7</ele>
        <time>2023-07-23T11:21:26Z</time>
      </trkpt>
      <trkpt lat="48.42328" lon="7.33633">
        <ele>889.8</ele>
        <time>2023-07-23T11:21:27Z</time>
      </trkpt>
      <trkpt lat="48.42326" lon="7.33628">
        <ele>889.8</ele>
        <time>2023-07-23T11:21:28Z</time>
      </trkpt>
      <trkpt lat="48.42323" lon="7.33623">
        <ele>889.9</ele>
        <time>2023-07-23T11:21:29Z</time>
      </trkpt>
      <trkpt lat="48.42321" lon="7.33619">
        <ele>889.9</ele>
        <time>2023-07-23T11:21:30Z</time>
      </trkpt>
      <trkpt lat="48.42318" lon="7.33614">
        <ele>890</ele>
        <time>2023-07-23T11:21:31Z</time>
      </trkpt>
      <trkpt lat="48.42316" lon="7.33608">
        <ele>890</ele>
        <time>2023-07-23T11:21:32Z</time>
      </trkpt>
      <trkpt lat="48.42314" lon="7.33603">
        <ele>890</ele>
        <time>2023-07-23T11:21:33Z</time>
      </trkpt>
      <trkpt lat="48.4231" lon="7.33598">
        <ele>890.1</ele>
        <time>2023-07-23T11:21:34Z</time>
      </trkpt>
      <trkpt lat="48.42308" lon="7.33592">
        <ele>890.1</ele>
        <time>2023-07-23T11:21:35Z</time>
      </trkpt>
      <trkpt lat="48.42304" lon="7.33586">
        <ele>890.2</ele>
        <time>2023-07-23T11:21:36Z</time>
      </trkpt>
      <trkpt lat="48.42301" lon="7.3358">
        <ele>890.2</ele>
        <time>2023-07-23T11:21:37Z</time>
      </trkpt>
      <trkpt lat="48.42297" lon="7.33575">
        <ele>890.3</ele>
        <time>2023-07-23T11:21:38Z</time>
      </trkpt>
      <trkpt lat="48.42294" lon="7.33569">
        <ele>890.4</ele>
        <time>2023-07-23T11:21:39Z</time>
      </trkpt>
      <trkpt lat="48.42292" lon="7.33563">
        <ele>890.4</ele>
        <time>2023-07-23T11:21:40Z</time>
      </trkpt>
      <trkpt lat="48.42289" lon="7.33557">
        <ele>890.5</ele>
        <time>2023-07-23T11:21:41Z</time>
      </trkpt>
      <trkpt lat="48.42286" lon="7.33551">
        <ele>890.5</ele>
        <time>2023-07-23T11:21:42Z</time>
      </trkpt>
      <trkpt lat="48.42283" lon="7.33546">
        <ele>890.6</ele>
        <time>2023-07-23T11:21:43Z</time>
      </trkpt>
      <trkpt lat="48.42281" lon="7.33539">
        <ele>890.7</ele>
        <time>2023-07-23T11:21:44Z</time>
      </trkpt>
      <trkpt lat="48.42278" lon="7.33533">
        <ele>890.7</ele>
        <time>2023-07-23T11:21:45Z</time>
      </trkpt>
      <trkpt lat="48.42275" lon="7.33527">
        <ele>890.8</ele>
        <time>2023-07-23T11:21:46Z</time>
      </trkpt>
      <trkpt lat="48.42273" lon="7.33521">
        <ele>890.9</ele>
        <time>2023-07-23T11:21:47Z</time>
      </trkpt>
      <trkpt lat="48.4227" lon="7.33515">
        <ele>891</ele>
        <time>2023-07-23T11:21:48Z</time>
      </trkpt>
      <trkpt lat="48.42267" lon="7.3351">
        <ele>891</ele>
        <time>2023-07-23T11:21:49Z</time>
      </trkpt>
      <trkpt lat="48.42265" lon="7.33504">
        <ele>891.1</ele>
        <time>2023-07-23T11:21:50Z</time>
      </trkpt>
      <trkpt lat="48.42262" lon="7.33497">
        <ele>891.2</ele>
        <time>2023-07-23T11:21:51Z</time>
      </trkpt>
      <trkpt lat="48.4226" lon="7.33491">
        <ele>891.3</ele>
        <time>2023-07-23T11:21:52Z</time>
      </trkpt>
      <trkpt lat="48.42258" lon="7.33484">
        <ele>891.4</ele>
        <time>2023-07-23T11:21:53Z</time>
      </trkpt>
      <trkpt lat="48.42253" lon="7.33472">
        <ele>891.4</ele>
        <time>2023-07-23T11:21:54Z</time>
      </trkpt>
      <trkpt lat="48.4225" lon="7.33466">
        <ele>891.5</ele>
        <time>2023-07-23T11:21:55Z</time>
      </trkpt>
      <trkpt lat="48.42248" lon="7.33461">
        <ele>891.5</ele>
        <time>2023-07-23T11:21:56Z</time>
      </trkpt>
      <trkpt lat="48.42245" lon="7.33456">
        <ele>891.6</ele>
        <time>2023-07-23T11:21:57Z</time>
      </trkpt>
      <trkpt lat="48.42242" lon="7.3345">
        <ele>891.6</ele>
        <time>2023-07-23T11:21:58Z</time>
      </trkpt>
      <trkpt lat="48.42239" lon="7.33445">
        <ele>891.7</ele>
        <time>2023-07-23T11:21:59Z</time>
      </trkpt>
      <trkpt lat="48.42236" lon="7.3344">
        <ele>891.7</ele>
        <time>2023-07-23T11:22:00Z</time>
      </trkpt>
      <trkpt lat="48.42233" lon="7.33435">
        <ele>891.7</ele>
        <time>2023-07-23T11:22:01Z</time>
      </trkpt>
      <trkpt lat="48.42231" lon="7.33431">
        <ele>891.8</ele>
        <time>2023-07-23T11:22:02Z</time>
      </trkpt>
      <trkpt lat="48.42228" lon="7.33425">
        <ele>891.8</ele>
        <time>2023-07-23T11:22:03Z</time>
      </trkpt>
      <trkpt lat="48.42226" lon="7.3342">
        <ele>891.8</ele>
        <time>2023-07-23T11:22:04Z</time>
      </trkpt>
      <trkpt lat="48.42223" lon="7.33414">
        <ele>891.9</ele>
        <time>2023-07-23T11:22:05Z</time>
      </trkpt>
      <trkpt lat="48.4222" lon="7.33409">
        <ele>891.9</ele>
        <time>2023-07-23T11:22:06Z</time>
      </trkpt>
      <trkpt lat="48.42218" lon="7.33403">
        <ele>892</ele>
        <time>2023-07-23T11:22:07Z</time>
      </trkpt>
      <trkpt lat="48.42215" lon="7.33397">
        <ele>892</ele>
        <time>2023-07-23T11:22:08Z</time>
      </trkpt>
      <trkpt lat="48.42212" lon="7.33391">
        <ele>892.1</ele>
        <time>2023-07-23T11:22:09Z</time>
      </trkpt>
      <trkpt lat="48.4221" lon="7.33385">
        <ele>892.1</ele>
        <time>2023-07-23T11:22:10Z</time>
      </trkpt>
      <trkpt lat="48.42207" lon="7.33379">
        <ele>892.2</ele>
        <time>2023-07-23T11:22:11Z</time>
      </trkpt>
      <trkpt lat="48.42204" lon="7.33373">
        <ele>892.2</ele>
        <time>2023-07-23T11:22:12Z</time>
      </trkpt>
      <trkpt lat="48.42202" lon="7.33367">
        <ele>892.3</ele>
        <time>2023-07-23T11:22:13Z</time>
      </trkpt>
      <trkpt lat="48.422" lon="7.3336">
        <ele>892.3</ele>
        <time>2023-07-23T11:22:14Z</time>
      </trkpt>
      <trkpt lat="48.42198" lon="7.33353">
        <ele>892.4</ele>
        <time>2023-07-23T11:22:15Z</time>
      </trkpt>
      <trkpt lat="48.42196" lon="7.33346">
        <ele>892.5</ele>
        <time>2023-07-23T11:22:16Z</time>
      </trkpt>
      <trkpt lat="48.42194" lon="7.3334">
        <ele>892.5</ele>
        <time>2023-07-23T11:22:17Z</time>
      </trkpt>
      <trkpt lat="48.42192" lon="7.33333">
        <ele>892.6</ele>
        <time>2023-07-23T11:22:18Z</time>
      </trkpt>
      <trkpt lat="48.4219" lon="7.33326">
        <ele>892.7</ele>
        <time>2023-07-23T11:22:19Z</time>
      </trkpt>
      <trkpt lat="48.42189" lon="7.33319">
        <ele>892.8</ele>
        <time>2023-07-23T11:22:20Z</time>
      </trkpt>
      <trkpt lat="48.42188" lon="7.33312">
        <ele>892.9</ele>
        <time>2023-07-23T11:22:21Z</time>
      </trkpt>
      <trkpt lat="48.42186" lon="7.33305">
        <ele>893</ele>
        <time>2023-07-23T11:22:22Z</time>
      </trkpt>
      <trkpt lat="48.42185" lon="7.33298">
        <ele>893.1</ele>
        <time>2023-07-23T11:22:23Z</time>
      </trkpt>
      <trkpt lat="48.42183" lon="7.33292">
        <ele>893.2</ele>
        <time>2023-07-23T11:22:24Z</time>
      </trkpt>
      <trkpt lat="48.42182" lon="7.33285">
        <ele>893.3</ele>
        <time>2023-07-23T11:22:25Z</time>
      </trkpt>
      <trkpt lat="48.4218" lon="7.33279">
        <ele>893.3</ele>
        <time>2023-07-23T11:22:26Z</time>
      </trkpt>
      <trkpt lat="48.42179" lon="7.33272">
        <ele>893.4</ele>
        <time>2023-07-23T11:22:27Z</time>
      </trkpt>
      <trkpt lat="48.42178" lon="7.33267">
        <ele>893.5</ele>
        <time>2023-07-23T11:22:28Z</time>
      </trkpt>
      <trkpt lat="48.42176" lon="7.3326">
        <ele>893.6</ele>
        <time>2023-07-23T11:22:29Z</time>
      </trkpt>
      <trkpt lat="48.42175" lon="7.33254">
        <ele>893.6</ele>
        <time>2023-07-23T11:22:30Z</time>
      </trkpt>
      <trkpt lat="48.42173" lon="7.33248">
        <ele>893.7</ele>
        <time>2023-07-23T11:22:31Z</time>
      </trkpt>
      <trkpt lat="48.42172" lon="7.33241">
        <ele>893.8</ele>
        <time>2023-07-23T11:22:32Z</time>
      </trkpt>
      <trkpt lat="48.42171" lon="7.33235">
        <ele>893.9</ele>
        <time>2023-07-23T11:22:33Z</time>
      </trkpt>
      <trkpt lat="48.4217" lon="7.33229">
        <ele>893.9</ele>
        <time>2023-07-23T11:22:34Z</time>
      </trkpt>
      <trkpt lat="48.42168" lon="7.33223">
        <ele>894</ele>
        <time>2023-07-23T11:22:35Z</time>
      </trkpt>
      <trkpt lat="48.42166" lon="7.33216">
        <ele>894.1</ele>
        <time>2023-07-23T11:22:36Z</time>
      </trkpt>
      <trkpt lat="48.42165" lon="7.3321">
        <ele>894.2</ele>
        <time>2023-07-23T11:22:37Z</time>
      </trkpt>
      <trkpt lat="48.42163" lon="7.33203">
        <ele>894.3</ele>
        <time>2023-07-23T11:22:38Z</time>
      </trkpt>
      <trkpt lat="48.42161" lon="7.33196">
        <ele>894.4</ele>
        <time>2023-07-23T11:22:39Z</time>
      </trkpt>
      <trkpt lat="48.4216" lon="7.3319">
        <ele>894.5</ele>
        <time>2023-07-23T11:22:40Z</time>
      </trkpt>
      <trkpt lat="48.42159" lon="7.33183">
        <ele>894.6</ele>
        <time>2023-07-23T11:22:41Z</time>
      </trkpt>
      <trkpt lat="48.42157" lon="7.33177">
        <ele>894.7</ele>
        <time>2023-07-23T11:22:42Z</time>
      </trkpt>
      <trkpt lat="48.42156" lon="7.33171">
        <ele>894.8</ele>
        <time>2023-07-23T11:22:43Z</time>
      </trkpt>
      <trkpt lat="48.42155" lon="7.33164">
        <ele>894.9</ele>
        <time>2023-07-23T11:22:44Z</time>
      </trkpt>
      <trkpt lat="48.42153" lon="7.33157">
        <ele>895</ele>
        <time>2023-07-23T11:22:45Z</time>
      </trkpt>
      <trkpt lat="48.42151" lon="7.33151">
        <ele>895.1</ele>
        <time>2023-07-23T11:22:46Z</time>
      </trkpt>
      <trkpt lat="48.4215" lon="7.33144">
        <ele>895.1</ele>
        <time>2023-07-23T11:22:47Z</time>
      </trkpt>
      <trkpt lat="48.42148" lon="7.33138">
        <ele>895.2</ele>
        <time>2023-07-23T11:22:48Z</time>
      </trkpt>
      <trkpt lat="48.42147" lon="7.33131">
        <ele>895.3</ele>
        <time>2023-07-23T11:22:49Z</time>
      </trkpt>
      <trkpt lat="48.42145" lon="7.33125">
        <ele>895.4</ele>
        <time>2023-07-23T11:22:50Z</time>
      </trkpt>
      <trkpt lat="48.42143" lon="7.33118">
        <ele>895.5</ele>
        <time>2023-07-23T11:22:51Z</time>
      </trkpt>
      <trkpt lat="48.42142" lon="7.33112">
        <ele>895.6</ele>
        <time>2023-07-23T11:22:52Z</time>
      </trkpt>
      <trkpt lat="48.4214" lon="7.33105">
        <ele>895.7</ele>
        <time>2023-07-23T11:22:53Z</time>
      </trkpt>
      <trkpt lat="48.42139" lon="7.33099">
        <ele>895.8</ele>
        <time>2023-07-23T11:22:54Z</time>
      </trkpt>
      <trkpt lat="48.42137" lon="7.33092">
        <ele>895.9</ele>
        <time>2023-07-23T11:22:55Z</time>
      </trkpt>
      <trkpt lat="48.42136" lon="7.33086">
        <ele>896</ele>
        <time>2023-07-23T11:22:56Z</time>
      </trkpt>
      <trkpt lat="48.42134" lon="7.33081">
        <ele>896.1</ele>
        <time>2023-07-23T11:22:57Z</time>
      </trkpt>
      <trkpt lat="48.42132" lon="7.33075">
        <ele>896.2</ele>
        <time>2023-07-23T11:22:58Z</time>
      </trkpt>
      <trkpt lat="48.42131" lon="7.33069">
        <ele>896.3</ele>
        <time>2023-07-23T11:22:59Z</time>
      </trkpt>
      <trkpt lat="48.4213" lon="7.33063">
        <ele>896.4</ele>
        <time>2023-07-23T11:23:00Z</time>
      </trkpt>
      <trkpt lat="48.42128" lon="7.33057">
        <ele>896.5</ele>
        <time>2023-07-23T11:23:01Z</time>
      </trkpt>
      <trkpt lat="48.42127" lon="7.3305">
        <ele>896.6</ele>
        <time>2023-07-23T11:23:02Z</time>
      </trkpt>
      <trkpt lat="48.42126" lon="7.33044">
        <ele>896.7</ele>
        <time>2023-07-23T11:23:03Z</time>
      </trkpt>
      <trkpt lat="48.42125" lon="7.33037">
        <ele>896.7</ele>
        <time>2023-07-23T11:23:04Z</time>
      </trkpt>
      <trkpt lat="48.42124" lon="7.33031">
        <ele>896.8</ele>
        <time>2023-07-23T11:23:05Z</time>
      </trkpt>
      <trkpt lat="48.42123" lon="7.33025">
        <ele>896.9</ele>
        <time>2023-07-23T11:23:06Z</time>
      </trkpt>
      <trkpt lat="48.42122" lon="7.33019">
        <ele>896.9</ele>
        <time>2023-07-23T11:23:07Z</time>
      </trkpt>
      <trkpt lat="48.42121" lon="7.33013">
        <ele>897</ele>
        <time>2023-07-23T11:23:08Z</time>
      </trkpt>
      <trkpt lat="48.42121" lon="7.33006">
        <ele>897.1</ele>
        <time>2023-07-23T11:23:09Z</time>
      </trkpt>
      <trkpt lat="48.4212" lon="7.33">
        <ele>897.1</ele>
        <time>2023-07-23T11:23:10Z</time>
      </trkpt>
      <trkpt lat="48.4212" lon="7.32994">
        <ele>897.2</ele>
        <time>2023-07-23T11:23:11Z</time>
      </trkpt>
      <trkpt lat="48.42119" lon="7.32988">
        <ele>897.2</ele>
        <time>2023-07-23T11:23:12Z</time>
      </trkpt>
      <trkpt lat="48.42118" lon="7.32982">
        <ele>897.3</ele>
        <time>2023-07-23T11:23:13Z</time>
      </trkpt>
      <trkpt lat="48.42119" lon="7.32975">
        <ele>897.4</ele>
        <time>2023-07-23T11:23:14Z</time>
      </trkpt>
      <trkpt lat="48.42119" lon="7.32969">
        <ele>897.5</ele>
        <time>2023-07-23T11:23:15Z</time>
      </trkpt>
      <trkpt lat="48.42119" lon="7.32963">
        <ele>897.5</ele>
        <time>2023-07-23T11:23:16Z</time>
      </trkpt>
      <trkpt lat="48.42119" lon="7.32956">
        <ele>897.7</ele>
        <time>2023-07-23T11:23:17Z</time>
      </trkpt>
      <trkpt lat="48.42119" lon="7.32949">
        <ele>897.8</ele>
        <time>2023-07-23T11:23:18Z</time>
      </trkpt>
      <trkpt lat="48.4212" lon="7.32943">
        <ele>897.9</ele>
        <time>2023-07-23T11:23:19Z</time>
      </trkpt>
      <trkpt lat="48.42121" lon="7.32937">
        <ele>898</ele>
        <time>2023-07-23T11:23:20Z</time>
      </trkpt>
      <trkpt lat="48.42121" lon="7.3293">
        <ele>898.2</ele>
        <time>2023-07-23T11:23:21Z</time>
      </trkpt>
      <trkpt lat="48.42122" lon="7.32924">
        <ele>898.3</ele>
        <time>2023-07-23T11:23:22Z</time>
      </trkpt>
      <trkpt lat="48.42124" lon="7.32917">
        <ele>898.5</ele>
        <time>2023-07-23T11:23:23Z</time>
      </trkpt>
      <trkpt lat="48.42125" lon="7.32911">
        <ele>898.6</ele>
        <time>2023-07-23T11:23:24Z</time>
      </trkpt>
      <trkpt lat="48.42126" lon="7.32905">
        <ele>898.8</ele>
        <time>2023-07-23T11:23:25Z</time>
      </trkpt>
      <trkpt lat="48.42128" lon="7.32899">
        <ele>898.9</ele>
        <time>2023-07-23T11:23:26Z</time>
      </trkpt>
      <trkpt lat="48.42129" lon="7.32893">
        <ele>899.1</ele>
        <time>2023-07-23T11:23:27Z</time>
      </trkpt>
      <trkpt lat="48.42131" lon="7.32886">
        <ele>899.2</ele>
        <time>2023-07-23T11:23:28Z</time>
      </trkpt>
      <trkpt lat="48.42132" lon="7.32881">
        <ele>899.4</ele>
        <time>2023-07-23T11:23:29Z</time>
      </trkpt>
      <trkpt lat="48.42134" lon="7.32874">
        <ele>899.5</ele>
        <time>2023-07-23T11:23:30Z</time>
      </trkpt>
      <trkpt lat="48.42136" lon="7.32869">
        <ele>899.6</ele>
        <time>2023-07-23T11:23:32Z</time>
      </trkpt>
      <trkpt lat="48.42138" lon="7.32863">
        <ele>899.7</ele>
        <time>2023-07-23T11:23:33Z</time>
      </trkpt>
      <trkpt lat="48.42139" lon="7.32858">
        <ele>899.8</ele>
        <time>2023-07-23T11:23:34Z</time>
      </trkpt>
      <trkpt lat="48.42141" lon="7.32852">
        <ele>900</ele>
        <time>2023-07-23T11:23:35Z</time>
      </trkpt>
      <trkpt lat="48.42143" lon="7.32846">
        <ele>900.1</ele>
        <time>2023-07-23T11:23:36Z</time>
      </trkpt>
      <trkpt lat="48.42145" lon="7.32841">
        <ele>900.2</ele>
        <time>2023-07-23T11:23:37Z</time>
      </trkpt>
      <trkpt lat="48.42148" lon="7.32836">
        <ele>900.3</ele>
        <time>2023-07-23T11:23:38Z</time>
      </trkpt>
      <trkpt lat="48.4215" lon="7.32831">
        <ele>900.4</ele>
        <time>2023-07-23T11:23:39Z</time>
      </trkpt>
      <trkpt lat="48.42153" lon="7.32826">
        <ele>900.5</ele>
        <time>2023-07-23T11:23:40Z</time>
      </trkpt>
      <trkpt lat="48.42156" lon="7.32821">
        <ele>900.7</ele>
        <time>2023-07-23T11:23:41Z</time>
      </trkpt>
      <trkpt lat="48.42158" lon="7.32816">
        <ele>900.8</ele>
        <time>2023-07-23T11:23:42Z</time>
      </trkpt>
      <trkpt lat="48.42161" lon="7.32811">
        <ele>900.9</ele>
        <time>2023-07-23T11:23:43Z</time>
      </trkpt>
      <trkpt lat="48.42163" lon="7.32806">
        <ele>901</ele>
        <time>2023-07-23T11:23:44Z</time>
      </trkpt>
      <trkpt lat="48.42166" lon="7.32802">
        <ele>901.1</ele>
        <time>2023-07-23T11:23:45Z</time>
      </trkpt>
      <trkpt lat="48.42169" lon="7.32798">
        <ele>901.3</ele>
        <time>2023-07-23T11:23:46Z</time>
      </trkpt>
      <trkpt lat="48.42172" lon="7.32794">
        <ele>901.4</ele>
        <time>2023-07-23T11:23:47Z</time>
      </trkpt>
      <trkpt lat="48.42175" lon="7.3279">
        <ele>901.6</ele>
        <time>2023-07-23T11:23:48Z</time>
      </trkpt>
      <trkpt lat="48.42178" lon="7.32786">
        <ele>901.7</ele>
        <time>2023-07-23T11:23:49Z</time>
      </trkpt>
      <trkpt lat="48.42181" lon="7.32782">
        <ele>901.9</ele>
        <time>2023-07-23T11:23:50Z</time>
      </trkpt>
      <trkpt lat="48.42184" lon="7.32778">
        <ele>902</ele>
        <time>2023-07-23T11:23:51Z</time>
      </trkpt>
      <trkpt lat="48.42187" lon="7.32774">
        <ele>902.2</ele>
        <time>2023-07-23T11:23:52Z</time>
      </trkpt>
      <trkpt lat="48.42191" lon="7.32771">
        <ele>902.3</ele>
        <time>2023-07-23T11:23:53Z</time>
      </trkpt>
      <trkpt lat="48.42194" lon="7.32767">
        <ele>902.4</ele>
        <time>2023-07-23T11:23:54Z</time>
      </trkpt>
      <trkpt lat="48.42197" lon="7.32763">
        <ele>902.6</ele>
        <time>2023-07-23T11:23:55Z</time>
      </trkpt>
      <trkpt lat="48.42201" lon="7.3276">
        <ele>902.7</ele>
        <time>2023-07-23T11:23:56Z</time>
      </trkpt>
      <trkpt lat="48.42204" lon="7.32756">
        <ele>902.8</ele>
        <time>2023-07-23T11:23:57Z</time>
      </trkpt>
      <trkpt lat="48.42207" lon="7.32753">
        <ele>903</ele>
        <time>2023-07-23T11:23:58Z</time>
      </trkpt>
      <trkpt lat="48.4221" lon="7.32751">
        <ele>903.1</ele>
        <time>2023-07-23T11:23:59Z</time>
      </trkpt>
      <trkpt lat="48.42214" lon="7.32747">
        <ele>903.2</ele>
        <time>2023-07-23T11:24:00Z</time>
      </trkpt>
      <trkpt lat="48.42217" lon="7.32744">
        <ele>903.3</ele>
        <time>2023-07-23T11:24:01Z</time>
      </trkpt>
      <trkpt lat="48.4222" lon="7.32742">
        <ele>903.5</ele>
        <time>2023-07-23T11:24:02Z</time>
      </trkpt>
      <trkpt lat="48.42224" lon="7.32739">
        <ele>903.6</ele>
        <time>2023-07-23T11:24:03Z</time>
      </trkpt>
      <trkpt lat="48.42227" lon="7.32737">
        <ele>903.8</ele>
        <time>2023-07-23T11:24:04Z</time>
      </trkpt>
      <trkpt lat="48.42231" lon="7.32734">
        <ele>903.9</ele>
        <time>2023-07-23T11:24:05Z</time>
      </trkpt>
      <trkpt lat="48.42234" lon="7.32731">
        <ele>904.1</ele>
        <time>2023-07-23T11:24:06Z</time>
      </trkpt>
      <trkpt lat="48.42238" lon="7.32728">
        <ele>904.2</ele>
        <time>2023-07-23T11:24:07Z</time>
      </trkpt>
      <trkpt lat="48.42241" lon="7.32725">
        <ele>904.3</ele>
        <time>2023-07-23T11:24:08Z</time>
      </trkpt>
      <trkpt lat="48.42249" lon="7.3272">
        <ele>904.6</ele>
        <time>2023-07-23T11:24:09Z</time>
      </trkpt>
      <trkpt lat="48.42252" lon="7.32717">
        <ele>904.8</ele>
        <time>2023-07-23T11:24:10Z</time>
      </trkpt>
      <trkpt lat="48.42256" lon="7.32715">
        <ele>904.9</ele>
        <time>2023-07-23T11:24:11Z</time>
      </trkpt>
      <trkpt lat="48.42259" lon="7.32712">
        <ele>905.1</ele>
        <time>2023-07-23T11:24:12Z</time>
      </trkpt>
      <trkpt lat="48.42263" lon="7.32708">
        <ele>905.2</ele>
        <time>2023-07-23T11:24:13Z</time>
      </trkpt>
      <trkpt lat="48.42266" lon="7.32706">
        <ele>905.4</ele>
        <time>2023-07-23T11:24:14Z</time>
      </trkpt>
      <trkpt lat="48.4227" lon="7.32703">
        <ele>905.5</ele>
        <time>2023-07-23T11:24:15Z</time>
      </trkpt>
      <trkpt lat="48.42274" lon="7.32701">
        <ele>905.7</ele>
        <time>2023-07-23T11:24:16Z</time>
      </trkpt>
      <trkpt lat="48.42277" lon="7.32698">
        <ele>905.8</ele>
        <time>2023-07-23T11:24:17Z</time>
      </trkpt>
      <trkpt lat="48.42281" lon="7.32695">
        <ele>905.9</ele>
        <time>2023-07-23T11:24:18Z</time>
      </trkpt>
      <trkpt lat="48.42284" lon="7.32693">
        <ele>906.1</ele>
        <time>2023-07-23T11:24:19Z</time>
      </trkpt>
      <trkpt lat="48.42288" lon="7.3269">
        <ele>906.2</ele>
        <time>2023-07-23T11:24:20Z</time>
      </trkpt>
      <trkpt lat="48.42292" lon="7.32687">
        <ele>906.4</ele>
        <time>2023-07-23T11:24:21Z</time>
      </trkpt>
      <trkpt lat="48.42295" lon="7.32684">
        <ele>906.5</ele>
        <time>2023-07-23T11:24:22Z</time>
      </trkpt>
      <trkpt lat="48.42299" lon="7.32682">
        <ele>906.6</ele>
        <time>2023-07-23T11:24:23Z</time>
      </trkpt>
      <trkpt lat="48.42302" lon="7.32679">
        <ele>906.7</ele>
        <time>2023-07-23T11:24:24Z</time>
      </trkpt>
      <trkpt lat="48.42306" lon="7.32676">
        <ele>906.7</ele>
        <time>2023-07-23T11:24:25Z</time>
      </trkpt>
      <trkpt lat="48.42309" lon="7.32673">
        <ele>906.8</ele>
        <time>2023-07-23T11:24:26Z</time>
      </trkpt>
      <trkpt lat="48.42312" lon="7.3267">
        <ele>906.9</ele>
        <time>2023-07-23T11:24:27Z</time>
      </trkpt>
      <trkpt lat="48.42316" lon="7.32667">
        <ele>907</ele>
        <time>2023-07-23T11:24:28Z</time>
      </trkpt>
      <trkpt lat="48.42319" lon="7.32664">
        <ele>907.1</ele>
        <time>2023-07-23T11:24:29Z</time>
      </trkpt>
      <trkpt lat="48.42322" lon="7.32661">
        <ele>907.3</ele>
        <time>2023-07-23T11:24:30Z</time>
      </trkpt>
      <trkpt lat="48.42325" lon="7.32658">
        <ele>907.4</ele>
        <time>2023-07-23T11:24:31Z</time>
      </trkpt>
      <trkpt lat="48.42328" lon="7.32656">
        <ele>907.5</ele>
        <time>2023-07-23T11:24:32Z</time>
      </trkpt>
      <trkpt lat="48.42332" lon="7.32653">
        <ele>907.6</ele>
        <time>2023-07-23T11:24:33Z</time>
      </trkpt>
      <trkpt lat="48.42334" lon="7.3265">
        <ele>907.7</ele>
        <time>2023-07-23T11:24:34Z</time>
      </trkpt>
      <trkpt lat="48.42337" lon="7.32647">
        <ele>907.8</ele>
        <time>2023-07-23T11:24:35Z</time>
      </trkpt>
      <trkpt lat="48.42339" lon="7.32644">
        <ele>907.9</ele>
        <time>2023-07-23T11:24:36Z</time>
      </trkpt>
      <trkpt lat="48.42342" lon="7.32641">
        <ele>908</ele>
        <time>2023-07-23T11:24:37Z</time>
      </trkpt>
      <trkpt lat="48.42345" lon="7.32639">
        <ele>908.1</ele>
        <time>2023-07-23T11:24:38Z</time>
      </trkpt>
      <trkpt lat="48.42347" lon="7.32636">
        <ele>908.2</ele>
        <time>2023-07-23T11:24:39Z</time>
      </trkpt>
      <trkpt lat="48.42349" lon="7.32633">
        <ele>908.3</ele>
        <time>2023-07-23T11:24:40Z</time>
      </trkpt>
      <trkpt lat="48.42352" lon="7.32629">
        <ele>908.4</ele>
        <time>2023-07-23T11:24:41Z</time>
      </trkpt>
      <trkpt lat="48.42354" lon="7.32628">
        <ele>908.5</ele>
        <time>2023-07-23T11:24:42Z</time>
      </trkpt>
      <trkpt lat="48.42356" lon="7.32626">
        <ele>908.6</ele>
        <time>2023-07-23T11:24:43Z</time>
      </trkpt>
      <trkpt lat="48.42359" lon="7.32623">
        <ele>908.7</ele>
        <time>2023-07-23T11:24:44Z</time>
      </trkpt>
      <trkpt lat="48.42361" lon="7.3262">
        <ele>908.8</ele>
        <time>2023-07-23T11:24:45Z</time>
      </trkpt>
      <trkpt lat="48.42364" lon="7.32617">
        <ele>908.9</ele>
        <time>2023-07-23T11:24:46Z</time>
      </trkpt>
      <trkpt lat="48.42366" lon="7.32614">
        <ele>909</ele>
        <time>2023-07-23T11:24:47Z</time>
      </trkpt>
      <trkpt lat="48.42369" lon="7.32611">
        <ele>909</ele>
        <time>2023-07-23T11:24:48Z</time>
      </trkpt>
      <trkpt lat="48.42371" lon="7.32607">
        <ele>909.1</ele>
        <time>2023-07-23T11:24:49Z</time>
      </trkpt>
      <trkpt lat="48.42373" lon="7.32604">
        <ele>909.2</ele>
        <time>2023-07-23T11:24:50Z</time>
      </trkpt>
      <trkpt lat="48.42376" lon="7.32601">
        <ele>909.3</ele>
        <time>2023-07-23T11:24:51Z</time>
      </trkpt>
      <trkpt lat="48.42378" lon="7.32599">
        <ele>909.4</ele>
        <time>2023-07-23T11:24:52Z</time>
      </trkpt>
      <trkpt lat="48.42381" lon="7.32595">
        <ele>909.6</ele>
        <time>2023-07-23T11:24:53Z</time>
      </trkpt>
      <trkpt lat="48.42383" lon="7.32593">
        <ele>909.7</ele>
        <time>2023-07-23T11:24:54Z</time>
      </trkpt>
      <trkpt lat="48.42386" lon="7.32589">
        <ele>909.9</ele>
        <time>2023-07-23T11:24:55Z</time>
      </trkpt>
      <trkpt lat="48.42388" lon="7.32586">
        <ele>910</ele>
        <time>2023-07-23T11:24:56Z</time>
      </trkpt>
      <trkpt lat="48.42391" lon="7.32583">
        <ele>910.2</ele>
        <time>2023-07-23T11:24:57Z</time>
      </trkpt>
      <trkpt lat="48.42393" lon="7.3258">
        <ele>910.3</ele>
        <time>2023-07-23T11:24:58Z</time>
      </trkpt>
      <trkpt lat="48.42395" lon="7.32577">
        <ele>910.4</ele>
        <time>2023-07-23T11:24:59Z</time>
      </trkpt>
      <trkpt lat="48.42397" lon="7.32573">
        <ele>910.5</ele>
        <time>2023-07-23T11:25:00Z</time>
      </trkpt>
      <trkpt lat="48.42399" lon="7.3257">
        <ele>910.6</ele>
        <time>2023-07-23T11:25:01Z</time>
      </trkpt>
      <trkpt lat="48.42401" lon="7.32567">
        <ele>910.7</ele>
        <time>2023-07-23T11:25:02Z</time>
      </trkpt>
      <trkpt lat="48.42403" lon="7.32564">
        <ele>910.9</ele>
        <time>2023-07-23T11:25:03Z</time>
      </trkpt>
      <trkpt lat="48.42405" lon="7.32561">
        <ele>911</ele>
        <time>2023-07-23T11:25:04Z</time>
      </trkpt>
      <trkpt lat="48.42408" lon="7.32556">
        <ele>911.1</ele>
        <time>2023-07-23T11:25:05Z</time>
      </trkpt>
      <trkpt lat="48.42409" lon="7.32554">
        <ele>911.2</ele>
        <time>2023-07-23T11:25:06Z</time>
      </trkpt>
      <trkpt lat="48.42411" lon="7.32552">
        <ele>911.3</ele>
        <time>2023-07-23T11:25:07Z</time>
      </trkpt>
      <trkpt lat="48.42413" lon="7.32548">
        <ele>911.4</ele>
        <time>2023-07-23T11:25:08Z</time>
      </trkpt>
      <trkpt lat="48.42416" lon="7.32545">
        <ele>911.5</ele>
        <time>2023-07-23T11:25:09Z</time>
      </trkpt>
      <trkpt lat="48.42418" lon="7.32542">
        <ele>911.7</ele>
        <time>2023-07-23T11:25:10Z</time>
      </trkpt>
      <trkpt lat="48.42421" lon="7.32539">
        <ele>911.8</ele>
        <time>2023-07-23T11:25:11Z</time>
      </trkpt>
      <trkpt lat="48.42423" lon="7.32536">
        <ele>911.9</ele>
        <time>2023-07-23T11:25:12Z</time>
      </trkpt>
      <trkpt lat="48.42425" lon="7.32532">
        <ele>912</ele>
        <time>2023-07-23T11:25:13Z</time>
      </trkpt>
      <trkpt lat="48.42427" lon="7.32529">
        <ele>912.1</ele>
        <time>2023-07-23T11:25:14Z</time>
      </trkpt>
      <trkpt lat="48.42429" lon="7.32525">
        <ele>912.3</ele>
        <time>2023-07-23T11:25:15Z</time>
      </trkpt>
      <trkpt lat="48.4243" lon="7.32523">
        <ele>912.3</ele>
        <time>2023-07-23T11:25:16Z</time>
      </trkpt>
      <trkpt lat="48.42433" lon="7.32519">
        <ele>912.5</ele>
        <time>2023-07-23T11:25:17Z</time>
      </trkpt>
      <trkpt lat="48.42434" lon="7.32518">
        <ele>912.5</ele>
        <time>2023-07-23T11:25:18Z</time>
      </trkpt>
      <trkpt lat="48.42437" lon="7.32513">
        <ele>912.6</ele>
        <time>2023-07-23T11:25:19Z</time>
      </trkpt>
      <trkpt lat="48.42437" lon="7.32512">
        <ele>912.7</ele>
        <time>2023-07-23T11:25:20Z</time>
      </trkpt>
      <trkpt lat="48.42439" lon="7.32508">
        <ele>912.8</ele>
        <time>2023-07-23T11:25:21Z</time>
      </trkpt>
      <trkpt lat="48.42442" lon="7.32504">
        <ele>912.9</ele>
        <time>2023-07-23T11:25:22Z</time>
      </trkpt>
      <trkpt lat="48.42442" lon="7.32502">
        <ele>913</ele>
        <time>2023-07-23T11:25:23Z</time>
      </trkpt>
      <trkpt lat="48.42445" lon="7.32498">
        <ele>913.2</ele>
        <time>2023-07-23T11:25:24Z</time>
      </trkpt>
      <trkpt lat="48.42446" lon="7.32496">
        <ele>913.2</ele>
        <time>2023-07-23T11:25:25Z</time>
      </trkpt>
      <trkpt lat="48.42448" lon="7.32493">
        <ele>913.3</ele>
        <time>2023-07-23T11:25:26Z</time>
      </trkpt>
      <trkpt lat="48.42449" lon="7.32491">
        <ele>913.4</ele>
        <time>2023-07-23T11:25:27Z</time>
      </trkpt>
      <trkpt lat="48.4245" lon="7.32487">
        <ele>913.5</ele>
        <time>2023-07-23T11:25:28Z</time>
      </trkpt>
      <trkpt lat="48.42451" lon="7.32486">
        <ele>913.5</ele>
        <time>2023-07-23T11:25:29Z</time>
      </trkpt>
      <trkpt lat="48.42454" lon="7.32482">
        <ele>913.7</ele>
        <time>2023-07-23T11:25:30Z</time>
      </trkpt>
      <trkpt lat="48.42455" lon="7.32481">
        <ele>913.8</ele>
        <time>2023-07-23T11:25:31Z</time>
      </trkpt>
      <trkpt lat="48.42457" lon="7.32476">
        <ele>913.9</ele>
        <time>2023-07-23T11:25:32Z</time>
      </trkpt>
      <trkpt lat="48.42458" lon="7.32474">
        <ele>914</ele>
        <time>2023-07-23T11:25:33Z</time>
      </trkpt>
      <trkpt lat="48.42461" lon="7.3247">
        <ele>914.1</ele>
        <time>2023-07-23T11:25:34Z</time>
      </trkpt>
      <trkpt lat="48.42461" lon="7.32468">
        <ele>914.2</ele>
        <time>2023-07-23T11:25:35Z</time>
      </trkpt>
      <trkpt lat="48.42463" lon="7.32465">
        <ele>914.3</ele>
        <time>2023-07-23T11:25:36Z</time>
      </trkpt>
      <trkpt lat="48.42465" lon="7.32462">
        <ele>914.4</ele>
        <time>2023-07-23T11:25:38Z</time>
      </trkpt>
      <trkpt lat="48.42466" lon="7.32458">
        <ele>914.5</ele>
        <time>2023-07-23T11:25:39Z</time>
      </trkpt>
      <trkpt lat="48.42468" lon="7.32454">
        <ele>914.7</ele>
        <time>2023-07-23T11:25:40Z</time>
      </trkpt>
      <trkpt lat="48.42469" lon="7.32452">
        <ele>914.7</ele>
        <time>2023-07-23T11:25:41Z</time>
      </trkpt>
      <trkpt lat="48.42471" lon="7.32449">
        <ele>914.8</ele>
        <time>2023-07-23T11:25:42Z</time>
      </trkpt>
      <trkpt lat="48.42473" lon="7.32445">
        <ele>914.9</ele>
        <time>2023-07-23T11:25:43Z</time>
      </trkpt>
      <trkpt lat="48.42474" lon="7.3244">
        <ele>915.1</ele>
        <time>2023-07-23T11:25:44Z</time>
      </trkpt>
      <trkpt lat="48.42475" lon="7.32438">
        <ele>915.2</ele>
        <time>2023-07-23T11:25:45Z</time>
      </trkpt>
      <trkpt lat="48.42477" lon="7.32435">
        <ele>915.3</ele>
        <time>2023-07-23T11:25:46Z</time>
      </trkpt>
      <trkpt lat="48.42479" lon="7.3243">
        <ele>915.4</ele>
        <time>2023-07-23T11:25:47Z</time>
      </trkpt>
      <trkpt lat="48.4248" lon="7.32428">
        <ele>915.5</ele>
        <time>2023-07-23T11:25:48Z</time>
      </trkpt>
      <trkpt lat="48.42483" lon="7.32424">
        <ele>915.7</ele>
        <time>2023-07-23T11:25:49Z</time>
      </trkpt>
      <trkpt lat="48.42484" lon="7.32422">
        <ele>915.7</ele>
        <time>2023-07-23T11:25:50Z</time>
      </trkpt>
      <trkpt lat="48.42485" lon="7.32419">
        <ele>915.9</ele>
        <time>2023-07-23T11:25:51Z</time>
      </trkpt>
      <trkpt lat="48.42487" lon="7.32415">
        <ele>916</ele>
        <time>2023-07-23T11:25:52Z</time>
      </trkpt>
      <trkpt lat="48.42489" lon="7.32412">
        <ele>916.1</ele>
        <time>2023-07-23T11:25:53Z</time>
      </trkpt>
      <trkpt lat="48.42491" lon="7.32409">
        <ele>916.2</ele>
        <time>2023-07-23T11:25:54Z</time>
      </trkpt>
      <trkpt lat="48.42493" lon="7.32405">
        <ele>916.3</ele>
        <time>2023-07-23T11:25:55Z</time>
      </trkpt>
      <trkpt lat="48.42495" lon="7.32403">
        <ele>916.5</ele>
        <time>2023-07-23T11:25:56Z</time>
      </trkpt>
      <trkpt lat="48.42497" lon="7.324">
        <ele>916.6</ele>
        <time>2023-07-23T11:25:57Z</time>
      </trkpt>
      <trkpt lat="48.42499" lon="7.32397">
        <ele>916.7</ele>
        <time>2023-07-23T11:25:58Z</time>
      </trkpt>
      <trkpt lat="48.42501" lon="7.32393">
        <ele>916.9</ele>
        <time>2023-07-23T11:25:59Z</time>
      </trkpt>
      <trkpt lat="48.42504" lon="7.32389">
        <ele>917</ele>
        <time>2023-07-23T11:26:00Z</time>
      </trkpt>
      <trkpt lat="48.42505" lon="7.32387">
        <ele>917.1</ele>
        <time>2023-07-23T11:26:01Z</time>
      </trkpt>
      <trkpt lat="48.42508" lon="7.32383">
        <ele>917.3</ele>
        <time>2023-07-23T11:26:02Z</time>
      </trkpt>
      <trkpt lat="48.42509" lon="7.32381">
        <ele>917.4</ele>
        <time>2023-07-23T11:26:03Z</time>
      </trkpt>
      <trkpt lat="48.42511" lon="7.32379">
        <ele>917.5</ele>
        <time>2023-07-23T11:26:04Z</time>
      </trkpt>
      <trkpt lat="48.42513" lon="7.32376">
        <ele>917.6</ele>
        <time>2023-07-23T11:26:05Z</time>
      </trkpt>
      <trkpt lat="48.42515" lon="7.32373">
        <ele>917.8</ele>
        <time>2023-07-23T11:26:06Z</time>
      </trkpt>
      <trkpt lat="48.42517" lon="7.3237">
        <ele>917.9</ele>
        <time>2023-07-23T11:26:07Z</time>
      </trkpt>
      <trkpt lat="48.42519" lon="7.32367">
        <ele>918.1</ele>
        <time>2023-07-23T11:26:08Z</time>
      </trkpt>
      <trkpt lat="48.42522" lon="7.32363">
        <ele>918.3</ele>
        <time>2023-07-23T11:26:09Z</time>
      </trkpt>
      <trkpt lat="48.42524" lon="7.32361">
        <ele>918.4</ele>
        <time>2023-07-23T11:26:10Z</time>
      </trkpt>
      <trkpt lat="48.42526" lon="7.32359">
        <ele>918.5</ele>
        <time>2023-07-23T11:26:11Z</time>
      </trkpt>
      <trkpt lat="48.42528" lon="7.32356">
        <ele>918.7</ele>
        <time>2023-07-23T11:26:12Z</time>
      </trkpt>
      <trkpt lat="48.4253" lon="7.32353">
        <ele>918.8</ele>
        <time>2023-07-23T11:26:13Z</time>
      </trkpt>
      <trkpt lat="48.42532" lon="7.3235">
        <ele>918.9</ele>
        <time>2023-07-23T11:26:14Z</time>
      </trkpt>
      <trkpt lat="48.42534" lon="7.32348">
        <ele>919.1</ele>
        <time>2023-07-23T11:26:15Z</time>
      </trkpt>
      <trkpt lat="48.42537" lon="7.32345">
        <ele>919.2</ele>
        <time>2023-07-23T11:26:16Z</time>
      </trkpt>
      <trkpt lat="48.42541" lon="7.32341">
        <ele>919.5</ele>
        <time>2023-07-23T11:26:17Z</time>
      </trkpt>
      <trkpt lat="48.42543" lon="7.32338">
        <ele>919.7</ele>
        <time>2023-07-23T11:26:18Z</time>
      </trkpt>
      <trkpt lat="48.42547" lon="7.32335">
        <ele>919.9</ele>
        <time>2023-07-23T11:26:19Z</time>
      </trkpt>
      <trkpt lat="48.42548" lon="7.32334">
        <ele>920</ele>
        <time>2023-07-23T11:26:20Z</time>
      </trkpt>
      <trkpt lat="48.4255" lon="7.32333">
        <ele>920.1</ele>
        <time>2023-07-23T11:26:21Z</time>
      </trkpt>
      <trkpt lat="48.42553" lon="7.32331">
        <ele>920.2</ele>
        <time>2023-07-23T11:26:22Z</time>
      </trkpt>
      <trkpt lat="48.42556" lon="7.3233">
        <ele>920.4</ele>
        <time>2023-07-23T11:26:23Z</time>
      </trkpt>
      <trkpt lat="48.42559" lon="7.32328">
        <ele>920.5</ele>
        <time>2023-07-23T11:26:24Z</time>
      </trkpt>
      <trkpt lat="48.42561" lon="7.32326">
        <ele>920.7</ele>
        <time>2023-07-23T11:26:25Z</time>
      </trkpt>
      <trkpt lat="48.42565" lon="7.32324">
        <ele>920.9</ele>
        <time>2023-07-23T11:26:26Z</time>
      </trkpt>
      <trkpt lat="48.42566" lon="7.32323">
        <ele>920.9</ele>
        <time>2023-07-23T11:26:27Z</time>
      </trkpt>
      <trkpt lat="48.42569" lon="7.32321">
        <ele>921.1</ele>
        <time>2023-07-23T11:26:28Z</time>
      </trkpt>
      <trkpt lat="48.42572" lon="7.32318">
        <ele>921.3</ele>
        <time>2023-07-23T11:26:29Z</time>
      </trkpt>
      <trkpt lat="48.42574" lon="7.32318">
        <ele>921.3</ele>
        <time>2023-07-23T11:26:30Z</time>
      </trkpt>
      <trkpt lat="48.42576" lon="7.32316">
        <ele>921.5</ele>
        <time>2023-07-23T11:26:31Z</time>
      </trkpt>
      <trkpt lat="48.42579" lon="7.32314">
        <ele>921.6</ele>
        <time>2023-07-23T11:26:32Z</time>
      </trkpt>
      <trkpt lat="48.42582" lon="7.32312">
        <ele>921.8</ele>
        <time>2023-07-23T11:26:33Z</time>
      </trkpt>
      <trkpt lat="48.42584" lon="7.32311">
        <ele>921.9</ele>
        <time>2023-07-23T11:26:34Z</time>
      </trkpt>
      <trkpt lat="48.42586" lon="7.32309">
        <ele>922</ele>
        <time>2023-07-23T11:26:35Z</time>
      </trkpt>
      <trkpt lat="48.42589" lon="7.32307">
        <ele>922.1</ele>
        <time>2023-07-23T11:26:36Z</time>
      </trkpt>
      <trkpt lat="48.42591" lon="7.32306">
        <ele>922.3</ele>
        <time>2023-07-23T11:26:37Z</time>
      </trkpt>
      <trkpt lat="48.42594" lon="7.32304">
        <ele>922.4</ele>
        <time>2023-07-23T11:26:38Z</time>
      </trkpt>
      <trkpt lat="48.42597" lon="7.32301">
        <ele>922.6</ele>
        <time>2023-07-23T11:26:39Z</time>
      </trkpt>
      <trkpt lat="48.42599" lon="7.323">
        <ele>922.6</ele>
        <time>2023-07-23T11:26:40Z</time>
      </trkpt>
      <trkpt lat="48.42601" lon="7.32298">
        <ele>922.8</ele>
        <time>2023-07-23T11:26:41Z</time>
      </trkpt>
      <trkpt lat="48.42604" lon="7.32296">
        <ele>922.9</ele>
        <time>2023-07-23T11:26:42Z</time>
      </trkpt>
      <trkpt lat="48.42607" lon="7.32293">
        <ele>923.1</ele>
        <time>2023-07-23T11:26:43Z</time>
      </trkpt>
      <trkpt lat="48.42608" lon="7.32293">
        <ele>923.1</ele>
        <time>2023-07-23T11:26:44Z</time>
      </trkpt>
      <trkpt lat="48.42611" lon="7.32291">
        <ele>923.3</ele>
        <time>2023-07-23T11:26:45Z</time>
      </trkpt>
      <trkpt lat="48.42615" lon="7.32288">
        <ele>923.4</ele>
        <time>2023-07-23T11:26:46Z</time>
      </trkpt>
      <trkpt lat="48.42616" lon="7.32287">
        <ele>923.5</ele>
        <time>2023-07-23T11:26:47Z</time>
      </trkpt>
      <trkpt lat="48.42619" lon="7.32284">
        <ele>923.7</ele>
        <time>2023-07-23T11:26:48Z</time>
      </trkpt>
      <trkpt lat="48.42621" lon="7.32283">
        <ele>923.7</ele>
        <time>2023-07-23T11:26:49Z</time>
      </trkpt>
      <trkpt lat="48.42624" lon="7.32281">
        <ele>923.9</ele>
        <time>2023-07-23T11:26:50Z</time>
      </trkpt>
      <trkpt lat="48.42625" lon="7.3228">
        <ele>924</ele>
        <time>2023-07-23T11:26:51Z</time>
      </trkpt>
      <trkpt lat="48.42628" lon="7.32277">
        <ele>924.1</ele>
        <time>2023-07-23T11:26:52Z</time>
      </trkpt>
      <trkpt lat="48.42629" lon="7.32276">
        <ele>924.2</ele>
        <time>2023-07-23T11:26:53Z</time>
      </trkpt>
      <trkpt lat="48.42632" lon="7.32273">
        <ele>924.3</ele>
        <time>2023-07-23T11:26:54Z</time>
      </trkpt>
      <trkpt lat="48.42633" lon="7.32272">
        <ele>924.4</ele>
        <time>2023-07-23T11:26:55Z</time>
      </trkpt>
      <trkpt lat="48.42636" lon="7.3227">
        <ele>924.5</ele>
        <time>2023-07-23T11:26:56Z</time>
      </trkpt>
      <trkpt lat="48.42638" lon="7.32269">
        <ele>924.6</ele>
        <time>2023-07-23T11:26:57Z</time>
      </trkpt>
      <trkpt lat="48.42641" lon="7.32266">
        <ele>924.8</ele>
        <time>2023-07-23T11:26:58Z</time>
      </trkpt>
      <trkpt lat="48.42642" lon="7.32265">
        <ele>924.8</ele>
        <time>2023-07-23T11:26:59Z</time>
      </trkpt>
      <trkpt lat="48.42645" lon="7.32262">
        <ele>925</ele>
        <time>2023-07-23T11:27:00Z</time>
      </trkpt>
      <trkpt lat="48.42646" lon="7.32261">
        <ele>925</ele>
        <time>2023-07-23T11:27:01Z</time>
      </trkpt>
      <trkpt lat="48.42649" lon="7.32258">
        <ele>925.2</ele>
        <time>2023-07-23T11:27:02Z</time>
      </trkpt>
      <trkpt lat="48.4265" lon="7.32257">
        <ele>925.3</ele>
        <time>2023-07-23T11:27:03Z</time>
      </trkpt>
      <trkpt lat="48.42653" lon="7.32254">
        <ele>925.4</ele>
        <time>2023-07-23T11:27:04Z</time>
      </trkpt>
      <trkpt lat="48.42655" lon="7.32252">
        <ele>925.5</ele>
        <time>2023-07-23T11:27:05Z</time>
      </trkpt>
      <trkpt lat="48.42658" lon="7.32248">
        <ele>925.7</ele>
        <time>2023-07-23T11:27:06Z</time>
      </trkpt>
      <trkpt lat="48.42659" lon="7.32247">
        <ele>925.8</ele>
        <time>2023-07-23T11:27:07Z</time>
      </trkpt>
      <trkpt lat="48.42662" lon="7.32245">
        <ele>925.9</ele>
        <time>2023-07-23T11:27:08Z</time>
      </trkpt>
      <trkpt lat="48.42665" lon="7.32241">
        <ele>926.1</ele>
        <time>2023-07-23T11:27:09Z</time>
      </trkpt>
      <trkpt lat="48.42666" lon="7.3224">
        <ele>926.2</ele>
        <time>2023-07-23T11:27:10Z</time>
      </trkpt>
      <trkpt lat="48.42669" lon="7.32238">
        <ele>926.3</ele>
        <time>2023-07-23T11:27:11Z</time>
      </trkpt>
      <trkpt lat="48.42671" lon="7.32236">
        <ele>926.4</ele>
        <time>2023-07-23T11:27:12Z</time>
      </trkpt>
      <trkpt lat="48.42673" lon="7.32233">
        <ele>926.6</ele>
        <time>2023-07-23T11:27:13Z</time>
      </trkpt>
      <trkpt lat="48.42675" lon="7.3223">
        <ele>926.7</ele>
        <time>2023-07-23T11:27:14Z</time>
      </trkpt>
      <trkpt lat="48.42678" lon="7.32229">
        <ele>926.8</ele>
        <time>2023-07-23T11:27:15Z</time>
      </trkpt>
      <trkpt lat="48.4268" lon="7.32226">
        <ele>927</ele>
        <time>2023-07-23T11:27:16Z</time>
      </trkpt>
      <trkpt lat="48.42683" lon="7.32223">
        <ele>927.2</ele>
        <time>2023-07-23T11:27:17Z</time>
      </trkpt>
      <trkpt lat="48.42685" lon="7.32222">
        <ele>927.2</ele>
        <time>2023-07-23T11:27:18Z</time>
      </trkpt>
      <trkpt lat="48.42687" lon="7.32219">
        <ele>927.4</ele>
        <time>2023-07-23T11:27:19Z</time>
      </trkpt>
      <trkpt lat="48.4269" lon="7.32216">
        <ele>927.5</ele>
        <time>2023-07-23T11:27:20Z</time>
      </trkpt>
      <trkpt lat="48.42691" lon="7.32215">
        <ele>927.6</ele>
        <time>2023-07-23T11:27:21Z</time>
      </trkpt>
      <trkpt lat="48.42695" lon="7.32211">
        <ele>927.8</ele>
        <time>2023-07-23T11:27:22Z</time>
      </trkpt>
      <trkpt lat="48.42696" lon="7.3221">
        <ele>927.9</ele>
        <time>2023-07-23T11:27:23Z</time>
      </trkpt>
      <trkpt lat="48.42699" lon="7.32206">
        <ele>928.1</ele>
        <time>2023-07-23T11:27:24Z</time>
      </trkpt>
      <trkpt lat="48.427" lon="7.32205">
        <ele>928.1</ele>
        <time>2023-07-23T11:27:25Z</time>
      </trkpt>
      <trkpt lat="48.42703" lon="7.32202">
        <ele>928.3</ele>
        <time>2023-07-23T11:27:26Z</time>
      </trkpt>
      <trkpt lat="48.42704" lon="7.32201">
        <ele>928.4</ele>
        <time>2023-07-23T11:27:27Z</time>
      </trkpt>
      <trkpt lat="48.42707" lon="7.32197">
        <ele>928.6</ele>
        <time>2023-07-23T11:27:28Z</time>
      </trkpt>
      <trkpt lat="48.42708" lon="7.32196">
        <ele>928.6</ele>
        <time>2023-07-23T11:27:29Z</time>
      </trkpt>
      <trkpt lat="48.4271" lon="7.32193">
        <ele>928.8</ele>
        <time>2023-07-23T11:27:30Z</time>
      </trkpt>
      <trkpt lat="48.42714" lon="7.3219">
        <ele>928.9</ele>
        <time>2023-07-23T11:27:31Z</time>
      </trkpt>
      <trkpt lat="48.42715" lon="7.32189">
        <ele>929</ele>
        <time>2023-07-23T11:27:32Z</time>
      </trkpt>
      <trkpt lat="48.42717" lon="7.32186">
        <ele>929.1</ele>
        <time>2023-07-23T11:27:33Z</time>
      </trkpt>
      <trkpt lat="48.4272" lon="7.32183">
        <ele>929.3</ele>
        <time>2023-07-23T11:27:34Z</time>
      </trkpt>
      <trkpt lat="48.42721" lon="7.32181">
        <ele>929.4</ele>
        <time>2023-07-23T11:27:35Z</time>
      </trkpt>
      <trkpt lat="48.42723" lon="7.32178">
        <ele>929.5</ele>
        <time>2023-07-23T11:27:36Z</time>
      </trkpt>
      <trkpt lat="48.42727" lon="7.32175">
        <ele>929.7</ele>
        <time>2023-07-23T11:27:37Z</time>
      </trkpt>
      <trkpt lat="48.42728" lon="7.32174">
        <ele>929.8</ele>
        <time>2023-07-23T11:27:38Z</time>
      </trkpt>
      <trkpt lat="48.4273" lon="7.32171">
        <ele>929.9</ele>
        <time>2023-07-23T11:27:39Z</time>
      </trkpt>
      <trkpt lat="48.42733" lon="7.32168">
        <ele>930.1</ele>
        <time>2023-07-23T11:27:40Z</time>
      </trkpt>
      <trkpt lat="48.42734" lon="7.32166">
        <ele>930.2</ele>
        <time>2023-07-23T11:27:41Z</time>
      </trkpt>
      <trkpt lat="48.42736" lon="7.32164">
        <ele>930.3</ele>
        <time>2023-07-23T11:27:42Z</time>
      </trkpt>
      <trkpt lat="48.42738" lon="7.32161">
        <ele>930.5</ele>
        <time>2023-07-23T11:27:44Z</time>
      </trkpt>
      <trkpt lat="48.4274" lon="7.32158">
        <ele>930.6</ele>
        <time>2023-07-23T11:27:45Z</time>
      </trkpt>
      <trkpt lat="48.42743" lon="7.32153">
        <ele>930.8</ele>
        <time>2023-07-23T11:27:46Z</time>
      </trkpt>
      <trkpt lat="48.42744" lon="7.32152">
        <ele>930.9</ele>
        <time>2023-07-23T11:27:47Z</time>
      </trkpt>
      <trkpt lat="48.42747" lon="7.32148">
        <ele>931.1</ele>
        <time>2023-07-23T11:27:48Z</time>
      </trkpt>
      <trkpt lat="48.42747" lon="7.32146">
        <ele>931.2</ele>
        <time>2023-07-23T11:27:49Z</time>
      </trkpt>
      <trkpt lat="48.42749" lon="7.32143">
        <ele>931.4</ele>
        <time>2023-07-23T11:27:50Z</time>
      </trkpt>
      <trkpt lat="48.42751" lon="7.32138">
        <ele>931.6</ele>
        <time>2023-07-23T11:27:51Z</time>
      </trkpt>
      <trkpt lat="48.42752" lon="7.32137">
        <ele>931.7</ele>
        <time>2023-07-23T11:27:52Z</time>
      </trkpt>
      <trkpt lat="48.42754" lon="7.32132">
        <ele>931.9</ele>
        <time>2023-07-23T11:27:53Z</time>
      </trkpt>
      <trkpt lat="48.42755" lon="7.3213">
        <ele>932</ele>
        <time>2023-07-23T11:27:54Z</time>
      </trkpt>
      <trkpt lat="48.42757" lon="7.32126">
        <ele>932.2</ele>
        <time>2023-07-23T11:27:55Z</time>
      </trkpt>
      <trkpt lat="48.42758" lon="7.32125">
        <ele>932.3</ele>
        <time>2023-07-23T11:27:56Z</time>
      </trkpt>
      <trkpt lat="48.42761" lon="7.3212">
        <ele>932.5</ele>
        <time>2023-07-23T11:27:57Z</time>
      </trkpt>
      <trkpt lat="48.42761" lon="7.32119">
        <ele>932.5</ele>
        <time>2023-07-23T11:27:58Z</time>
      </trkpt>
      <trkpt lat="48.42763" lon="7.32114">
        <ele>932.7</ele>
        <time>2023-07-23T11:27:59Z</time>
      </trkpt>
      <trkpt lat="48.42764" lon="7.32112">
        <ele>932.8</ele>
        <time>2023-07-23T11:28:00Z</time>
      </trkpt>
      <trkpt lat="48.42765" lon="7.32108">
        <ele>933</ele>
        <time>2023-07-23T11:28:01Z</time>
      </trkpt>
      <trkpt lat="48.42767" lon="7.32105">
        <ele>933.1</ele>
        <time>2023-07-23T11:28:02Z</time>
      </trkpt>
      <trkpt lat="48.42769" lon="7.321">
        <ele>933.4</ele>
        <time>2023-07-23T11:28:03Z</time>
      </trkpt>
      <trkpt lat="48.42769" lon="7.32098">
        <ele>933.4</ele>
        <time>2023-07-23T11:28:04Z</time>
      </trkpt>
      <trkpt lat="48.42771" lon="7.32092">
        <ele>933.7</ele>
        <time>2023-07-23T11:28:05Z</time>
      </trkpt>
      <trkpt lat="48.42771" lon="7.32091">
        <ele>933.8</ele>
        <time>2023-07-23T11:28:06Z</time>
      </trkpt>
      <trkpt lat="48.42772" lon="7.32087">
        <ele>933.9</ele>
        <time>2023-07-23T11:28:07Z</time>
      </trkpt>
      <trkpt lat="48.42774" lon="7.32081">
        <ele>934.1</ele>
        <time>2023-07-23T11:28:08Z</time>
      </trkpt>
      <trkpt lat="48.42774" lon="7.3208">
        <ele>934.2</ele>
        <time>2023-07-23T11:28:09Z</time>
      </trkpt>
      <trkpt lat="48.42776" lon="7.32075">
        <ele>934.5</ele>
        <time>2023-07-23T11:28:10Z</time>
      </trkpt>
      <trkpt lat="48.42776" lon="7.32073">
        <ele>934.6</ele>
        <time>2023-07-23T11:28:11Z</time>
      </trkpt>
      <trkpt lat="48.42778" lon="7.32068">
        <ele>934.8</ele>
        <time>2023-07-23T11:28:12Z</time>
      </trkpt>
      <trkpt lat="48.42778" lon="7.32066">
        <ele>934.9</ele>
        <time>2023-07-23T11:28:13Z</time>
      </trkpt>
      <trkpt lat="48.42779" lon="7.3206">
        <ele>935.1</ele>
        <time>2023-07-23T11:28:14Z</time>
      </trkpt>
      <trkpt lat="48.42779" lon="7.32059">
        <ele>935.2</ele>
        <time>2023-07-23T11:28:15Z</time>
      </trkpt>
      <trkpt lat="48.42781" lon="7.32053">
        <ele>935.5</ele>
        <time>2023-07-23T11:28:16Z</time>
      </trkpt>
      <trkpt lat="48.42781" lon="7.32051">
        <ele>935.6</ele>
        <time>2023-07-23T11:28:17Z</time>
      </trkpt>
      <trkpt lat="48.42782" lon="7.32043">
        <ele>935.9</ele>
        <time>2023-07-23T11:28:18Z</time>
      </trkpt>
      <trkpt lat="48.42783" lon="7.32039">
        <ele>936.1</ele>
        <time>2023-07-23T11:28:19Z</time>
      </trkpt>
      <trkpt lat="48.42784" lon="7.32034">
        <ele>936.4</ele>
        <time>2023-07-23T11:28:20Z</time>
      </trkpt>
      <trkpt lat="48.42784" lon="7.32032">
        <ele>936.5</ele>
        <time>2023-07-23T11:28:21Z</time>
      </trkpt>
      <trkpt lat="48.42784" lon="7.32026">
        <ele>936.8</ele>
        <time>2023-07-23T11:28:22Z</time>
      </trkpt>
      <trkpt lat="48.42784" lon="7.32024">
        <ele>936.9</ele>
        <time>2023-07-23T11:28:23Z</time>
      </trkpt>
      <trkpt lat="48.42785" lon="7.32018">
        <ele>937.1</ele>
        <time>2023-07-23T11:28:24Z</time>
      </trkpt>
      <trkpt lat="48.42785" lon="7.32016">
        <ele>937.2</ele>
        <time>2023-07-23T11:28:25Z</time>
      </trkpt>
      <trkpt lat="48.42785" lon="7.32012">
        <ele>937.4</ele>
        <time>2023-07-23T11:28:26Z</time>
      </trkpt>
      <trkpt lat="48.42786" lon="7.32008">
        <ele>937.7</ele>
        <time>2023-07-23T11:28:27Z</time>
      </trkpt>
      <trkpt lat="48.42786" lon="7.32002">
        <ele>937.9</ele>
        <time>2023-07-23T11:28:28Z</time>
      </trkpt>
      <trkpt lat="48.42786" lon="7.32">
        <ele>938</ele>
        <time>2023-07-23T11:28:29Z</time>
      </trkpt>
      <trkpt lat="48.42787" lon="7.31995">
        <ele>938.3</ele>
        <time>2023-07-23T11:28:30Z</time>
      </trkpt>
      <trkpt lat="48.42787" lon="7.31994">
        <ele>938.4</ele>
        <time>2023-07-23T11:28:31Z</time>
      </trkpt>
      <trkpt lat="48.42787" lon="7.31988">
        <ele>938.7</ele>
        <time>2023-07-23T11:28:32Z</time>
      </trkpt>
      <trkpt lat="48.42788" lon="7.31986">
        <ele>938.8</ele>
        <time>2023-07-23T11:28:33Z</time>
      </trkpt>
      <trkpt lat="48.42788" lon="7.31981">
        <ele>939.1</ele>
        <time>2023-07-23T11:28:34Z</time>
      </trkpt>
      <trkpt lat="48.42789" lon="7.31979">
        <ele>939.2</ele>
        <time>2023-07-23T11:28:35Z</time>
      </trkpt>
      <trkpt lat="48.42789" lon="7.31973">
        <ele>939.5</ele>
        <time>2023-07-23T11:28:36Z</time>
      </trkpt>
      <trkpt lat="48.42789" lon="7.31971">
        <ele>939.6</ele>
        <time>2023-07-23T11:28:37Z</time>
      </trkpt>
      <trkpt lat="48.4279" lon="7.31967">
        <ele>939.8</ele>
        <time>2023-07-23T11:28:38Z</time>
      </trkpt>
      <trkpt lat="48.4279" lon="7.31962">
        <ele>940.1</ele>
        <time>2023-07-23T11:28:39Z</time>
      </trkpt>
      <trkpt lat="48.42791" lon="7.3196">
        <ele>940.2</ele>
        <time>2023-07-23T11:28:40Z</time>
      </trkpt>
      <trkpt lat="48.42791" lon="7.31955">
        <ele>940.5</ele>
        <time>2023-07-23T11:28:41Z</time>
      </trkpt>
      <trkpt lat="48.42791" lon="7.31953">
        <ele>940.6</ele>
        <time>2023-07-23T11:28:42Z</time>
      </trkpt>
      <trkpt lat="48.42792" lon="7.31947">
        <ele>940.9</ele>
        <time>2023-07-23T11:28:43Z</time>
      </trkpt>
      <trkpt lat="48.42792" lon="7.31945">
        <ele>941</ele>
        <time>2023-07-23T11:28:44Z</time>
      </trkpt>
      <trkpt lat="48.42792" lon="7.31941">
        <ele>941.2</ele>
        <time>2023-07-23T11:28:45Z</time>
      </trkpt>
      <trkpt lat="48.42793" lon="7.31935">
        <ele>941.5</ele>
        <time>2023-07-23T11:28:46Z</time>
      </trkpt>
      <trkpt lat="48.42793" lon="7.31933">
        <ele>941.6</ele>
        <time>2023-07-23T11:28:47Z</time>
      </trkpt>
      <trkpt lat="48.42794" lon="7.31928">
        <ele>941.9</ele>
        <time>2023-07-23T11:28:48Z</time>
      </trkpt>
      <trkpt lat="48.42794" lon="7.31927">
        <ele>942</ele>
        <time>2023-07-23T11:28:49Z</time>
      </trkpt>
      <trkpt lat="48.42794" lon="7.31921">
        <ele>942.3</ele>
        <time>2023-07-23T11:28:50Z</time>
      </trkpt>
      <trkpt lat="48.42795" lon="7.31919">
        <ele>942.4</ele>
        <time>2023-07-23T11:28:51Z</time>
      </trkpt>
      <trkpt lat="48.42795" lon="7.31914">
        <ele>942.6</ele>
        <time>2023-07-23T11:28:52Z</time>
      </trkpt>
      <trkpt lat="48.42795" lon="7.31912">
        <ele>942.7</ele>
        <time>2023-07-23T11:28:53Z</time>
      </trkpt>
      <trkpt lat="48.42796" lon="7.31906">
        <ele>943</ele>
        <time>2023-07-23T11:28:54Z</time>
      </trkpt>
      <trkpt lat="48.42797" lon="7.31905">
        <ele>943.1</ele>
        <time>2023-07-23T11:28:55Z</time>
      </trkpt>
      <trkpt lat="48.42798" lon="7.31901">
        <ele>943.3</ele>
        <time>2023-07-23T11:28:56Z</time>
      </trkpt>
      <trkpt lat="48.42798" lon="7.31896">
        <ele>943.5</ele>
        <time>2023-07-23T11:28:57Z</time>
      </trkpt>
      <trkpt lat="48.42799" lon="7.31894">
        <ele>943.6</ele>
        <time>2023-07-23T11:28:58Z</time>
      </trkpt>
      <trkpt lat="48.42799" lon="7.31889">
        <ele>943.9</ele>
        <time>2023-07-23T11:28:59Z</time>
      </trkpt>
      <trkpt lat="48.428" lon="7.31887">
        <ele>944</ele>
        <time>2023-07-23T11:29:00Z</time>
      </trkpt>
      <trkpt lat="48.428" lon="7.31882">
        <ele>944.2</ele>
        <time>2023-07-23T11:29:01Z</time>
      </trkpt>
      <trkpt lat="48.42801" lon="7.3188">
        <ele>944.3</ele>
        <time>2023-07-23T11:29:02Z</time>
      </trkpt>
      <trkpt lat="48.42801" lon="7.31875">
        <ele>944.6</ele>
        <time>2023-07-23T11:29:03Z</time>
      </trkpt>
      <trkpt lat="48.42802" lon="7.31873">
        <ele>944.7</ele>
        <time>2023-07-23T11:29:04Z</time>
      </trkpt>
      <trkpt lat="48.42802" lon="7.31867">
        <ele>944.9</ele>
        <time>2023-07-23T11:29:05Z</time>
      </trkpt>
      <trkpt lat="48.42802" lon="7.31866">
        <ele>945</ele>
        <time>2023-07-23T11:29:06Z</time>
      </trkpt>
      <trkpt lat="48.42803" lon="7.3186">
        <ele>945.3</ele>
        <time>2023-07-23T11:29:07Z</time>
      </trkpt>
      <trkpt lat="48.42803" lon="7.31859">
        <ele>945.4</ele>
        <time>2023-07-23T11:29:08Z</time>
      </trkpt>
      <trkpt lat="48.42804" lon="7.31853">
        <ele>945.6</ele>
        <time>2023-07-23T11:29:09Z</time>
      </trkpt>
      <trkpt lat="48.42804" lon="7.31851">
        <ele>945.7</ele>
        <time>2023-07-23T11:29:10Z</time>
      </trkpt>
      <trkpt lat="48.42804" lon="7.31846">
        <ele>945.9</ele>
        <time>2023-07-23T11:29:11Z</time>
      </trkpt>
      <trkpt lat="48.42804" lon="7.31844">
        <ele>946</ele>
        <time>2023-07-23T11:29:12Z</time>
      </trkpt>
      <trkpt lat="48.42805" lon="7.31838">
        <ele>946.3</ele>
        <time>2023-07-23T11:29:13Z</time>
      </trkpt>
      <trkpt lat="48.42806" lon="7.31836">
        <ele>946.4</ele>
        <time>2023-07-23T11:29:14Z</time>
      </trkpt>
      <trkpt lat="48.42806" lon="7.31831">
        <ele>946.6</ele>
        <time>2023-07-23T11:29:15Z</time>
      </trkpt>
      <trkpt lat="48.42806" lon="7.31829">
        <ele>946.7</ele>
        <time>2023-07-23T11:29:16Z</time>
      </trkpt>
      <trkpt lat="48.42807" lon="7.31824">
        <ele>946.9</ele>
        <time>2023-07-23T11:29:17Z</time>
      </trkpt>
      <trkpt lat="48.42807" lon="7.31822">
        <ele>947</ele>
        <time>2023-07-23T11:29:18Z</time>
      </trkpt>
      <trkpt lat="48.42807" lon="7.31816">
        <ele>947.2</ele>
        <time>2023-07-23T11:29:19Z</time>
      </trkpt>
      <trkpt lat="48.42808" lon="7.31814">
        <ele>947.3</ele>
        <time>2023-07-23T11:29:20Z</time>
      </trkpt>
      <trkpt lat="48.42809" lon="7.31808">
        <ele>947.5</ele>
        <time>2023-07-23T11:29:21Z</time>
      </trkpt>
      <trkpt lat="48.42809" lon="7.31806">
        <ele>947.6</ele>
        <time>2023-07-23T11:29:22Z</time>
      </trkpt>
      <trkpt lat="48.4281" lon="7.31802">
        <ele>947.7</ele>
        <time>2023-07-23T11:29:23Z</time>
      </trkpt>
      <trkpt lat="48.42811" lon="7.31796">
        <ele>947.9</ele>
        <time>2023-07-23T11:29:24Z</time>
      </trkpt>
      <trkpt lat="48.42811" lon="7.31795">
        <ele>948</ele>
        <time>2023-07-23T11:29:25Z</time>
      </trkpt>
      <trkpt lat="48.42812" lon="7.31789">
        <ele>948.2</ele>
        <time>2023-07-23T11:29:26Z</time>
      </trkpt>
      <trkpt lat="48.42812" lon="7.31787">
        <ele>948.2</ele>
        <time>2023-07-23T11:29:27Z</time>
      </trkpt>
      <trkpt lat="48.42813" lon="7.31781">
        <ele>948.4</ele>
        <time>2023-07-23T11:29:28Z</time>
      </trkpt>
      <trkpt lat="48.42813" lon="7.31779">
        <ele>948.5</ele>
        <time>2023-07-23T11:29:29Z</time>
      </trkpt>
      <trkpt lat="48.42814" lon="7.31775">
        <ele>948.6</ele>
        <time>2023-07-23T11:29:30Z</time>
      </trkpt>
      <trkpt lat="48.42815" lon="7.3177">
        <ele>948.8</ele>
        <time>2023-07-23T11:29:31Z</time>
      </trkpt>
      <trkpt lat="48.42816" lon="7.31768">
        <ele>948.8</ele>
        <time>2023-07-23T11:29:32Z</time>
      </trkpt>
      <trkpt lat="48.42816" lon="7.31764">
        <ele>948.9</ele>
        <time>2023-07-23T11:29:33Z</time>
      </trkpt>
      <trkpt lat="48.42818" lon="7.31758">
        <ele>949.1</ele>
        <time>2023-07-23T11:29:34Z</time>
      </trkpt>
      <trkpt lat="48.42818" lon="7.31756">
        <ele>949.2</ele>
        <time>2023-07-23T11:29:35Z</time>
      </trkpt>
      <trkpt lat="48.42819" lon="7.3175">
        <ele>949.3</ele>
        <time>2023-07-23T11:29:36Z</time>
      </trkpt>
      <trkpt lat="48.42819" lon="7.31748">
        <ele>949.4</ele>
        <time>2023-07-23T11:29:37Z</time>
      </trkpt>
      <trkpt lat="48.4282" lon="7.31744">
        <ele>949.5</ele>
        <time>2023-07-23T11:29:38Z</time>
      </trkpt>
      <trkpt lat="48.42822" lon="7.31739">
        <ele>949.6</ele>
        <time>2023-07-23T11:29:39Z</time>
      </trkpt>
      <trkpt lat="48.42823" lon="7.31737">
        <ele>949.7</ele>
        <time>2023-07-23T11:29:40Z</time>
      </trkpt>
      <trkpt lat="48.42824" lon="7.31732">
        <ele>949.8</ele>
        <time>2023-07-23T11:29:41Z</time>
      </trkpt>
      <trkpt lat="48.42824" lon="7.31727">
        <ele>949.9</ele>
        <time>2023-07-23T11:29:42Z</time>
      </trkpt>
      <trkpt lat="48.42825" lon="7.31722">
        <ele>950</ele>
        <time>2023-07-23T11:29:43Z</time>
      </trkpt>
      <trkpt lat="48.42826" lon="7.31718">
        <ele>950.1</ele>
        <time>2023-07-23T11:29:44Z</time>
      </trkpt>
      <trkpt lat="48.42828" lon="7.31714">
        <ele>950.2</ele>
        <time>2023-07-23T11:29:45Z</time>
      </trkpt>
      <trkpt lat="48.42828" lon="7.31709">
        <ele>950.3</ele>
        <time>2023-07-23T11:29:46Z</time>
      </trkpt>
      <trkpt lat="48.42829" lon="7.31704">
        <ele>950.4</ele>
        <time>2023-07-23T11:29:47Z</time>
      </trkpt>
      <trkpt lat="48.4283" lon="7.31699">
        <ele>950.4</ele>
        <time>2023-07-23T11:29:48Z</time>
      </trkpt>
      <trkpt lat="48.42832" lon="7.31695">
        <ele>950.5</ele>
        <time>2023-07-23T11:29:50Z</time>
      </trkpt>
      <trkpt lat="48.42832" lon="7.3169">
        <ele>950.5</ele>
        <time>2023-07-23T11:29:51Z</time>
      </trkpt>
      <trkpt lat="48.42833" lon="7.31686">
        <ele>950.6</ele>
        <time>2023-07-23T11:29:52Z</time>
      </trkpt>
      <trkpt lat="48.42833" lon="7.31682">
        <ele>950.6</ele>
        <time>2023-07-23T11:29:53Z</time>
      </trkpt>
      <trkpt lat="48.42834" lon="7.31677">
        <ele>950.6</ele>
        <time>2023-07-23T11:29:54Z</time>
      </trkpt>
      <trkpt lat="48.42836" lon="7.31674">
        <ele>950.7</ele>
        <time>2023-07-23T11:29:55Z</time>
      </trkpt>
      <trkpt lat="48.42836" lon="7.31668">
        <ele>950.7</ele>
        <time>2023-07-23T11:29:56Z</time>
      </trkpt>
      <trkpt lat="48.42836" lon="7.31663">
        <ele>950.7</ele>
        <time>2023-07-23T11:29:57Z</time>
      </trkpt>
      <trkpt lat="48.42837" lon="7.31658">
        <ele>950.8</ele>
        <time>2023-07-23T11:29:58Z</time>
      </trkpt>
      <trkpt lat="48.42838" lon="7.31654">
        <ele>950.8</ele>
        <time>2023-07-23T11:29:59Z</time>
      </trkpt>
      <trkpt lat="48.42839" lon="7.3165">
        <ele>950.8</ele>
        <time>2023-07-23T11:30:00Z</time>
      </trkpt>
      <trkpt lat="48.4284" lon="7.31645">
        <ele>950.8</ele>
        <time>2023-07-23T11:30:01Z</time>
      </trkpt>
      <trkpt lat="48.4284" lon="7.31643">
        <ele>950.8</ele>
        <time>2023-07-23T11:30:02Z</time>
      </trkpt>
      <trkpt lat="48.42842" lon="7.31639">
        <ele>950.2</ele>
        <time>2023-07-23T11:30:03Z</time>
      </trkpt>
      <trkpt lat="48.42842" lon="7.31638">
        <ele>950</ele>
        <time>2023-07-23T11:30:04Z</time>
      </trkpt>
      <trkpt lat="48.42844" lon="7.31636">
        <ele>949.7</ele>
        <time>2023-07-23T11:30:05Z</time>
      </trkpt>
      <trkpt lat="48.42845" lon="7.31635">
        <ele>949.5</ele>
        <time>2023-07-23T11:30:06Z</time>
      </trkpt>
      <trkpt lat="48.42846" lon="7.31635">
        <ele>949.3</ele>
        <time>2023-07-23T11:30:07Z</time>
      </trkpt>
      <trkpt lat="48.42847" lon="7.31634">
        <ele>949.2</ele>
        <time>2023-07-23T11:30:08Z</time>
      </trkpt>
      <trkpt lat="48.42847" lon="7.31633">
        <ele>949.1</ele>
        <time>2023-07-23T11:30:09Z</time>
      </trkpt>
      <trkpt lat="48.42848" lon="7.31632">
        <ele>949</ele>
        <time>2023-07-23T11:30:10Z</time>
      </trkpt>
      <trkpt lat="48.4285" lon="7.3163">
        <ele>948.5</ele>
        <time>2023-07-23T11:30:11Z</time>
      </trkpt>
      <trkpt lat="48.42852" lon="7.31628">
        <ele>948.2</ele>
        <time>2023-07-23T11:30:12Z</time>
      </trkpt>
      <trkpt lat="48.42853" lon="7.31626">
        <ele>947.9</ele>
        <time>2023-07-23T11:30:13Z</time>
      </trkpt>
      <trkpt lat="48.42855" lon="7.31625">
        <ele>947.6</ele>
        <time>2023-07-23T11:30:14Z</time>
      </trkpt>
      <trkpt lat="48.42857" lon="7.31623">
        <ele>947.2</ele>
        <time>2023-07-23T11:30:15Z</time>
      </trkpt>
      <trkpt lat="48.42858" lon="7.31621">
        <ele>946.9</ele>
        <time>2023-07-23T11:30:16Z</time>
      </trkpt>
      <trkpt lat="48.4286" lon="7.3162">
        <ele>946.6</ele>
        <time>2023-07-23T11:30:17Z</time>
      </trkpt>
      <trkpt lat="48.42861" lon="7.31618">
        <ele>946.3</ele>
        <time>2023-07-23T11:30:18Z</time>
      </trkpt>
      <trkpt lat="48.42863" lon="7.31616">
        <ele>946</ele>
        <time>2023-07-23T11:30:19Z</time>
      </trkpt>
      <trkpt lat="48.42865" lon="7.31615">
        <ele>945.7</ele>
        <time>2023-07-23T11:30:20Z</time>
      </trkpt>
      <trkpt lat="48.42866" lon="7.31613">
        <ele>945.3</ele>
        <time>2023-07-23T11:30:21Z</time>
      </trkpt>
      <trkpt lat="48.42868" lon="7.31611">
        <ele>945</ele>
        <time>2023-07-23T11:42:46Z</time>
      </trkpt>
      <trkpt lat="48.4287" lon="7.31609">
        <ele>944.7</ele>
        <time>2023-07-23T11:42:47Z</time>
      </trkpt>
      <trkpt lat="48.42873" lon="7.31611">
        <ele>943.8</ele>
        <time>2023-07-23T11:42:48Z</time>
      </trkpt>
      <trkpt lat="48.42877" lon="7.31613">
        <ele>943.6</ele>
        <time>2023-07-23T11:42:49Z</time>
      </trkpt>
      <trkpt lat="48.4288" lon="7.31617">
        <ele>943.4</ele>
        <time>2023-07-23T11:42:50Z</time>
      </trkpt>
      <trkpt lat="48.42884" lon="7.31622">
        <ele>943.1</ele>
        <time>2023-07-23T11:42:51Z</time>
      </trkpt>
      <trkpt lat="48.42887" lon="7.31627">
        <ele>942.9</ele>
        <time>2023-07-23T11:42:52Z</time>
      </trkpt>
      <trkpt lat="48.42891" lon="7.31633">
        <ele>942.6</ele>
        <time>2023-07-23T11:42:53Z</time>
      </trkpt>
      <trkpt lat="48.42896" lon="7.31638">
        <ele>942.3</ele>
        <time>2023-07-23T11:42:54Z</time>
      </trkpt>
      <trkpt lat="48.429" lon="7.31644">
        <ele>942</ele>
        <time>2023-07-23T11:42:55Z</time>
      </trkpt>
      <trkpt lat="48.42905" lon="7.3165">
        <ele>941.6</ele>
        <time>2023-07-23T11:42:56Z</time>
      </trkpt>
      <trkpt lat="48.4291" lon="7.31656">
        <ele>941.3</ele>
        <time>2023-07-23T11:42:57Z</time>
      </trkpt>
      <trkpt lat="48.42915" lon="7.31663">
        <ele>940.9</ele>
        <time>2023-07-23T11:42:58Z</time>
      </trkpt>
      <trkpt lat="48.42921" lon="7.3167">
        <ele>940.5</ele>
        <time>2023-07-23T11:42:59Z</time>
      </trkpt>
      <trkpt lat="48.42927" lon="7.31677">
        <ele>940.1</ele>
        <time>2023-07-23T11:43:00Z</time>
      </trkpt>
      <trkpt lat="48.42933" lon="7.31685">
        <ele>939.7</ele>
        <time>2023-07-23T11:43:01Z</time>
      </trkpt>
      <trkpt lat="48.42939" lon="7.31693">
        <ele>939.3</ele>
        <time>2023-07-23T11:43:02Z</time>
      </trkpt>
      <trkpt lat="48.42946" lon="7.31701">
        <ele>938.9</ele>
        <time>2023-07-23T11:43:03Z</time>
      </trkpt>
      <trkpt lat="48.42953" lon="7.31709">
        <ele>938.4</ele>
        <time>2023-07-23T11:43:04Z</time>
      </trkpt>
      <trkpt lat="48.4296" lon="7.31717">
        <ele>938</ele>
        <time>2023-07-23T11:43:05Z</time>
      </trkpt>
      <trkpt lat="48.42967" lon="7.31726">
        <ele>937.5</ele>
        <time>2023-07-23T11:43:06Z</time>
      </trkpt>
      <trkpt lat="48.42975" lon="7.31734">
        <ele>937</ele>
        <time>2023-07-23T11:43:07Z</time>
      </trkpt>
      <trkpt lat="48.42982" lon="7.31742">
        <ele>936.5</ele>
        <time>2023-07-23T11:43:08Z</time>
      </trkpt>
      <trkpt lat="48.4299" lon="7.31749">
        <ele>935.9</ele>
        <time>2023-07-23T11:43:09Z</time>
      </trkpt>
      <trkpt lat="48.42999" lon="7.31757">
        <ele>935.4</ele>
        <time>2023-07-23T11:43:10Z</time>
      </trkpt>
      <trkpt lat="48.43007" lon="7.31764">
        <ele>934.9</ele>
        <time>2023-07-23T11:43:11Z</time>
      </trkpt>
      <trkpt lat="48.43016" lon="7.31771">
        <ele>934.4</ele>
        <time>2023-07-23T11:43:12Z</time>
      </trkpt>
      <trkpt lat="48.43026" lon="7.31776">
        <ele>933.8</ele>
        <time>2023-07-23T11:43:13Z</time>
      </trkpt>
      <trkpt lat="48.43035" lon="7.31782">
        <ele>933.2</ele>
        <time>2023-07-23T11:43:14Z</time>
      </trkpt>
      <trkpt lat="48.43045" lon="7.31789">
        <ele>932.6</ele>
        <time>2023-07-23T11:43:15Z</time>
      </trkpt>
      <trkpt lat="48.43055" lon="7.31795">
        <ele>932</ele>
        <time>2023-07-23T11:43:16Z</time>
      </trkpt>
      <trkpt lat="48.43065" lon="7.31802">
        <ele>931.3</ele>
        <time>2023-07-23T11:43:17Z</time>
      </trkpt>
      <trkpt lat="48.43075" lon="7.31808">
        <ele>930.6</ele>
        <time>2023-07-23T11:43:18Z</time>
      </trkpt>
      <trkpt lat="48.43086" lon="7.31813">
        <ele>930</ele>
        <time>2023-07-23T11:43:19Z</time>
      </trkpt>
      <trkpt lat="48.43097" lon="7.31819">
        <ele>929.4</ele>
        <time>2023-07-23T11:43:20Z</time>
      </trkpt>
      <trkpt lat="48.43109" lon="7.31821">
        <ele>928.8</ele>
        <time>2023-07-23T11:43:21Z</time>
      </trkpt>
      <trkpt lat="48.43121" lon="7.31823">
        <ele>928.2</ele>
        <time>2023-07-23T11:43:22Z</time>
      </trkpt>
      <trkpt lat="48.43133" lon="7.31825">
        <ele>927.6</ele>
        <time>2023-07-23T11:43:23Z</time>
      </trkpt>
      <trkpt lat="48.43145" lon="7.31826">
        <ele>927</ele>
        <time>2023-07-23T11:43:24Z</time>
      </trkpt>
      <trkpt lat="48.43157" lon="7.31827">
        <ele>926.4</ele>
        <time>2023-07-23T11:43:25Z</time>
      </trkpt>
      <trkpt lat="48.43169" lon="7.31828">
        <ele>925.8</ele>
        <time>2023-07-23T11:43:26Z</time>
      </trkpt>
      <trkpt lat="48.43181" lon="7.3183">
        <ele>925.2</ele>
        <time>2023-07-23T11:43:27Z</time>
      </trkpt>
      <trkpt lat="48.43193" lon="7.31834">
        <ele>924.5</ele>
        <time>2023-07-23T11:43:28Z</time>
      </trkpt>
      <trkpt lat="48.43205" lon="7.31837">
        <ele>923.8</ele>
        <time>2023-07-23T11:43:29Z</time>
      </trkpt>
      <trkpt lat="48.43217" lon="7.31842">
        <ele>923.2</ele>
        <time>2023-07-23T11:43:30Z</time>
      </trkpt>
      <trkpt lat="48.43229" lon="7.31847">
        <ele>922.5</ele>
        <time>2023-07-23T11:43:31Z</time>
      </trkpt>
      <trkpt lat="48.4324" lon="7.31854">
        <ele>921.8</ele>
        <time>2023-07-23T11:43:32Z</time>
      </trkpt>
      <trkpt lat="48.43252" lon="7.31863">
        <ele>921</ele>
        <time>2023-07-23T11:43:33Z</time>
      </trkpt>
      <trkpt lat="48.43262" lon="7.31875">
        <ele>920.3</ele>
        <time>2023-07-23T11:43:34Z</time>
      </trkpt>
      <trkpt lat="48.43271" lon="7.31889">
        <ele>919.5</ele>
        <time>2023-07-23T11:43:35Z</time>
      </trkpt>
      <trkpt lat="48.43281" lon="7.31903">
        <ele>918.7</ele>
        <time>2023-07-23T11:43:36Z</time>
      </trkpt>
      <trkpt lat="48.4329" lon="7.31918">
        <ele>917.9</ele>
        <time>2023-07-23T11:43:37Z</time>
      </trkpt>
      <trkpt lat="48.433" lon="7.3193">
        <ele>917.2</ele>
        <time>2023-07-23T11:43:38Z</time>
      </trkpt>
      <trkpt lat="48.4331" lon="7.31943">
        <ele>916.5</ele>
        <time>2023-07-23T11:43:39Z</time>
      </trkpt>
      <trkpt lat="48.43321" lon="7.31956">
        <ele>915.9</ele>
        <time>2023-07-23T11:43:40Z</time>
      </trkpt>
      <trkpt lat="48.43331" lon="7.31969">
        <ele>915.2</ele>
        <time>2023-07-23T11:43:41Z</time>
      </trkpt>
      <trkpt lat="48.43342" lon="7.31981">
        <ele>914.6</ele>
        <time>2023-07-23T11:43:42Z</time>
      </trkpt>
      <trkpt lat="48.43353" lon="7.31994">
        <ele>913.9</ele>
        <time>2023-07-23T11:43:43Z</time>
      </trkpt>
      <trkpt lat="48.43364" lon="7.32006">
        <ele>913.1</ele>
        <time>2023-07-23T11:43:44Z</time>
      </trkpt>
      <trkpt lat="48.43375" lon="7.32018">
        <ele>912.3</ele>
        <time>2023-07-23T11:43:45Z</time>
      </trkpt>
      <trkpt lat="48.43386" lon="7.32029">
        <ele>911.5</ele>
        <time>2023-07-23T11:43:46Z</time>
      </trkpt>
      <trkpt lat="48.43397" lon="7.32041">
        <ele>910.7</ele>
        <time>2023-07-23T11:43:47Z</time>
      </trkpt>
      <trkpt lat="48.4341" lon="7.3205">
        <ele>909.9</ele>
        <time>2023-07-23T11:43:48Z</time>
      </trkpt>
      <trkpt lat="48.43423" lon="7.32059">
        <ele>909</ele>
        <time>2023-07-23T11:43:49Z</time>
      </trkpt>
      <trkpt lat="48.43436" lon="7.32066">
        <ele>908.1</ele>
        <time>2023-07-23T11:43:50Z</time>
      </trkpt>
      <trkpt lat="48.43449" lon="7.32072">
        <ele>907.1</ele>
        <time>2023-07-23T11:43:51Z</time>
      </trkpt>
      <trkpt lat="48.43463" lon="7.32075">
        <ele>906.2</ele>
        <time>2023-07-23T11:43:52Z</time>
      </trkpt>
      <trkpt lat="48.43478" lon="7.32077">
        <ele>905.3</ele>
        <time>2023-07-23T11:43:53Z</time>
      </trkpt>
      <trkpt lat="48.43492" lon="7.32078">
        <ele>904.3</ele>
        <time>2023-07-23T11:43:54Z</time>
      </trkpt>
      <trkpt lat="48.43506" lon="7.32077">
        <ele>903.4</ele>
        <time>2023-07-23T11:43:55Z</time>
      </trkpt>
      <trkpt lat="48.43518" lon="7.32077">
        <ele>902.7</ele>
        <time>2023-07-23T11:43:56Z</time>
      </trkpt>
      <trkpt lat="48.4353" lon="7.32077">
        <ele>902</ele>
        <time>2023-07-23T11:43:57Z</time>
      </trkpt>
      <trkpt lat="48.43541" lon="7.32081">
        <ele>901.3</ele>
        <time>2023-07-23T11:43:58Z</time>
      </trkpt>
      <trkpt lat="48.43552" lon="7.32089">
        <ele>900.5</ele>
        <time>2023-07-23T11:43:59Z</time>
      </trkpt>
      <trkpt lat="48.43561" lon="7.321">
        <ele>899.6</ele>
        <time>2023-07-23T11:44:00Z</time>
      </trkpt>
      <trkpt lat="48.4357" lon="7.32113">
        <ele>898.6</ele>
        <time>2023-07-23T11:44:01Z</time>
      </trkpt>
      <trkpt lat="48.43576" lon="7.32129">
        <ele>897.7</ele>
        <time>2023-07-23T11:44:02Z</time>
      </trkpt>
      <trkpt lat="48.43582" lon="7.32148">
        <ele>896.7</ele>
        <time>2023-07-23T11:44:03Z</time>
      </trkpt>
      <trkpt lat="48.43585" lon="7.32168">
        <ele>895.9</ele>
        <time>2023-07-23T11:44:04Z</time>
      </trkpt>
      <trkpt lat="48.43586" lon="7.32188">
        <ele>895</ele>
        <time>2023-07-23T11:44:05Z</time>
      </trkpt>
      <trkpt lat="48.43588" lon="7.32207">
        <ele>894</ele>
        <time>2023-07-23T11:44:06Z</time>
      </trkpt>
      <trkpt lat="48.43588" lon="7.32227">
        <ele>892.9</ele>
        <time>2023-07-23T11:44:07Z</time>
      </trkpt>
      <trkpt lat="48.43588" lon="7.32247">
        <ele>891.9</ele>
        <time>2023-07-23T11:44:08Z</time>
      </trkpt>
      <trkpt lat="48.43587" lon="7.32266">
        <ele>890.9</ele>
        <time>2023-07-23T11:44:09Z</time>
      </trkpt>
      <trkpt lat="48.43583" lon="7.32285">
        <ele>889.9</ele>
        <time>2023-07-23T11:44:10Z</time>
      </trkpt>
      <trkpt lat="48.43578" lon="7.32303">
        <ele>888.9</ele>
        <time>2023-07-23T11:44:11Z</time>
      </trkpt>
      <trkpt lat="48.43571" lon="7.32321">
        <ele>888</ele>
        <time>2023-07-23T11:44:12Z</time>
      </trkpt>
      <trkpt lat="48.43565" lon="7.32337">
        <ele>887.1</ele>
        <time>2023-07-23T11:44:13Z</time>
      </trkpt>
      <trkpt lat="48.43562" lon="7.32352">
        <ele>886.3</ele>
        <time>2023-07-23T11:44:14Z</time>
      </trkpt>
      <trkpt lat="48.4356" lon="7.32366">
        <ele>885.5</ele>
        <time>2023-07-23T11:44:15Z</time>
      </trkpt>
      <trkpt lat="48.43561" lon="7.3238">
        <ele>884.8</ele>
        <time>2023-07-23T11:44:16Z</time>
      </trkpt>
      <trkpt lat="48.43565" lon="7.32393">
        <ele>884</ele>
        <time>2023-07-23T11:44:17Z</time>
      </trkpt>
      <trkpt lat="48.4357" lon="7.32405">
        <ele>883.2</ele>
        <time>2023-07-23T11:44:18Z</time>
      </trkpt>
      <trkpt lat="48.43577" lon="7.32417">
        <ele>882.4</ele>
        <time>2023-07-23T11:44:19Z</time>
      </trkpt>
      <trkpt lat="48.43586" lon="7.32426">
        <ele>881.6</ele>
        <time>2023-07-23T11:44:20Z</time>
      </trkpt>
      <trkpt lat="48.43595" lon="7.32435">
        <ele>880.8</ele>
        <time>2023-07-23T11:44:21Z</time>
      </trkpt>
      <trkpt lat="48.43604" lon="7.32443">
        <ele>879.9</ele>
        <time>2023-07-23T11:44:22Z</time>
      </trkpt>
      <trkpt lat="48.43614" lon="7.32451">
        <ele>879</ele>
        <time>2023-07-23T11:44:23Z</time>
      </trkpt>
      <trkpt lat="48.43623" lon="7.3246">
        <ele>878.2</ele>
        <time>2023-07-23T11:44:24Z</time>
      </trkpt>
      <trkpt lat="48.43633" lon="7.32469">
        <ele>877.3</ele>
        <time>2023-07-23T11:44:25Z</time>
      </trkpt>
      <trkpt lat="48.43643" lon="7.32478">
        <ele>876.5</ele>
        <time>2023-07-23T11:44:26Z</time>
      </trkpt>
      <trkpt lat="48.43653" lon="7.32488">
        <ele>875.7</ele>
        <time>2023-07-23T11:44:27Z</time>
      </trkpt>
      <trkpt lat="48.43664" lon="7.32496">
        <ele>874.9</ele>
        <time>2023-07-23T11:44:28Z</time>
      </trkpt>
      <trkpt lat="48.43674" lon="7.32505">
        <ele>874.1</ele>
        <time>2023-07-23T11:44:29Z</time>
      </trkpt>
      <trkpt lat="48.43684" lon="7.32515">
        <ele>873.3</ele>
        <time>2023-07-23T11:44:30Z</time>
      </trkpt>
      <trkpt lat="48.43695" lon="7.32525">
        <ele>872.4</ele>
        <time>2023-07-23T11:44:31Z</time>
      </trkpt>
      <trkpt lat="48.43706" lon="7.32534">
        <ele>871.6</ele>
        <time>2023-07-23T11:44:32Z</time>
      </trkpt>
      <trkpt lat="48.43716" lon="7.32545">
        <ele>870.7</ele>
        <time>2023-07-23T11:44:33Z</time>
      </trkpt>
      <trkpt lat="48.43727" lon="7.32555">
        <ele>869.9</ele>
        <time>2023-07-23T11:44:34Z</time>
      </trkpt>
      <trkpt lat="48.43739" lon="7.32566">
        <ele>869.1</ele>
        <time>2023-07-23T11:44:35Z</time>
      </trkpt>
      <trkpt lat="48.4375" lon="7.32577">
        <ele>868.5</ele>
        <time>2023-07-23T11:44:36Z</time>
      </trkpt>
      <trkpt lat="48.43761" lon="7.32587">
        <ele>867.8</ele>
        <time>2023-07-23T11:44:37Z</time>
      </trkpt>
      <trkpt lat="48.4377" lon="7.32596">
        <ele>867.1</ele>
        <time>2023-07-23T11:44:38Z</time>
      </trkpt>
      <trkpt lat="48.43781" lon="7.32604">
        <ele>866.5</ele>
        <time>2023-07-23T11:44:39Z</time>
      </trkpt>
      <trkpt lat="48.43792" lon="7.32612">
        <ele>865.7</ele>
        <time>2023-07-23T11:44:40Z</time>
      </trkpt>
      <trkpt lat="48.43804" lon="7.32617">
        <ele>865.9</ele>
        <time>2023-07-23T11:44:41Z</time>
      </trkpt>
      <trkpt lat="48.43816" lon="7.32621">
        <ele>865.3</ele>
        <time>2023-07-23T11:44:42Z</time>
      </trkpt>
      <trkpt lat="48.43828" lon="7.32623">
        <ele>864.4</ele>
        <time>2023-07-23T11:44:43Z</time>
      </trkpt>
      <trkpt lat="48.4384" lon="7.32626">
        <ele>863.4</ele>
        <time>2023-07-23T11:44:44Z</time>
      </trkpt>
      <trkpt lat="48.43853" lon="7.32629">
        <ele>862.4</ele>
        <time>2023-07-23T11:44:45Z</time>
      </trkpt>
      <trkpt lat="48.43866" lon="7.32632">
        <ele>861.3</ele>
        <time>2023-07-23T11:44:46Z</time>
      </trkpt>
      <trkpt lat="48.4388" lon="7.32635">
        <ele>860.2</ele>
        <time>2023-07-23T11:44:47Z</time>
      </trkpt>
      <trkpt lat="48.43893" lon="7.32638">
        <ele>859.1</ele>
        <time>2023-07-23T11:44:48Z</time>
      </trkpt>
      <trkpt lat="48.43906" lon="7.3264">
        <ele>857.9</ele>
        <time>2023-07-23T11:44:49Z</time>
      </trkpt>
      <trkpt lat="48.4392" lon="7.32643">
        <ele>856.8</ele>
        <time>2023-07-23T11:44:50Z</time>
      </trkpt>
      <trkpt lat="48.43934" lon="7.32646">
        <ele>855.5</ele>
        <time>2023-07-23T11:44:51Z</time>
      </trkpt>
      <trkpt lat="48.43948" lon="7.32648">
        <ele>854.3</ele>
        <time>2023-07-23T11:44:52Z</time>
      </trkpt>
      <trkpt lat="48.43962" lon="7.3265">
        <ele>853.2</ele>
        <time>2023-07-23T11:44:53Z</time>
      </trkpt>
      <trkpt lat="48.43977" lon="7.32651">
        <ele>851.9</ele>
        <time>2023-07-23T11:44:54Z</time>
      </trkpt>
      <trkpt lat="48.43991" lon="7.3265">
        <ele>850.7</ele>
        <time>2023-07-23T11:44:55Z</time>
      </trkpt>
      <trkpt lat="48.44006" lon="7.32649">
        <ele>849.5</ele>
        <time>2023-07-23T11:44:56Z</time>
      </trkpt>
      <trkpt lat="48.44021" lon="7.32647">
        <ele>848.4</ele>
        <time>2023-07-23T11:44:57Z</time>
      </trkpt>
      <trkpt lat="48.44035" lon="7.32645">
        <ele>847.4</ele>
        <time>2023-07-23T11:44:58Z</time>
      </trkpt>
      <trkpt lat="48.4405" lon="7.32643">
        <ele>846.5</ele>
        <time>2023-07-23T11:44:59Z</time>
      </trkpt>
      <trkpt lat="48.44065" lon="7.3264">
        <ele>845.7</ele>
        <time>2023-07-23T11:45:00Z</time>
      </trkpt>
      <trkpt lat="48.4408" lon="7.32637">
        <ele>844.9</ele>
        <time>2023-07-23T11:45:01Z</time>
      </trkpt>
      <trkpt lat="48.44094" lon="7.32635">
        <ele>844.2</ele>
        <time>2023-07-23T11:45:02Z</time>
      </trkpt>
      <trkpt lat="48.44108" lon="7.32634">
        <ele>843.5</ele>
        <time>2023-07-23T11:45:03Z</time>
      </trkpt>
      <trkpt lat="48.44123" lon="7.32633">
        <ele>842.8</ele>
        <time>2023-07-23T11:45:04Z</time>
      </trkpt>
      <trkpt lat="48.44137" lon="7.32632">
        <ele>842.2</ele>
        <time>2023-07-23T11:45:05Z</time>
      </trkpt>
      <trkpt lat="48.44151" lon="7.32633">
        <ele>841.6</ele>
        <time>2023-07-23T11:45:06Z</time>
      </trkpt>
      <trkpt lat="48.44165" lon="7.32634">
        <ele>841</ele>
        <time>2023-07-23T11:45:07Z</time>
      </trkpt>
      <trkpt lat="48.44179" lon="7.32635">
        <ele>840.4</ele>
        <time>2023-07-23T11:45:08Z</time>
      </trkpt>
      <trkpt lat="48.44193" lon="7.32638">
        <ele>840.6</ele>
        <time>2023-07-23T11:45:09Z</time>
      </trkpt>
      <trkpt lat="48.44206" lon="7.32644">
        <ele>840.5</ele>
        <time>2023-07-23T11:45:10Z</time>
      </trkpt>
      <trkpt lat="48.44219" lon="7.3265">
        <ele>839.9</ele>
        <time>2023-07-23T11:45:11Z</time>
      </trkpt>
      <trkpt lat="48.44231" lon="7.32656">
        <ele>839.2</ele>
        <time>2023-07-23T11:45:12Z</time>
      </trkpt>
      <trkpt lat="48.44244" lon="7.32664">
        <ele>838.4</ele>
        <time>2023-07-23T11:45:13Z</time>
      </trkpt>
      <trkpt lat="48.44257" lon="7.3267">
        <ele>837.7</ele>
        <time>2023-07-23T11:45:14Z</time>
      </trkpt>
      <trkpt lat="48.4427" lon="7.32677">
        <ele>837</ele>
        <time>2023-07-23T11:45:15Z</time>
      </trkpt>
      <trkpt lat="48.44283" lon="7.32686">
        <ele>836.3</ele>
        <time>2023-07-23T11:45:16Z</time>
      </trkpt>
      <trkpt lat="48.44295" lon="7.32695">
        <ele>835.4</ele>
        <time>2023-07-23T11:45:17Z</time>
      </trkpt>
      <trkpt lat="48.44307" lon="7.32707">
        <ele>834.5</ele>
        <time>2023-07-23T11:45:18Z</time>
      </trkpt>
      <trkpt lat="48.44318" lon="7.3272">
        <ele>833.5</ele>
        <time>2023-07-23T11:45:19Z</time>
      </trkpt>
      <trkpt lat="48.44329" lon="7.32733">
        <ele>832.5</ele>
        <time>2023-07-23T11:45:20Z</time>
      </trkpt>
      <trkpt lat="48.44341" lon="7.32745">
        <ele>831.5</ele>
        <time>2023-07-23T11:45:21Z</time>
      </trkpt>
      <trkpt lat="48.44352" lon="7.32754">
        <ele>830.7</ele>
        <time>2023-07-23T11:45:22Z</time>
      </trkpt>
      <trkpt lat="48.44363" lon="7.32762">
        <ele>829.9</ele>
        <time>2023-07-23T11:45:23Z</time>
      </trkpt>
      <trkpt lat="48.44373" lon="7.32767">
        <ele>829.3</ele>
        <time>2023-07-23T11:45:24Z</time>
      </trkpt>
      <trkpt lat="48.44383" lon="7.32769">
        <ele>828.8</ele>
        <time>2023-07-23T11:45:25Z</time>
      </trkpt>
      <trkpt lat="48.44391" lon="7.32771">
        <ele>828.3</ele>
        <time>2023-07-23T11:45:26Z</time>
      </trkpt>
      <trkpt lat="48.44399" lon="7.32775">
        <ele>827.8</ele>
        <time>2023-07-23T11:45:27Z</time>
      </trkpt>
      <trkpt lat="48.44408" lon="7.32781">
        <ele>827.3</ele>
        <time>2023-07-23T11:45:28Z</time>
      </trkpt>
      <trkpt lat="48.44415" lon="7.32791">
        <ele>826.8</ele>
        <time>2023-07-23T11:45:29Z</time>
      </trkpt>
      <trkpt lat="48.44419" lon="7.32805">
        <ele>826.3</ele>
        <time>2023-07-23T11:45:30Z</time>
      </trkpt>
      <trkpt lat="48.44418" lon="7.32819">
        <ele>825.7</ele>
        <time>2023-07-23T11:45:31Z</time>
      </trkpt>
      <trkpt lat="48.44413" lon="7.32832">
        <ele>825</ele>
        <time>2023-07-23T11:45:32Z</time>
      </trkpt>
      <trkpt lat="48.44404" lon="7.32842">
        <ele>824.8</ele>
        <time>2023-07-23T11:45:33Z</time>
      </trkpt>
      <trkpt lat="48.44393" lon="7.32846">
        <ele>824.6</ele>
        <time>2023-07-23T11:45:34Z</time>
      </trkpt>
      <trkpt lat="48.44383" lon="7.32847">
        <ele>823.7</ele>
        <time>2023-07-23T11:45:35Z</time>
      </trkpt>
      <trkpt lat="48.44375" lon="7.32849">
        <ele>822.8</ele>
        <time>2023-07-23T11:45:36Z</time>
      </trkpt>
      <trkpt lat="48.44364" lon="7.32852">
        <ele>821.7</ele>
        <time>2023-07-23T11:45:37Z</time>
      </trkpt>
      <trkpt lat="48.44353" lon="7.32857">
        <ele>820.6</ele>
        <time>2023-07-23T11:45:38Z</time>
      </trkpt>
      <trkpt lat="48.44343" lon="7.32865">
        <ele>819.4</ele>
        <time>2023-07-23T11:45:39Z</time>
      </trkpt>
      <trkpt lat="48.44332" lon="7.32873">
        <ele>818.2</ele>
        <time>2023-07-23T11:45:40Z</time>
      </trkpt>
      <trkpt lat="48.44321" lon="7.32881">
        <ele>816.9</ele>
        <time>2023-07-23T11:45:41Z</time>
      </trkpt>
      <trkpt lat="48.44311" lon="7.32892">
        <ele>815.7</ele>
        <time>2023-07-23T11:45:42Z</time>
      </trkpt>
      <trkpt lat="48.44301" lon="7.32905">
        <ele>814.4</ele>
        <time>2023-07-23T11:45:43Z</time>
      </trkpt>
      <trkpt lat="48.44293" lon="7.32919">
        <ele>813.1</ele>
        <time>2023-07-23T11:45:44Z</time>
      </trkpt>
      <trkpt lat="48.44285" lon="7.32934">
        <ele>811.8</ele>
        <time>2023-07-23T11:45:45Z</time>
      </trkpt>
      <trkpt lat="48.44276" lon="7.3295">
        <ele>810.6</ele>
        <time>2023-07-23T11:45:46Z</time>
      </trkpt>
      <trkpt lat="48.44268" lon="7.32965">
        <ele>809.4</ele>
        <time>2023-07-23T11:45:47Z</time>
      </trkpt>
      <trkpt lat="48.4426" lon="7.32981">
        <ele>808.2</ele>
        <time>2023-07-23T11:45:48Z</time>
      </trkpt>
      <trkpt lat="48.44252" lon="7.32997">
        <ele>807</ele>
        <time>2023-07-23T11:45:49Z</time>
      </trkpt>
      <trkpt lat="48.44245" lon="7.33013">
        <ele>805.7</ele>
        <time>2023-07-23T11:45:50Z</time>
      </trkpt>
      <trkpt lat="48.44238" lon="7.3303">
        <ele>804.4</ele>
        <time>2023-07-23T11:45:51Z</time>
      </trkpt>
      <trkpt lat="48.44232" lon="7.33049">
        <ele>803.2</ele>
        <time>2023-07-23T11:45:52Z</time>
      </trkpt>
      <trkpt lat="48.44228" lon="7.33068">
        <ele>801.9</ele>
        <time>2023-07-23T11:45:53Z</time>
      </trkpt>
      <trkpt lat="48.44225" lon="7.33087">
        <ele>800.7</ele>
        <time>2023-07-23T11:45:54Z</time>
      </trkpt>
      <trkpt lat="48.44222" lon="7.33106">
        <ele>799.5</ele>
        <time>2023-07-23T11:45:55Z</time>
      </trkpt>
      <trkpt lat="48.44219" lon="7.33125">
        <ele>798.4</ele>
        <time>2023-07-23T11:45:56Z</time>
      </trkpt>
      <trkpt lat="48.44216" lon="7.33142">
        <ele>797.7</ele>
        <time>2023-07-23T11:45:57Z</time>
      </trkpt>
      <trkpt lat="48.44212" lon="7.33156">
        <ele>796.9</ele>
        <time>2023-07-23T11:45:58Z</time>
      </trkpt>
      <trkpt lat="48.44205" lon="7.3317">
        <ele>796</ele>
        <time>2023-07-23T11:45:59Z</time>
      </trkpt>
      <trkpt lat="48.44196" lon="7.33181">
        <ele>795.1</ele>
        <time>2023-07-23T11:46:00Z</time>
      </trkpt>
      <trkpt lat="48.44187" lon="7.33192">
        <ele>794.1</ele>
        <time>2023-07-23T11:46:01Z</time>
      </trkpt>
      <trkpt lat="48.4418" lon="7.33202">
        <ele>793.3</ele>
        <time>2023-07-23T11:46:02Z</time>
      </trkpt>
      <trkpt lat="48.4414" lon="7.33217">
        <ele>790.1</ele>
        <time>2023-07-23T11:46:03Z</time>
      </trkpt>
      <trkpt lat="48.44134" lon="7.33222">
        <ele>789.7</ele>
        <time>2023-07-23T11:46:04Z</time>
      </trkpt>
      <trkpt lat="48.44124" lon="7.33233">
        <ele>788.7</ele>
        <time>2023-07-23T11:46:05Z</time>
      </trkpt>
      <trkpt lat="48.44114" lon="7.33248">
        <ele>787.7</ele>
        <time>2023-07-23T11:46:06Z</time>
      </trkpt>
      <trkpt lat="48.44105" lon="7.33263">
        <ele>786.6</ele>
        <time>2023-07-23T11:46:07Z</time>
      </trkpt>
      <trkpt lat="48.44096" lon="7.33279">
        <ele>785.5</ele>
        <time>2023-07-23T11:46:08Z</time>
      </trkpt>
      <trkpt lat="48.44087" lon="7.33294">
        <ele>784.5</ele>
        <time>2023-07-23T11:46:09Z</time>
      </trkpt>
      <trkpt lat="48.44076" lon="7.33309">
        <ele>783.4</ele>
        <time>2023-07-23T11:46:10Z</time>
      </trkpt>
      <trkpt lat="48.44065" lon="7.33321">
        <ele>782.5</ele>
        <time>2023-07-23T11:46:11Z</time>
      </trkpt>
      <trkpt lat="48.44055" lon="7.33336">
        <ele>781.4</ele>
        <time>2023-07-23T11:46:12Z</time>
      </trkpt>
      <trkpt lat="48.44044" lon="7.33349">
        <ele>780.4</ele>
        <time>2023-07-23T11:46:13Z</time>
      </trkpt>
      <trkpt lat="48.44033" lon="7.33363">
        <ele>779.2</ele>
        <time>2023-07-23T11:46:14Z</time>
      </trkpt>
      <trkpt lat="48.44023" lon="7.33378">
        <ele>778.1</ele>
        <time>2023-07-23T11:46:15Z</time>
      </trkpt>
      <trkpt lat="48.44012" lon="7.33392">
        <ele>777</ele>
        <time>2023-07-23T11:46:16Z</time>
      </trkpt>
      <trkpt lat="48.44003" lon="7.33409">
        <ele>775.9</ele>
        <time>2023-07-23T11:46:17Z</time>
      </trkpt>
      <trkpt lat="48.43993" lon="7.33426">
        <ele>774.8</ele>
        <time>2023-07-23T11:46:18Z</time>
      </trkpt>
      <trkpt lat="48.43983" lon="7.33441">
        <ele>773.8</ele>
        <time>2023-07-23T11:46:19Z</time>
      </trkpt>
      <trkpt lat="48.43973" lon="7.33457">
        <ele>772.7</ele>
        <time>2023-07-23T11:46:20Z</time>
      </trkpt>
      <trkpt lat="48.43961" lon="7.33471">
        <ele>771.7</ele>
        <time>2023-07-23T11:46:21Z</time>
      </trkpt>
      <trkpt lat="48.4395" lon="7.33485">
        <ele>770.7</ele>
        <time>2023-07-23T11:46:22Z</time>
      </trkpt>
      <trkpt lat="48.43939" lon="7.33498">
        <ele>769.7</ele>
        <time>2023-07-23T11:46:23Z</time>
      </trkpt>
      <trkpt lat="48.4393" lon="7.33512">
        <ele>768.9</ele>
        <time>2023-07-23T11:46:24Z</time>
      </trkpt>
      <trkpt lat="48.43923" lon="7.33525">
        <ele>768.1</ele>
        <time>2023-07-23T11:46:25Z</time>
      </trkpt>
      <trkpt lat="48.4392" lon="7.33546">
        <ele>767.1</ele>
        <time>2023-07-23T11:46:26Z</time>
      </trkpt>
      <trkpt lat="48.43917" lon="7.33566">
        <ele>766.1</ele>
        <time>2023-07-23T11:46:27Z</time>
      </trkpt>
      <trkpt lat="48.43915" lon="7.33585">
        <ele>765</ele>
        <time>2023-07-23T11:46:28Z</time>
      </trkpt>
      <trkpt lat="48.43909" lon="7.33602">
        <ele>764.1</ele>
        <time>2023-07-23T11:46:29Z</time>
      </trkpt>
      <trkpt lat="48.43902" lon="7.3362">
        <ele>763.1</ele>
        <time>2023-07-23T11:46:30Z</time>
      </trkpt>
      <trkpt lat="48.43896" lon="7.33639">
        <ele>762.1</ele>
        <time>2023-07-23T11:46:31Z</time>
      </trkpt>
      <trkpt lat="48.43891" lon="7.33657">
        <ele>761.2</ele>
        <time>2023-07-23T11:46:32Z</time>
      </trkpt>
      <trkpt lat="48.43884" lon="7.33674">
        <ele>760.2</ele>
        <time>2023-07-23T11:46:33Z</time>
      </trkpt>
      <trkpt lat="48.43878" lon="7.33693">
        <ele>759.2</ele>
        <time>2023-07-23T11:46:34Z</time>
      </trkpt>
      <trkpt lat="48.43872" lon="7.33711">
        <ele>758.1</ele>
        <time>2023-07-23T11:46:36Z</time>
      </trkpt>
      <trkpt lat="48.43865" lon="7.33729">
        <ele>757.1</ele>
        <time>2023-07-23T11:46:37Z</time>
      </trkpt>
      <trkpt lat="48.43858" lon="7.33748">
        <ele>756.2</ele>
        <time>2023-07-23T11:46:38Z</time>
      </trkpt>
      <trkpt lat="48.43852" lon="7.33767">
        <ele>755.3</ele>
        <time>2023-07-23T11:46:39Z</time>
      </trkpt>
      <trkpt lat="48.43846" lon="7.33786">
        <ele>754.4</ele>
        <time>2023-07-23T11:46:40Z</time>
      </trkpt>
      <trkpt lat="48.43839" lon="7.33806">
        <ele>753.4</ele>
        <time>2023-07-23T11:46:41Z</time>
      </trkpt>
      <trkpt lat="48.43832" lon="7.33824">
        <ele>752.4</ele>
        <time>2023-07-23T11:46:42Z</time>
      </trkpt>
      <trkpt lat="48.43823" lon="7.33842">
        <ele>751.2</ele>
        <time>2023-07-23T11:46:43Z</time>
      </trkpt>
      <trkpt lat="48.43812" lon="7.33857">
        <ele>750.1</ele>
        <time>2023-07-23T11:46:44Z</time>
      </trkpt>
      <trkpt lat="48.438" lon="7.33871">
        <ele>749</ele>
        <time>2023-07-23T11:46:45Z</time>
      </trkpt>
      <trkpt lat="48.43789" lon="7.33886">
        <ele>747.9</ele>
        <time>2023-07-23T11:46:46Z</time>
      </trkpt>
      <trkpt lat="48.43778" lon="7.33902">
        <ele>746.9</ele>
        <time>2023-07-23T11:46:47Z</time>
      </trkpt>
      <trkpt lat="48.43767" lon="7.33917">
        <ele>746</ele>
        <time>2023-07-23T11:46:48Z</time>
      </trkpt>
      <trkpt lat="48.43756" lon="7.33932">
        <ele>745.1</ele>
        <time>2023-07-23T11:46:49Z</time>
      </trkpt>
      <trkpt lat="48.43746" lon="7.33947">
        <ele>744.2</ele>
        <time>2023-07-23T11:46:50Z</time>
      </trkpt>
      <trkpt lat="48.43736" lon="7.3396">
        <ele>743.4</ele>
        <time>2023-07-23T11:46:51Z</time>
      </trkpt>
      <trkpt lat="48.43728" lon="7.33972">
        <ele>742.7</ele>
        <time>2023-07-23T11:46:52Z</time>
      </trkpt>
      <trkpt lat="48.43719" lon="7.33982">
        <ele>741.9</ele>
        <time>2023-07-23T11:46:53Z</time>
      </trkpt>
      <trkpt lat="48.43707" lon="7.3399">
        <ele>741</ele>
        <time>2023-07-23T11:46:54Z</time>
      </trkpt>
      <trkpt lat="48.43695" lon="7.33994">
        <ele>740.2</ele>
        <time>2023-07-23T11:46:55Z</time>
      </trkpt>
      <trkpt lat="48.43682" lon="7.33995">
        <ele>739.5</ele>
        <time>2023-07-23T11:46:56Z</time>
      </trkpt>
      <trkpt lat="48.43669" lon="7.33997">
        <ele>738.9</ele>
        <time>2023-07-23T11:46:57Z</time>
      </trkpt>
      <trkpt lat="48.43657" lon="7.34001">
        <ele>738.3</ele>
        <time>2023-07-23T11:46:58Z</time>
      </trkpt>
      <trkpt lat="48.43646" lon="7.34006">
        <ele>737.7</ele>
        <time>2023-07-23T11:46:59Z</time>
      </trkpt>
      <trkpt lat="48.43637" lon="7.34012">
        <ele>737.2</ele>
        <time>2023-07-23T11:47:00Z</time>
      </trkpt>
      <trkpt lat="48.43631" lon="7.3402">
        <ele>736.6</ele>
        <time>2023-07-23T11:47:01Z</time>
      </trkpt>
      <trkpt lat="48.43628" lon="7.34031">
        <ele>736.1</ele>
        <time>2023-07-23T11:47:02Z</time>
      </trkpt>
      <trkpt lat="48.43629" lon="7.34044">
        <ele>735.4</ele>
        <time>2023-07-23T11:47:03Z</time>
      </trkpt>
      <trkpt lat="48.43632" lon="7.34056">
        <ele>734.8</ele>
        <time>2023-07-23T11:47:04Z</time>
      </trkpt>
      <trkpt lat="48.43638" lon="7.34064">
        <ele>734.1</ele>
        <time>2023-07-23T11:47:05Z</time>
      </trkpt>
      <trkpt lat="48.43646" lon="7.34069">
        <ele>733.3</ele>
        <time>2023-07-23T11:47:06Z</time>
      </trkpt>
      <trkpt lat="48.43654" lon="7.34071">
        <ele>732.6</ele>
        <time>2023-07-23T11:47:07Z</time>
      </trkpt>
      <trkpt lat="48.43663" lon="7.34071">
        <ele>731.8</ele>
        <time>2023-07-23T11:47:08Z</time>
      </trkpt>
      <trkpt lat="48.43672" lon="7.34071">
        <ele>731</ele>
        <time>2023-07-23T11:47:09Z</time>
      </trkpt>
      <trkpt lat="48.43682" lon="7.34072">
        <ele>730.2</ele>
        <time>2023-07-23T11:47:10Z</time>
      </trkpt>
      <trkpt lat="48.43692" lon="7.34072">
        <ele>729.3</ele>
        <time>2023-07-23T11:47:11Z</time>
      </trkpt>
      <trkpt lat="48.43702" lon="7.34072">
        <ele>728.4</ele>
        <time>2023-07-23T11:47:12Z</time>
      </trkpt>
      <trkpt lat="48.43713" lon="7.34072">
        <ele>727.4</ele>
        <time>2023-07-23T11:47:13Z</time>
      </trkpt>
      <trkpt lat="48.43724" lon="7.34072">
        <ele>726.4</ele>
        <time>2023-07-23T11:47:14Z</time>
      </trkpt>
      <trkpt lat="48.43735" lon="7.34071">
        <ele>725.3</ele>
        <time>2023-07-23T11:47:15Z</time>
      </trkpt>
      <trkpt lat="48.43747" lon="7.3407">
        <ele>724.3</ele>
        <time>2023-07-23T11:47:16Z</time>
      </trkpt>
      <trkpt lat="48.43759" lon="7.34068">
        <ele>723.3</ele>
        <time>2023-07-23T11:47:17Z</time>
      </trkpt>
      <trkpt lat="48.43771" lon="7.34067">
        <ele>722.2</ele>
        <time>2023-07-23T11:47:18Z</time>
      </trkpt>
      <trkpt lat="48.43784" lon="7.34067">
        <ele>721.1</ele>
        <time>2023-07-23T11:47:19Z</time>
      </trkpt>
      <trkpt lat="48.43796" lon="7.34065">
        <ele>720.1</ele>
        <time>2023-07-23T11:47:20Z</time>
      </trkpt>
      <trkpt lat="48.43808" lon="7.34064">
        <ele>719</ele>
        <time>2023-07-23T11:47:21Z</time>
      </trkpt>
      <trkpt lat="48.43822" lon="7.34061">
        <ele>717.8</ele>
        <time>2023-07-23T11:47:22Z</time>
      </trkpt>
      <trkpt lat="48.43834" lon="7.34057">
        <ele>716.7</ele>
        <time>2023-07-23T11:47:23Z</time>
      </trkpt>
      <trkpt lat="48.43848" lon="7.34049">
        <ele>715.6</ele>
        <time>2023-07-23T11:47:24Z</time>
      </trkpt>
      <trkpt lat="48.4386" lon="7.34038">
        <ele>714.5</ele>
        <time>2023-07-23T11:47:25Z</time>
      </trkpt>
      <trkpt lat="48.4387" lon="7.3403">
        <ele>713.5</ele>
        <time>2023-07-23T11:47:26Z</time>
      </trkpt>
      <trkpt lat="48.4388" lon="7.34019">
        <ele>712.6</ele>
        <time>2023-07-23T11:47:27Z</time>
      </trkpt>
      <trkpt lat="48.43891" lon="7.34002">
        <ele>711.4</ele>
        <time>2023-07-23T11:47:28Z</time>
      </trkpt>
      <trkpt lat="48.439" lon="7.33987">
        <ele>710.2</ele>
        <time>2023-07-23T11:47:29Z</time>
      </trkpt>
      <trkpt lat="48.4391" lon="7.33973">
        <ele>709.1</ele>
        <time>2023-07-23T11:47:30Z</time>
      </trkpt>
      <trkpt lat="48.4392" lon="7.33958">
        <ele>708.1</ele>
        <time>2023-07-23T11:47:31Z</time>
      </trkpt>
      <trkpt lat="48.43931" lon="7.33944">
        <ele>707</ele>
        <time>2023-07-23T11:47:32Z</time>
      </trkpt>
      <trkpt lat="48.43943" lon="7.33934">
        <ele>705.9</ele>
        <time>2023-07-23T11:47:33Z</time>
      </trkpt>
      <trkpt lat="48.43958" lon="7.33929">
        <ele>704.5</ele>
        <time>2023-07-23T11:47:34Z</time>
      </trkpt>
      <trkpt lat="48.43973" lon="7.33924">
        <ele>703.1</ele>
        <time>2023-07-23T11:47:35Z</time>
      </trkpt>
      <trkpt lat="48.43987" lon="7.33918">
        <ele>701.9</ele>
        <time>2023-07-23T11:47:36Z</time>
      </trkpt>
      <trkpt lat="48.44" lon="7.33911">
        <ele>700.8</ele>
        <time>2023-07-23T11:47:37Z</time>
      </trkpt>
      <trkpt lat="48.44013" lon="7.33901">
        <ele>699.7</ele>
        <time>2023-07-23T11:47:38Z</time>
      </trkpt>
      <trkpt lat="48.44026" lon="7.33891">
        <ele>698.6</ele>
        <time>2023-07-23T11:47:39Z</time>
      </trkpt>
      <trkpt lat="48.44037" lon="7.33881">
        <ele>697.5</ele>
        <time>2023-07-23T11:47:40Z</time>
      </trkpt>
      <trkpt lat="48.44046" lon="7.33871">
        <ele>696.4</ele>
        <time>2023-07-23T11:47:41Z</time>
      </trkpt>
      <trkpt lat="48.44054" lon="7.33858">
        <ele>695.4</ele>
        <time>2023-07-23T11:47:42Z</time>
      </trkpt>
      <trkpt lat="48.44062" lon="7.33843">
        <ele>694.3</ele>
        <time>2023-07-23T11:47:43Z</time>
      </trkpt>
      <trkpt lat="48.4407" lon="7.33827">
        <ele>693.2</ele>
        <time>2023-07-23T11:47:44Z</time>
      </trkpt>
      <trkpt lat="48.44078" lon="7.33812">
        <ele>692</ele>
        <time>2023-07-23T11:47:45Z</time>
      </trkpt>
      <trkpt lat="48.44089" lon="7.33801">
        <ele>690.9</ele>
        <time>2023-07-23T11:47:46Z</time>
      </trkpt>
      <trkpt lat="48.44102" lon="7.33793">
        <ele>689.7</ele>
        <time>2023-07-23T11:47:47Z</time>
      </trkpt>
      <trkpt lat="48.44115" lon="7.33789">
        <ele>688.5</ele>
        <time>2023-07-23T11:47:48Z</time>
      </trkpt>
      <trkpt lat="48.44142" lon="7.33785">
        <ele>686.1</ele>
        <time>2023-07-23T11:47:49Z</time>
      </trkpt>
      <trkpt lat="48.44152" lon="7.33778">
        <ele>685.2</ele>
        <time>2023-07-23T11:47:50Z</time>
      </trkpt>
      <trkpt lat="48.44161" lon="7.33765">
        <ele>684.2</ele>
        <time>2023-07-23T11:47:51Z</time>
      </trkpt>
      <trkpt lat="48.44169" lon="7.3375">
        <ele>683</ele>
        <time>2023-07-23T11:47:52Z</time>
      </trkpt>
      <trkpt lat="48.44178" lon="7.3374">
        <ele>681.9</ele>
        <time>2023-07-23T11:47:53Z</time>
      </trkpt>
      <trkpt lat="48.44187" lon="7.33734">
        <ele>680.9</ele>
        <time>2023-07-23T11:47:54Z</time>
      </trkpt>
      <trkpt lat="48.44199" lon="7.33733">
        <ele>679.6</ele>
        <time>2023-07-23T11:47:55Z</time>
      </trkpt>
      <trkpt lat="48.44211" lon="7.33736">
        <ele>678.4</ele>
        <time>2023-07-23T11:47:56Z</time>
      </trkpt>
      <trkpt lat="48.44224" lon="7.33739">
        <ele>677</ele>
        <time>2023-07-23T11:47:57Z</time>
      </trkpt>
      <trkpt lat="48.44237" lon="7.33741">
        <ele>675.8</ele>
        <time>2023-07-23T11:47:58Z</time>
      </trkpt>
      <trkpt lat="48.44249" lon="7.33743">
        <ele>674.6</ele>
        <time>2023-07-23T11:47:59Z</time>
      </trkpt>
      <trkpt lat="48.44262" lon="7.33746">
        <ele>673.8</ele>
        <time>2023-07-23T11:48:00Z</time>
      </trkpt>
      <trkpt lat="48.44275" lon="7.33753">
        <ele>673.1</ele>
        <time>2023-07-23T11:48:01Z</time>
      </trkpt>
      <trkpt lat="48.44287" lon="7.33759">
        <ele>672.5</ele>
        <time>2023-07-23T11:48:02Z</time>
      </trkpt>
      <trkpt lat="48.44299" lon="7.33764">
        <ele>671.9</ele>
        <time>2023-07-23T11:48:03Z</time>
      </trkpt>
      <trkpt lat="48.44311" lon="7.33764">
        <ele>671.4</ele>
        <time>2023-07-23T11:48:04Z</time>
      </trkpt>
      <trkpt lat="48.44321" lon="7.3376">
        <ele>670.9</ele>
        <time>2023-07-23T11:48:05Z</time>
      </trkpt>
      <trkpt lat="48.44331" lon="7.33755">
        <ele>670.4</ele>
        <time>2023-07-23T11:48:06Z</time>
      </trkpt>
      <trkpt lat="48.4434" lon="7.33754">
        <ele>669.9</ele>
        <time>2023-07-23T11:48:07Z</time>
      </trkpt>
      <trkpt lat="48.44348" lon="7.3376">
        <ele>669.5</ele>
        <time>2023-07-23T11:48:08Z</time>
      </trkpt>
      <trkpt lat="48.44352" lon="7.33772">
        <ele>669</ele>
        <time>2023-07-23T11:48:09Z</time>
      </trkpt>
      <trkpt lat="48.44353" lon="7.33786">
        <ele>668.5</ele>
        <time>2023-07-23T11:48:10Z</time>
      </trkpt>
      <trkpt lat="48.44354" lon="7.33799">
        <ele>667.9</ele>
        <time>2023-07-23T11:48:11Z</time>
      </trkpt>
      <trkpt lat="48.44354" lon="7.33811">
        <ele>667.2</ele>
        <time>2023-07-23T11:48:12Z</time>
      </trkpt>
      <trkpt lat="48.44354" lon="7.33824">
        <ele>666.5</ele>
        <time>2023-07-23T11:48:13Z</time>
      </trkpt>
      <trkpt lat="48.44354" lon="7.33837">
        <ele>665.8</ele>
        <time>2023-07-23T11:48:14Z</time>
      </trkpt>
      <trkpt lat="48.44355" lon="7.33851">
        <ele>665.1</ele>
        <time>2023-07-23T11:48:15Z</time>
      </trkpt>
      <trkpt lat="48.44356" lon="7.33864">
        <ele>664.4</ele>
        <time>2023-07-23T11:48:16Z</time>
      </trkpt>
      <trkpt lat="48.44359" lon="7.33879">
        <ele>663.7</ele>
        <time>2023-07-23T11:48:17Z</time>
      </trkpt>
      <trkpt lat="48.44364" lon="7.33892">
        <ele>663</ele>
        <time>2023-07-23T11:48:18Z</time>
      </trkpt>
      <trkpt lat="48.44369" lon="7.33906">
        <ele>662.3</ele>
        <time>2023-07-23T11:48:19Z</time>
      </trkpt>
      <trkpt lat="48.44376" lon="7.33919">
        <ele>661.5</ele>
        <time>2023-07-23T11:48:20Z</time>
      </trkpt>
      <trkpt lat="48.44382" lon="7.33932">
        <ele>660.7</ele>
        <time>2023-07-23T11:48:21Z</time>
      </trkpt>
      <trkpt lat="48.44388" lon="7.33947">
        <ele>659.9</ele>
        <time>2023-07-23T11:48:22Z</time>
      </trkpt>
      <trkpt lat="48.44395" lon="7.3396">
        <ele>659</ele>
        <time>2023-07-23T11:48:23Z</time>
      </trkpt>
      <trkpt lat="48.44402" lon="7.33974">
        <ele>658.2</ele>
        <time>2023-07-23T11:48:24Z</time>
      </trkpt>
      <trkpt lat="48.44409" lon="7.33989">
        <ele>657.3</ele>
        <time>2023-07-23T11:48:25Z</time>
      </trkpt>
      <trkpt lat="48.44416" lon="7.34004">
        <ele>656.4</ele>
        <time>2023-07-23T11:48:26Z</time>
      </trkpt>
      <trkpt lat="48.44423" lon="7.34018">
        <ele>655.5</ele>
        <time>2023-07-23T11:48:27Z</time>
      </trkpt>
      <trkpt lat="48.44431" lon="7.34033">
        <ele>654.5</ele>
        <time>2023-07-23T11:48:28Z</time>
      </trkpt>
      <trkpt lat="48.44439" lon="7.34047">
        <ele>653.5</ele>
        <time>2023-07-23T11:48:29Z</time>
      </trkpt>
      <trkpt lat="48.44447" lon="7.3406">
        <ele>652.4</ele>
        <time>2023-07-23T11:48:30Z</time>
      </trkpt>
      <trkpt lat="48.44456" lon="7.34073">
        <ele>651.4</ele>
        <time>2023-07-23T11:48:31Z</time>
      </trkpt>
      <trkpt lat="48.44464" lon="7.34085">
        <ele>650.4</ele>
        <time>2023-07-23T11:48:32Z</time>
      </trkpt>
      <trkpt lat="48.44473" lon="7.34097">
        <ele>649.4</ele>
        <time>2023-07-23T11:48:33Z</time>
      </trkpt>
      <trkpt lat="48.44481" lon="7.3411">
        <ele>648.3</ele>
        <time>2023-07-23T11:48:34Z</time>
      </trkpt>
      <trkpt lat="48.44489" lon="7.34123">
        <ele>647.3</ele>
        <time>2023-07-23T11:48:35Z</time>
      </trkpt>
      <trkpt lat="48.44498" lon="7.34137">
        <ele>646.3</ele>
        <time>2023-07-23T11:48:36Z</time>
      </trkpt>
      <trkpt lat="48.44506" lon="7.3415">
        <ele>645.1</ele>
        <time>2023-07-23T11:48:37Z</time>
      </trkpt>
      <trkpt lat="48.44515" lon="7.34164">
        <ele>644</ele>
        <time>2023-07-23T11:48:38Z</time>
      </trkpt>
      <trkpt lat="48.44524" lon="7.34178">
        <ele>643</ele>
        <time>2023-07-23T11:48:39Z</time>
      </trkpt>
      <trkpt lat="48.44533" lon="7.34193">
        <ele>641.8</ele>
        <time>2023-07-23T11:48:41Z</time>
      </trkpt>
      <trkpt lat="48.44542" lon="7.34208">
        <ele>640.6</ele>
        <time>2023-07-23T11:48:42Z</time>
      </trkpt>
      <trkpt lat="48.4455" lon="7.34225">
        <ele>639.3</ele>
        <time>2023-07-23T11:48:43Z</time>
      </trkpt>
      <trkpt lat="48.44559" lon="7.34241">
        <ele>638</ele>
        <time>2023-07-23T11:48:44Z</time>
      </trkpt>
      <trkpt lat="48.44568" lon="7.34257">
        <ele>636.7</ele>
        <time>2023-07-23T11:48:45Z</time>
      </trkpt>
      <trkpt lat="48.44578" lon="7.34272">
        <ele>635.4</ele>
        <time>2023-07-23T11:48:46Z</time>
      </trkpt>
      <trkpt lat="48.44588" lon="7.34287">
        <ele>634.1</ele>
        <time>2023-07-23T11:48:47Z</time>
      </trkpt>
      <trkpt lat="48.44596" lon="7.34302">
        <ele>633</ele>
        <time>2023-07-23T11:48:48Z</time>
      </trkpt>
      <trkpt lat="48.44604" lon="7.34315">
        <ele>631.9</ele>
        <time>2023-07-23T11:48:49Z</time>
      </trkpt>
      <trkpt lat="48.44612" lon="7.34329">
        <ele>630.9</ele>
        <time>2023-07-23T11:48:50Z</time>
      </trkpt>
      <trkpt lat="48.44618" lon="7.34342">
        <ele>630.1</ele>
        <time>2023-07-23T11:48:51Z</time>
      </trkpt>
      <trkpt lat="48.44625" lon="7.34356">
        <ele>629.5</ele>
        <time>2023-07-23T11:48:52Z</time>
      </trkpt>
      <trkpt lat="48.44631" lon="7.34371">
        <ele>628.9</ele>
        <time>2023-07-23T11:48:53Z</time>
      </trkpt>
      <trkpt lat="48.44636" lon="7.34387">
        <ele>628.3</ele>
        <time>2023-07-23T11:48:54Z</time>
      </trkpt>
      <trkpt lat="48.4464" lon="7.34404">
        <ele>627.6</ele>
        <time>2023-07-23T11:48:55Z</time>
      </trkpt>
      <trkpt lat="48.44644" lon="7.34421">
        <ele>626.9</ele>
        <time>2023-07-23T11:48:56Z</time>
      </trkpt>
      <trkpt lat="48.44648" lon="7.34437">
        <ele>626.2</ele>
        <time>2023-07-23T11:48:57Z</time>
      </trkpt>
      <trkpt lat="48.44652" lon="7.34454">
        <ele>625.5</ele>
        <time>2023-07-23T11:48:58Z</time>
      </trkpt>
      <trkpt lat="48.44657" lon="7.34471">
        <ele>624.7</ele>
        <time>2023-07-23T11:48:59Z</time>
      </trkpt>
      <trkpt lat="48.44662" lon="7.34488">
        <ele>624</ele>
        <time>2023-07-23T11:49:00Z</time>
      </trkpt>
      <trkpt lat="48.44666" lon="7.34506">
        <ele>623.3</ele>
        <time>2023-07-23T11:49:01Z</time>
      </trkpt>
      <trkpt lat="48.44673" lon="7.34522">
        <ele>622.6</ele>
        <time>2023-07-23T11:49:02Z</time>
      </trkpt>
      <trkpt lat="48.44679" lon="7.34538">
        <ele>621.8</ele>
        <time>2023-07-23T11:49:03Z</time>
      </trkpt>
      <trkpt lat="48.44687" lon="7.34553">
        <ele>620.9</ele>
        <time>2023-07-23T11:49:04Z</time>
      </trkpt>
      <trkpt lat="48.44696" lon="7.34567">
        <ele>620</ele>
        <time>2023-07-23T11:49:05Z</time>
      </trkpt>
      <trkpt lat="48.44706" lon="7.3458">
        <ele>619</ele>
        <time>2023-07-23T11:49:06Z</time>
      </trkpt>
      <trkpt lat="48.44716" lon="7.34594">
        <ele>618.1</ele>
        <time>2023-07-23T11:49:07Z</time>
      </trkpt>
      <trkpt lat="48.44725" lon="7.34608">
        <ele>617.2</ele>
        <time>2023-07-23T11:49:08Z</time>
      </trkpt>
      <trkpt lat="48.44735" lon="7.34622">
        <ele>616.4</ele>
        <time>2023-07-23T11:49:09Z</time>
      </trkpt>
      <trkpt lat="48.44744" lon="7.34636">
        <ele>615.7</ele>
        <time>2023-07-23T11:49:10Z</time>
      </trkpt>
      <trkpt lat="48.44754" lon="7.34651">
        <ele>615</ele>
        <time>2023-07-23T11:49:11Z</time>
      </trkpt>
      <trkpt lat="48.44763" lon="7.34664">
        <ele>614.4</ele>
        <time>2023-07-23T11:49:12Z</time>
      </trkpt>
      <trkpt lat="48.4477" lon="7.34676">
        <ele>613.8</ele>
        <time>2023-07-23T11:49:13Z</time>
      </trkpt>
      <trkpt lat="48.44777" lon="7.34688">
        <ele>613.2</ele>
        <time>2023-07-23T11:49:14Z</time>
      </trkpt>
      <trkpt lat="48.44786" lon="7.34696">
        <ele>612.6</ele>
        <time>2023-07-23T11:49:15Z</time>
      </trkpt>
      <trkpt lat="48.44796" lon="7.34703">
        <ele>611.9</ele>
        <time>2023-07-23T11:49:16Z</time>
      </trkpt>
      <trkpt lat="48.44806" lon="7.34708">
        <ele>611.1</ele>
        <time>2023-07-23T11:49:17Z</time>
      </trkpt>
      <trkpt lat="48.44818" lon="7.3471">
        <ele>610.2</ele>
        <time>2023-07-23T11:49:18Z</time>
      </trkpt>
      <trkpt lat="48.4483" lon="7.34708">
        <ele>609.3</ele>
        <time>2023-07-23T11:49:19Z</time>
      </trkpt>
      <trkpt lat="48.44841" lon="7.34702">
        <ele>608.4</ele>
        <time>2023-07-23T11:49:20Z</time>
      </trkpt>
      <trkpt lat="48.44853" lon="7.34694">
        <ele>607.5</ele>
        <time>2023-07-23T11:49:21Z</time>
      </trkpt>
      <trkpt lat="48.44865" lon="7.34685">
        <ele>606.4</ele>
        <time>2023-07-23T11:49:22Z</time>
      </trkpt>
      <trkpt lat="48.44876" lon="7.34676">
        <ele>605.4</ele>
        <time>2023-07-23T11:49:23Z</time>
      </trkpt>
      <trkpt lat="48.44888" lon="7.34667">
        <ele>604.4</ele>
        <time>2023-07-23T11:49:24Z</time>
      </trkpt>
      <trkpt lat="48.44899" lon="7.34654">
        <ele>603.4</ele>
        <time>2023-07-23T11:49:25Z</time>
      </trkpt>
      <trkpt lat="48.44909" lon="7.34641">
        <ele>602.4</ele>
        <time>2023-07-23T11:49:26Z</time>
      </trkpt>
      <trkpt lat="48.44918" lon="7.34627">
        <ele>601.6</ele>
        <time>2023-07-23T11:49:27Z</time>
      </trkpt>
      <trkpt lat="48.44927" lon="7.34611">
        <ele>601</ele>
        <time>2023-07-23T11:49:28Z</time>
      </trkpt>
      <trkpt lat="48.44934" lon="7.34593">
        <ele>600.4</ele>
        <time>2023-07-23T11:49:29Z</time>
      </trkpt>
      <trkpt lat="48.4494" lon="7.34575">
        <ele>599.8</ele>
        <time>2023-07-23T11:49:30Z</time>
      </trkpt>
      <trkpt lat="48.44946" lon="7.34557">
        <ele>599.3</ele>
        <time>2023-07-23T11:49:31Z</time>
      </trkpt>
      <trkpt lat="48.44952" lon="7.3454">
        <ele>598.7</ele>
        <time>2023-07-23T11:49:32Z</time>
      </trkpt>
      <trkpt lat="48.44957" lon="7.34522">
        <ele>598</ele>
        <time>2023-07-23T11:49:33Z</time>
      </trkpt>
      <trkpt lat="48.44962" lon="7.34505">
        <ele>597.4</ele>
        <time>2023-07-23T11:49:34Z</time>
      </trkpt>
      <trkpt lat="48.44969" lon="7.3449">
        <ele>596.8</ele>
        <time>2023-07-23T11:49:35Z</time>
      </trkpt>
      <trkpt lat="48.44977" lon="7.34479">
        <ele>596.2</ele>
        <time>2023-07-23T11:49:36Z</time>
      </trkpt>
      <trkpt lat="48.44986" lon="7.34471">
        <ele>595.5</ele>
        <time>2023-07-23T11:49:37Z</time>
      </trkpt>
      <trkpt lat="48.44997" lon="7.34466">
        <ele>594.7</ele>
        <time>2023-07-23T11:49:38Z</time>
      </trkpt>
      <trkpt lat="48.4501" lon="7.34465">
        <ele>593.7</ele>
        <time>2023-07-23T11:49:39Z</time>
      </trkpt>
      <trkpt lat="48.45023" lon="7.34467">
        <ele>592.6</ele>
        <time>2023-07-23T11:49:40Z</time>
      </trkpt>
      <trkpt lat="48.45035" lon="7.34471">
        <ele>591.6</ele>
        <time>2023-07-23T11:49:41Z</time>
      </trkpt>
      <trkpt lat="48.45048" lon="7.34478">
        <ele>590.5</ele>
        <time>2023-07-23T11:49:42Z</time>
      </trkpt>
      <trkpt lat="48.45059" lon="7.34487">
        <ele>589.5</ele>
        <time>2023-07-23T11:49:43Z</time>
      </trkpt>
      <trkpt lat="48.45067" lon="7.34496">
        <ele>588.6</ele>
        <time>2023-07-23T11:49:44Z</time>
      </trkpt>
      <trkpt lat="48.45074" lon="7.34511">
        <ele>587.5</ele>
        <time>2023-07-23T11:49:45Z</time>
      </trkpt>
      <trkpt lat="48.45078" lon="7.3453">
        <ele>586.3</ele>
        <time>2023-07-23T11:49:46Z</time>
      </trkpt>
      <trkpt lat="48.4508" lon="7.34545">
        <ele>585.3</ele>
        <time>2023-07-23T11:49:47Z</time>
      </trkpt>
      <trkpt lat="48.45081" lon="7.34559">
        <ele>584.4</ele>
        <time>2023-07-23T11:49:48Z</time>
      </trkpt>
      <trkpt lat="48.45084" lon="7.34577">
        <ele>583.2</ele>
        <time>2023-07-23T11:49:49Z</time>
      </trkpt>
      <trkpt lat="48.45087" lon="7.34595">
        <ele>582</ele>
        <time>2023-07-23T11:49:50Z</time>
      </trkpt>
      <trkpt lat="48.45092" lon="7.34614">
        <ele>580.6</ele>
        <time>2023-07-23T11:49:51Z</time>
      </trkpt>
      <trkpt lat="48.45097" lon="7.34633">
        <ele>579.3</ele>
        <time>2023-07-23T11:49:52Z</time>
      </trkpt>
      <trkpt lat="48.45103" lon="7.34652">
        <ele>578</ele>
        <time>2023-07-23T11:49:53Z</time>
      </trkpt>
      <trkpt lat="48.45109" lon="7.34671">
        <ele>576.7</ele>
        <time>2023-07-23T11:49:54Z</time>
      </trkpt>
      <trkpt lat="48.45114" lon="7.3469">
        <ele>575.3</ele>
        <time>2023-07-23T11:49:55Z</time>
      </trkpt>
      <trkpt lat="48.45118" lon="7.34707">
        <ele>574</ele>
        <time>2023-07-23T11:49:56Z</time>
      </trkpt>
      <trkpt lat="48.4512" lon="7.34726">
        <ele>572.7</ele>
        <time>2023-07-23T11:49:57Z</time>
      </trkpt>
      <trkpt lat="48.4512" lon="7.34746">
        <ele>571.3</ele>
        <time>2023-07-23T11:49:58Z</time>
      </trkpt>
      <trkpt lat="48.45119" lon="7.34766">
        <ele>570</ele>
        <time>2023-07-23T11:49:59Z</time>
      </trkpt>
      <trkpt lat="48.45119" lon="7.34785">
        <ele>568.8</ele>
        <time>2023-07-23T11:50:00Z</time>
      </trkpt>
      <trkpt lat="48.45122" lon="7.34802">
        <ele>567.6</ele>
        <time>2023-07-23T11:50:01Z</time>
      </trkpt>
      <trkpt lat="48.45127" lon="7.34819">
        <ele>566.4</ele>
        <time>2023-07-23T11:50:02Z</time>
      </trkpt>
      <trkpt lat="48.45134" lon="7.34837">
        <ele>565.2</ele>
        <time>2023-07-23T11:50:03Z</time>
      </trkpt>
      <trkpt lat="48.45141" lon="7.34853">
        <ele>563.9</ele>
        <time>2023-07-23T11:50:04Z</time>
      </trkpt>
      <trkpt lat="48.45149" lon="7.34866">
        <ele>562.7</ele>
        <time>2023-07-23T11:50:05Z</time>
      </trkpt>
      <trkpt lat="48.45156" lon="7.34878">
        <ele>561.6</ele>
        <time>2023-07-23T11:50:06Z</time>
      </trkpt>
      <trkpt lat="48.45162" lon="7.34892">
        <ele>560.4</ele>
        <time>2023-07-23T11:50:07Z</time>
      </trkpt>
      <trkpt lat="48.45166" lon="7.34908">
        <ele>559.2</ele>
        <time>2023-07-23T11:50:08Z</time>
      </trkpt>
      <trkpt lat="48.45168" lon="7.34925">
        <ele>558</ele>
        <time>2023-07-23T11:50:09Z</time>
      </trkpt>
      <trkpt lat="48.45169" lon="7.34944">
        <ele>556.7</ele>
        <time>2023-07-23T11:50:10Z</time>
      </trkpt>
      <trkpt lat="48.45172" lon="7.34963">
        <ele>555.4</ele>
        <time>2023-07-23T11:50:11Z</time>
      </trkpt>
      <trkpt lat="48.45174" lon="7.34982">
        <ele>554</ele>
        <time>2023-07-23T11:50:12Z</time>
      </trkpt>
      <trkpt lat="48.45176" lon="7.35002">
        <ele>552.6</ele>
        <time>2023-07-23T11:50:13Z</time>
      </trkpt>
      <trkpt lat="48.45179" lon="7.35022">
        <ele>551.2</ele>
        <time>2023-07-23T11:50:14Z</time>
      </trkpt>
      <trkpt lat="48.45187" lon="7.35058">
        <ele>548.6</ele>
        <time>2023-07-23T11:50:15Z</time>
      </trkpt>
      <trkpt lat="48.45193" lon="7.35075">
        <ele>547.3</ele>
        <time>2023-07-23T11:50:16Z</time>
      </trkpt>
      <trkpt lat="48.452" lon="7.3509">
        <ele>546.2</ele>
        <time>2023-07-23T11:50:17Z</time>
      </trkpt>
      <trkpt lat="48.45207" lon="7.35104">
        <ele>545.1</ele>
        <time>2023-07-23T11:50:18Z</time>
      </trkpt>
      <trkpt lat="48.45212" lon="7.35119">
        <ele>544.1</ele>
        <time>2023-07-23T11:50:19Z</time>
      </trkpt>
      <trkpt lat="48.45216" lon="7.35136">
        <ele>543</ele>
        <time>2023-07-23T11:50:20Z</time>
      </trkpt>
      <trkpt lat="48.45218" lon="7.35154">
        <ele>541.8</ele>
        <time>2023-07-23T11:50:21Z</time>
      </trkpt>
      <trkpt lat="48.4522" lon="7.3517">
        <ele>540.8</ele>
        <time>2023-07-23T11:50:22Z</time>
      </trkpt>
      <trkpt lat="48.45225" lon="7.35184">
        <ele>540</ele>
        <time>2023-07-23T11:50:23Z</time>
      </trkpt>
      <trkpt lat="48.4523" lon="7.35196">
        <ele>539.2</ele>
        <time>2023-07-23T11:50:24Z</time>
      </trkpt>
      <trkpt lat="48.45235" lon="7.35207">
        <ele>538.7</ele>
        <time>2023-07-23T11:50:25Z</time>
      </trkpt>
      <trkpt lat="48.45237" lon="7.35216">
        <ele>538.2</ele>
        <time>2023-07-23T11:50:26Z</time>
      </trkpt>
      <trkpt lat="48.45237" lon="7.35227">
        <ele>537.7</ele>
        <time>2023-07-23T11:50:27Z</time>
      </trkpt>
      <trkpt lat="48.45234" lon="7.35236">
        <ele>537.2</ele>
        <time>2023-07-23T11:50:28Z</time>
      </trkpt>
      <trkpt lat="48.45229" lon="7.35243">
        <ele>536.8</ele>
        <time>2023-07-23T11:50:29Z</time>
      </trkpt>
      <trkpt lat="48.45221" lon="7.35245">
        <ele>535.9</ele>
        <time>2023-07-23T11:50:30Z</time>
      </trkpt>
      <trkpt lat="48.45213" lon="7.35243">
        <ele>535.1</ele>
        <time>2023-07-23T11:50:31Z</time>
      </trkpt>
      <trkpt lat="48.45206" lon="7.35236">
        <ele>534.1</ele>
        <time>2023-07-23T11:50:32Z</time>
      </trkpt>
      <trkpt lat="48.452" lon="7.35226">
        <ele>533.1</ele>
        <time>2023-07-23T11:50:33Z</time>
      </trkpt>
      <trkpt lat="48.45196" lon="7.35212">
        <ele>531.9</ele>
        <time>2023-07-23T11:50:34Z</time>
      </trkpt>
      <trkpt lat="48.45193" lon="7.35198">
        <ele>530.9</ele>
        <time>2023-07-23T11:50:35Z</time>
      </trkpt>
      <trkpt lat="48.45188" lon="7.35187">
        <ele>529.9</ele>
        <time>2023-07-23T11:50:36Z</time>
      </trkpt>
      <trkpt lat="48.45181" lon="7.35175">
        <ele>528.8</ele>
        <time>2023-07-23T11:50:37Z</time>
      </trkpt>
      <trkpt lat="48.45173" lon="7.35165">
        <ele>527.6</ele>
        <time>2023-07-23T11:50:38Z</time>
      </trkpt>
      <trkpt lat="48.45163" lon="7.35158">
        <ele>526.5</ele>
        <time>2023-07-23T11:50:39Z</time>
      </trkpt>
      <trkpt lat="48.45151" lon="7.35154">
        <ele>525.3</ele>
        <time>2023-07-23T11:50:40Z</time>
      </trkpt>
      <trkpt lat="48.4514" lon="7.3515">
        <ele>524.2</ele>
        <time>2023-07-23T11:50:41Z</time>
      </trkpt>
      <trkpt lat="48.45129" lon="7.35145">
        <ele>523</ele>
        <time>2023-07-23T11:50:42Z</time>
      </trkpt>
      <trkpt lat="48.45117" lon="7.3514">
        <ele>522</ele>
        <time>2023-07-23T11:50:43Z</time>
      </trkpt>
      <trkpt lat="48.45107" lon="7.35135">
        <ele>521.1</ele>
        <time>2023-07-23T11:50:44Z</time>
      </trkpt>
      <trkpt lat="48.45097" lon="7.3513">
        <ele>520.4</ele>
        <time>2023-07-23T11:50:45Z</time>
      </trkpt>
      <trkpt lat="48.45089" lon="7.35122">
        <ele>519.8</ele>
        <time>2023-07-23T11:50:47Z</time>
      </trkpt>
      <trkpt lat="48.45081" lon="7.3511">
        <ele>519.2</ele>
        <time>2023-07-23T11:50:48Z</time>
      </trkpt>
      <trkpt lat="48.45075" lon="7.35096">
        <ele>518.6</ele>
        <time>2023-07-23T11:50:49Z</time>
      </trkpt>
      <trkpt lat="48.4507" lon="7.35083">
        <ele>518.1</ele>
        <time>2023-07-23T11:50:50Z</time>
      </trkpt>
      <trkpt lat="48.45064" lon="7.35075">
        <ele>517.6</ele>
        <time>2023-07-23T11:50:51Z</time>
      </trkpt>
      <trkpt lat="48.45058" lon="7.3507">
        <ele>517.2</ele>
        <time>2023-07-23T11:50:52Z</time>
      </trkpt>
      <trkpt lat="48.4505" lon="7.3507">
        <ele>516.6</ele>
        <time>2023-07-23T11:50:53Z</time>
      </trkpt>
      <trkpt lat="48.45043" lon="7.35075">
        <ele>515.9</ele>
        <time>2023-07-23T11:50:54Z</time>
      </trkpt>
      <trkpt lat="48.45037" lon="7.35084">
        <ele>514.9</ele>
        <time>2023-07-23T11:50:55Z</time>
      </trkpt>
      <trkpt lat="48.45035" lon="7.35095">
        <ele>513.9</ele>
        <time>2023-07-23T11:50:56Z</time>
      </trkpt>
      <trkpt lat="48.45034" lon="7.35107">
        <ele>512.9</ele>
        <time>2023-07-23T11:50:57Z</time>
      </trkpt>
      <trkpt lat="48.45036" lon="7.3512">
        <ele>511.7</ele>
        <time>2023-07-23T11:50:58Z</time>
      </trkpt>
      <trkpt lat="48.4504" lon="7.35132">
        <ele>510.6</ele>
        <time>2023-07-23T11:50:59Z</time>
      </trkpt>
      <trkpt lat="48.45044" lon="7.35145">
        <ele>509.5</ele>
        <time>2023-07-23T11:51:00Z</time>
      </trkpt>
      <trkpt lat="48.45048" lon="7.35158">
        <ele>508.4</ele>
        <time>2023-07-23T11:51:01Z</time>
      </trkpt>
      <trkpt lat="48.45052" lon="7.35173">
        <ele>507.2</ele>
        <time>2023-07-23T11:51:02Z</time>
      </trkpt>
      <trkpt lat="48.45057" lon="7.35189">
        <ele>506</ele>
        <time>2023-07-23T11:51:03Z</time>
      </trkpt>
      <trkpt lat="48.4506" lon="7.35206">
        <ele>504.8</ele>
        <time>2023-07-23T11:51:04Z</time>
      </trkpt>
      <trkpt lat="48.45064" lon="7.35224">
        <ele>503.4</ele>
        <time>2023-07-23T11:51:05Z</time>
      </trkpt>
      <trkpt lat="48.45067" lon="7.35243">
        <ele>502</ele>
        <time>2023-07-23T11:51:06Z</time>
      </trkpt>
      <trkpt lat="48.4507" lon="7.35262">
        <ele>500.6</ele>
        <time>2023-07-23T11:51:07Z</time>
      </trkpt>
      <trkpt lat="48.45073" lon="7.35283">
        <ele>499.1</ele>
        <time>2023-07-23T11:51:08Z</time>
      </trkpt>
      <trkpt lat="48.45075" lon="7.35304">
        <ele>497.7</ele>
        <time>2023-07-23T11:51:09Z</time>
      </trkpt>
      <trkpt lat="48.45077" lon="7.35326">
        <ele>496.1</ele>
        <time>2023-07-23T11:51:10Z</time>
      </trkpt>
      <trkpt lat="48.45079" lon="7.35348">
        <ele>494.6</ele>
        <time>2023-07-23T11:51:11Z</time>
      </trkpt>
      <trkpt lat="48.45081" lon="7.35369">
        <ele>493.1</ele>
        <time>2023-07-23T11:51:12Z</time>
      </trkpt>
      <trkpt lat="48.45084" lon="7.35389">
        <ele>491.7</ele>
        <time>2023-07-23T11:51:13Z</time>
      </trkpt>
      <trkpt lat="48.45089" lon="7.35409">
        <ele>490.1</ele>
        <time>2023-07-23T11:51:14Z</time>
      </trkpt>
      <trkpt lat="48.45096" lon="7.35427">
        <ele>488.6</ele>
        <time>2023-07-23T11:51:15Z</time>
      </trkpt>
      <trkpt lat="48.45105" lon="7.35443">
        <ele>487.1</ele>
        <time>2023-07-23T11:51:16Z</time>
      </trkpt>
      <trkpt lat="48.45114" lon="7.35457">
        <ele>485.5</ele>
        <time>2023-07-23T11:51:17Z</time>
      </trkpt>
      <trkpt lat="48.45125" lon="7.3547">
        <ele>483.9</ele>
        <time>2023-07-23T11:51:18Z</time>
      </trkpt>
      <trkpt lat="48.45136" lon="7.35481">
        <ele>482.7</ele>
        <time>2023-07-23T11:51:19Z</time>
      </trkpt>
      <trkpt lat="48.45146" lon="7.35492">
        <ele>481.6</ele>
        <time>2023-07-23T11:51:20Z</time>
      </trkpt>
      <trkpt lat="48.45156" lon="7.35502">
        <ele>480.6</ele>
        <time>2023-07-23T11:51:21Z</time>
      </trkpt>
      <trkpt lat="48.45164" lon="7.35512">
        <ele>479.6</ele>
        <time>2023-07-23T11:51:22Z</time>
      </trkpt>
      <trkpt lat="48.45171" lon="7.35522">
        <ele>478.6</ele>
        <time>2023-07-23T11:51:23Z</time>
      </trkpt>
      <trkpt lat="48.45177" lon="7.35536">
        <ele>477.6</ele>
        <time>2023-07-23T11:51:24Z</time>
      </trkpt>
      <trkpt lat="48.45182" lon="7.35552">
        <ele>476.4</ele>
        <time>2023-07-23T11:51:25Z</time>
      </trkpt>
      <trkpt lat="48.45184" lon="7.3557">
        <ele>475</ele>
        <time>2023-07-23T11:51:26Z</time>
      </trkpt>
      <trkpt lat="48.45183" lon="7.35589">
        <ele>473.4</ele>
        <time>2023-07-23T11:51:27Z</time>
      </trkpt>
      <trkpt lat="48.45183" lon="7.35608">
        <ele>471.8</ele>
        <time>2023-07-23T11:51:28Z</time>
      </trkpt>
      <trkpt lat="48.45183" lon="7.35628">
        <ele>470.3</ele>
        <time>2023-07-23T11:51:29Z</time>
      </trkpt>
      <trkpt lat="48.45183" lon="7.35649">
        <ele>468.7</ele>
        <time>2023-07-23T11:51:30Z</time>
      </trkpt>
      <trkpt lat="48.45183" lon="7.35671">
        <ele>466.9</ele>
        <time>2023-07-23T11:51:31Z</time>
      </trkpt>
      <trkpt lat="48.45184" lon="7.35693">
        <ele>465.1</ele>
        <time>2023-07-23T11:51:32Z</time>
      </trkpt>
      <trkpt lat="48.45186" lon="7.35715">
        <ele>463.5</ele>
        <time>2023-07-23T11:51:33Z</time>
      </trkpt>
      <trkpt lat="48.45191" lon="7.35736">
        <ele>461.9</ele>
        <time>2023-07-23T11:51:34Z</time>
      </trkpt>
      <trkpt lat="48.45196" lon="7.35758">
        <ele>460.1</ele>
        <time>2023-07-23T11:51:35Z</time>
      </trkpt>
      <trkpt lat="48.45201" lon="7.3578">
        <ele>458.2</ele>
        <time>2023-07-23T11:51:36Z</time>
      </trkpt>
      <trkpt lat="48.45203" lon="7.35804">
        <ele>456.3</ele>
        <time>2023-07-23T11:51:37Z</time>
      </trkpt>
      <trkpt lat="48.45205" lon="7.35828">
        <ele>454.5</ele>
        <time>2023-07-23T11:51:38Z</time>
      </trkpt>
      <trkpt lat="48.45207" lon="7.35853">
        <ele>452.6</ele>
        <time>2023-07-23T11:51:39Z</time>
      </trkpt>
      <trkpt lat="48.45208" lon="7.35878">
        <ele>450.7</ele>
        <time>2023-07-23T11:51:40Z</time>
      </trkpt>
      <trkpt lat="48.45208" lon="7.35904">
        <ele>449</ele>
        <time>2023-07-23T11:51:41Z</time>
      </trkpt>
      <trkpt lat="48.45209" lon="7.35929">
        <ele>447.5</ele>
        <time>2023-07-23T11:51:42Z</time>
      </trkpt>
      <trkpt lat="48.45211" lon="7.35954">
        <ele>446</ele>
        <time>2023-07-23T11:51:43Z</time>
      </trkpt>
      <trkpt lat="48.45213" lon="7.35979">
        <ele>444.7</ele>
        <time>2023-07-23T11:51:44Z</time>
      </trkpt>
      <trkpt lat="48.45215" lon="7.36004">
        <ele>443.6</ele>
        <time>2023-07-23T11:51:45Z</time>
      </trkpt>
      <trkpt lat="48.45218" lon="7.36027">
        <ele>442.7</ele>
        <time>2023-07-23T11:51:46Z</time>
      </trkpt>
      <trkpt lat="48.45222" lon="7.36049">
        <ele>441.9</ele>
        <time>2023-07-23T11:51:47Z</time>
      </trkpt>
      <trkpt lat="48.45227" lon="7.36069">
        <ele>441.1</ele>
        <time>2023-07-23T11:51:48Z</time>
      </trkpt>
      <trkpt lat="48.45235" lon="7.36087">
        <ele>440.4</ele>
        <time>2023-07-23T11:51:49Z</time>
      </trkpt>
      <trkpt lat="48.45244" lon="7.36102">
        <ele>439.7</ele>
        <time>2023-07-23T11:51:50Z</time>
      </trkpt>
      <trkpt lat="48.45254" lon="7.36118">
        <ele>438.9</ele>
        <time>2023-07-23T11:51:51Z</time>
      </trkpt>
      <trkpt lat="48.45263" lon="7.36135">
        <ele>438.2</ele>
        <time>2023-07-23T11:51:52Z</time>
      </trkpt>
      <trkpt lat="48.4527" lon="7.36153">
        <ele>437.4</ele>
        <time>2023-07-23T11:51:53Z</time>
      </trkpt>
      <trkpt lat="48.45274" lon="7.36172">
        <ele>436.6</ele>
        <time>2023-07-23T11:51:54Z</time>
      </trkpt>
      <trkpt lat="48.45277" lon="7.36193">
        <ele>435.7</ele>
        <time>2023-07-23T11:51:55Z</time>
      </trkpt>
      <trkpt lat="48.45278" lon="7.36213">
        <ele>434.7</ele>
        <time>2023-07-23T11:51:56Z</time>
      </trkpt>
      <trkpt lat="48.45277" lon="7.36234">
        <ele>433.8</ele>
        <time>2023-07-23T11:51:57Z</time>
      </trkpt>
      <trkpt lat="48.45279" lon="7.36255">
        <ele>432.8</ele>
        <time>2023-07-23T11:51:58Z</time>
      </trkpt>
      <trkpt lat="48.45287" lon="7.36296">
        <ele>431</ele>
        <time>2023-07-23T11:51:59Z</time>
      </trkpt>
      <trkpt lat="48.45292" lon="7.36316">
        <ele>430</ele>
        <time>2023-07-23T11:52:00Z</time>
      </trkpt>
      <trkpt lat="48.45298" lon="7.36335">
        <ele>428.9</ele>
        <time>2023-07-23T11:52:01Z</time>
      </trkpt>
      <trkpt lat="48.45303" lon="7.36354">
        <ele>427.7</ele>
        <time>2023-07-23T11:52:02Z</time>
      </trkpt>
      <trkpt lat="48.45309" lon="7.36374">
        <ele>426.6</ele>
        <time>2023-07-23T11:52:03Z</time>
      </trkpt>
      <trkpt lat="48.45315" lon="7.36394">
        <ele>425.4</ele>
        <time>2023-07-23T11:52:04Z</time>
      </trkpt>
      <trkpt lat="48.4532" lon="7.36414">
        <ele>424.3</ele>
        <time>2023-07-23T11:52:05Z</time>
      </trkpt>
      <trkpt lat="48.45326" lon="7.36434">
        <ele>423.2</ele>
        <time>2023-07-23T11:52:06Z</time>
      </trkpt>
      <trkpt lat="48.45331" lon="7.36454">
        <ele>422.3</ele>
        <time>2023-07-23T11:52:07Z</time>
      </trkpt>
      <trkpt lat="48.45336" lon="7.36475">
        <ele>421.2</ele>
        <time>2023-07-23T11:52:08Z</time>
      </trkpt>
      <trkpt lat="48.45341" lon="7.36496">
        <ele>420.2</ele>
        <time>2023-07-23T11:52:09Z</time>
      </trkpt>
      <trkpt lat="48.45344" lon="7.36517">
        <ele>419.1</ele>
        <time>2023-07-23T11:52:10Z</time>
      </trkpt>
      <trkpt lat="48.45347" lon="7.36538">
        <ele>418</ele>
        <time>2023-07-23T11:52:11Z</time>
      </trkpt>
      <trkpt lat="48.45351" lon="7.36559">
        <ele>416.8</ele>
        <time>2023-07-23T11:52:12Z</time>
      </trkpt>
      <trkpt lat="48.45356" lon="7.3658">
        <ele>415.8</ele>
        <time>2023-07-23T11:52:13Z</time>
      </trkpt>
      <trkpt lat="48.45362" lon="7.366">
        <ele>414.8</ele>
        <time>2023-07-23T11:52:14Z</time>
      </trkpt>
      <trkpt lat="48.45369" lon="7.36619">
        <ele>413.9</ele>
        <time>2023-07-23T11:52:15Z</time>
      </trkpt>
      <trkpt lat="48.45376" lon="7.36639">
        <ele>413</ele>
        <time>2023-07-23T11:52:16Z</time>
      </trkpt>
      <trkpt lat="48.45382" lon="7.36658">
        <ele>412</ele>
        <time>2023-07-23T11:52:17Z</time>
      </trkpt>
      <trkpt lat="48.45388" lon="7.36677">
        <ele>411.1</ele>
        <time>2023-07-23T11:52:18Z</time>
      </trkpt>
      <trkpt lat="48.45394" lon="7.36697">
        <ele>410.3</ele>
        <time>2023-07-23T11:52:19Z</time>
      </trkpt>
      <trkpt lat="48.45402" lon="7.36715">
        <ele>409.4</ele>
        <time>2023-07-23T11:52:20Z</time>
      </trkpt>
      <trkpt lat="48.4541" lon="7.36732">
        <ele>408.6</ele>
        <time>2023-07-23T11:52:21Z</time>
      </trkpt>
      <trkpt lat="48.45418" lon="7.3675">
        <ele>407.9</ele>
        <time>2023-07-23T11:52:22Z</time>
      </trkpt>
      <trkpt lat="48.45427" lon="7.36767">
        <ele>407.2</ele>
        <time>2023-07-23T11:52:23Z</time>
      </trkpt>
      <trkpt lat="48.45434" lon="7.36784">
        <ele>406.5</ele>
        <time>2023-07-23T11:52:24Z</time>
      </trkpt>
      <trkpt lat="48.45442" lon="7.368">
        <ele>406</ele>
        <time>2023-07-23T11:52:25Z</time>
      </trkpt>
      <trkpt lat="48.45448" lon="7.36816">
        <ele>405.4</ele>
        <time>2023-07-23T11:52:26Z</time>
      </trkpt>
      <trkpt lat="48.45457" lon="7.36828">
        <ele>404.9</ele>
        <time>2023-07-23T11:52:27Z</time>
      </trkpt>
      <trkpt lat="48.45466" lon="7.36838">
        <ele>404.4</ele>
        <time>2023-07-23T11:52:28Z</time>
      </trkpt>
      <trkpt lat="48.45476" lon="7.36846">
        <ele>403.8</ele>
        <time>2023-07-23T11:52:29Z</time>
      </trkpt>
      <trkpt lat="48.45488" lon="7.36853">
        <ele>403.2</ele>
        <time>2023-07-23T11:52:30Z</time>
      </trkpt>
      <trkpt lat="48.45498" lon="7.36863">
        <ele>402.7</ele>
        <time>2023-07-23T11:52:31Z</time>
      </trkpt>
      <trkpt lat="48.45508" lon="7.36874">
        <ele>402.3</ele>
        <time>2023-07-23T11:52:32Z</time>
      </trkpt>
      <trkpt lat="48.45518" lon="7.36885">
        <ele>401.9</ele>
        <time>2023-07-23T11:52:33Z</time>
      </trkpt>
      <trkpt lat="48.45526" lon="7.36897">
        <ele>401.4</ele>
        <time>2023-07-23T11:52:34Z</time>
      </trkpt>
      <trkpt lat="48.45534" lon="7.3691">
        <ele>400.9</ele>
        <time>2023-07-23T11:52:35Z</time>
      </trkpt>
      <trkpt lat="48.45541" lon="7.36924">
        <ele>400.4</ele>
        <time>2023-07-23T11:52:36Z</time>
      </trkpt>
      <trkpt lat="48.45546" lon="7.36939">
        <ele>399.9</ele>
        <time>2023-07-23T11:52:37Z</time>
      </trkpt>
      <trkpt lat="48.45551" lon="7.36955">
        <ele>399.4</ele>
        <time>2023-07-23T11:52:38Z</time>
      </trkpt>
      <trkpt lat="48.45555" lon="7.36971">
        <ele>398.8</ele>
        <time>2023-07-23T11:52:39Z</time>
      </trkpt>
      <trkpt lat="48.45559" lon="7.36987">
        <ele>398.2</ele>
        <time>2023-07-23T11:52:40Z</time>
      </trkpt>
      <trkpt lat="48.45564" lon="7.37003">
        <ele>397.5</ele>
        <time>2023-07-23T11:52:41Z</time>
      </trkpt>
      <trkpt lat="48.45568" lon="7.3702">
        <ele>396.8</ele>
        <time>2023-07-23T11:52:42Z</time>
      </trkpt>
      <trkpt lat="48.45572" lon="7.37036">
        <ele>396.1</ele>
        <time>2023-07-23T11:52:43Z</time>
      </trkpt>
      <trkpt lat="48.45576" lon="7.37053">
        <ele>395.4</ele>
        <time>2023-07-23T11:52:44Z</time>
      </trkpt>
      <trkpt lat="48.4558" lon="7.3707">
        <ele>394.7</ele>
        <time>2023-07-23T11:52:45Z</time>
      </trkpt>
      <trkpt lat="48.45584" lon="7.37087">
        <ele>394</ele>
        <time>2023-07-23T11:52:46Z</time>
      </trkpt>
      <trkpt lat="48.45589" lon="7.37103">
        <ele>393.3</ele>
        <time>2023-07-23T11:52:47Z</time>
      </trkpt>
      <trkpt lat="48.45594" lon="7.37119">
        <ele>392.6</ele>
        <time>2023-07-23T11:52:48Z</time>
      </trkpt>
      <trkpt lat="48.45599" lon="7.37136">
        <ele>391.9</ele>
        <time>2023-07-23T11:52:49Z</time>
      </trkpt>
      <trkpt lat="48.45603" lon="7.37153">
        <ele>391.2</ele>
        <time>2023-07-23T11:52:50Z</time>
      </trkpt>
      <trkpt lat="48.45606" lon="7.37171">
        <ele>390.5</ele>
        <time>2023-07-23T11:52:51Z</time>
      </trkpt>
      <trkpt lat="48.45609" lon="7.37189">
        <ele>389.9</ele>
        <time>2023-07-23T11:52:53Z</time>
      </trkpt>
      <trkpt lat="48.4561" lon="7.37208">
        <ele>389.3</ele>
        <time>2023-07-23T11:52:54Z</time>
      </trkpt>
      <trkpt lat="48.45611" lon="7.37226">
        <ele>388.7</ele>
        <time>2023-07-23T11:52:55Z</time>
      </trkpt>
      <trkpt lat="48.45612" lon="7.37244">
        <ele>388.1</ele>
        <time>2023-07-23T11:52:56Z</time>
      </trkpt>
      <trkpt lat="48.45614" lon="7.37262">
        <ele>387.4</ele>
        <time>2023-07-23T11:52:57Z</time>
      </trkpt>
      <trkpt lat="48.45617" lon="7.3728">
        <ele>386.7</ele>
        <time>2023-07-23T11:52:58Z</time>
      </trkpt>
      <trkpt lat="48.45622" lon="7.37296">
        <ele>385.9</ele>
        <time>2023-07-23T11:52:59Z</time>
      </trkpt>
      <trkpt lat="48.45628" lon="7.37311">
        <ele>385.2</ele>
        <time>2023-07-23T11:53:00Z</time>
      </trkpt>
      <trkpt lat="48.45635" lon="7.37326">
        <ele>384.4</ele>
        <time>2023-07-23T11:53:01Z</time>
      </trkpt>
      <trkpt lat="48.45643" lon="7.37339">
        <ele>383.7</ele>
        <time>2023-07-23T11:53:02Z</time>
      </trkpt>
      <trkpt lat="48.45652" lon="7.37352">
        <ele>382.9</ele>
        <time>2023-07-23T11:53:03Z</time>
      </trkpt>
      <trkpt lat="48.4566" lon="7.37365">
        <ele>382.1</ele>
        <time>2023-07-23T11:53:04Z</time>
      </trkpt>
      <trkpt lat="48.45668" lon="7.37379">
        <ele>381.3</ele>
        <time>2023-07-23T11:53:05Z</time>
      </trkpt>
      <trkpt lat="48.45676" lon="7.37394">
        <ele>380.6</ele>
        <time>2023-07-23T11:53:06Z</time>
      </trkpt>
      <trkpt lat="48.45684" lon="7.37409">
        <ele>379.9</ele>
        <time>2023-07-23T11:53:07Z</time>
      </trkpt>
      <trkpt lat="48.45691" lon="7.37424">
        <ele>379.1</ele>
        <time>2023-07-23T11:53:08Z</time>
      </trkpt>
      <trkpt lat="48.45697" lon="7.37441">
        <ele>378.4</ele>
        <time>2023-07-23T11:53:09Z</time>
      </trkpt>
      <trkpt lat="48.45702" lon="7.37458">
        <ele>377.8</ele>
        <time>2023-07-23T11:53:10Z</time>
      </trkpt>
      <trkpt lat="48.45707" lon="7.37475">
        <ele>377.2</ele>
        <time>2023-07-23T11:53:11Z</time>
      </trkpt>
      <trkpt lat="48.45712" lon="7.37492">
        <ele>376.7</ele>
        <time>2023-07-23T11:53:12Z</time>
      </trkpt>
      <trkpt lat="48.45716" lon="7.3751">
        <ele>376.1</ele>
        <time>2023-07-23T11:53:13Z</time>
      </trkpt>
      <trkpt lat="48.45721" lon="7.37527">
        <ele>375.5</ele>
        <time>2023-07-23T11:53:14Z</time>
      </trkpt>
      <trkpt lat="48.45725" lon="7.37544">
        <ele>375</ele>
        <time>2023-07-23T11:53:15Z</time>
      </trkpt>
      <trkpt lat="48.45729" lon="7.37562">
        <ele>374.4</ele>
        <time>2023-07-23T11:53:16Z</time>
      </trkpt>
      <trkpt lat="48.45733" lon="7.37579">
        <ele>373.9</ele>
        <time>2023-07-23T11:53:17Z</time>
      </trkpt>
      <trkpt lat="48.45737" lon="7.37596">
        <ele>373.4</ele>
        <time>2023-07-23T11:53:18Z</time>
      </trkpt>
      <trkpt lat="48.4574" lon="7.37613">
        <ele>372.9</ele>
        <time>2023-07-23T11:53:19Z</time>
      </trkpt>
      <trkpt lat="48.45744" lon="7.3763">
        <ele>372.5</ele>
        <time>2023-07-23T11:53:20Z</time>
      </trkpt>
      <trkpt lat="48.45747" lon="7.37647">
        <ele>372.1</ele>
        <time>2023-07-23T11:53:21Z</time>
      </trkpt>
      <trkpt lat="48.45749" lon="7.37664">
        <ele>371.5</ele>
        <time>2023-07-23T11:53:22Z</time>
      </trkpt>
      <trkpt lat="48.45751" lon="7.37682">
        <ele>371</ele>
        <time>2023-07-23T11:53:23Z</time>
      </trkpt>
      <trkpt lat="48.45753" lon="7.37699">
        <ele>370.4</ele>
        <time>2023-07-23T11:53:24Z</time>
      </trkpt>
      <trkpt lat="48.45755" lon="7.37716">
        <ele>369.9</ele>
        <time>2023-07-23T11:53:25Z</time>
      </trkpt>
      <trkpt lat="48.45758" lon="7.37733">
        <ele>369.3</ele>
        <time>2023-07-23T11:53:26Z</time>
      </trkpt>
      <trkpt lat="48.45763" lon="7.3775">
        <ele>368.7</ele>
        <time>2023-07-23T11:53:27Z</time>
      </trkpt>
      <trkpt lat="48.45769" lon="7.37765">
        <ele>368</ele>
        <time>2023-07-23T11:53:28Z</time>
      </trkpt>
      <trkpt lat="48.45777" lon="7.37779">
        <ele>367.4</ele>
        <time>2023-07-23T11:53:29Z</time>
      </trkpt>
      <trkpt lat="48.45786" lon="7.37791">
        <ele>366.8</ele>
        <time>2023-07-23T11:53:30Z</time>
      </trkpt>
      <trkpt lat="48.45796" lon="7.37802">
        <ele>366.3</ele>
        <time>2023-07-23T11:53:31Z</time>
      </trkpt>
      <trkpt lat="48.45806" lon="7.37813">
        <ele>365.9</ele>
        <time>2023-07-23T11:53:32Z</time>
      </trkpt>
      <trkpt lat="48.45816" lon="7.37824">
        <ele>365.6</ele>
        <time>2023-07-23T11:53:33Z</time>
      </trkpt>
      <trkpt lat="48.45825" lon="7.37835">
        <ele>365.4</ele>
        <time>2023-07-23T11:53:34Z</time>
      </trkpt>
      <trkpt lat="48.45834" lon="7.37847">
        <ele>365.3</ele>
        <time>2023-07-23T11:53:35Z</time>
      </trkpt>
      <trkpt lat="48.45843" lon="7.37858">
        <ele>365.1</ele>
        <time>2023-07-23T11:53:36Z</time>
      </trkpt>
      <trkpt lat="48.45852" lon="7.37868">
        <ele>364.9</ele>
        <time>2023-07-23T11:53:37Z</time>
      </trkpt>
      <trkpt lat="48.45861" lon="7.37879">
        <ele>364.6</ele>
        <time>2023-07-23T11:53:38Z</time>
      </trkpt>
      <trkpt lat="48.45868" lon="7.3789">
        <ele>364.2</ele>
        <time>2023-07-23T11:53:39Z</time>
      </trkpt>
      <trkpt lat="48.45876" lon="7.37902">
        <ele>363.7</ele>
        <time>2023-07-23T11:53:40Z</time>
      </trkpt>
      <trkpt lat="48.45881" lon="7.37914">
        <ele>363.2</ele>
        <time>2023-07-23T11:53:41Z</time>
      </trkpt>
      <trkpt lat="48.45887" lon="7.37928">
        <ele>362.7</ele>
        <time>2023-07-23T11:53:42Z</time>
      </trkpt>
      <trkpt lat="48.45891" lon="7.37942">
        <ele>362.2</ele>
        <time>2023-07-23T11:53:43Z</time>
      </trkpt>
      <trkpt lat="48.45895" lon="7.37957">
        <ele>361.7</ele>
        <time>2023-07-23T11:53:44Z</time>
      </trkpt>
      <trkpt lat="48.45899" lon="7.37973">
        <ele>361.2</ele>
        <time>2023-07-23T11:53:45Z</time>
      </trkpt>
      <trkpt lat="48.45901" lon="7.37989">
        <ele>360.7</ele>
        <time>2023-07-23T11:53:46Z</time>
      </trkpt>
      <trkpt lat="48.45903" lon="7.38006">
        <ele>360.3</ele>
        <time>2023-07-23T11:53:47Z</time>
      </trkpt>
      <trkpt lat="48.45904" lon="7.38022">
        <ele>359.9</ele>
        <time>2023-07-23T11:53:48Z</time>
      </trkpt>
      <trkpt lat="48.45905" lon="7.38038">
        <ele>359.6</ele>
        <time>2023-07-23T11:53:49Z</time>
      </trkpt>
      <trkpt lat="48.45906" lon="7.38054">
        <ele>359.4</ele>
        <time>2023-07-23T11:53:50Z</time>
      </trkpt>
      <trkpt lat="48.45908" lon="7.3807">
        <ele>359.2</ele>
        <time>2023-07-23T11:53:51Z</time>
      </trkpt>
      <trkpt lat="48.45909" lon="7.38085">
        <ele>358.9</ele>
        <time>2023-07-23T11:53:52Z</time>
      </trkpt>
      <trkpt lat="48.45912" lon="7.38101">
        <ele>358.5</ele>
        <time>2023-07-23T11:53:53Z</time>
      </trkpt>
      <trkpt lat="48.45914" lon="7.38116">
        <ele>358.1</ele>
        <time>2023-07-23T11:53:54Z</time>
      </trkpt>
      <trkpt lat="48.45917" lon="7.38131">
        <ele>357.7</ele>
        <time>2023-07-23T11:53:55Z</time>
      </trkpt>
      <trkpt lat="48.4592" lon="7.38146">
        <ele>357.4</ele>
        <time>2023-07-23T11:53:56Z</time>
      </trkpt>
      <trkpt lat="48.45923" lon="7.38175">
        <ele>356.8</ele>
        <time>2023-07-23T11:53:57Z</time>
      </trkpt>
      <trkpt lat="48.45922" lon="7.38191">
        <ele>356.6</ele>
        <time>2023-07-23T11:53:58Z</time>
      </trkpt>
      <trkpt lat="48.4592" lon="7.38206">
        <ele>356.4</ele>
        <time>2023-07-23T11:53:59Z</time>
      </trkpt>
      <trkpt lat="48.45917" lon="7.3822">
        <ele>356.2</ele>
        <time>2023-07-23T11:54:00Z</time>
      </trkpt>
      <trkpt lat="48.45913" lon="7.38233">
        <ele>355.9</ele>
        <time>2023-07-23T11:54:01Z</time>
      </trkpt>
      <trkpt lat="48.45909" lon="7.38247">
        <ele>355.6</ele>
        <time>2023-07-23T11:54:02Z</time>
      </trkpt>
      <trkpt lat="48.45907" lon="7.38261">
        <ele>355.2</ele>
        <time>2023-07-23T11:54:03Z</time>
      </trkpt>
      <trkpt lat="48.45905" lon="7.38275">
        <ele>354.8</ele>
        <time>2023-07-23T11:54:04Z</time>
      </trkpt>
      <trkpt lat="48.45904" lon="7.3829">
        <ele>354.3</ele>
        <time>2023-07-23T11:54:05Z</time>
      </trkpt>
      <trkpt lat="48.45904" lon="7.38306">
        <ele>353.7</ele>
        <time>2023-07-23T11:54:06Z</time>
      </trkpt>
      <trkpt lat="48.45904" lon="7.38321">
        <ele>353.1</ele>
        <time>2023-07-23T11:54:07Z</time>
      </trkpt>
      <trkpt lat="48.45905" lon="7.38337">
        <ele>352.6</ele>
        <time>2023-07-23T11:54:08Z</time>
      </trkpt>
      <trkpt lat="48.45906" lon="7.38354">
        <ele>352</ele>
        <time>2023-07-23T11:54:09Z</time>
      </trkpt>
      <trkpt lat="48.45907" lon="7.3837">
        <ele>351.6</ele>
        <time>2023-07-23T11:54:10Z</time>
      </trkpt>
      <trkpt lat="48.45908" lon="7.38386">
        <ele>351.3</ele>
        <time>2023-07-23T11:54:11Z</time>
      </trkpt>
      <trkpt lat="48.4591" lon="7.38402">
        <ele>350.9</ele>
        <time>2023-07-23T11:54:12Z</time>
      </trkpt>
      <trkpt lat="48.45911" lon="7.38418">
        <ele>350.6</ele>
        <time>2023-07-23T11:54:13Z</time>
      </trkpt>
      <trkpt lat="48.45913" lon="7.38433">
        <ele>350.3</ele>
        <time>2023-07-23T11:54:14Z</time>
      </trkpt>
      <trkpt lat="48.45914" lon="7.38449">
        <ele>349.9</ele>
        <time>2023-07-23T11:54:15Z</time>
      </trkpt>
      <trkpt lat="48.45916" lon="7.38464">
        <ele>349.6</ele>
        <time>2023-07-23T11:54:16Z</time>
      </trkpt>
      <trkpt lat="48.45917" lon="7.3848">
        <ele>349.2</ele>
        <time>2023-07-23T11:54:17Z</time>
      </trkpt>
      <trkpt lat="48.45918" lon="7.38495">
        <ele>348.9</ele>
        <time>2023-07-23T11:54:18Z</time>
      </trkpt>
      <trkpt lat="48.4592" lon="7.3851">
        <ele>348.6</ele>
        <time>2023-07-23T11:54:19Z</time>
      </trkpt>
      <trkpt lat="48.45921" lon="7.38525">
        <ele>348.4</ele>
        <time>2023-07-23T11:54:20Z</time>
      </trkpt>
      <trkpt lat="48.45923" lon="7.3854">
        <ele>348.1</ele>
        <time>2023-07-23T11:54:21Z</time>
      </trkpt>
      <trkpt lat="48.45925" lon="7.38554">
        <ele>347.9</ele>
        <time>2023-07-23T11:54:22Z</time>
      </trkpt>
      <trkpt lat="48.45928" lon="7.38568">
        <ele>347.6</ele>
        <time>2023-07-23T11:54:23Z</time>
      </trkpt>
      <trkpt lat="48.45932" lon="7.38582">
        <ele>347.3</ele>
        <time>2023-07-23T11:54:24Z</time>
      </trkpt>
      <trkpt lat="48.45936" lon="7.38595">
        <ele>347</ele>
        <time>2023-07-23T11:54:25Z</time>
      </trkpt>
      <trkpt lat="48.4594" lon="7.38608">
        <ele>346.5</ele>
        <time>2023-07-23T11:54:26Z</time>
      </trkpt>
      <trkpt lat="48.45945" lon="7.38621">
        <ele>346</ele>
        <time>2023-07-23T11:54:27Z</time>
      </trkpt>
      <trkpt lat="48.45949" lon="7.38635">
        <ele>345.4</ele>
        <time>2023-07-23T11:54:28Z</time>
      </trkpt>
      <trkpt lat="48.45954" lon="7.38649">
        <ele>344.6</ele>
        <time>2023-07-23T11:54:29Z</time>
      </trkpt>
      <trkpt lat="48.45958" lon="7.38663">
        <ele>343.8</ele>
        <time>2023-07-23T11:54:30Z</time>
      </trkpt>
      <trkpt lat="48.45963" lon="7.38678">
        <ele>342.9</ele>
        <time>2023-07-23T11:54:31Z</time>
      </trkpt>
      <trkpt lat="48.45968" lon="7.38693">
        <ele>342.1</ele>
        <time>2023-07-23T11:54:32Z</time>
      </trkpt>
      <trkpt lat="48.45972" lon="7.38706">
        <ele>341.4</ele>
        <time>2023-07-23T11:54:33Z</time>
      </trkpt>
      <trkpt lat="48.45976" lon="7.3872">
        <ele>340.8</ele>
        <time>2023-07-23T11:54:34Z</time>
      </trkpt>
      <trkpt lat="48.4598" lon="7.38732">
        <ele>340.2</ele>
        <time>2023-07-23T11:54:35Z</time>
      </trkpt>
      <trkpt lat="48.45982" lon="7.38744">
        <ele>339.7</ele>
        <time>2023-07-23T11:54:36Z</time>
      </trkpt>
      <trkpt lat="48.45982" lon="7.38756">
        <ele>339.4</ele>
        <time>2023-07-23T11:54:37Z</time>
      </trkpt>
      <trkpt lat="48.45978" lon="7.38768">
        <ele>339</ele>
        <time>2023-07-23T11:54:38Z</time>
      </trkpt>
      <trkpt lat="48.45974" lon="7.38779">
        <ele>338.7</ele>
        <time>2023-07-23T11:54:39Z</time>
      </trkpt>
      <trkpt lat="48.4597" lon="7.38788">
        <ele>338.4</ele>
        <time>2023-07-23T11:54:40Z</time>
      </trkpt>
      <trkpt lat="48.45967" lon="7.38796">
        <ele>338.2</ele>
        <time>2023-07-23T11:54:41Z</time>
      </trkpt>
      <trkpt lat="48.45963" lon="7.38803">
        <ele>338.1</ele>
        <time>2023-07-23T11:54:42Z</time>
      </trkpt>
      <trkpt lat="48.4596" lon="7.3881">
        <ele>338</ele>
        <time>2023-07-23T11:54:43Z</time>
      </trkpt>
      <trkpt lat="48.45958" lon="7.38814">
        <ele>337.9</ele>
        <time>2023-07-23T11:54:44Z</time>
      </trkpt>
      <trkpt lat="48.45955" lon="7.38818">
        <ele>337.8</ele>
        <time>2023-07-23T11:54:45Z</time>
      </trkpt>
      <trkpt lat="48.45953" lon="7.38822">
        <ele>337.7</ele>
        <time>2023-07-23T11:54:46Z</time>
      </trkpt>
      <trkpt lat="48.45952" lon="7.38827">
        <ele>337.6</ele>
        <time>2023-07-23T11:54:47Z</time>
      </trkpt>
      <trkpt lat="48.4595" lon="7.3883">
        <ele>337.4</ele>
        <time>2023-07-23T11:54:48Z</time>
      </trkpt>
      <trkpt lat="48.4595" lon="7.38831">
        <ele>337.4</ele>
        <time>2023-07-23T11:54:49Z</time>
      </trkpt>
      <trkpt lat="48.45949" lon="7.38832">
        <ele>337.3</ele>
        <time>2023-07-23T11:54:50Z</time>
      </trkpt>
      <trkpt lat="48.45949" lon="7.38833">
        <ele>337.2</ele>
        <time>2023-07-23T11:54:51Z</time>
      </trkpt>
      <trkpt lat="48.45948" lon="7.38833">
        <ele>337.2</ele>
        <time>2023-07-23T11:54:52Z</time>
      </trkpt>
      <trkpt lat="48.45948" lon="7.38834">
        <ele>337.2</ele>
        <time>2023-07-23T11:54:53Z</time>
      </trkpt>
      <trkpt lat="48.45948" lon="7.38834">
        <ele>337.1</ele>
        <time>2023-07-23T11:54:54Z</time>
      </trkpt>
      <trkpt lat="48.45948" lon="7.38835">
        <ele>337.1</ele>
        <time>2023-07-23T11:54:55Z</time>
      </trkpt>
      <trkpt lat="48.45947" lon="7.38835">
        <ele>337.1</ele>
        <time>2023-07-23T11:54:56Z</time>
      </trkpt>
      <trkpt lat="48.45947" lon="7.38836">
        <ele>337</ele>
        <time>2023-07-23T11:54:57Z</time>
      </trkpt>
      <trkpt lat="48.45947" lon="7.38836">
        <ele>337</ele>
        <time>2023-07-23T11:54:59Z</time>
      </trkpt>
      <trkpt lat="48.45947" lon="7.38837">
        <ele>337</ele>
        <time>2023-07-23T11:55:00Z</time>
      </trkpt>
      <trkpt lat="48.45946" lon="7.38837">
        <ele>336.9</ele>
        <time>2023-07-23T11:56:55Z</time>
      </trkpt>
      <trkpt lat="48.45946" lon="7.38838">
        <ele>336.9</ele>
        <time>2023-07-23T11:56:56Z</time>
      </trkpt>
      <trkpt lat="48.45946" lon="7.38842">
        <ele>336.8</ele>
        <time>2023-07-23T11:56:57Z</time>
      </trkpt>
      <trkpt lat="48.45947" lon="7.38843">
        <ele>336.8</ele>
        <time>2023-07-23T11:56:58Z</time>
      </trkpt>
      <trkpt lat="48.45949" lon="7.38849">
        <ele>336.6</ele>
        <time>2023-07-23T11:56:59Z</time>
      </trkpt>
      <trkpt lat="48.45949" lon="7.38851">
        <ele>336.6</ele>
        <time>2023-07-23T11:57:00Z</time>
      </trkpt>
      <trkpt lat="48.45953" lon="7.38855">
        <ele>336.4</ele>
        <time>2023-07-23T11:57:01Z</time>
      </trkpt>
      <trkpt lat="48.45956" lon="7.38859">
        <ele>336.3</ele>
        <time>2023-07-23T11:57:02Z</time>
      </trkpt>
      <trkpt lat="48.45959" lon="7.38863">
        <ele>336.2</ele>
        <time>2023-07-23T11:57:04Z</time>
      </trkpt>
      <trkpt lat="48.45963" lon="7.38867">
        <ele>336.1</ele>
        <time>2023-07-23T11:57:05Z</time>
      </trkpt>
      <trkpt lat="48.45966" lon="7.38871">
        <ele>335.9</ele>
        <time>2023-07-23T11:57:06Z</time>
      </trkpt>
      <trkpt lat="48.4597" lon="7.38875">
        <ele>335.8</ele>
        <time>2023-07-23T11:57:07Z</time>
      </trkpt>
      <trkpt lat="48.45975" lon="7.3888">
        <ele>335.7</ele>
        <time>2023-07-23T11:57:08Z</time>
      </trkpt>
      <trkpt lat="48.45978" lon="7.38885">
        <ele>335.6</ele>
        <time>2023-07-23T11:57:09Z</time>
      </trkpt>
      <trkpt lat="48.45982" lon="7.38891">
        <ele>335.5</ele>
        <time>2023-07-23T11:57:10Z</time>
      </trkpt>
      <trkpt lat="48.45986" lon="7.38897">
        <ele>335.3</ele>
        <time>2023-07-23T11:57:11Z</time>
      </trkpt>
      <trkpt lat="48.45991" lon="7.38902">
        <ele>335.2</ele>
        <time>2023-07-23T11:57:12Z</time>
      </trkpt>
      <trkpt lat="48.45995" lon="7.38909">
        <ele>335.1</ele>
        <time>2023-07-23T11:57:13Z</time>
      </trkpt>
      <trkpt lat="48.46" lon="7.38916">
        <ele>334.9</ele>
        <time>2023-07-23T11:57:14Z</time>
      </trkpt>
      <trkpt lat="48.46005" lon="7.38922">
        <ele>334.8</ele>
        <time>2023-07-23T11:57:15Z</time>
      </trkpt>
      <trkpt lat="48.4601" lon="7.38929">
        <ele>334.6</ele>
        <time>2023-07-23T11:57:16Z</time>
      </trkpt>
      <trkpt lat="48.46015" lon="7.38936">
        <ele>334.5</ele>
        <time>2023-07-23T11:57:17Z</time>
      </trkpt>
      <trkpt lat="48.4602" lon="7.38942">
        <ele>334.3</ele>
        <time>2023-07-23T11:57:18Z</time>
      </trkpt>
      <trkpt lat="48.46026" lon="7.38949">
        <ele>334.1</ele>
        <time>2023-07-23T11:57:19Z</time>
      </trkpt>
      <trkpt lat="48.46031" lon="7.38957">
        <ele>333.9</ele>
        <time>2023-07-23T11:57:20Z</time>
      </trkpt>
      <trkpt lat="48.46037" lon="7.38964">
        <ele>333.6</ele>
        <time>2023-07-23T11:57:21Z</time>
      </trkpt>
      <trkpt lat="48.46043" lon="7.38971">
        <ele>333.4</ele>
        <time>2023-07-23T11:57:22Z</time>
      </trkpt>
      <trkpt lat="48.4605" lon="7.38977">
        <ele>333.2</ele>
        <time>2023-07-23T11:57:23Z</time>
      </trkpt>
      <trkpt lat="48.46056" lon="7.38984">
        <ele>332.9</ele>
        <time>2023-07-23T11:57:24Z</time>
      </trkpt>
      <trkpt lat="48.46062" lon="7.38992">
        <ele>332.7</ele>
        <time>2023-07-23T11:57:25Z</time>
      </trkpt>
      <trkpt lat="48.46069" lon="7.38999">
        <ele>332.4</ele>
        <time>2023-07-23T11:57:26Z</time>
      </trkpt>
      <trkpt lat="48.46075" lon="7.39006">
        <ele>332.2</ele>
        <time>2023-07-23T11:57:27Z</time>
      </trkpt>
      <trkpt lat="48.46082" lon="7.39013">
        <ele>332</ele>
        <time>2023-07-23T11:57:28Z</time>
      </trkpt>
      <trkpt lat="48.46089" lon="7.3902">
        <ele>331.8</ele>
        <time>2023-07-23T11:57:29Z</time>
      </trkpt>
      <trkpt lat="48.46096" lon="7.39027">
        <ele>331.6</ele>
        <time>2023-07-23T11:57:30Z</time>
      </trkpt>
      <trkpt lat="48.46102" lon="7.39034">
        <ele>331.4</ele>
        <time>2023-07-23T11:57:31Z</time>
      </trkpt>
      <trkpt lat="48.46109" lon="7.39041">
        <ele>331.3</ele>
        <time>2023-07-23T11:57:32Z</time>
      </trkpt>
      <trkpt lat="48.46116" lon="7.39048">
        <ele>331.1</ele>
        <time>2023-07-23T11:57:33Z</time>
      </trkpt>
      <trkpt lat="48.46122" lon="7.39055">
        <ele>331</ele>
        <time>2023-07-23T11:57:34Z</time>
      </trkpt>
      <trkpt lat="48.46129" lon="7.39062">
        <ele>330.8</ele>
        <time>2023-07-23T11:57:35Z</time>
      </trkpt>
      <trkpt lat="48.46136" lon="7.39069">
        <ele>330.7</ele>
        <time>2023-07-23T11:57:36Z</time>
      </trkpt>
      <trkpt lat="48.46142" lon="7.39075">
        <ele>330.5</ele>
        <time>2023-07-23T11:57:37Z</time>
      </trkpt>
      <trkpt lat="48.46149" lon="7.39082">
        <ele>330.4</ele>
        <time>2023-07-23T11:57:38Z</time>
      </trkpt>
      <trkpt lat="48.46155" lon="7.39089">
        <ele>330.2</ele>
        <time>2023-07-23T11:57:39Z</time>
      </trkpt>
      <trkpt lat="48.46162" lon="7.39096">
        <ele>330.1</ele>
        <time>2023-07-23T11:57:40Z</time>
      </trkpt>
      <trkpt lat="48.46168" lon="7.39104">
        <ele>329.9</ele>
        <time>2023-07-23T11:57:41Z</time>
      </trkpt>
      <trkpt lat="48.46174" lon="7.39112">
        <ele>329.7</ele>
        <time>2023-07-23T11:57:42Z</time>
      </trkpt>
      <trkpt lat="48.4618" lon="7.3912">
        <ele>329.5</ele>
        <time>2023-07-23T11:57:43Z</time>
      </trkpt>
      <trkpt lat="48.46186" lon="7.39127">
        <ele>329.3</ele>
        <time>2023-07-23T11:57:44Z</time>
      </trkpt>
      <trkpt lat="48.46193" lon="7.39134">
        <ele>329.1</ele>
        <time>2023-07-23T11:57:45Z</time>
      </trkpt>
      <trkpt lat="48.462" lon="7.39141">
        <ele>328.8</ele>
        <time>2023-07-23T11:57:46Z</time>
      </trkpt>
      <trkpt lat="48.46206" lon="7.39148">
        <ele>328.6</ele>
        <time>2023-07-23T11:57:47Z</time>
      </trkpt>
      <trkpt lat="48.46213" lon="7.39156">
        <ele>328.3</ele>
        <time>2023-07-23T11:57:48Z</time>
      </trkpt>
      <trkpt lat="48.4622" lon="7.39163">
        <ele>328</ele>
        <time>2023-07-23T11:57:49Z</time>
      </trkpt>
      <trkpt lat="48.46226" lon="7.39171">
        <ele>327.7</ele>
        <time>2023-07-23T11:57:50Z</time>
      </trkpt>
      <trkpt lat="48.46239" lon="7.3919">
        <ele>327.1</ele>
        <time>2023-07-23T11:57:51Z</time>
      </trkpt>
      <trkpt lat="48.46244" lon="7.39201">
        <ele>326.7</ele>
        <time>2023-07-23T11:57:52Z</time>
      </trkpt>
      <trkpt lat="48.46248" lon="7.39212">
        <ele>326.4</ele>
        <time>2023-07-23T11:57:53Z</time>
      </trkpt>
      <trkpt lat="48.46254" lon="7.39224">
        <ele>326.1</ele>
        <time>2023-07-23T11:57:54Z</time>
      </trkpt>
      <trkpt lat="48.46259" lon="7.39235">
        <ele>325.8</ele>
        <time>2023-07-23T11:57:55Z</time>
      </trkpt>
      <trkpt lat="48.46266" lon="7.39245">
        <ele>325.6</ele>
        <time>2023-07-23T11:57:56Z</time>
      </trkpt>
      <trkpt lat="48.46273" lon="7.39254">
        <ele>325.5</ele>
        <time>2023-07-23T11:57:57Z</time>
      </trkpt>
      <trkpt lat="48.46281" lon="7.39262">
        <ele>325.4</ele>
        <time>2023-07-23T11:57:58Z</time>
      </trkpt>
      <trkpt lat="48.46289" lon="7.39268">
        <ele>325.2</ele>
        <time>2023-07-23T11:57:59Z</time>
      </trkpt>
      <trkpt lat="48.46297" lon="7.39275">
        <ele>325.1</ele>
        <time>2023-07-23T11:58:00Z</time>
      </trkpt>
      <trkpt lat="48.46306" lon="7.3928">
        <ele>324.9</ele>
        <time>2023-07-23T11:58:01Z</time>
      </trkpt>
      <trkpt lat="48.46314" lon="7.39285">
        <ele>324.8</ele>
        <time>2023-07-23T11:58:02Z</time>
      </trkpt>
      <trkpt lat="48.46323" lon="7.3929">
        <ele>324.7</ele>
        <time>2023-07-23T11:58:03Z</time>
      </trkpt>
      <trkpt lat="48.46331" lon="7.39294">
        <ele>324.5</ele>
        <time>2023-07-23T11:58:04Z</time>
      </trkpt>
      <trkpt lat="48.46339" lon="7.39299">
        <ele>324.5</ele>
        <time>2023-07-23T11:58:05Z</time>
      </trkpt>
      <trkpt lat="48.46347" lon="7.39303">
        <ele>324.4</ele>
        <time>2023-07-23T11:58:06Z</time>
      </trkpt>
      <trkpt lat="48.46355" lon="7.39307">
        <ele>324.4</ele>
        <time>2023-07-23T11:58:07Z</time>
      </trkpt>
      <trkpt lat="48.46363" lon="7.39311">
        <ele>324.3</ele>
        <time>2023-07-23T11:58:08Z</time>
      </trkpt>
      <trkpt lat="48.4637" lon="7.39316">
        <ele>324.3</ele>
        <time>2023-07-23T11:58:09Z</time>
      </trkpt>
      <trkpt lat="48.46378" lon="7.3932">
        <ele>324.3</ele>
        <time>2023-07-23T11:58:10Z</time>
      </trkpt>
      <trkpt lat="48.46385" lon="7.39324">
        <ele>324.2</ele>
        <time>2023-07-23T11:58:11Z</time>
      </trkpt>
      <trkpt lat="48.46393" lon="7.39328">
        <ele>324.1</ele>
        <time>2023-07-23T11:58:12Z</time>
      </trkpt>
      <trkpt lat="48.464" lon="7.39333">
        <ele>324.1</ele>
        <time>2023-07-23T11:58:13Z</time>
      </trkpt>
      <trkpt lat="48.46408" lon="7.39337">
        <ele>324</ele>
        <time>2023-07-23T11:58:14Z</time>
      </trkpt>
      <trkpt lat="48.46415" lon="7.39342">
        <ele>323.9</ele>
        <time>2023-07-23T11:58:15Z</time>
      </trkpt>
      <trkpt lat="48.46422" lon="7.39347">
        <ele>323.7</ele>
        <time>2023-07-23T11:58:16Z</time>
      </trkpt>
      <trkpt lat="48.4643" lon="7.39353">
        <ele>323.5</ele>
        <time>2023-07-23T11:58:17Z</time>
      </trkpt>
      <trkpt lat="48.46436" lon="7.39361">
        <ele>323.4</ele>
        <time>2023-07-23T11:58:18Z</time>
      </trkpt>
      <trkpt lat="48.46443" lon="7.39369">
        <ele>323.2</ele>
        <time>2023-07-23T11:58:19Z</time>
      </trkpt>
      <trkpt lat="48.46448" lon="7.39379">
        <ele>323.1</ele>
        <time>2023-07-23T11:58:20Z</time>
      </trkpt>
      <trkpt lat="48.46453" lon="7.39389">
        <ele>323</ele>
        <time>2023-07-23T11:58:21Z</time>
      </trkpt>
      <trkpt lat="48.46458" lon="7.39399">
        <ele>322.9</ele>
        <time>2023-07-23T11:58:22Z</time>
      </trkpt>
      <trkpt lat="48.46463" lon="7.39408">
        <ele>322.9</ele>
        <time>2023-07-23T11:58:23Z</time>
      </trkpt>
      <trkpt lat="48.46468" lon="7.39417">
        <ele>322.8</ele>
        <time>2023-07-23T11:58:24Z</time>
      </trkpt>
      <trkpt lat="48.46473" lon="7.39426">
        <ele>322.8</ele>
        <time>2023-07-23T11:58:25Z</time>
      </trkpt>
      <trkpt lat="48.46478" lon="7.39435">
        <ele>322.8</ele>
        <time>2023-07-23T11:58:26Z</time>
      </trkpt>
      <trkpt lat="48.46484" lon="7.39444">
        <ele>322.8</ele>
        <time>2023-07-23T11:58:27Z</time>
      </trkpt>
      <trkpt lat="48.46489" lon="7.39453">
        <ele>322.8</ele>
        <time>2023-07-23T11:58:28Z</time>
      </trkpt>
      <trkpt lat="48.46494" lon="7.39461">
        <ele>322.8</ele>
        <time>2023-07-23T11:58:29Z</time>
      </trkpt>
      <trkpt lat="48.46499" lon="7.3947">
        <ele>322.8</ele>
        <time>2023-07-23T11:58:30Z</time>
      </trkpt>
      <trkpt lat="48.46504" lon="7.39479">
        <ele>322.8</ele>
        <time>2023-07-23T11:58:31Z</time>
      </trkpt>
      <trkpt lat="48.46509" lon="7.39488">
        <ele>322.8</ele>
        <time>2023-07-23T11:58:32Z</time>
      </trkpt>
      <trkpt lat="48.46514" lon="7.39497">
        <ele>322.8</ele>
        <time>2023-07-23T11:58:33Z</time>
      </trkpt>
      <trkpt lat="48.46518" lon="7.39507">
        <ele>322.8</ele>
        <time>2023-07-23T11:58:34Z</time>
      </trkpt>
      <trkpt lat="48.46523" lon="7.39517">
        <ele>322.8</ele>
        <time>2023-07-23T11:58:35Z</time>
      </trkpt>
      <trkpt lat="48.46527" lon="7.39527">
        <ele>322.8</ele>
        <time>2023-07-23T11:58:36Z</time>
      </trkpt>
      <trkpt lat="48.46531" lon="7.39537">
        <ele>322.8</ele>
        <time>2023-07-23T11:58:37Z</time>
      </trkpt>
      <trkpt lat="48.46534" lon="7.39548">
        <ele>322.8</ele>
        <time>2023-07-23T11:58:38Z</time>
      </trkpt>
      <trkpt lat="48.46537" lon="7.39559">
        <ele>322.7</ele>
        <time>2023-07-23T11:58:39Z</time>
      </trkpt>
      <trkpt lat="48.4654" lon="7.3957">
        <ele>322.7</ele>
        <time>2023-07-23T11:58:40Z</time>
      </trkpt>
      <trkpt lat="48.46543" lon="7.39581">
        <ele>322.7</ele>
        <time>2023-07-23T11:58:41Z</time>
      </trkpt>
      <trkpt lat="48.46544" lon="7.39592">
        <ele>322.7</ele>
        <time>2023-07-23T11:58:42Z</time>
      </trkpt>
      <trkpt lat="48.46546" lon="7.39603">
        <ele>322.7</ele>
        <time>2023-07-23T11:58:43Z</time>
      </trkpt>
      <trkpt lat="48.46548" lon="7.39614">
        <ele>322.7</ele>
        <time>2023-07-23T11:58:44Z</time>
      </trkpt>
      <trkpt lat="48.46549" lon="7.39625">
        <ele>322.7</ele>
        <time>2023-07-23T11:58:45Z</time>
      </trkpt>
      <trkpt lat="48.46551" lon="7.39636">
        <ele>322.7</ele>
        <time>2023-07-23T11:58:46Z</time>
      </trkpt>
      <trkpt lat="48.46552" lon="7.39646">
        <ele>322.7</ele>
        <time>2023-07-23T11:58:47Z</time>
      </trkpt>
      <trkpt lat="48.46554" lon="7.39657">
        <ele>322.8</ele>
        <time>2023-07-23T11:58:48Z</time>
      </trkpt>
      <trkpt lat="48.46556" lon="7.39668">
        <ele>322.8</ele>
        <time>2023-07-23T11:58:49Z</time>
      </trkpt>
      <trkpt lat="48.46557" lon="7.39679">
        <ele>322.8</ele>
        <time>2023-07-23T11:58:50Z</time>
      </trkpt>
      <trkpt lat="48.46559" lon="7.3969">
        <ele>322.8</ele>
        <time>2023-07-23T11:58:51Z</time>
      </trkpt>
      <trkpt lat="48.46561" lon="7.39701">
        <ele>322.7</ele>
        <time>2023-07-23T11:58:52Z</time>
      </trkpt>
      <trkpt lat="48.46562" lon="7.39713">
        <ele>322.5</ele>
        <time>2023-07-23T11:58:53Z</time>
      </trkpt>
      <trkpt lat="48.46564" lon="7.39724">
        <ele>322.4</ele>
        <time>2023-07-23T11:58:54Z</time>
      </trkpt>
      <trkpt lat="48.46566" lon="7.39736">
        <ele>322.1</ele>
        <time>2023-07-23T11:58:55Z</time>
      </trkpt>
      <trkpt lat="48.46568" lon="7.39749">
        <ele>321.8</ele>
        <time>2023-07-23T11:58:56Z</time>
      </trkpt>
      <trkpt lat="48.46569" lon="7.39762">
        <ele>321.5</ele>
        <time>2023-07-23T11:58:57Z</time>
      </trkpt>
      <trkpt lat="48.46571" lon="7.39775">
        <ele>321.2</ele>
        <time>2023-07-23T11:58:58Z</time>
      </trkpt>
      <trkpt lat="48.46573" lon="7.39788">
        <ele>321</ele>
        <time>2023-07-23T11:58:59Z</time>
      </trkpt>
      <trkpt lat="48.46575" lon="7.39802">
        <ele>320.7</ele>
        <time>2023-07-23T11:59:00Z</time>
      </trkpt>
      <trkpt lat="48.46578" lon="7.39815">
        <ele>320.5</ele>
        <time>2023-07-23T11:59:01Z</time>
      </trkpt>
      <trkpt lat="48.4658" lon="7.39829">
        <ele>320.2</ele>
        <time>2023-07-23T11:59:02Z</time>
      </trkpt>
      <trkpt lat="48.46582" lon="7.39842">
        <ele>320</ele>
        <time>2023-07-23T11:59:03Z</time>
      </trkpt>
      <trkpt lat="48.46583" lon="7.39856">
        <ele>319.7</ele>
        <time>2023-07-23T11:59:04Z</time>
      </trkpt>
      <trkpt lat="48.46584" lon="7.39869">
        <ele>319.4</ele>
        <time>2023-07-23T11:59:05Z</time>
      </trkpt>
      <trkpt lat="48.46586" lon="7.39883">
        <ele>319.2</ele>
        <time>2023-07-23T11:59:06Z</time>
      </trkpt>
      <trkpt lat="48.46588" lon="7.39897">
        <ele>319</ele>
        <time>2023-07-23T11:59:07Z</time>
      </trkpt>
      <trkpt lat="48.4659" lon="7.3991">
        <ele>318.8</ele>
        <time>2023-07-23T11:59:08Z</time>
      </trkpt>
      <trkpt lat="48.46591" lon="7.39924">
        <ele>318.5</ele>
        <time>2023-07-23T11:59:10Z</time>
      </trkpt>
      <trkpt lat="48.46593" lon="7.39938">
        <ele>318.3</ele>
        <time>2023-07-23T11:59:11Z</time>
      </trkpt>
      <trkpt lat="48.46595" lon="7.39951">
        <ele>318.1</ele>
        <time>2023-07-23T11:59:12Z</time>
      </trkpt>
      <trkpt lat="48.46598" lon="7.39965">
        <ele>317.9</ele>
        <time>2023-07-23T11:59:13Z</time>
      </trkpt>
      <trkpt lat="48.46601" lon="7.39978">
        <ele>317.7</ele>
        <time>2023-07-23T11:59:14Z</time>
      </trkpt>
      <trkpt lat="48.46605" lon="7.3999">
        <ele>317.6</ele>
        <time>2023-07-23T11:59:15Z</time>
      </trkpt>
      <trkpt lat="48.4661" lon="7.40002">
        <ele>317.4</ele>
        <time>2023-07-23T11:59:16Z</time>
      </trkpt>
      <trkpt lat="48.46615" lon="7.40013">
        <ele>317.1</ele>
        <time>2023-07-23T11:59:17Z</time>
      </trkpt>
      <trkpt lat="48.4662" lon="7.40025">
        <ele>316.9</ele>
        <time>2023-07-23T11:59:18Z</time>
      </trkpt>
      <trkpt lat="48.46625" lon="7.40036">
        <ele>316.6</ele>
        <time>2023-07-23T11:59:19Z</time>
      </trkpt>
      <trkpt lat="48.4663" lon="7.40047">
        <ele>316.3</ele>
        <time>2023-07-23T11:59:20Z</time>
      </trkpt>
      <trkpt lat="48.46634" lon="7.40059">
        <ele>316.1</ele>
        <time>2023-07-23T11:59:21Z</time>
      </trkpt>
      <trkpt lat="48.46638" lon="7.40071">
        <ele>315.9</ele>
        <time>2023-07-23T11:59:22Z</time>
      </trkpt>
      <trkpt lat="48.46641" lon="7.40084">
        <ele>315.7</ele>
        <time>2023-07-23T11:59:23Z</time>
      </trkpt>
      <trkpt lat="48.46644" lon="7.40096">
        <ele>315.6</ele>
        <time>2023-07-23T11:59:24Z</time>
      </trkpt>
      <trkpt lat="48.46646" lon="7.40109">
        <ele>315.4</ele>
        <time>2023-07-23T11:59:25Z</time>
      </trkpt>
      <trkpt lat="48.4665" lon="7.40121">
        <ele>315.1</ele>
        <time>2023-07-23T11:59:26Z</time>
      </trkpt>
      <trkpt lat="48.46652" lon="7.40134">
        <ele>314.9</ele>
        <time>2023-07-23T11:59:27Z</time>
      </trkpt>
      <trkpt lat="48.46655" lon="7.40147">
        <ele>314.7</ele>
        <time>2023-07-23T11:59:28Z</time>
      </trkpt>
      <trkpt lat="48.46657" lon="7.4016">
        <ele>314.4</ele>
        <time>2023-07-23T11:59:29Z</time>
      </trkpt>
      <trkpt lat="48.4666" lon="7.40173">
        <ele>314.2</ele>
        <time>2023-07-23T11:59:30Z</time>
      </trkpt>
      <trkpt lat="48.46663" lon="7.40186">
        <ele>313.9</ele>
        <time>2023-07-23T11:59:31Z</time>
      </trkpt>
      <trkpt lat="48.46666" lon="7.40199">
        <ele>313.7</ele>
        <time>2023-07-23T11:59:32Z</time>
      </trkpt>
      <trkpt lat="48.46669" lon="7.40212">
        <ele>313.4</ele>
        <time>2023-07-23T11:59:33Z</time>
      </trkpt>
      <trkpt lat="48.46672" lon="7.40225">
        <ele>313.2</ele>
        <time>2023-07-23T11:59:34Z</time>
      </trkpt>
      <trkpt lat="48.46674" lon="7.40239">
        <ele>312.9</ele>
        <time>2023-07-23T11:59:35Z</time>
      </trkpt>
      <trkpt lat="48.46677" lon="7.40253">
        <ele>312.5</ele>
        <time>2023-07-23T11:59:36Z</time>
      </trkpt>
      <trkpt lat="48.46679" lon="7.40267">
        <ele>312.2</ele>
        <time>2023-07-23T11:59:37Z</time>
      </trkpt>
      <trkpt lat="48.46682" lon="7.40281">
        <ele>311.8</ele>
        <time>2023-07-23T11:59:38Z</time>
      </trkpt>
      <trkpt lat="48.46684" lon="7.40295">
        <ele>311.3</ele>
        <time>2023-07-23T11:59:39Z</time>
      </trkpt>
      <trkpt lat="48.46686" lon="7.40309">
        <ele>310.8</ele>
        <time>2023-07-23T11:59:40Z</time>
      </trkpt>
      <trkpt lat="48.46687" lon="7.40324">
        <ele>310.3</ele>
        <time>2023-07-23T11:59:41Z</time>
      </trkpt>
      <trkpt lat="48.46688" lon="7.4034">
        <ele>309.8</ele>
        <time>2023-07-23T11:59:42Z</time>
      </trkpt>
      <trkpt lat="48.46689" lon="7.40355">
        <ele>309.3</ele>
        <time>2023-07-23T11:59:43Z</time>
      </trkpt>
      <trkpt lat="48.46691" lon="7.4037">
        <ele>308.7</ele>
        <time>2023-07-23T11:59:44Z</time>
      </trkpt>
      <trkpt lat="48.46693" lon="7.40386">
        <ele>308.1</ele>
        <time>2023-07-23T11:59:45Z</time>
      </trkpt>
      <trkpt lat="48.46695" lon="7.40402">
        <ele>307.5</ele>
        <time>2023-07-23T11:59:46Z</time>
      </trkpt>
      <trkpt lat="48.46696" lon="7.40418">
        <ele>306.8</ele>
        <time>2023-07-23T11:59:47Z</time>
      </trkpt>
      <trkpt lat="48.46698" lon="7.40435">
        <ele>306.1</ele>
        <time>2023-07-23T11:59:48Z</time>
      </trkpt>
      <trkpt lat="48.46699" lon="7.40451">
        <ele>305.4</ele>
        <time>2023-07-23T11:59:49Z</time>
      </trkpt>
      <trkpt lat="48.46702" lon="7.40468">
        <ele>304.7</ele>
        <time>2023-07-23T11:59:50Z</time>
      </trkpt>
      <trkpt lat="48.46704" lon="7.40485">
        <ele>304</ele>
        <time>2023-07-23T11:59:51Z</time>
      </trkpt>
      <trkpt lat="48.46705" lon="7.40502">
        <ele>303.6</ele>
        <time>2023-07-23T11:59:52Z</time>
      </trkpt>
      <trkpt lat="48.46706" lon="7.4052">
        <ele>303.2</ele>
        <time>2023-07-23T11:59:53Z</time>
      </trkpt>
      <trkpt lat="48.46708" lon="7.40536">
        <ele>302.8</ele>
        <time>2023-07-23T11:59:54Z</time>
      </trkpt>
      <trkpt lat="48.4671" lon="7.40552">
        <ele>302.4</ele>
        <time>2023-07-23T11:59:55Z</time>
      </trkpt>
      <trkpt lat="48.46711" lon="7.40567">
        <ele>301.9</ele>
        <time>2023-07-23T11:59:56Z</time>
      </trkpt>
      <trkpt lat="48.46715" lon="7.40593">
        <ele>301</ele>
        <time>2023-07-23T11:59:57Z</time>
      </trkpt>
      <trkpt lat="48.46719" lon="7.40605">
        <ele>300.7</ele>
        <time>2023-07-23T11:59:58Z</time>
      </trkpt>
      <trkpt lat="48.46724" lon="7.40616">
        <ele>300.3</ele>
        <time>2023-07-23T11:59:59Z</time>
      </trkpt>
      <trkpt lat="48.46732" lon="7.40623">
        <ele>300</ele>
        <time>2023-07-23T12:00:00Z</time>
      </trkpt>
      <trkpt lat="48.4674" lon="7.4063">
        <ele>299.6</ele>
        <time>2023-07-23T12:00:01Z</time>
      </trkpt>
      <trkpt lat="48.46748" lon="7.40636">
        <ele>299.2</ele>
        <time>2023-07-23T12:00:02Z</time>
      </trkpt>
      <trkpt lat="48.46756" lon="7.40643">
        <ele>298.8</ele>
        <time>2023-07-23T12:00:03Z</time>
      </trkpt>
      <trkpt lat="48.46764" lon="7.4065">
        <ele>298.3</ele>
        <time>2023-07-23T12:00:04Z</time>
      </trkpt>
      <trkpt lat="48.46773" lon="7.40657">
        <ele>297.8</ele>
        <time>2023-07-23T12:00:05Z</time>
      </trkpt>
      <trkpt lat="48.4678" lon="7.40666">
        <ele>297.3</ele>
        <time>2023-07-23T12:00:06Z</time>
      </trkpt>
      <trkpt lat="48.46787" lon="7.40676">
        <ele>296.9</ele>
        <time>2023-07-23T12:00:07Z</time>
      </trkpt>
      <trkpt lat="48.46794" lon="7.40687">
        <ele>296.5</ele>
        <time>2023-07-23T12:00:08Z</time>
      </trkpt>
      <trkpt lat="48.468" lon="7.40699">
        <ele>295.9</ele>
        <time>2023-07-23T12:00:09Z</time>
      </trkpt>
      <trkpt lat="48.46806" lon="7.40713">
        <ele>295.3</ele>
        <time>2023-07-23T12:00:10Z</time>
      </trkpt>
      <trkpt lat="48.4681" lon="7.40727">
        <ele>294.7</ele>
        <time>2023-07-23T12:00:11Z</time>
      </trkpt>
      <trkpt lat="48.46815" lon="7.40741">
        <ele>293.9</ele>
        <time>2023-07-23T12:00:12Z</time>
      </trkpt>
      <trkpt lat="48.46819" lon="7.40757">
        <ele>293</ele>
        <time>2023-07-23T12:00:13Z</time>
      </trkpt>
      <trkpt lat="48.46821" lon="7.40773">
        <ele>292.1</ele>
        <time>2023-07-23T12:00:14Z</time>
      </trkpt>
      <trkpt lat="48.46824" lon="7.4079">
        <ele>291.1</ele>
        <time>2023-07-23T12:00:15Z</time>
      </trkpt>
      <trkpt lat="48.46827" lon="7.40807">
        <ele>290.1</ele>
        <time>2023-07-23T12:00:16Z</time>
      </trkpt>
      <trkpt lat="48.46831" lon="7.40824">
        <ele>288.9</ele>
        <time>2023-07-23T12:00:17Z</time>
      </trkpt>
      <trkpt lat="48.46836" lon="7.4084">
        <ele>287.7</ele>
        <time>2023-07-23T12:00:18Z</time>
      </trkpt>
      <trkpt lat="48.46841" lon="7.40856">
        <ele>286.4</ele>
        <time>2023-07-23T12:00:19Z</time>
      </trkpt>
      <trkpt lat="48.46844" lon="7.40873">
        <ele>285.2</ele>
        <time>2023-07-23T12:00:20Z</time>
      </trkpt>
      <trkpt lat="48.46848" lon="7.4089">
        <ele>284</ele>
        <time>2023-07-23T12:00:21Z</time>
      </trkpt>
      <trkpt lat="48.46852" lon="7.40909">
        <ele>282.9</ele>
        <time>2023-07-23T12:00:22Z</time>
      </trkpt>
      <trkpt lat="48.46854" lon="7.40928">
        <ele>281.9</ele>
        <time>2023-07-23T12:00:23Z</time>
      </trkpt>
      <trkpt lat="48.46856" lon="7.40946">
        <ele>281</ele>
        <time>2023-07-23T12:00:24Z</time>
      </trkpt>
      <trkpt lat="48.46857" lon="7.40964">
        <ele>280.3</ele>
        <time>2023-07-23T12:00:25Z</time>
      </trkpt>
      <trkpt lat="48.46859" lon="7.40981">
        <ele>279.7</ele>
        <time>2023-07-23T12:00:26Z</time>
      </trkpt>
      <trkpt lat="48.46863" lon="7.40998">
        <ele>279.2</ele>
        <time>2023-07-23T12:00:27Z</time>
      </trkpt>
      <trkpt lat="48.46867" lon="7.41014">
        <ele>279.9</ele>
        <time>2023-07-23T12:00:28Z</time>
      </trkpt>
      <trkpt lat="48.46871" lon="7.41029">
        <ele>278.6</ele>
        <time>2023-07-23T12:00:29Z</time>
      </trkpt>
      <trkpt lat="48.46875" lon="7.41045">
        <ele>277.5</ele>
        <time>2023-07-23T12:00:30Z</time>
      </trkpt>
      <trkpt lat="48.46879" lon="7.41058">
        <ele>277.2</ele>
        <time>2023-07-23T12:00:31Z</time>
      </trkpt>
      <trkpt lat="48.46883" lon="7.41071">
        <ele>277</ele>
        <time>2023-07-23T12:00:32Z</time>
      </trkpt>
      <trkpt lat="48.46887" lon="7.41082">
        <ele>276.9</ele>
        <time>2023-07-23T12:00:33Z</time>
      </trkpt>
      <trkpt lat="48.4689" lon="7.41093">
        <ele>276.8</ele>
        <time>2023-07-23T12:00:34Z</time>
      </trkpt>
      <trkpt lat="48.46892" lon="7.41102">
        <ele>276.8</ele>
        <time>2023-07-23T12:00:35Z</time>
      </trkpt>
      <trkpt lat="48.46895" lon="7.41111">
        <ele>276.8</ele>
        <time>2023-07-23T12:00:36Z</time>
      </trkpt>
      <trkpt lat="48.46897" lon="7.41121">
        <ele>276.5</ele>
        <time>2023-07-23T12:00:37Z</time>
      </trkpt>
      <trkpt lat="48.46897" lon="7.41131">
        <ele>276.2</ele>
        <time>2023-07-23T12:00:38Z</time>
      </trkpt>
      <trkpt lat="48.46894" lon="7.4114">
        <ele>275.9</ele>
        <time>2023-07-23T12:00:39Z</time>
      </trkpt>
      <trkpt lat="48.46891" lon="7.4115">
        <ele>275.7</ele>
        <time>2023-07-23T12:00:40Z</time>
      </trkpt>
      <trkpt lat="48.46888" lon="7.4116">
        <ele>275.4</ele>
        <time>2023-07-23T12:00:41Z</time>
      </trkpt>
      <trkpt lat="48.46886" lon="7.41171">
        <ele>275.2</ele>
        <time>2023-07-23T12:00:42Z</time>
      </trkpt>
      <trkpt lat="48.46883" lon="7.41182">
        <ele>274.9</ele>
        <time>2023-07-23T12:00:43Z</time>
      </trkpt>
      <trkpt lat="48.4688" lon="7.41193">
        <ele>274.7</ele>
        <time>2023-07-23T12:00:44Z</time>
      </trkpt>
      <trkpt lat="48.46877" lon="7.41204">
        <ele>274.5</ele>
        <time>2023-07-23T12:00:45Z</time>
      </trkpt>
      <trkpt lat="48.46875" lon="7.41215">
        <ele>274.4</ele>
        <time>2023-07-23T12:00:46Z</time>
      </trkpt>
      <trkpt lat="48.46872" lon="7.41226">
        <ele>274.3</ele>
        <time>2023-07-23T12:00:47Z</time>
      </trkpt>
      <trkpt lat="48.46869" lon="7.41237">
        <ele>274.2</ele>
        <time>2023-07-23T12:00:48Z</time>
      </trkpt>
      <trkpt lat="48.46867" lon="7.41246">
        <ele>274.1</ele>
        <time>2023-07-23T12:00:49Z</time>
      </trkpt>
      <trkpt lat="48.46865" lon="7.41254">
        <ele>274</ele>
        <time>2023-07-23T12:00:50Z</time>
      </trkpt>
      <trkpt lat="48.46862" lon="7.41263">
        <ele>273.9</ele>
        <time>2023-07-23T12:00:51Z</time>
      </trkpt>
      <trkpt lat="48.4686" lon="7.41273">
        <ele>273.7</ele>
        <time>2023-07-23T12:00:52Z</time>
      </trkpt>
      <trkpt lat="48.46857" lon="7.41284">
        <ele>273.6</ele>
        <time>2023-07-23T12:00:53Z</time>
      </trkpt>
      <trkpt lat="48.46855" lon="7.41294">
        <ele>273.5</ele>
        <time>2023-07-23T12:00:54Z</time>
      </trkpt>
      <trkpt lat="48.46852" lon="7.41305">
        <ele>273.4</ele>
        <time>2023-07-23T12:00:55Z</time>
      </trkpt>
      <trkpt lat="48.4685" lon="7.41315">
        <ele>273.3</ele>
        <time>2023-07-23T12:00:56Z</time>
      </trkpt>
      <trkpt lat="48.46847" lon="7.41326">
        <ele>273.2</ele>
        <time>2023-07-23T12:00:57Z</time>
      </trkpt>
      <trkpt lat="48.46844" lon="7.41336">
        <ele>273.1</ele>
        <time>2023-07-23T12:00:58Z</time>
      </trkpt>
      <trkpt lat="48.46842" lon="7.41347">
        <ele>273</ele>
        <time>2023-07-23T12:00:59Z</time>
      </trkpt>
      <trkpt lat="48.46839" lon="7.41357">
        <ele>273</ele>
        <time>2023-07-23T12:01:00Z</time>
      </trkpt>
      <trkpt lat="48.46837" lon="7.41368">
        <ele>272.9</ele>
        <time>2023-07-23T12:01:01Z</time>
      </trkpt>
      <trkpt lat="48.46833" lon="7.41378">
        <ele>272.7</ele>
        <time>2023-07-23T12:01:02Z</time>
      </trkpt>
      <trkpt lat="48.46828" lon="7.41388">
        <ele>272.6</ele>
        <time>2023-07-23T12:01:03Z</time>
      </trkpt>
      <trkpt lat="48.46823" lon="7.41397">
        <ele>272.6</ele>
        <time>2023-07-23T12:01:04Z</time>
      </trkpt>
      <trkpt lat="48.46818" lon="7.41405">
        <ele>272.4</ele>
        <time>2023-07-23T12:01:05Z</time>
      </trkpt>
      <trkpt lat="48.46813" lon="7.41413">
        <ele>272.1</ele>
        <time>2023-07-23T12:01:06Z</time>
      </trkpt>
      <trkpt lat="48.46807" lon="7.41422">
        <ele>271.9</ele>
        <time>2023-07-23T12:01:07Z</time>
      </trkpt>
      <trkpt lat="48.46802" lon="7.41431">
        <ele>271.7</ele>
        <time>2023-07-23T12:01:08Z</time>
      </trkpt>
      <trkpt lat="48.46796" lon="7.4144">
        <ele>271.4</ele>
        <time>2023-07-23T12:01:09Z</time>
      </trkpt>
      <trkpt lat="48.46791" lon="7.41449">
        <ele>271.2</ele>
        <time>2023-07-23T12:01:10Z</time>
      </trkpt>
      <trkpt lat="48.46785" lon="7.41458">
        <ele>270.9</ele>
        <time>2023-07-23T12:01:11Z</time>
      </trkpt>
      <trkpt lat="48.46779" lon="7.41468">
        <ele>270.7</ele>
        <time>2023-07-23T12:01:12Z</time>
      </trkpt>
      <trkpt lat="48.46774" lon="7.41479">
        <ele>270.4</ele>
        <time>2023-07-23T12:01:13Z</time>
      </trkpt>
      <trkpt lat="48.46769" lon="7.41489">
        <ele>270.2</ele>
        <time>2023-07-23T12:01:14Z</time>
      </trkpt>
      <trkpt lat="48.46764" lon="7.41499">
        <ele>270</ele>
        <time>2023-07-23T12:01:16Z</time>
      </trkpt>
      <trkpt lat="48.46758" lon="7.4151">
        <ele>269.9</ele>
        <time>2023-07-23T12:01:17Z</time>
      </trkpt>
      <trkpt lat="48.46753" lon="7.4152">
        <ele>269.8</ele>
        <time>2023-07-23T12:01:18Z</time>
      </trkpt>
      <trkpt lat="48.46747" lon="7.4153">
        <ele>269.8</ele>
        <time>2023-07-23T12:01:19Z</time>
      </trkpt>
      <trkpt lat="48.46742" lon="7.4154">
        <ele>269.9</ele>
        <time>2023-07-23T12:01:20Z</time>
      </trkpt>
      <trkpt lat="48.46736" lon="7.4155">
        <ele>270</ele>
        <time>2023-07-23T12:01:21Z</time>
      </trkpt>
      <trkpt lat="48.46731" lon="7.4156">
        <ele>270.1</ele>
        <time>2023-07-23T12:01:22Z</time>
      </trkpt>
      <trkpt lat="48.46727" lon="7.4157">
        <ele>270.2</ele>
        <time>2023-07-23T12:01:23Z</time>
      </trkpt>
      <trkpt lat="48.46723" lon="7.41579">
        <ele>270.2</ele>
        <time>2023-07-23T12:01:24Z</time>
      </trkpt>
      <trkpt lat="48.46719" lon="7.41589">
        <ele>270.2</ele>
        <time>2023-07-23T12:01:25Z</time>
      </trkpt>
      <trkpt lat="48.46714" lon="7.41598">
        <ele>270.2</ele>
        <time>2023-07-23T12:01:26Z</time>
      </trkpt>
      <trkpt lat="48.4671" lon="7.41608">
        <ele>270.2</ele>
        <time>2023-07-23T12:01:27Z</time>
      </trkpt>
      <trkpt lat="48.46706" lon="7.41617">
        <ele>270.1</ele>
        <time>2023-07-23T12:01:28Z</time>
      </trkpt>
      <trkpt lat="48.46702" lon="7.41627">
        <ele>270</ele>
        <time>2023-07-23T12:01:29Z</time>
      </trkpt>
      <trkpt lat="48.46698" lon="7.41636">
        <ele>269.9</ele>
        <time>2023-07-23T12:01:30Z</time>
      </trkpt>
      <trkpt lat="48.46693" lon="7.41645">
        <ele>269.7</ele>
        <time>2023-07-23T12:01:31Z</time>
      </trkpt>
      <trkpt lat="48.46688" lon="7.41655">
        <ele>269.5</ele>
        <time>2023-07-23T12:01:32Z</time>
      </trkpt>
      <trkpt lat="48.46684" lon="7.41665">
        <ele>269.3</ele>
        <time>2023-07-23T12:01:33Z</time>
      </trkpt>
      <trkpt lat="48.46679" lon="7.41675">
        <ele>269</ele>
        <time>2023-07-23T12:01:34Z</time>
      </trkpt>
      <trkpt lat="48.46675" lon="7.41686">
        <ele>268.7</ele>
        <time>2023-07-23T12:01:35Z</time>
      </trkpt>
      <trkpt lat="48.4667" lon="7.41697">
        <ele>268.5</ele>
        <time>2023-07-23T12:01:36Z</time>
      </trkpt>
      <trkpt lat="48.46665" lon="7.41708">
        <ele>268</ele>
        <time>2023-07-23T12:01:37Z</time>
      </trkpt>
      <trkpt lat="48.4666" lon="7.4172">
        <ele>267.7</ele>
        <time>2023-07-23T12:01:38Z</time>
      </trkpt>
      <trkpt lat="48.46655" lon="7.41731">
        <ele>267.4</ele>
        <time>2023-07-23T12:01:39Z</time>
      </trkpt>
      <trkpt lat="48.46651" lon="7.41744">
        <ele>267.1</ele>
        <time>2023-07-23T12:01:40Z</time>
      </trkpt>
      <trkpt lat="48.46647" lon="7.41756">
        <ele>266.8</ele>
        <time>2023-07-23T12:01:41Z</time>
      </trkpt>
      <trkpt lat="48.46643" lon="7.41769">
        <ele>266.6</ele>
        <time>2023-07-23T12:01:42Z</time>
      </trkpt>
      <trkpt lat="48.46638" lon="7.41781">
        <ele>266.3</ele>
        <time>2023-07-23T12:01:43Z</time>
      </trkpt>
      <trkpt lat="48.46633" lon="7.41793">
        <ele>266.1</ele>
        <time>2023-07-23T12:01:44Z</time>
      </trkpt>
      <trkpt lat="48.46628" lon="7.41805">
        <ele>265.8</ele>
        <time>2023-07-23T12:01:45Z</time>
      </trkpt>
      <trkpt lat="48.46623" lon="7.41816">
        <ele>265.6</ele>
        <time>2023-07-23T12:01:46Z</time>
      </trkpt>
      <trkpt lat="48.46617" lon="7.41826">
        <ele>265.3</ele>
        <time>2023-07-23T12:01:47Z</time>
      </trkpt>
      <trkpt lat="48.46611" lon="7.41837">
        <ele>265.1</ele>
        <time>2023-07-23T12:01:48Z</time>
      </trkpt>
      <trkpt lat="48.46605" lon="7.41848">
        <ele>264.9</ele>
        <time>2023-07-23T12:01:49Z</time>
      </trkpt>
      <trkpt lat="48.466" lon="7.41859">
        <ele>264.7</ele>
        <time>2023-07-23T12:01:50Z</time>
      </trkpt>
      <trkpt lat="48.46595" lon="7.41871">
        <ele>264.5</ele>
        <time>2023-07-23T12:01:51Z</time>
      </trkpt>
      <trkpt lat="48.46591" lon="7.41883">
        <ele>264.2</ele>
        <time>2023-07-23T12:01:52Z</time>
      </trkpt>
      <trkpt lat="48.46587" lon="7.41896">
        <ele>263.9</ele>
        <time>2023-07-23T12:01:53Z</time>
      </trkpt>
      <trkpt lat="48.46585" lon="7.4191">
        <ele>263.7</ele>
        <time>2023-07-23T12:01:54Z</time>
      </trkpt>
      <trkpt lat="48.46582" lon="7.41923">
        <ele>263.5</ele>
        <time>2023-07-23T12:01:55Z</time>
      </trkpt>
      <trkpt lat="48.46581" lon="7.41937">
        <ele>263.3</ele>
        <time>2023-07-23T12:01:56Z</time>
      </trkpt>
      <trkpt lat="48.46581" lon="7.41951">
        <ele>263.1</ele>
        <time>2023-07-23T12:01:57Z</time>
      </trkpt>
      <trkpt lat="48.4658" lon="7.41965">
        <ele>262.9</ele>
        <time>2023-07-23T12:01:58Z</time>
      </trkpt>
      <trkpt lat="48.4658" lon="7.41979">
        <ele>262.8</ele>
        <time>2023-07-23T12:01:59Z</time>
      </trkpt>
      <trkpt lat="48.4658" lon="7.41993">
        <ele>262.6</ele>
        <time>2023-07-23T12:02:00Z</time>
      </trkpt>
      <trkpt lat="48.46583" lon="7.4202">
        <ele>262.2</ele>
        <time>2023-07-23T12:02:01Z</time>
      </trkpt>
      <trkpt lat="48.46584" lon="7.42034">
        <ele>262</ele>
        <time>2023-07-23T12:02:02Z</time>
      </trkpt>
      <trkpt lat="48.46586" lon="7.42048">
        <ele>261.8</ele>
        <time>2023-07-23T12:02:03Z</time>
      </trkpt>
      <trkpt lat="48.46586" lon="7.42062">
        <ele>261.5</ele>
        <time>2023-07-23T12:02:04Z</time>
      </trkpt>
      <trkpt lat="48.46587" lon="7.42076">
        <ele>261.3</ele>
        <time>2023-07-23T12:02:05Z</time>
      </trkpt>
      <trkpt lat="48.46586" lon="7.42091">
        <ele>261</ele>
        <time>2023-07-23T12:02:06Z</time>
      </trkpt>
      <trkpt lat="48.46584" lon="7.42105">
        <ele>260.8</ele>
        <time>2023-07-23T12:02:07Z</time>
      </trkpt>
      <trkpt lat="48.4658" lon="7.42119">
        <ele>260.6</ele>
        <time>2023-07-23T12:02:08Z</time>
      </trkpt>
      <trkpt lat="48.46576" lon="7.42133">
        <ele>260.4</ele>
        <time>2023-07-23T12:02:09Z</time>
      </trkpt>
      <trkpt lat="48.46571" lon="7.42145">
        <ele>260.2</ele>
        <time>2023-07-23T12:02:10Z</time>
      </trkpt>
      <trkpt lat="48.46564" lon="7.42156">
        <ele>260.1</ele>
        <time>2023-07-23T12:02:11Z</time>
      </trkpt>
      <trkpt lat="48.46557" lon="7.42165">
        <ele>260</ele>
        <time>2023-07-23T12:02:12Z</time>
      </trkpt>
      <trkpt lat="48.46549" lon="7.42173">
        <ele>259.9</ele>
        <time>2023-07-23T12:02:13Z</time>
      </trkpt>
      <trkpt lat="48.46541" lon="7.4218">
        <ele>259.7</ele>
        <time>2023-07-23T12:02:14Z</time>
      </trkpt>
      <trkpt lat="48.46533" lon="7.42187">
        <ele>259.7</ele>
        <time>2023-07-23T12:02:15Z</time>
      </trkpt>
      <trkpt lat="48.46525" lon="7.42194">
        <ele>259.6</ele>
        <time>2023-07-23T12:02:16Z</time>
      </trkpt>
      <trkpt lat="48.46517" lon="7.422">
        <ele>259.4</ele>
        <time>2023-07-23T12:02:17Z</time>
      </trkpt>
      <trkpt lat="48.46509" lon="7.42205">
        <ele>259.3</ele>
        <time>2023-07-23T12:02:18Z</time>
      </trkpt>
      <trkpt lat="48.46501" lon="7.42211">
        <ele>259.1</ele>
        <time>2023-07-23T12:02:19Z</time>
      </trkpt>
      <trkpt lat="48.46493" lon="7.42217">
        <ele>259</ele>
        <time>2023-07-23T12:02:20Z</time>
      </trkpt>
      <trkpt lat="48.46485" lon="7.42223">
        <ele>258.8</ele>
        <time>2023-07-23T12:02:21Z</time>
      </trkpt>
      <trkpt lat="48.46477" lon="7.42229">
        <ele>258.7</ele>
        <time>2023-07-23T12:02:22Z</time>
      </trkpt>
      <trkpt lat="48.46469" lon="7.42235">
        <ele>258.6</ele>
        <time>2023-07-23T12:02:23Z</time>
      </trkpt>
      <trkpt lat="48.46461" lon="7.42241">
        <ele>258.6</ele>
        <time>2023-07-23T12:02:24Z</time>
      </trkpt>
      <trkpt lat="48.46453" lon="7.42249">
        <ele>258.6</ele>
        <time>2023-07-23T12:02:25Z</time>
      </trkpt>
      <trkpt lat="48.46446" lon="7.42258">
        <ele>258.7</ele>
        <time>2023-07-23T12:02:26Z</time>
      </trkpt>
      <trkpt lat="48.46439" lon="7.42267">
        <ele>258.9</ele>
        <time>2023-07-23T12:02:27Z</time>
      </trkpt>
      <trkpt lat="48.46433" lon="7.42275">
        <ele>259</ele>
        <time>2023-07-23T12:02:28Z</time>
      </trkpt>
      <trkpt lat="48.46426" lon="7.42283">
        <ele>259.1</ele>
        <time>2023-07-23T12:02:29Z</time>
      </trkpt>
      <trkpt lat="48.4642" lon="7.42291">
        <ele>259.2</ele>
        <time>2023-07-23T12:02:30Z</time>
      </trkpt>
      <trkpt lat="48.46414" lon="7.42299">
        <ele>259.2</ele>
        <time>2023-07-23T12:02:31Z</time>
      </trkpt>
      <trkpt lat="48.46408" lon="7.42307">
        <ele>259.3</ele>
        <time>2023-07-23T12:02:32Z</time>
      </trkpt>
      <trkpt lat="48.46402" lon="7.42315">
        <ele>259.4</ele>
        <time>2023-07-23T12:02:33Z</time>
      </trkpt>
      <trkpt lat="48.46396" lon="7.42323">
        <ele>259.4</ele>
        <time>2023-07-23T12:02:34Z</time>
      </trkpt>
      <trkpt lat="48.46389" lon="7.42331">
        <ele>259.4</ele>
        <time>2023-07-23T12:02:35Z</time>
      </trkpt>
      <trkpt lat="48.46383" lon="7.42338">
        <ele>259.4</ele>
        <time>2023-07-23T12:02:36Z</time>
      </trkpt>
      <trkpt lat="48.46377" lon="7.42346">
        <ele>259.4</ele>
        <time>2023-07-23T12:02:37Z</time>
      </trkpt>
      <trkpt lat="48.46371" lon="7.42354">
        <ele>259.4</ele>
        <time>2023-07-23T12:02:38Z</time>
      </trkpt>
      <trkpt lat="48.46364" lon="7.42362">
        <ele>259.4</ele>
        <time>2023-07-23T12:02:39Z</time>
      </trkpt>
      <trkpt lat="48.46358" lon="7.4237">
        <ele>259.4</ele>
        <time>2023-07-23T12:02:40Z</time>
      </trkpt>
      <trkpt lat="48.46352" lon="7.42377">
        <ele>259.5</ele>
        <time>2023-07-23T12:02:41Z</time>
      </trkpt>
      <trkpt lat="48.46346" lon="7.42385">
        <ele>259.5</ele>
        <time>2023-07-23T12:02:42Z</time>
      </trkpt>
      <trkpt lat="48.4634" lon="7.42393">
        <ele>259.5</ele>
        <time>2023-07-23T12:02:43Z</time>
      </trkpt>
      <trkpt lat="48.46334" lon="7.424">
        <ele>259.5</ele>
        <time>2023-07-23T12:02:44Z</time>
      </trkpt>
      <trkpt lat="48.46328" lon="7.42408">
        <ele>259.4</ele>
        <time>2023-07-23T12:02:45Z</time>
      </trkpt>
      <trkpt lat="48.46322" lon="7.42416">
        <ele>259.3</ele>
        <time>2023-07-23T12:02:46Z</time>
      </trkpt>
      <trkpt lat="48.46317" lon="7.42425">
        <ele>259.2</ele>
        <time>2023-07-23T12:02:47Z</time>
      </trkpt>
      <trkpt lat="48.46312" lon="7.42435">
        <ele>259</ele>
        <time>2023-07-23T12:02:48Z</time>
      </trkpt>
      <trkpt lat="48.46309" lon="7.42447">
        <ele>258.6</ele>
        <time>2023-07-23T12:02:49Z</time>
      </trkpt>
      <trkpt lat="48.46306" lon="7.42459">
        <ele>258.2</ele>
        <time>2023-07-23T12:02:50Z</time>
      </trkpt>
      <trkpt lat="48.46303" lon="7.42472">
        <ele>257.7</ele>
        <time>2023-07-23T12:02:51Z</time>
      </trkpt>
      <trkpt lat="48.46301" lon="7.42485">
        <ele>257.1</ele>
        <time>2023-07-23T12:02:52Z</time>
      </trkpt>
      <trkpt lat="48.46299" lon="7.425">
        <ele>256.5</ele>
        <time>2023-07-23T12:02:53Z</time>
      </trkpt>
      <trkpt lat="48.46298" lon="7.42515">
        <ele>255.8</ele>
        <time>2023-07-23T12:02:54Z</time>
      </trkpt>
      <trkpt lat="48.46296" lon="7.4253">
        <ele>255.1</ele>
        <time>2023-07-23T12:02:55Z</time>
      </trkpt>
      <trkpt lat="48.46295" lon="7.42545">
        <ele>254.5</ele>
        <time>2023-07-23T12:02:56Z</time>
      </trkpt>
      <trkpt lat="48.46293" lon="7.42561">
        <ele>253.9</ele>
        <time>2023-07-23T12:02:57Z</time>
      </trkpt>
      <trkpt lat="48.46291" lon="7.42577">
        <ele>253.4</ele>
        <time>2023-07-23T12:02:58Z</time>
      </trkpt>
      <trkpt lat="48.46289" lon="7.42593">
        <ele>252.9</ele>
        <time>2023-07-23T12:02:59Z</time>
      </trkpt>
      <trkpt lat="48.46288" lon="7.4261">
        <ele>252.7</ele>
        <time>2023-07-23T12:03:00Z</time>
      </trkpt>
      <trkpt lat="48.46285" lon="7.42626">
        <ele>252.4</ele>
        <time>2023-07-23T12:03:01Z</time>
      </trkpt>
      <trkpt lat="48.46283" lon="7.42642">
        <ele>252.1</ele>
        <time>2023-07-23T12:03:02Z</time>
      </trkpt>
      <trkpt lat="48.46281" lon="7.42658">
        <ele>251.8</ele>
        <time>2023-07-23T12:03:03Z</time>
      </trkpt>
      <trkpt lat="48.46279" lon="7.42674">
        <ele>251.5</ele>
        <time>2023-07-23T12:03:04Z</time>
      </trkpt>
      <trkpt lat="48.46277" lon="7.4269">
        <ele>251.3</ele>
        <time>2023-07-23T12:03:05Z</time>
      </trkpt>
      <trkpt lat="48.46274" lon="7.42705">
        <ele>251.1</ele>
        <time>2023-07-23T12:03:06Z</time>
      </trkpt>
      <trkpt lat="48.46272" lon="7.42721">
        <ele>250.8</ele>
        <time>2023-07-23T12:03:07Z</time>
      </trkpt>
      <trkpt lat="48.46269" lon="7.42736">
        <ele>250.6</ele>
        <time>2023-07-23T12:03:08Z</time>
      </trkpt>
      <trkpt lat="48.46266" lon="7.42751">
        <ele>250.6</ele>
        <time>2023-07-23T12:03:09Z</time>
      </trkpt>
      <trkpt lat="48.46262" lon="7.42765">
        <ele>250.6</ele>
        <time>2023-07-23T12:03:10Z</time>
      </trkpt>
      <trkpt lat="48.46259" lon="7.42779">
        <ele>250.7</ele>
        <time>2023-07-23T12:03:11Z</time>
      </trkpt>
      <trkpt lat="48.46255" lon="7.42793">
        <ele>250.9</ele>
        <time>2023-07-23T12:03:12Z</time>
      </trkpt>
      <trkpt lat="48.46252" lon="7.42806">
        <ele>251.1</ele>
        <time>2023-07-23T12:03:13Z</time>
      </trkpt>
      <trkpt lat="48.46249" lon="7.42819">
        <ele>251.3</ele>
        <time>2023-07-23T12:03:14Z</time>
      </trkpt>
      <trkpt lat="48.46245" lon="7.42831">
        <ele>251.5</ele>
        <time>2023-07-23T12:03:15Z</time>
      </trkpt>
      <trkpt lat="48.46241" lon="7.42842">
        <ele>251.8</ele>
        <time>2023-07-23T12:03:16Z</time>
      </trkpt>
      <trkpt lat="48.46238" lon="7.42854">
        <ele>252.1</ele>
        <time>2023-07-23T12:03:17Z</time>
      </trkpt>
      <trkpt lat="48.46234" lon="7.42864">
        <ele>252.4</ele>
        <time>2023-07-23T12:03:18Z</time>
      </trkpt>
      <trkpt lat="48.4623" lon="7.42874">
        <ele>252.6</ele>
        <time>2023-07-23T12:03:19Z</time>
      </trkpt>
      <trkpt lat="48.46225" lon="7.42884">
        <ele>252.8</ele>
        <time>2023-07-23T12:03:20Z</time>
      </trkpt>
      <trkpt lat="48.46221" lon="7.42893">
        <ele>252.9</ele>
        <time>2023-07-23T12:03:22Z</time>
      </trkpt>
      <trkpt lat="48.46216" lon="7.42902">
        <ele>253.1</ele>
        <time>2023-07-23T12:03:23Z</time>
      </trkpt>
      <trkpt lat="48.46212" lon="7.4291">
        <ele>253.4</ele>
        <time>2023-07-23T12:03:24Z</time>
      </trkpt>
      <trkpt lat="48.46207" lon="7.42918">
        <ele>253.5</ele>
        <time>2023-07-23T12:03:25Z</time>
      </trkpt>
      <trkpt lat="48.46202" lon="7.42925">
        <ele>253.6</ele>
        <time>2023-07-23T12:03:26Z</time>
      </trkpt>
      <trkpt lat="48.46197" lon="7.42932">
        <ele>253.8</ele>
        <time>2023-07-23T12:03:27Z</time>
      </trkpt>
      <trkpt lat="48.46193" lon="7.42939">
        <ele>253.9</ele>
        <time>2023-07-23T12:03:28Z</time>
      </trkpt>
      <trkpt lat="48.46188" lon="7.42946">
        <ele>254</ele>
        <time>2023-07-23T12:03:29Z</time>
      </trkpt>
      <trkpt lat="48.46184" lon="7.42952">
        <ele>254.1</ele>
        <time>2023-07-23T12:03:30Z</time>
      </trkpt>
      <trkpt lat="48.46179" lon="7.42958">
        <ele>254.2</ele>
        <time>2023-07-23T12:03:31Z</time>
      </trkpt>
      <trkpt lat="48.46174" lon="7.42965">
        <ele>254.3</ele>
        <time>2023-07-23T12:03:32Z</time>
      </trkpt>
      <trkpt lat="48.46169" lon="7.4297">
        <ele>254.3</ele>
        <time>2023-07-23T12:03:33Z</time>
      </trkpt>
      <trkpt lat="48.46165" lon="7.42976">
        <ele>254.4</ele>
        <time>2023-07-23T12:03:34Z</time>
      </trkpt>
      <trkpt lat="48.4616" lon="7.42982">
        <ele>254.4</ele>
        <time>2023-07-23T12:03:35Z</time>
      </trkpt>
      <trkpt lat="48.46155" lon="7.42987">
        <ele>254.4</ele>
        <time>2023-07-23T12:03:36Z</time>
      </trkpt>
      <trkpt lat="48.46149" lon="7.42992">
        <ele>254.4</ele>
        <time>2023-07-23T12:03:37Z</time>
      </trkpt>
      <trkpt lat="48.46143" lon="7.42995">
        <ele>254.4</ele>
        <time>2023-07-23T12:03:38Z</time>
      </trkpt>
      <trkpt lat="48.46137" lon="7.42997">
        <ele>254.4</ele>
        <time>2023-07-23T12:03:39Z</time>
      </trkpt>
      <trkpt lat="48.46132" lon="7.42999">
        <ele>254.4</ele>
        <time>2023-07-23T12:03:40Z</time>
      </trkpt>
      <trkpt lat="48.46126" lon="7.43">
        <ele>254.4</ele>
        <time>2023-07-23T12:03:41Z</time>
      </trkpt>
      <trkpt lat="48.46119" lon="7.43">
        <ele>254.4</ele>
        <time>2023-07-23T12:03:42Z</time>
      </trkpt>
      <trkpt lat="48.46114" lon="7.42999">
        <ele>254.4</ele>
        <time>2023-07-23T12:03:43Z</time>
      </trkpt>
      <trkpt lat="48.46108" lon="7.42998">
        <ele>254.4</ele>
        <time>2023-07-23T12:03:44Z</time>
      </trkpt>
      <trkpt lat="48.46101" lon="7.42997">
        <ele>254.4</ele>
        <time>2023-07-23T12:03:45Z</time>
      </trkpt>
      <trkpt lat="48.46096" lon="7.42994">
        <ele>254.4</ele>
        <time>2023-07-23T12:03:46Z</time>
      </trkpt>
      <trkpt lat="48.4609" lon="7.42991">
        <ele>254.4</ele>
        <time>2023-07-23T12:03:47Z</time>
      </trkpt>
      <trkpt lat="48.46085" lon="7.42988">
        <ele>254.4</ele>
        <time>2023-07-23T12:03:48Z</time>
      </trkpt>
      <trkpt lat="48.46081" lon="7.42983">
        <ele>254.5</ele>
        <time>2023-07-23T12:03:49Z</time>
      </trkpt>
      <trkpt lat="48.46076" lon="7.42979">
        <ele>254.5</ele>
        <time>2023-07-23T12:03:50Z</time>
      </trkpt>
      <trkpt lat="48.46072" lon="7.42979">
        <ele>254.5</ele>
        <time>2023-07-23T12:03:51Z</time>
      </trkpt>
      <trkpt lat="48.46068" lon="7.42983">
        <ele>254.3</ele>
        <time>2023-07-23T12:03:52Z</time>
      </trkpt>
      <trkpt lat="48.46065" lon="7.4299">
        <ele>254</ele>
        <time>2023-07-23T12:03:53Z</time>
      </trkpt>
      <trkpt lat="48.46061" lon="7.42998">
        <ele>253.7</ele>
        <time>2023-07-23T12:03:54Z</time>
      </trkpt>
      <trkpt lat="48.46057" lon="7.43006">
        <ele>253.3</ele>
        <time>2023-07-23T12:03:55Z</time>
      </trkpt>
      <trkpt lat="48.46054" lon="7.43015">
        <ele>252.9</ele>
        <time>2023-07-23T12:03:56Z</time>
      </trkpt>
      <trkpt lat="48.4605" lon="7.43026">
        <ele>252.4</ele>
        <time>2023-07-23T12:03:57Z</time>
      </trkpt>
      <trkpt lat="48.46048" lon="7.43036">
        <ele>252</ele>
        <time>2023-07-23T12:03:58Z</time>
      </trkpt>
      <trkpt lat="48.46045" lon="7.43048">
        <ele>251.6</ele>
        <time>2023-07-23T12:03:59Z</time>
      </trkpt>
      <trkpt lat="48.46044" lon="7.43059">
        <ele>251.1</ele>
        <time>2023-07-23T12:04:00Z</time>
      </trkpt>
      <trkpt lat="48.46042" lon="7.43071">
        <ele>250.7</ele>
        <time>2023-07-23T12:04:01Z</time>
      </trkpt>
      <trkpt lat="48.46042" lon="7.43084">
        <ele>250.3</ele>
        <time>2023-07-23T12:04:02Z</time>
      </trkpt>
      <trkpt lat="48.46042" lon="7.43096">
        <ele>249.9</ele>
        <time>2023-07-23T12:04:03Z</time>
      </trkpt>
      <trkpt lat="48.46042" lon="7.43107">
        <ele>249.5</ele>
        <time>2023-07-23T12:04:04Z</time>
      </trkpt>
      <trkpt lat="48.46043" lon="7.43119">
        <ele>249.1</ele>
        <time>2023-07-23T12:04:05Z</time>
      </trkpt>
      <trkpt lat="48.46044" lon="7.43131">
        <ele>248.8</ele>
        <time>2023-07-23T12:04:06Z</time>
      </trkpt>
      <trkpt lat="48.46045" lon="7.43143">
        <ele>248.4</ele>
        <time>2023-07-23T12:04:07Z</time>
      </trkpt>
      <trkpt lat="48.46047" lon="7.43155">
        <ele>248.2</ele>
        <time>2023-07-23T12:04:08Z</time>
      </trkpt>
      <trkpt lat="48.46048" lon="7.43165">
        <ele>248</ele>
        <time>2023-07-23T12:04:09Z</time>
      </trkpt>
      <trkpt lat="48.46049" lon="7.43175">
        <ele>247.8</ele>
        <time>2023-07-23T12:04:10Z</time>
      </trkpt>
      <trkpt lat="48.4605" lon="7.43182">
        <ele>247.6</ele>
        <time>2023-07-23T12:04:11Z</time>
      </trkpt>
      <trkpt lat="48.46052" lon="7.43191">
        <ele>247.4</ele>
        <time>2023-07-23T12:04:12Z</time>
      </trkpt>
      <trkpt lat="48.46053" lon="7.43199">
        <ele>247.3</ele>
        <time>2023-07-23T12:04:13Z</time>
      </trkpt>
      <trkpt lat="48.46051" lon="7.43211">
        <ele>247.1</ele>
        <time>2023-07-23T12:04:14Z</time>
      </trkpt>
      <trkpt lat="48.46047" lon="7.43215">
        <ele>247.1</ele>
        <time>2023-07-23T12:04:15Z</time>
      </trkpt>
      <trkpt lat="48.46042" lon="7.43217">
        <ele>247.1</ele>
        <time>2023-07-23T12:04:16Z</time>
      </trkpt>
      <trkpt lat="48.46037" lon="7.43219">
        <ele>247.1</ele>
        <time>2023-07-23T12:04:17Z</time>
      </trkpt>
      <trkpt lat="48.46033" lon="7.43221">
        <ele>247.2</ele>
        <time>2023-07-23T12:04:18Z</time>
      </trkpt>
      <trkpt lat="48.46028" lon="7.43224">
        <ele>247.2</ele>
        <time>2023-07-23T12:04:19Z</time>
      </trkpt>
      <trkpt lat="48.46024" lon="7.43226">
        <ele>247.3</ele>
        <time>2023-07-23T12:04:20Z</time>
      </trkpt>
      <trkpt lat="48.4602" lon="7.43229">
        <ele>247.4</ele>
        <time>2023-07-23T12:04:21Z</time>
      </trkpt>
      <trkpt lat="48.46016" lon="7.43232">
        <ele>247.5</ele>
        <time>2023-07-23T12:04:22Z</time>
      </trkpt>
      <trkpt lat="48.46012" lon="7.43234">
        <ele>247.6</ele>
        <time>2023-07-23T12:04:23Z</time>
      </trkpt>
      <trkpt lat="48.46007" lon="7.43236">
        <ele>247.7</ele>
        <time>2023-07-23T12:04:24Z</time>
      </trkpt>
      <trkpt lat="48.46003" lon="7.43239">
        <ele>247.8</ele>
        <time>2023-07-23T12:04:25Z</time>
      </trkpt>
      <trkpt lat="48.45998" lon="7.43242">
        <ele>247.9</ele>
        <time>2023-07-23T12:04:26Z</time>
      </trkpt>
      <trkpt lat="48.45994" lon="7.43244">
        <ele>248</ele>
        <time>2023-07-23T12:04:27Z</time>
      </trkpt>
      <trkpt lat="48.4599" lon="7.43247">
        <ele>248.2</ele>
        <time>2023-07-23T12:04:28Z</time>
      </trkpt>
      <trkpt lat="48.45985" lon="7.4325">
        <ele>248.4</ele>
        <time>2023-07-23T12:04:29Z</time>
      </trkpt>
      <trkpt lat="48.4598" lon="7.43253">
        <ele>248.6</ele>
        <time>2023-07-23T12:04:30Z</time>
      </trkpt>
      <trkpt lat="48.45976" lon="7.43255">
        <ele>248.7</ele>
        <time>2023-07-23T12:04:31Z</time>
      </trkpt>
      <trkpt lat="48.45971" lon="7.43257">
        <ele>249</ele>
        <time>2023-07-23T12:04:32Z</time>
      </trkpt>
      <trkpt lat="48.45967" lon="7.4326">
        <ele>249.2</ele>
        <time>2023-07-23T12:04:33Z</time>
      </trkpt>
      <trkpt lat="48.45962" lon="7.43263">
        <ele>249.4</ele>
        <time>2023-07-23T12:04:34Z</time>
      </trkpt>
      <trkpt lat="48.45958" lon="7.43266">
        <ele>249.4</ele>
        <time>2023-07-23T12:04:35Z</time>
      </trkpt>
      <trkpt lat="48.45953" lon="7.43268">
        <ele>249.5</ele>
        <time>2023-07-23T12:04:36Z</time>
      </trkpt>
      <trkpt lat="48.45948" lon="7.43271">
        <ele>249.5</ele>
        <time>2023-07-23T12:04:37Z</time>
      </trkpt>
      <trkpt lat="48.45944" lon="7.43273">
        <ele>249.6</ele>
        <time>2023-07-23T12:04:38Z</time>
      </trkpt>
      <trkpt lat="48.4594" lon="7.43276">
        <ele>249.7</ele>
        <time>2023-07-23T12:04:39Z</time>
      </trkpt>
      <trkpt lat="48.45936" lon="7.43279">
        <ele>249.9</ele>
        <time>2023-07-23T12:04:40Z</time>
      </trkpt>
      <trkpt lat="48.45931" lon="7.43281">
        <ele>250.1</ele>
        <time>2023-07-23T12:04:41Z</time>
      </trkpt>
      <trkpt lat="48.45927" lon="7.43284">
        <ele>250.2</ele>
        <time>2023-07-23T12:04:42Z</time>
      </trkpt>
      <trkpt lat="48.45922" lon="7.43287">
        <ele>250.4</ele>
        <time>2023-07-23T12:04:43Z</time>
      </trkpt>
      <trkpt lat="48.45918" lon="7.43289">
        <ele>250.6</ele>
        <time>2023-07-23T12:04:44Z</time>
      </trkpt>
      <trkpt lat="48.45913" lon="7.43292">
        <ele>250.8</ele>
        <time>2023-07-23T12:04:45Z</time>
      </trkpt>
      <trkpt lat="48.45909" lon="7.43295">
        <ele>251</ele>
        <time>2023-07-23T12:04:46Z</time>
      </trkpt>
      <trkpt lat="48.45905" lon="7.43298">
        <ele>251.2</ele>
        <time>2023-07-23T12:04:47Z</time>
      </trkpt>
      <trkpt lat="48.459" lon="7.433">
        <ele>251.4</ele>
        <time>2023-07-23T12:04:48Z</time>
      </trkpt>
      <trkpt lat="48.45896" lon="7.43302">
        <ele>251.6</ele>
        <time>2023-07-23T12:04:49Z</time>
      </trkpt>
      <trkpt lat="48.45892" lon="7.43305">
        <ele>251.8</ele>
        <time>2023-07-23T12:04:50Z</time>
      </trkpt>
      <trkpt lat="48.45887" lon="7.43307">
        <ele>252</ele>
        <time>2023-07-23T12:04:51Z</time>
      </trkpt>
      <trkpt lat="48.45883" lon="7.43308">
        <ele>252.2</ele>
        <time>2023-07-23T12:04:52Z</time>
      </trkpt>
      <trkpt lat="48.45878" lon="7.43308">
        <ele>252.4</ele>
        <time>2023-07-23T12:04:53Z</time>
      </trkpt>
      <trkpt lat="48.45873" lon="7.43308">
        <ele>252.6</ele>
        <time>2023-07-23T12:04:54Z</time>
      </trkpt>
      <trkpt lat="48.45869" lon="7.43309">
        <ele>252.8</ele>
        <time>2023-07-23T12:04:55Z</time>
      </trkpt>
      <trkpt lat="48.45864" lon="7.43309">
        <ele>253</ele>
        <time>2023-07-23T12:04:56Z</time>
      </trkpt>
      <trkpt lat="48.4586" lon="7.43309">
        <ele>253.2</ele>
        <time>2023-07-23T12:04:57Z</time>
      </trkpt>
      <trkpt lat="48.45855" lon="7.43309">
        <ele>253.3</ele>
        <time>2023-07-23T12:04:58Z</time>
      </trkpt>
      <trkpt lat="48.45851" lon="7.4331">
        <ele>253.3</ele>
        <time>2023-07-23T12:04:59Z</time>
      </trkpt>
      <trkpt lat="48.45847" lon="7.4331">
        <ele>253.4</ele>
        <time>2023-07-23T12:05:00Z</time>
      </trkpt>
      <trkpt lat="48.45843" lon="7.43311">
        <ele>253.5</ele>
        <time>2023-07-23T12:05:01Z</time>
      </trkpt>
      <trkpt lat="48.45839" lon="7.43311">
        <ele>253.7</ele>
        <time>2023-07-23T12:05:02Z</time>
      </trkpt>
      <trkpt lat="48.45835" lon="7.43311">
        <ele>253.9</ele>
        <time>2023-07-23T12:05:03Z</time>
      </trkpt>
      <trkpt lat="48.45832" lon="7.43312">
        <ele>254.1</ele>
        <time>2023-07-23T12:05:04Z</time>
      </trkpt>
      <trkpt lat="48.45828" lon="7.43312">
        <ele>254.3</ele>
        <time>2023-07-23T12:05:05Z</time>
      </trkpt>
      <trkpt lat="48.45825" lon="7.43311">
        <ele>254.5</ele>
        <time>2023-07-23T12:05:06Z</time>
      </trkpt>
      <trkpt lat="48.45821" lon="7.43312">
        <ele>254.7</ele>
        <time>2023-07-23T12:05:07Z</time>
      </trkpt>
      <trkpt lat="48.45817" lon="7.43312">
        <ele>254.9</ele>
        <time>2023-07-23T12:05:08Z</time>
      </trkpt>
      <trkpt lat="48.45813" lon="7.43312">
        <ele>255.1</ele>
        <time>2023-07-23T12:05:09Z</time>
      </trkpt>
      <trkpt lat="48.4581" lon="7.43313">
        <ele>255.4</ele>
        <time>2023-07-23T12:05:10Z</time>
      </trkpt>
      <trkpt lat="48.45806" lon="7.43313">
        <ele>255.6</ele>
        <time>2023-07-23T12:05:11Z</time>
      </trkpt>
      <trkpt lat="48.45802" lon="7.43314">
        <ele>255.6</ele>
        <time>2023-07-23T12:05:12Z</time>
      </trkpt>
      <trkpt lat="48.45798" lon="7.43316">
        <ele>255.8</ele>
        <time>2023-07-23T12:05:13Z</time>
      </trkpt>
      <trkpt lat="48.45795" lon="7.43317">
        <ele>255.9</ele>
        <time>2023-07-23T12:05:14Z</time>
      </trkpt>
      <trkpt lat="48.45791" lon="7.43318">
        <ele>256.1</ele>
        <time>2023-07-23T12:05:15Z</time>
      </trkpt>
      <trkpt lat="48.45788" lon="7.4332">
        <ele>256.3</ele>
        <time>2023-07-23T12:05:16Z</time>
      </trkpt>
      <trkpt lat="48.45784" lon="7.43321">
        <ele>256.4</ele>
        <time>2023-07-23T12:05:17Z</time>
      </trkpt>
      <trkpt lat="48.45781" lon="7.43323">
        <ele>256.6</ele>
        <time>2023-07-23T12:05:18Z</time>
      </trkpt>
      <trkpt lat="48.45777" lon="7.43324">
        <ele>256.8</ele>
        <time>2023-07-23T12:05:19Z</time>
      </trkpt>
      <trkpt lat="48.45773" lon="7.43326">
        <ele>256.9</ele>
        <time>2023-07-23T12:05:20Z</time>
      </trkpt>
      <trkpt lat="48.4577" lon="7.43326">
        <ele>257.1</ele>
        <time>2023-07-23T12:05:21Z</time>
      </trkpt>
      <trkpt lat="48.45766" lon="7.43327">
        <ele>257.3</ele>
        <time>2023-07-23T12:05:22Z</time>
      </trkpt>
      <trkpt lat="48.45762" lon="7.43329">
        <ele>257.5</ele>
        <time>2023-07-23T12:05:23Z</time>
      </trkpt>
      <trkpt lat="48.45759" lon="7.4333">
        <ele>257.6</ele>
        <time>2023-07-23T12:05:24Z</time>
      </trkpt>
      <trkpt lat="48.45755" lon="7.43331">
        <ele>257.8</ele>
        <time>2023-07-23T12:05:25Z</time>
      </trkpt>
      <trkpt lat="48.45751" lon="7.43332">
        <ele>258</ele>
        <time>2023-07-23T12:05:26Z</time>
      </trkpt>
      <trkpt lat="48.45748" lon="7.43333">
        <ele>258.1</ele>
        <time>2023-07-23T12:05:28Z</time>
      </trkpt>
      <trkpt lat="48.45744" lon="7.43334">
        <ele>258.3</ele>
        <time>2023-07-23T12:05:29Z</time>
      </trkpt>
      <trkpt lat="48.45741" lon="7.43335">
        <ele>258.5</ele>
        <time>2023-07-23T12:05:30Z</time>
      </trkpt>
      <trkpt lat="48.45738" lon="7.43336">
        <ele>258.7</ele>
        <time>2023-07-23T12:05:31Z</time>
      </trkpt>
      <trkpt lat="48.45734" lon="7.43336">
        <ele>258.8</ele>
        <time>2023-07-23T12:05:32Z</time>
      </trkpt>
      <trkpt lat="48.45731" lon="7.43336">
        <ele>259.1</ele>
        <time>2023-07-23T12:05:33Z</time>
      </trkpt>
      <trkpt lat="48.45728" lon="7.43335">
        <ele>259.2</ele>
        <time>2023-07-23T12:05:34Z</time>
      </trkpt>
      <trkpt lat="48.45727" lon="7.43335">
        <ele>259.3</ele>
        <time>2023-07-23T12:05:35Z</time>
      </trkpt>
      <trkpt lat="48.45725" lon="7.43334">
        <ele>259.3</ele>
        <time>2023-07-23T12:05:36Z</time>
      </trkpt>
      <trkpt lat="48.45724" lon="7.43333">
        <ele>259.4</ele>
        <time>2023-07-23T12:05:37Z</time>
      </trkpt>
      <trkpt lat="48.45724" lon="7.43334">
        <ele>259.4</ele>
        <time>2023-07-23T12:05:38Z</time>
      </trkpt>
    </trkseg>
  </trk>
</gpx>